<?xml version="1.0" encoding="UTF-8"?><gpx xmlns="http://www.topografix.com/GPX/1/1" version="1.1" creator="iOrient"><trk><name>GreatWalk. Два Кабана</name><trkseg><trkpt lat="55.7611320" lon="49.1379089"><time>2022-10-29T08:40:27.847</time></trkpt><trkpt lat="55.7611271" lon="49.1378120"><time>2022-10-29T08:40:29.847</time></trkpt><trkpt lat="55.7611397" lon="49.1377348"><time>2022-10-29T08:40:33.847</time></trkpt><trkpt lat="55.7611817" lon="49.1376965"><time>2022-10-29T08:40:50.870</time></trkpt><trkpt lat="55.7612110" lon="49.1376287"><time>2022-10-29T08:40:57.867</time></trkpt><trkpt lat="55.7612236" lon="49.1375212"><time>2022-10-29T08:41:00.900</time></trkpt><trkpt lat="55.7612298" lon="49.1374248"><time>2022-10-29T08:41:02.843</time></trkpt><trkpt lat="55.7612379" lon="49.1373248"><time>2022-10-29T08:41:04.863</time></trkpt><trkpt lat="55.7612600" lon="49.1372200"><time>2022-10-29T08:41:06.877</time></trkpt><trkpt lat="55.7612989" lon="49.1371141"><time>2022-10-29T08:41:08.863</time></trkpt><trkpt lat="55.7613372" lon="49.1370068"><time>2022-10-29T08:41:10.877</time></trkpt><trkpt lat="55.7613703" lon="49.1369013"><time>2022-10-29T08:41:12.900</time></trkpt><trkpt lat="55.7613815" lon="49.1368773"><time>2022-10-29T08:41:14.027</time></trkpt><trkpt lat="55.7614284" lon="49.1369338"><time>2022-10-29T08:41:17.840</time></trkpt><trkpt lat="55.7614675" lon="49.1370270"><time>2022-10-29T08:41:19.873</time></trkpt><trkpt lat="55.7615054" lon="49.1371002"><time>2022-10-29T08:41:21.927</time></trkpt><trkpt lat="55.7615316" lon="49.1371202"><time>2022-10-29T08:41:23.057</time></trkpt><trkpt lat="55.7615851" lon="49.1371501"><time>2022-10-29T08:41:25.903</time></trkpt><trkpt lat="55.7615975" lon="49.1371015"><time>2022-10-29T08:41:27.013</time></trkpt><trkpt lat="55.7616510" lon="49.1371537"><time>2022-10-29T08:41:29.877</time></trkpt><trkpt lat="55.7617042" lon="49.1372081"><time>2022-10-29T08:41:31.920</time></trkpt><trkpt lat="55.7617637" lon="49.1372354"><time>2022-10-29T08:41:33.857</time></trkpt><trkpt lat="55.7618247" lon="49.1372178"><time>2022-10-29T08:41:35.850</time></trkpt><trkpt lat="55.7618751" lon="49.1371867"><time>2022-10-29T08:41:37.873</time></trkpt><trkpt lat="55.7619117" lon="49.1371383"><time>2022-10-29T08:41:53.877</time></trkpt><trkpt lat="55.7619726" lon="49.1371005"><time>2022-10-29T08:42:03.867</time></trkpt><trkpt lat="55.7620312" lon="49.1370722"><time>2022-10-29T08:42:05.860</time></trkpt><trkpt lat="55.7621014" lon="49.1370470"><time>2022-10-29T08:42:07.900</time></trkpt><trkpt lat="55.7621434" lon="49.1370480"><time>2022-10-29T08:42:09.010</time></trkpt><trkpt lat="55.7621870" lon="49.1370173"><time>2022-10-29T08:42:09.850</time></trkpt><trkpt lat="55.7622573" lon="49.1369681"><time>2022-10-29T08:42:11.853</time></trkpt><trkpt lat="55.7623263" lon="49.1369167"><time>2022-10-29T08:42:13.867</time></trkpt><trkpt lat="55.7623969" lon="49.1368666"><time>2022-10-29T08:42:15.880</time></trkpt><trkpt lat="55.7624712" lon="49.1368101"><time>2022-10-29T08:42:17.867</time></trkpt><trkpt lat="55.7625510" lon="49.1367497"><time>2022-10-29T08:42:19.877</time></trkpt><trkpt lat="55.7626278" lon="49.1366912"><time>2022-10-29T08:42:21.863</time></trkpt><trkpt lat="55.7627012" lon="49.1366291"><time>2022-10-29T08:42:23.870</time></trkpt><trkpt lat="55.7627760" lon="49.1365672"><time>2022-10-29T08:42:25.880</time></trkpt><trkpt lat="55.7628516" lon="49.1365021"><time>2022-10-29T08:42:27.867</time></trkpt><trkpt lat="55.7629253" lon="49.1364412"><time>2022-10-29T08:42:29.910</time></trkpt><trkpt lat="55.7629310" lon="49.1364307"><time>2022-10-29T08:42:31.027</time></trkpt><trkpt lat="55.7629754" lon="49.1363971"><time>2022-10-29T08:42:31.853</time></trkpt><trkpt lat="55.7630456" lon="49.1363463"><time>2022-10-29T08:42:33.850</time></trkpt><trkpt lat="55.7631102" lon="49.1362947"><time>2022-10-29T08:42:35.883</time></trkpt><trkpt lat="55.7631491" lon="49.1362271"><time>2022-10-29T08:42:37.880</time></trkpt><trkpt lat="55.7631515" lon="49.1361146"><time>2022-10-29T08:42:40.877</time></trkpt><trkpt lat="55.7631483" lon="49.1360283"><time>2022-10-29T08:42:42.883</time></trkpt><trkpt lat="55.7631319" lon="49.1359504"><time>2022-10-29T08:42:46.880</time></trkpt><trkpt lat="55.7631308" lon="49.1358519"><time>2022-10-29T08:42:53.890</time></trkpt><trkpt lat="55.7631307" lon="49.1357668"><time>2022-10-29T08:42:55.887</time></trkpt><trkpt lat="55.7631295" lon="49.1356599"><time>2022-10-29T08:42:57.887</time></trkpt><trkpt lat="55.7631272" lon="49.1355674"><time>2022-10-29T08:42:59.877</time></trkpt><trkpt lat="55.7631071" lon="49.1354658"><time>2022-10-29T08:43:01.887</time></trkpt><trkpt lat="55.7631336" lon="49.1353917"><time>2022-10-29T08:43:02.883</time></trkpt><trkpt lat="55.7631416" lon="49.1352645"><time>2022-10-29T08:43:04.890</time></trkpt><trkpt lat="55.7631448" lon="49.1351402"><time>2022-10-29T08:43:06.887</time></trkpt><trkpt lat="55.7631462" lon="49.1350173"><time>2022-10-29T08:43:08.893</time></trkpt><trkpt lat="55.7631490" lon="49.1348859"><time>2022-10-29T08:43:10.880</time></trkpt><trkpt lat="55.7631522" lon="49.1347373"><time>2022-10-29T08:43:12.887</time></trkpt><trkpt lat="55.7631533" lon="49.1346058"><time>2022-10-29T08:43:14.877</time></trkpt><trkpt lat="55.7631516" lon="49.1344851"><time>2022-10-29T08:43:16.880</time></trkpt><trkpt lat="55.7631505" lon="49.1343774"><time>2022-10-29T08:43:18.887</time></trkpt><trkpt lat="55.7631501" lon="49.1342850"><time>2022-10-29T08:43:20.887</time></trkpt><trkpt lat="55.7631562" lon="49.1341653"><time>2022-10-29T08:43:42.883</time></trkpt><trkpt lat="55.7631402" lon="49.1340521"><time>2022-10-29T08:43:44.880</time></trkpt><trkpt lat="55.7631137" lon="49.1339231"><time>2022-10-29T08:43:46.883</time></trkpt><trkpt lat="55.7631006" lon="49.1338058"><time>2022-10-29T08:43:48.877</time></trkpt><trkpt lat="55.7630990" lon="49.1336856"><time>2022-10-29T08:43:50.880</time></trkpt><trkpt lat="55.7631006" lon="49.1335679"><time>2022-10-29T08:43:52.843</time></trkpt><trkpt lat="55.7631045" lon="49.1334736"><time>2022-10-29T08:43:54.847</time></trkpt><trkpt lat="55.7631215" lon="49.1333494"><time>2022-10-29T08:44:02.887</time></trkpt><trkpt lat="55.7631464" lon="49.1332705"><time>2022-10-29T08:44:04.880</time></trkpt><trkpt lat="55.7631874" lon="49.1332228"><time>2022-10-29T08:44:06.880</time></trkpt><trkpt lat="55.7632485" lon="49.1332161"><time>2022-10-29T08:44:09.880</time></trkpt><trkpt lat="55.7632941" lon="49.1332397"><time>2022-10-29T08:44:50.857</time></trkpt><trkpt lat="55.7632849" lon="49.1333207"><time>2022-10-29T08:45:09.850</time></trkpt><trkpt lat="55.7633002" lon="49.1334040"><time>2022-10-29T08:45:17.850</time></trkpt><trkpt lat="55.7632532" lon="49.1333672"><time>2022-10-29T08:45:24.850</time></trkpt><trkpt lat="55.7632423" lon="49.1332825"><time>2022-10-29T08:45:29.850</time></trkpt><trkpt lat="55.7632122" lon="49.1332187"><time>2022-10-29T08:45:41.860</time></trkpt><trkpt lat="55.7631821" lon="49.1331516"><time>2022-10-29T08:45:44.843</time></trkpt><trkpt lat="55.7631743" lon="49.1330654"><time>2022-10-29T08:45:48.853</time></trkpt><trkpt lat="55.7631899" lon="49.1329863"><time>2022-10-29T08:46:31.860</time></trkpt><trkpt lat="55.7631914" lon="49.1328859"><time>2022-10-29T08:46:35.857</time></trkpt><trkpt lat="55.7632037" lon="49.1327869"><time>2022-10-29T08:46:39.853</time></trkpt><trkpt lat="55.7632144" lon="49.1326959"><time>2022-10-29T08:46:43.857</time></trkpt><trkpt lat="55.7632264" lon="49.1325980"><time>2022-10-29T08:46:47.857</time></trkpt><trkpt lat="55.7632353" lon="49.1325009"><time>2022-10-29T08:46:51.857</time></trkpt><trkpt lat="55.7632654" lon="49.1324203"><time>2022-10-29T08:46:55.867</time></trkpt><trkpt lat="55.7632984" lon="49.1323408"><time>2022-10-29T08:46:59.853</time></trkpt><trkpt lat="55.7633403" lon="49.1322987"><time>2022-10-29T08:47:03.857</time></trkpt><trkpt lat="55.7632988" lon="49.1323451"><time>2022-10-29T08:47:15.847</time></trkpt><trkpt lat="55.7632637" lon="49.1324189"><time>2022-10-29T08:47:19.850</time></trkpt><trkpt lat="55.7632383" lon="49.1325040"><time>2022-10-29T08:47:23.847</time></trkpt><trkpt lat="55.7632287" lon="49.1326068"><time>2022-10-29T08:47:27.847</time></trkpt><trkpt lat="55.7632219" lon="49.1327091"><time>2022-10-29T08:47:31.850</time></trkpt><trkpt lat="55.7632096" lon="49.1328102"><time>2022-10-29T08:47:35.857</time></trkpt><trkpt lat="55.7631982" lon="49.1329128"><time>2022-10-29T08:47:39.843</time></trkpt><trkpt lat="55.7631915" lon="49.1330079"><time>2022-10-29T08:47:43.857</time></trkpt><trkpt lat="55.7631966" lon="49.1330985"><time>2022-10-29T08:47:47.897</time></trkpt><trkpt lat="55.7632258" lon="49.1331684"><time>2022-10-29T08:47:51.847</time></trkpt><trkpt lat="55.7632791" lon="49.1331907"><time>2022-10-29T08:47:55.873</time></trkpt><trkpt lat="55.7633326" lon="49.1332083"><time>2022-10-29T08:47:59.853</time></trkpt><trkpt lat="55.7633759" lon="49.1332304"><time>2022-10-29T08:48:04.847</time></trkpt><trkpt lat="55.7633918" lon="49.1333141"><time>2022-10-29T08:48:09.843</time></trkpt><trkpt lat="55.7634040" lon="49.1333934"><time>2022-10-29T08:48:20.853</time></trkpt><trkpt lat="55.7633662" lon="49.1334638"><time>2022-10-29T08:48:24.850</time></trkpt><trkpt lat="55.7633069" lon="49.1334759"><time>2022-10-29T08:48:28.857</time></trkpt><trkpt lat="55.7632557" lon="49.1334295"><time>2022-10-29T08:48:32.853</time></trkpt><trkpt lat="55.7632178" lon="49.1333575"><time>2022-10-29T08:48:36.850</time></trkpt><trkpt lat="55.7631828" lon="49.1332859"><time>2022-10-29T08:48:41.890</time></trkpt><trkpt lat="55.7632323" lon="49.1332508"><time>2022-10-29T08:49:00.837</time></trkpt><trkpt lat="55.7631832" lon="49.1332657"><time>2022-10-29T08:49:18.867</time></trkpt><trkpt lat="55.7631474" lon="49.1333260"><time>2022-10-29T08:49:24.873</time></trkpt><trkpt lat="55.7631120" lon="49.1333904"><time>2022-10-29T08:49:28.920</time></trkpt><trkpt lat="55.7630957" lon="49.1334943"><time>2022-10-29T08:49:31.880</time></trkpt><trkpt lat="55.7630973" lon="49.1335766"><time>2022-10-29T08:49:33.847</time></trkpt><trkpt lat="55.7631003" lon="49.1336610"><time>2022-10-29T08:49:35.890</time></trkpt><trkpt lat="55.7631010" lon="49.1337522"><time>2022-10-29T08:49:37.900</time></trkpt><trkpt lat="55.7631010" lon="49.1338397"><time>2022-10-29T08:49:39.880</time></trkpt><trkpt lat="55.7631062" lon="49.1339321"><time>2022-10-29T08:49:41.887</time></trkpt><trkpt lat="55.7631160" lon="49.1340148"><time>2022-10-29T08:49:43.897</time></trkpt><trkpt lat="55.7631340" lon="49.1340894"><time>2022-10-29T08:49:45.840</time></trkpt><trkpt lat="55.7631508" lon="49.1341637"><time>2022-10-29T08:49:47.847</time></trkpt><trkpt lat="55.7631602" lon="49.1342439"><time>2022-10-29T08:49:49.857</time></trkpt><trkpt lat="55.7631630" lon="49.1343310"><time>2022-10-29T08:49:51.840</time></trkpt><trkpt lat="55.7631634" lon="49.1344404"><time>2022-10-29T08:49:54.847</time></trkpt><trkpt lat="55.7631660" lon="49.1345243"><time>2022-10-29T08:49:56.857</time></trkpt><trkpt lat="55.7631658" lon="49.1346091"><time>2022-10-29T08:49:58.840</time></trkpt><trkpt lat="55.7631620" lon="49.1347230"><time>2022-10-29T08:50:01.840</time></trkpt><trkpt lat="55.7631625" lon="49.1348095"><time>2022-10-29T08:50:03.850</time></trkpt><trkpt lat="55.7631643" lon="49.1348985"><time>2022-10-29T08:50:05.867</time></trkpt><trkpt lat="55.7631643" lon="49.1349841"><time>2022-10-29T08:50:07.870</time></trkpt><trkpt lat="55.7631605" lon="49.1350884"><time>2022-10-29T08:50:10.847</time></trkpt><trkpt lat="55.7631574" lon="49.1351903"><time>2022-10-29T08:50:13.850</time></trkpt><trkpt lat="55.7631563" lon="49.1352950"><time>2022-10-29T08:50:16.857</time></trkpt><trkpt lat="55.7631505" lon="49.1354065"><time>2022-10-29T08:50:19.857</time></trkpt><trkpt lat="55.7631421" lon="49.1355094"><time>2022-10-29T08:50:22.857</time></trkpt><trkpt lat="55.7631475" lon="49.1355948"><time>2022-10-29T08:50:25.857</time></trkpt><trkpt lat="55.7631474" lon="49.1356826"><time>2022-10-29T08:50:28.860</time></trkpt><trkpt lat="55.7631464" lon="49.1357899"><time>2022-10-29T08:50:31.857</time></trkpt><trkpt lat="55.7631448" lon="49.1358997"><time>2022-10-29T08:50:35.897</time></trkpt><trkpt lat="55.7631486" lon="49.1360157"><time>2022-10-29T08:50:38.850</time></trkpt><trkpt lat="55.7631457" lon="49.1361024"><time>2022-10-29T08:50:40.850</time></trkpt><trkpt lat="55.7631488" lon="49.1361900"><time>2022-10-29T08:50:43.860</time></trkpt><trkpt lat="55.7631865" lon="49.1362459"><time>2022-10-29T08:50:46.850</time></trkpt><trkpt lat="55.7632311" lon="49.1362909"><time>2022-10-29T08:50:49.847</time></trkpt><trkpt lat="55.7632677" lon="49.1363914"><time>2022-10-29T08:50:52.853</time></trkpt><trkpt lat="55.7632871" lon="49.1364651"><time>2022-10-29T08:50:54.850</time></trkpt><trkpt lat="55.7633047" lon="49.1365435"><time>2022-10-29T08:50:56.853</time></trkpt><trkpt lat="55.7633200" lon="49.1366251"><time>2022-10-29T08:50:58.853</time></trkpt><trkpt lat="55.7633427" lon="49.1367187"><time>2022-10-29T08:51:00.890</time></trkpt><trkpt lat="55.7633639" lon="49.1368121"><time>2022-10-29T08:51:02.850</time></trkpt><trkpt lat="55.7633879" lon="49.1369235"><time>2022-10-29T08:51:04.853</time></trkpt><trkpt lat="55.7634131" lon="49.1370290"><time>2022-10-29T08:51:06.883</time></trkpt><trkpt lat="55.7634430" lon="49.1371241"><time>2022-10-29T08:51:08.883</time></trkpt><trkpt lat="55.7634862" lon="49.1371920"><time>2022-10-29T08:51:10.887</time></trkpt><trkpt lat="55.7635440" lon="49.1372193"><time>2022-10-29T08:51:12.903</time></trkpt><trkpt lat="55.7636039" lon="49.1371989"><time>2022-10-29T08:51:14.880</time></trkpt><trkpt lat="55.7636608" lon="49.1371486"><time>2022-10-29T08:51:16.890</time></trkpt><trkpt lat="55.7637220" lon="49.1370673"><time>2022-10-29T08:51:18.877</time></trkpt><trkpt lat="55.7637893" lon="49.1369844"><time>2022-10-29T08:51:20.883</time></trkpt><trkpt lat="55.7638553" lon="49.1369130"><time>2022-10-29T08:51:22.870</time></trkpt><trkpt lat="55.7639171" lon="49.1368437"><time>2022-10-29T08:51:24.870</time></trkpt><trkpt lat="55.7639787" lon="49.1367829"><time>2022-10-29T08:51:26.937</time></trkpt><trkpt lat="55.7640069" lon="49.1367649"><time>2022-10-29T08:51:28.237</time></trkpt><trkpt lat="55.7640724" lon="49.1367115"><time>2022-10-29T08:51:29.843</time></trkpt><trkpt lat="55.7641196" lon="49.1366647"><time>2022-10-29T08:51:31.860</time></trkpt><trkpt lat="55.7641751" lon="49.1366037"><time>2022-10-29T08:51:33.860</time></trkpt><trkpt lat="55.7642355" lon="49.1365547"><time>2022-10-29T08:51:35.860</time></trkpt><trkpt lat="55.7642971" lon="49.1365082"><time>2022-10-29T08:51:37.847</time></trkpt><trkpt lat="55.7643479" lon="49.1364464"><time>2022-10-29T08:51:39.857</time></trkpt><trkpt lat="55.7643862" lon="49.1363746"><time>2022-10-29T08:51:41.857</time></trkpt><trkpt lat="55.7644341" lon="49.1363186"><time>2022-10-29T08:51:43.847</time></trkpt><trkpt lat="55.7644827" lon="49.1362884"><time>2022-10-29T08:51:45.887</time></trkpt><trkpt lat="55.7645384" lon="49.1362489"><time>2022-10-29T08:51:47.873</time></trkpt><trkpt lat="55.7645999" lon="49.1361993"><time>2022-10-29T08:51:49.850</time></trkpt><trkpt lat="55.7646573" lon="49.1361544"><time>2022-10-29T08:51:51.877</time></trkpt><trkpt lat="55.7647195" lon="49.1361144"><time>2022-10-29T08:51:53.883</time></trkpt><trkpt lat="55.7647747" lon="49.1360757"><time>2022-10-29T08:51:55.867</time></trkpt><trkpt lat="55.7648111" lon="49.1360838"><time>2022-10-29T08:51:56.987</time></trkpt><trkpt lat="55.7648745" lon="49.1360343"><time>2022-10-29T08:51:58.857</time></trkpt><trkpt lat="55.7649298" lon="49.1359983"><time>2022-10-29T08:52:00.847</time></trkpt><trkpt lat="55.7649808" lon="49.1359655"><time>2022-10-29T08:52:02.850</time></trkpt><trkpt lat="55.7650295" lon="49.1359399"><time>2022-10-29T08:52:04.857</time></trkpt><trkpt lat="55.7650941" lon="49.1359027"><time>2022-10-29T08:52:06.883</time></trkpt><trkpt lat="55.7651659" lon="49.1358576"><time>2022-10-29T08:52:08.887</time></trkpt><trkpt lat="55.7652320" lon="49.1358126"><time>2022-10-29T08:52:10.907</time></trkpt><trkpt lat="55.7652751" lon="49.1357749"><time>2022-10-29T08:52:12.040</time></trkpt><trkpt lat="55.7653375" lon="49.1357305"><time>2022-10-29T08:52:13.883</time></trkpt><trkpt lat="55.7653955" lon="49.1356963"><time>2022-10-29T08:52:15.877</time></trkpt><trkpt lat="55.7654415" lon="49.1356551"><time>2022-10-29T08:52:17.870</time></trkpt><trkpt lat="55.7654860" lon="49.1356823"><time>2022-10-29T08:52:32.857</time></trkpt><trkpt lat="55.7654800" lon="49.1357746"><time>2022-10-29T08:52:43.903</time></trkpt><trkpt lat="55.7654800" lon="49.1357746"><time>2022-10-29T08:52:44.197</time></trkpt><trkpt lat="55.7655087" lon="49.1358432"><time>2022-10-29T08:52:45.883</time></trkpt><trkpt lat="55.7655655" lon="49.1359073"><time>2022-10-29T08:52:47.020</time></trkpt><trkpt lat="55.7655381" lon="49.1358348"><time>2022-10-29T08:53:33.897</time></trkpt><trkpt lat="55.7655193" lon="49.1357440"><time>2022-10-29T08:53:37.860</time></trkpt><trkpt lat="55.7655022" lon="49.1356576"><time>2022-10-29T08:53:43.887</time></trkpt><trkpt lat="55.7654492" lon="49.1356731"><time>2022-10-29T08:53:50.890</time></trkpt><trkpt lat="55.7653858" lon="49.1357185"><time>2022-10-29T08:53:53.847</time></trkpt><trkpt lat="55.7653331" lon="49.1357519"><time>2022-10-29T08:53:55.840</time></trkpt><trkpt lat="55.7652858" lon="49.1357770"><time>2022-10-29T08:53:57.857</time></trkpt><trkpt lat="55.7652412" lon="49.1358024"><time>2022-10-29T08:53:59.883</time></trkpt><trkpt lat="55.7651858" lon="49.1358307"><time>2022-10-29T08:54:01.870</time></trkpt><trkpt lat="55.7651274" lon="49.1358660"><time>2022-10-29T08:54:03.880</time></trkpt><trkpt lat="55.7650683" lon="49.1359093"><time>2022-10-29T08:54:05.880</time></trkpt><trkpt lat="55.7650104" lon="49.1359642"><time>2022-10-29T08:54:08.847</time></trkpt><trkpt lat="55.7649495" lon="49.1360051"><time>2022-10-29T08:54:10.857</time></trkpt><trkpt lat="55.7648833" lon="49.1360547"><time>2022-10-29T08:54:12.883</time></trkpt><trkpt lat="55.7648157" lon="49.1361089"><time>2022-10-29T08:54:14.880</time></trkpt><trkpt lat="55.7647489" lon="49.1361637"><time>2022-10-29T08:54:16.877</time></trkpt><trkpt lat="55.7646911" lon="49.1362132"><time>2022-10-29T08:54:18.873</time></trkpt><trkpt lat="55.7646358" lon="49.1362547"><time>2022-10-29T08:54:20.877</time></trkpt><trkpt lat="55.7645736" lon="49.1362963"><time>2022-10-29T08:54:22.877</time></trkpt><trkpt lat="55.7645081" lon="49.1363387"><time>2022-10-29T08:54:24.877</time></trkpt><trkpt lat="55.7644454" lon="49.1363747"><time>2022-10-29T08:54:26.887</time></trkpt><trkpt lat="55.7643844" lon="49.1364291"><time>2022-10-29T08:54:28.877</time></trkpt><trkpt lat="55.7643331" lon="49.1365077"><time>2022-10-29T08:54:30.877</time></trkpt><trkpt lat="55.7642817" lon="49.1365743"><time>2022-10-29T08:54:32.893</time></trkpt><trkpt lat="55.7642087" lon="49.1366283"><time>2022-10-29T08:54:34.857</time></trkpt><trkpt lat="55.7641303" lon="49.1366827"><time>2022-10-29T08:54:36.853</time></trkpt><trkpt lat="55.7640575" lon="49.1367384"><time>2022-10-29T08:54:38.857</time></trkpt><trkpt lat="55.7640099" lon="49.1367799"><time>2022-10-29T08:54:41.867</time></trkpt><trkpt lat="55.7639560" lon="49.1368219"><time>2022-10-29T08:54:43.877</time></trkpt><trkpt lat="55.7638892" lon="49.1368876"><time>2022-10-29T08:54:45.897</time></trkpt><trkpt lat="55.7638275" lon="49.1369490"><time>2022-10-29T08:54:47.883</time></trkpt><trkpt lat="55.7637686" lon="49.1370076"><time>2022-10-29T08:54:49.880</time></trkpt><trkpt lat="55.7637057" lon="49.1370719"><time>2022-10-29T08:54:51.883</time></trkpt><trkpt lat="55.7636461" lon="49.1371368"><time>2022-10-29T08:54:53.887</time></trkpt><trkpt lat="55.7635928" lon="49.1371750"><time>2022-10-29T08:54:55.877</time></trkpt><trkpt lat="55.7635348" lon="49.1371816"><time>2022-10-29T08:54:57.883</time></trkpt><trkpt lat="55.7634703" lon="49.1371385"><time>2022-10-29T08:54:59.860</time></trkpt><trkpt lat="55.7634266" lon="49.1370428"><time>2022-10-29T08:55:01.890</time></trkpt><trkpt lat="55.7633925" lon="49.1369277"><time>2022-10-29T08:55:03.877</time></trkpt><trkpt lat="55.7633587" lon="49.1368173"><time>2022-10-29T08:55:05.880</time></trkpt><trkpt lat="55.7633284" lon="49.1366974"><time>2022-10-29T08:55:07.887</time></trkpt><trkpt lat="55.7633000" lon="49.1365787"><time>2022-10-29T08:55:09.890</time></trkpt><trkpt lat="55.7632711" lon="49.1364707"><time>2022-10-29T08:55:11.883</time></trkpt><trkpt lat="55.7632425" lon="49.1363628"><time>2022-10-29T08:55:13.883</time></trkpt><trkpt lat="55.7632136" lon="49.1362608"><time>2022-10-29T08:55:15.880</time></trkpt><trkpt lat="55.7631634" lon="49.1362079"><time>2022-10-29T08:55:17.883</time></trkpt><trkpt lat="55.7630971" lon="49.1362643"><time>2022-10-29T08:55:19.883</time></trkpt><trkpt lat="55.7630286" lon="49.1363355"><time>2022-10-29T08:55:21.887</time></trkpt><trkpt lat="55.7629560" lon="49.1363793"><time>2022-10-29T08:55:23.877</time></trkpt><trkpt lat="55.7628951" lon="49.1364306"><time>2022-10-29T08:55:25.883</time></trkpt><trkpt lat="55.7628381" lon="49.1364876"><time>2022-10-29T08:55:27.907</time></trkpt><trkpt lat="55.7628215" lon="49.1365130"><time>2022-10-29T08:55:29.077</time></trkpt><trkpt lat="55.7627718" lon="49.1365544"><time>2022-10-29T08:55:30.877</time></trkpt><trkpt lat="55.7627247" lon="49.1365885"><time>2022-10-29T08:55:32.867</time></trkpt><trkpt lat="55.7626794" lon="49.1366203"><time>2022-10-29T08:55:34.870</time></trkpt><trkpt lat="55.7626203" lon="49.1366697"><time>2022-10-29T08:55:36.873</time></trkpt><trkpt lat="55.7625517" lon="49.1367295"><time>2022-10-29T08:55:38.867</time></trkpt><trkpt lat="55.7624806" lon="49.1367909"><time>2022-10-29T08:55:40.873</time></trkpt><trkpt lat="55.7624150" lon="49.1368522"><time>2022-10-29T08:55:42.877</time></trkpt><trkpt lat="55.7623549" lon="49.1369091"><time>2022-10-29T08:55:44.880</time></trkpt><trkpt lat="55.7622864" lon="49.1369668"><time>2022-10-29T08:55:46.867</time></trkpt><trkpt lat="55.7622167" lon="49.1370281"><time>2022-10-29T08:55:48.870</time></trkpt><trkpt lat="55.7621441" lon="49.1370863"><time>2022-10-29T08:55:50.873</time></trkpt><trkpt lat="55.7620667" lon="49.1371208"><time>2022-10-29T08:55:52.887</time></trkpt><trkpt lat="55.7620443" lon="49.1371137"><time>2022-10-29T08:55:54.013</time></trkpt><trkpt lat="55.7619974" lon="49.1371489"><time>2022-10-29T08:55:54.867</time></trkpt><trkpt lat="55.7619236" lon="49.1372007"><time>2022-10-29T08:55:56.880</time></trkpt><trkpt lat="55.7618565" lon="49.1372578"><time>2022-10-29T08:55:58.887</time></trkpt><trkpt lat="55.7617964" lon="49.1373040"><time>2022-10-29T08:56:00.873</time></trkpt><trkpt lat="55.7617385" lon="49.1373809"><time>2022-10-29T08:56:02.890</time></trkpt><trkpt lat="55.7616834" lon="49.1374565"><time>2022-10-29T08:56:04.880</time></trkpt><trkpt lat="55.7616362" lon="49.1375300"><time>2022-10-29T08:56:06.917</time></trkpt><trkpt lat="55.7616297" lon="49.1375294"><time>2022-10-29T08:56:08.037</time></trkpt><trkpt lat="55.7615626" lon="49.1374479"><time>2022-10-29T08:56:09.867</time></trkpt><trkpt lat="55.7615071" lon="49.1373552"><time>2022-10-29T08:56:11.863</time></trkpt><trkpt lat="55.7614560" lon="49.1372429"><time>2022-10-29T08:56:13.870</time></trkpt><trkpt lat="55.7614003" lon="49.1371442"><time>2022-10-29T08:56:15.873</time></trkpt><trkpt lat="55.7613198" lon="49.1371205"><time>2022-10-29T08:56:17.873</time></trkpt><trkpt lat="55.7612423" lon="49.1371877"><time>2022-10-29T08:56:19.877</time></trkpt><trkpt lat="55.7611731" lon="49.1372814"><time>2022-10-29T08:56:21.877</time></trkpt><trkpt lat="55.7611043" lon="49.1373660"><time>2022-10-29T08:56:23.883</time></trkpt><trkpt lat="55.7610328" lon="49.1374400"><time>2022-10-29T08:56:25.857</time></trkpt><trkpt lat="55.7609564" lon="49.1375117"><time>2022-10-29T08:56:27.887</time></trkpt><trkpt lat="55.7608850" lon="49.1375736"><time>2022-10-29T08:56:29.870</time></trkpt><trkpt lat="55.7608128" lon="49.1376385"><time>2022-10-29T08:56:31.880</time></trkpt><trkpt lat="55.7607384" lon="49.1377016"><time>2022-10-29T08:56:33.887</time></trkpt><trkpt lat="55.7607170" lon="49.1377160"><time>2022-10-29T08:56:35.020</time></trkpt><trkpt lat="55.7606728" lon="49.1377573"><time>2022-10-29T08:56:35.880</time></trkpt><trkpt lat="55.7606038" lon="49.1378155"><time>2022-10-29T08:56:37.887</time></trkpt><trkpt lat="55.7605337" lon="49.1378698"><time>2022-10-29T08:56:39.877</time></trkpt><trkpt lat="55.7604562" lon="49.1379216"><time>2022-10-29T08:56:41.877</time></trkpt><trkpt lat="55.7603786" lon="49.1379732"><time>2022-10-29T08:56:43.883</time></trkpt><trkpt lat="55.7603065" lon="49.1380349"><time>2022-10-29T08:56:45.900</time></trkpt><trkpt lat="55.7602837" lon="49.1380652"><time>2022-10-29T08:56:47.027</time></trkpt><trkpt lat="55.7602364" lon="49.1381025"><time>2022-10-29T08:56:47.843</time></trkpt><trkpt lat="55.7601625" lon="49.1381626"><time>2022-10-29T08:56:49.847</time></trkpt><trkpt lat="55.7600898" lon="49.1382174"><time>2022-10-29T08:56:51.857</time></trkpt><trkpt lat="55.7600192" lon="49.1382695"><time>2022-10-29T08:56:53.857</time></trkpt><trkpt lat="55.7599531" lon="49.1383185"><time>2022-10-29T08:56:55.857</time></trkpt><trkpt lat="55.7598853" lon="49.1383633"><time>2022-10-29T08:56:57.850</time></trkpt><trkpt lat="55.7598125" lon="49.1384032"><time>2022-10-29T08:56:59.857</time></trkpt><trkpt lat="55.7597403" lon="49.1384330"><time>2022-10-29T08:57:01.847</time></trkpt><trkpt lat="55.7596659" lon="49.1384566"><time>2022-10-29T08:57:03.853</time></trkpt><trkpt lat="55.7595961" lon="49.1385057"><time>2022-10-29T08:57:05.857</time></trkpt><trkpt lat="55.7595306" lon="49.1385663"><time>2022-10-29T08:57:07.860</time></trkpt><trkpt lat="55.7594667" lon="49.1386223"><time>2022-10-29T08:57:09.893</time></trkpt><trkpt lat="55.7594457" lon="49.1386285"><time>2022-10-29T08:57:11.030</time></trkpt><trkpt lat="55.7593724" lon="49.1386800"><time>2022-10-29T08:57:12.857</time></trkpt><trkpt lat="55.7593083" lon="49.1387303"><time>2022-10-29T08:57:14.857</time></trkpt><trkpt lat="55.7592448" lon="49.1387859"><time>2022-10-29T08:57:16.893</time></trkpt><trkpt lat="55.7591800" lon="49.1388441"><time>2022-10-29T08:57:18.883</time></trkpt><trkpt lat="55.7591151" lon="49.1389044"><time>2022-10-29T08:57:20.883</time></trkpt><trkpt lat="55.7590553" lon="49.1389619"><time>2022-10-29T08:57:22.887</time></trkpt><trkpt lat="55.7589928" lon="49.1390167"><time>2022-10-29T08:57:24.887</time></trkpt><trkpt lat="55.7589278" lon="49.1390738"><time>2022-10-29T08:57:26.847</time></trkpt><trkpt lat="55.7588651" lon="49.1391361"><time>2022-10-29T08:57:28.847</time></trkpt><trkpt lat="55.7588034" lon="49.1392045"><time>2022-10-29T08:57:30.850</time></trkpt><trkpt lat="55.7587378" lon="49.1392704"><time>2022-10-29T08:57:32.857</time></trkpt><trkpt lat="55.7586736" lon="49.1393374"><time>2022-10-29T08:57:34.860</time></trkpt><trkpt lat="55.7586092" lon="49.1394085"><time>2022-10-29T08:57:36.880</time></trkpt><trkpt lat="55.7585452" lon="49.1394749"><time>2022-10-29T08:57:38.870</time></trkpt><trkpt lat="55.7584892" lon="49.1395502"><time>2022-10-29T08:57:40.883</time></trkpt><trkpt lat="55.7584359" lon="49.1396339"><time>2022-10-29T08:57:42.897</time></trkpt><trkpt lat="55.7583847" lon="49.1397163"><time>2022-10-29T08:57:44.850</time></trkpt><trkpt lat="55.7583470" lon="49.1397856"><time>2022-10-29T08:57:46.857</time></trkpt><trkpt lat="55.7583024" lon="49.1398606"><time>2022-10-29T08:57:48.890</time></trkpt><trkpt lat="55.7582557" lon="49.1399354"><time>2022-10-29T08:57:50.857</time></trkpt><trkpt lat="55.7582091" lon="49.1400056"><time>2022-10-29T08:57:52.857</time></trkpt><trkpt lat="55.7581613" lon="49.1400789"><time>2022-10-29T08:57:54.890</time></trkpt><trkpt lat="55.7581139" lon="49.1401483"><time>2022-10-29T08:57:56.887</time></trkpt><trkpt lat="55.7580658" lon="49.1402181"><time>2022-10-29T08:57:58.900</time></trkpt><trkpt lat="55.7580197" lon="49.1402993"><time>2022-10-29T08:58:00.920</time></trkpt><trkpt lat="55.7580033" lon="49.1403280"><time>2022-10-29T08:58:02.040</time></trkpt><trkpt lat="55.7579593" lon="49.1403875"><time>2022-10-29T08:58:03.873</time></trkpt><trkpt lat="55.7579197" lon="49.1404477"><time>2022-10-29T08:58:05.860</time></trkpt><trkpt lat="55.7578834" lon="49.1405288"><time>2022-10-29T08:58:07.877</time></trkpt><trkpt lat="55.7578430" lon="49.1406126"><time>2022-10-29T08:58:09.867</time></trkpt><trkpt lat="55.7577993" lon="49.1406856"><time>2022-10-29T08:58:11.873</time></trkpt><trkpt lat="55.7577602" lon="49.1407545"><time>2022-10-29T08:58:13.870</time></trkpt><trkpt lat="55.7577188" lon="49.1408280"><time>2022-10-29T08:58:15.873</time></trkpt><trkpt lat="55.7576730" lon="49.1409024"><time>2022-10-29T08:58:17.870</time></trkpt><trkpt lat="55.7576226" lon="49.1409801"><time>2022-10-29T08:58:19.873</time></trkpt><trkpt lat="55.7575715" lon="49.1410595"><time>2022-10-29T08:58:21.897</time></trkpt><trkpt lat="55.7575220" lon="49.1411180"><time>2022-10-29T08:58:23.880</time></trkpt><trkpt lat="55.7574634" lon="49.1411380"><time>2022-10-29T08:58:25.867</time></trkpt><trkpt lat="55.7574200" lon="49.1410654"><time>2022-10-29T08:58:27.867</time></trkpt><trkpt lat="55.7573890" lon="49.1409479"><time>2022-10-29T08:58:29.867</time></trkpt><trkpt lat="55.7573460" lon="49.1408351"><time>2022-10-29T08:58:31.873</time></trkpt><trkpt lat="55.7573026" lon="49.1407278"><time>2022-10-29T08:58:33.880</time></trkpt><trkpt lat="55.7572577" lon="49.1406206"><time>2022-10-29T08:58:35.883</time></trkpt><trkpt lat="55.7572064" lon="49.1405069"><time>2022-10-29T08:58:37.877</time></trkpt><trkpt lat="55.7571566" lon="49.1404011"><time>2022-10-29T08:58:39.880</time></trkpt><trkpt lat="55.7571051" lon="49.1403082"><time>2022-10-29T08:58:41.887</time></trkpt><trkpt lat="55.7570429" lon="49.1401971"><time>2022-10-29T08:58:43.867</time></trkpt><trkpt lat="55.7570048" lon="49.1401486"><time>2022-10-29T08:58:44.847</time></trkpt><trkpt lat="55.7569675" lon="49.1401001"><time>2022-10-29T08:58:45.857</time></trkpt><trkpt lat="55.7569222" lon="49.1399736"><time>2022-10-29T08:58:47.900</time></trkpt><trkpt lat="55.7569165" lon="49.1399420"><time>2022-10-29T08:58:49.897</time></trkpt><trkpt lat="55.7568894" lon="49.1398622"><time>2022-10-29T08:58:49.913</time></trkpt><trkpt lat="55.7568398" lon="49.1397532"><time>2022-10-29T08:58:51.877</time></trkpt><trkpt lat="55.7567851" lon="49.1396502"><time>2022-10-29T08:58:53.857</time></trkpt><trkpt lat="55.7567346" lon="49.1395584"><time>2022-10-29T08:58:55.847</time></trkpt><trkpt lat="55.7566880" lon="49.1394706"><time>2022-10-29T08:58:57.850</time></trkpt><trkpt lat="55.7566482" lon="49.1393989"><time>2022-10-29T08:58:59.883</time></trkpt><trkpt lat="55.7566353" lon="49.1393754"><time>2022-10-29T08:59:01.047</time></trkpt><trkpt lat="55.7565957" lon="49.1392863"><time>2022-10-29T08:59:02.863</time></trkpt><trkpt lat="55.7565519" lon="49.1391901"><time>2022-10-29T08:59:04.880</time></trkpt><trkpt lat="55.7565190" lon="49.1390772"><time>2022-10-29T08:59:06.877</time></trkpt><trkpt lat="55.7564849" lon="49.1389670"><time>2022-10-29T08:59:08.907</time></trkpt><trkpt lat="55.7564849" lon="49.1389670"><time>2022-10-29T08:59:08.987</time></trkpt><trkpt lat="55.7564425" lon="49.1388896"><time>2022-10-29T08:59:10.880</time></trkpt><trkpt lat="55.7564252" lon="49.1388832"><time>2022-10-29T08:59:11.993</time></trkpt><trkpt lat="55.7564067" lon="49.1389709"><time>2022-10-29T08:59:15.857</time></trkpt><trkpt lat="55.7564510" lon="49.1390141"><time>2022-10-29T08:59:34.857</time></trkpt><trkpt lat="55.7564912" lon="49.1390736"><time>2022-10-29T08:59:36.857</time></trkpt><trkpt lat="55.7565359" lon="49.1391413"><time>2022-10-29T08:59:38.853</time></trkpt><trkpt lat="55.7565742" lon="49.1392020"><time>2022-10-29T08:59:40.857</time></trkpt><trkpt lat="55.7566158" lon="49.1392691"><time>2022-10-29T08:59:42.880</time></trkpt><trkpt lat="55.7566496" lon="49.1393599"><time>2022-10-29T08:59:44.907</time></trkpt><trkpt lat="55.7566846" lon="49.1394548"><time>2022-10-29T08:59:46.903</time></trkpt><trkpt lat="55.7567264" lon="49.1395457"><time>2022-10-29T08:59:48.907</time></trkpt><trkpt lat="55.7567708" lon="49.1396353"><time>2022-10-29T08:59:50.887</time></trkpt><trkpt lat="55.7568113" lon="49.1397293"><time>2022-10-29T08:59:52.907</time></trkpt><trkpt lat="55.7568498" lon="49.1398285"><time>2022-10-29T08:59:54.900</time></trkpt><trkpt lat="55.7568897" lon="49.1399248"><time>2022-10-29T08:59:56.897</time></trkpt><trkpt lat="55.7569275" lon="49.1400132"><time>2022-10-29T08:59:58.893</time></trkpt><trkpt lat="55.7569487" lon="49.1401192"><time>2022-10-29T09:00:01.857</time></trkpt><trkpt lat="55.7569081" lon="49.1402161"><time>2022-10-29T09:00:03.933</time></trkpt><trkpt lat="55.7568741" lon="49.1402316"><time>2022-10-29T09:00:05.067</time></trkpt><trkpt lat="55.7568393" lon="49.1402844"><time>2022-10-29T09:00:05.890</time></trkpt><trkpt lat="55.7567744" lon="49.1403803"><time>2022-10-29T09:00:07.880</time></trkpt><trkpt lat="55.7567137" lon="49.1404727"><time>2022-10-29T09:00:09.877</time></trkpt><trkpt lat="55.7566546" lon="49.1405703"><time>2022-10-29T09:00:11.877</time></trkpt><trkpt lat="55.7565956" lon="49.1406653"><time>2022-10-29T09:00:13.897</time></trkpt><trkpt lat="55.7565723" lon="49.1407067"><time>2022-10-29T09:00:15.010</time></trkpt><trkpt lat="55.7565381" lon="49.1407649"><time>2022-10-29T09:00:15.893</time></trkpt><trkpt lat="55.7564825" lon="49.1408689"><time>2022-10-29T09:00:17.887</time></trkpt><trkpt lat="55.7564492" lon="49.1409805"><time>2022-10-29T09:00:19.883</time></trkpt><trkpt lat="55.7564621" lon="49.1411255"><time>2022-10-29T09:00:21.903</time></trkpt><trkpt lat="55.7564621" lon="49.1411255"><time>2022-10-29T09:00:21.950</time></trkpt><trkpt lat="55.7564783" lon="49.1412021"><time>2022-10-29T09:00:22.943</time></trkpt><trkpt lat="55.7565042" lon="49.1412429"><time>2022-10-29T09:00:24.083</time></trkpt><trkpt lat="55.7565123" lon="49.1413372"><time>2022-10-29T09:00:24.853</time></trkpt><trkpt lat="55.7565275" lon="49.1414857"><time>2022-10-29T09:00:26.860</time></trkpt><trkpt lat="55.7565394" lon="49.1416056"><time>2022-10-29T09:00:28.880</time></trkpt><trkpt lat="55.7565466" lon="49.1417211"><time>2022-10-29T09:00:30.877</time></trkpt><trkpt lat="55.7565537" lon="49.1418347"><time>2022-10-29T09:00:32.870</time></trkpt><trkpt lat="55.7565563" lon="49.1419499"><time>2022-10-29T09:00:34.880</time></trkpt><trkpt lat="55.7565607" lon="49.1420730"><time>2022-10-29T09:00:36.880</time></trkpt><trkpt lat="55.7565678" lon="49.1421937"><time>2022-10-29T09:00:38.903</time></trkpt><trkpt lat="55.7565704" lon="49.1422380"><time>2022-10-29T09:00:40.003</time></trkpt><trkpt lat="55.7565725" lon="49.1423391"><time>2022-10-29T09:00:41.883</time></trkpt><trkpt lat="55.7565647" lon="49.1424552"><time>2022-10-29T09:00:43.880</time></trkpt><trkpt lat="55.7565411" lon="49.1425587"><time>2022-10-29T09:00:46.900</time></trkpt><trkpt lat="55.7565415" lon="49.1426505"><time>2022-10-29T09:00:51.887</time></trkpt><trkpt lat="55.7565505" lon="49.1427562"><time>2022-10-29T09:00:54.883</time></trkpt><trkpt lat="55.7565276" lon="49.1428768"><time>2022-10-29T09:00:56.890</time></trkpt><trkpt lat="55.7564822" lon="49.1430048"><time>2022-10-29T09:00:58.917</time></trkpt><trkpt lat="55.7564465" lon="49.1430622"><time>2022-10-29T09:01:00.040</time></trkpt><trkpt lat="55.7564522" lon="49.1431917"><time>2022-10-29T09:01:01.880</time></trkpt><trkpt lat="55.7564771" lon="49.1432799"><time>2022-10-29T09:01:03.873</time></trkpt><trkpt lat="55.7564887" lon="49.1433670"><time>2022-10-29T09:01:05.877</time></trkpt><trkpt lat="55.7564764" lon="49.1434526"><time>2022-10-29T09:01:07.890</time></trkpt><trkpt lat="55.7564764" lon="49.1434526"><time>2022-10-29T09:01:07.943</time></trkpt><trkpt lat="55.7564496" lon="49.1435267"><time>2022-10-29T09:01:09.890</time></trkpt><trkpt lat="55.7564220" lon="49.1435462"><time>2022-10-29T09:01:11.013</time></trkpt><trkpt lat="55.7564363" lon="49.1436222"><time>2022-10-29T09:01:15.860</time></trkpt><trkpt lat="55.7564393" lon="49.1437086"><time>2022-10-29T09:01:31.867</time></trkpt><trkpt lat="55.7564566" lon="49.1437959"><time>2022-10-29T09:01:35.883</time></trkpt><trkpt lat="55.7564927" lon="49.1439266"><time>2022-10-29T09:01:37.847</time></trkpt><trkpt lat="55.7565173" lon="49.1440467"><time>2022-10-29T09:01:39.877</time></trkpt><trkpt lat="55.7565154" lon="49.1441503"><time>2022-10-29T09:01:41.900</time></trkpt><trkpt lat="55.7564937" lon="49.1441975"><time>2022-10-29T09:01:43.093</time></trkpt><trkpt lat="55.7564940" lon="49.1442106"><time>2022-10-29T09:01:44.313</time></trkpt><trkpt lat="55.7564923" lon="49.1442125"><time>2022-10-29T09:01:45.540</time></trkpt><trkpt lat="55.7565280" lon="49.1442744"><time>2022-10-29T09:01:52.867</time></trkpt><trkpt lat="55.7565372" lon="49.1443962"><time>2022-10-29T09:01:55.877</time></trkpt><trkpt lat="55.7565307" lon="49.1445151"><time>2022-10-29T09:01:57.867</time></trkpt><trkpt lat="55.7565250" lon="49.1446484"><time>2022-10-29T09:01:59.857</time></trkpt><trkpt lat="55.7565189" lon="49.1447718"><time>2022-10-29T09:02:01.857</time></trkpt><trkpt lat="55.7565133" lon="49.1448976"><time>2022-10-29T09:02:03.870</time></trkpt><trkpt lat="55.7565138" lon="49.1450306"><time>2022-10-29T09:02:05.873</time></trkpt><trkpt lat="55.7565156" lon="49.1451511"><time>2022-10-29T09:02:07.870</time></trkpt><trkpt lat="55.7565155" lon="49.1452462"><time>2022-10-29T09:02:09.870</time></trkpt><trkpt lat="55.7565330" lon="49.1453483"><time>2022-10-29T09:02:11.883</time></trkpt><trkpt lat="55.7565940" lon="49.1454197"><time>2022-10-29T09:02:13.877</time></trkpt><trkpt lat="55.7566823" lon="49.1454593"><time>2022-10-29T09:02:15.883</time></trkpt><trkpt lat="55.7567258" lon="49.1454835"><time>2022-10-29T09:02:16.883</time></trkpt><trkpt lat="55.7568078" lon="49.1455170"><time>2022-10-29T09:02:18.900</time></trkpt><trkpt lat="55.7568931" lon="49.1455023"><time>2022-10-29T09:02:20.887</time></trkpt><trkpt lat="55.7569716" lon="49.1454500"><time>2022-10-29T09:02:22.880</time></trkpt><trkpt lat="55.7570360" lon="49.1453720"><time>2022-10-29T09:02:24.883</time></trkpt><trkpt lat="55.7570893" lon="49.1453626"><time>2022-10-29T09:02:26.883</time></trkpt><trkpt lat="55.7571176" lon="49.1454721"><time>2022-10-29T09:02:28.890</time></trkpt><trkpt lat="55.7571213" lon="49.1455816"><time>2022-10-29T09:02:30.877</time></trkpt><trkpt lat="55.7571606" lon="49.1455127"><time>2022-10-29T09:02:34.887</time></trkpt><trkpt lat="55.7571506" lon="49.1454297"><time>2022-10-29T09:02:37.877</time></trkpt><trkpt lat="55.7571432" lon="49.1453351"><time>2022-10-29T09:02:44.877</time></trkpt><trkpt lat="55.7571429" lon="49.1452527"><time>2022-10-29T09:02:47.873</time></trkpt><trkpt lat="55.7571551" lon="49.1451346"><time>2022-10-29T09:02:50.883</time></trkpt><trkpt lat="55.7571594" lon="49.1450268"><time>2022-10-29T09:02:52.887</time></trkpt><trkpt lat="55.7571650" lon="49.1449185"><time>2022-10-29T09:02:54.890</time></trkpt><trkpt lat="55.7571706" lon="49.1448019"><time>2022-10-29T09:02:56.843</time></trkpt><trkpt lat="55.7571749" lon="49.1446907"><time>2022-10-29T09:02:58.847</time></trkpt><trkpt lat="55.7571774" lon="49.1445822"><time>2022-10-29T09:03:01.857</time></trkpt><trkpt lat="55.7571812" lon="49.1444948"><time>2022-10-29T09:03:03.873</time></trkpt><trkpt lat="55.7571880" lon="49.1444070"><time>2022-10-29T09:03:05.893</time></trkpt><trkpt lat="55.7572223" lon="49.1443182"><time>2022-10-29T09:03:08.877</time></trkpt><trkpt lat="55.7572779" lon="49.1443626"><time>2022-10-29T09:03:11.890</time></trkpt><trkpt lat="55.7573206" lon="49.1443362"><time>2022-10-29T09:03:14.893</time></trkpt><trkpt lat="55.7573557" lon="49.1442730"><time>2022-10-29T09:03:16.880</time></trkpt><trkpt lat="55.7574033" lon="49.1442110"><time>2022-10-29T09:03:18.900</time></trkpt><trkpt lat="55.7574459" lon="49.1441561"><time>2022-10-29T09:03:20.880</time></trkpt><trkpt lat="55.7574900" lon="49.1441026"><time>2022-10-29T09:03:22.887</time></trkpt><trkpt lat="55.7575431" lon="49.1440462"><time>2022-10-29T09:03:25.847</time></trkpt><trkpt lat="55.7575882" lon="49.1440068"><time>2022-10-29T09:03:28.880</time></trkpt><trkpt lat="55.7576323" lon="49.1440517"><time>2022-10-29T09:03:31.887</time></trkpt><trkpt lat="55.7576773" lon="49.1441046"><time>2022-10-29T09:03:34.880</time></trkpt><trkpt lat="55.7577118" lon="49.1441749"><time>2022-10-29T09:03:38.887</time></trkpt><trkpt lat="55.7577327" lon="49.1442493"><time>2022-10-29T09:03:41.910</time></trkpt><trkpt lat="55.7577400" lon="49.1442832"><time>2022-10-29T09:03:43.053</time></trkpt><trkpt lat="55.7577585" lon="49.1443772"><time>2022-10-29T09:03:45.887</time></trkpt><trkpt lat="55.7577862" lon="49.1444924"><time>2022-10-29T09:03:48.897</time></trkpt><trkpt lat="55.7578034" lon="49.1445849"><time>2022-10-29T09:03:50.883</time></trkpt><trkpt lat="55.7578255" lon="49.1446867"><time>2022-10-29T09:03:52.880</time></trkpt><trkpt lat="55.7578625" lon="49.1447869"><time>2022-10-29T09:03:54.867</time></trkpt><trkpt lat="55.7579038" lon="49.1448970"><time>2022-10-29T09:03:56.860</time></trkpt><trkpt lat="55.7579332" lon="49.1449975"><time>2022-10-29T09:03:58.897</time></trkpt><trkpt lat="55.7579370" lon="49.1450148"><time>2022-10-29T09:04:00.047</time></trkpt><trkpt lat="55.7579674" lon="49.1451208"><time>2022-10-29T09:04:01.887</time></trkpt><trkpt lat="55.7579987" lon="49.1452263"><time>2022-10-29T09:04:03.880</time></trkpt><trkpt lat="55.7580295" lon="49.1453279"><time>2022-10-29T09:04:05.883</time></trkpt><trkpt lat="55.7580533" lon="49.1454169"><time>2022-10-29T09:04:07.910</time></trkpt><trkpt lat="55.7580533" lon="49.1454169"><time>2022-10-29T09:04:07.973</time></trkpt><trkpt lat="55.7580813" lon="49.1454977"><time>2022-10-29T09:04:10.897</time></trkpt><trkpt lat="55.7580852" lon="49.1455071"><time>2022-10-29T09:04:12.017</time></trkpt><trkpt lat="55.7580582" lon="49.1454090"><time>2022-10-29T09:05:36.887</time></trkpt><trkpt lat="55.7580220" lon="49.1453001"><time>2022-10-29T09:05:39.877</time></trkpt><trkpt lat="55.7579998" lon="49.1452155"><time>2022-10-29T09:05:41.883</time></trkpt><trkpt lat="55.7579679" lon="49.1451138"><time>2022-10-29T09:05:43.880</time></trkpt><trkpt lat="55.7579353" lon="49.1449926"><time>2022-10-29T09:05:45.847</time></trkpt><trkpt lat="55.7579126" lon="49.1448789"><time>2022-10-29T09:05:47.847</time></trkpt><trkpt lat="55.7578862" lon="49.1447513"><time>2022-10-29T09:05:49.867</time></trkpt><trkpt lat="55.7578505" lon="49.1446402"><time>2022-10-29T09:05:51.887</time></trkpt><trkpt lat="55.7578170" lon="49.1445290"><time>2022-10-29T09:05:53.880</time></trkpt><trkpt lat="55.7577895" lon="49.1444143"><time>2022-10-29T09:05:55.847</time></trkpt><trkpt lat="55.7577611" lon="49.1443054"><time>2022-10-29T09:05:57.897</time></trkpt><trkpt lat="55.7577305" lon="49.1441988"><time>2022-10-29T09:05:59.877</time></trkpt><trkpt lat="55.7576956" lon="49.1441099"><time>2022-10-29T09:06:01.900</time></trkpt><trkpt lat="55.7576475" lon="49.1440408"><time>2022-10-29T09:06:03.917</time></trkpt><trkpt lat="55.7575902" lon="49.1440050"><time>2022-10-29T09:06:05.877</time></trkpt><trkpt lat="55.7575333" lon="49.1440140"><time>2022-10-29T09:06:07.907</time></trkpt><trkpt lat="55.7574741" lon="49.1440803"><time>2022-10-29T09:06:09.900</time></trkpt><trkpt lat="55.7574265" lon="49.1441552"><time>2022-10-29T09:06:11.893</time></trkpt><trkpt lat="55.7573783" lon="49.1442237"><time>2022-10-29T09:06:13.897</time></trkpt><trkpt lat="55.7573362" lon="49.1442840"><time>2022-10-29T09:06:15.907</time></trkpt><trkpt lat="55.7572976" lon="49.1443476"><time>2022-10-29T09:06:18.907</time></trkpt><trkpt lat="55.7572591" lon="49.1443953"><time>2022-10-29T09:06:22.873</time></trkpt><trkpt lat="55.7572030" lon="49.1443691"><time>2022-10-29T09:06:26.907</time></trkpt><trkpt lat="55.7571602" lon="49.1444337"><time>2022-10-29T09:06:28.857</time></trkpt><trkpt lat="55.7571510" lon="49.1445810"><time>2022-10-29T09:06:30.853</time></trkpt><trkpt lat="55.7571547" lon="49.1447249"><time>2022-10-29T09:06:32.860</time></trkpt><trkpt lat="55.7571526" lon="49.1448602"><time>2022-10-29T09:06:34.900</time></trkpt><trkpt lat="55.7571478" lon="49.1450011"><time>2022-10-29T09:06:36.890</time></trkpt><trkpt lat="55.7571406" lon="49.1451401"><time>2022-10-29T09:06:38.877</time></trkpt><trkpt lat="55.7571359" lon="49.1452653"><time>2022-10-29T09:06:40.900</time></trkpt><trkpt lat="55.7571340" lon="49.1453955"><time>2022-10-29T09:06:42.893</time></trkpt><trkpt lat="55.7571313" lon="49.1454978"><time>2022-10-29T09:06:44.907</time></trkpt><trkpt lat="55.7571109" lon="49.1456054"><time>2022-10-29T09:06:47.887</time></trkpt><trkpt lat="55.7570609" lon="49.1456291"><time>2022-10-29T09:06:49.897</time></trkpt><trkpt lat="55.7570019" lon="49.1456120"><time>2022-10-29T09:06:51.897</time></trkpt><trkpt lat="55.7569332" lon="49.1456105"><time>2022-10-29T09:06:53.883</time></trkpt><trkpt lat="55.7568684" lon="49.1456231"><time>2022-10-29T09:06:55.897</time></trkpt><trkpt lat="55.7568032" lon="49.1456286"><time>2022-10-29T09:06:57.897</time></trkpt><trkpt lat="55.7567386" lon="49.1456358"><time>2022-10-29T09:06:59.900</time></trkpt><trkpt lat="55.7566838" lon="49.1456456"><time>2022-10-29T09:07:01.907</time></trkpt><trkpt lat="55.7566203" lon="49.1456446"><time>2022-10-29T09:07:04.860</time></trkpt><trkpt lat="55.7565666" lon="49.1457159"><time>2022-10-29T09:07:06.860</time></trkpt><trkpt lat="55.7565572" lon="49.1458566"><time>2022-10-29T09:07:08.850</time></trkpt><trkpt lat="55.7565802" lon="49.1459904"><time>2022-10-29T09:07:10.860</time></trkpt><trkpt lat="55.7566027" lon="49.1461158"><time>2022-10-29T09:07:12.903</time></trkpt><trkpt lat="55.7566244" lon="49.1462482"><time>2022-10-29T09:07:14.897</time></trkpt><trkpt lat="55.7566473" lon="49.1463503"><time>2022-10-29T09:07:16.897</time></trkpt><trkpt lat="55.7566601" lon="49.1464516"><time>2022-10-29T09:07:19.897</time></trkpt><trkpt lat="55.7565816" lon="49.1465137"><time>2022-10-29T09:07:21.897</time></trkpt><trkpt lat="55.7565120" lon="49.1465311"><time>2022-10-29T09:07:23.907</time></trkpt><trkpt lat="55.7564315" lon="49.1465485"><time>2022-10-29T09:07:25.903</time></trkpt><trkpt lat="55.7563884" lon="49.1465798"><time>2022-10-29T09:07:28.900</time></trkpt><trkpt lat="55.7563418" lon="49.1466606"><time>2022-10-29T09:07:31.897</time></trkpt><trkpt lat="55.7563246" lon="49.1467351"><time>2022-10-29T09:07:46.870</time></trkpt><trkpt lat="55.7562869" lon="49.1467813"><time>2022-10-29T09:07:53.887</time></trkpt><trkpt lat="55.7562288" lon="49.1468024"><time>2022-10-29T09:08:00.900</time></trkpt><trkpt lat="55.7561691" lon="49.1468220"><time>2022-10-29T09:08:03.903</time></trkpt><trkpt lat="55.7561208" lon="49.1468325"><time>2022-10-29T09:08:05.897</time></trkpt><trkpt lat="55.7560760" lon="49.1468509"><time>2022-10-29T09:08:07.843</time></trkpt><trkpt lat="55.7560295" lon="49.1468727"><time>2022-10-29T09:08:09.847</time></trkpt><trkpt lat="55.7559675" lon="49.1469130"><time>2022-10-29T09:08:12.843</time></trkpt><trkpt lat="55.7559052" lon="49.1469495"><time>2022-10-29T09:08:15.857</time></trkpt><trkpt lat="55.7558396" lon="49.1469704"><time>2022-10-29T09:08:18.863</time></trkpt><trkpt lat="55.7557862" lon="49.1469939"><time>2022-10-29T09:08:20.857</time></trkpt><trkpt lat="55.7557316" lon="49.1470189"><time>2022-10-29T09:08:22.857</time></trkpt><trkpt lat="55.7556851" lon="49.1470453"><time>2022-10-29T09:08:24.860</time></trkpt><trkpt lat="55.7556336" lon="49.1470778"><time>2022-10-29T09:08:26.893</time></trkpt><trkpt lat="55.7555924" lon="49.1471164"><time>2022-10-29T09:08:28.853</time></trkpt><trkpt lat="55.7555462" lon="49.1471554"><time>2022-10-29T09:08:30.857</time></trkpt><trkpt lat="55.7554966" lon="49.1471758"><time>2022-10-29T09:08:32.923</time></trkpt><trkpt lat="55.7554784" lon="49.1471897"><time>2022-10-29T09:08:34.890</time></trkpt><trkpt lat="55.7554256" lon="49.1472001"><time>2022-10-29T09:08:35.877</time></trkpt><trkpt lat="55.7553686" lon="49.1471948"><time>2022-10-29T09:08:38.877</time></trkpt><trkpt lat="55.7553144" lon="49.1471753"><time>2022-10-29T09:08:42.880</time></trkpt><trkpt lat="55.7552585" lon="49.1471981"><time>2022-10-29T09:08:45.873</time></trkpt><trkpt lat="55.7552057" lon="49.1472103"><time>2022-10-29T09:08:48.857</time></trkpt><trkpt lat="55.7551462" lon="49.1472369"><time>2022-10-29T09:08:51.860</time></trkpt><trkpt lat="55.7550832" lon="49.1472506"><time>2022-10-29T09:08:54.853</time></trkpt><trkpt lat="55.7550523" lon="49.1473231"><time>2022-10-29T09:08:57.880</time></trkpt><trkpt lat="55.7550188" lon="49.1473861"><time>2022-10-29T09:09:00.880</time></trkpt><trkpt lat="55.7549801" lon="49.1474315"><time>2022-10-29T09:09:03.883</time></trkpt><trkpt lat="55.7549223" lon="49.1474646"><time>2022-10-29T09:09:06.867</time></trkpt><trkpt lat="55.7548557" lon="49.1474864"><time>2022-10-29T09:09:09.880</time></trkpt><trkpt lat="55.7548086" lon="49.1474980"><time>2022-10-29T09:09:11.883</time></trkpt><trkpt lat="55.7547628" lon="49.1475075"><time>2022-10-29T09:09:13.890</time></trkpt><trkpt lat="55.7547102" lon="49.1475055"><time>2022-10-29T09:09:15.867</time></trkpt><trkpt lat="55.7546480" lon="49.1475093"><time>2022-10-29T09:09:18.930</time></trkpt><trkpt lat="55.7546231" lon="49.1475148"><time>2022-10-29T09:09:20.050</time></trkpt><trkpt lat="55.7545703" lon="49.1475016"><time>2022-10-29T09:09:23.853</time></trkpt><trkpt lat="55.7545186" lon="49.1475355"><time>2022-10-29T09:09:26.860</time></trkpt><trkpt lat="55.7544569" lon="49.1475512"><time>2022-10-29T09:09:30.857</time></trkpt><trkpt lat="55.7544128" lon="49.1475670"><time>2022-10-29T09:09:32.847</time></trkpt><trkpt lat="55.7543624" lon="49.1475913"><time>2022-10-29T09:09:36.863</time></trkpt><trkpt lat="55.7543201" lon="49.1476242"><time>2022-10-29T09:09:39.870</time></trkpt><trkpt lat="55.7542598" lon="49.1476434"><time>2022-10-29T09:09:42.867</time></trkpt><trkpt lat="55.7541996" lon="49.1477058"><time>2022-10-29T09:09:45.890</time></trkpt><trkpt lat="55.7541885" lon="49.1477178"><time>2022-10-29T09:09:46.813</time></trkpt><trkpt lat="55.7541439" lon="49.1477360"><time>2022-10-29T09:09:48.860</time></trkpt><trkpt lat="55.7541023" lon="49.1477677"><time>2022-10-29T09:09:52.857</time></trkpt><trkpt lat="55.7540523" lon="49.1477850"><time>2022-10-29T09:09:58.857</time></trkpt><trkpt lat="55.7540005" lon="49.1477941"><time>2022-10-29T09:10:02.860</time></trkpt><trkpt lat="55.7539496" lon="49.1478082"><time>2022-10-29T09:10:12.913</time></trkpt><trkpt lat="55.7539496" lon="49.1478082"><time>2022-10-29T09:10:13.073</time></trkpt><trkpt lat="55.7539056" lon="49.1478423"><time>2022-10-29T09:10:19.900</time></trkpt><trkpt lat="55.7538978" lon="49.1478474"><time>2022-10-29T09:10:21.087</time></trkpt><trkpt lat="55.7539442" lon="49.1478398"><time>2022-10-29T09:10:31.853</time></trkpt><trkpt lat="55.7539884" lon="49.1478086"><time>2022-10-29T09:10:43.873</time></trkpt><trkpt lat="55.7540351" lon="49.1477808"><time>2022-10-29T09:10:50.877</time></trkpt><trkpt lat="55.7540836" lon="49.1477710"><time>2022-10-29T09:10:55.877</time></trkpt><trkpt lat="55.7541286" lon="49.1477593"><time>2022-10-29T09:11:01.877</time></trkpt><trkpt lat="55.7541736" lon="49.1477336"><time>2022-10-29T09:11:59.887</time></trkpt><trkpt lat="55.7542314" lon="49.1476733"><time>2022-10-29T09:12:02.880</time></trkpt><trkpt lat="55.7542942" lon="49.1476436"><time>2022-10-29T09:12:04.887</time></trkpt><trkpt lat="55.7543639" lon="49.1476199"><time>2022-10-29T09:12:06.877</time></trkpt><trkpt lat="55.7544509" lon="49.1475919"><time>2022-10-29T09:12:08.887</time></trkpt><trkpt lat="55.7545156" lon="49.1475666"><time>2022-10-29T09:12:10.890</time></trkpt><trkpt lat="55.7545967" lon="49.1475198"><time>2022-10-29T09:12:12.887</time></trkpt><trkpt lat="55.7546538" lon="49.1475079"><time>2022-10-29T09:12:14.887</time></trkpt><trkpt lat="55.7547286" lon="49.1475086"><time>2022-10-29T09:12:16.880</time></trkpt><trkpt lat="55.7547865" lon="49.1474979"><time>2022-10-29T09:12:18.887</time></trkpt><trkpt lat="55.7548733" lon="49.1474730"><time>2022-10-29T09:12:20.860</time></trkpt><trkpt lat="55.7549452" lon="49.1474549"><time>2022-10-29T09:12:22.847</time></trkpt><trkpt lat="55.7550080" lon="49.1474185"><time>2022-10-29T09:12:24.860</time></trkpt><trkpt lat="55.7550543" lon="49.1473366"><time>2022-10-29T09:12:26.850</time></trkpt><trkpt lat="55.7550917" lon="49.1472678"><time>2022-10-29T09:12:28.867</time></trkpt><trkpt lat="55.7551592" lon="49.1472264"><time>2022-10-29T09:12:30.873</time></trkpt><trkpt lat="55.7552417" lon="49.1471945"><time>2022-10-29T09:12:32.853</time></trkpt><trkpt lat="55.7553130" lon="49.1471808"><time>2022-10-29T09:12:34.883</time></trkpt><trkpt lat="55.7553920" lon="49.1471728"><time>2022-10-29T09:12:36.887</time></trkpt><trkpt lat="55.7554528" lon="49.1471653"><time>2022-10-29T09:12:38.857</time></trkpt><trkpt lat="55.7555166" lon="49.1471391"><time>2022-10-29T09:12:40.863</time></trkpt><trkpt lat="55.7555879" lon="49.1471022"><time>2022-10-29T09:12:42.880</time></trkpt><trkpt lat="55.7556514" lon="49.1470620"><time>2022-10-29T09:12:44.877</time></trkpt><trkpt lat="55.7557086" lon="49.1470303"><time>2022-10-29T09:12:46.883</time></trkpt><trkpt lat="55.7557809" lon="49.1469983"><time>2022-10-29T09:12:48.877</time></trkpt><trkpt lat="55.7558621" lon="49.1469697"><time>2022-10-29T09:12:50.890</time></trkpt><trkpt lat="55.7559265" lon="49.1469364"><time>2022-10-29T09:12:52.887</time></trkpt><trkpt lat="55.7559827" lon="49.1469137"><time>2022-10-29T09:12:54.890</time></trkpt><trkpt lat="55.7560301" lon="49.1468975"><time>2022-10-29T09:12:56.883</time></trkpt><trkpt lat="55.7560774" lon="49.1468647"><time>2022-10-29T09:12:58.883</time></trkpt><trkpt lat="55.7561421" lon="49.1468184"><time>2022-10-29T09:13:01.887</time></trkpt><trkpt lat="55.7561888" lon="49.1467910"><time>2022-10-29T09:13:03.887</time></trkpt><trkpt lat="55.7562429" lon="49.1467632"><time>2022-10-29T09:13:05.883</time></trkpt><trkpt lat="55.7562855" lon="49.1467291"><time>2022-10-29T09:13:07.870</time></trkpt><trkpt lat="55.7563252" lon="49.1466858"><time>2022-10-29T09:13:09.847</time></trkpt><trkpt lat="55.7563680" lon="49.1466514"><time>2022-10-29T09:13:11.853</time></trkpt><trkpt lat="55.7563981" lon="49.1465801"><time>2022-10-29T09:13:14.860</time></trkpt><trkpt lat="55.7563821" lon="49.1465055"><time>2022-10-29T09:13:39.873</time></trkpt><trkpt lat="55.7563625" lon="49.1464292"><time>2022-10-29T09:13:41.927</time></trkpt><trkpt lat="55.7563378" lon="49.1463266"><time>2022-10-29T09:13:43.847</time></trkpt><trkpt lat="55.7563298" lon="49.1462127"><time>2022-10-29T09:13:45.853</time></trkpt><trkpt lat="55.7563228" lon="49.1460950"><time>2022-10-29T09:13:47.853</time></trkpt><trkpt lat="55.7563161" lon="49.1459982"><time>2022-10-29T09:13:49.847</time></trkpt><trkpt lat="55.7563107" lon="49.1458705"><time>2022-10-29T09:13:51.867</time></trkpt><trkpt lat="55.7563063" lon="49.1457608"><time>2022-10-29T09:13:53.847</time></trkpt><trkpt lat="55.7563002" lon="49.1456719"><time>2022-10-29T09:13:55.857</time></trkpt><trkpt lat="55.7562971" lon="49.1455515"><time>2022-10-29T09:13:58.850</time></trkpt><trkpt lat="55.7562979" lon="49.1454331"><time>2022-10-29T09:14:00.863</time></trkpt><trkpt lat="55.7562888" lon="49.1453164"><time>2022-10-29T09:14:02.847</time></trkpt><trkpt lat="55.7562856" lon="49.1452185"><time>2022-10-29T09:14:04.850</time></trkpt><trkpt lat="55.7562896" lon="49.1451188"><time>2022-10-29T09:14:06.857</time></trkpt><trkpt lat="55.7562961" lon="49.1450229"><time>2022-10-29T09:14:08.887</time></trkpt><trkpt lat="55.7562913" lon="49.1449105"><time>2022-10-29T09:14:10.883</time></trkpt><trkpt lat="55.7562802" lon="49.1447976"><time>2022-10-29T09:14:12.900</time></trkpt><trkpt lat="55.7562770" lon="49.1446488"><time>2022-10-29T09:14:14.873</time></trkpt><trkpt lat="55.7562448" lon="49.1445187"><time>2022-10-29T09:14:16.893</time></trkpt><trkpt lat="55.7561880" lon="49.1444516"><time>2022-10-29T09:14:18.913</time></trkpt><trkpt lat="55.7561203" lon="49.1443945"><time>2022-10-29T09:14:20.877</time></trkpt><trkpt lat="55.7560757" lon="49.1443760"><time>2022-10-29T09:14:21.887</time></trkpt><trkpt lat="55.7559945" lon="49.1443565"><time>2022-10-29T09:14:23.877</time></trkpt><trkpt lat="55.7559128" lon="49.1443437"><time>2022-10-29T09:14:25.890</time></trkpt><trkpt lat="55.7558359" lon="49.1443402"><time>2022-10-29T09:14:27.880</time></trkpt><trkpt lat="55.7557721" lon="49.1443650"><time>2022-10-29T09:14:29.887</time></trkpt><trkpt lat="55.7557209" lon="49.1444114"><time>2022-10-29T09:14:31.867</time></trkpt><trkpt lat="55.7556713" lon="49.1444437"><time>2022-10-29T09:14:33.883</time></trkpt><trkpt lat="55.7556212" lon="49.1444608"><time>2022-10-29T09:14:35.910</time></trkpt><trkpt lat="55.7555744" lon="49.1444881"><time>2022-10-29T09:14:37.877</time></trkpt><trkpt lat="55.7555296" lon="49.1445150"><time>2022-10-29T09:14:39.877</time></trkpt><trkpt lat="55.7554704" lon="49.1445362"><time>2022-10-29T09:14:42.883</time></trkpt><trkpt lat="55.7554058" lon="49.1445480"><time>2022-10-29T09:14:45.897</time></trkpt><trkpt lat="55.7553580" lon="49.1445614"><time>2022-10-29T09:14:47.883</time></trkpt><trkpt lat="55.7552910" lon="49.1445848"><time>2022-10-29T09:14:50.887</time></trkpt><trkpt lat="55.7552275" lon="49.1445639"><time>2022-10-29T09:14:53.910</time></trkpt><trkpt lat="55.7551728" lon="49.1445337"><time>2022-10-29T09:14:55.887</time></trkpt><trkpt lat="55.7550923" lon="49.1444965"><time>2022-10-29T09:14:57.883</time></trkpt><trkpt lat="55.7550271" lon="49.1445139"><time>2022-10-29T09:14:59.860</time></trkpt><trkpt lat="55.7549857" lon="49.1445529"><time>2022-10-29T09:15:01.887</time></trkpt><trkpt lat="55.7549238" lon="49.1445932"><time>2022-10-29T09:15:04.880</time></trkpt><trkpt lat="55.7548757" lon="49.1446158"><time>2022-10-29T09:15:06.890</time></trkpt><trkpt lat="55.7548219" lon="49.1446378"><time>2022-10-29T09:15:08.887</time></trkpt><trkpt lat="55.7547647" lon="49.1446776"><time>2022-10-29T09:15:10.887</time></trkpt><trkpt lat="55.7547073" lon="49.1447179"><time>2022-10-29T09:15:13.857</time></trkpt><trkpt lat="55.7546406" lon="49.1447527"><time>2022-10-29T09:15:14.857</time></trkpt><trkpt lat="55.7545777" lon="49.1447820"><time>2022-10-29T09:15:16.863</time></trkpt><trkpt lat="55.7545233" lon="49.1448076"><time>2022-10-29T09:15:18.860</time></trkpt><trkpt lat="55.7544758" lon="49.1448236"><time>2022-10-29T09:15:20.887</time></trkpt><trkpt lat="55.7544072" lon="49.1448251"><time>2022-10-29T09:15:23.850</time></trkpt><trkpt lat="55.7543505" lon="49.1448488"><time>2022-10-29T09:15:25.850</time></trkpt><trkpt lat="55.7542927" lon="49.1448878"><time>2022-10-29T09:15:27.860</time></trkpt><trkpt lat="55.7542451" lon="49.1449474"><time>2022-10-29T09:15:29.853</time></trkpt><trkpt lat="55.7542011" lon="49.1450082"><time>2022-10-29T09:15:31.873</time></trkpt><trkpt lat="55.7541622" lon="49.1450608"><time>2022-10-29T09:15:33.877</time></trkpt><trkpt lat="55.7541238" lon="49.1451229"><time>2022-10-29T09:15:35.877</time></trkpt><trkpt lat="55.7540908" lon="49.1451859"><time>2022-10-29T09:15:37.877</time></trkpt><trkpt lat="55.7540605" lon="49.1452554"><time>2022-10-29T09:15:39.873</time></trkpt><trkpt lat="55.7540296" lon="49.1453299"><time>2022-10-29T09:15:41.880</time></trkpt><trkpt lat="55.7539980" lon="49.1454211"><time>2022-10-29T09:15:43.890</time></trkpt><trkpt lat="55.7539620" lon="49.1455183"><time>2022-10-29T09:15:45.883</time></trkpt><trkpt lat="55.7539323" lon="49.1456062"><time>2022-10-29T09:15:47.900</time></trkpt><trkpt lat="55.7539048" lon="49.1456946"><time>2022-10-29T09:15:49.883</time></trkpt><trkpt lat="55.7538774" lon="49.1457646"><time>2022-10-29T09:15:51.880</time></trkpt><trkpt lat="55.7538476" lon="49.1458317"><time>2022-10-29T09:15:53.877</time></trkpt><trkpt lat="55.7538164" lon="49.1459073"><time>2022-10-29T09:15:55.887</time></trkpt><trkpt lat="55.7537901" lon="49.1459746"><time>2022-10-29T09:15:57.880</time></trkpt><trkpt lat="55.7537596" lon="49.1460426"><time>2022-10-29T09:16:00.867</time></trkpt><trkpt lat="55.7537267" lon="49.1461281"><time>2022-10-29T09:16:03.880</time></trkpt><trkpt lat="55.7536994" lon="49.1461989"><time>2022-10-29T09:16:05.877</time></trkpt><trkpt lat="55.7536650" lon="49.1462754"><time>2022-10-29T09:16:08.887</time></trkpt><trkpt lat="55.7536365" lon="49.1463408"><time>2022-10-29T09:16:10.887</time></trkpt><trkpt lat="55.7536029" lon="49.1464059"><time>2022-10-29T09:16:12.857</time></trkpt><trkpt lat="55.7535695" lon="49.1464632"><time>2022-10-29T09:16:14.887</time></trkpt><trkpt lat="55.7535155" lon="49.1465431"><time>2022-10-29T09:16:17.887</time></trkpt><trkpt lat="55.7534716" lon="49.1466003"><time>2022-10-29T09:16:19.880</time></trkpt><trkpt lat="55.7534310" lon="49.1466531"><time>2022-10-29T09:16:21.887</time></trkpt><trkpt lat="55.7533790" lon="49.1467404"><time>2022-10-29T09:16:24.860</time></trkpt><trkpt lat="55.7533445" lon="49.1468019"><time>2022-10-29T09:16:26.850</time></trkpt><trkpt lat="55.7533168" lon="49.1468721"><time>2022-10-29T09:16:28.903</time></trkpt><trkpt lat="55.7532854" lon="49.1469692"><time>2022-10-29T09:16:31.863</time></trkpt><trkpt lat="55.7532557" lon="49.1470530"><time>2022-10-29T09:16:33.863</time></trkpt><trkpt lat="55.7532216" lon="49.1471532"><time>2022-10-29T09:16:35.863</time></trkpt><trkpt lat="55.7531885" lon="49.1472423"><time>2022-10-29T09:16:37.860</time></trkpt><trkpt lat="55.7531566" lon="49.1473222"><time>2022-10-29T09:16:39.867</time></trkpt><trkpt lat="55.7531199" lon="49.1474040"><time>2022-10-29T09:16:41.877</time></trkpt><trkpt lat="55.7530887" lon="49.1474861"><time>2022-10-29T09:16:43.877</time></trkpt><trkpt lat="55.7530615" lon="49.1475569"><time>2022-10-29T09:16:45.877</time></trkpt><trkpt lat="55.7530269" lon="49.1476321"><time>2022-10-29T09:16:47.860</time></trkpt><trkpt lat="55.7529952" lon="49.1477041"><time>2022-10-29T09:16:49.880</time></trkpt><trkpt lat="55.7529647" lon="49.1477694"><time>2022-10-29T09:16:51.870</time></trkpt><trkpt lat="55.7529224" lon="49.1478561"><time>2022-10-29T09:16:54.863</time></trkpt><trkpt lat="55.7528910" lon="49.1479258"><time>2022-10-29T09:16:56.877</time></trkpt><trkpt lat="55.7528612" lon="49.1479882"><time>2022-10-29T09:16:58.893</time></trkpt><trkpt lat="55.7528261" lon="49.1480620"><time>2022-10-29T09:17:00.893</time></trkpt><trkpt lat="55.7527944" lon="49.1481278"><time>2022-10-29T09:17:02.883</time></trkpt><trkpt lat="55.7527642" lon="49.1481922"><time>2022-10-29T09:17:04.887</time></trkpt><trkpt lat="55.7527361" lon="49.1482573"><time>2022-10-29T09:17:06.887</time></trkpt><trkpt lat="55.7527082" lon="49.1483205"><time>2022-10-29T09:17:08.907</time></trkpt><trkpt lat="55.7526785" lon="49.1483961"><time>2022-10-29T09:17:10.880</time></trkpt><trkpt lat="55.7526406" lon="49.1484802"><time>2022-10-29T09:17:13.857</time></trkpt><trkpt lat="55.7526085" lon="49.1485634"><time>2022-10-29T09:17:15.880</time></trkpt><trkpt lat="55.7525774" lon="49.1486556"><time>2022-10-29T09:17:17.877</time></trkpt><trkpt lat="55.7525600" lon="49.1487350"><time>2022-10-29T09:17:19.870</time></trkpt><trkpt lat="55.7525508" lon="49.1488481"><time>2022-10-29T09:17:22.873</time></trkpt><trkpt lat="55.7525467" lon="49.1489412"><time>2022-10-29T09:17:24.850</time></trkpt><trkpt lat="55.7525500" lon="49.1490396"><time>2022-10-29T09:17:26.860</time></trkpt><trkpt lat="55.7525520" lon="49.1491453"><time>2022-10-29T09:17:28.883</time></trkpt><trkpt lat="55.7525543" lon="49.1492459"><time>2022-10-29T09:17:30.900</time></trkpt><trkpt lat="55.7525567" lon="49.1493410"><time>2022-10-29T09:17:32.900</time></trkpt><trkpt lat="55.7525563" lon="49.1494333"><time>2022-10-29T09:17:34.890</time></trkpt><trkpt lat="55.7525552" lon="49.1495291"><time>2022-10-29T09:17:36.880</time></trkpt><trkpt lat="55.7525553" lon="49.1496215"><time>2022-10-29T09:17:38.880</time></trkpt><trkpt lat="55.7525470" lon="49.1497232"><time>2022-10-29T09:17:41.857</time></trkpt><trkpt lat="55.7525280" lon="49.1498096"><time>2022-10-29T09:17:44.887</time></trkpt><trkpt lat="55.7524941" lon="49.1498843"><time>2022-10-29T09:17:47.877</time></trkpt><trkpt lat="55.7524601" lon="49.1499625"><time>2022-10-29T09:17:50.860</time></trkpt><trkpt lat="55.7524280" lon="49.1500208"><time>2022-10-29T09:17:52.857</time></trkpt><trkpt lat="55.7523908" lon="49.1500859"><time>2022-10-29T09:17:54.877</time></trkpt><trkpt lat="55.7523539" lon="49.1501522"><time>2022-10-29T09:17:56.880</time></trkpt><trkpt lat="55.7523146" lon="49.1502181"><time>2022-10-29T09:17:58.873</time></trkpt><trkpt lat="55.7522793" lon="49.1502870"><time>2022-10-29T09:18:00.880</time></trkpt><trkpt lat="55.7522430" lon="49.1503518"><time>2022-10-29T09:18:02.880</time></trkpt><trkpt lat="55.7522034" lon="49.1504080"><time>2022-10-29T09:18:04.877</time></trkpt><trkpt lat="55.7521624" lon="49.1504700"><time>2022-10-29T09:18:06.890</time></trkpt><trkpt lat="55.7521258" lon="49.1505308"><time>2022-10-29T09:18:08.887</time></trkpt><trkpt lat="55.7520916" lon="49.1505910"><time>2022-10-29T09:18:10.887</time></trkpt><trkpt lat="55.7520533" lon="49.1506637"><time>2022-10-29T09:18:13.883</time></trkpt><trkpt lat="55.7520162" lon="49.1507385"><time>2022-10-29T09:18:16.883</time></trkpt><trkpt lat="55.7519839" lon="49.1507990"><time>2022-10-29T09:18:18.880</time></trkpt><trkpt lat="55.7519513" lon="49.1508588"><time>2022-10-29T09:18:20.893</time></trkpt><trkpt lat="55.7519088" lon="49.1509411"><time>2022-10-29T09:18:23.877</time></trkpt><trkpt lat="55.7518722" lon="49.1510064"><time>2022-10-29T09:18:25.883</time></trkpt><trkpt lat="55.7518319" lon="49.1510758"><time>2022-10-29T09:18:27.883</time></trkpt><trkpt lat="55.7517909" lon="49.1511487"><time>2022-10-29T09:18:29.887</time></trkpt><trkpt lat="55.7517427" lon="49.1512141"><time>2022-10-29T09:18:31.880</time></trkpt><trkpt lat="55.7516980" lon="49.1512621"><time>2022-10-29T09:18:33.883</time></trkpt><trkpt lat="55.7516611" lon="49.1513165"><time>2022-10-29T09:18:35.923</time></trkpt><trkpt lat="55.7512548" lon="49.1522372"><time>2022-10-29T09:19:04.573</time></trkpt><trkpt lat="55.7511926" lon="49.1522570"><time>2022-10-29T09:19:06.870</time></trkpt><trkpt lat="55.7511510" lon="49.1522916"><time>2022-10-29T09:19:08.847</time></trkpt><trkpt lat="55.7511048" lon="49.1523299"><time>2022-10-29T09:19:10.847</time></trkpt><trkpt lat="55.7510471" lon="49.1523726"><time>2022-10-29T09:19:12.847</time></trkpt><trkpt lat="55.7509874" lon="49.1524086"><time>2022-10-29T09:19:14.863</time></trkpt><trkpt lat="55.7509735" lon="49.1524151"><time>2022-10-29T09:19:15.770</time></trkpt><trkpt lat="55.7509312" lon="49.1524442"><time>2022-10-29T09:19:16.857</time></trkpt><trkpt lat="55.7508782" lon="49.1524807"><time>2022-10-29T09:19:18.853</time></trkpt><trkpt lat="55.7508270" lon="49.1525162"><time>2022-10-29T09:19:20.857</time></trkpt><trkpt lat="55.7507696" lon="49.1525589"><time>2022-10-29T09:19:22.853</time></trkpt><trkpt lat="55.7507168" lon="49.1525962"><time>2022-10-29T09:19:24.853</time></trkpt><trkpt lat="55.7506708" lon="49.1526382"><time>2022-10-29T09:19:26.860</time></trkpt><trkpt lat="55.7506219" lon="49.1526975"><time>2022-10-29T09:19:29.857</time></trkpt><trkpt lat="55.7505836" lon="49.1527844"><time>2022-10-29T09:19:32.857</time></trkpt><trkpt lat="55.7505383" lon="49.1528674"><time>2022-10-29T09:19:35.857</time></trkpt><trkpt lat="55.7504986" lon="49.1529315"><time>2022-10-29T09:19:37.897</time></trkpt><trkpt lat="55.7504874" lon="49.1529604"><time>2022-10-29T09:19:39.047</time></trkpt><trkpt lat="55.7504442" lon="49.1530322"><time>2022-10-29T09:19:40.890</time></trkpt><trkpt lat="55.7504026" lon="49.1530963"><time>2022-10-29T09:19:42.857</time></trkpt><trkpt lat="55.7503593" lon="49.1531493"><time>2022-10-29T09:19:44.863</time></trkpt><trkpt lat="55.7503129" lon="49.1531946"><time>2022-10-29T09:19:46.880</time></trkpt><trkpt lat="55.7502626" lon="49.1532349"><time>2022-10-29T09:19:48.887</time></trkpt><trkpt lat="55.7502154" lon="49.1532647"><time>2022-10-29T09:19:50.880</time></trkpt><trkpt lat="55.7501756" lon="49.1533098"><time>2022-10-29T09:19:53.877</time></trkpt><trkpt lat="55.7501882" lon="49.1534107"><time>2022-10-29T09:19:57.883</time></trkpt><trkpt lat="55.7502061" lon="49.1534850"><time>2022-10-29T09:20:00.887</time></trkpt><trkpt lat="55.7502240" lon="49.1535646"><time>2022-10-29T09:20:03.877</time></trkpt><trkpt lat="55.7502529" lon="49.1536457"><time>2022-10-29T09:20:07.880</time></trkpt><trkpt lat="55.7502767" lon="49.1537177"><time>2022-10-29T09:20:10.897</time></trkpt><trkpt lat="55.7503023" lon="49.1537864"><time>2022-10-29T09:20:13.863</time></trkpt><trkpt lat="55.7503603" lon="49.1537630"><time>2022-10-29T09:20:23.880</time></trkpt><trkpt lat="55.7503603" lon="49.1537630"><time>2022-10-29T09:20:24.073</time></trkpt><trkpt lat="55.7503134" lon="49.1537734"><time>2022-10-29T09:20:35.917</time></trkpt><trkpt lat="55.7503111" lon="49.1537743"><time>2022-10-29T09:20:36.940</time></trkpt><trkpt lat="55.7502811" lon="49.1537060"><time>2022-10-29T09:21:06.877</time></trkpt><trkpt lat="55.7502565" lon="49.1536287"><time>2022-10-29T09:21:09.890</time></trkpt><trkpt lat="55.7502213" lon="49.1535215"><time>2022-10-29T09:21:12.883</time></trkpt><trkpt lat="55.7501991" lon="49.1534233"><time>2022-10-29T09:21:14.887</time></trkpt><trkpt lat="55.7501673" lon="49.1533247"><time>2022-10-29T09:21:16.887</time></trkpt><trkpt lat="55.7501089" lon="49.1532814"><time>2022-10-29T09:21:18.890</time></trkpt><trkpt lat="55.7500500" lon="49.1533004"><time>2022-10-29T09:21:20.890</time></trkpt><trkpt lat="55.7499962" lon="49.1533372"><time>2022-10-29T09:21:22.880</time></trkpt><trkpt lat="55.7499451" lon="49.1533707"><time>2022-10-29T09:21:24.893</time></trkpt><trkpt lat="55.7498883" lon="49.1534074"><time>2022-10-29T09:21:26.877</time></trkpt><trkpt lat="55.7498288" lon="49.1534396"><time>2022-10-29T09:21:28.880</time></trkpt><trkpt lat="55.7497679" lon="49.1534667"><time>2022-10-29T09:21:30.850</time></trkpt><trkpt lat="55.7497032" lon="49.1534919"><time>2022-10-29T09:21:32.860</time></trkpt><trkpt lat="55.7496411" lon="49.1535165"><time>2022-10-29T09:21:34.887</time></trkpt><trkpt lat="55.7495826" lon="49.1535440"><time>2022-10-29T09:21:36.887</time></trkpt><trkpt lat="55.7495185" lon="49.1535704"><time>2022-10-29T09:21:38.897</time></trkpt><trkpt lat="55.7494612" lon="49.1536093"><time>2022-10-29T09:21:40.863</time></trkpt><trkpt lat="55.7494117" lon="49.1536746"><time>2022-10-29T09:21:42.863</time></trkpt><trkpt lat="55.7493765" lon="49.1537639"><time>2022-10-29T09:21:44.890</time></trkpt><trkpt lat="55.7493519" lon="49.1538561"><time>2022-10-29T09:21:46.890</time></trkpt><trkpt lat="55.7493293" lon="49.1539548"><time>2022-10-29T09:21:48.893</time></trkpt><trkpt lat="55.7493038" lon="49.1540510"><time>2022-10-29T09:21:50.883</time></trkpt><trkpt lat="55.7492904" lon="49.1541304"><time>2022-10-29T09:21:52.883</time></trkpt><trkpt lat="55.7492583" lon="49.1542293"><time>2022-10-29T09:21:55.887</time></trkpt><trkpt lat="55.7492233" lon="49.1543349"><time>2022-10-29T09:21:58.887</time></trkpt><trkpt lat="55.7492018" lon="49.1544110"><time>2022-10-29T09:22:00.887</time></trkpt><trkpt lat="55.7491761" lon="49.1544863"><time>2022-10-29T09:22:02.903</time></trkpt><trkpt lat="55.7491450" lon="49.1545564"><time>2022-10-29T09:22:04.883</time></trkpt><trkpt lat="55.7491176" lon="49.1546242"><time>2022-10-29T09:22:06.890</time></trkpt><trkpt lat="55.7490820" lon="49.1546856"><time>2022-10-29T09:22:08.883</time></trkpt><trkpt lat="55.7490455" lon="49.1547443"><time>2022-10-29T09:22:10.887</time></trkpt><trkpt lat="55.7490031" lon="49.1548118"><time>2022-10-29T09:22:12.860</time></trkpt><trkpt lat="55.7489684" lon="49.1548665"><time>2022-10-29T09:22:14.863</time></trkpt><trkpt lat="55.7489292" lon="49.1549288"><time>2022-10-29T09:22:16.887</time></trkpt><trkpt lat="55.7488924" lon="49.1549901"><time>2022-10-29T09:22:18.900</time></trkpt><trkpt lat="55.7488552" lon="49.1550543"><time>2022-10-29T09:22:20.887</time></trkpt><trkpt lat="55.7488144" lon="49.1551221"><time>2022-10-29T09:22:22.893</time></trkpt><trkpt lat="55.7487747" lon="49.1552028"><time>2022-10-29T09:22:24.887</time></trkpt><trkpt lat="55.7487361" lon="49.1552814"><time>2022-10-29T09:22:26.883</time></trkpt><trkpt lat="55.7486932" lon="49.1553449"><time>2022-10-29T09:22:28.890</time></trkpt><trkpt lat="55.7486469" lon="49.1553915"><time>2022-10-29T09:22:30.887</time></trkpt><trkpt lat="55.7485800" lon="49.1554209"><time>2022-10-29T09:22:33.883</time></trkpt><trkpt lat="55.7485283" lon="49.1554366"><time>2022-10-29T09:22:35.887</time></trkpt><trkpt lat="55.7484827" lon="49.1554496"><time>2022-10-29T09:22:37.887</time></trkpt><trkpt lat="55.7484220" lon="49.1554635"><time>2022-10-29T09:22:40.887</time></trkpt><trkpt lat="55.7483564" lon="49.1554791"><time>2022-10-29T09:22:43.883</time></trkpt><trkpt lat="55.7483088" lon="49.1554901"><time>2022-10-29T09:22:45.887</time></trkpt><trkpt lat="55.7482582" lon="49.1555023"><time>2022-10-29T09:22:47.897</time></trkpt><trkpt lat="55.7482093" lon="49.1555126"><time>2022-10-29T09:22:49.887</time></trkpt><trkpt lat="55.7481610" lon="49.1555180"><time>2022-10-29T09:22:51.883</time></trkpt><trkpt lat="55.7481085" lon="49.1555223"><time>2022-10-29T09:22:53.887</time></trkpt><trkpt lat="55.7480583" lon="49.1555235"><time>2022-10-29T09:22:55.890</time></trkpt><trkpt lat="55.7480096" lon="49.1555289"><time>2022-10-29T09:22:57.887</time></trkpt><trkpt lat="55.7479425" lon="49.1555346"><time>2022-10-29T09:23:00.890</time></trkpt><trkpt lat="55.7478947" lon="49.1555380"><time>2022-10-29T09:23:02.860</time></trkpt><trkpt lat="55.7478460" lon="49.1555369"><time>2022-10-29T09:23:04.863</time></trkpt><trkpt lat="55.7477992" lon="49.1555312"><time>2022-10-29T09:23:06.880</time></trkpt><trkpt lat="55.7477331" lon="49.1555226"><time>2022-10-29T09:23:09.890</time></trkpt><trkpt lat="55.7477209" lon="49.1555135"><time>2022-10-29T09:23:11.037</time></trkpt><trkpt lat="55.7476701" lon="49.1555169"><time>2022-10-29T09:23:12.863</time></trkpt><trkpt lat="55.7476053" lon="49.1555156"><time>2022-10-29T09:23:15.860</time></trkpt><trkpt lat="55.7475390" lon="49.1555121"><time>2022-10-29T09:23:18.893</time></trkpt><trkpt lat="55.7474748" lon="49.1555086"><time>2022-10-29T09:23:21.847</time></trkpt><trkpt lat="55.7474093" lon="49.1555048"><time>2022-10-29T09:23:24.890</time></trkpt><trkpt lat="55.7473473" lon="49.1554953"><time>2022-10-29T09:23:27.857</time></trkpt><trkpt lat="55.7472823" lon="49.1555216"><time>2022-10-29T09:23:30.897</time></trkpt><trkpt lat="55.7472371" lon="49.1555399"><time>2022-10-29T09:23:32.903</time></trkpt><trkpt lat="55.7471723" lon="49.1555567"><time>2022-10-29T09:23:35.890</time></trkpt><trkpt lat="55.7471253" lon="49.1555714"><time>2022-10-29T09:23:37.883</time></trkpt><trkpt lat="55.7470792" lon="49.1555898"><time>2022-10-29T09:23:39.893</time></trkpt><trkpt lat="55.7470345" lon="49.1556062"><time>2022-10-29T09:23:41.897</time></trkpt><trkpt lat="55.7469870" lon="49.1556282"><time>2022-10-29T09:23:43.917</time></trkpt><trkpt lat="55.7469404" lon="49.1556513"><time>2022-10-29T09:23:45.890</time></trkpt><trkpt lat="55.7468938" lon="49.1556689"><time>2022-10-29T09:23:47.907</time></trkpt><trkpt lat="55.7468306" lon="49.1556800"><time>2022-10-29T09:23:50.917</time></trkpt><trkpt lat="55.7468199" lon="49.1556818"><time>2022-10-29T09:23:51.827</time></trkpt><trkpt lat="55.7467576" lon="49.1556863"><time>2022-10-29T09:23:53.857</time></trkpt><trkpt lat="55.7467062" lon="49.1556862"><time>2022-10-29T09:23:55.860</time></trkpt><trkpt lat="55.7466601" lon="49.1556775"><time>2022-10-29T09:23:57.860</time></trkpt><trkpt lat="55.7465941" lon="49.1556576"><time>2022-10-29T09:24:00.860</time></trkpt><trkpt lat="55.7465466" lon="49.1556455"><time>2022-10-29T09:24:02.857</time></trkpt><trkpt lat="55.7464982" lon="49.1556382"><time>2022-10-29T09:24:04.863</time></trkpt><trkpt lat="55.7464483" lon="49.1556326"><time>2022-10-29T09:24:06.857</time></trkpt><trkpt lat="55.7463978" lon="49.1556256"><time>2022-10-29T09:24:08.863</time></trkpt><trkpt lat="55.7463470" lon="49.1556182"><time>2022-10-29T09:24:10.900</time></trkpt><trkpt lat="55.7463361" lon="49.1556098"><time>2022-10-29T09:24:12.027</time></trkpt><trkpt lat="55.7462904" lon="49.1555881"><time>2022-10-29T09:24:13.860</time></trkpt><trkpt lat="55.7462375" lon="49.1555602"><time>2022-10-29T09:24:16.847</time></trkpt><trkpt lat="55.7461780" lon="49.1555181"><time>2022-10-29T09:24:19.857</time></trkpt><trkpt lat="55.7461299" lon="49.1555247"><time>2022-10-29T09:24:22.900</time></trkpt><trkpt lat="55.7460839" lon="49.1555452"><time>2022-10-29T09:24:33.887</time></trkpt><trkpt lat="55.7460329" lon="49.1555826"><time>2022-10-29T09:24:37.920</time></trkpt><trkpt lat="55.7460329" lon="49.1555826"><time>2022-10-29T09:24:37.970</time></trkpt><trkpt lat="55.7459833" lon="49.1555915"><time>2022-10-29T09:24:41.897</time></trkpt><trkpt lat="55.7459773" lon="49.1555908"><time>2022-10-29T09:24:42.840</time></trkpt><trkpt lat="55.7459350" lon="49.1556295"><time>2022-10-29T09:24:48.850</time></trkpt><trkpt lat="55.7459281" lon="49.1557090"><time>2022-10-29T09:24:54.893</time></trkpt><trkpt lat="55.7459236" lon="49.1556206"><time>2022-10-29T09:25:51.877</time></trkpt><trkpt lat="55.7459684" lon="49.1555707"><time>2022-10-29T09:25:56.853</time></trkpt><trkpt lat="55.7460154" lon="49.1555602"><time>2022-10-29T09:26:00.863</time></trkpt><trkpt lat="55.7460666" lon="49.1555486"><time>2022-10-29T09:26:04.847</time></trkpt><trkpt lat="55.7461140" lon="49.1555177"><time>2022-10-29T09:26:08.857</time></trkpt><trkpt lat="55.7461616" lon="49.1555224"><time>2022-10-29T09:26:25.887</time></trkpt><trkpt lat="55.7462090" lon="49.1555425"><time>2022-10-29T09:26:30.863</time></trkpt><trkpt lat="55.7462583" lon="49.1555814"><time>2022-10-29T09:26:33.887</time></trkpt><trkpt lat="55.7463050" lon="49.1556011"><time>2022-10-29T09:26:35.860</time></trkpt><trkpt lat="55.7463508" lon="49.1556175"><time>2022-10-29T09:26:37.863</time></trkpt><trkpt lat="55.7463962" lon="49.1556292"><time>2022-10-29T09:26:39.863</time></trkpt><trkpt lat="55.7464598" lon="49.1556387"><time>2022-10-29T09:26:42.863</time></trkpt><trkpt lat="55.7465145" lon="49.1556422"><time>2022-10-29T09:26:45.863</time></trkpt><trkpt lat="55.7465801" lon="49.1556399"><time>2022-10-29T09:26:48.870</time></trkpt><trkpt lat="55.7466351" lon="49.1556521"><time>2022-10-29T09:26:50.853</time></trkpt><trkpt lat="55.7466947" lon="49.1556664"><time>2022-10-29T09:26:52.867</time></trkpt><trkpt lat="55.7467533" lon="49.1556826"><time>2022-10-29T09:26:55.847</time></trkpt><trkpt lat="55.7468139" lon="49.1556855"><time>2022-10-29T09:26:56.857</time></trkpt><trkpt lat="55.7468731" lon="49.1556793"><time>2022-10-29T09:26:58.867</time></trkpt><trkpt lat="55.7469276" lon="49.1556707"><time>2022-10-29T09:27:00.887</time></trkpt><trkpt lat="55.7469729" lon="49.1556576"><time>2022-10-29T09:27:02.883</time></trkpt><trkpt lat="55.7470287" lon="49.1556357"><time>2022-10-29T09:27:04.863</time></trkpt><trkpt lat="55.7470861" lon="49.1556093"><time>2022-10-29T09:27:06.867</time></trkpt><trkpt lat="55.7471365" lon="49.1555873"><time>2022-10-29T09:27:08.880</time></trkpt><trkpt lat="55.7471813" lon="49.1555717"><time>2022-10-29T09:27:10.857</time></trkpt><trkpt lat="55.7472415" lon="49.1555823"><time>2022-10-29T09:27:13.900</time></trkpt><trkpt lat="55.7473082" lon="49.1555832"><time>2022-10-29T09:27:16.860</time></trkpt><trkpt lat="55.7473586" lon="49.1555704"><time>2022-10-29T09:27:18.877</time></trkpt><trkpt lat="55.7474111" lon="49.1555613"><time>2022-10-29T09:27:20.867</time></trkpt><trkpt lat="55.7474654" lon="49.1555544"><time>2022-10-29T09:27:22.893</time></trkpt><trkpt lat="55.7475192" lon="49.1555491"><time>2022-10-29T09:27:24.893</time></trkpt><trkpt lat="55.7475706" lon="49.1555486"><time>2022-10-29T09:27:26.863</time></trkpt><trkpt lat="55.7476173" lon="49.1555481"><time>2022-10-29T09:27:28.860</time></trkpt><trkpt lat="55.7476703" lon="49.1555436"><time>2022-10-29T09:27:30.893</time></trkpt><trkpt lat="55.7477298" lon="49.1555444"><time>2022-10-29T09:27:32.890</time></trkpt><trkpt lat="55.7477872" lon="49.1555401"><time>2022-10-29T09:27:34.847</time></trkpt><trkpt lat="55.7478395" lon="49.1555284"><time>2022-10-29T09:27:36.853</time></trkpt><trkpt lat="55.7478939" lon="49.1555288"><time>2022-10-29T09:27:38.897</time></trkpt><trkpt lat="55.7479532" lon="49.1555302"><time>2022-10-29T09:27:40.890</time></trkpt><trkpt lat="55.7480108" lon="49.1555304"><time>2022-10-29T09:27:42.920</time></trkpt><trkpt lat="55.7480736" lon="49.1555266"><time>2022-10-29T09:27:44.883</time></trkpt><trkpt lat="55.7481333" lon="49.1555161"><time>2022-10-29T09:27:46.847</time></trkpt><trkpt lat="55.7481899" lon="49.1555110"><time>2022-10-29T09:27:48.847</time></trkpt><trkpt lat="55.7482467" lon="49.1555084"><time>2022-10-29T09:27:50.850</time></trkpt><trkpt lat="55.7483087" lon="49.1554983"><time>2022-10-29T09:27:52.847</time></trkpt><trkpt lat="55.7483622" lon="49.1554839"><time>2022-10-29T09:27:54.857</time></trkpt><trkpt lat="55.7484149" lon="49.1554665"><time>2022-10-29T09:27:56.850</time></trkpt><trkpt lat="55.7484660" lon="49.1554536"><time>2022-10-29T09:27:58.920</time></trkpt><trkpt lat="55.7485230" lon="49.1554388"><time>2022-10-29T09:28:00.850</time></trkpt><trkpt lat="55.7485807" lon="49.1554164"><time>2022-10-29T09:28:02.857</time></trkpt><trkpt lat="55.7486408" lon="49.1553921"><time>2022-10-29T09:28:04.893</time></trkpt><trkpt lat="55.7486994" lon="49.1553631"><time>2022-10-29T09:28:06.887</time></trkpt><trkpt lat="55.7487553" lon="49.1553104"><time>2022-10-29T09:28:08.850</time></trkpt><trkpt lat="55.7488015" lon="49.1552399"><time>2022-10-29T09:28:10.863</time></trkpt><trkpt lat="55.7488410" lon="49.1551587"><time>2022-10-29T09:28:12.887</time></trkpt><trkpt lat="55.7488764" lon="49.1550719"><time>2022-10-29T09:28:14.883</time></trkpt><trkpt lat="55.7489122" lon="49.1549905"><time>2022-10-29T09:28:16.873</time></trkpt><trkpt lat="55.7489503" lon="49.1549147"><time>2022-10-29T09:28:18.910</time></trkpt><trkpt lat="55.7489908" lon="49.1548504"><time>2022-10-29T09:28:20.883</time></trkpt><trkpt lat="55.7490493" lon="49.1547857"><time>2022-10-29T09:28:23.880</time></trkpt><trkpt lat="55.7490844" lon="49.1547289"><time>2022-10-29T09:28:25.863</time></trkpt><trkpt lat="55.7491317" lon="49.1546496"><time>2022-10-29T09:28:28.863</time></trkpt><trkpt lat="55.7491670" lon="49.1545866"><time>2022-10-29T09:28:30.857</time></trkpt><trkpt lat="55.7492028" lon="49.1545268"><time>2022-10-29T09:28:32.873</time></trkpt><trkpt lat="55.7492322" lon="49.1544607"><time>2022-10-29T09:28:34.887</time></trkpt><trkpt lat="55.7492509" lon="49.1543546"><time>2022-10-29T09:28:37.853</time></trkpt><trkpt lat="55.7492696" lon="49.1542767"><time>2022-10-29T09:28:39.920</time></trkpt><trkpt lat="55.7492992" lon="49.1541799"><time>2022-10-29T09:28:42.887</time></trkpt><trkpt lat="55.7493267" lon="49.1540969"><time>2022-10-29T09:28:45.857</time></trkpt><trkpt lat="55.7493429" lon="49.1539884"><time>2022-10-29T09:28:48.857</time></trkpt><trkpt lat="55.7493709" lon="49.1539042"><time>2022-10-29T09:28:51.873</time></trkpt><trkpt lat="55.7493981" lon="49.1538058"><time>2022-10-29T09:28:54.890</time></trkpt><trkpt lat="55.7494352" lon="49.1537113"><time>2022-10-29T09:28:57.850</time></trkpt><trkpt lat="55.7494661" lon="49.1536507"><time>2022-10-29T09:28:59.867</time></trkpt><trkpt lat="55.7495082" lon="49.1536037"><time>2022-10-29T09:29:01.890</time></trkpt><trkpt lat="55.7495551" lon="49.1535743"><time>2022-10-29T09:29:03.860</time></trkpt><trkpt lat="55.7496032" lon="49.1535513"><time>2022-10-29T09:29:05.863</time></trkpt><trkpt lat="55.7496534" lon="49.1535315"><time>2022-10-29T09:29:07.877</time></trkpt><trkpt lat="55.7497068" lon="49.1535110"><time>2022-10-29T09:29:09.867</time></trkpt><trkpt lat="55.7497598" lon="49.1534928"><time>2022-10-29T09:29:11.870</time></trkpt><trkpt lat="55.7498137" lon="49.1534748"><time>2022-10-29T09:29:13.890</time></trkpt><trkpt lat="55.7498622" lon="49.1534535"><time>2022-10-29T09:29:15.890</time></trkpt><trkpt lat="55.7499110" lon="49.1534251"><time>2022-10-29T09:29:17.857</time></trkpt><trkpt lat="55.7499620" lon="49.1533772"><time>2022-10-29T09:29:20.883</time></trkpt><trkpt lat="55.7500073" lon="49.1533491"><time>2022-10-29T09:29:22.887</time></trkpt><trkpt lat="55.7500575" lon="49.1533262"><time>2022-10-29T09:29:24.890</time></trkpt><trkpt lat="55.7501033" lon="49.1533087"><time>2022-10-29T09:29:26.887</time></trkpt><trkpt lat="55.7501515" lon="49.1532877"><time>2022-10-29T09:29:29.860</time></trkpt><trkpt lat="55.7502044" lon="49.1533305"><time>2022-10-29T09:29:35.887</time></trkpt><trkpt lat="55.7502224" lon="49.1534130"><time>2022-10-29T09:29:38.887</time></trkpt><trkpt lat="55.7502330" lon="49.1535138"><time>2022-10-29T09:29:41.867</time></trkpt><trkpt lat="55.7502503" lon="49.1536177"><time>2022-10-29T09:29:44.857</time></trkpt><trkpt lat="55.7502783" lon="49.1537071"><time>2022-10-29T09:29:47.860</time></trkpt><trkpt lat="55.7503045" lon="49.1538028"><time>2022-10-29T09:29:50.883</time></trkpt><trkpt lat="55.7503297" lon="49.1538863"><time>2022-10-29T09:29:53.897</time></trkpt><trkpt lat="55.7503519" lon="49.1539570"><time>2022-10-29T09:29:56.893</time></trkpt><trkpt lat="55.7503819" lon="49.1540332"><time>2022-10-29T09:29:59.890</time></trkpt><trkpt lat="55.7504027" lon="49.1541392"><time>2022-10-29T09:30:03.900</time></trkpt><trkpt lat="55.7504016" lon="49.1542366"><time>2022-10-29T09:30:07.877</time></trkpt><trkpt lat="55.7504072" lon="49.1543418"><time>2022-10-29T09:30:10.867</time></trkpt><trkpt lat="55.7504254" lon="49.1544387"><time>2022-10-29T09:30:13.887</time></trkpt><trkpt lat="55.7504543" lon="49.1545276"><time>2022-10-29T09:30:16.887</time></trkpt><trkpt lat="55.7504898" lon="49.1545804"><time>2022-10-29T09:30:18.887</time></trkpt><trkpt lat="55.7505259" lon="49.1546472"><time>2022-10-29T09:30:20.883</time></trkpt><trkpt lat="55.7505545" lon="49.1547318"><time>2022-10-29T09:30:22.880</time></trkpt><trkpt lat="55.7505877" lon="49.1547880"><time>2022-10-29T09:30:24.890</time></trkpt><trkpt lat="55.7506394" lon="49.1547980"><time>2022-10-29T09:30:26.893</time></trkpt><trkpt lat="55.7506929" lon="49.1548059"><time>2022-10-29T09:30:28.883</time></trkpt><trkpt lat="55.7507377" lon="49.1548422"><time>2022-10-29T09:30:30.893</time></trkpt><trkpt lat="55.7507862" lon="49.1548840"><time>2022-10-29T09:30:32.887</time></trkpt><trkpt lat="55.7508327" lon="49.1549029"><time>2022-10-29T09:30:34.877</time></trkpt><trkpt lat="55.7508913" lon="49.1549226"><time>2022-10-29T09:30:37.880</time></trkpt><trkpt lat="55.7509410" lon="49.1549391"><time>2022-10-29T09:30:39.883</time></trkpt><trkpt lat="55.7510060" lon="49.1549355"><time>2022-10-29T09:30:42.887</time></trkpt><trkpt lat="55.7510578" lon="49.1549222"><time>2022-10-29T09:30:44.887</time></trkpt><trkpt lat="55.7511123" lon="49.1549101"><time>2022-10-29T09:30:46.887</time></trkpt><trkpt lat="55.7511701" lon="49.1548999"><time>2022-10-29T09:30:48.900</time></trkpt><trkpt lat="55.7512145" lon="49.1548863"><time>2022-10-29T09:30:50.880</time></trkpt><trkpt lat="55.7512725" lon="49.1548744"><time>2022-10-29T09:30:53.880</time></trkpt><trkpt lat="55.7513190" lon="49.1548965"><time>2022-10-29T09:30:55.877</time></trkpt><trkpt lat="55.7513591" lon="49.1549391"><time>2022-10-29T09:30:57.880</time></trkpt><trkpt lat="55.7514191" lon="49.1549545"><time>2022-10-29T09:31:00.857</time></trkpt><trkpt lat="55.7514626" lon="49.1549141"><time>2022-10-29T09:31:02.863</time></trkpt><trkpt lat="55.7515039" lon="49.1548720"><time>2022-10-29T09:31:04.860</time></trkpt><trkpt lat="55.7515551" lon="49.1548244"><time>2022-10-29T09:31:06.853</time></trkpt><trkpt lat="55.7516128" lon="49.1547736"><time>2022-10-29T09:31:08.877</time></trkpt><trkpt lat="55.7516702" lon="49.1547557"><time>2022-10-29T09:31:10.857</time></trkpt><trkpt lat="55.7517102" lon="49.1548162"><time>2022-10-29T09:31:12.887</time></trkpt><trkpt lat="55.7517256" lon="49.1548949"><time>2022-10-29T09:31:14.850</time></trkpt><trkpt lat="55.7517436" lon="49.1549916"><time>2022-10-29T09:31:16.857</time></trkpt><trkpt lat="55.7517639" lon="49.1551009"><time>2022-10-29T09:31:18.857</time></trkpt><trkpt lat="55.7517784" lon="49.1552011"><time>2022-10-29T09:31:20.873</time></trkpt><trkpt lat="55.7517993" lon="49.1552739"><time>2022-10-29T09:31:22.853</time></trkpt><trkpt lat="55.7518274" lon="49.1553612"><time>2022-10-29T09:31:25.887</time></trkpt><trkpt lat="55.7518119" lon="49.1554658"><time>2022-10-29T09:31:27.893</time></trkpt><trkpt lat="55.7517721" lon="49.1555637"><time>2022-10-29T09:31:29.877</time></trkpt><trkpt lat="55.7518132" lon="49.1555972"><time>2022-10-29T09:31:35.867</time></trkpt><trkpt lat="55.7518940" lon="49.1555921"><time>2022-10-29T09:31:37.883</time></trkpt><trkpt lat="55.7519644" lon="49.1555907"><time>2022-10-29T09:31:39.890</time></trkpt><trkpt lat="55.7520352" lon="49.1555650"><time>2022-10-29T09:31:41.863</time></trkpt><trkpt lat="55.7521025" lon="49.1555598"><time>2022-10-29T09:31:43.880</time></trkpt><trkpt lat="55.7521654" lon="49.1555568"><time>2022-10-29T09:31:45.890</time></trkpt><trkpt lat="55.7522459" lon="49.1555391"><time>2022-10-29T09:31:47.880</time></trkpt><trkpt lat="55.7522910" lon="49.1555277"><time>2022-10-29T09:31:48.890</time></trkpt><trkpt lat="55.7523668" lon="49.1555042"><time>2022-10-29T09:31:50.880</time></trkpt><trkpt lat="55.7524429" lon="49.1554827"><time>2022-10-29T09:31:52.893</time></trkpt><trkpt lat="55.7525231" lon="49.1555242"><time>2022-10-29T09:31:54.877</time></trkpt><trkpt lat="55.7525695" lon="49.1556287"><time>2022-10-29T09:31:56.887</time></trkpt><trkpt lat="55.7525850" lon="49.1557509"><time>2022-10-29T09:31:58.887</time></trkpt><trkpt lat="55.7525766" lon="49.1558837"><time>2022-10-29T09:32:00.893</time></trkpt><trkpt lat="55.7525597" lon="49.1560088"><time>2022-10-29T09:32:02.877</time></trkpt><trkpt lat="55.7525478" lon="49.1561151"><time>2022-10-29T09:32:04.887</time></trkpt><trkpt lat="55.7525422" lon="49.1562118"><time>2022-10-29T09:32:06.890</time></trkpt><trkpt lat="55.7525402" lon="49.1562988"><time>2022-10-29T09:32:08.893</time></trkpt><trkpt lat="55.7525440" lon="49.1563951"><time>2022-10-29T09:32:11.890</time></trkpt><trkpt lat="55.7525460" lon="49.1564794"><time>2022-10-29T09:32:14.883</time></trkpt><trkpt lat="55.7525465" lon="49.1565876"><time>2022-10-29T09:32:16.880</time></trkpt><trkpt lat="55.7525481" lon="49.1566827"><time>2022-10-29T09:32:18.883</time></trkpt><trkpt lat="55.7525502" lon="49.1567872"><time>2022-10-29T09:32:20.877</time></trkpt><trkpt lat="55.7525485" lon="49.1568938"><time>2022-10-29T09:32:22.880</time></trkpt><trkpt lat="55.7525660" lon="49.1570162"><time>2022-10-29T09:32:24.860</time></trkpt><trkpt lat="55.7526223" lon="49.1571267"><time>2022-10-29T09:32:26.867</time></trkpt><trkpt lat="55.7526734" lon="49.1571732"><time>2022-10-29T09:32:27.887</time></trkpt><trkpt lat="55.7527374" lon="49.1572377"><time>2022-10-29T09:32:29.860</time></trkpt><trkpt lat="55.7527854" lon="49.1572688"><time>2022-10-29T09:32:30.860</time></trkpt><trkpt lat="55.7528297" lon="49.1573114"><time>2022-10-29T09:32:31.860</time></trkpt><trkpt lat="55.7528801" lon="49.1573113"><time>2022-10-29T09:32:32.883</time></trkpt><trkpt lat="55.7529298" lon="49.1573365"><time>2022-10-29T09:32:33.883</time></trkpt><trkpt lat="55.7529827" lon="49.1573623"><time>2022-10-29T09:32:34.877</time></trkpt><trkpt lat="55.7530495" lon="49.1574192"><time>2022-10-29T09:32:35.887</time></trkpt><trkpt lat="55.7531272" lon="49.1575320"><time>2022-10-29T09:32:37.877</time></trkpt><trkpt lat="55.7531633" lon="49.1575965"><time>2022-10-29T09:32:38.880</time></trkpt><trkpt lat="55.7532156" lon="49.1577225"><time>2022-10-29T09:32:40.880</time></trkpt><trkpt lat="55.7532462" lon="49.1577955"><time>2022-10-29T09:32:41.877</time></trkpt><trkpt lat="55.7532744" lon="49.1578647"><time>2022-10-29T09:32:42.883</time></trkpt><trkpt lat="55.7533037" lon="49.1579346"><time>2022-10-29T09:32:43.887</time></trkpt><trkpt lat="55.7533279" lon="49.1580087"><time>2022-10-29T09:32:44.887</time></trkpt><trkpt lat="55.7533497" lon="49.1580889"><time>2022-10-29T09:32:45.883</time></trkpt><trkpt lat="55.7533827" lon="49.1582308"><time>2022-10-29T09:32:47.877</time></trkpt><trkpt lat="55.7534104" lon="49.1583734"><time>2022-10-29T09:32:49.883</time></trkpt><trkpt lat="55.7534360" lon="49.1585132"><time>2022-10-29T09:32:51.877</time></trkpt><trkpt lat="55.7534734" lon="49.1586429"><time>2022-10-29T09:32:53.883</time></trkpt><trkpt lat="55.7534994" lon="49.1587153"><time>2022-10-29T09:32:54.880</time></trkpt><trkpt lat="55.7535258" lon="49.1588457"><time>2022-10-29T09:32:56.857</time></trkpt><trkpt lat="55.7535580" lon="49.1589607"><time>2022-10-29T09:32:58.883</time></trkpt><trkpt lat="55.7536012" lon="49.1590808"><time>2022-10-29T09:33:00.887</time></trkpt><trkpt lat="55.7536457" lon="49.1592074"><time>2022-10-29T09:33:02.887</time></trkpt><trkpt lat="55.7536885" lon="49.1593277"><time>2022-10-29T09:33:04.860</time></trkpt><trkpt lat="55.7537354" lon="49.1594472"><time>2022-10-29T09:33:06.863</time></trkpt><trkpt lat="55.7537801" lon="49.1595775"><time>2022-10-29T09:33:08.893</time></trkpt><trkpt lat="55.7538007" lon="49.1596562"><time>2022-10-29T09:33:09.887</time></trkpt><trkpt lat="55.7538210" lon="49.1597363"><time>2022-10-29T09:33:10.880</time></trkpt><trkpt lat="55.7538412" lon="49.1598164"><time>2022-10-29T09:33:11.863</time></trkpt><trkpt lat="55.7538618" lon="49.1598971"><time>2022-10-29T09:33:12.867</time></trkpt><trkpt lat="55.7538835" lon="49.1599741"><time>2022-10-29T09:33:13.847</time></trkpt><trkpt lat="55.7539035" lon="49.1600505"><time>2022-10-29T09:33:14.890</time></trkpt><trkpt lat="55.7539222" lon="49.1601240"><time>2022-10-29T09:33:15.883</time></trkpt><trkpt lat="55.7539535" lon="49.1602549"><time>2022-10-29T09:33:17.910</time></trkpt><trkpt lat="55.7539306" lon="49.1603668"><time>2022-10-29T09:33:19.880</time></trkpt><trkpt lat="55.7538728" lon="49.1604144"><time>2022-10-29T09:33:21.883</time></trkpt><trkpt lat="55.7538141" lon="49.1604692"><time>2022-10-29T09:33:23.880</time></trkpt><trkpt lat="55.7537565" lon="49.1605453"><time>2022-10-29T09:33:25.883</time></trkpt><trkpt lat="55.7537127" lon="49.1605829"><time>2022-10-29T09:33:27.910</time></trkpt><trkpt lat="55.7536611" lon="49.1606283"><time>2022-10-29T09:33:31.910</time></trkpt><trkpt lat="55.7536110" lon="49.1606846"><time>2022-10-29T09:33:33.877</time></trkpt><trkpt lat="55.7535605" lon="49.1607503"><time>2022-10-29T09:33:35.883</time></trkpt><trkpt lat="55.7535095" lon="49.1608293"><time>2022-10-29T09:33:37.880</time></trkpt><trkpt lat="55.7534642" lon="49.1609028"><time>2022-10-29T09:33:39.887</time></trkpt><trkpt lat="55.7534320" lon="49.1609699"><time>2022-10-29T09:33:42.883</time></trkpt><trkpt lat="55.7534923" lon="49.1610285"><time>2022-10-29T09:34:22.860</time></trkpt><trkpt lat="55.7535498" lon="49.1609590"><time>2022-10-29T09:34:24.867</time></trkpt><trkpt lat="55.7535972" lon="49.1608656"><time>2022-10-29T09:34:26.887</time></trkpt><trkpt lat="55.7536453" lon="49.1607908"><time>2022-10-29T09:34:28.863</time></trkpt><trkpt lat="55.7537400" lon="49.1606533"><time>2022-10-29T09:34:30.867</time></trkpt><trkpt lat="55.7538273" lon="49.1605403"><time>2022-10-29T09:34:32.867</time></trkpt><trkpt lat="55.7538670" lon="49.1604922"><time>2022-10-29T09:34:33.887</time></trkpt><trkpt lat="55.7538459" lon="49.1604191"><time>2022-10-29T09:34:35.857</time></trkpt><trkpt lat="55.7537958" lon="49.1605109"><time>2022-10-29T09:34:41.860</time></trkpt><trkpt lat="55.7537876" lon="49.1605914"><time>2022-10-29T09:34:48.863</time></trkpt><trkpt lat="55.7540744" lon="49.1609126"><time>2022-10-29T09:34:56.873</time></trkpt><trkpt lat="55.7540385" lon="49.1609746"><time>2022-10-29T09:34:57.860</time></trkpt><trkpt lat="55.7539984" lon="49.1610163"><time>2022-10-29T09:34:58.890</time></trkpt><trkpt lat="55.7539509" lon="49.1610224"><time>2022-10-29T09:35:15.890</time></trkpt><trkpt lat="55.7538994" lon="49.1610728"><time>2022-10-29T09:35:19.893</time></trkpt><trkpt lat="55.7538683" lon="49.1611453"><time>2022-10-29T09:35:22.863</time></trkpt><trkpt lat="55.7538220" lon="49.1612241"><time>2022-10-29T09:35:25.867</time></trkpt><trkpt lat="55.7537920" lon="49.1612974"><time>2022-10-29T09:35:27.887</time></trkpt><trkpt lat="55.7537611" lon="49.1613578"><time>2022-10-29T09:35:29.887</time></trkpt><trkpt lat="55.7537052" lon="49.1614120"><time>2022-10-29T09:35:32.867</time></trkpt><trkpt lat="55.7536494" lon="49.1614484"><time>2022-10-29T09:35:34.877</time></trkpt><trkpt lat="55.7535951" lon="49.1615238"><time>2022-10-29T09:35:36.883</time></trkpt><trkpt lat="55.7535507" lon="49.1616022"><time>2022-10-29T09:35:38.890</time></trkpt><trkpt lat="55.7534926" lon="49.1616823"><time>2022-10-29T09:35:40.890</time></trkpt><trkpt lat="55.7534263" lon="49.1617547"><time>2022-10-29T09:35:42.887</time></trkpt><trkpt lat="55.7533727" lon="49.1618389"><time>2022-10-29T09:35:44.883</time></trkpt><trkpt lat="55.7533223" lon="49.1619333"><time>2022-10-29T09:35:46.887</time></trkpt><trkpt lat="55.7532729" lon="49.1620232"><time>2022-10-29T09:35:48.897</time></trkpt><trkpt lat="55.7532161" lon="49.1621121"><time>2022-10-29T09:35:50.890</time></trkpt><trkpt lat="55.7531605" lon="49.1621901"><time>2022-10-29T09:35:52.890</time></trkpt><trkpt lat="55.7531047" lon="49.1622804"><time>2022-10-29T09:35:54.883</time></trkpt><trkpt lat="55.7530511" lon="49.1623475"><time>2022-10-29T09:35:56.890</time></trkpt><trkpt lat="55.7529922" lon="49.1624112"><time>2022-10-29T09:35:58.863</time></trkpt><trkpt lat="55.7529405" lon="49.1624781"><time>2022-10-29T09:36:00.880</time></trkpt><trkpt lat="55.7528987" lon="49.1625400"><time>2022-10-29T09:36:02.897</time></trkpt><trkpt lat="55.7528581" lon="49.1626525"><time>2022-10-29T09:36:04.897</time></trkpt><trkpt lat="55.7528453" lon="49.1627762"><time>2022-10-29T09:36:06.890</time></trkpt><trkpt lat="55.7528257" lon="49.1628826"><time>2022-10-29T09:36:08.897</time></trkpt><trkpt lat="55.7527785" lon="49.1629604"><time>2022-10-29T09:36:10.890</time></trkpt><trkpt lat="55.7527487" lon="49.1630420"><time>2022-10-29T09:36:12.887</time></trkpt><trkpt lat="55.7527344" lon="49.1631596"><time>2022-10-29T09:36:14.867</time></trkpt><trkpt lat="55.7527192" lon="49.1632775"><time>2022-10-29T09:36:16.887</time></trkpt><trkpt lat="55.7527034" lon="49.1633908"><time>2022-10-29T09:36:18.863</time></trkpt><trkpt lat="55.7526822" lon="49.1635153"><time>2022-10-29T09:36:20.920</time></trkpt><trkpt lat="55.7526748" lon="49.1636379"><time>2022-10-29T09:36:22.890</time></trkpt><trkpt lat="55.7526759" lon="49.1637610"><time>2022-10-29T09:36:24.853</time></trkpt><trkpt lat="55.7526670" lon="49.1638717"><time>2022-10-29T09:36:26.853</time></trkpt><trkpt lat="55.7526524" lon="49.1639723"><time>2022-10-29T09:36:28.877</time></trkpt><trkpt lat="55.7526735" lon="49.1640684"><time>2022-10-29T09:36:35.883</time></trkpt><trkpt lat="55.7526987" lon="49.1641478"><time>2022-10-29T09:36:39.900</time></trkpt><trkpt lat="55.7527238" lon="49.1642175"><time>2022-10-29T09:36:42.887</time></trkpt><trkpt lat="55.7527473" lon="49.1643171"><time>2022-10-29T09:36:45.893</time></trkpt><trkpt lat="55.7527145" lon="49.1644088"><time>2022-10-29T09:36:48.883</time></trkpt><trkpt lat="55.7526662" lon="49.1644860"><time>2022-10-29T09:36:50.897</time></trkpt><trkpt lat="55.7526359" lon="49.1645866"><time>2022-10-29T09:36:52.887</time></trkpt><trkpt lat="55.7526357" lon="49.1646881"><time>2022-10-29T09:36:54.887</time></trkpt><trkpt lat="55.7526438" lon="49.1647971"><time>2022-10-29T09:36:57.887</time></trkpt><trkpt lat="55.7525923" lon="49.1648636"><time>2022-10-29T09:37:00.890</time></trkpt><trkpt lat="55.7525445" lon="49.1648612"><time>2022-10-29T09:37:02.883</time></trkpt><trkpt lat="55.7524929" lon="49.1648480"><time>2022-10-29T09:37:05.887</time></trkpt><trkpt lat="55.7524478" lon="49.1648593"><time>2022-10-29T09:37:11.883</time></trkpt><trkpt lat="55.7524080" lon="49.1648161"><time>2022-10-29T09:37:14.890</time></trkpt><trkpt lat="55.7523594" lon="49.1648251"><time>2022-10-29T09:37:17.890</time></trkpt><trkpt lat="55.7523109" lon="49.1648724"><time>2022-10-29T09:37:19.890</time></trkpt><trkpt lat="55.7522577" lon="49.1649113"><time>2022-10-29T09:37:21.887</time></trkpt><trkpt lat="55.7522078" lon="49.1649337"><time>2022-10-29T09:37:23.887</time></trkpt><trkpt lat="55.7521563" lon="49.1649420"><time>2022-10-29T09:37:25.887</time></trkpt><trkpt lat="55.7521106" lon="49.1649469"><time>2022-10-29T09:37:27.887</time></trkpt><trkpt lat="55.7520546" lon="49.1649437"><time>2022-10-29T09:37:30.887</time></trkpt><trkpt lat="55.7520072" lon="49.1649348"><time>2022-10-29T09:37:33.880</time></trkpt><trkpt lat="55.7519553" lon="49.1649286"><time>2022-10-29T09:37:36.897</time></trkpt><trkpt lat="55.7519071" lon="49.1649253"><time>2022-10-29T09:37:39.890</time></trkpt><trkpt lat="55.7518618" lon="49.1649126"><time>2022-10-29T09:37:43.897</time></trkpt><trkpt lat="55.7518120" lon="49.1648912"><time>2022-10-29T09:37:47.927</time></trkpt><trkpt lat="55.7515822" lon="49.1667322"><time>2022-10-29T09:39:19.867</time></trkpt><trkpt lat="55.7515337" lon="49.1667282"><time>2022-10-29T09:39:40.890</time></trkpt><trkpt lat="55.7514864" lon="49.1667666"><time>2022-10-29T09:39:50.903</time></trkpt><trkpt lat="55.7514516" lon="49.1668236"><time>2022-10-29T09:39:54.920</time></trkpt><trkpt lat="55.7514334" lon="49.1668362"><time>2022-10-29T09:39:56.020</time></trkpt><trkpt lat="55.7513929" lon="49.1668853"><time>2022-10-29T09:40:02.863</time></trkpt><trkpt lat="55.7513513" lon="49.1669255"><time>2022-10-29T09:40:07.880</time></trkpt><trkpt lat="55.7513040" lon="49.1669628"><time>2022-10-29T09:40:12.873</time></trkpt><trkpt lat="55.7512742" lon="49.1670416"><time>2022-10-29T09:40:17.860</time></trkpt><trkpt lat="55.7512221" lon="49.1670851"><time>2022-10-29T09:40:21.870</time></trkpt><trkpt lat="55.7511769" lon="49.1670981"><time>2022-10-29T09:40:24.867</time></trkpt><trkpt lat="55.7511252" lon="49.1671104"><time>2022-10-29T09:40:27.863</time></trkpt><trkpt lat="55.7510764" lon="49.1671215"><time>2022-10-29T09:40:31.867</time></trkpt><trkpt lat="55.7510291" lon="49.1671497"><time>2022-10-29T09:40:35.903</time></trkpt><trkpt lat="55.7510221" lon="49.1671512"><time>2022-10-29T09:40:36.920</time></trkpt><trkpt lat="55.7509740" lon="49.1671596"><time>2022-10-29T09:40:39.887</time></trkpt><trkpt lat="55.7509287" lon="49.1671657"><time>2022-10-29T09:40:42.893</time></trkpt><trkpt lat="55.7508801" lon="49.1671713"><time>2022-10-29T09:40:45.897</time></trkpt><trkpt lat="55.7508319" lon="49.1671764"><time>2022-10-29T09:40:48.887</time></trkpt><trkpt lat="55.7507801" lon="49.1671818"><time>2022-10-29T09:40:51.870</time></trkpt><trkpt lat="55.7507334" lon="49.1671911"><time>2022-10-29T09:40:54.963</time></trkpt><trkpt lat="55.7507334" lon="49.1671911"><time>2022-10-29T09:40:55.790</time></trkpt><trkpt lat="55.7506972" lon="49.1672388"><time>2022-10-29T09:41:02.897</time></trkpt><trkpt lat="55.7506959" lon="49.1672382"><time>2022-10-29T09:41:03.823</time></trkpt><trkpt lat="55.7507396" lon="49.1672115"><time>2022-10-29T09:41:10.857</time></trkpt><trkpt lat="55.7507909" lon="49.1672008"><time>2022-10-29T09:41:14.847</time></trkpt><trkpt lat="55.7508457" lon="49.1671924"><time>2022-10-29T09:41:18.847</time></trkpt><trkpt lat="55.7509028" lon="49.1671805"><time>2022-10-29T09:41:22.877</time></trkpt><trkpt lat="55.7509507" lon="49.1671716"><time>2022-10-29T09:41:25.863</time></trkpt><trkpt lat="55.7510106" lon="49.1671587"><time>2022-10-29T09:41:29.870</time></trkpt><trkpt lat="55.7510717" lon="49.1671470"><time>2022-10-29T09:41:33.860</time></trkpt><trkpt lat="55.7511240" lon="49.1671355"><time>2022-10-29T09:41:36.867</time></trkpt><trkpt lat="55.7511871" lon="49.1671230"><time>2022-10-29T09:41:40.857</time></trkpt><trkpt lat="55.7512334" lon="49.1671101"><time>2022-10-29T09:41:44.863</time></trkpt><trkpt lat="55.7512665" lon="49.1670474"><time>2022-10-29T09:41:53.893</time></trkpt><trkpt lat="55.7513154" lon="49.1670276"><time>2022-10-29T09:42:00.880</time></trkpt><trkpt lat="55.7513659" lon="49.1669993"><time>2022-10-29T09:42:10.860</time></trkpt><trkpt lat="55.7514148" lon="49.1669794"><time>2022-10-29T09:42:18.867</time></trkpt><trkpt lat="55.7514586" lon="49.1669341"><time>2022-10-29T09:42:24.857</time></trkpt><trkpt lat="55.7515125" lon="49.1668753"><time>2022-10-29T09:42:29.867</time></trkpt><trkpt lat="55.7515503" lon="49.1668283"><time>2022-10-29T09:42:36.883</time></trkpt><trkpt lat="55.7515634" lon="49.1667423"><time>2022-10-29T09:42:52.870</time></trkpt><trkpt lat="55.7515906" lon="49.1666715"><time>2022-10-29T09:44:23.883</time></trkpt><trkpt lat="55.7516357" lon="49.1666659"><time>2022-10-29T09:44:42.883</time></trkpt><trkpt lat="55.7516837" lon="49.1666324"><time>2022-10-29T09:44:49.897</time></trkpt><trkpt lat="55.7517246" lon="49.1665537"><time>2022-10-29T09:44:52.887</time></trkpt><trkpt lat="55.7517366" lon="49.1664655"><time>2022-10-29T09:44:54.887</time></trkpt><trkpt lat="55.7517545" lon="49.1663767"><time>2022-10-29T09:44:56.883</time></trkpt><trkpt lat="55.7517876" lon="49.1662985"><time>2022-10-29T09:44:58.887</time></trkpt><trkpt lat="55.7518213" lon="49.1661946"><time>2022-10-29T09:45:00.887</time></trkpt><trkpt lat="55.7518327" lon="49.1660551"><time>2022-10-29T09:45:02.887</time></trkpt><trkpt lat="55.7518367" lon="49.1659078"><time>2022-10-29T09:45:04.887</time></trkpt><trkpt lat="55.7518416" lon="49.1657770"><time>2022-10-29T09:45:06.887</time></trkpt><trkpt lat="55.7518488" lon="49.1656349"><time>2022-10-29T09:45:08.890</time></trkpt><trkpt lat="55.7518584" lon="49.1655021"><time>2022-10-29T09:45:10.907</time></trkpt><trkpt lat="55.7518619" lon="49.1653572"><time>2022-10-29T09:45:12.857</time></trkpt><trkpt lat="55.7518590" lon="49.1652271"><time>2022-10-29T09:45:14.863</time></trkpt><trkpt lat="55.7518390" lon="49.1651013"><time>2022-10-29T09:45:16.863</time></trkpt><trkpt lat="55.7518068" lon="49.1649976"><time>2022-10-29T09:45:18.867</time></trkpt><trkpt lat="55.7517722" lon="49.1648890"><time>2022-10-29T09:45:20.863</time></trkpt><trkpt lat="55.7517758" lon="49.1648094"><time>2022-10-29T09:45:30.020</time></trkpt><trkpt lat="55.7518215" lon="49.1648126"><time>2022-10-29T09:45:32.877</time></trkpt><trkpt lat="55.7518661" lon="49.1648423"><time>2022-10-29T09:45:35.900</time></trkpt><trkpt lat="55.7519147" lon="49.1648895"><time>2022-10-29T09:45:38.890</time></trkpt><trkpt lat="55.7519612" lon="49.1649078"><time>2022-10-29T09:45:41.893</time></trkpt><trkpt lat="55.7520061" lon="49.1649039"><time>2022-10-29T09:45:44.893</time></trkpt><trkpt lat="55.7520644" lon="49.1649189"><time>2022-10-29T09:45:47.897</time></trkpt><trkpt lat="55.7521167" lon="49.1649259"><time>2022-10-29T09:45:50.890</time></trkpt><trkpt lat="55.7521717" lon="49.1649323"><time>2022-10-29T09:45:53.890</time></trkpt><trkpt lat="55.7522320" lon="49.1649250"><time>2022-10-29T09:45:55.893</time></trkpt><trkpt lat="55.7522857" lon="49.1648955"><time>2022-10-29T09:45:57.883</time></trkpt><trkpt lat="55.7523339" lon="49.1648662"><time>2022-10-29T09:45:59.857</time></trkpt><trkpt lat="55.7523811" lon="49.1648355"><time>2022-10-29T09:46:01.863</time></trkpt><trkpt lat="55.7524328" lon="49.1647909"><time>2022-10-29T09:46:05.870</time></trkpt><trkpt lat="55.7524902" lon="49.1648052"><time>2022-10-29T09:46:08.867</time></trkpt><trkpt lat="55.7525370" lon="49.1648474"><time>2022-10-29T09:46:11.883</time></trkpt><trkpt lat="55.7525927" lon="49.1648562"><time>2022-10-29T09:46:18.863</time></trkpt><trkpt lat="55.7526638" lon="49.1648280"><time>2022-10-29T09:46:20.863</time></trkpt><trkpt lat="55.7527122" lon="49.1648910"><time>2022-10-29T09:46:22.887</time></trkpt><trkpt lat="55.7527193" lon="49.1650119"><time>2022-10-29T09:46:24.890</time></trkpt><trkpt lat="55.7527201" lon="49.1651144"><time>2022-10-29T09:46:26.890</time></trkpt><trkpt lat="55.7527297" lon="49.1652029"><time>2022-10-29T09:46:38.890</time></trkpt><trkpt lat="55.7527609" lon="49.1652645"><time>2022-10-29T09:46:45.860</time></trkpt><trkpt lat="55.7527971" lon="49.1653185"><time>2022-10-29T09:46:50.863</time></trkpt><trkpt lat="55.7528315" lon="49.1653904"><time>2022-10-29T09:46:55.890</time></trkpt><trkpt lat="55.7528664" lon="49.1654606"><time>2022-10-29T09:46:59.887</time></trkpt><trkpt lat="55.7528990" lon="49.1655281"><time>2022-10-29T09:47:04.890</time></trkpt><trkpt lat="55.7529343" lon="49.1655961"><time>2022-10-29T09:47:10.887</time></trkpt><trkpt lat="55.7529699" lon="49.1656573"><time>2022-10-29T09:47:15.887</time></trkpt><trkpt lat="55.7530012" lon="49.1657167"><time>2022-10-29T09:47:19.890</time></trkpt><trkpt lat="55.7530346" lon="49.1657711"><time>2022-10-29T09:47:23.887</time></trkpt><trkpt lat="55.7530711" lon="49.1658265"><time>2022-10-29T09:47:27.853</time></trkpt><trkpt lat="55.7531046" lon="49.1658914"><time>2022-10-29T09:47:32.883</time></trkpt><trkpt lat="55.7531339" lon="49.1659595"><time>2022-10-29T09:47:37.867</time></trkpt><trkpt lat="55.7531731" lon="49.1660276"><time>2022-10-29T09:47:42.873</time></trkpt><trkpt lat="55.7532116" lon="49.1660842"><time>2022-10-29T09:47:46.857</time></trkpt><trkpt lat="55.7532418" lon="49.1661530"><time>2022-10-29T09:47:50.890</time></trkpt><trkpt lat="55.7532704" lon="49.1662168"><time>2022-10-29T09:47:54.867</time></trkpt><trkpt lat="55.7533053" lon="49.1662857"><time>2022-10-29T09:47:59.887</time></trkpt><trkpt lat="55.7533362" lon="49.1663559"><time>2022-10-29T09:48:03.887</time></trkpt><trkpt lat="55.7533759" lon="49.1664209"><time>2022-10-29T09:48:08.900</time></trkpt><trkpt lat="55.7534160" lon="49.1664818"><time>2022-10-29T09:48:12.883</time></trkpt><trkpt lat="55.7534408" lon="49.1665573"><time>2022-10-29T09:48:16.857</time></trkpt><trkpt lat="55.7534668" lon="49.1666502"><time>2022-10-29T09:48:21.867</time></trkpt><trkpt lat="55.7534917" lon="49.1667230"><time>2022-10-29T09:48:25.870</time></trkpt><trkpt lat="55.7535169" lon="49.1667904"><time>2022-10-29T09:48:29.877</time></trkpt><trkpt lat="55.7535402" lon="49.1668796"><time>2022-10-29T09:48:34.877</time></trkpt><trkpt lat="55.7535488" lon="49.1669625"><time>2022-10-29T09:48:38.880</time></trkpt><trkpt lat="55.7535567" lon="49.1670634"><time>2022-10-29T09:48:42.877</time></trkpt><trkpt lat="55.7535686" lon="49.1671577"><time>2022-10-29T09:48:46.873</time></trkpt><trkpt lat="55.7535852" lon="49.1672451"><time>2022-10-29T09:48:50.880</time></trkpt><trkpt lat="55.7535907" lon="49.1673337"><time>2022-10-29T09:48:55.883</time></trkpt><trkpt lat="55.7535644" lon="49.1674273"><time>2022-10-29T09:49:14.870</time></trkpt><trkpt lat="55.7535671" lon="49.1675249"><time>2022-10-29T09:49:16.877</time></trkpt><trkpt lat="55.7535734" lon="49.1676198"><time>2022-10-29T09:49:18.873</time></trkpt><trkpt lat="55.7535794" lon="49.1677077"><time>2022-10-29T09:49:20.863</time></trkpt><trkpt lat="55.7535874" lon="49.1678075"><time>2022-10-29T09:49:22.863</time></trkpt><trkpt lat="55.7536116" lon="49.1679143"><time>2022-10-29T09:49:24.877</time></trkpt><trkpt lat="55.7536596" lon="49.1680154"><time>2022-10-29T09:49:26.880</time></trkpt><trkpt lat="55.7537287" lon="49.1680799"><time>2022-10-29T09:49:28.877</time></trkpt><trkpt lat="55.7537851" lon="49.1681108"><time>2022-10-29T09:49:30.873</time></trkpt><trkpt lat="55.7538460" lon="49.1681579"><time>2022-10-29T09:49:32.880</time></trkpt><trkpt lat="55.7539096" lon="49.1681915"><time>2022-10-29T09:49:34.857</time></trkpt><trkpt lat="55.7539550" lon="49.1682266"><time>2022-10-29T09:49:36.887</time></trkpt><trkpt lat="55.7540097" lon="49.1682708"><time>2022-10-29T09:49:38.880</time></trkpt><trkpt lat="55.7540612" lon="49.1683126"><time>2022-10-29T09:49:40.877</time></trkpt><trkpt lat="55.7541114" lon="49.1683743"><time>2022-10-29T09:49:44.863</time></trkpt><trkpt lat="55.7541654" lon="49.1684172"><time>2022-10-29T09:49:47.887</time></trkpt><trkpt lat="55.7542219" lon="49.1684626"><time>2022-10-29T09:49:49.867</time></trkpt><trkpt lat="55.7542828" lon="49.1685219"><time>2022-10-29T09:49:51.873</time></trkpt><trkpt lat="55.7543476" lon="49.1685804"><time>2022-10-29T09:49:53.877</time></trkpt><trkpt lat="55.7544040" lon="49.1686460"><time>2022-10-29T09:49:55.873</time></trkpt><trkpt lat="55.7544524" lon="49.1686912"><time>2022-10-29T09:49:57.883</time></trkpt><trkpt lat="55.7545060" lon="49.1687505"><time>2022-10-29T09:49:59.883</time></trkpt><trkpt lat="55.7545566" lon="49.1688188"><time>2022-10-29T09:50:01.877</time></trkpt><trkpt lat="55.7545975" lon="49.1688729"><time>2022-10-29T09:50:03.863</time></trkpt><trkpt lat="55.7546656" lon="49.1689471"><time>2022-10-29T09:50:05.870</time></trkpt><trkpt lat="55.7547255" lon="49.1690009"><time>2022-10-29T09:50:07.867</time></trkpt><trkpt lat="55.7547779" lon="49.1690425"><time>2022-10-29T09:50:09.883</time></trkpt><trkpt lat="55.7548321" lon="49.1691047"><time>2022-10-29T09:50:11.873</time></trkpt><trkpt lat="55.7548809" lon="49.1691683"><time>2022-10-29T09:50:13.880</time></trkpt><trkpt lat="55.7549227" lon="49.1692331"><time>2022-10-29T09:50:15.887</time></trkpt><trkpt lat="55.7549704" lon="49.1692899"><time>2022-10-29T09:50:17.870</time></trkpt><trkpt lat="55.7550095" lon="49.1693767"><time>2022-10-29T09:50:20.883</time></trkpt><trkpt lat="55.7549845" lon="49.1694908"><time>2022-10-29T09:50:22.867</time></trkpt><trkpt lat="55.7549382" lon="49.1695790"><time>2022-10-29T09:50:24.883</time></trkpt><trkpt lat="55.7548928" lon="49.1696523"><time>2022-10-29T09:50:27.877</time></trkpt><trkpt lat="55.7548602" lon="49.1697097"><time>2022-10-29T09:50:32.870</time></trkpt><trkpt lat="55.7548425" lon="49.1697877"><time>2022-10-29T09:50:48.873</time></trkpt><trkpt lat="55.7548540" lon="49.1698771"><time>2022-10-29T09:50:50.890</time></trkpt><trkpt lat="55.7549144" lon="49.1699442"><time>2022-10-29T09:50:52.880</time></trkpt><trkpt lat="55.7549849" lon="49.1700020"><time>2022-10-29T09:50:54.880</time></trkpt><trkpt lat="55.7550612" lon="49.1700599"><time>2022-10-29T09:50:56.883</time></trkpt><trkpt lat="55.7551344" lon="49.1701142"><time>2022-10-29T09:50:58.867</time></trkpt><trkpt lat="55.7552074" lon="49.1701774"><time>2022-10-29T09:51:00.883</time></trkpt><trkpt lat="55.7552711" lon="49.1702254"><time>2022-10-29T09:51:02.887</time></trkpt><trkpt lat="55.7553137" lon="49.1702598"><time>2022-10-29T09:51:04.870</time></trkpt><trkpt lat="55.7553214" lon="49.1703536"><time>2022-10-29T09:51:07.880</time></trkpt><trkpt lat="55.7553313" lon="49.1704382"><time>2022-10-29T09:51:09.877</time></trkpt><trkpt lat="55.7553797" lon="49.1704890"><time>2022-10-29T09:51:11.883</time></trkpt><trkpt lat="55.7554254" lon="49.1705221"><time>2022-10-29T09:51:13.883</time></trkpt><trkpt lat="55.7554704" lon="49.1705658"><time>2022-10-29T09:51:15.870</time></trkpt><trkpt lat="55.7555199" lon="49.1706158"><time>2022-10-29T09:51:17.880</time></trkpt><trkpt lat="55.7555615" lon="49.1706547"><time>2022-10-29T09:51:19.873</time></trkpt><trkpt lat="55.7556061" lon="49.1707096"><time>2022-10-29T09:51:21.880</time></trkpt><trkpt lat="55.7556574" lon="49.1707473"><time>2022-10-29T09:51:23.880</time></trkpt><trkpt lat="55.7557143" lon="49.1708075"><time>2022-10-29T09:51:25.877</time></trkpt><trkpt lat="55.7557640" lon="49.1708894"><time>2022-10-29T09:51:27.893</time></trkpt><trkpt lat="55.7558169" lon="49.1709705"><time>2022-10-29T09:51:29.877</time></trkpt><trkpt lat="55.7558691" lon="49.1710399"><time>2022-10-29T09:51:31.877</time></trkpt><trkpt lat="55.7559063" lon="49.1711091"><time>2022-10-29T09:51:33.883</time></trkpt><trkpt lat="55.7559564" lon="49.1711937"><time>2022-10-29T09:51:35.877</time></trkpt><trkpt lat="55.7560170" lon="49.1712873"><time>2022-10-29T09:51:37.883</time></trkpt><trkpt lat="55.7560649" lon="49.1713500"><time>2022-10-29T09:51:39.880</time></trkpt><trkpt lat="55.7561124" lon="49.1713850"><time>2022-10-29T09:51:41.873</time></trkpt><trkpt lat="55.7561785" lon="49.1713909"><time>2022-10-29T09:51:43.887</time></trkpt><trkpt lat="55.7562380" lon="49.1713753"><time>2022-10-29T09:51:45.873</time></trkpt><trkpt lat="55.7563038" lon="49.1713894"><time>2022-10-29T09:51:47.863</time></trkpt><trkpt lat="55.7563718" lon="49.1714427"><time>2022-10-29T09:51:49.883</time></trkpt><trkpt lat="55.7564389" lon="49.1715341"><time>2022-10-29T09:51:51.873</time></trkpt><trkpt lat="55.7565029" lon="49.1715889"><time>2022-10-29T09:51:53.887</time></trkpt><trkpt lat="55.7565761" lon="49.1716376"><time>2022-10-29T09:51:55.883</time></trkpt><trkpt lat="55.7566470" lon="49.1717042"><time>2022-10-29T09:51:57.873</time></trkpt><trkpt lat="55.7567043" lon="49.1717754"><time>2022-10-29T09:51:59.883</time></trkpt><trkpt lat="55.7567546" lon="49.1718384"><time>2022-10-29T09:52:01.873</time></trkpt><trkpt lat="55.7568059" lon="49.1718845"><time>2022-10-29T09:52:03.883</time></trkpt><trkpt lat="55.7568684" lon="49.1718878"><time>2022-10-29T09:52:05.880</time></trkpt><trkpt lat="55.7569497" lon="49.1718893"><time>2022-10-29T09:52:07.863</time></trkpt><trkpt lat="55.7570074" lon="49.1719213"><time>2022-10-29T09:52:09.880</time></trkpt><trkpt lat="55.7570598" lon="49.1719777"><time>2022-10-29T09:52:11.880</time></trkpt><trkpt lat="55.7571202" lon="49.1720537"><time>2022-10-29T09:52:13.873</time></trkpt><trkpt lat="55.7571752" lon="49.1721243"><time>2022-10-29T09:52:15.887</time></trkpt><trkpt lat="55.7572310" lon="49.1721903"><time>2022-10-29T09:52:17.877</time></trkpt><trkpt lat="55.7572780" lon="49.1722499"><time>2022-10-29T09:52:19.880</time></trkpt><trkpt lat="55.7573342" lon="49.1723138"><time>2022-10-29T09:52:21.870</time></trkpt><trkpt lat="55.7574017" lon="49.1723704"><time>2022-10-29T09:52:23.873</time></trkpt><trkpt lat="55.7574513" lon="49.1724132"><time>2022-10-29T09:52:25.877</time></trkpt><trkpt lat="55.7575142" lon="49.1724681"><time>2022-10-29T09:52:27.877</time></trkpt><trkpt lat="55.7575674" lon="49.1725204"><time>2022-10-29T09:52:29.873</time></trkpt><trkpt lat="55.7576243" lon="49.1725886"><time>2022-10-29T09:52:31.863</time></trkpt><trkpt lat="55.7576829" lon="49.1726536"><time>2022-10-29T09:52:33.900</time></trkpt><trkpt lat="55.7577125" lon="49.1726789"><time>2022-10-29T09:52:34.867</time></trkpt><trkpt lat="55.7577639" lon="49.1727176"><time>2022-10-29T09:52:36.873</time></trkpt><trkpt lat="55.7578056" lon="49.1727553"><time>2022-10-29T09:52:38.867</time></trkpt><trkpt lat="55.7578742" lon="49.1728193"><time>2022-10-29T09:52:40.887</time></trkpt><trkpt lat="55.7579282" lon="49.1728717"><time>2022-10-29T09:52:42.883</time></trkpt><trkpt lat="55.7579852" lon="49.1729319"><time>2022-10-29T09:52:44.877</time></trkpt><trkpt lat="55.7580464" lon="49.1729879"><time>2022-10-29T09:52:46.880</time></trkpt><trkpt lat="55.7581069" lon="49.1730437"><time>2022-10-29T09:52:48.883</time></trkpt><trkpt lat="55.7581677" lon="49.1731060"><time>2022-10-29T09:52:50.867</time></trkpt><trkpt lat="55.7582103" lon="49.1731538"><time>2022-10-29T09:52:52.887</time></trkpt><trkpt lat="55.7582516" lon="49.1732025"><time>2022-10-29T09:52:54.870</time></trkpt><trkpt lat="55.7583027" lon="49.1732652"><time>2022-10-29T09:52:56.890</time></trkpt><trkpt lat="55.7583599" lon="49.1733217"><time>2022-10-29T09:52:58.863</time></trkpt><trkpt lat="55.7584410" lon="49.1733786"><time>2022-10-29T09:53:00.867</time></trkpt><trkpt lat="55.7585032" lon="49.1734319"><time>2022-10-29T09:53:02.917</time></trkpt><trkpt lat="55.7585284" lon="49.1734576"><time>2022-10-29T09:53:03.883</time></trkpt><trkpt lat="55.7585819" lon="49.1735187"><time>2022-10-29T09:53:05.877</time></trkpt><trkpt lat="55.7586399" lon="49.1735885"><time>2022-10-29T09:53:07.880</time></trkpt><trkpt lat="55.7587049" lon="49.1736589"><time>2022-10-29T09:53:09.880</time></trkpt><trkpt lat="55.7587678" lon="49.1737107"><time>2022-10-29T09:53:11.877</time></trkpt><trkpt lat="55.7588321" lon="49.1737642"><time>2022-10-29T09:53:13.880</time></trkpt><trkpt lat="55.7589009" lon="49.1738330"><time>2022-10-29T09:53:15.890</time></trkpt><trkpt lat="55.7589295" lon="49.1738610"><time>2022-10-29T09:53:16.877</time></trkpt><trkpt lat="55.7589890" lon="49.1739149"><time>2022-10-29T09:53:18.870</time></trkpt><trkpt lat="55.7590438" lon="49.1739602"><time>2022-10-29T09:53:20.873</time></trkpt><trkpt lat="55.7590881" lon="49.1739808"><time>2022-10-29T09:53:22.880</time></trkpt><trkpt lat="55.7591365" lon="49.1740160"><time>2022-10-29T09:53:25.857</time></trkpt><trkpt lat="55.7591438" lon="49.1740968"><time>2022-10-29T09:53:32.890</time></trkpt><trkpt lat="55.7591698" lon="49.1740128"><time>2022-10-29T09:53:36.867</time></trkpt><trkpt lat="55.7591981" lon="49.1739262"><time>2022-10-29T09:53:40.910</time></trkpt><trkpt lat="55.7591981" lon="49.1739262"><time>2022-10-29T09:53:41.047</time></trkpt><trkpt lat="55.7591551" lon="49.1739535"><time>2022-10-29T09:53:51.920</time></trkpt><trkpt lat="55.7591641" lon="49.1739512"><time>2022-10-29T09:53:53.053</time></trkpt><trkpt lat="55.7591784" lon="49.1740335"><time>2022-10-29T09:53:57.853</time></trkpt><trkpt lat="55.7592236" lon="49.1740945"><time>2022-10-29T09:54:01.867</time></trkpt><trkpt lat="55.7592632" lon="49.1741653"><time>2022-10-29T09:54:21.870</time></trkpt><trkpt lat="55.7593115" lon="49.1742323"><time>2022-10-29T09:54:24.863</time></trkpt><trkpt lat="55.7593428" lon="49.1742973"><time>2022-10-29T09:54:26.863</time></trkpt><trkpt lat="55.7593668" lon="49.1743693"><time>2022-10-29T09:54:28.863</time></trkpt><trkpt lat="55.7593941" lon="49.1744484"><time>2022-10-29T09:54:31.887</time></trkpt><trkpt lat="55.7594172" lon="49.1745260"><time>2022-10-29T09:54:34.887</time></trkpt><trkpt lat="55.7594413" lon="49.1745943"><time>2022-10-29T09:54:39.893</time></trkpt><trkpt lat="55.7594760" lon="49.1746517"><time>2022-10-29T09:55:17.887</time></trkpt><trkpt lat="55.7595108" lon="49.1747217"><time>2022-10-29T09:55:20.887</time></trkpt><trkpt lat="55.7595329" lon="49.1748195"><time>2022-10-29T09:55:23.890</time></trkpt><trkpt lat="55.7595628" lon="49.1749110"><time>2022-10-29T09:55:26.893</time></trkpt><trkpt lat="55.7595711" lon="49.1749945"><time>2022-10-29T09:55:28.883</time></trkpt><trkpt lat="55.7595835" lon="49.1750978"><time>2022-10-29T09:55:30.870</time></trkpt><trkpt lat="55.7595951" lon="49.1752066"><time>2022-10-29T09:55:32.867</time></trkpt><trkpt lat="55.7596004" lon="49.1753465"><time>2022-10-29T09:55:34.887</time></trkpt><trkpt lat="55.7596022" lon="49.1754506"><time>2022-10-29T09:55:36.880</time></trkpt><trkpt lat="55.7596032" lon="49.1755328"><time>2022-10-29T09:55:38.887</time></trkpt><trkpt lat="55.7595727" lon="49.1756095"><time>2022-10-29T09:55:40.893</time></trkpt><trkpt lat="55.7595288" lon="49.1756685"><time>2022-10-29T09:55:42.897</time></trkpt><trkpt lat="55.7594743" lon="49.1757337"><time>2022-10-29T09:55:44.883</time></trkpt><trkpt lat="55.7594110" lon="49.1757924"><time>2022-10-29T09:55:46.890</time></trkpt><trkpt lat="55.7593475" lon="49.1758326"><time>2022-10-29T09:55:48.897</time></trkpt><trkpt lat="55.7592893" lon="49.1758663"><time>2022-10-29T09:55:50.890</time></trkpt><trkpt lat="55.7592384" lon="49.1758925"><time>2022-10-29T09:55:52.897</time></trkpt><trkpt lat="55.7591840" lon="49.1759498"><time>2022-10-29T09:55:55.887</time></trkpt><trkpt lat="55.7591526" lon="49.1760098"><time>2022-10-29T09:55:59.890</time></trkpt><trkpt lat="55.7592187" lon="49.1764226"><time>2022-10-29T09:57:28.897</time></trkpt><trkpt lat="55.7591758" lon="49.1760494"><time>2022-10-29T09:57:29.890</time></trkpt><trkpt lat="55.7591503" lon="49.1761220"><time>2022-10-29T09:59:07.897</time></trkpt><trkpt lat="55.7591051" lon="49.1761338"><time>2022-10-29T10:00:16.907</time></trkpt><trkpt lat="55.7591315" lon="49.1762010"><time>2022-10-29T10:01:16.887</time></trkpt><trkpt lat="55.7591756" lon="49.1761787"><time>2022-10-29T10:02:28.880</time></trkpt><trkpt lat="55.7591484" lon="49.1761111"><time>2022-10-29T10:05:04.887</time></trkpt><trkpt lat="55.7591940" lon="49.1761103"><time>2022-10-29T10:07:37.877</time></trkpt><trkpt lat="55.7592422" lon="49.1760674"><time>2022-10-29T10:07:51.897</time></trkpt><trkpt lat="55.7592998" lon="49.1760337"><time>2022-10-29T10:07:55.897</time></trkpt><trkpt lat="55.7593553" lon="49.1760015"><time>2022-10-29T10:07:59.893</time></trkpt><trkpt lat="55.7593984" lon="49.1759748"><time>2022-10-29T10:08:02.903</time></trkpt><trkpt lat="55.7594396" lon="49.1759264"><time>2022-10-29T10:08:05.897</time></trkpt><trkpt lat="55.7594865" lon="49.1758826"><time>2022-10-29T10:08:09.897</time></trkpt><trkpt lat="55.7595337" lon="49.1758440"><time>2022-10-29T10:08:12.893</time></trkpt><trkpt lat="55.7595849" lon="49.1758217"><time>2022-10-29T10:08:16.893</time></trkpt><trkpt lat="55.7596405" lon="49.1757919"><time>2022-10-29T10:08:21.897</time></trkpt><trkpt lat="55.7596891" lon="49.1757874"><time>2022-10-29T10:08:26.903</time></trkpt><trkpt lat="55.7596781" lon="49.1757096"><time>2022-10-29T10:09:15.900</time></trkpt><trkpt lat="55.7596770" lon="49.1756220"><time>2022-10-29T10:09:29.857</time></trkpt><trkpt lat="55.7596742" lon="49.1755193"><time>2022-10-29T10:09:31.863</time></trkpt><trkpt lat="55.7596703" lon="49.1754382"><time>2022-10-29T10:09:33.870</time></trkpt><trkpt lat="55.7596695" lon="49.1753294"><time>2022-10-29T10:09:35.867</time></trkpt><trkpt lat="55.7596710" lon="49.1752258"><time>2022-10-29T10:09:37.867</time></trkpt><trkpt lat="55.7596613" lon="49.1751396"><time>2022-10-29T10:09:39.870</time></trkpt><trkpt lat="55.7596522" lon="49.1750315"><time>2022-10-29T10:09:41.867</time></trkpt><trkpt lat="55.7596509" lon="49.1749233"><time>2022-10-29T10:09:43.867</time></trkpt><trkpt lat="55.7596553" lon="49.1748136"><time>2022-10-29T10:09:45.867</time></trkpt><trkpt lat="55.7596579" lon="49.1746817"><time>2022-10-29T10:09:47.867</time></trkpt><trkpt lat="55.7596592" lon="49.1745481"><time>2022-10-29T10:09:49.873</time></trkpt><trkpt lat="55.7596586" lon="49.1744070"><time>2022-10-29T10:09:51.870</time></trkpt><trkpt lat="55.7596551" lon="49.1742680"><time>2022-10-29T10:09:53.863</time></trkpt><trkpt lat="55.7596506" lon="49.1741503"><time>2022-10-29T10:09:55.860</time></trkpt><trkpt lat="55.7596444" lon="49.1740241"><time>2022-10-29T10:09:57.867</time></trkpt><trkpt lat="55.7596464" lon="49.1739069"><time>2022-10-29T10:09:59.870</time></trkpt><trkpt lat="55.7596438" lon="49.1737988"><time>2022-10-29T10:10:01.867</time></trkpt><trkpt lat="55.7596630" lon="49.1737151"><time>2022-10-29T10:10:03.867</time></trkpt><trkpt lat="55.7597391" lon="49.1736869"><time>2022-10-29T10:10:06.870</time></trkpt><trkpt lat="55.7598175" lon="49.1736855"><time>2022-10-29T10:10:08.863</time></trkpt><trkpt lat="55.7598966" lon="49.1736894"><time>2022-10-29T10:10:10.857</time></trkpt><trkpt lat="55.7599418" lon="49.1736954"><time>2022-10-29T10:10:11.867</time></trkpt><trkpt lat="55.7600220" lon="49.1737040"><time>2022-10-29T10:10:13.867</time></trkpt><trkpt lat="55.7600860" lon="49.1736894"><time>2022-10-29T10:10:15.863</time></trkpt><trkpt lat="55.7601523" lon="49.1736814"><time>2022-10-29T10:10:17.863</time></trkpt><trkpt lat="55.7602292" lon="49.1737004"><time>2022-10-29T10:10:19.867</time></trkpt><trkpt lat="55.7602954" lon="49.1737076"><time>2022-10-29T10:10:21.867</time></trkpt><trkpt lat="55.7603615" lon="49.1736859"><time>2022-10-29T10:10:23.890</time></trkpt><trkpt lat="55.7604237" lon="49.1736566"><time>2022-10-29T10:10:25.890</time></trkpt><trkpt lat="55.7604793" lon="49.1736646"><time>2022-10-29T10:10:27.890</time></trkpt><trkpt lat="55.7605383" lon="49.1736960"><time>2022-10-29T10:10:29.903</time></trkpt><trkpt lat="55.7605959" lon="49.1737083"><time>2022-10-29T10:10:31.893</time></trkpt><trkpt lat="55.7606700" lon="49.1736984"><time>2022-10-29T10:10:33.897</time></trkpt><trkpt lat="55.7607414" lon="49.1736796"><time>2022-10-29T10:10:35.897</time></trkpt><trkpt lat="55.7608131" lon="49.1736673"><time>2022-10-29T10:10:37.900</time></trkpt><trkpt lat="55.7608722" lon="49.1736679"><time>2022-10-29T10:10:39.900</time></trkpt><trkpt lat="55.7609424" lon="49.1736717"><time>2022-10-29T10:10:41.867</time></trkpt><trkpt lat="55.7610167" lon="49.1736682"><time>2022-10-29T10:10:43.863</time></trkpt><trkpt lat="55.7610818" lon="49.1736653"><time>2022-10-29T10:10:45.893</time></trkpt><trkpt lat="55.7611530" lon="49.1736793"><time>2022-10-29T10:10:47.897</time></trkpt><trkpt lat="55.7612006" lon="49.1737002"><time>2022-10-29T10:10:49.890</time></trkpt><trkpt lat="55.7612492" lon="49.1737116"><time>2022-10-29T10:10:52.890</time></trkpt><trkpt lat="55.7612915" lon="49.1736587"><time>2022-10-29T10:10:57.890</time></trkpt><trkpt lat="55.7613415" lon="49.1736800"><time>2022-10-29T10:11:02.900</time></trkpt><trkpt lat="55.7613962" lon="49.1737210"><time>2022-10-29T10:11:06.897</time></trkpt><trkpt lat="55.7614432" lon="49.1737073"><time>2022-10-29T10:11:08.880</time></trkpt><trkpt lat="55.7615112" lon="49.1736705"><time>2022-10-29T10:11:11.867</time></trkpt><trkpt lat="55.7615678" lon="49.1736279"><time>2022-10-29T10:11:13.893</time></trkpt><trkpt lat="55.7616126" lon="49.1735838"><time>2022-10-29T10:11:15.890</time></trkpt><trkpt lat="55.7616642" lon="49.1735322"><time>2022-10-29T10:11:17.867</time></trkpt><trkpt lat="55.7617230" lon="49.1735115"><time>2022-10-29T10:11:19.893</time></trkpt><trkpt lat="55.7617821" lon="49.1735066"><time>2022-10-29T10:11:21.890</time></trkpt><trkpt lat="55.7618330" lon="49.1734897"><time>2022-10-29T10:11:23.890</time></trkpt><trkpt lat="55.7618822" lon="49.1734768"><time>2022-10-29T10:11:25.900</time></trkpt><trkpt lat="55.7619358" lon="49.1734670"><time>2022-10-29T10:11:27.893</time></trkpt><trkpt lat="55.7619915" lon="49.1734513"><time>2022-10-29T10:11:29.890</time></trkpt><trkpt lat="55.7620391" lon="49.1734338"><time>2022-10-29T10:11:31.897</time></trkpt><trkpt lat="55.7621055" lon="49.1734352"><time>2022-10-29T10:11:34.900</time></trkpt><trkpt lat="55.7621536" lon="49.1734303"><time>2022-10-29T10:11:36.900</time></trkpt><trkpt lat="55.7622218" lon="49.1734128"><time>2022-10-29T10:11:39.897</time></trkpt><trkpt lat="55.7622749" lon="49.1734032"><time>2022-10-29T10:11:41.887</time></trkpt><trkpt lat="55.7623207" lon="49.1733989"><time>2022-10-29T10:11:43.893</time></trkpt><trkpt lat="55.7623772" lon="49.1733921"><time>2022-10-29T10:11:45.900</time></trkpt><trkpt lat="55.7624286" lon="49.1733858"><time>2022-10-29T10:11:47.893</time></trkpt><trkpt lat="55.7624910" lon="49.1733769"><time>2022-10-29T10:11:50.890</time></trkpt><trkpt lat="55.7625550" lon="49.1733703"><time>2022-10-29T10:11:53.897</time></trkpt><trkpt lat="55.7626037" lon="49.1733664"><time>2022-10-29T10:11:55.897</time></trkpt><trkpt lat="55.7626527" lon="49.1733541"><time>2022-10-29T10:11:58.880</time></trkpt><trkpt lat="55.7627042" lon="49.1733129"><time>2022-10-29T10:12:02.897</time></trkpt><trkpt lat="55.7627001" lon="49.1732230"><time>2022-10-29T10:12:06.897</time></trkpt><trkpt lat="55.7626577" lon="49.1731570"><time>2022-10-29T10:12:44.893</time></trkpt><trkpt lat="55.7626209" lon="49.1730899"><time>2022-10-29T10:12:46.897</time></trkpt><trkpt lat="55.7625908" lon="49.1730304"><time>2022-10-29T10:12:48.900</time></trkpt><trkpt lat="55.7625574" lon="49.1729478"><time>2022-10-29T10:12:50.897</time></trkpt><trkpt lat="55.7625045" lon="49.1728522"><time>2022-10-29T10:12:52.887</time></trkpt><trkpt lat="55.7624512" lon="49.1727531"><time>2022-10-29T10:12:54.890</time></trkpt><trkpt lat="55.7624006" lon="49.1726327"><time>2022-10-29T10:12:56.893</time></trkpt><trkpt lat="55.7623446" lon="49.1725051"><time>2022-10-29T10:12:58.893</time></trkpt><trkpt lat="55.7623003" lon="49.1723936"><time>2022-10-29T10:13:00.893</time></trkpt><trkpt lat="55.7622670" lon="49.1722946"><time>2022-10-29T10:13:02.860</time></trkpt><trkpt lat="55.7622287" lon="49.1721939"><time>2022-10-29T10:13:04.857</time></trkpt><trkpt lat="55.7621817" lon="49.1721008"><time>2022-10-29T10:13:06.867</time></trkpt><trkpt lat="55.7621370" lon="49.1720190"><time>2022-10-29T10:13:08.893</time></trkpt><trkpt lat="55.7620983" lon="49.1719447"><time>2022-10-29T10:13:10.893</time></trkpt><trkpt lat="55.7620697" lon="49.1718743"><time>2022-10-29T10:13:13.930</time></trkpt><trkpt lat="55.7620932" lon="49.1717670"><time>2022-10-29T10:13:19.897</time></trkpt><trkpt lat="55.7620662" lon="49.1716682"><time>2022-10-29T10:13:22.897</time></trkpt><trkpt lat="55.7620583" lon="49.1715700"><time>2022-10-29T10:13:24.897</time></trkpt><trkpt lat="55.7621108" lon="49.1714613"><time>2022-10-29T10:13:26.893</time></trkpt><trkpt lat="55.7621991" lon="49.1713400"><time>2022-10-29T10:13:28.890</time></trkpt><trkpt lat="55.7622350" lon="49.1712889"><time>2022-10-29T10:13:29.887</time></trkpt><trkpt lat="55.7622762" lon="49.1712328"><time>2022-10-29T10:13:30.893</time></trkpt><trkpt lat="55.7623105" lon="49.1711501"><time>2022-10-29T10:13:31.903</time></trkpt><trkpt lat="55.7623601" lon="49.1710662"><time>2022-10-29T10:13:32.903</time></trkpt><trkpt lat="55.7624093" lon="49.1709836"><time>2022-10-29T10:13:33.900</time></trkpt><trkpt lat="55.7624590" lon="49.1709123"><time>2022-10-29T10:13:34.867</time></trkpt><trkpt lat="55.7625120" lon="49.1708268"><time>2022-10-29T10:13:35.867</time></trkpt><trkpt lat="55.7625698" lon="49.1707510"><time>2022-10-29T10:13:36.867</time></trkpt><trkpt lat="55.7625988" lon="49.1706676"><time>2022-10-29T10:13:37.877</time></trkpt><trkpt lat="55.7626432" lon="49.1705913"><time>2022-10-29T10:13:38.867</time></trkpt><trkpt lat="55.7626748" lon="49.1705216"><time>2022-10-29T10:13:39.887</time></trkpt><trkpt lat="55.7627166" lon="49.1704761"><time>2022-10-29T10:13:40.870</time></trkpt><trkpt lat="55.7627696" lon="49.1704081"><time>2022-10-29T10:13:42.877</time></trkpt><trkpt lat="55.7628110" lon="49.1703254"><time>2022-10-29T10:13:44.903</time></trkpt><trkpt lat="55.7628188" lon="49.1702410"><time>2022-10-29T10:13:46.893</time></trkpt><trkpt lat="55.7627921" lon="49.1701377"><time>2022-10-29T10:13:48.903</time></trkpt><trkpt lat="55.7627885" lon="49.1700223"><time>2022-10-29T10:13:50.890</time></trkpt><trkpt lat="55.7627926" lon="49.1699132"><time>2022-10-29T10:13:52.880</time></trkpt><trkpt lat="55.7628193" lon="49.1698334"><time>2022-10-29T10:13:54.877</time></trkpt><trkpt lat="55.7628492" lon="49.1697620"><time>2022-10-29T10:13:56.880</time></trkpt><trkpt lat="55.7628828" lon="49.1696957"><time>2022-10-29T10:13:58.900</time></trkpt><trkpt lat="55.7629197" lon="49.1696344"><time>2022-10-29T10:14:00.893</time></trkpt><trkpt lat="55.7629729" lon="49.1695835"><time>2022-10-29T10:14:02.900</time></trkpt><trkpt lat="55.7630287" lon="49.1695432"><time>2022-10-29T10:14:04.887</time></trkpt><trkpt lat="55.7630889" lon="49.1694789"><time>2022-10-29T10:14:06.907</time></trkpt><trkpt lat="55.7631454" lon="49.1694064"><time>2022-10-29T10:14:08.897</time></trkpt><trkpt lat="55.7631931" lon="49.1693280"><time>2022-10-29T10:14:10.890</time></trkpt><trkpt lat="55.7632513" lon="49.1692410"><time>2022-10-29T10:14:12.897</time></trkpt><trkpt lat="55.7633133" lon="49.1691557"><time>2022-10-29T10:14:14.897</time></trkpt><trkpt lat="55.7633747" lon="49.1690770"><time>2022-10-29T10:14:16.893</time></trkpt><trkpt lat="55.7634357" lon="49.1689976"><time>2022-10-29T10:14:18.900</time></trkpt><trkpt lat="55.7634773" lon="49.1689442"><time>2022-10-29T10:14:20.893</time></trkpt><trkpt lat="55.7635175" lon="49.1688771"><time>2022-10-29T10:14:25.853</time></trkpt><trkpt lat="55.7635580" lon="49.1687620"><time>2022-10-29T10:14:28.863</time></trkpt><trkpt lat="55.7636583" lon="49.1686293"><time>2022-10-29T10:14:30.887</time></trkpt><trkpt lat="55.7637264" lon="49.1685120"><time>2022-10-29T10:14:32.900</time></trkpt><trkpt lat="55.7637672" lon="49.1684633"><time>2022-10-29T10:14:33.897</time></trkpt><trkpt lat="55.7638341" lon="49.1683924"><time>2022-10-29T10:14:35.897</time></trkpt><trkpt lat="55.7639053" lon="49.1684026"><time>2022-10-29T10:14:37.893</time></trkpt><trkpt lat="55.7639792" lon="49.1684263"><time>2022-10-29T10:14:39.890</time></trkpt><trkpt lat="55.7640279" lon="49.1684742"><time>2022-10-29T10:14:41.887</time></trkpt><trkpt lat="55.7640744" lon="49.1685985"><time>2022-10-29T10:14:43.897</time></trkpt><trkpt lat="55.7641165" lon="49.1687107"><time>2022-10-29T10:14:45.887</time></trkpt><trkpt lat="55.7641569" lon="49.1688116"><time>2022-10-29T10:14:47.887</time></trkpt><trkpt lat="55.7641966" lon="49.1689074"><time>2022-10-29T10:14:49.887</time></trkpt><trkpt lat="55.7642303" lon="49.1689829"><time>2022-10-29T10:14:51.907</time></trkpt><trkpt lat="55.7642730" lon="49.1690540"><time>2022-10-29T10:14:53.887</time></trkpt><trkpt lat="55.7643149" lon="49.1691129"><time>2022-10-29T10:14:55.903</time></trkpt><trkpt lat="55.7643520" lon="49.1691924"><time>2022-10-29T10:14:57.893</time></trkpt><trkpt lat="55.7643965" lon="49.1692753"><time>2022-10-29T10:14:59.893</time></trkpt><trkpt lat="55.7644322" lon="49.1693499"><time>2022-10-29T10:15:01.897</time></trkpt><trkpt lat="55.7644889" lon="49.1694101"><time>2022-10-29T10:15:04.897</time></trkpt><trkpt lat="55.7645474" lon="49.1693959"><time>2022-10-29T10:15:06.890</time></trkpt><trkpt lat="55.7646135" lon="49.1693423"><time>2022-10-29T10:15:08.903</time></trkpt><trkpt lat="55.7646794" lon="49.1692860"><time>2022-10-29T10:15:10.900</time></trkpt><trkpt lat="55.7647358" lon="49.1692173"><time>2022-10-29T10:15:12.887</time></trkpt><trkpt lat="55.7647937" lon="49.1691480"><time>2022-10-29T10:15:14.890</time></trkpt><trkpt lat="55.7648523" lon="49.1691258"><time>2022-10-29T10:15:16.897</time></trkpt><trkpt lat="55.7648965" lon="49.1691518"><time>2022-10-29T10:15:18.893</time></trkpt><trkpt lat="55.7649251" lon="49.1692347"><time>2022-10-29T10:15:22.897</time></trkpt><trkpt lat="55.7649751" lon="49.1692850"><time>2022-10-29T10:15:25.907</time></trkpt><trkpt lat="55.7650095" lon="49.1691899"><time>2022-10-29T10:15:27.897</time></trkpt><trkpt lat="55.7650158" lon="49.1690635"><time>2022-10-29T10:15:29.893</time></trkpt><trkpt lat="55.7650167" lon="49.1689441"><time>2022-10-29T10:15:31.897</time></trkpt><trkpt lat="55.7650186" lon="49.1688621"><time>2022-10-29T10:15:33.893</time></trkpt><trkpt lat="55.7650158" lon="49.1687451"><time>2022-10-29T10:16:14.903</time></trkpt><trkpt lat="55.7650296" lon="49.1686251"><time>2022-10-29T10:16:16.887</time></trkpt><trkpt lat="55.7650405" lon="49.1685150"><time>2022-10-29T10:16:18.897</time></trkpt><trkpt lat="55.7650588" lon="49.1684028"><time>2022-10-29T10:16:20.927</time></trkpt><trkpt lat="55.7650888" lon="49.1680686"><time>2022-10-29T10:16:27.590</time></trkpt><trkpt lat="55.7650594" lon="49.1679694"><time>2022-10-29T10:16:29.887</time></trkpt><trkpt lat="55.7650454" lon="49.1678701"><time>2022-10-29T10:16:32.903</time></trkpt><trkpt lat="55.7650240" lon="49.1677844"><time>2022-10-29T10:16:38.887</time></trkpt><trkpt lat="55.7650616" lon="49.1677356"><time>2022-10-29T10:17:06.907</time></trkpt><trkpt lat="55.7650832" lon="49.1676411"><time>2022-10-29T10:17:11.893</time></trkpt><trkpt lat="55.7650739" lon="49.1675563"><time>2022-10-29T10:17:15.910</time></trkpt><trkpt lat="55.7650733" lon="49.1674462"><time>2022-10-29T10:17:18.897</time></trkpt><trkpt lat="55.7650799" lon="49.1673507"><time>2022-10-29T10:17:20.897</time></trkpt><trkpt lat="55.7650954" lon="49.1672272"><time>2022-10-29T10:17:23.887</time></trkpt><trkpt lat="55.7650946" lon="49.1670941"><time>2022-10-29T10:17:25.893</time></trkpt><trkpt lat="55.7651058" lon="49.1669854"><time>2022-10-29T10:17:27.893</time></trkpt><trkpt lat="55.7651233" lon="49.1668834"><time>2022-10-29T10:17:29.937</time></trkpt><trkpt lat="55.7651393" lon="49.1667614"><time>2022-10-29T10:17:31.067</time></trkpt><trkpt lat="55.7651835" lon="49.1666846"><time>2022-10-29T10:17:34.893</time></trkpt><trkpt lat="55.7651930" lon="49.1665786"><time>2022-10-29T10:17:36.880</time></trkpt><trkpt lat="55.7651947" lon="49.1664551"><time>2022-10-29T10:17:38.860</time></trkpt><trkpt lat="55.7652044" lon="49.1663291"><time>2022-10-29T10:17:40.867</time></trkpt><trkpt lat="55.7652016" lon="49.1662259"><time>2022-10-29T10:17:42.867</time></trkpt><trkpt lat="55.7651961" lon="49.1661455"><time>2022-10-29T10:17:44.883</time></trkpt><trkpt lat="55.7651910" lon="49.1660609"><time>2022-10-29T10:17:46.927</time></trkpt><trkpt lat="55.7652011" lon="49.1659212"><time>2022-10-29T10:17:48.887</time></trkpt><trkpt lat="55.7652251" lon="49.1658216"><time>2022-10-29T10:17:54.877</time></trkpt><trkpt lat="55.7652366" lon="49.1657191"><time>2022-10-29T10:17:57.890</time></trkpt><trkpt lat="55.7652419" lon="49.1656191"><time>2022-10-29T10:17:59.873</time></trkpt><trkpt lat="55.7652433" lon="49.1655119"><time>2022-10-29T10:18:01.937</time></trkpt><trkpt lat="55.7652433" lon="49.1655119"><time>2022-10-29T10:18:02.197</time></trkpt><trkpt lat="55.7652461" lon="49.1654150"><time>2022-10-29T10:18:03.897</time></trkpt><trkpt lat="55.7652445" lon="49.1653801"><time>2022-10-29T10:18:04.830</time></trkpt><trkpt lat="55.7652485" lon="49.1652587"><time>2022-10-29T10:18:06.867</time></trkpt><trkpt lat="55.7652504" lon="49.1651745"><time>2022-10-29T10:18:08.907</time></trkpt><trkpt lat="55.7652520" lon="49.1650617"><time>2022-10-29T10:18:11.867</time></trkpt><trkpt lat="55.7652575" lon="49.1649647"><time>2022-10-29T10:18:15.863</time></trkpt><trkpt lat="55.7653006" lon="49.1648990"><time>2022-10-29T10:18:21.883</time></trkpt><trkpt lat="55.7653219" lon="49.1648176"><time>2022-10-29T10:18:26.880</time></trkpt><trkpt lat="55.7653656" lon="49.1648542"><time>2022-10-29T10:18:29.887</time></trkpt><trkpt lat="55.7654124" lon="49.1649638"><time>2022-10-29T10:18:31.883</time></trkpt><trkpt lat="55.7654591" lon="49.1650839"><time>2022-10-29T10:18:33.880</time></trkpt><trkpt lat="55.7654863" lon="49.1652037"><time>2022-10-29T10:18:35.873</time></trkpt><trkpt lat="55.7655191" lon="49.1653238"><time>2022-10-29T10:18:37.890</time></trkpt><trkpt lat="55.7655714" lon="49.1653595"><time>2022-10-29T10:18:39.897</time></trkpt><trkpt lat="55.7656161" lon="49.1653702"><time>2022-10-29T10:18:41.883</time></trkpt><trkpt lat="55.7656623" lon="49.1654442"><time>2022-10-29T10:18:43.887</time></trkpt><trkpt lat="55.7656929" lon="49.1655122"><time>2022-10-29T10:18:45.890</time></trkpt><trkpt lat="55.7657279" lon="49.1655794"><time>2022-10-29T10:18:48.890</time></trkpt><trkpt lat="55.7656812" lon="49.1655337"><time>2022-10-29T10:18:55.883</time></trkpt><trkpt lat="55.7656340" lon="49.1654328"><time>2022-10-29T10:18:57.887</time></trkpt><trkpt lat="55.7656017" lon="49.1653773"><time>2022-10-29T10:18:59.887</time></trkpt><trkpt lat="55.7655939" lon="49.1652853"><time>2022-10-29T10:19:04.887</time></trkpt><trkpt lat="55.7656458" lon="49.1652392"><time>2022-10-29T10:19:11.887</time></trkpt><trkpt lat="55.7656799" lon="49.1651766"><time>2022-10-29T10:19:14.890</time></trkpt><trkpt lat="55.7657090" lon="49.1650937"><time>2022-10-29T10:19:17.887</time></trkpt><trkpt lat="55.7657483" lon="49.1650385"><time>2022-10-29T10:19:19.887</time></trkpt><trkpt lat="55.7657811" lon="49.1649694"><time>2022-10-29T10:19:23.893</time></trkpt><trkpt lat="55.7658063" lon="49.1649018"><time>2022-10-29T10:19:29.880</time></trkpt><trkpt lat="55.7658162" lon="49.1648115"><time>2022-10-29T10:19:38.900</time></trkpt><trkpt lat="55.7658458" lon="49.1647324"><time>2022-10-29T10:19:43.910</time></trkpt><trkpt lat="55.7658797" lon="49.1646687"><time>2022-10-29T10:19:53.900</time></trkpt><trkpt lat="55.7659094" lon="49.1645994"><time>2022-10-29T10:19:58.900</time></trkpt><trkpt lat="55.7659435" lon="49.1645318"><time>2022-10-29T10:20:03.893</time></trkpt><trkpt lat="55.7659818" lon="49.1644771"><time>2022-10-29T10:20:11.893</time></trkpt><trkpt lat="55.7660041" lon="49.1644054"><time>2022-10-29T10:20:20.887</time></trkpt><trkpt lat="55.7660473" lon="49.1643783"><time>2022-10-29T10:20:28.870</time></trkpt><trkpt lat="55.7660950" lon="49.1643256"><time>2022-10-29T10:20:38.867</time></trkpt><trkpt lat="55.7661455" lon="49.1642753"><time>2022-10-29T10:20:40.893</time></trkpt><trkpt lat="55.7661955" lon="49.1642058"><time>2022-10-29T10:20:42.887</time></trkpt><trkpt lat="55.7662269" lon="49.1641468"><time>2022-10-29T10:20:44.887</time></trkpt><trkpt lat="55.7662614" lon="49.1640769"><time>2022-10-29T10:20:46.887</time></trkpt><trkpt lat="55.7663183" lon="49.1640005"><time>2022-10-29T10:20:48.890</time></trkpt><trkpt lat="55.7663843" lon="49.1639381"><time>2022-10-29T10:20:50.893</time></trkpt><trkpt lat="55.7664449" lon="49.1638798"><time>2022-10-29T10:20:52.900</time></trkpt><trkpt lat="55.7665068" lon="49.1638264"><time>2022-10-29T10:20:54.887</time></trkpt><trkpt lat="55.7665735" lon="49.1637572"><time>2022-10-29T10:20:56.907</time></trkpt><trkpt lat="55.7666395" lon="49.1636771"><time>2022-10-29T10:20:58.897</time></trkpt><trkpt lat="55.7667110" lon="49.1635895"><time>2022-10-29T10:21:00.900</time></trkpt><trkpt lat="55.7667483" lon="49.1635433"><time>2022-10-29T10:21:01.890</time></trkpt><trkpt lat="55.7668226" lon="49.1634612"><time>2022-10-29T10:21:03.897</time></trkpt><trkpt lat="55.7669034" lon="49.1634016"><time>2022-10-29T10:21:05.893</time></trkpt><trkpt lat="55.7669845" lon="49.1633629"><time>2022-10-29T10:21:07.887</time></trkpt><trkpt lat="55.7670560" lon="49.1633129"><time>2022-10-29T10:21:09.897</time></trkpt><trkpt lat="55.7671209" lon="49.1632513"><time>2022-10-29T10:21:11.897</time></trkpt><trkpt lat="55.7671892" lon="49.1631812"><time>2022-10-29T10:21:13.890</time></trkpt><trkpt lat="55.7672593" lon="49.1631083"><time>2022-10-29T10:21:15.900</time></trkpt><trkpt lat="55.7673293" lon="49.1630381"><time>2022-10-29T10:21:17.893</time></trkpt><trkpt lat="55.7673982" lon="49.1629658"><time>2022-10-29T10:21:19.883</time></trkpt><trkpt lat="55.7674664" lon="49.1628952"><time>2022-10-29T10:21:21.897</time></trkpt><trkpt lat="55.7675297" lon="49.1628719"><time>2022-10-29T10:21:23.883</time></trkpt><trkpt lat="55.7675801" lon="49.1629568"><time>2022-10-29T10:21:25.880</time></trkpt><trkpt lat="55.7676170" lon="49.1630614"><time>2022-10-29T10:21:27.907</time></trkpt><trkpt lat="55.7676801" lon="49.1630977"><time>2022-10-29T10:21:29.893</time></trkpt><trkpt lat="55.7677509" lon="49.1630910"><time>2022-10-29T10:21:31.893</time></trkpt><trkpt lat="55.7678117" lon="49.1631408"><time>2022-10-29T10:21:33.893</time></trkpt><trkpt lat="55.7678542" lon="49.1632501"><time>2022-10-29T10:21:35.897</time></trkpt><trkpt lat="55.7678847" lon="49.1633702"><time>2022-10-29T10:21:37.893</time></trkpt><trkpt lat="55.7679167" lon="49.1634863"><time>2022-10-29T10:21:39.893</time></trkpt><trkpt lat="55.7679537" lon="49.1635864"><time>2022-10-29T10:21:41.897</time></trkpt><trkpt lat="55.7679963" lon="49.1636613"><time>2022-10-29T10:21:43.890</time></trkpt><trkpt lat="55.7680414" lon="49.1637136"><time>2022-10-29T10:21:45.890</time></trkpt><trkpt lat="55.7681029" lon="49.1637657"><time>2022-10-29T10:21:47.897</time></trkpt><trkpt lat="55.7681677" lon="49.1638163"><time>2022-10-29T10:21:49.893</time></trkpt><trkpt lat="55.7682322" lon="49.1638734"><time>2022-10-29T10:21:51.903</time></trkpt><trkpt lat="55.7682924" lon="49.1639348"><time>2022-10-29T10:21:53.890</time></trkpt><trkpt lat="55.7683562" lon="49.1640108"><time>2022-10-29T10:21:55.900</time></trkpt><trkpt lat="55.7684100" lon="49.1640668"><time>2022-10-29T10:21:57.890</time></trkpt><trkpt lat="55.7684893" lon="49.1641584"><time>2022-10-29T10:21:59.903</time></trkpt><trkpt lat="55.7685596" lon="49.1642351"><time>2022-10-29T10:22:01.897</time></trkpt><trkpt lat="55.7686231" lon="49.1643110"><time>2022-10-29T10:22:03.897</time></trkpt><trkpt lat="55.7686740" lon="49.1643849"><time>2022-10-29T10:22:05.887</time></trkpt><trkpt lat="55.7687439" lon="49.1644566"><time>2022-10-29T10:22:07.923</time></trkpt><trkpt lat="55.7688171" lon="49.1645162"><time>2022-10-29T10:22:09.890</time></trkpt><trkpt lat="55.7688809" lon="49.1645692"><time>2022-10-29T10:22:11.893</time></trkpt><trkpt lat="55.7689401" lon="49.1646180"><time>2022-10-29T10:22:13.890</time></trkpt><trkpt lat="55.7690051" lon="49.1646728"><time>2022-10-29T10:22:15.867</time></trkpt><trkpt lat="55.7690708" lon="49.1647171"><time>2022-10-29T10:22:17.863</time></trkpt><trkpt lat="55.7691380" lon="49.1647733"><time>2022-10-29T10:22:19.867</time></trkpt><trkpt lat="55.7692039" lon="49.1648324"><time>2022-10-29T10:22:21.887</time></trkpt><trkpt lat="55.7692681" lon="49.1648867"><time>2022-10-29T10:22:23.887</time></trkpt><trkpt lat="55.7693314" lon="49.1649339"><time>2022-10-29T10:22:25.867</time></trkpt><trkpt lat="55.7693923" lon="49.1649806"><time>2022-10-29T10:22:27.857</time></trkpt><trkpt lat="55.7694467" lon="49.1650248"><time>2022-10-29T10:22:29.897</time></trkpt><trkpt lat="55.7694971" lon="49.1650750"><time>2022-10-29T10:22:31.883</time></trkpt><trkpt lat="55.7695488" lon="49.1651205"><time>2022-10-29T10:22:33.887</time></trkpt><trkpt lat="55.7696072" lon="49.1651628"><time>2022-10-29T10:22:35.893</time></trkpt><trkpt lat="55.7696567" lon="49.1652017"><time>2022-10-29T10:22:37.887</time></trkpt><trkpt lat="55.7697000" lon="49.1652388"><time>2022-10-29T10:22:39.897</time></trkpt><trkpt lat="55.7697406" lon="49.1652786"><time>2022-10-29T10:22:41.897</time></trkpt><trkpt lat="55.7697892" lon="49.1653137"><time>2022-10-29T10:22:43.890</time></trkpt><trkpt lat="55.7698583" lon="49.1653737"><time>2022-10-29T10:22:45.897</time></trkpt><trkpt lat="55.7699180" lon="49.1654311"><time>2022-10-29T10:22:47.897</time></trkpt><trkpt lat="55.7699850" lon="49.1654893"><time>2022-10-29T10:22:49.897</time></trkpt><trkpt lat="55.7700492" lon="49.1655528"><time>2022-10-29T10:22:51.900</time></trkpt><trkpt lat="55.7701133" lon="49.1656197"><time>2022-10-29T10:22:53.893</time></trkpt><trkpt lat="55.7701743" lon="49.1656829"><time>2022-10-29T10:22:55.890</time></trkpt><trkpt lat="55.7702372" lon="49.1657379"><time>2022-10-29T10:22:57.917</time></trkpt><trkpt lat="55.7702975" lon="49.1657846"><time>2022-10-29T10:22:59.893</time></trkpt><trkpt lat="55.7703533" lon="49.1658245"><time>2022-10-29T10:23:01.893</time></trkpt><trkpt lat="55.7704193" lon="49.1658512"><time>2022-10-29T10:23:03.897</time></trkpt><trkpt lat="55.7704903" lon="49.1658516"><time>2022-10-29T10:23:05.893</time></trkpt><trkpt lat="55.7705638" lon="49.1658252"><time>2022-10-29T10:23:07.900</time></trkpt><trkpt lat="55.7706384" lon="49.1657898"><time>2022-10-29T10:23:09.893</time></trkpt><trkpt lat="55.7707125" lon="49.1657442"><time>2022-10-29T10:23:11.900</time></trkpt><trkpt lat="55.7707804" lon="49.1656778"><time>2022-10-29T10:23:13.897</time></trkpt><trkpt lat="55.7708421" lon="49.1656144"><time>2022-10-29T10:23:15.900</time></trkpt><trkpt lat="55.7709081" lon="49.1655544"><time>2022-10-29T10:23:17.897</time></trkpt><trkpt lat="55.7709682" lon="49.1654881"><time>2022-10-29T10:23:19.897</time></trkpt><trkpt lat="55.7710291" lon="49.1654285"><time>2022-10-29T10:23:21.903</time></trkpt><trkpt lat="55.7710933" lon="49.1653548"><time>2022-10-29T10:23:23.893</time></trkpt><trkpt lat="55.7711588" lon="49.1652759"><time>2022-10-29T10:23:25.887</time></trkpt><trkpt lat="55.7712273" lon="49.1651991"><time>2022-10-29T10:23:27.900</time></trkpt><trkpt lat="55.7712912" lon="49.1651303"><time>2022-10-29T10:23:29.920</time></trkpt><trkpt lat="55.7713187" lon="49.1651172"><time>2022-10-29T10:23:31.880</time></trkpt><trkpt lat="55.7713615" lon="49.1650797"><time>2022-10-29T10:23:31.900</time></trkpt><trkpt lat="55.7714269" lon="49.1650138"><time>2022-10-29T10:23:33.903</time></trkpt><trkpt lat="55.7714945" lon="49.1649510"><time>2022-10-29T10:23:35.883</time></trkpt><trkpt lat="55.7715478" lon="49.1649042"><time>2022-10-29T10:23:37.883</time></trkpt><trkpt lat="55.7715980" lon="49.1648589"><time>2022-10-29T10:23:39.913</time></trkpt><trkpt lat="55.7716535" lon="49.1648020"><time>2022-10-29T10:23:41.897</time></trkpt><trkpt lat="55.7717237" lon="49.1647309"><time>2022-10-29T10:23:43.893</time></trkpt><trkpt lat="55.7717832" lon="49.1646719"><time>2022-10-29T10:23:45.890</time></trkpt><trkpt lat="55.7718481" lon="49.1646063"><time>2022-10-29T10:23:47.883</time></trkpt><trkpt lat="55.7719083" lon="49.1645505"><time>2022-10-29T10:23:49.887</time></trkpt><trkpt lat="55.7719664" lon="49.1644986"><time>2022-10-29T10:23:51.890</time></trkpt><trkpt lat="55.7720089" lon="49.1644515"><time>2022-10-29T10:23:53.890</time></trkpt><trkpt lat="55.7720707" lon="49.1643918"><time>2022-10-29T10:23:55.893</time></trkpt><trkpt lat="55.7721345" lon="49.1643373"><time>2022-10-29T10:23:57.907</time></trkpt><trkpt lat="55.7722021" lon="49.1642743"><time>2022-10-29T10:23:59.900</time></trkpt><trkpt lat="55.7722659" lon="49.1642190"><time>2022-10-29T10:24:01.900</time></trkpt><trkpt lat="55.7723270" lon="49.1641635"><time>2022-10-29T10:24:03.933</time></trkpt><trkpt lat="55.7723486" lon="49.1641442"><time>2022-10-29T10:24:05.070</time></trkpt><trkpt lat="55.7723997" lon="49.1640972"><time>2022-10-29T10:24:06.887</time></trkpt><trkpt lat="55.7724471" lon="49.1641000"><time>2022-10-29T10:24:09.883</time></trkpt><trkpt lat="55.7724958" lon="49.1641082"><time>2022-10-29T10:24:11.880</time></trkpt><trkpt lat="55.7725593" lon="49.1640766"><time>2022-10-29T10:24:13.880</time></trkpt><trkpt lat="55.7726164" lon="49.1640722"><time>2022-10-29T10:24:15.880</time></trkpt><trkpt lat="55.7726622" lon="49.1641074"><time>2022-10-29T10:24:17.883</time></trkpt><trkpt lat="55.7727086" lon="49.1641567"><time>2022-10-29T10:24:19.877</time></trkpt><trkpt lat="55.7727490" lon="49.1642055"><time>2022-10-29T10:24:21.887</time></trkpt><trkpt lat="55.7727917" lon="49.1642660"><time>2022-10-29T10:24:23.887</time></trkpt><trkpt lat="55.7728284" lon="49.1643188"><time>2022-10-29T10:24:25.863</time></trkpt><trkpt lat="55.7728742" lon="49.1643870"><time>2022-10-29T10:24:27.903</time></trkpt><trkpt lat="55.7728788" lon="49.1644169"><time>2022-10-29T10:24:29.063</time></trkpt><trkpt lat="55.7729193" lon="49.1644573"><time>2022-10-29T10:24:30.870</time></trkpt><trkpt lat="55.7729693" lon="49.1645099"><time>2022-10-29T10:24:33.870</time></trkpt><trkpt lat="55.7730214" lon="49.1645894"><time>2022-10-29T10:24:36.907</time></trkpt><trkpt lat="55.7730480" lon="49.1646605"><time>2022-10-29T10:24:38.907</time></trkpt><trkpt lat="55.7730697" lon="49.1647345"><time>2022-10-29T10:24:40.860</time></trkpt><trkpt lat="55.7730985" lon="49.1648139"><time>2022-10-29T10:24:43.887</time></trkpt><trkpt lat="55.7730985" lon="49.1648139"><time>2022-10-29T10:24:43.930</time></trkpt><trkpt lat="55.7731044" lon="49.1649231"><time>2022-10-29T10:24:46.910</time></trkpt><trkpt lat="55.7731041" lon="49.1649824"><time>2022-10-29T10:24:48.057</time></trkpt><trkpt lat="55.7730866" lon="49.1649056"><time>2022-10-29T10:25:25.890</time></trkpt><trkpt lat="55.7730885" lon="49.1649900"><time>2022-10-29T10:25:32.887</time></trkpt><trkpt lat="55.7731349" lon="49.1650437"><time>2022-10-29T10:25:39.890</time></trkpt><trkpt lat="55.7731699" lon="49.1651230"><time>2022-10-29T10:25:42.887</time></trkpt><trkpt lat="55.7732025" lon="49.1652172"><time>2022-10-29T10:25:44.890</time></trkpt><trkpt lat="55.7732469" lon="49.1652869"><time>2022-10-29T10:25:46.887</time></trkpt><trkpt lat="55.7733018" lon="49.1652934"><time>2022-10-29T10:25:48.893</time></trkpt><trkpt lat="55.7733537" lon="49.1652456"><time>2022-10-29T10:25:50.887</time></trkpt><trkpt lat="55.7733906" lon="49.1651889"><time>2022-10-29T10:25:52.883</time></trkpt><trkpt lat="55.7734195" lon="49.1651042"><time>2022-10-29T10:25:54.887</time></trkpt><trkpt lat="55.7734250" lon="49.1649980"><time>2022-10-29T10:25:56.860</time></trkpt><trkpt lat="55.7734019" lon="49.1648947"><time>2022-10-29T10:25:58.887</time></trkpt><trkpt lat="55.7733719" lon="49.1647919"><time>2022-10-29T10:26:00.887</time></trkpt><trkpt lat="55.7733398" lon="49.1647129"><time>2022-10-29T10:26:02.890</time></trkpt><trkpt lat="55.7733051" lon="49.1646448"><time>2022-10-29T10:26:04.887</time></trkpt><trkpt lat="55.7732755" lon="49.1645489"><time>2022-10-29T10:26:06.893</time></trkpt><trkpt lat="55.7732469" lon="49.1644438"><time>2022-10-29T10:26:08.907</time></trkpt><trkpt lat="55.7732171" lon="49.1643432"><time>2022-10-29T10:26:10.890</time></trkpt><trkpt lat="55.7732006" lon="49.1642277"><time>2022-10-29T10:26:12.893</time></trkpt><trkpt lat="55.7732005" lon="49.1641106"><time>2022-10-29T10:26:14.890</time></trkpt><trkpt lat="55.7732020" lon="49.1639823"><time>2022-10-29T10:26:16.890</time></trkpt><trkpt lat="55.7732030" lon="49.1638570"><time>2022-10-29T10:26:18.897</time></trkpt><trkpt lat="55.7731983" lon="49.1637511"><time>2022-10-29T10:26:20.890</time></trkpt><trkpt lat="55.7731901" lon="49.1636425"><time>2022-10-29T10:26:22.897</time></trkpt><trkpt lat="55.7731846" lon="49.1635372"><time>2022-10-29T10:26:24.890</time></trkpt><trkpt lat="55.7732178" lon="49.1634355"><time>2022-10-29T10:26:27.893</time></trkpt><trkpt lat="55.7732581" lon="49.1633904"><time>2022-10-29T10:26:29.887</time></trkpt><trkpt lat="55.7732709" lon="49.1633013"><time>2022-10-29T10:26:31.887</time></trkpt><trkpt lat="55.7732820" lon="49.1632081"><time>2022-10-29T10:26:33.890</time></trkpt><trkpt lat="55.7733261" lon="49.1631202"><time>2022-10-29T10:26:35.887</time></trkpt><trkpt lat="55.7733816" lon="49.1630624"><time>2022-10-29T10:26:37.897</time></trkpt><trkpt lat="55.7734424" lon="49.1630135"><time>2022-10-29T10:26:39.900</time></trkpt><trkpt lat="55.7735065" lon="49.1629631"><time>2022-10-29T10:26:41.887</time></trkpt><trkpt lat="55.7735746" lon="49.1629094"><time>2022-10-29T10:26:43.897</time></trkpt><trkpt lat="55.7736476" lon="49.1628530"><time>2022-10-29T10:26:45.887</time></trkpt><trkpt lat="55.7737174" lon="49.1628051"><time>2022-10-29T10:26:47.887</time></trkpt><trkpt lat="55.7737862" lon="49.1627636"><time>2022-10-29T10:26:49.883</time></trkpt><trkpt lat="55.7738545" lon="49.1627287"><time>2022-10-29T10:26:51.893</time></trkpt><trkpt lat="55.7739285" lon="49.1626997"><time>2022-10-29T10:26:53.867</time></trkpt><trkpt lat="55.7740001" lon="49.1626581"><time>2022-10-29T10:26:55.873</time></trkpt><trkpt lat="55.7740571" lon="49.1626155"><time>2022-10-29T10:26:57.897</time></trkpt><trkpt lat="55.7741059" lon="49.1625908"><time>2022-10-29T10:26:59.870</time></trkpt><trkpt lat="55.7741576" lon="49.1625565"><time>2022-10-29T10:27:01.870</time></trkpt><trkpt lat="55.7742175" lon="49.1624935"><time>2022-10-29T10:27:03.870</time></trkpt><trkpt lat="55.7742845" lon="49.1624208"><time>2022-10-29T10:27:05.883</time></trkpt><trkpt lat="55.7743483" lon="49.1623482"><time>2022-10-29T10:27:07.863</time></trkpt><trkpt lat="55.7744149" lon="49.1622767"><time>2022-10-29T10:27:09.887</time></trkpt><trkpt lat="55.7744851" lon="49.1622161"><time>2022-10-29T10:27:11.887</time></trkpt><trkpt lat="55.7745599" lon="49.1621589"><time>2022-10-29T10:27:13.880</time></trkpt><trkpt lat="55.7746315" lon="49.1620967"><time>2022-10-29T10:27:15.880</time></trkpt><trkpt lat="55.7746970" lon="49.1620335"><time>2022-10-29T10:27:17.887</time></trkpt><trkpt lat="55.7747501" lon="49.1619862"><time>2022-10-29T10:27:19.887</time></trkpt><trkpt lat="55.7747953" lon="49.1619445"><time>2022-10-29T10:27:21.887</time></trkpt><trkpt lat="55.7748296" lon="49.1618496"><time>2022-10-29T10:27:23.893</time></trkpt><trkpt lat="55.7748097" lon="49.1617158"><time>2022-10-29T10:27:25.880</time></trkpt><trkpt lat="55.7747740" lon="49.1615803"><time>2022-10-29T10:27:27.883</time></trkpt><trkpt lat="55.7747470" lon="49.1614569"><time>2022-10-29T10:27:29.890</time></trkpt><trkpt lat="55.7747173" lon="49.1613365"><time>2022-10-29T10:27:31.890</time></trkpt><trkpt lat="55.7746865" lon="49.1612069"><time>2022-10-29T10:27:33.890</time></trkpt><trkpt lat="55.7746630" lon="49.1610745"><time>2022-10-29T10:27:35.887</time></trkpt><trkpt lat="55.7746401" lon="49.1609427"><time>2022-10-29T10:27:37.897</time></trkpt><trkpt lat="55.7746206" lon="49.1608246"><time>2022-10-29T10:27:39.890</time></trkpt><trkpt lat="55.7746025" lon="49.1607131"><time>2022-10-29T10:27:41.893</time></trkpt><trkpt lat="55.7745837" lon="49.1605962"><time>2022-10-29T10:27:43.887</time></trkpt><trkpt lat="55.7745655" lon="49.1604853"><time>2022-10-29T10:27:45.917</time></trkpt><trkpt lat="55.7745409" lon="49.1603655"><time>2022-10-29T10:27:47.890</time></trkpt><trkpt lat="55.7745221" lon="49.1602311"><time>2022-10-29T10:27:49.887</time></trkpt><trkpt lat="55.7745172" lon="49.1600852"><time>2022-10-29T10:27:51.887</time></trkpt><trkpt lat="55.7745150" lon="49.1599480"><time>2022-10-29T10:27:53.897</time></trkpt><trkpt lat="55.7745134" lon="49.1597960"><time>2022-10-29T10:27:55.893</time></trkpt><trkpt lat="55.7745021" lon="49.1596339"><time>2022-10-29T10:27:57.890</time></trkpt><trkpt lat="55.7744970" lon="49.1594841"><time>2022-10-29T10:27:59.903</time></trkpt><trkpt lat="55.7744912" lon="49.1593251"><time>2022-10-29T10:28:01.890</time></trkpt><trkpt lat="55.7744901" lon="49.1592428"><time>2022-10-29T10:28:02.893</time></trkpt><trkpt lat="55.7744881" lon="49.1591612"><time>2022-10-29T10:28:03.893</time></trkpt><trkpt lat="55.7744882" lon="49.1590723"><time>2022-10-29T10:28:04.890</time></trkpt><trkpt lat="55.7744837" lon="49.1589904"><time>2022-10-29T10:28:05.903</time></trkpt><trkpt lat="55.7744805" lon="49.1589054"><time>2022-10-29T10:28:06.897</time></trkpt><trkpt lat="55.7744733" lon="49.1587447"><time>2022-10-29T10:28:08.897</time></trkpt><trkpt lat="55.7744725" lon="49.1586551"><time>2022-10-29T10:28:09.893</time></trkpt><trkpt lat="55.7744659" lon="49.1585632"><time>2022-10-29T10:28:10.893</time></trkpt><trkpt lat="55.7744641" lon="49.1584780"><time>2022-10-29T10:28:11.897</time></trkpt><trkpt lat="55.7744601" lon="49.1583920"><time>2022-10-29T10:28:12.897</time></trkpt><trkpt lat="55.7744568" lon="49.1583037"><time>2022-10-29T10:28:13.897</time></trkpt><trkpt lat="55.7744500" lon="49.1581455"><time>2022-10-29T10:28:15.893</time></trkpt><trkpt lat="55.7744453" lon="49.1579725"><time>2022-10-29T10:28:17.897</time></trkpt><trkpt lat="55.7744438" lon="49.1578877"><time>2022-10-29T10:28:18.897</time></trkpt><trkpt lat="55.7744410" lon="49.1578007"><time>2022-10-29T10:28:19.897</time></trkpt><trkpt lat="55.7744377" lon="49.1577137"><time>2022-10-29T10:28:20.893</time></trkpt><trkpt lat="55.7744359" lon="49.1576213"><time>2022-10-29T10:28:21.897</time></trkpt><trkpt lat="55.7744332" lon="49.1575282"><time>2022-10-29T10:28:22.890</time></trkpt><trkpt lat="55.7744271" lon="49.1574431"><time>2022-10-29T10:28:23.887</time></trkpt><trkpt lat="55.7744190" lon="49.1573555"><time>2022-10-29T10:28:24.863</time></trkpt><trkpt lat="55.7744128" lon="49.1572683"><time>2022-10-29T10:28:25.870</time></trkpt><trkpt lat="55.7744092" lon="49.1571819"><time>2022-10-29T10:28:26.897</time></trkpt><trkpt lat="55.7744057" lon="49.1570937"><time>2022-10-29T10:28:27.867</time></trkpt><trkpt lat="55.7743987" lon="49.1570019"><time>2022-10-29T10:28:28.867</time></trkpt><trkpt lat="55.7743907" lon="49.1569151"><time>2022-10-29T10:28:29.870</time></trkpt><trkpt lat="55.7743832" lon="49.1568308"><time>2022-10-29T10:28:30.873</time></trkpt><trkpt lat="55.7743741" lon="49.1567413"><time>2022-10-29T10:28:31.870</time></trkpt><trkpt lat="55.7743675" lon="49.1566571"><time>2022-10-29T10:28:32.870</time></trkpt><trkpt lat="55.7743598" lon="49.1565664"><time>2022-10-29T10:28:33.887</time></trkpt><trkpt lat="55.7743488" lon="49.1564816"><time>2022-10-29T10:28:34.893</time></trkpt><trkpt lat="55.7743373" lon="49.1564008"><time>2022-10-29T10:28:35.880</time></trkpt><trkpt lat="55.7743249" lon="49.1563207"><time>2022-10-29T10:28:36.893</time></trkpt><trkpt lat="55.7743118" lon="49.1562401"><time>2022-10-29T10:28:37.890</time></trkpt><trkpt lat="55.7742997" lon="49.1561595"><time>2022-10-29T10:28:38.920</time></trkpt><trkpt lat="55.7742952" lon="49.1561104"><time>2022-10-29T10:28:40.060</time></trkpt><trkpt lat="55.7742808" lon="49.1560126"><time>2022-10-29T10:28:40.897</time></trkpt><trkpt lat="55.7742671" lon="49.1559345"><time>2022-10-29T10:28:41.900</time></trkpt><trkpt lat="55.7742481" lon="49.1557852"><time>2022-10-29T10:28:43.893</time></trkpt><trkpt lat="55.7742226" lon="49.1556347"><time>2022-10-29T10:28:45.887</time></trkpt><trkpt lat="55.7742101" lon="49.1555581"><time>2022-10-29T10:28:46.887</time></trkpt><trkpt lat="55.7741981" lon="49.1554801"><time>2022-10-29T10:28:47.900</time></trkpt><trkpt lat="55.7741757" lon="49.1553250"><time>2022-10-29T10:28:49.860</time></trkpt><trkpt lat="55.7741642" lon="49.1552476"><time>2022-10-29T10:28:50.897</time></trkpt><trkpt lat="55.7741543" lon="49.1551685"><time>2022-10-29T10:28:51.890</time></trkpt><trkpt lat="55.7741414" lon="49.1550919"><time>2022-10-29T10:28:52.883</time></trkpt><trkpt lat="55.7741235" lon="49.1550170"><time>2022-10-29T10:28:53.890</time></trkpt><trkpt lat="55.7740968" lon="49.1548649"><time>2022-10-29T10:28:55.887</time></trkpt><trkpt lat="55.7740795" lon="49.1547125"><time>2022-10-29T10:28:57.890</time></trkpt><trkpt lat="55.7740531" lon="49.1545596"><time>2022-10-29T10:28:59.910</time></trkpt><trkpt lat="55.7740484" lon="49.1545284"><time>2022-10-29T10:29:00.917</time></trkpt><trkpt lat="55.7740336" lon="49.1544104"><time>2022-10-29T10:29:01.903</time></trkpt><trkpt lat="55.7740146" lon="49.1542612"><time>2022-10-29T10:29:03.897</time></trkpt><trkpt lat="55.7739998" lon="49.1541073"><time>2022-10-29T10:29:05.907</time></trkpt><trkpt lat="55.7739836" lon="49.1539530"><time>2022-10-29T10:29:07.900</time></trkpt><trkpt lat="55.7739624" lon="49.1538038"><time>2022-10-29T10:29:09.910</time></trkpt><trkpt lat="55.7739629" lon="49.1537696"><time>2022-10-29T10:29:10.837</time></trkpt><trkpt lat="55.7739487" lon="49.1536663"><time>2022-10-29T10:29:11.870</time></trkpt><trkpt lat="55.7739301" lon="49.1535308"><time>2022-10-29T10:29:13.863</time></trkpt><trkpt lat="55.7738986" lon="49.1534101"><time>2022-10-29T10:29:15.867</time></trkpt><trkpt lat="55.7738501" lon="49.1533424"><time>2022-10-29T10:29:17.883</time></trkpt><trkpt lat="55.7738501" lon="49.1533424"><time>2022-10-29T10:29:17.937</time></trkpt><trkpt lat="55.7738044" lon="49.1533377"><time>2022-10-29T10:29:36.910</time></trkpt><trkpt lat="55.7738032" lon="49.1533372"><time>2022-10-29T10:29:38.037</time></trkpt><trkpt lat="55.7738502" lon="49.1533542"><time>2022-10-29T10:31:57.913</time></trkpt><trkpt lat="55.7738766" lon="49.1532805"><time>2022-10-29T10:31:59.917</time></trkpt><trkpt lat="55.7738625" lon="49.1531601"><time>2022-10-29T10:32:02.920</time></trkpt><trkpt lat="55.7738373" lon="49.1530774"><time>2022-10-29T10:32:05.910</time></trkpt><trkpt lat="55.7737817" lon="49.1530480"><time>2022-10-29T10:32:08.910</time></trkpt><trkpt lat="55.7737063" lon="49.1530830"><time>2022-10-29T10:32:10.913</time></trkpt><trkpt lat="55.7736359" lon="49.1531713"><time>2022-10-29T10:32:12.917</time></trkpt><trkpt lat="55.7735664" lon="49.1532674"><time>2022-10-29T10:32:14.913</time></trkpt><trkpt lat="55.7734989" lon="49.1533617"><time>2022-10-29T10:32:16.910</time></trkpt><trkpt lat="55.7734638" lon="49.1534130"><time>2022-10-29T10:32:17.913</time></trkpt><trkpt lat="55.7734300" lon="49.1534674"><time>2022-10-29T10:32:18.920</time></trkpt><trkpt lat="55.7733966" lon="49.1535236"><time>2022-10-29T10:32:19.917</time></trkpt><trkpt lat="55.7733629" lon="49.1535796"><time>2022-10-29T10:32:20.913</time></trkpt><trkpt lat="55.7733201" lon="49.1536426"><time>2022-10-29T10:32:21.917</time></trkpt><trkpt lat="55.7732532" lon="49.1537478"><time>2022-10-29T10:32:23.907</time></trkpt><trkpt lat="55.7731891" lon="49.1538473"><time>2022-10-29T10:32:25.873</time></trkpt><trkpt lat="55.7731208" lon="49.1539511"><time>2022-10-29T10:32:27.917</time></trkpt><trkpt lat="55.7730626" lon="49.1540557"><time>2022-10-29T10:32:29.907</time></trkpt><trkpt lat="55.7729988" lon="49.1541676"><time>2022-10-29T10:32:31.937</time></trkpt><trkpt lat="55.7729370" lon="49.1542839"><time>2022-10-29T10:32:33.917</time></trkpt><trkpt lat="55.7728741" lon="49.1543882"><time>2022-10-29T10:32:35.917</time></trkpt><trkpt lat="55.7728111" lon="49.1544724"><time>2022-10-29T10:32:37.907</time></trkpt><trkpt lat="55.7727452" lon="49.1545337"><time>2022-10-29T10:32:39.907</time></trkpt><trkpt lat="55.7726986" lon="49.1544466"><time>2022-10-29T10:32:41.910</time></trkpt><trkpt lat="55.7727006" lon="49.1543662"><time>2022-10-29T10:32:42.917</time></trkpt><trkpt lat="55.7727110" lon="49.1542855"><time>2022-10-29T10:32:43.907</time></trkpt><trkpt lat="55.7727283" lon="49.1541971"><time>2022-10-29T10:32:44.910</time></trkpt><trkpt lat="55.7727507" lon="49.1540989"><time>2022-10-29T10:32:45.913</time></trkpt><trkpt lat="55.7727749" lon="49.1540016"><time>2022-10-29T10:32:46.913</time></trkpt><trkpt lat="55.7727963" lon="49.1539030"><time>2022-10-29T10:32:47.910</time></trkpt><trkpt lat="55.7728259" lon="49.1537935"><time>2022-10-29T10:32:48.907</time></trkpt><trkpt lat="55.7728553" lon="49.1536798"><time>2022-10-29T10:32:49.907</time></trkpt><trkpt lat="55.7728896" lon="49.1535553"><time>2022-10-29T10:32:50.907</time></trkpt><trkpt lat="55.7729232" lon="49.1534344"><time>2022-10-29T10:32:51.907</time></trkpt><trkpt lat="55.7729621" lon="49.1533032"><time>2022-10-29T10:32:52.907</time></trkpt><trkpt lat="55.7729984" lon="49.1531732"><time>2022-10-29T10:32:53.907</time></trkpt><trkpt lat="55.7730371" lon="49.1530350"><time>2022-10-29T10:32:54.907</time></trkpt><trkpt lat="55.7730808" lon="49.1528980"><time>2022-10-29T10:32:55.897</time></trkpt><trkpt lat="55.7731293" lon="49.1527593"><time>2022-10-29T10:32:56.907</time></trkpt><trkpt lat="55.7731784" lon="49.1526306"><time>2022-10-29T10:32:57.910</time></trkpt><trkpt lat="55.7732337" lon="49.1524954"><time>2022-10-29T10:32:58.910</time></trkpt><trkpt lat="55.7732940" lon="49.1523612"><time>2022-10-29T10:32:59.917</time></trkpt><trkpt lat="55.7733554" lon="49.1522248"><time>2022-10-29T10:33:00.940</time></trkpt><trkpt lat="55.7734223" lon="49.1520872"><time>2022-10-29T10:33:01.907</time></trkpt><trkpt lat="55.7734884" lon="49.1519533"><time>2022-10-29T10:33:02.910</time></trkpt><trkpt lat="55.7735563" lon="49.1518132"><time>2022-10-29T10:33:03.920</time></trkpt><trkpt lat="55.7736244" lon="49.1516760"><time>2022-10-29T10:33:04.913</time></trkpt><trkpt lat="55.7736924" lon="49.1515401"><time>2022-10-29T10:33:05.930</time></trkpt><trkpt lat="55.7737580" lon="49.1514073"><time>2022-10-29T10:33:06.907</time></trkpt><trkpt lat="55.7738247" lon="49.1512756"><time>2022-10-29T10:33:07.907</time></trkpt><trkpt lat="55.7738903" lon="49.1511495"><time>2022-10-29T10:33:08.903</time></trkpt><trkpt lat="55.7739496" lon="49.1510203"><time>2022-10-29T10:33:09.903</time></trkpt><trkpt lat="55.7740107" lon="49.1509014"><time>2022-10-29T10:33:10.920</time></trkpt><trkpt lat="55.7740710" lon="49.1507860"><time>2022-10-29T10:33:11.913</time></trkpt><trkpt lat="55.7741302" lon="49.1506657"><time>2022-10-29T10:33:12.910</time></trkpt><trkpt lat="55.7741912" lon="49.1505485"><time>2022-10-29T10:33:13.910</time></trkpt><trkpt lat="55.7742500" lon="49.1504355"><time>2022-10-29T10:33:14.903</time></trkpt><trkpt lat="55.7743096" lon="49.1503297"><time>2022-10-29T10:33:15.920</time></trkpt><trkpt lat="55.7743684" lon="49.1502192"><time>2022-10-29T10:33:16.920</time></trkpt><trkpt lat="55.7744208" lon="49.1501042"><time>2022-10-29T10:33:17.917</time></trkpt><trkpt lat="55.7744687" lon="49.1499828"><time>2022-10-29T10:33:18.913</time></trkpt><trkpt lat="55.7745077" lon="49.1498416"><time>2022-10-29T10:33:19.907</time></trkpt><trkpt lat="55.7745358" lon="49.1496998"><time>2022-10-29T10:33:20.907</time></trkpt><trkpt lat="55.7745540" lon="49.1495616"><time>2022-10-29T10:33:21.917</time></trkpt><trkpt lat="55.7745702" lon="49.1494234"><time>2022-10-29T10:33:22.920</time></trkpt><trkpt lat="55.7745887" lon="49.1492900"><time>2022-10-29T10:33:23.907</time></trkpt><trkpt lat="55.7746056" lon="49.1491523"><time>2022-10-29T10:33:24.917</time></trkpt><trkpt lat="55.7746222" lon="49.1490208"><time>2022-10-29T10:33:25.920</time></trkpt><trkpt lat="55.7746364" lon="49.1488946"><time>2022-10-29T10:33:26.917</time></trkpt><trkpt lat="55.7746457" lon="49.1487696"><time>2022-10-29T10:33:27.913</time></trkpt><trkpt lat="55.7746652" lon="49.1486475"><time>2022-10-29T10:33:28.920</time></trkpt><trkpt lat="55.7746926" lon="49.1485307"><time>2022-10-29T10:33:29.917</time></trkpt><trkpt lat="55.7747315" lon="49.1484268"><time>2022-10-29T10:33:30.913</time></trkpt><trkpt lat="55.7747730" lon="49.1483181"><time>2022-10-29T10:33:31.920</time></trkpt><trkpt lat="55.7748111" lon="49.1482183"><time>2022-10-29T10:33:32.913</time></trkpt><trkpt lat="55.7748600" lon="49.1481197"><time>2022-10-29T10:33:33.903</time></trkpt><trkpt lat="55.7749072" lon="49.1480108"><time>2022-10-29T10:33:34.907</time></trkpt><trkpt lat="55.7749568" lon="49.1479020"><time>2022-10-29T10:33:35.913</time></trkpt><trkpt lat="55.7750067" lon="49.1477917"><time>2022-10-29T10:33:36.910</time></trkpt><trkpt lat="55.7750524" lon="49.1476756"><time>2022-10-29T10:33:37.917</time></trkpt><trkpt lat="55.7750944" lon="49.1475489"><time>2022-10-29T10:33:38.913</time></trkpt><trkpt lat="55.7751257" lon="49.1474180"><time>2022-10-29T10:33:39.907</time></trkpt><trkpt lat="55.7751532" lon="49.1472820"><time>2022-10-29T10:33:40.907</time></trkpt><trkpt lat="55.7751762" lon="49.1471522"><time>2022-10-29T10:33:41.903</time></trkpt><trkpt lat="55.7752067" lon="49.1470337"><time>2022-10-29T10:33:42.900</time></trkpt><trkpt lat="55.7752451" lon="49.1469336"><time>2022-10-29T10:33:43.907</time></trkpt><trkpt lat="55.7752882" lon="49.1468353"><time>2022-10-29T10:33:44.907</time></trkpt><trkpt lat="55.7753311" lon="49.1467376"><time>2022-10-29T10:33:45.910</time></trkpt><trkpt lat="55.7753780" lon="49.1466389"><time>2022-10-29T10:33:46.937</time></trkpt><trkpt lat="55.7754075" lon="49.1465817"><time>2022-10-29T10:33:48.060</time></trkpt><trkpt lat="55.7754642" lon="49.1464618"><time>2022-10-29T10:33:48.887</time></trkpt><trkpt lat="55.7755054" lon="49.1463675"><time>2022-10-29T10:33:49.900</time></trkpt><trkpt lat="55.7755457" lon="49.1462699"><time>2022-10-29T10:33:50.897</time></trkpt><trkpt lat="55.7755913" lon="49.1461800"><time>2022-10-29T10:33:51.890</time></trkpt><trkpt lat="55.7756339" lon="49.1460909"><time>2022-10-29T10:33:52.897</time></trkpt><trkpt lat="55.7756811" lon="49.1459953"><time>2022-10-29T10:33:53.907</time></trkpt><trkpt lat="55.7757274" lon="49.1459015"><time>2022-10-29T10:33:54.897</time></trkpt><trkpt lat="55.7757705" lon="49.1458087"><time>2022-10-29T10:33:55.907</time></trkpt><trkpt lat="55.7758106" lon="49.1457139"><time>2022-10-29T10:33:56.893</time></trkpt><trkpt lat="55.7758586" lon="49.1456289"><time>2022-10-29T10:33:57.897</time></trkpt><trkpt lat="55.7758986" lon="49.1455363"><time>2022-10-29T10:33:58.890</time></trkpt><trkpt lat="55.7759381" lon="49.1454544"><time>2022-10-29T10:33:59.887</time></trkpt><trkpt lat="55.7759791" lon="49.1453694"><time>2022-10-29T10:34:00.907</time></trkpt><trkpt lat="55.7760227" lon="49.1452804"><time>2022-10-29T10:34:01.893</time></trkpt><trkpt lat="55.7760670" lon="49.1451969"><time>2022-10-29T10:34:02.910</time></trkpt><trkpt lat="55.7761126" lon="49.1451078"><time>2022-10-29T10:34:03.903</time></trkpt><trkpt lat="55.7761577" lon="49.1450155"><time>2022-10-29T10:34:04.893</time></trkpt><trkpt lat="55.7761980" lon="49.1449308"><time>2022-10-29T10:34:05.900</time></trkpt><trkpt lat="55.7762432" lon="49.1448542"><time>2022-10-29T10:34:06.890</time></trkpt><trkpt lat="55.7762794" lon="49.1447694"><time>2022-10-29T10:34:07.883</time></trkpt><trkpt lat="55.7763085" lon="49.1446853"><time>2022-10-29T10:34:08.887</time></trkpt><trkpt lat="55.7763477" lon="49.1446207"><time>2022-10-29T10:34:09.887</time></trkpt><trkpt lat="55.7763861" lon="49.1445383"><time>2022-10-29T10:34:10.890</time></trkpt><trkpt lat="55.7764230" lon="49.1444848"><time>2022-10-29T10:34:12.890</time></trkpt><trkpt lat="55.7764003" lon="49.1444078"><time>2022-10-29T10:34:17.907</time></trkpt><trkpt lat="55.7763711" lon="49.1443356"><time>2022-10-29T10:34:22.910</time></trkpt><trkpt lat="55.7763377" lon="49.1442554"><time>2022-10-29T10:34:26.907</time></trkpt><trkpt lat="55.7762976" lon="49.1441898"><time>2022-10-29T10:34:30.900</time></trkpt><trkpt lat="55.7762624" lon="49.1441097"><time>2022-10-29T10:34:32.863</time></trkpt><trkpt lat="55.7762118" lon="49.1440253"><time>2022-10-29T10:34:34.907</time></trkpt><trkpt lat="55.7761564" lon="49.1439535"><time>2022-10-29T10:34:36.900</time></trkpt><trkpt lat="55.7760937" lon="49.1438751"><time>2022-10-29T10:34:38.927</time></trkpt><trkpt lat="55.7760751" lon="49.1438979"><time>2022-10-29T10:34:40.070</time></trkpt><trkpt lat="55.7760368" lon="49.1438525"><time>2022-10-29T10:34:40.883</time></trkpt><trkpt lat="55.7760120" lon="49.1437551"><time>2022-10-29T10:34:41.887</time></trkpt><trkpt lat="55.7759830" lon="49.1436919"><time>2022-10-29T10:34:42.893</time></trkpt><trkpt lat="55.7759528" lon="49.1436309"><time>2022-10-29T10:34:43.877</time></trkpt><trkpt lat="55.7758934" lon="49.1435464"><time>2022-10-29T10:34:45.887</time></trkpt><trkpt lat="55.7758349" lon="49.1434702"><time>2022-10-29T10:34:47.897</time></trkpt><trkpt lat="55.7757693" lon="49.1433654"><time>2022-10-29T10:34:49.887</time></trkpt><trkpt lat="55.7757076" lon="49.1433355"><time>2022-10-29T10:34:51.880</time></trkpt><trkpt lat="55.7756516" lon="49.1433232"><time>2022-10-29T10:34:53.907</time></trkpt><trkpt lat="55.7756374" lon="49.1433260"><time>2022-10-29T10:34:55.003</time></trkpt><trkpt lat="55.7755968" lon="49.1434187"><time>2022-10-29T10:34:56.893</time></trkpt><trkpt lat="55.7755491" lon="49.1435204"><time>2022-10-29T10:34:58.883</time></trkpt><trkpt lat="55.7754992" lon="49.1436022"><time>2022-10-29T10:35:00.863</time></trkpt><trkpt lat="55.7754545" lon="49.1436588"><time>2022-10-29T10:35:02.887</time></trkpt><trkpt lat="55.7753968" lon="49.1436899"><time>2022-10-29T10:35:04.883</time></trkpt><trkpt lat="55.7753403" lon="49.1436669"><time>2022-10-29T10:35:06.907</time></trkpt><trkpt lat="55.7753403" lon="49.1436669"><time>2022-10-29T10:35:06.963</time></trkpt><trkpt lat="55.7752853" lon="49.1436331"><time>2022-10-29T10:35:09.910</time></trkpt><trkpt lat="55.7752799" lon="49.1436246"><time>2022-10-29T10:35:11.043</time></trkpt><trkpt lat="55.7752933" lon="49.1435454"><time>2022-10-29T10:35:14.900</time></trkpt><trkpt lat="55.7752483" lon="49.1435361"><time>2022-10-29T10:35:28.897</time></trkpt><trkpt lat="55.7751874" lon="49.1435015"><time>2022-10-29T10:35:31.890</time></trkpt><trkpt lat="55.7751642" lon="49.1434216"><time>2022-10-29T10:35:36.920</time></trkpt><trkpt lat="55.7751297" lon="49.1433581"><time>2022-10-29T10:35:42.910</time></trkpt><trkpt lat="55.7751379" lon="49.1432733"><time>2022-10-29T10:35:45.913</time></trkpt><trkpt lat="55.7751680" lon="49.1431897"><time>2022-10-29T10:35:49.913</time></trkpt><trkpt lat="55.7751989" lon="49.1431144"><time>2022-10-29T10:35:53.917</time></trkpt><trkpt lat="55.7752297" lon="49.1430447"><time>2022-10-29T10:35:56.873</time></trkpt><trkpt lat="55.7752581" lon="49.1429703"><time>2022-10-29T10:35:59.873</time></trkpt><trkpt lat="55.7752867" lon="49.1428840"><time>2022-10-29T10:36:03.870</time></trkpt><trkpt lat="55.7753284" lon="49.1428213"><time>2022-10-29T10:37:19.913</time></trkpt><trkpt lat="55.7753167" lon="49.1427031"><time>2022-10-29T10:37:22.907</time></trkpt><trkpt lat="55.7752604" lon="49.1426187"><time>2022-10-29T10:37:24.907</time></trkpt><trkpt lat="55.7752060" lon="49.1425642"><time>2022-10-29T10:37:26.910</time></trkpt><trkpt lat="55.7751512" lon="49.1424863"><time>2022-10-29T10:37:28.910</time></trkpt><trkpt lat="55.7750942" lon="49.1423814"><time>2022-10-29T10:37:30.907</time></trkpt><trkpt lat="55.7750328" lon="49.1422887"><time>2022-10-29T10:37:32.917</time></trkpt><trkpt lat="55.7749730" lon="49.1422059"><time>2022-10-29T10:37:34.900</time></trkpt><trkpt lat="55.7749199" lon="49.1421477"><time>2022-10-29T10:37:36.903</time></trkpt><trkpt lat="55.7748547" lon="49.1420770"><time>2022-10-29T10:37:38.923</time></trkpt><trkpt lat="55.7747905" lon="49.1419881"><time>2022-10-29T10:37:40.910</time></trkpt><trkpt lat="55.7747355" lon="49.1419065"><time>2022-10-29T10:37:42.920</time></trkpt><trkpt lat="55.7746724" lon="49.1418697"><time>2022-10-29T10:37:45.907</time></trkpt><trkpt lat="55.7746064" lon="49.1418102"><time>2022-10-29T10:37:47.917</time></trkpt><trkpt lat="55.7745508" lon="49.1417258"><time>2022-10-29T10:37:49.920</time></trkpt><trkpt lat="55.7744864" lon="49.1416268"><time>2022-10-29T10:37:51.913</time></trkpt><trkpt lat="55.7744288" lon="49.1415368"><time>2022-10-29T10:37:53.927</time></trkpt><trkpt lat="55.7743803" lon="49.1414635"><time>2022-10-29T10:37:55.910</time></trkpt><trkpt lat="55.7743308" lon="49.1413919"><time>2022-10-29T10:37:57.913</time></trkpt><trkpt lat="55.7742707" lon="49.1413029"><time>2022-10-29T10:37:59.907</time></trkpt><trkpt lat="55.7742161" lon="49.1412176"><time>2022-10-29T10:38:01.913</time></trkpt><trkpt lat="55.7741914" lon="49.1411451"><time>2022-10-29T10:38:03.910</time></trkpt><trkpt lat="55.7741841" lon="49.1410659"><time>2022-10-29T10:38:17.870</time></trkpt><trkpt lat="55.7741491" lon="49.1410083"><time>2022-10-29T10:38:27.903</time></trkpt><trkpt lat="55.7740928" lon="49.1409470"><time>2022-10-29T10:38:29.903</time></trkpt><trkpt lat="55.7740342" lon="49.1408533"><time>2022-10-29T10:38:31.907</time></trkpt><trkpt lat="55.7739754" lon="49.1407507"><time>2022-10-29T10:38:33.917</time></trkpt><trkpt lat="55.7739102" lon="49.1406586"><time>2022-10-29T10:38:35.910</time></trkpt><trkpt lat="55.7738429" lon="49.1405616"><time>2022-10-29T10:38:37.890</time></trkpt><trkpt lat="55.7737722" lon="49.1404689"><time>2022-10-29T10:38:39.917</time></trkpt><trkpt lat="55.7737011" lon="49.1403769"><time>2022-10-29T10:38:41.937</time></trkpt><trkpt lat="55.7736819" lon="49.1403516"><time>2022-10-29T10:38:43.053</time></trkpt><trkpt lat="55.7736417" lon="49.1402917"><time>2022-10-29T10:38:43.897</time></trkpt><trkpt lat="55.7735765" lon="49.1401882"><time>2022-10-29T10:38:45.887</time></trkpt><trkpt lat="55.7735417" lon="49.1401344"><time>2022-10-29T10:38:46.897</time></trkpt><trkpt lat="55.7734732" lon="49.1400424"><time>2022-10-29T10:38:48.877</time></trkpt><trkpt lat="55.7734101" lon="49.1399560"><time>2022-10-29T10:38:50.883</time></trkpt><trkpt lat="55.7733467" lon="49.1398676"><time>2022-10-29T10:38:52.880</time></trkpt><trkpt lat="55.7732881" lon="49.1398349"><time>2022-10-29T10:38:54.893</time></trkpt><trkpt lat="55.7732367" lon="49.1398153"><time>2022-10-29T10:38:56.880</time></trkpt><trkpt lat="55.7731931" lon="49.1397739"><time>2022-10-29T10:39:10.887</time></trkpt><trkpt lat="55.7731428" lon="49.1397035"><time>2022-10-29T10:39:12.897</time></trkpt><trkpt lat="55.7730956" lon="49.1396292"><time>2022-10-29T10:39:14.887</time></trkpt><trkpt lat="55.7730380" lon="49.1395474"><time>2022-10-29T10:39:16.900</time></trkpt><trkpt lat="55.7729723" lon="49.1394482"><time>2022-10-29T10:39:18.903</time></trkpt><trkpt lat="55.7729349" lon="49.1393758"><time>2022-10-29T10:39:19.900</time></trkpt><trkpt lat="55.7728989" lon="49.1393183"><time>2022-10-29T10:39:20.900</time></trkpt><trkpt lat="55.7728656" lon="49.1392611"><time>2022-10-29T10:39:21.920</time></trkpt><trkpt lat="55.7728504" lon="49.1392386"><time>2022-10-29T10:39:22.913</time></trkpt><trkpt lat="55.7728040" lon="49.1391457"><time>2022-10-29T10:39:23.893</time></trkpt><trkpt lat="55.7727710" lon="49.1390799"><time>2022-10-29T10:39:24.897</time></trkpt><trkpt lat="55.7727287" lon="49.1390310"><time>2022-10-29T10:39:25.890</time></trkpt><trkpt lat="55.7726671" lon="49.1391512"><time>2022-10-29T10:39:27.893</time></trkpt><trkpt lat="55.7726138" lon="49.1392118"><time>2022-10-29T10:39:29.893</time></trkpt><trkpt lat="55.7725521" lon="49.1393172"><time>2022-10-29T10:39:31.890</time></trkpt><trkpt lat="55.7725093" lon="49.1393990"><time>2022-10-29T10:39:33.860</time></trkpt><trkpt lat="55.7724574" lon="49.1394922"><time>2022-10-29T10:39:35.887</time></trkpt><trkpt lat="55.7724121" lon="49.1396018"><time>2022-10-29T10:39:37.917</time></trkpt><trkpt lat="55.7724107" lon="49.1396241"><time>2022-10-29T10:39:39.027</time></trkpt><trkpt lat="55.7723602" lon="49.1396436"><time>2022-10-29T10:39:40.897</time></trkpt><trkpt lat="55.7722727" lon="49.1396805"><time>2022-10-29T10:39:42.887</time></trkpt><trkpt lat="55.7722276" lon="49.1396958"><time>2022-10-29T10:39:43.897</time></trkpt><trkpt lat="55.7721408" lon="49.1397250"><time>2022-10-29T10:39:45.907</time></trkpt><trkpt lat="55.7721408" lon="49.1397250"><time>2022-10-29T10:39:45.960</time></trkpt><trkpt lat="55.7720840" lon="49.1397889"><time>2022-10-29T10:39:47.903</time></trkpt><trkpt lat="55.7720687" lon="49.1398345"><time>2022-10-29T10:39:49.017</time></trkpt><trkpt lat="55.7720206" lon="49.1398193"><time>2022-10-29T10:39:51.873</time></trkpt><trkpt lat="55.7719812" lon="49.1397239"><time>2022-10-29T10:40:23.907</time></trkpt><trkpt lat="55.7720068" lon="49.1396278"><time>2022-10-29T10:40:25.860</time></trkpt><trkpt lat="55.7720640" lon="49.1396260"><time>2022-10-29T10:40:27.863</time></trkpt><trkpt lat="55.7720781" lon="49.1397176"><time>2022-10-29T10:40:30.863</time></trkpt><trkpt lat="55.7721267" lon="49.1397399"><time>2022-10-29T10:42:02.897</time></trkpt><trkpt lat="55.7721858" lon="49.1397122"><time>2022-10-29T10:42:06.893</time></trkpt><trkpt lat="55.7722141" lon="49.1397955"><time>2022-10-29T10:42:11.900</time></trkpt><trkpt lat="55.7722800" lon="49.1397415"><time>2022-10-29T10:42:16.903</time></trkpt><trkpt lat="55.7723267" lon="49.1397044"><time>2022-10-29T10:42:17.877</time></trkpt><trkpt lat="55.7723736" lon="49.1396698"><time>2022-10-29T10:42:18.900</time></trkpt><trkpt lat="55.7724416" lon="49.1395922"><time>2022-10-29T10:42:20.910</time></trkpt><trkpt lat="55.7724780" lon="49.1395126"><time>2022-10-29T10:42:22.900</time></trkpt><trkpt lat="55.7725341" lon="49.1394030"><time>2022-10-29T10:42:24.900</time></trkpt><trkpt lat="55.7725854" lon="49.1393001"><time>2022-10-29T10:42:26.917</time></trkpt><trkpt lat="55.7726353" lon="49.1391915"><time>2022-10-29T10:42:28.903</time></trkpt><trkpt lat="55.7727110" lon="49.1391285"><time>2022-10-29T10:42:30.893</time></trkpt><trkpt lat="55.7727830" lon="49.1391809"><time>2022-10-29T10:42:32.903</time></trkpt><trkpt lat="55.7728442" lon="49.1392784"><time>2022-10-29T10:42:34.903</time></trkpt><trkpt lat="55.7729053" lon="49.1393798"><time>2022-10-29T10:42:36.910</time></trkpt><trkpt lat="55.7729721" lon="49.1394707"><time>2022-10-29T10:42:38.903</time></trkpt><trkpt lat="55.7730236" lon="49.1395362"><time>2022-10-29T10:42:40.893</time></trkpt><trkpt lat="55.7729835" lon="49.1394754"><time>2022-10-29T10:42:51.903</time></trkpt><trkpt lat="55.7729739" lon="49.1393693"><time>2022-10-29T10:42:53.907</time></trkpt><trkpt lat="55.7730033" lon="49.1392660"><time>2022-10-29T10:42:55.903</time></trkpt><trkpt lat="55.7730617" lon="49.1391918"><time>2022-10-29T10:42:57.907</time></trkpt><trkpt lat="55.7731064" lon="49.1391298"><time>2022-10-29T10:42:59.913</time></trkpt><trkpt lat="55.7731477" lon="49.1390437"><time>2022-10-29T10:43:01.903</time></trkpt><trkpt lat="55.7731845" lon="49.1389403"><time>2022-10-29T10:43:03.900</time></trkpt><trkpt lat="55.7732096" lon="49.1388564"><time>2022-10-29T10:43:05.907</time></trkpt><trkpt lat="55.7732646" lon="49.1388378"><time>2022-10-29T10:43:08.907</time></trkpt><trkpt lat="55.7733085" lon="49.1388775"><time>2022-10-29T10:43:10.907</time></trkpt><trkpt lat="55.7733401" lon="49.1389494"><time>2022-10-29T10:43:42.907</time></trkpt><trkpt lat="55.7733730" lon="49.1390254"><time>2022-10-29T10:43:44.897</time></trkpt><trkpt lat="55.7734165" lon="49.1390902"><time>2022-10-29T10:43:46.900</time></trkpt><trkpt lat="55.7734647" lon="49.1391504"><time>2022-10-29T10:43:48.903</time></trkpt><trkpt lat="55.7735032" lon="49.1391934"><time>2022-10-29T10:43:50.907</time></trkpt><trkpt lat="55.7735458" lon="49.1392462"><time>2022-10-29T10:43:52.910</time></trkpt><trkpt lat="55.7735970" lon="49.1393204"><time>2022-10-29T10:43:54.907</time></trkpt><trkpt lat="55.7736484" lon="49.1394065"><time>2022-10-29T10:43:56.900</time></trkpt><trkpt lat="55.7736957" lon="49.1394896"><time>2022-10-29T10:43:58.903</time></trkpt><trkpt lat="55.7737455" lon="49.1395420"><time>2022-10-29T10:44:02.897</time></trkpt><trkpt lat="55.7737984" lon="49.1396157"><time>2022-10-29T10:44:05.897</time></trkpt><trkpt lat="55.7738338" lon="49.1396925"><time>2022-10-29T10:44:07.917</time></trkpt><trkpt lat="55.7738849" lon="49.1397803"><time>2022-10-29T10:44:09.910</time></trkpt><trkpt lat="55.7739318" lon="49.1398533"><time>2022-10-29T10:44:11.897</time></trkpt><trkpt lat="55.7739748" lon="49.1399176"><time>2022-10-29T10:44:13.900</time></trkpt><trkpt lat="55.7740214" lon="49.1399894"><time>2022-10-29T10:44:15.913</time></trkpt><trkpt lat="55.7740611" lon="49.1400562"><time>2022-10-29T10:44:17.903</time></trkpt><trkpt lat="55.7741149" lon="49.1401418"><time>2022-10-29T10:44:19.897</time></trkpt><trkpt lat="55.7741711" lon="49.1402189"><time>2022-10-29T10:44:21.897</time></trkpt><trkpt lat="55.7742289" lon="49.1402956"><time>2022-10-29T10:44:23.903</time></trkpt><trkpt lat="55.7742883" lon="49.1403861"><time>2022-10-29T10:44:25.863</time></trkpt><trkpt lat="55.7743437" lon="49.1404723"><time>2022-10-29T10:44:27.860</time></trkpt><trkpt lat="55.7743921" lon="49.1405450"><time>2022-10-29T10:44:29.903</time></trkpt><trkpt lat="55.7744288" lon="49.1406060"><time>2022-10-29T10:44:32.870</time></trkpt><trkpt lat="55.7744783" lon="49.1406900"><time>2022-10-29T10:44:35.910</time></trkpt><trkpt lat="55.7745274" lon="49.1407748"><time>2022-10-29T10:44:37.890</time></trkpt><trkpt lat="55.7745719" lon="49.1408524"><time>2022-10-29T10:44:39.903</time></trkpt><trkpt lat="55.7746300" lon="49.1409339"><time>2022-10-29T10:44:41.900</time></trkpt><trkpt lat="55.7746892" lon="49.1410200"><time>2022-10-29T10:44:43.907</time></trkpt><trkpt lat="55.7747518" lon="49.1411060"><time>2022-10-29T10:44:45.910</time></trkpt><trkpt lat="55.7748159" lon="49.1411995"><time>2022-10-29T10:44:47.913</time></trkpt><trkpt lat="55.7748778" lon="49.1412854"><time>2022-10-29T10:44:49.903</time></trkpt><trkpt lat="55.7749374" lon="49.1413749"><time>2022-10-29T10:44:51.910</time></trkpt><trkpt lat="55.7750023" lon="49.1414668"><time>2022-10-29T10:44:53.860</time></trkpt><trkpt lat="55.7750725" lon="49.1415780"><time>2022-10-29T10:44:55.913</time></trkpt><trkpt lat="55.7751088" lon="49.1416395"><time>2022-10-29T10:44:56.880</time></trkpt><trkpt lat="55.7751451" lon="49.1416952"><time>2022-10-29T10:44:57.920</time></trkpt><trkpt lat="55.7751815" lon="49.1417632"><time>2022-10-29T10:44:58.910</time></trkpt><trkpt lat="55.7752548" lon="49.1418708"><time>2022-10-29T10:45:00.903</time></trkpt><trkpt lat="55.7752940" lon="49.1419208"><time>2022-10-29T10:45:01.907</time></trkpt><trkpt lat="55.7753301" lon="49.1419703"><time>2022-10-29T10:45:02.907</time></trkpt><trkpt lat="55.7753671" lon="49.1420175"><time>2022-10-29T10:45:03.867</time></trkpt><trkpt lat="55.7754310" lon="49.1421134"><time>2022-10-29T10:45:05.860</time></trkpt><trkpt lat="55.7754913" lon="49.1421790"><time>2022-10-29T10:45:07.913</time></trkpt><trkpt lat="55.7755269" lon="49.1422469"><time>2022-10-29T10:45:09.903</time></trkpt><trkpt lat="55.7755742" lon="49.1423094"><time>2022-10-29T10:45:11.907</time></trkpt><trkpt lat="55.7756355" lon="49.1423665"><time>2022-10-29T10:45:13.900</time></trkpt><trkpt lat="55.7756901" lon="49.1424423"><time>2022-10-29T10:45:15.907</time></trkpt><trkpt lat="55.7757427" lon="49.1425229"><time>2022-10-29T10:45:17.900</time></trkpt><trkpt lat="55.7758072" lon="49.1426079"><time>2022-10-29T10:45:19.903</time></trkpt><trkpt lat="55.7758737" lon="49.1427013"><time>2022-10-29T10:45:21.903</time></trkpt><trkpt lat="55.7759356" lon="49.1427865"><time>2022-10-29T10:45:23.900</time></trkpt><trkpt lat="55.7759963" lon="49.1428628"><time>2022-10-29T10:45:25.857</time></trkpt><trkpt lat="55.7760510" lon="49.1429212"><time>2022-10-29T10:45:27.903</time></trkpt><trkpt lat="55.7760948" lon="49.1429533"><time>2022-10-29T10:45:30.900</time></trkpt><trkpt lat="55.7761894" lon="49.1430153"><time>2022-10-29T10:45:32.903</time></trkpt><trkpt lat="55.7762596" lon="49.1430767"><time>2022-10-29T10:45:34.900</time></trkpt><trkpt lat="55.7763103" lon="49.1431468"><time>2022-10-29T10:45:36.910</time></trkpt><trkpt lat="55.7763637" lon="49.1432083"><time>2022-10-29T10:45:38.903</time></trkpt><trkpt lat="55.7764443" lon="49.1431570"><time>2022-10-29T10:45:40.907</time></trkpt><trkpt lat="55.7765200" lon="49.1430758"><time>2022-10-29T10:45:42.913</time></trkpt><trkpt lat="55.7765934" lon="49.1429720"><time>2022-10-29T10:45:44.903</time></trkpt><trkpt lat="55.7766508" lon="49.1428467"><time>2022-10-29T10:45:46.910</time></trkpt><trkpt lat="55.7766821" lon="49.1427813"><time>2022-10-29T10:45:47.910</time></trkpt><trkpt lat="55.7767156" lon="49.1427213"><time>2022-10-29T10:45:48.913</time></trkpt><trkpt lat="55.7767495" lon="49.1426588"><time>2022-10-29T10:45:49.907</time></trkpt><trkpt lat="55.7767765" lon="49.1425935"><time>2022-10-29T10:45:50.910</time></trkpt><trkpt lat="55.7768365" lon="49.1424754"><time>2022-10-29T10:45:52.890</time></trkpt><trkpt lat="55.7768664" lon="49.1424158"><time>2022-10-29T10:45:53.907</time></trkpt><trkpt lat="55.7769162" lon="49.1423038"><time>2022-10-29T10:45:55.880</time></trkpt><trkpt lat="55.7769692" lon="49.1422024"><time>2022-10-29T10:45:57.870</time></trkpt><trkpt lat="55.7770255" lon="49.1420842"><time>2022-10-29T10:45:59.873</time></trkpt><trkpt lat="55.7770593" lon="49.1420198"><time>2022-10-29T10:46:00.873</time></trkpt><trkpt lat="55.7770939" lon="49.1419477"><time>2022-10-29T10:46:01.873</time></trkpt><trkpt lat="55.7771299" lon="49.1418830"><time>2022-10-29T10:46:02.877</time></trkpt><trkpt lat="55.7771634" lon="49.1418125"><time>2022-10-29T10:46:03.877</time></trkpt><trkpt lat="55.7771991" lon="49.1417405"><time>2022-10-29T10:46:04.873</time></trkpt><trkpt lat="55.7772359" lon="49.1416706"><time>2022-10-29T10:46:05.917</time></trkpt><trkpt lat="55.7772737" lon="49.1416021"><time>2022-10-29T10:46:06.903</time></trkpt><trkpt lat="55.7773123" lon="49.1415335"><time>2022-10-29T10:46:07.910</time></trkpt><trkpt lat="55.7773436" lon="49.1414581"><time>2022-10-29T10:46:08.897</time></trkpt><trkpt lat="55.7773756" lon="49.1413962"><time>2022-10-29T10:46:09.903</time></trkpt><trkpt lat="55.7774119" lon="49.1413305"><time>2022-10-29T10:46:10.870</time></trkpt><trkpt lat="55.7774451" lon="49.1412705"><time>2022-10-29T10:46:11.893</time></trkpt><trkpt lat="55.7774743" lon="49.1412051"><time>2022-10-29T10:46:12.897</time></trkpt><trkpt lat="55.7775159" lon="49.1411436"><time>2022-10-29T10:46:13.907</time></trkpt><trkpt lat="55.7775503" lon="49.1410756"><time>2022-10-29T10:46:14.900</time></trkpt><trkpt lat="55.7775891" lon="49.1410156"><time>2022-10-29T10:46:15.903</time></trkpt><trkpt lat="55.7776153" lon="49.1409471"><time>2022-10-29T10:46:16.870</time></trkpt><trkpt lat="55.7776536" lon="49.1408848"><time>2022-10-29T10:46:17.887</time></trkpt><trkpt lat="55.7776851" lon="49.1408195"><time>2022-10-29T10:46:18.910</time></trkpt><trkpt lat="55.7777232" lon="49.1407469"><time>2022-10-29T10:46:19.903</time></trkpt><trkpt lat="55.7777580" lon="49.1406760"><time>2022-10-29T10:46:20.907</time></trkpt><trkpt lat="55.7777923" lon="49.1406051"><time>2022-10-29T10:46:21.910</time></trkpt><trkpt lat="55.7778297" lon="49.1405299"><time>2022-10-29T10:46:22.907</time></trkpt><trkpt lat="55.7778626" lon="49.1404566"><time>2022-10-29T10:46:23.900</time></trkpt><trkpt lat="55.7778994" lon="49.1403942"><time>2022-10-29T10:46:24.907</time></trkpt><trkpt lat="55.7779370" lon="49.1403253"><time>2022-10-29T10:46:25.903</time></trkpt><trkpt lat="55.7779756" lon="49.1402570"><time>2022-10-29T10:46:26.907</time></trkpt><trkpt lat="55.7780118" lon="49.1401928"><time>2022-10-29T10:46:27.910</time></trkpt><trkpt lat="55.7780455" lon="49.1401215"><time>2022-10-29T10:46:28.923</time></trkpt><trkpt lat="55.7780601" lon="49.1400796"><time>2022-10-29T10:46:30.057</time></trkpt><trkpt lat="55.7781099" lon="49.1399889"><time>2022-10-29T10:46:30.897</time></trkpt><trkpt lat="55.7781470" lon="49.1399130"><time>2022-10-29T10:46:31.897</time></trkpt><trkpt lat="55.7781832" lon="49.1398481"><time>2022-10-29T10:46:32.897</time></trkpt><trkpt lat="55.7782243" lon="49.1397774"><time>2022-10-29T10:46:33.897</time></trkpt><trkpt lat="55.7782599" lon="49.1397063"><time>2022-10-29T10:46:34.890</time></trkpt><trkpt lat="55.7782964" lon="49.1396280"><time>2022-10-29T10:46:35.883</time></trkpt><trkpt lat="55.7783313" lon="49.1395550"><time>2022-10-29T10:46:36.873</time></trkpt><trkpt lat="55.7783734" lon="49.1394812"><time>2022-10-29T10:46:37.857</time></trkpt><trkpt lat="55.7784105" lon="49.1394112"><time>2022-10-29T10:46:38.877</time></trkpt><trkpt lat="55.7784448" lon="49.1393408"><time>2022-10-29T10:46:39.883</time></trkpt><trkpt lat="55.7784746" lon="49.1392709"><time>2022-10-29T10:46:40.867</time></trkpt><trkpt lat="55.7785130" lon="49.1392033"><time>2022-10-29T10:46:41.860</time></trkpt><trkpt lat="55.7785437" lon="49.1391331"><time>2022-10-29T10:46:42.867</time></trkpt><trkpt lat="55.7785782" lon="49.1390740"><time>2022-10-29T10:46:43.870</time></trkpt><trkpt lat="55.7786114" lon="49.1390135"><time>2022-10-29T10:46:44.907</time></trkpt><trkpt lat="55.7786614" lon="49.1389421"><time>2022-10-29T10:46:46.900</time></trkpt><trkpt lat="55.7787123" lon="49.1388939"><time>2022-10-29T10:46:48.893</time></trkpt><trkpt lat="55.7787571" lon="49.1388151"><time>2022-10-29T10:46:51.923</time></trkpt><trkpt lat="55.7787559" lon="49.1388044"><time>2022-10-29T10:46:53.037</time></trkpt><trkpt lat="55.7787445" lon="49.1387063"><time>2022-10-29T10:46:54.910</time></trkpt><trkpt lat="55.7787724" lon="49.1386007"><time>2022-10-29T10:46:56.920</time></trkpt><trkpt lat="55.7788394" lon="49.1385403"><time>2022-10-29T10:46:58.903</time></trkpt><trkpt lat="55.7789100" lon="49.1384813"><time>2022-10-29T10:47:00.897</time></trkpt><trkpt lat="55.7789614" lon="49.1384151"><time>2022-10-29T10:47:02.897</time></trkpt><trkpt lat="55.7790048" lon="49.1383472"><time>2022-10-29T10:47:05.873</time></trkpt><trkpt lat="55.7790654" lon="49.1382846"><time>2022-10-29T10:47:08.897</time></trkpt><trkpt lat="55.7791126" lon="49.1382251"><time>2022-10-29T10:47:11.903</time></trkpt><trkpt lat="55.7791579" lon="49.1382456"><time>2022-10-29T10:47:21.907</time></trkpt><trkpt lat="55.7792241" lon="49.1382861"><time>2022-10-29T10:47:24.897</time></trkpt><trkpt lat="55.7792704" lon="49.1383391"><time>2022-10-29T10:47:26.947</time></trkpt><trkpt lat="55.7792913" lon="49.1383806"><time>2022-10-29T10:47:28.107</time></trkpt><trkpt lat="55.7792646" lon="49.1384837"><time>2022-10-29T10:47:30.877</time></trkpt><trkpt lat="55.7792211" lon="49.1385722"><time>2022-10-29T10:47:33.887</time></trkpt><trkpt lat="55.7791912" lon="49.1386434"><time>2022-10-29T10:47:35.890</time></trkpt><trkpt lat="55.7791511" lon="49.1387014"><time>2022-10-29T10:47:37.920</time></trkpt><trkpt lat="55.7791560" lon="49.1387216"><time>2022-10-29T10:47:39.027</time></trkpt><trkpt lat="55.7792017" lon="49.1387682"><time>2022-10-29T10:47:41.907</time></trkpt><trkpt lat="55.7792154" lon="49.1387959"><time>2022-10-29T10:47:43.037</time></trkpt><trkpt lat="55.7792616" lon="49.1388590"><time>2022-10-29T10:47:44.890</time></trkpt><trkpt lat="55.7793045" lon="49.1389162"><time>2022-10-29T10:47:46.890</time></trkpt><trkpt lat="55.7793436" lon="49.1389633"><time>2022-10-29T10:47:48.887</time></trkpt><trkpt lat="55.7793865" lon="49.1389932"><time>2022-10-29T10:47:51.897</time></trkpt><trkpt lat="55.7794328" lon="49.1389946"><time>2022-10-29T10:47:53.867</time></trkpt><trkpt lat="55.7794859" lon="49.1389978"><time>2022-10-29T10:47:55.873</time></trkpt><trkpt lat="55.7795335" lon="49.1389669"><time>2022-10-29T10:47:57.867</time></trkpt><trkpt lat="55.7795588" lon="49.1388702"><time>2022-10-29T10:48:00.907</time></trkpt><trkpt lat="55.7795588" lon="49.1388702"><time>2022-10-29T10:48:00.977</time></trkpt><trkpt lat="55.7795773" lon="49.1389548"><time>2022-10-29T10:48:06.910</time></trkpt><trkpt lat="55.7795595" lon="49.1389748"><time>2022-10-29T10:48:08.053</time></trkpt><trkpt lat="55.7795243" lon="49.1390397"><time>2022-10-29T10:48:09.873</time></trkpt><trkpt lat="55.7794645" lon="49.1390885"><time>2022-10-29T10:48:12.900</time></trkpt><trkpt lat="55.7794233" lon="49.1390558"><time>2022-10-29T10:48:23.903</time></trkpt><trkpt lat="55.7793845" lon="49.1389462"><time>2022-10-29T10:49:22.910</time></trkpt><trkpt lat="55.7793493" lon="49.1388587"><time>2022-10-29T10:49:24.913</time></trkpt><trkpt lat="55.7793047" lon="49.1387850"><time>2022-10-29T10:49:26.910</time></trkpt><trkpt lat="55.7792652" lon="49.1387209"><time>2022-10-29T10:49:28.907</time></trkpt><trkpt lat="55.7792649" lon="49.1386396"><time>2022-10-29T10:49:31.873</time></trkpt><trkpt lat="55.7792357" lon="49.1385746"><time>2022-10-29T10:49:36.913</time></trkpt><trkpt lat="55.7792432" lon="49.1384714"><time>2022-10-29T10:49:46.923</time></trkpt><trkpt lat="55.7792784" lon="49.1383974"><time>2022-10-29T10:49:53.913</time></trkpt><trkpt lat="55.7793213" lon="49.1383289"><time>2022-10-29T10:49:55.860</time></trkpt><trkpt lat="55.7793721" lon="49.1382198"><time>2022-10-29T10:49:57.873</time></trkpt><trkpt lat="55.7794213" lon="49.1381025"><time>2022-10-29T10:49:59.873</time></trkpt><trkpt lat="55.7794770" lon="49.1379780"><time>2022-10-29T10:50:01.910</time></trkpt><trkpt lat="55.7795055" lon="49.1379153"><time>2022-10-29T10:50:02.890</time></trkpt><trkpt lat="55.7795353" lon="49.1378520"><time>2022-10-29T10:50:03.907</time></trkpt><trkpt lat="55.7795724" lon="49.1377810"><time>2022-10-29T10:50:04.903</time></trkpt><trkpt lat="55.7796006" lon="49.1377066"><time>2022-10-29T10:50:05.870</time></trkpt><trkpt lat="55.7796623" lon="49.1375860"><time>2022-10-29T10:50:07.917</time></trkpt><trkpt lat="55.7796912" lon="49.1375188"><time>2022-10-29T10:50:08.913</time></trkpt><trkpt lat="55.7797235" lon="49.1374555"><time>2022-10-29T10:50:09.920</time></trkpt><trkpt lat="55.7797573" lon="49.1373799"><time>2022-10-29T10:50:10.917</time></trkpt><trkpt lat="55.7798145" lon="49.1372708"><time>2022-10-29T10:50:12.917</time></trkpt><trkpt lat="55.7798461" lon="49.1372023"><time>2022-10-29T10:50:13.917</time></trkpt><trkpt lat="55.7799072" lon="49.1371150"><time>2022-10-29T10:50:15.910</time></trkpt><trkpt lat="55.7799510" lon="49.1370240"><time>2022-10-29T10:50:17.917</time></trkpt><trkpt lat="55.7799805" lon="49.1369503"><time>2022-10-29T10:50:18.907</time></trkpt><trkpt lat="55.7800087" lon="49.1368752"><time>2022-10-29T10:50:19.910</time></trkpt><trkpt lat="55.7800641" lon="49.1367562"><time>2022-10-29T10:50:21.917</time></trkpt><trkpt lat="55.7801233" lon="49.1366477"><time>2022-10-29T10:50:23.913</time></trkpt><trkpt lat="55.7801587" lon="49.1365304"><time>2022-10-29T10:50:25.870</time></trkpt><trkpt lat="55.7801812" lon="49.1363904"><time>2022-10-29T10:50:27.863</time></trkpt><trkpt lat="55.7802349" lon="49.1362650"><time>2022-10-29T10:50:29.873</time></trkpt><trkpt lat="55.7802634" lon="49.1362016"><time>2022-10-29T10:50:30.877</time></trkpt><trkpt lat="55.7803196" lon="49.1361193"><time>2022-10-29T10:50:32.897</time></trkpt><trkpt lat="55.7803679" lon="49.1360279"><time>2022-10-29T10:50:34.870</time></trkpt><trkpt lat="55.7804023" lon="49.1359616"><time>2022-10-29T10:50:36.907</time></trkpt><trkpt lat="55.7804310" lon="49.1358943"><time>2022-10-29T10:50:39.870</time></trkpt><trkpt lat="55.7804798" lon="49.1358114"><time>2022-10-29T10:50:57.927</time></trkpt><trkpt lat="55.7805212" lon="49.1357029"><time>2022-10-29T10:50:59.917</time></trkpt><trkpt lat="55.7805445" lon="49.1356321"><time>2022-10-29T10:51:00.873</time></trkpt><trkpt lat="55.7805816" lon="49.1355034"><time>2022-10-29T10:51:02.863</time></trkpt><trkpt lat="55.7806048" lon="49.1354285"><time>2022-10-29T10:51:03.867</time></trkpt><trkpt lat="55.7806303" lon="49.1353556"><time>2022-10-29T10:51:04.870</time></trkpt><trkpt lat="55.7806618" lon="49.1352781"><time>2022-10-29T10:51:05.860</time></trkpt><trkpt lat="55.7806898" lon="49.1352114"><time>2022-10-29T10:51:06.917</time></trkpt><trkpt lat="55.7807219" lon="49.1351362"><time>2022-10-29T10:51:07.923</time></trkpt><trkpt lat="55.7807744" lon="49.1349943"><time>2022-10-29T10:51:09.917</time></trkpt><trkpt lat="55.7808065" lon="49.1349183"><time>2022-10-29T10:51:10.927</time></trkpt><trkpt lat="55.7808402" lon="49.1348370"><time>2022-10-29T10:51:11.913</time></trkpt><trkpt lat="55.7808770" lon="49.1347560"><time>2022-10-29T10:51:12.913</time></trkpt><trkpt lat="55.7809008" lon="49.1346838"><time>2022-10-29T10:51:13.910</time></trkpt><trkpt lat="55.7809372" lon="49.1345992"><time>2022-10-29T10:51:14.913</time></trkpt><trkpt lat="55.7809663" lon="49.1345176"><time>2022-10-29T10:51:15.920</time></trkpt><trkpt lat="55.7809863" lon="49.1344457"><time>2022-10-29T10:51:16.913</time></trkpt><trkpt lat="55.7810193" lon="49.1343732"><time>2022-10-29T10:51:17.920</time></trkpt><trkpt lat="55.7810567" lon="49.1342889"><time>2022-10-29T10:51:18.927</time></trkpt><trkpt lat="55.7810962" lon="49.1342117"><time>2022-10-29T10:51:19.913</time></trkpt><trkpt lat="55.7811288" lon="49.1341252"><time>2022-10-29T10:51:20.917</time></trkpt><trkpt lat="55.7811654" lon="49.1340450"><time>2022-10-29T10:51:21.910</time></trkpt><trkpt lat="55.7811977" lon="49.1339451"><time>2022-10-29T10:51:22.910</time></trkpt><trkpt lat="55.7812295" lon="49.1338600"><time>2022-10-29T10:51:23.907</time></trkpt><trkpt lat="55.7812666" lon="49.1337839"><time>2022-10-29T10:51:24.917</time></trkpt><trkpt lat="55.7813106" lon="49.1337153"><time>2022-10-29T10:51:25.910</time></trkpt><trkpt lat="55.7813528" lon="49.1336624"><time>2022-10-29T10:51:26.910</time></trkpt><trkpt lat="55.7813936" lon="49.1335817"><time>2022-10-29T10:51:27.913</time></trkpt><trkpt lat="55.7814281" lon="49.1335200"><time>2022-10-29T10:51:28.910</time></trkpt><trkpt lat="55.7814571" lon="49.1334259"><time>2022-10-29T10:51:29.913</time></trkpt><trkpt lat="55.7814890" lon="49.1333394"><time>2022-10-29T10:51:31.917</time></trkpt><trkpt lat="55.7815208" lon="49.1332415"><time>2022-10-29T10:51:34.913</time></trkpt><trkpt lat="55.7815429" lon="49.1331689"><time>2022-10-29T10:51:35.933</time></trkpt><trkpt lat="55.7815712" lon="49.1331485"><time>2022-10-29T10:51:37.063</time></trkpt><trkpt lat="55.7816025" lon="49.1330563"><time>2022-10-29T10:51:37.873</time></trkpt><trkpt lat="55.7816222" lon="49.1329768"><time>2022-10-29T10:51:38.870</time></trkpt><trkpt lat="55.7816584" lon="49.1328458"><time>2022-10-29T10:51:40.870</time></trkpt><trkpt lat="55.7816949" lon="49.1326983"><time>2022-10-29T10:51:42.870</time></trkpt><trkpt lat="55.7817312" lon="49.1326476"><time>2022-10-29T10:51:43.877</time></trkpt><trkpt lat="55.7817550" lon="49.1325609"><time>2022-10-29T10:51:44.867</time></trkpt><trkpt lat="55.7817603" lon="49.1324115"><time>2022-10-29T10:51:46.870</time></trkpt><trkpt lat="55.7818216" lon="49.1322621"><time>2022-10-29T10:51:48.873</time></trkpt><trkpt lat="55.7818402" lon="49.1321791"><time>2022-10-29T10:51:49.877</time></trkpt><trkpt lat="55.7818590" lon="49.1321029"><time>2022-10-29T10:51:50.870</time></trkpt><trkpt lat="55.7819003" lon="49.1320386"><time>2022-10-29T10:51:51.867</time></trkpt><trkpt lat="55.7819336" lon="49.1319545"><time>2022-10-29T10:51:52.870</time></trkpt><trkpt lat="55.7819699" lon="49.1318857"><time>2022-10-29T10:51:53.870</time></trkpt><trkpt lat="55.7819915" lon="49.1318111"><time>2022-10-29T10:51:54.870</time></trkpt><trkpt lat="55.7820444" lon="49.1317367"><time>2022-10-29T10:51:55.897</time></trkpt><trkpt lat="55.7820639" lon="49.1317042"><time>2022-10-29T10:51:57.037</time></trkpt><trkpt lat="55.7821226" lon="49.1316246"><time>2022-10-29T10:51:57.870</time></trkpt><trkpt lat="55.7821673" lon="49.1315553"><time>2022-10-29T10:51:58.867</time></trkpt><trkpt lat="55.7822061" lon="49.1314913"><time>2022-10-29T10:51:59.870</time></trkpt><trkpt lat="55.7822393" lon="49.1314261"><time>2022-10-29T10:52:00.873</time></trkpt><trkpt lat="55.7822779" lon="49.1313474"><time>2022-10-29T10:52:01.873</time></trkpt><trkpt lat="55.7823148" lon="49.1312774"><time>2022-10-29T10:52:02.877</time></trkpt><trkpt lat="55.7823529" lon="49.1312063"><time>2022-10-29T10:52:03.877</time></trkpt><trkpt lat="55.7823919" lon="49.1311370"><time>2022-10-29T10:52:04.870</time></trkpt><trkpt lat="55.7824295" lon="49.1310718"><time>2022-10-29T10:52:05.907</time></trkpt><trkpt lat="55.7824467" lon="49.1310419"><time>2022-10-29T10:52:06.930</time></trkpt><trkpt lat="55.7824991" lon="49.1309824"><time>2022-10-29T10:52:07.893</time></trkpt><trkpt lat="55.7825782" lon="49.1309481"><time>2022-10-29T10:52:09.893</time></trkpt><trkpt lat="55.7826570" lon="49.1309360"><time>2022-10-29T10:52:11.887</time></trkpt><trkpt lat="55.7827182" lon="49.1309473"><time>2022-10-29T10:52:13.917</time></trkpt><trkpt lat="55.7827182" lon="49.1309473"><time>2022-10-29T10:52:13.983</time></trkpt><trkpt lat="55.7827716" lon="49.1309678"><time>2022-10-29T10:52:16.903</time></trkpt><trkpt lat="55.7827724" lon="49.1309742"><time>2022-10-29T10:52:18.047</time></trkpt><trkpt lat="55.7828129" lon="49.1309066"><time>2022-10-29T10:52:20.910</time></trkpt><trkpt lat="55.7828519" lon="49.1308520"><time>2022-10-29T10:52:39.897</time></trkpt><trkpt lat="55.7829007" lon="49.1308409"><time>2022-10-29T10:52:42.910</time></trkpt><trkpt lat="55.7829304" lon="49.1307593"><time>2022-10-29T10:52:45.903</time></trkpt><trkpt lat="55.7829717" lon="49.1306788"><time>2022-10-29T10:52:48.907</time></trkpt><trkpt lat="55.7830190" lon="49.1306641"><time>2022-10-29T10:52:50.903</time></trkpt><trkpt lat="55.7830718" lon="49.1307008"><time>2022-10-29T10:52:53.910</time></trkpt><trkpt lat="55.7831116" lon="49.1307381"><time>2022-10-29T10:54:08.910</time></trkpt><trkpt lat="55.7831565" lon="49.1307541"><time>2022-10-29T10:54:19.907</time></trkpt><trkpt lat="55.7832172" lon="49.1307204"><time>2022-10-29T10:54:23.910</time></trkpt><trkpt lat="55.7832475" lon="49.1306116"><time>2022-10-29T10:54:25.913</time></trkpt><trkpt lat="55.7832759" lon="49.1305126"><time>2022-10-29T10:54:27.910</time></trkpt><trkpt lat="55.7833186" lon="49.1304074"><time>2022-10-29T10:54:29.863</time></trkpt><trkpt lat="55.7833688" lon="49.1303006"><time>2022-10-29T10:54:31.903</time></trkpt><trkpt lat="55.7834052" lon="49.1302263"><time>2022-10-29T10:54:33.907</time></trkpt><trkpt lat="55.7834524" lon="49.1301214"><time>2022-10-29T10:54:35.907</time></trkpt><trkpt lat="55.7834958" lon="49.1300164"><time>2022-10-29T10:54:37.907</time></trkpt><trkpt lat="55.7835446" lon="49.1299185"><time>2022-10-29T10:54:39.913</time></trkpt><trkpt lat="55.7835894" lon="49.1298014"><time>2022-10-29T10:54:41.910</time></trkpt><trkpt lat="55.7836311" lon="49.1296995"><time>2022-10-29T10:54:43.910</time></trkpt><trkpt lat="55.7836647" lon="49.1296099"><time>2022-10-29T10:54:45.913</time></trkpt><trkpt lat="55.7836963" lon="49.1295276"><time>2022-10-29T10:54:47.897</time></trkpt><trkpt lat="55.7837341" lon="49.1294403"><time>2022-10-29T10:54:49.917</time></trkpt><trkpt lat="55.7837755" lon="49.1293486"><time>2022-10-29T10:54:52.867</time></trkpt><trkpt lat="55.7837892" lon="49.1292575"><time>2022-10-29T10:54:54.877</time></trkpt><trkpt lat="55.7837920" lon="49.1291585"><time>2022-10-29T10:54:56.877</time></trkpt><trkpt lat="55.7838079" lon="49.1290453"><time>2022-10-29T10:54:58.877</time></trkpt><trkpt lat="55.7838358" lon="49.1289404"><time>2022-10-29T10:55:00.877</time></trkpt><trkpt lat="55.7838604" lon="49.1288343"><time>2022-10-29T10:55:02.903</time></trkpt><trkpt lat="55.7838923" lon="49.1287555"><time>2022-10-29T10:55:04.903</time></trkpt><trkpt lat="55.7838688" lon="49.1286499"><time>2022-10-29T10:55:07.903</time></trkpt><trkpt lat="55.7838041" lon="49.1285969"><time>2022-10-29T10:55:09.897</time></trkpt><trkpt lat="55.7837490" lon="49.1285864"><time>2022-10-29T10:55:11.907</time></trkpt><trkpt lat="55.7837030" lon="49.1285650"><time>2022-10-29T10:55:13.863</time></trkpt><trkpt lat="55.7836578" lon="49.1284979"><time>2022-10-29T10:55:15.870</time></trkpt><trkpt lat="55.7836155" lon="49.1284260"><time>2022-10-29T10:55:17.900</time></trkpt><trkpt lat="55.7835922" lon="49.1283537"><time>2022-10-29T10:55:19.900</time></trkpt><trkpt lat="55.7835945" lon="49.1282647"><time>2022-10-29T10:55:21.907</time></trkpt><trkpt lat="55.7836142" lon="49.1281480"><time>2022-10-29T10:55:24.870</time></trkpt><trkpt lat="55.7836440" lon="49.1280673"><time>2022-10-29T10:55:26.867</time></trkpt><trkpt lat="55.7836871" lon="49.1280103"><time>2022-10-29T10:55:29.870</time></trkpt><trkpt lat="55.7836866" lon="49.1279115"><time>2022-10-29T10:55:32.877</time></trkpt><trkpt lat="55.7836370" lon="49.1278303"><time>2022-10-29T10:55:34.900</time></trkpt><trkpt lat="55.7835898" lon="49.1277467"><time>2022-10-29T10:55:36.910</time></trkpt><trkpt lat="55.7835482" lon="49.1276770"><time>2022-10-29T10:55:38.927</time></trkpt><trkpt lat="55.7834948" lon="49.1276005"><time>2022-10-29T10:55:41.900</time></trkpt><trkpt lat="55.7834587" lon="49.1275258"><time>2022-10-29T10:55:43.877</time></trkpt><trkpt lat="55.7834214" lon="49.1274359"><time>2022-10-29T10:55:45.903</time></trkpt><trkpt lat="55.7833639" lon="49.1273323"><time>2022-10-29T10:55:47.907</time></trkpt><trkpt lat="55.7833078" lon="49.1272364"><time>2022-10-29T10:55:49.903</time></trkpt><trkpt lat="55.7832600" lon="49.1271497"><time>2022-10-29T10:55:51.903</time></trkpt><trkpt lat="55.7832189" lon="49.1270696"><time>2022-10-29T10:55:53.910</time></trkpt><trkpt lat="55.7832000" lon="49.1269774"><time>2022-10-29T10:55:56.907</time></trkpt><trkpt lat="55.7831783" lon="49.1269007"><time>2022-10-29T10:55:58.910</time></trkpt><trkpt lat="55.7831311" lon="49.1268248"><time>2022-10-29T10:56:00.907</time></trkpt><trkpt lat="55.7830981" lon="49.1267637"><time>2022-10-29T10:56:02.907</time></trkpt><trkpt lat="55.7830923" lon="49.1266708"><time>2022-10-29T10:56:05.903</time></trkpt><trkpt lat="55.7830916" lon="49.1265700"><time>2022-10-29T10:56:10.907</time></trkpt><trkpt lat="55.7830443" lon="49.1264898"><time>2022-10-29T10:56:12.907</time></trkpt><trkpt lat="55.7829849" lon="49.1264447"><time>2022-10-29T10:56:14.910</time></trkpt><trkpt lat="55.7829247" lon="49.1264319"><time>2022-10-29T10:56:16.913</time></trkpt><trkpt lat="55.7828775" lon="49.1263864"><time>2022-10-29T10:56:18.907</time></trkpt><trkpt lat="55.7828302" lon="49.1262912"><time>2022-10-29T10:56:20.917</time></trkpt><trkpt lat="55.7827784" lon="49.1262026"><time>2022-10-29T10:56:22.917</time></trkpt><trkpt lat="55.7827261" lon="49.1261034"><time>2022-10-29T10:56:24.907</time></trkpt><trkpt lat="55.7826813" lon="49.1260110"><time>2022-10-29T10:56:26.907</time></trkpt><trkpt lat="55.7826345" lon="49.1259168"><time>2022-10-29T10:56:28.903</time></trkpt><trkpt lat="55.7825766" lon="49.1258002"><time>2022-10-29T10:56:30.923</time></trkpt><trkpt lat="55.7825232" lon="49.1257142"><time>2022-10-29T10:56:32.913</time></trkpt><trkpt lat="55.7824725" lon="49.1256245"><time>2022-10-29T10:56:34.910</time></trkpt><trkpt lat="55.7824323" lon="49.1255074"><time>2022-10-29T10:56:36.910</time></trkpt><trkpt lat="55.7824405" lon="49.1253919"><time>2022-10-29T10:56:38.907</time></trkpt><trkpt lat="55.7824965" lon="49.1252826"><time>2022-10-29T10:56:40.943</time></trkpt><trkpt lat="55.7825507" lon="49.1252673"><time>2022-10-29T10:56:42.073</time></trkpt><trkpt lat="55.7826122" lon="49.1251814"><time>2022-10-29T10:56:43.883</time></trkpt><trkpt lat="55.7826663" lon="49.1250999"><time>2022-10-29T10:56:45.883</time></trkpt><trkpt lat="55.7827197" lon="49.1250229"><time>2022-10-29T10:56:47.897</time></trkpt><trkpt lat="55.7827709" lon="49.1249625"><time>2022-10-29T10:56:49.887</time></trkpt><trkpt lat="55.7828235" lon="49.1249001"><time>2022-10-29T10:56:51.890</time></trkpt><trkpt lat="55.7828683" lon="49.1247989"><time>2022-10-29T10:56:53.890</time></trkpt><trkpt lat="55.7829041" lon="49.1246688"><time>2022-10-29T10:56:55.897</time></trkpt><trkpt lat="55.7829431" lon="49.1245389"><time>2022-10-29T10:56:57.887</time></trkpt><trkpt lat="55.7829996" lon="49.1244378"><time>2022-10-29T10:56:59.893</time></trkpt><trkpt lat="55.7830582" lon="49.1243434"><time>2022-10-29T10:57:01.890</time></trkpt><trkpt lat="55.7831140" lon="49.1242411"><time>2022-10-29T10:57:03.890</time></trkpt><trkpt lat="55.7831673" lon="49.1241438"><time>2022-10-29T10:57:05.913</time></trkpt><trkpt lat="55.7831847" lon="49.1241248"><time>2022-10-29T10:57:07.020</time></trkpt><trkpt lat="55.7832209" lon="49.1240688"><time>2022-10-29T10:57:07.897</time></trkpt><trkpt lat="55.7832703" lon="49.1239869"><time>2022-10-29T10:57:09.903</time></trkpt><trkpt lat="55.7833063" lon="49.1238873"><time>2022-10-29T10:57:11.900</time></trkpt><trkpt lat="55.7833022" lon="49.1237763"><time>2022-10-29T10:57:13.900</time></trkpt><trkpt lat="55.7832745" lon="49.1236749"><time>2022-10-29T10:57:15.897</time></trkpt><trkpt lat="55.7832614" lon="49.1235552"><time>2022-10-29T10:57:17.897</time></trkpt><trkpt lat="55.7832698" lon="49.1234437"><time>2022-10-29T10:57:19.897</time></trkpt><trkpt lat="55.7832887" lon="49.1234193"><time>2022-10-29T10:57:21</time></trkpt><trkpt lat="55.7833198" lon="49.1233532"><time>2022-10-29T10:57:21.890</time></trkpt><trkpt lat="55.7833688" lon="49.1232758"><time>2022-10-29T10:57:23.887</time></trkpt><trkpt lat="55.7834210" lon="49.1232326"><time>2022-10-29T10:57:25.893</time></trkpt><trkpt lat="55.7834566" lon="49.1231473"><time>2022-10-29T10:57:27.880</time></trkpt><trkpt lat="55.7834512" lon="49.1230322"><time>2022-10-29T10:57:29.910</time></trkpt><trkpt lat="55.7834512" lon="49.1230322"><time>2022-10-29T10:57:29.953</time></trkpt><trkpt lat="55.7834513" lon="49.1229245"><time>2022-10-29T10:57:31.900</time></trkpt><trkpt lat="55.7834546" lon="49.1229034"><time>2022-10-29T10:57:32.820</time></trkpt><trkpt lat="55.7834964" lon="49.1228052"><time>2022-10-29T10:57:34.900</time></trkpt><trkpt lat="55.7835025" lon="49.1227152"><time>2022-10-29T10:57:36.897</time></trkpt><trkpt lat="55.7834704" lon="49.1226581"><time>2022-10-29T10:57:39.897</time></trkpt><trkpt lat="55.7834284" lon="49.1227012"><time>2022-10-29T10:58:33.917</time></trkpt><trkpt lat="55.7834060" lon="49.1227849"><time>2022-10-29T10:58:35.910</time></trkpt><trkpt lat="55.7834114" lon="49.1228972"><time>2022-10-29T10:58:37.913</time></trkpt><trkpt lat="55.7834336" lon="49.1230142"><time>2022-10-29T10:58:39.903</time></trkpt><trkpt lat="55.7834360" lon="49.1231314"><time>2022-10-29T10:58:41.927</time></trkpt><trkpt lat="55.7834252" lon="49.1232391"><time>2022-10-29T10:58:43.913</time></trkpt><trkpt lat="55.7833816" lon="49.1233116"><time>2022-10-29T10:58:45.907</time></trkpt><trkpt lat="55.7833206" lon="49.1233774"><time>2022-10-29T10:58:47.913</time></trkpt><trkpt lat="55.7832695" lon="49.1234712"><time>2022-10-29T10:58:49.907</time></trkpt><trkpt lat="55.7832480" lon="49.1235926"><time>2022-10-29T10:58:51.887</time></trkpt><trkpt lat="55.7832574" lon="49.1237138"><time>2022-10-29T10:58:53.873</time></trkpt><trkpt lat="55.7832536" lon="49.1238230"><time>2022-10-29T10:58:55.873</time></trkpt><trkpt lat="55.7832139" lon="49.1239162"><time>2022-10-29T10:58:57.907</time></trkpt><trkpt lat="55.7831556" lon="49.1240113"><time>2022-10-29T10:58:59.903</time></trkpt><trkpt lat="55.7830998" lon="49.1241093"><time>2022-10-29T10:59:01.913</time></trkpt><trkpt lat="55.7830478" lon="49.1241997"><time>2022-10-29T10:59:03.907</time></trkpt><trkpt lat="55.7830108" lon="49.1242979"><time>2022-10-29T10:59:05.913</time></trkpt><trkpt lat="55.7830141" lon="49.1244199"><time>2022-10-29T10:59:07.903</time></trkpt><trkpt lat="55.7829807" lon="49.1245392"><time>2022-10-29T10:59:09.907</time></trkpt><trkpt lat="55.7829183" lon="49.1246245"><time>2022-10-29T10:59:11.907</time></trkpt><trkpt lat="55.7828523" lon="49.1246997"><time>2022-10-29T10:59:13.907</time></trkpt><trkpt lat="55.7827830" lon="49.1247594"><time>2022-10-29T10:59:15.910</time></trkpt><trkpt lat="55.7827303" lon="49.1248419"><time>2022-10-29T10:59:17.917</time></trkpt><trkpt lat="55.7826994" lon="49.1249521"><time>2022-10-29T10:59:19.907</time></trkpt><trkpt lat="55.7826498" lon="49.1250596"><time>2022-10-29T10:59:21.907</time></trkpt><trkpt lat="55.7825963" lon="49.1251521"><time>2022-10-29T10:59:23.913</time></trkpt><trkpt lat="55.7825531" lon="49.1252435"><time>2022-10-29T10:59:25.907</time></trkpt><trkpt lat="55.7825165" lon="49.1253356"><time>2022-10-29T10:59:27.910</time></trkpt><trkpt lat="55.7824898" lon="49.1254026"><time>2022-10-29T10:59:29.903</time></trkpt><trkpt lat="55.7824547" lon="49.1254533"><time>2022-10-29T10:59:31.910</time></trkpt><trkpt lat="55.7824073" lon="49.1254435"><time>2022-10-29T10:59:33.870</time></trkpt><trkpt lat="55.7823547" lon="49.1253520"><time>2022-10-29T10:59:35.910</time></trkpt><trkpt lat="55.7823205" lon="49.1252431"><time>2022-10-29T10:59:37.910</time></trkpt><trkpt lat="55.7822888" lon="49.1251383"><time>2022-10-29T10:59:39.910</time></trkpt><trkpt lat="55.7822528" lon="49.1250396"><time>2022-10-29T10:59:41.907</time></trkpt><trkpt lat="55.7821962" lon="49.1249213"><time>2022-10-29T10:59:43.907</time></trkpt><trkpt lat="55.7821435" lon="49.1248162"><time>2022-10-29T10:59:45.910</time></trkpt><trkpt lat="55.7820978" lon="49.1247315"><time>2022-10-29T10:59:47.907</time></trkpt><trkpt lat="55.7820481" lon="49.1246530"><time>2022-10-29T10:59:49.907</time></trkpt><trkpt lat="55.7819918" lon="49.1245684"><time>2022-10-29T10:59:51.897</time></trkpt><trkpt lat="55.7819426" lon="49.1244860"><time>2022-10-29T10:59:53.933</time></trkpt><trkpt lat="55.7819044" lon="49.1244131"><time>2022-10-29T10:59:55.910</time></trkpt><trkpt lat="55.7818642" lon="49.1243490"><time>2022-10-29T10:59:58.873</time></trkpt><trkpt lat="55.7818221" lon="49.1243118"><time>2022-10-29T11:00:02.910</time></trkpt><trkpt lat="55.7817942" lon="49.1241838"><time>2022-10-29T11:00:05.907</time></trkpt><trkpt lat="55.7817504" lon="49.1241289"><time>2022-10-29T11:00:07.870</time></trkpt><trkpt lat="55.7817046" lon="49.1241212"><time>2022-10-29T11:00:09.863</time></trkpt><trkpt lat="55.7816667" lon="49.1241729"><time>2022-10-29T11:00:12.910</time></trkpt><trkpt lat="55.7816326" lon="49.1242254"><time>2022-10-29T11:00:20.877</time></trkpt><trkpt lat="55.7815780" lon="49.1242723"><time>2022-10-29T11:00:37.927</time></trkpt><trkpt lat="55.7815227" lon="49.1243275"><time>2022-10-29T11:00:39.907</time></trkpt><trkpt lat="55.7814634" lon="49.1243923"><time>2022-10-29T11:00:41.903</time></trkpt><trkpt lat="55.7814019" lon="49.1244610"><time>2022-10-29T11:00:43.910</time></trkpt><trkpt lat="55.7813375" lon="49.1245223"><time>2022-10-29T11:00:45.897</time></trkpt><trkpt lat="55.7812717" lon="49.1245845"><time>2022-10-29T11:00:47.863</time></trkpt><trkpt lat="55.7812098" lon="49.1246549"><time>2022-10-29T11:00:49.910</time></trkpt><trkpt lat="55.7811482" lon="49.1247200"><time>2022-10-29T11:00:51.907</time></trkpt><trkpt lat="55.7810886" lon="49.1247704"><time>2022-10-29T11:00:53.910</time></trkpt><trkpt lat="55.7810445" lon="49.1248090"><time>2022-10-29T11:00:55.913</time></trkpt><trkpt lat="55.7810090" lon="49.1248612"><time>2022-10-29T11:00:57.910</time></trkpt><trkpt lat="55.7809608" lon="49.1249270"><time>2022-10-29T11:00:59.900</time></trkpt><trkpt lat="55.7809093" lon="49.1249796"><time>2022-10-29T11:01:01.907</time></trkpt><trkpt lat="55.7808548" lon="49.1250186"><time>2022-10-29T11:01:03.907</time></trkpt><trkpt lat="55.7808047" lon="49.1250728"><time>2022-10-29T11:01:05.913</time></trkpt><trkpt lat="55.7807644" lon="49.1251264"><time>2022-10-29T11:01:07.907</time></trkpt><trkpt lat="55.7807241" lon="49.1251852"><time>2022-10-29T11:01:10.897</time></trkpt><trkpt lat="55.7806662" lon="49.1252022"><time>2022-10-29T11:01:13.907</time></trkpt><trkpt lat="55.7806121" lon="49.1252511"><time>2022-10-29T11:01:16.913</time></trkpt><trkpt lat="55.7805722" lon="49.1252959"><time>2022-10-29T11:01:19.907</time></trkpt><trkpt lat="55.7805335" lon="49.1253440"><time>2022-10-29T11:01:22.907</time></trkpt><trkpt lat="55.7804899" lon="49.1253963"><time>2022-10-29T11:01:26.907</time></trkpt><trkpt lat="55.7804564" lon="49.1254499"><time>2022-10-29T11:01:30.910</time></trkpt><trkpt lat="55.7804063" lon="49.1254916"><time>2022-10-29T11:01:32.907</time></trkpt><trkpt lat="55.7803428" lon="49.1255109"><time>2022-10-29T11:01:33.907</time></trkpt><trkpt lat="55.7802982" lon="49.1255450"><time>2022-10-29T11:01:34.913</time></trkpt><trkpt lat="55.7802498" lon="49.1255809"><time>2022-10-29T11:01:35.903</time></trkpt><trkpt lat="55.7802084" lon="49.1256180"><time>2022-10-29T11:01:36.907</time></trkpt><trkpt lat="55.7801374" lon="49.1256735"><time>2022-10-29T11:01:38.907</time></trkpt><trkpt lat="55.7800578" lon="49.1257651"><time>2022-10-29T11:01:40.953</time></trkpt><trkpt lat="55.7800393" lon="49.1257878"><time>2022-10-29T11:01:41.950</time></trkpt><trkpt lat="55.7799839" lon="49.1258445"><time>2022-10-29T11:01:42.907</time></trkpt><trkpt lat="55.7799124" lon="49.1259254"><time>2022-10-29T11:01:44.903</time></trkpt><trkpt lat="55.7798516" lon="49.1259911"><time>2022-10-29T11:01:46.903</time></trkpt><trkpt lat="55.7797870" lon="49.1260572"><time>2022-10-29T11:01:48.907</time></trkpt><trkpt lat="55.7797173" lon="49.1261243"><time>2022-10-29T11:01:50.907</time></trkpt><trkpt lat="55.7796548" lon="49.1261840"><time>2022-10-29T11:01:52.907</time></trkpt><trkpt lat="55.7795944" lon="49.1262454"><time>2022-10-29T11:01:54.907</time></trkpt><trkpt lat="55.7795383" lon="49.1263111"><time>2022-10-29T11:01:56.907</time></trkpt><trkpt lat="55.7794850" lon="49.1263892"><time>2022-10-29T11:01:58.907</time></trkpt><trkpt lat="55.7794452" lon="49.1264534"><time>2022-10-29T11:02:00.903</time></trkpt><trkpt lat="55.7794045" lon="49.1265210"><time>2022-10-29T11:02:02.900</time></trkpt><trkpt lat="55.7793575" lon="49.1265931"><time>2022-10-29T11:02:04.897</time></trkpt><trkpt lat="55.7793069" lon="49.1266588"><time>2022-10-29T11:02:06.867</time></trkpt><trkpt lat="55.7792650" lon="49.1267206"><time>2022-10-29T11:02:08.907</time></trkpt><trkpt lat="55.7792249" lon="49.1267679"><time>2022-10-29T11:02:11.903</time></trkpt><trkpt lat="55.7791924" lon="49.1268531"><time>2022-10-29T11:02:15.907</time></trkpt><trkpt lat="55.7791698" lon="49.1269367"><time>2022-10-29T11:02:17.907</time></trkpt><trkpt lat="55.7791833" lon="49.1270453"><time>2022-10-29T11:02:19.927</time></trkpt><trkpt lat="55.7792276" lon="49.1271457"><time>2022-10-29T11:02:21.917</time></trkpt><trkpt lat="55.7793032" lon="49.1272067"><time>2022-10-29T11:02:23.917</time></trkpt><trkpt lat="55.7793907" lon="49.1272325"><time>2022-10-29T11:02:25.917</time></trkpt><trkpt lat="55.7794337" lon="49.1272349"><time>2022-10-29T11:02:27.027</time></trkpt><trkpt lat="55.7794829" lon="49.1272744"><time>2022-10-29T11:02:27.873</time></trkpt><trkpt lat="55.7795681" lon="49.1273469"><time>2022-10-29T11:02:29.870</time></trkpt><trkpt lat="55.7796161" lon="49.1273675"><time>2022-10-29T11:02:30.873</time></trkpt><trkpt lat="55.7797027" lon="49.1273750"><time>2022-10-29T11:02:32.867</time></trkpt><trkpt lat="55.7798053" lon="49.1273828"><time>2022-10-29T11:02:34.870</time></trkpt><trkpt lat="55.7798512" lon="49.1274045"><time>2022-10-29T11:02:35.873</time></trkpt><trkpt lat="55.7799018" lon="49.1275108"><time>2022-10-29T11:02:37.870</time></trkpt><trkpt lat="55.7799320" lon="49.1275862"><time>2022-10-29T11:02:38.877</time></trkpt><trkpt lat="55.7799690" lon="49.1276703"><time>2022-10-29T11:02:39.870</time></trkpt><trkpt lat="55.7800387" lon="49.1277815"><time>2022-10-29T11:02:41.870</time></trkpt><trkpt lat="55.7801086" lon="49.1278737"><time>2022-10-29T11:02:43.870</time></trkpt><trkpt lat="55.7801591" lon="49.1279756"><time>2022-10-29T11:02:45.870</time></trkpt><trkpt lat="55.7802147" lon="49.1280250"><time>2022-10-29T11:02:46.877</time></trkpt><trkpt lat="55.7802672" lon="49.1281423"><time>2022-10-29T11:02:48.873</time></trkpt><trkpt lat="55.7803152" lon="49.1282518"><time>2022-10-29T11:02:50.873</time></trkpt><trkpt lat="55.7803720" lon="49.1283393"><time>2022-10-29T11:02:52.877</time></trkpt><trkpt lat="55.7803734" lon="49.1284528"><time>2022-10-29T11:02:55.880</time></trkpt><trkpt lat="55.7803450" lon="49.1285481"><time>2022-10-29T11:02:57.897</time></trkpt><trkpt lat="55.7802962" lon="49.1285816"><time>2022-10-29T11:02:59.890</time></trkpt><trkpt lat="55.7802394" lon="49.1285950"><time>2022-10-29T11:03:01.903</time></trkpt><trkpt lat="55.7801848" lon="49.1285849"><time>2022-10-29T11:03:03.890</time></trkpt><trkpt lat="55.7801392" lon="49.1285654"><time>2022-10-29T11:03:05.903</time></trkpt><trkpt lat="55.7800907" lon="49.1285884"><time>2022-10-29T11:03:07.900</time></trkpt><trkpt lat="55.7800414" lon="49.1285928"><time>2022-10-29T11:03:09.927</time></trkpt><trkpt lat="55.7799970" lon="49.1287711"><time>2022-10-29T11:03:11.897</time></trkpt><trkpt lat="55.7799580" lon="49.1287123"><time>2022-10-29T11:03:14.900</time></trkpt><trkpt lat="55.7798967" lon="49.1286936"><time>2022-10-29T11:03:18.897</time></trkpt><trkpt lat="55.7798535" lon="49.1287397"><time>2022-10-29T11:03:21.897</time></trkpt><trkpt lat="55.7798072" lon="49.1287498"><time>2022-10-29T11:03:27.920</time></trkpt><trkpt lat="55.7798072" lon="49.1287498"><time>2022-10-29T11:03:27.977</time></trkpt><trkpt lat="55.7797447" lon="49.1287502"><time>2022-10-29T11:03:30.927</time></trkpt><trkpt lat="55.7796775" lon="49.1288346"><time>2022-10-29T11:03:32.060</time></trkpt><trkpt lat="55.7797211" lon="49.1288758"><time>2022-10-29T11:03:40.897</time></trkpt><trkpt lat="55.7797475" lon="49.1289529"><time>2022-10-29T11:04:20.897</time></trkpt><trkpt lat="55.7797882" lon="49.1290317"><time>2022-10-29T11:04:23.900</time></trkpt><trkpt lat="55.7798303" lon="49.1290940"><time>2022-10-29T11:04:25.877</time></trkpt><trkpt lat="55.7798657" lon="49.1291606"><time>2022-10-29T11:04:27.907</time></trkpt><trkpt lat="55.7798957" lon="49.1292349"><time>2022-10-29T11:04:29.897</time></trkpt><trkpt lat="55.7799242" lon="49.1293129"><time>2022-10-29T11:04:31.903</time></trkpt><trkpt lat="55.7799321" lon="49.1293938"><time>2022-10-29T11:04:36.907</time></trkpt><trkpt lat="55.7798824" lon="49.1294380"><time>2022-10-29T11:04:38.910</time></trkpt><trkpt lat="55.7798350" lon="49.1294959"><time>2022-10-29T11:04:40.900</time></trkpt><trkpt lat="55.7797901" lon="49.1295615"><time>2022-10-29T11:04:42.903</time></trkpt><trkpt lat="55.7797373" lon="49.1295870"><time>2022-10-29T11:04:45.903</time></trkpt><trkpt lat="55.7796931" lon="49.1294842"><time>2022-10-29T11:04:48.910</time></trkpt><trkpt lat="55.7796351" lon="49.1294172"><time>2022-10-29T11:04:50.913</time></trkpt><trkpt lat="55.7795766" lon="49.1293534"><time>2022-10-29T11:04:52.903</time></trkpt><trkpt lat="55.7795257" lon="49.1292917"><time>2022-10-29T11:04:54.903</time></trkpt><trkpt lat="55.7794739" lon="49.1292403"><time>2022-10-29T11:04:56.917</time></trkpt><trkpt lat="55.7794350" lon="49.1291982"><time>2022-10-29T11:04:57.897</time></trkpt><trkpt lat="55.7793941" lon="49.1291552"><time>2022-10-29T11:04:58.903</time></trkpt><trkpt lat="55.7793278" lon="49.1290914"><time>2022-10-29T11:05:00.897</time></trkpt><trkpt lat="55.7792570" lon="49.1290103"><time>2022-10-29T11:05:02.917</time></trkpt><trkpt lat="55.7791937" lon="49.1289438"><time>2022-10-29T11:05:04.907</time></trkpt><trkpt lat="55.7791276" lon="49.1288654"><time>2022-10-29T11:05:06.910</time></trkpt><trkpt lat="55.7790638" lon="49.1288339"><time>2022-10-29T11:05:08.913</time></trkpt><trkpt lat="55.7789816" lon="49.1288578"><time>2022-10-29T11:05:10.903</time></trkpt><trkpt lat="55.7788940" lon="49.1288778"><time>2022-10-29T11:05:12.900</time></trkpt><trkpt lat="55.7788470" lon="49.1288907"><time>2022-10-29T11:05:13.903</time></trkpt><trkpt lat="55.7787625" lon="49.1289313"><time>2022-10-29T11:05:15.900</time></trkpt><trkpt lat="55.7787081" lon="49.1289468"><time>2022-10-29T11:05:16.910</time></trkpt><trkpt lat="55.7786562" lon="49.1289540"><time>2022-10-29T11:05:17.900</time></trkpt><trkpt lat="55.7785775" lon="49.1289518"><time>2022-10-29T11:05:19.940</time></trkpt><trkpt lat="55.7785321" lon="49.1289646"><time>2022-10-29T11:05:21.897</time></trkpt><trkpt lat="55.7785328" lon="49.1290457"><time>2022-10-29T11:05:31.903</time></trkpt><trkpt lat="55.7785855" lon="49.1290504"><time>2022-10-29T11:07:23.913</time></trkpt><trkpt lat="55.7786298" lon="49.1290349"><time>2022-10-29T11:07:30.907</time></trkpt><trkpt lat="55.7786726" lon="49.1290101"><time>2022-10-29T11:09:42.880</time></trkpt><trkpt lat="55.7786264" lon="49.1290553"><time>2022-10-29T11:10:02.870</time></trkpt><trkpt lat="55.7785873" lon="49.1290149"><time>2022-10-29T11:12:03.907</time></trkpt><trkpt lat="55.7785416" lon="49.1290319"><time>2022-10-29T11:12:08.910</time></trkpt><trkpt lat="55.7785008" lon="49.1290653"><time>2022-10-29T11:12:53.867</time></trkpt><trkpt lat="55.7784708" lon="49.1290035"><time>2022-10-29T11:15:11.917</time></trkpt><trkpt lat="55.7784210" lon="49.1289965"><time>2022-10-29T11:15:16.907</time></trkpt><trkpt lat="55.7783755" lon="49.1289255"><time>2022-10-29T11:15:19.907</time></trkpt><trkpt lat="55.7783370" lon="49.1288619"><time>2022-10-29T11:15:21.923</time></trkpt><trkpt lat="55.7782949" lon="49.1287831"><time>2022-10-29T11:15:24.920</time></trkpt><trkpt lat="55.7782563" lon="49.1286950"><time>2022-10-29T11:15:27.917</time></trkpt><trkpt lat="55.7782290" lon="49.1286189"><time>2022-10-29T11:15:30.900</time></trkpt><trkpt lat="55.7781816" lon="49.1286319"><time>2022-10-29T11:15:50.910</time></trkpt><trkpt lat="55.7781687" lon="49.1287194"><time>2022-10-29T11:15:55.933</time></trkpt><trkpt lat="55.7781493" lon="49.1287929"><time>2022-10-29T11:16:01.913</time></trkpt><trkpt lat="55.7781234" lon="49.1288677"><time>2022-10-29T11:16:07.917</time></trkpt><trkpt lat="55.7780941" lon="49.1289417"><time>2022-10-29T11:16:12.913</time></trkpt><trkpt lat="55.7780658" lon="49.1290041"><time>2022-10-29T11:16:16.913</time></trkpt><trkpt lat="55.7780399" lon="49.1290744"><time>2022-10-29T11:16:21.907</time></trkpt><trkpt lat="55.7779980" lon="49.1290355"><time>2022-10-29T11:16:28.877</time></trkpt><trkpt lat="55.7779776" lon="49.1289620"><time>2022-10-29T11:17:38.910</time></trkpt><trkpt lat="55.7779389" lon="49.1289031"><time>2022-10-29T11:17:42.913</time></trkpt><trkpt lat="55.7778981" lon="49.1288363"><time>2022-10-29T11:17:46.897</time></trkpt><trkpt lat="55.7778508" lon="49.1287853"><time>2022-10-29T11:17:50.917</time></trkpt><trkpt lat="55.7778286" lon="49.1287132"><time>2022-10-29T11:17:59.913</time></trkpt><trkpt lat="55.7778119" lon="49.1286248"><time>2022-10-29T11:18:05.907</time></trkpt><trkpt lat="55.7777618" lon="49.1285914"><time>2022-10-29T11:18:11.900</time></trkpt><trkpt lat="55.7777699" lon="49.1285065"><time>2022-10-29T11:18:14.897</time></trkpt><trkpt lat="55.7778033" lon="49.1284304"><time>2022-10-29T11:18:18.927</time></trkpt><trkpt lat="55.7778417" lon="49.1283866"><time>2022-10-29T11:18:23.913</time></trkpt><trkpt lat="55.7778013" lon="49.1284251"><time>2022-10-29T11:18:37.910</time></trkpt><trkpt lat="55.7777464" lon="49.1284147"><time>2022-10-29T11:18:41.913</time></trkpt><trkpt lat="55.7777015" lon="49.1284091"><time>2022-10-29T11:18:45.910</time></trkpt><trkpt lat="55.7776506" lon="49.1284007"><time>2022-10-29T11:18:49.870</time></trkpt><trkpt lat="55.7776013" lon="49.1284055"><time>2022-10-29T11:18:53.913</time></trkpt><trkpt lat="55.7775467" lon="49.1283920"><time>2022-10-29T11:18:58.877</time></trkpt><trkpt lat="55.7774990" lon="49.1283653"><time>2022-10-29T11:19:03.900</time></trkpt><trkpt lat="55.7774502" lon="49.1283561"><time>2022-10-29T11:19:07.910</time></trkpt><trkpt lat="55.7774012" lon="49.1283500"><time>2022-10-29T11:19:11.897</time></trkpt><trkpt lat="55.7773545" lon="49.1283496"><time>2022-10-29T11:19:15.873</time></trkpt><trkpt lat="55.7773056" lon="49.1283468"><time>2022-10-29T11:19:19.910</time></trkpt><trkpt lat="55.7772546" lon="49.1283182"><time>2022-10-29T11:19:24.910</time></trkpt><trkpt lat="55.7772060" lon="49.1283012"><time>2022-10-29T11:19:28.873</time></trkpt><trkpt lat="55.7771573" lon="49.1283032"><time>2022-10-29T11:19:32.907</time></trkpt><trkpt lat="55.7771031" lon="49.1283116"><time>2022-10-29T11:19:36.913</time></trkpt><trkpt lat="55.7770547" lon="49.1283172"><time>2022-10-29T11:19:40.917</time></trkpt><trkpt lat="55.7770098" lon="49.1283285"><time>2022-10-29T11:19:43.917</time></trkpt><trkpt lat="55.7769534" lon="49.1283202"><time>2022-10-29T11:19:47.910</time></trkpt><trkpt lat="55.7769071" lon="49.1283053"><time>2022-10-29T11:19:50.913</time></trkpt><trkpt lat="55.7768511" lon="49.1282928"><time>2022-10-29T11:19:55.907</time></trkpt><trkpt lat="55.7768028" lon="49.1282914"><time>2022-10-29T11:19:59.917</time></trkpt><trkpt lat="55.7767569" lon="49.1282819"><time>2022-10-29T11:20:03.907</time></trkpt><trkpt lat="55.7767057" lon="49.1282644"><time>2022-10-29T11:20:07.923</time></trkpt><trkpt lat="55.7766575" lon="49.1282463"><time>2022-10-29T11:20:13.907</time></trkpt><trkpt lat="55.7766078" lon="49.1282280"><time>2022-10-29T11:20:16.913</time></trkpt><trkpt lat="55.7765550" lon="49.1282223"><time>2022-10-29T11:20:20.907</time></trkpt><trkpt lat="55.7765025" lon="49.1282228"><time>2022-10-29T11:20:24.933</time></trkpt><trkpt lat="55.7764481" lon="49.1282338"><time>2022-10-29T11:20:28.920</time></trkpt><trkpt lat="55.7763937" lon="49.1282255"><time>2022-10-29T11:20:33.920</time></trkpt><trkpt lat="55.7763473" lon="49.1282210"><time>2022-10-29T11:20:37.910</time></trkpt><trkpt lat="55.7763009" lon="49.1282189"><time>2022-10-29T11:20:41.923</time></trkpt><trkpt lat="55.7762570" lon="49.1282012"><time>2022-10-29T11:20:45.920</time></trkpt><trkpt lat="55.7762028" lon="49.1281855"><time>2022-10-29T11:20:50.917</time></trkpt><trkpt lat="55.7761585" lon="49.1281712"><time>2022-10-29T11:20:54.910</time></trkpt><trkpt lat="55.7761216" lon="49.1281121"><time>2022-10-29T11:21:00.917</time></trkpt><trkpt lat="55.7761364" lon="49.1280221"><time>2022-10-29T11:21:04.907</time></trkpt><trkpt lat="55.7761491" lon="49.1279395"><time>2022-10-29T11:21:08.913</time></trkpt><trkpt lat="55.7761620" lon="49.1278548"><time>2022-10-29T11:21:13.917</time></trkpt><trkpt lat="55.7761643" lon="49.1277733"><time>2022-10-29T11:21:46.910</time></trkpt><trkpt lat="55.7761726" lon="49.1276935"><time>2022-10-29T11:21:49.910</time></trkpt><trkpt lat="55.7761576" lon="49.1276004"><time>2022-10-29T11:21:52.903</time></trkpt><trkpt lat="55.7761325" lon="49.1275298"><time>2022-10-29T11:21:54.910</time></trkpt><trkpt lat="55.7760960" lon="49.1274418"><time>2022-10-29T11:21:57.907</time></trkpt><trkpt lat="55.7760629" lon="49.1273551"><time>2022-10-29T11:21:59.910</time></trkpt><trkpt lat="55.7760495" lon="49.1272604"><time>2022-10-29T11:22:01.907</time></trkpt><trkpt lat="55.7760583" lon="49.1271584"><time>2022-10-29T11:22:03.903</time></trkpt><trkpt lat="55.7760683" lon="49.1270505"><time>2022-10-29T11:22:05.910</time></trkpt><trkpt lat="55.7760796" lon="49.1269175"><time>2022-10-29T11:22:07.890</time></trkpt><trkpt lat="55.7760904" lon="49.1267742"><time>2022-10-29T11:22:09.873</time></trkpt><trkpt lat="55.7760972" lon="49.1266376"><time>2022-10-29T11:22:11.880</time></trkpt><trkpt lat="55.7761021" lon="49.1265202"><time>2022-10-29T11:22:13.880</time></trkpt><trkpt lat="55.7760820" lon="49.1264023"><time>2022-10-29T11:22:15.907</time></trkpt><trkpt lat="55.7760257" lon="49.1263194"><time>2022-10-29T11:22:17.907</time></trkpt><trkpt lat="55.7759542" lon="49.1262934"><time>2022-10-29T11:22:19.910</time></trkpt><trkpt lat="55.7758700" lon="49.1263187"><time>2022-10-29T11:22:21.923</time></trkpt><trkpt lat="55.7758273" lon="49.1263454"><time>2022-10-29T11:22:22.907</time></trkpt><trkpt lat="55.7757860" lon="49.1263828"><time>2022-10-29T11:22:23.907</time></trkpt><trkpt lat="55.7757376" lon="49.1264547"><time>2022-10-29T11:22:24.910</time></trkpt><trkpt lat="55.7756980" lon="49.1264983"><time>2022-10-29T11:22:25.910</time></trkpt><trkpt lat="55.7756589" lon="49.1265418"><time>2022-10-29T11:22:26.910</time></trkpt><trkpt lat="55.7755900" lon="49.1266157"><time>2022-10-29T11:22:28.913</time></trkpt><trkpt lat="55.7755242" lon="49.1266868"><time>2022-10-29T11:22:30.903</time></trkpt><trkpt lat="55.7754641" lon="49.1267421"><time>2022-10-29T11:22:32.947</time></trkpt><trkpt lat="55.7754496" lon="49.1267802"><time>2022-10-29T11:22:34.143</time></trkpt><trkpt lat="55.7753827" lon="49.1268418"><time>2022-10-29T11:22:35.900</time></trkpt><trkpt lat="55.7753120" lon="49.1268484"><time>2022-10-29T11:22:37.890</time></trkpt><trkpt lat="55.7752403" lon="49.1268274"><time>2022-10-29T11:22:39.887</time></trkpt><trkpt lat="55.7751664" lon="49.1267947"><time>2022-10-29T11:22:41.900</time></trkpt><trkpt lat="55.7750884" lon="49.1267780"><time>2022-10-29T11:22:43.900</time></trkpt><trkpt lat="55.7750070" lon="49.1267477"><time>2022-10-29T11:22:45.890</time></trkpt><trkpt lat="55.7749297" lon="49.1267103"><time>2022-10-29T11:22:47.900</time></trkpt><trkpt lat="55.7748542" lon="49.1266859"><time>2022-10-29T11:22:49.893</time></trkpt><trkpt lat="55.7747864" lon="49.1266656"><time>2022-10-29T11:22:51.890</time></trkpt><trkpt lat="55.7747172" lon="49.1266443"><time>2022-10-29T11:22:53.890</time></trkpt><trkpt lat="55.7746491" lon="49.1266232"><time>2022-10-29T11:22:55.893</time></trkpt><trkpt lat="55.7745807" lon="49.1266043"><time>2022-10-29T11:22:57.920</time></trkpt><trkpt lat="55.7745503" lon="49.1265974"><time>2022-10-29T11:22:59.017</time></trkpt><trkpt lat="55.7745033" lon="49.1265797"><time>2022-10-29T11:22:59.900</time></trkpt><trkpt lat="55.7744361" lon="49.1265596"><time>2022-10-29T11:23:01.897</time></trkpt><trkpt lat="55.7743771" lon="49.1265376"><time>2022-10-29T11:23:03.913</time></trkpt><trkpt lat="55.7743098" lon="49.1265247"><time>2022-10-29T11:23:05.877</time></trkpt><trkpt lat="55.7742504" lon="49.1265855"><time>2022-10-29T11:23:07.877</time></trkpt><trkpt lat="55.7742173" lon="49.1266976"><time>2022-10-29T11:23:09.903</time></trkpt><trkpt lat="55.7741881" lon="49.1268152"><time>2022-10-29T11:23:11.907</time></trkpt><trkpt lat="55.7741617" lon="49.1268953"><time>2022-10-29T11:23:13.913</time></trkpt><trkpt lat="55.7741345" lon="49.1269659"><time>2022-10-29T11:23:15.900</time></trkpt><trkpt lat="55.7741083" lon="49.1270344"><time>2022-10-29T11:23:17.870</time></trkpt><trkpt lat="55.7740737" lon="49.1271263"><time>2022-10-29T11:23:20.877</time></trkpt><trkpt lat="55.7740090" lon="49.1271077"><time>2022-10-29T11:23:23.897</time></trkpt><trkpt lat="55.7740011" lon="49.1270550"><time>2022-10-29T11:23:25.030</time></trkpt><trkpt lat="55.7739507" lon="49.1269969"><time>2022-10-29T11:23:26.877</time></trkpt><trkpt lat="55.7739103" lon="49.1269554"><time>2022-10-29T11:23:28.880</time></trkpt><trkpt lat="55.7738628" lon="49.1268993"><time>2022-10-29T11:23:31.880</time></trkpt><trkpt lat="55.7738315" lon="49.1268048"><time>2022-10-29T11:23:34.910</time></trkpt><trkpt lat="55.7738315" lon="49.1268048"><time>2022-10-29T11:23:34.987</time></trkpt><trkpt lat="55.7738075" lon="49.1267220"><time>2022-10-29T11:23:36.900</time></trkpt><trkpt lat="55.7737824" lon="49.1267160"><time>2022-10-29T11:23:38.027</time></trkpt><trkpt lat="55.7737626" lon="49.1266104"><time>2022-10-29T11:23:40.873</time></trkpt><trkpt lat="55.7737945" lon="49.1265164"><time>2022-10-29T11:23:43.880</time></trkpt><trkpt lat="55.7737901" lon="49.1264161"><time>2022-10-29T11:24:55.907</time></trkpt><trkpt lat="55.7737430" lon="49.1263630"><time>2022-10-29T11:24:57.907</time></trkpt><trkpt lat="55.7736694" lon="49.1263765"><time>2022-10-29T11:24:59.923</time></trkpt><trkpt lat="55.7735932" lon="49.1264008"><time>2022-10-29T11:25:01.917</time></trkpt><trkpt lat="55.7735084" lon="49.1264261"><time>2022-10-29T11:25:03.917</time></trkpt><trkpt lat="55.7734241" lon="49.1264524"><time>2022-10-29T11:25:05.923</time></trkpt><trkpt lat="55.7733773" lon="49.1264799"><time>2022-10-29T11:25:06.903</time></trkpt><trkpt lat="55.7733331" lon="49.1264962"><time>2022-10-29T11:25:07.917</time></trkpt><trkpt lat="55.7732424" lon="49.1265126"><time>2022-10-29T11:25:09.917</time></trkpt><trkpt lat="55.7731519" lon="49.1265316"><time>2022-10-29T11:25:11.917</time></trkpt><trkpt lat="55.7731072" lon="49.1265480"><time>2022-10-29T11:25:12.913</time></trkpt><trkpt lat="55.7730226" lon="49.1265576"><time>2022-10-29T11:25:14.907</time></trkpt><trkpt lat="55.7729416" lon="49.1265712"><time>2022-10-29T11:25:16.920</time></trkpt><trkpt lat="55.7728565" lon="49.1265975"><time>2022-10-29T11:25:18.910</time></trkpt><trkpt lat="55.7727924" lon="49.1266862"><time>2022-10-29T11:25:20.917</time></trkpt><trkpt lat="55.7727607" lon="49.1268296"><time>2022-10-29T11:25:22.920</time></trkpt><trkpt lat="55.7727552" lon="49.1269109"><time>2022-10-29T11:25:23.917</time></trkpt><trkpt lat="55.7727469" lon="49.1270615"><time>2022-10-29T11:25:25.917</time></trkpt><trkpt lat="55.7727432" lon="49.1271429"><time>2022-10-29T11:25:26.917</time></trkpt><trkpt lat="55.7727356" lon="49.1272300"><time>2022-10-29T11:25:27.917</time></trkpt><trkpt lat="55.7727276" lon="49.1273172"><time>2022-10-29T11:25:28.880</time></trkpt><trkpt lat="55.7727200" lon="49.1274001"><time>2022-10-29T11:25:29.913</time></trkpt><trkpt lat="55.7727144" lon="49.1274886"><time>2022-10-29T11:25:30.907</time></trkpt><trkpt lat="55.7726975" lon="49.1275703"><time>2022-10-29T11:25:31.910</time></trkpt><trkpt lat="55.7726683" lon="49.1276456"><time>2022-10-29T11:25:32.917</time></trkpt><trkpt lat="55.7726345" lon="49.1277046"><time>2022-10-29T11:25:33.923</time></trkpt><trkpt lat="55.7725967" lon="49.1277729"><time>2022-10-29T11:25:34.917</time></trkpt><trkpt lat="55.7725619" lon="49.1278363"><time>2022-10-29T11:25:35.923</time></trkpt><trkpt lat="55.7725221" lon="49.1278942"><time>2022-10-29T11:25:36.920</time></trkpt><trkpt lat="55.7724807" lon="49.1279442"><time>2022-10-29T11:25:37.917</time></trkpt><trkpt lat="55.7724387" lon="49.1279907"><time>2022-10-29T11:25:38.917</time></trkpt><trkpt lat="55.7723966" lon="49.1280450"><time>2022-10-29T11:25:39.917</time></trkpt><trkpt lat="55.7723579" lon="49.1281039"><time>2022-10-29T11:25:40.920</time></trkpt><trkpt lat="55.7723159" lon="49.1281694"><time>2022-10-29T11:25:41.917</time></trkpt><trkpt lat="55.7722774" lon="49.1282293"><time>2022-10-29T11:25:42.917</time></trkpt><trkpt lat="55.7722432" lon="49.1282936"><time>2022-10-29T11:25:43.920</time></trkpt><trkpt lat="55.7722057" lon="49.1283529"><time>2022-10-29T11:25:44.920</time></trkpt><trkpt lat="55.7721691" lon="49.1284150"><time>2022-10-29T11:25:45.910</time></trkpt><trkpt lat="55.7721109" lon="49.1285234"><time>2022-10-29T11:25:47.907</time></trkpt><trkpt lat="55.7720303" lon="49.1285458"><time>2022-10-29T11:25:49.917</time></trkpt><trkpt lat="55.7719452" lon="49.1285498"><time>2022-10-29T11:25:51.900</time></trkpt><trkpt lat="55.7718634" lon="49.1284993"><time>2022-10-29T11:25:53.910</time></trkpt><trkpt lat="55.7718202" lon="49.1283632"><time>2022-10-29T11:25:55.880</time></trkpt><trkpt lat="55.7717737" lon="49.1282353"><time>2022-10-29T11:25:57.880</time></trkpt><trkpt lat="55.7717360" lon="49.1280993"><time>2022-10-29T11:25:59.870</time></trkpt><trkpt lat="55.7717115" lon="49.1280282"><time>2022-10-29T11:26:00.897</time></trkpt><trkpt lat="55.7716903" lon="49.1279556"><time>2022-10-29T11:26:01.870</time></trkpt><trkpt lat="55.7716705" lon="49.1278707"><time>2022-10-29T11:26:02.913</time></trkpt><trkpt lat="55.7716137" lon="49.1277568"><time>2022-10-29T11:26:04.900</time></trkpt><trkpt lat="55.7715216" lon="49.1277482"><time>2022-10-29T11:26:06.883</time></trkpt><trkpt lat="55.7714335" lon="49.1277767"><time>2022-10-29T11:26:08.907</time></trkpt><trkpt lat="55.7713815" lon="49.1277851"><time>2022-10-29T11:26:09.913</time></trkpt><trkpt lat="55.7713322" lon="49.1278026"><time>2022-10-29T11:26:10.910</time></trkpt><trkpt lat="55.7712446" lon="49.1278291"><time>2022-10-29T11:26:12.877</time></trkpt><trkpt lat="55.7711993" lon="49.1278379"><time>2022-10-29T11:26:13.923</time></trkpt><trkpt lat="55.7711161" lon="49.1278416"><time>2022-10-29T11:26:15.897</time></trkpt><trkpt lat="55.7710707" lon="49.1278402"><time>2022-10-29T11:26:16.900</time></trkpt><trkpt lat="55.7709854" lon="49.1277949"><time>2022-10-29T11:26:18.907</time></trkpt><trkpt lat="55.7708905" lon="49.1277752"><time>2022-10-29T11:26:20.910</time></trkpt><trkpt lat="55.7708089" lon="49.1277472"><time>2022-10-29T11:26:22.867</time></trkpt><trkpt lat="55.7707314" lon="49.1277294"><time>2022-10-29T11:26:24.937</time></trkpt><trkpt lat="55.7706545" lon="49.1277604"><time>2022-10-29T11:26:26.907</time></trkpt><trkpt lat="55.7705908" lon="49.1278376"><time>2022-10-29T11:26:28.913</time></trkpt><trkpt lat="55.7705190" lon="49.1279206"><time>2022-10-29T11:26:30.910</time></trkpt><trkpt lat="55.7704509" lon="49.1280077"><time>2022-10-29T11:26:32.907</time></trkpt><trkpt lat="55.7703835" lon="49.1280900"><time>2022-10-29T11:26:34.877</time></trkpt><trkpt lat="55.7703093" lon="49.1281524"><time>2022-10-29T11:26:36.903</time></trkpt><trkpt lat="55.7702305" lon="49.1282106"><time>2022-10-29T11:26:38.913</time></trkpt><trkpt lat="55.7701597" lon="49.1282842"><time>2022-10-29T11:26:40.910</time></trkpt><trkpt lat="55.7700986" lon="49.1283776"><time>2022-10-29T11:26:42.910</time></trkpt><trkpt lat="55.7700444" lon="49.1284876"><time>2022-10-29T11:26:44.903</time></trkpt><trkpt lat="55.7699813" lon="49.1285896"><time>2022-10-29T11:26:46.907</time></trkpt><trkpt lat="55.7699144" lon="49.1286637"><time>2022-10-29T11:26:48.923</time></trkpt><trkpt lat="55.7698420" lon="49.1287297"><time>2022-10-29T11:26:50.907</time></trkpt><trkpt lat="55.7697683" lon="49.1287995"><time>2022-10-29T11:26:52.910</time></trkpt><trkpt lat="55.7696973" lon="49.1288743"><time>2022-10-29T11:26:54.913</time></trkpt><trkpt lat="55.7696227" lon="49.1289514"><time>2022-10-29T11:26:56.870</time></trkpt><trkpt lat="55.7695475" lon="49.1290271"><time>2022-10-29T11:26:58.867</time></trkpt><trkpt lat="55.7694738" lon="49.1291074"><time>2022-10-29T11:27:00.877</time></trkpt><trkpt lat="55.7694003" lon="49.1291883"><time>2022-10-29T11:27:02.913</time></trkpt><trkpt lat="55.7693334" lon="49.1292633"><time>2022-10-29T11:27:04.903</time></trkpt><trkpt lat="55.7692706" lon="49.1293264"><time>2022-10-29T11:27:06.900</time></trkpt><trkpt lat="55.7692028" lon="49.1293221"><time>2022-10-29T11:27:08.913</time></trkpt><trkpt lat="55.7691400" lon="49.1292388"><time>2022-10-29T11:27:10.900</time></trkpt><trkpt lat="55.7690816" lon="49.1291379"><time>2022-10-29T11:27:12.910</time></trkpt><trkpt lat="55.7690523" lon="49.1290302"><time>2022-10-29T11:27:14.907</time></trkpt><trkpt lat="55.7690275" lon="49.1289153"><time>2022-10-29T11:27:16.867</time></trkpt><trkpt lat="55.7689989" lon="49.1288149"><time>2022-10-29T11:27:18.917</time></trkpt><trkpt lat="55.7689705" lon="49.1287300"><time>2022-10-29T11:27:20.900</time></trkpt><trkpt lat="55.7689366" lon="49.1286180"><time>2022-10-29T11:27:22.910</time></trkpt><trkpt lat="55.7689004" lon="49.1285089"><time>2022-10-29T11:27:24.913</time></trkpt><trkpt lat="55.7688572" lon="49.1284237"><time>2022-10-29T11:27:26.903</time></trkpt><trkpt lat="55.7687986" lon="49.1283626"><time>2022-10-29T11:27:28.907</time></trkpt><trkpt lat="55.7687389" lon="49.1283100"><time>2022-10-29T11:27:30.907</time></trkpt><trkpt lat="55.7686902" lon="49.1282630"><time>2022-10-29T11:27:32.927</time></trkpt><trkpt lat="55.7686438" lon="49.1281792"><time>2022-10-29T11:27:34.910</time></trkpt><trkpt lat="55.7686031" lon="49.1280601"><time>2022-10-29T11:27:36.930</time></trkpt><trkpt lat="55.7685612" lon="49.1279379"><time>2022-10-29T11:27:38.903</time></trkpt><trkpt lat="55.7685145" lon="49.1278155"><time>2022-10-29T11:27:40.883</time></trkpt><trkpt lat="55.7684650" lon="49.1276872"><time>2022-10-29T11:27:42.870</time></trkpt><trkpt lat="55.7684363" lon="49.1275468"><time>2022-10-29T11:27:44.883</time></trkpt><trkpt lat="55.7684321" lon="49.1273965"><time>2022-10-29T11:27:46.910</time></trkpt><trkpt lat="55.7684373" lon="49.1272471"><time>2022-10-29T11:27:48.880</time></trkpt><trkpt lat="55.7684528" lon="49.1271061"><time>2022-10-29T11:27:50.870</time></trkpt><trkpt lat="55.7684999" lon="49.1269771"><time>2022-10-29T11:27:52.877</time></trkpt><trkpt lat="55.7685512" lon="49.1268680"><time>2022-10-29T11:27:54.910</time></trkpt><trkpt lat="55.7685986" lon="49.1267726"><time>2022-10-29T11:27:56.913</time></trkpt><trkpt lat="55.7686507" lon="49.1266862"><time>2022-10-29T11:27:58.870</time></trkpt><trkpt lat="55.7686815" lon="49.1266002"><time>2022-10-29T11:28:00.870</time></trkpt><trkpt lat="55.7686623" lon="49.1265217"><time>2022-10-29T11:28:02.917</time></trkpt><trkpt lat="55.7686059" lon="49.1264831"><time>2022-10-29T11:28:04.907</time></trkpt><trkpt lat="55.7685507" lon="49.1264895"><time>2022-10-29T11:28:06.920</time></trkpt><trkpt lat="55.7684964" lon="49.1265134"><time>2022-10-29T11:28:08.917</time></trkpt><trkpt lat="55.7684493" lon="49.1265542"><time>2022-10-29T11:28:10.917</time></trkpt><trkpt lat="55.7684044" lon="49.1266035"><time>2022-10-29T11:28:12.927</time></trkpt><trkpt lat="55.7683615" lon="49.1266483"><time>2022-10-29T11:28:14.903</time></trkpt><trkpt lat="55.7683155" lon="49.1266905"><time>2022-10-29T11:28:16.913</time></trkpt><trkpt lat="55.7682687" lon="49.1267362"><time>2022-10-29T11:28:18.920</time></trkpt><trkpt lat="55.7682280" lon="49.1267850"><time>2022-10-29T11:28:20.920</time></trkpt><trkpt lat="55.7681893" lon="49.1268343"><time>2022-10-29T11:28:22.920</time></trkpt><trkpt lat="55.7681398" lon="49.1268456"><time>2022-10-29T11:28:24.880</time></trkpt><trkpt lat="55.7680922" lon="49.1268451"><time>2022-10-29T11:28:26.893</time></trkpt><trkpt lat="55.7680501" lon="49.1268848"><time>2022-10-29T11:28:28.870</time></trkpt><trkpt lat="55.7680133" lon="49.1269393"><time>2022-10-29T11:28:30.883</time></trkpt><trkpt lat="55.7679704" lon="49.1269943"><time>2022-10-29T11:28:34.907</time></trkpt><trkpt lat="55.7678948" lon="49.1270164"><time>2022-10-29T11:28:37.890</time></trkpt><trkpt lat="55.7678338" lon="49.1269320"><time>2022-10-29T11:28:39.907</time></trkpt><trkpt lat="55.7677996" lon="49.1268172"><time>2022-10-29T11:28:41.910</time></trkpt><trkpt lat="55.7677678" lon="49.1267109"><time>2022-10-29T11:28:43.913</time></trkpt><trkpt lat="55.7677366" lon="49.1266126"><time>2022-10-29T11:28:45.910</time></trkpt><trkpt lat="55.7677077" lon="49.1265225"><time>2022-10-29T11:28:47.910</time></trkpt><trkpt lat="55.7676781" lon="49.1264321"><time>2022-10-29T11:28:49.910</time></trkpt><trkpt lat="55.7676442" lon="49.1263590"><time>2022-10-29T11:28:51.920</time></trkpt><trkpt lat="55.7675931" lon="49.1263462"><time>2022-10-29T11:28:53.907</time></trkpt><trkpt lat="55.7675424" lon="49.1263858"><time>2022-10-29T11:28:55.910</time></trkpt><trkpt lat="55.7674947" lon="49.1264396"><time>2022-10-29T11:28:57.913</time></trkpt><trkpt lat="55.7674477" lon="49.1264937"><time>2022-10-29T11:28:59.893</time></trkpt><trkpt lat="55.7674282" lon="49.1265890"><time>2022-10-29T11:29:01.870</time></trkpt><trkpt lat="55.7674991" lon="49.1266841"><time>2022-10-29T11:29:02.877</time></trkpt><trkpt lat="55.7675376" lon="49.1268118"><time>2022-10-29T11:29:04.877</time></trkpt><trkpt lat="55.7675781" lon="49.1269353"><time>2022-10-29T11:29:06.907</time></trkpt><trkpt lat="55.7676175" lon="49.1270528"><time>2022-10-29T11:29:08.937</time></trkpt><trkpt lat="55.7676313" lon="49.1270714"><time>2022-10-29T11:29:10.090</time></trkpt><trkpt lat="55.7676603" lon="49.1271374"><time>2022-10-29T11:29:10.907</time></trkpt><trkpt lat="55.7676969" lon="49.1272535"><time>2022-10-29T11:29:12.907</time></trkpt><trkpt lat="55.7677373" lon="49.1273569"><time>2022-10-29T11:29:14.890</time></trkpt><trkpt lat="55.7677731" lon="49.1274563"><time>2022-10-29T11:29:16.897</time></trkpt><trkpt lat="55.7678020" lon="49.1275387"><time>2022-10-29T11:29:18.897</time></trkpt><trkpt lat="55.7678332" lon="49.1276017"><time>2022-10-29T11:29:20.900</time></trkpt><trkpt lat="55.7678455" lon="49.1277022"><time>2022-10-29T11:29:24.903</time></trkpt><trkpt lat="55.7678321" lon="49.1277862"><time>2022-10-29T11:29:29.893</time></trkpt><trkpt lat="55.7678160" lon="49.1278974"><time>2022-10-29T11:29:36.903</time></trkpt><trkpt lat="55.7678080" lon="49.1280070"><time>2022-10-29T11:29:39.907</time></trkpt><trkpt lat="55.7677826" lon="49.1281024"><time>2022-10-29T11:29:42.903</time></trkpt><trkpt lat="55.7677393" lon="49.1281461"><time>2022-10-29T11:29:44.913</time></trkpt><trkpt lat="55.7676759" lon="49.1281851"><time>2022-10-29T11:29:46.917</time></trkpt><trkpt lat="55.7676093" lon="49.1282353"><time>2022-10-29T11:29:48.907</time></trkpt><trkpt lat="55.7675502" lon="49.1282839"><time>2022-10-29T11:29:50.903</time></trkpt><trkpt lat="55.7674789" lon="49.1283320"><time>2022-10-29T11:29:52.910</time></trkpt><trkpt lat="55.7674082" lon="49.1283746"><time>2022-10-29T11:29:54.870</time></trkpt><trkpt lat="55.7673354" lon="49.1284342"><time>2022-10-29T11:29:56.877</time></trkpt><trkpt lat="55.7672672" lon="49.1284813"><time>2022-10-29T11:29:58.927</time></trkpt><trkpt lat="55.7672452" lon="49.1284729"><time>2022-10-29T11:30:00.063</time></trkpt><trkpt lat="55.7671874" lon="49.1285057"><time>2022-10-29T11:30:01.900</time></trkpt><trkpt lat="55.7671376" lon="49.1285247"><time>2022-10-29T11:30:03.887</time></trkpt><trkpt lat="55.7670798" lon="49.1285460"><time>2022-10-29T11:30:05.890</time></trkpt><trkpt lat="55.7670212" lon="49.1285660"><time>2022-10-29T11:30:07.893</time></trkpt><trkpt lat="55.7669590" lon="49.1285831"><time>2022-10-29T11:30:09.893</time></trkpt><trkpt lat="55.7668965" lon="49.1286034"><time>2022-10-29T11:30:11.897</time></trkpt><trkpt lat="55.7668351" lon="49.1286316"><time>2022-10-29T11:30:13.887</time></trkpt><trkpt lat="55.7667786" lon="49.1286625"><time>2022-10-29T11:30:15.890</time></trkpt><trkpt lat="55.7667199" lon="49.1287052"><time>2022-10-29T11:30:17.893</time></trkpt><trkpt lat="55.7666677" lon="49.1287453"><time>2022-10-29T11:30:19.900</time></trkpt><trkpt lat="55.7666188" lon="49.1287743"><time>2022-10-29T11:30:21.890</time></trkpt><trkpt lat="55.7665744" lon="49.1288025"><time>2022-10-29T11:30:23.893</time></trkpt><trkpt lat="55.7665230" lon="49.1288492"><time>2022-10-29T11:30:25.900</time></trkpt><trkpt lat="55.7664718" lon="49.1289002"><time>2022-10-29T11:30:27.893</time></trkpt><trkpt lat="55.7664349" lon="49.1289522"><time>2022-10-29T11:30:29.897</time></trkpt><trkpt lat="55.7664254" lon="49.1290303"><time>2022-10-29T11:30:31.893</time></trkpt><trkpt lat="55.7664405" lon="49.1291186"><time>2022-10-29T11:30:33.907</time></trkpt><trkpt lat="55.7664586" lon="49.1292126"><time>2022-10-29T11:30:35.907</time></trkpt><trkpt lat="55.7664725" lon="49.1293074"><time>2022-10-29T11:30:37.870</time></trkpt><trkpt lat="55.7664838" lon="49.1294035"><time>2022-10-29T11:30:39.910</time></trkpt><trkpt lat="55.7664967" lon="49.1294940"><time>2022-10-29T11:30:41.913</time></trkpt><trkpt lat="55.7665100" lon="49.1295798"><time>2022-10-29T11:30:43.907</time></trkpt><trkpt lat="55.7665196" lon="49.1296638"><time>2022-10-29T11:30:45.947</time></trkpt><trkpt lat="55.7665262" lon="49.1296877"><time>2022-10-29T11:30:47.077</time></trkpt><trkpt lat="55.7665513" lon="49.1298007"><time>2022-10-29T11:30:49.907</time></trkpt><trkpt lat="55.7665635" lon="49.1298798"><time>2022-10-29T11:30:51.893</time></trkpt><trkpt lat="55.7665746" lon="49.1299671"><time>2022-10-29T11:30:54.907</time></trkpt><trkpt lat="55.7665791" lon="49.1300706"><time>2022-10-29T11:30:57.893</time></trkpt><trkpt lat="55.7665838" lon="49.1301679"><time>2022-10-29T11:31:01.903</time></trkpt><trkpt lat="55.7666308" lon="49.1302113"><time>2022-10-29T11:31:05.867</time></trkpt><trkpt lat="55.7666796" lon="49.1302502"><time>2022-10-29T11:31:15.910</time></trkpt><trkpt lat="55.7667210" lon="49.1302810"><time>2022-10-29T11:31:20.900</time></trkpt><trkpt lat="55.7667548" lon="49.1302219"><time>2022-10-29T11:31:44.873</time></trkpt><trkpt lat="55.7667061" lon="49.1302332"><time>2022-10-29T11:31:58.873</time></trkpt><trkpt lat="55.7666595" lon="49.1302780"><time>2022-10-29T11:32:02.907</time></trkpt><trkpt lat="55.7666320" lon="49.1302141"><time>2022-10-29T11:32:22.887</time></trkpt><trkpt lat="55.7666824" lon="49.1302629"><time>2022-10-29T11:32:40.903</time></trkpt><trkpt lat="55.7667303" lon="49.1302464"><time>2022-10-29T11:32:45.903</time></trkpt><trkpt lat="55.7667806" lon="49.1302145"><time>2022-10-29T11:32:50.907</time></trkpt><trkpt lat="55.7668251" lon="49.1301873"><time>2022-10-29T11:32:54.933</time></trkpt><trkpt lat="55.7668251" lon="49.1301873"><time>2022-10-29T11:32:55.017</time></trkpt><trkpt lat="55.7667716" lon="49.1301808"><time>2022-10-29T11:33:13.927</time></trkpt><trkpt lat="55.7667452" lon="49.1302076"><time>2022-10-29T11:33:15.063</time></trkpt><trkpt lat="55.7666980" lon="49.1302089"><time>2022-10-29T11:33:19.903</time></trkpt><trkpt lat="55.7666527" lon="49.1301780"><time>2022-10-29T11:34:02.907</time></trkpt><trkpt lat="55.7666124" lon="49.1301426"><time>2022-10-29T11:34:06.917</time></trkpt><trkpt lat="55.7665888" lon="49.1300609"><time>2022-10-29T11:34:11.913</time></trkpt><trkpt lat="55.7665848" lon="49.1299700"><time>2022-10-29T11:34:17.917</time></trkpt><trkpt lat="55.7665705" lon="49.1298915"><time>2022-10-29T11:34:36.913</time></trkpt><trkpt lat="55.7665622" lon="49.1298101"><time>2022-10-29T11:34:54.923</time></trkpt><trkpt lat="55.7665463" lon="49.1297255"><time>2022-10-29T11:34:56.913</time></trkpt><trkpt lat="55.7665360" lon="49.1296440"><time>2022-10-29T11:34:58.910</time></trkpt><trkpt lat="55.7665285" lon="49.1295470"><time>2022-10-29T11:35:00.913</time></trkpt><trkpt lat="55.7665237" lon="49.1294512"><time>2022-10-29T11:35:02.913</time></trkpt><trkpt lat="55.7665150" lon="49.1293400"><time>2022-10-29T11:35:04.910</time></trkpt><trkpt lat="55.7665064" lon="49.1292410"><time>2022-10-29T11:35:06.910</time></trkpt><trkpt lat="55.7665007" lon="49.1291572"><time>2022-10-29T11:35:08.913</time></trkpt><trkpt lat="55.7664915" lon="49.1290667"><time>2022-10-29T11:35:10.913</time></trkpt><trkpt lat="55.7664807" lon="49.1289809"><time>2022-10-29T11:35:12.917</time></trkpt><trkpt lat="55.7664846" lon="49.1288955"><time>2022-10-29T11:35:14.917</time></trkpt><trkpt lat="55.7665355" lon="49.1288106"><time>2022-10-29T11:35:16.917</time></trkpt><trkpt lat="55.7665769" lon="49.1287764"><time>2022-10-29T11:35:17.913</time></trkpt><trkpt lat="55.7666190" lon="49.1287445"><time>2022-10-29T11:35:18.923</time></trkpt><trkpt lat="55.7666811" lon="49.1287268"><time>2022-10-29T11:35:19.920</time></trkpt><trkpt lat="55.7667272" lon="49.1286876"><time>2022-10-29T11:35:20.917</time></trkpt><trkpt lat="55.7667744" lon="49.1286537"><time>2022-10-29T11:35:21.920</time></trkpt><trkpt lat="55.7668209" lon="49.1286254"><time>2022-10-29T11:35:22.907</time></trkpt><trkpt lat="55.7668720" lon="49.1285999"><time>2022-10-29T11:35:23.923</time></trkpt><trkpt lat="55.7669186" lon="49.1285818"><time>2022-10-29T11:35:24.917</time></trkpt><trkpt lat="55.7670005" lon="49.1285475"><time>2022-10-29T11:35:26.913</time></trkpt><trkpt lat="55.7670763" lon="49.1285206"><time>2022-10-29T11:35:28.913</time></trkpt><trkpt lat="55.7671491" lon="49.1284993"><time>2022-10-29T11:35:30.917</time></trkpt><trkpt lat="55.7672139" lon="49.1284830"><time>2022-10-29T11:35:32.913</time></trkpt><trkpt lat="55.7672886" lon="49.1284422"><time>2022-10-29T11:35:34.907</time></trkpt><trkpt lat="55.7673554" lon="49.1283996"><time>2022-10-29T11:35:36.910</time></trkpt><trkpt lat="55.7674190" lon="49.1283565"><time>2022-10-29T11:35:38.907</time></trkpt><trkpt lat="55.7674756" lon="49.1283143"><time>2022-10-29T11:35:40.907</time></trkpt><trkpt lat="55.7675320" lon="49.1282677"><time>2022-10-29T11:35:42.923</time></trkpt><trkpt lat="55.7675820" lon="49.1282243"><time>2022-10-29T11:35:44.917</time></trkpt><trkpt lat="55.7676431" lon="49.1281781"><time>2022-10-29T11:35:47.917</time></trkpt><trkpt lat="55.7676891" lon="49.1281399"><time>2022-10-29T11:35:49.920</time></trkpt><trkpt lat="55.7677387" lon="49.1280995"><time>2022-10-29T11:35:51.913</time></trkpt><trkpt lat="55.7677980" lon="49.1280723"><time>2022-10-29T11:35:54.907</time></trkpt><trkpt lat="55.7678389" lon="49.1280098"><time>2022-10-29T11:35:57.880</time></trkpt><trkpt lat="55.7678444" lon="49.1279259"><time>2022-10-29T11:36:00.877</time></trkpt><trkpt lat="55.7678507" lon="49.1278411"><time>2022-10-29T11:36:03.917</time></trkpt><trkpt lat="55.7678926" lon="49.1277721"><time>2022-10-29T11:36:07.903</time></trkpt><trkpt lat="55.7679330" lon="49.1277012"><time>2022-10-29T11:36:10.910</time></trkpt><trkpt lat="55.7679522" lon="49.1276221"><time>2022-10-29T11:36:12.917</time></trkpt><trkpt lat="55.7679420" lon="49.1275182"><time>2022-10-29T11:36:14.917</time></trkpt><trkpt lat="55.7679166" lon="49.1274195"><time>2022-10-29T11:36:16.910</time></trkpt><trkpt lat="55.7678940" lon="49.1273156"><time>2022-10-29T11:36:18.920</time></trkpt><trkpt lat="55.7678771" lon="49.1272152"><time>2022-10-29T11:36:20.910</time></trkpt><trkpt lat="55.7678528" lon="49.1270951"><time>2022-10-29T11:36:22.910</time></trkpt><trkpt lat="55.7678140" lon="49.1269695"><time>2022-10-29T11:36:24.873</time></trkpt><trkpt lat="55.7677703" lon="49.1268414"><time>2022-10-29T11:36:26.877</time></trkpt><trkpt lat="55.7677270" lon="49.1267165"><time>2022-10-29T11:36:28.880</time></trkpt><trkpt lat="55.7676843" lon="49.1266057"><time>2022-10-29T11:36:30.907</time></trkpt><trkpt lat="55.7676415" lon="49.1265077"><time>2022-10-29T11:36:32.873</time></trkpt><trkpt lat="55.7676034" lon="49.1264201"><time>2022-10-29T11:36:34.907</time></trkpt><trkpt lat="55.7676102" lon="49.1263207"><time>2022-10-29T11:36:37.903</time></trkpt><trkpt lat="55.7676539" lon="49.1262733"><time>2022-10-29T11:36:39.897</time></trkpt><trkpt lat="55.7676987" lon="49.1262822"><time>2022-10-29T11:36:41.900</time></trkpt><trkpt lat="55.7677355" lon="49.1263860"><time>2022-10-29T11:36:43.910</time></trkpt><trkpt lat="55.7677740" lon="49.1265047"><time>2022-10-29T11:36:45.900</time></trkpt><trkpt lat="55.7678119" lon="49.1266240"><time>2022-10-29T11:36:47.910</time></trkpt><trkpt lat="55.7678442" lon="49.1267254"><time>2022-10-29T11:36:49.933</time></trkpt><trkpt lat="55.7678748" lon="49.1268139"><time>2022-10-29T11:36:51.910</time></trkpt><trkpt lat="55.7679161" lon="49.1269078"><time>2022-10-29T11:36:54.913</time></trkpt><trkpt lat="55.7679745" lon="49.1269734"><time>2022-10-29T11:36:56.917</time></trkpt><trkpt lat="55.7680605" lon="49.1268807"><time>2022-10-29T11:36:58.920</time></trkpt><trkpt lat="55.7681381" lon="49.1268003"><time>2022-10-29T11:37:00.913</time></trkpt><trkpt lat="55.7682118" lon="49.1267075"><time>2022-10-29T11:37:02.923</time></trkpt><trkpt lat="55.7682550" lon="49.1266622"><time>2022-10-29T11:37:03.917</time></trkpt><trkpt lat="55.7682966" lon="49.1266140"><time>2022-10-29T11:37:04.917</time></trkpt><trkpt lat="55.7683361" lon="49.1265675"><time>2022-10-29T11:37:05.920</time></trkpt><trkpt lat="55.7683792" lon="49.1265211"><time>2022-10-29T11:37:06.923</time></trkpt><trkpt lat="55.7684266" lon="49.1264657"><time>2022-10-29T11:37:07.910</time></trkpt><trkpt lat="55.7684708" lon="49.1264092"><time>2022-10-29T11:37:08.917</time></trkpt><trkpt lat="55.7685181" lon="49.1263646"><time>2022-10-29T11:37:09.917</time></trkpt><trkpt lat="55.7685629" lon="49.1263141"><time>2022-10-29T11:37:10.917</time></trkpt><trkpt lat="55.7686058" lon="49.1262718"><time>2022-10-29T11:37:11.910</time></trkpt><trkpt lat="55.7686560" lon="49.1262266"><time>2022-10-29T11:37:12.870</time></trkpt><trkpt lat="55.7687004" lon="49.1261849"><time>2022-10-29T11:37:13.920</time></trkpt><trkpt lat="55.7687571" lon="49.1261408"><time>2022-10-29T11:37:14.880</time></trkpt><trkpt lat="55.7688090" lon="49.1260974"><time>2022-10-29T11:37:15.880</time></trkpt><trkpt lat="55.7688631" lon="49.1260544"><time>2022-10-29T11:37:16.887</time></trkpt><trkpt lat="55.7689059" lon="49.1260090"><time>2022-10-29T11:37:17.883</time></trkpt><trkpt lat="55.7689567" lon="49.1259661"><time>2022-10-29T11:37:18.910</time></trkpt><trkpt lat="55.7690027" lon="49.1259239"><time>2022-10-29T11:37:19.917</time></trkpt><trkpt lat="55.7690510" lon="49.1258827"><time>2022-10-29T11:37:20.917</time></trkpt><trkpt lat="55.7691049" lon="49.1258372"><time>2022-10-29T11:37:21.913</time></trkpt><trkpt lat="55.7691492" lon="49.1257934"><time>2022-10-29T11:37:22.907</time></trkpt><trkpt lat="55.7691966" lon="49.1257465"><time>2022-10-29T11:37:23.917</time></trkpt><trkpt lat="55.7692465" lon="49.1257025"><time>2022-10-29T11:37:24.917</time></trkpt><trkpt lat="55.7692948" lon="49.1256627"><time>2022-10-29T11:37:25.917</time></trkpt><trkpt lat="55.7693454" lon="49.1256224"><time>2022-10-29T11:37:26.903</time></trkpt><trkpt lat="55.7693926" lon="49.1255793"><time>2022-10-29T11:37:27.910</time></trkpt><trkpt lat="55.7694438" lon="49.1255411"><time>2022-10-29T11:37:28.903</time></trkpt><trkpt lat="55.7694955" lon="49.1255045"><time>2022-10-29T11:37:29.917</time></trkpt><trkpt lat="55.7695463" lon="49.1254636"><time>2022-10-29T11:37:30.910</time></trkpt><trkpt lat="55.7695885" lon="49.1254240"><time>2022-10-29T11:37:31.913</time></trkpt><trkpt lat="55.7696398" lon="49.1253816"><time>2022-10-29T11:37:32.873</time></trkpt><trkpt lat="55.7696923" lon="49.1253346"><time>2022-10-29T11:37:33.927</time></trkpt><trkpt lat="55.7697383" lon="49.1252868"><time>2022-10-29T11:37:34.910</time></trkpt><trkpt lat="55.7697886" lon="49.1252407"><time>2022-10-29T11:37:35.920</time></trkpt><trkpt lat="55.7698380" lon="49.1251906"><time>2022-10-29T11:37:36.873</time></trkpt><trkpt lat="55.7698893" lon="49.1251437"><time>2022-10-29T11:37:37.883</time></trkpt><trkpt lat="55.7699383" lon="49.1250997"><time>2022-10-29T11:37:38.913</time></trkpt><trkpt lat="55.7699829" lon="49.1250516"><time>2022-10-29T11:37:39.910</time></trkpt><trkpt lat="55.7700353" lon="49.1250096"><time>2022-10-29T11:37:40.907</time></trkpt><trkpt lat="55.7700865" lon="49.1249637"><time>2022-10-29T11:37:41.923</time></trkpt><trkpt lat="55.7701392" lon="49.1249151"><time>2022-10-29T11:37:42.903</time></trkpt><trkpt lat="55.7701852" lon="49.1248715"><time>2022-10-29T11:37:44.920</time></trkpt><trkpt lat="55.7702348" lon="49.1248217"><time>2022-10-29T11:37:44.933</time></trkpt><trkpt lat="55.7702878" lon="49.1247695"><time>2022-10-29T11:37:45.910</time></trkpt><trkpt lat="55.7703387" lon="49.1247213"><time>2022-10-29T11:37:46.907</time></trkpt><trkpt lat="55.7703850" lon="49.1246675"><time>2022-10-29T11:37:47.917</time></trkpt><trkpt lat="55.7704339" lon="49.1246256"><time>2022-10-29T11:37:48.903</time></trkpt><trkpt lat="55.7704934" lon="49.1245730"><time>2022-10-29T11:37:49.903</time></trkpt><trkpt lat="55.7705411" lon="49.1245248"><time>2022-10-29T11:37:50.907</time></trkpt><trkpt lat="55.7705942" lon="49.1244798"><time>2022-10-29T11:37:51.910</time></trkpt><trkpt lat="55.7706449" lon="49.1244264"><time>2022-10-29T11:37:52.903</time></trkpt><trkpt lat="55.7706958" lon="49.1243782"><time>2022-10-29T11:37:53.873</time></trkpt><trkpt lat="55.7707514" lon="49.1243325"><time>2022-10-29T11:37:54.907</time></trkpt><trkpt lat="55.7708024" lon="49.1242803"><time>2022-10-29T11:37:55.927</time></trkpt><trkpt lat="55.7708482" lon="49.1242241"><time>2022-10-29T11:37:56.927</time></trkpt><trkpt lat="55.7709027" lon="49.1241633"><time>2022-10-29T11:37:57.907</time></trkpt><trkpt lat="55.7709494" lon="49.1241024"><time>2022-10-29T11:37:58.910</time></trkpt><trkpt lat="55.7710098" lon="49.1240547"><time>2022-10-29T11:37:59.927</time></trkpt><trkpt lat="55.7710653" lon="49.1240026"><time>2022-10-29T11:38:00.907</time></trkpt><trkpt lat="55.7711246" lon="49.1239506"><time>2022-10-29T11:38:01.910</time></trkpt><trkpt lat="55.7711778" lon="49.1239104"><time>2022-10-29T11:38:02.910</time></trkpt><trkpt lat="55.7712319" lon="49.1238693"><time>2022-10-29T11:38:03.920</time></trkpt><trkpt lat="55.7712854" lon="49.1238270"><time>2022-10-29T11:38:04.923</time></trkpt><trkpt lat="55.7713398" lon="49.1237872"><time>2022-10-29T11:38:05.923</time></trkpt><trkpt lat="55.7713901" lon="49.1237536"><time>2022-10-29T11:38:06.920</time></trkpt><trkpt lat="55.7714416" lon="49.1237109"><time>2022-10-29T11:38:07.927</time></trkpt><trkpt lat="55.7714900" lon="49.1236683"><time>2022-10-29T11:38:08.917</time></trkpt><trkpt lat="55.7715470" lon="49.1236269"><time>2022-10-29T11:38:09.920</time></trkpt><trkpt lat="55.7715953" lon="49.1235842"><time>2022-10-29T11:38:10.917</time></trkpt><trkpt lat="55.7716464" lon="49.1235425"><time>2022-10-29T11:38:11.913</time></trkpt><trkpt lat="55.7716949" lon="49.1234996"><time>2022-10-29T11:38:12.933</time></trkpt><trkpt lat="55.7717398" lon="49.1234556"><time>2022-10-29T11:38:13.920</time></trkpt><trkpt lat="55.7717903" lon="49.1234176"><time>2022-10-29T11:38:14.927</time></trkpt><trkpt lat="55.7718377" lon="49.1233742"><time>2022-10-29T11:38:15.917</time></trkpt><trkpt lat="55.7718848" lon="49.1233366"><time>2022-10-29T11:38:16.923</time></trkpt><trkpt lat="55.7719417" lon="49.1232949"><time>2022-10-29T11:38:17.920</time></trkpt><trkpt lat="55.7719904" lon="49.1232508"><time>2022-10-29T11:38:18.917</time></trkpt><trkpt lat="55.7720411" lon="49.1232014"><time>2022-10-29T11:38:19.920</time></trkpt><trkpt lat="55.7720883" lon="49.1231564"><time>2022-10-29T11:38:20.917</time></trkpt><trkpt lat="55.7721341" lon="49.1231146"><time>2022-10-29T11:38:21.920</time></trkpt><trkpt lat="55.7721795" lon="49.1230711"><time>2022-10-29T11:38:22.920</time></trkpt><trkpt lat="55.7722284" lon="49.1230260"><time>2022-10-29T11:38:23.913</time></trkpt><trkpt lat="55.7722775" lon="49.1229826"><time>2022-10-29T11:38:24.917</time></trkpt><trkpt lat="55.7723262" lon="49.1229342"><time>2022-10-29T11:38:25.907</time></trkpt><trkpt lat="55.7723783" lon="49.1228909"><time>2022-10-29T11:38:26.917</time></trkpt><trkpt lat="55.7724281" lon="49.1228463"><time>2022-10-29T11:38:27.873</time></trkpt><trkpt lat="55.7724786" lon="49.1227982"><time>2022-10-29T11:38:28.870</time></trkpt><trkpt lat="55.7725278" lon="49.1227530"><time>2022-10-29T11:38:29.883</time></trkpt><trkpt lat="55.7725816" lon="49.1227045"><time>2022-10-29T11:38:30.887</time></trkpt><trkpt lat="55.7726342" lon="49.1226572"><time>2022-10-29T11:38:31.867</time></trkpt><trkpt lat="55.7726840" lon="49.1226129"><time>2022-10-29T11:38:32.913</time></trkpt><trkpt lat="55.7727375" lon="49.1225643"><time>2022-10-29T11:38:33.913</time></trkpt><trkpt lat="55.7727902" lon="49.1225151"><time>2022-10-29T11:38:34.907</time></trkpt><trkpt lat="55.7728389" lon="49.1224617"><time>2022-10-29T11:38:35.910</time></trkpt><trkpt lat="55.7728886" lon="49.1224105"><time>2022-10-29T11:38:36.907</time></trkpt><trkpt lat="55.7729375" lon="49.1223576"><time>2022-10-29T11:38:37.877</time></trkpt><trkpt lat="55.7729878" lon="49.1223085"><time>2022-10-29T11:38:38.880</time></trkpt><trkpt lat="55.7730440" lon="49.1222555"><time>2022-10-29T11:38:39.887</time></trkpt><trkpt lat="55.7730918" lon="49.1221993"><time>2022-10-29T11:38:40.880</time></trkpt><trkpt lat="55.7731424" lon="49.1221516"><time>2022-10-29T11:38:41.917</time></trkpt><trkpt lat="55.7731984" lon="49.1221031"><time>2022-10-29T11:38:42.923</time></trkpt><trkpt lat="55.7732490" lon="49.1220539"><time>2022-10-29T11:38:43.917</time></trkpt><trkpt lat="55.7733021" lon="49.1220081"><time>2022-10-29T11:38:44.917</time></trkpt><trkpt lat="55.7733515" lon="49.1219637"><time>2022-10-29T11:38:45.947</time></trkpt><trkpt lat="55.7733845" lon="49.1219354"><time>2022-10-29T11:38:47.087</time></trkpt><trkpt lat="55.7734428" lon="49.1218583"><time>2022-10-29T11:38:47.910</time></trkpt><trkpt lat="55.7734902" lon="49.1218155"><time>2022-10-29T11:38:48.907</time></trkpt><trkpt lat="55.7735399" lon="49.1217768"><time>2022-10-29T11:38:49.903</time></trkpt><trkpt lat="55.7735886" lon="49.1217326"><time>2022-10-29T11:38:50.903</time></trkpt><trkpt lat="55.7736343" lon="49.1216910"><time>2022-10-29T11:38:51.903</time></trkpt><trkpt lat="55.7736767" lon="49.1216530"><time>2022-10-29T11:38:52.907</time></trkpt><trkpt lat="55.7737206" lon="49.1216129"><time>2022-10-29T11:38:53.903</time></trkpt><trkpt lat="55.7738026" lon="49.1215407"><time>2022-10-29T11:38:55.910</time></trkpt><trkpt lat="55.7738692" lon="49.1214761"><time>2022-10-29T11:38:57.910</time></trkpt><trkpt lat="55.7739257" lon="49.1214316"><time>2022-10-29T11:38:59.900</time></trkpt><trkpt lat="55.7739766" lon="49.1213915"><time>2022-10-29T11:39:02.907</time></trkpt><trkpt lat="55.7740284" lon="49.1213690"><time>2022-10-29T11:39:05.907</time></trkpt><trkpt lat="55.7740738" lon="49.1213613"><time>2022-10-29T11:39:07.900</time></trkpt><trkpt lat="55.7741200" lon="49.1213512"><time>2022-10-29T11:39:09.897</time></trkpt><trkpt lat="55.7741016" lon="49.1212232"><time>2022-10-29T11:39:12.900</time></trkpt><trkpt lat="55.7740552" lon="49.1211217"><time>2022-10-29T11:39:14.910</time></trkpt><trkpt lat="55.7740245" lon="49.1210309"><time>2022-10-29T11:39:16.910</time></trkpt><trkpt lat="55.7739855" lon="49.1209241"><time>2022-10-29T11:39:18.913</time></trkpt><trkpt lat="55.7739526" lon="49.1208324"><time>2022-10-29T11:39:20.917</time></trkpt><trkpt lat="55.7739257" lon="49.1207618"><time>2022-10-29T11:39:22.907</time></trkpt><trkpt lat="55.7739033" lon="49.1206868"><time>2022-10-29T11:39:24.930</time></trkpt><trkpt lat="55.7738946" lon="49.1206537"><time>2022-10-29T11:39:26.110</time></trkpt><trkpt lat="55.7738693" lon="49.1205316"><time>2022-10-29T11:39:28.907</time></trkpt><trkpt lat="55.7738436" lon="49.1204403"><time>2022-10-29T11:39:30.870</time></trkpt><trkpt lat="55.7738129" lon="49.1203589"><time>2022-10-29T11:39:32.877</time></trkpt><trkpt lat="55.7737836" lon="49.1202767"><time>2022-10-29T11:39:34.877</time></trkpt><trkpt lat="55.7737563" lon="49.1201868"><time>2022-10-29T11:39:36.907</time></trkpt><trkpt lat="55.7737322" lon="49.1201096"><time>2022-10-29T11:39:38.907</time></trkpt><trkpt lat="55.7737086" lon="49.1200276"><time>2022-10-29T11:39:40.913</time></trkpt><trkpt lat="55.7736843" lon="49.1199392"><time>2022-10-29T11:39:42.907</time></trkpt><trkpt lat="55.7736627" lon="49.1198481"><time>2022-10-29T11:39:45.907</time></trkpt><trkpt lat="55.7736332" lon="49.1197700"><time>2022-10-29T11:39:48.913</time></trkpt><trkpt lat="55.7735829" lon="49.1197826"><time>2022-10-29T11:39:50.910</time></trkpt><trkpt lat="55.7735319" lon="49.1198279"><time>2022-10-29T11:39:52.903</time></trkpt><trkpt lat="55.7734690" lon="49.1198823"><time>2022-10-29T11:39:54.907</time></trkpt><trkpt lat="55.7733994" lon="49.1199241"><time>2022-10-29T11:39:56.937</time></trkpt><trkpt lat="55.7733813" lon="49.1199333"><time>2022-10-29T11:39:57.907</time></trkpt><trkpt lat="55.7733297" lon="49.1199717"><time>2022-10-29T11:39:58.913</time></trkpt><trkpt lat="55.7732709" lon="49.1200265"><time>2022-10-29T11:40:00.910</time></trkpt><trkpt lat="55.7732153" lon="49.1200764"><time>2022-10-29T11:40:02.910</time></trkpt><trkpt lat="55.7731669" lon="49.1201142"><time>2022-10-29T11:40:04.907</time></trkpt><trkpt lat="55.7731136" lon="49.1201602"><time>2022-10-29T11:40:06.910</time></trkpt><trkpt lat="55.7730566" lon="49.1202058"><time>2022-10-29T11:40:08.907</time></trkpt><trkpt lat="55.7730000" lon="49.1202584"><time>2022-10-29T11:40:10.907</time></trkpt><trkpt lat="55.7729543" lon="49.1203177"><time>2022-10-29T11:40:12.910</time></trkpt><trkpt lat="55.7729064" lon="49.1203914"><time>2022-10-29T11:40:15.907</time></trkpt><trkpt lat="55.7728626" lon="49.1204401"><time>2022-10-29T11:40:19.913</time></trkpt><trkpt lat="55.7728125" lon="49.1204219"><time>2022-10-29T11:40:45.880</time></trkpt><trkpt lat="55.7727732" lon="49.1204781"><time>2022-10-29T11:40:50.883</time></trkpt><trkpt lat="55.7727369" lon="49.1205326"><time>2022-10-29T11:40:53.920</time></trkpt><trkpt lat="55.7726784" lon="49.1205452"><time>2022-10-29T11:40:58.923</time></trkpt><trkpt lat="55.7726290" lon="49.1205720"><time>2022-10-29T11:41:02.880</time></trkpt><trkpt lat="55.7725836" lon="49.1206078"><time>2022-10-29T11:41:06.933</time></trkpt><trkpt lat="55.7725647" lon="49.1205839"><time>2022-10-29T11:41:08.080</time></trkpt><trkpt lat="55.7725186" lon="49.1206084"><time>2022-10-29T11:41:13.910</time></trkpt><trkpt lat="55.7724768" lon="49.1206451"><time>2022-10-29T11:41:18.877</time></trkpt><trkpt lat="55.7724526" lon="49.1207132"><time>2022-10-29T11:41:23.907</time></trkpt><trkpt lat="55.7724310" lon="49.1207843"><time>2022-10-29T11:41:35.870</time></trkpt><trkpt lat="55.7723875" lon="49.1207444"><time>2022-10-29T11:42:28.933</time></trkpt><trkpt lat="55.7723321" lon="49.1207727"><time>2022-10-29T11:42:35.927</time></trkpt><trkpt lat="55.7722907" lon="49.1208103"><time>2022-10-29T11:42:39.880</time></trkpt><trkpt lat="55.7722647" lon="49.1208831"><time>2022-10-29T11:42:44.920</time></trkpt><trkpt lat="55.7722630" lon="49.1209696"><time>2022-10-29T11:42:47.923</time></trkpt><trkpt lat="55.7722363" lon="49.1210518"><time>2022-10-29T11:42:51.913</time></trkpt><trkpt lat="55.7722365" lon="49.1211549"><time>2022-10-29T11:42:57.933</time></trkpt><trkpt lat="55.7722004" lon="49.1212422"><time>2022-10-29T11:43:01.927</time></trkpt><trkpt lat="55.7721958" lon="49.1213430"><time>2022-10-29T11:43:05.870</time></trkpt><trkpt lat="55.7721710" lon="49.1214174"><time>2022-10-29T11:43:09.870</time></trkpt><trkpt lat="55.7721322" lon="49.1214651"><time>2022-10-29T11:43:13.920</time></trkpt><trkpt lat="55.7720786" lon="49.1215057"><time>2022-10-29T11:43:16.920</time></trkpt><trkpt lat="55.7720228" lon="49.1215170"><time>2022-10-29T11:43:19.917</time></trkpt><trkpt lat="55.7719707" lon="49.1215169"><time>2022-10-29T11:43:22.870</time></trkpt><trkpt lat="55.7719254" lon="49.1215321"><time>2022-10-29T11:43:25.883</time></trkpt><trkpt lat="55.7718611" lon="49.1215389"><time>2022-10-29T11:43:28.937</time></trkpt><trkpt lat="55.7718124" lon="49.1215612"><time>2022-10-29T11:43:30.903</time></trkpt><trkpt lat="55.7717683" lon="49.1215849"><time>2022-10-29T11:43:32.880</time></trkpt><trkpt lat="55.7717235" lon="49.1216127"><time>2022-10-29T11:43:34.880</time></trkpt><trkpt lat="55.7716805" lon="49.1216406"><time>2022-10-29T11:43:36.877</time></trkpt><trkpt lat="55.7716267" lon="49.1216770"><time>2022-10-29T11:43:39.883</time></trkpt><trkpt lat="55.7715788" lon="49.1217084"><time>2022-10-29T11:43:42.877</time></trkpt><trkpt lat="55.7715369" lon="49.1217579"><time>2022-10-29T11:43:46.880</time></trkpt><trkpt lat="55.7714837" lon="49.1217926"><time>2022-10-29T11:43:50.887</time></trkpt><trkpt lat="55.7714388" lon="49.1218416"><time>2022-10-29T11:43:54.883</time></trkpt><trkpt lat="55.7713896" lon="49.1218595"><time>2022-10-29T11:44:23.883</time></trkpt><trkpt lat="55.7713412" lon="49.1219077"><time>2022-10-29T11:44:27.910</time></trkpt><trkpt lat="55.7712984" lon="49.1219505"><time>2022-10-29T11:44:31.877</time></trkpt><trkpt lat="55.7712592" lon="49.1220025"><time>2022-10-29T11:44:35.867</time></trkpt><trkpt lat="55.7712221" lon="49.1220660"><time>2022-10-29T11:44:39.880</time></trkpt><trkpt lat="55.7711720" lon="49.1221233"><time>2022-10-29T11:44:43.913</time></trkpt><trkpt lat="55.7711291" lon="49.1221679"><time>2022-10-29T11:44:46.923</time></trkpt><trkpt lat="55.7710903" lon="49.1222108"><time>2022-10-29T11:44:49.880</time></trkpt><trkpt lat="55.7710379" lon="49.1222539"><time>2022-10-29T11:44:53.903</time></trkpt><trkpt lat="55.7709969" lon="49.1222954"><time>2022-10-29T11:44:56.920</time></trkpt><trkpt lat="55.7709529" lon="49.1223463"><time>2022-10-29T11:44:59.880</time></trkpt><trkpt lat="55.7709069" lon="49.1223993"><time>2022-10-29T11:45:03.863</time></trkpt><trkpt lat="55.7708701" lon="49.1224568"><time>2022-10-29T11:45:07.883</time></trkpt><trkpt lat="55.7708316" lon="49.1224987"><time>2022-10-29T11:45:12.923</time></trkpt><trkpt lat="55.7708825" lon="49.1224777"><time>2022-10-29T11:45:19.923</time></trkpt><trkpt lat="55.7709256" lon="49.1224087"><time>2022-10-29T11:45:22.920</time></trkpt><trkpt lat="55.7709689" lon="49.1223482"><time>2022-10-29T11:45:26.920</time></trkpt><trkpt lat="55.7710169" lon="49.1222933"><time>2022-10-29T11:45:30.913</time></trkpt><trkpt lat="55.7710514" lon="49.1222390"><time>2022-10-29T11:45:33.920</time></trkpt><trkpt lat="55.7710827" lon="49.1221788"><time>2022-10-29T11:45:36.927</time></trkpt><trkpt lat="55.7711183" lon="49.1221285"><time>2022-10-29T11:45:39.923</time></trkpt><trkpt lat="55.7711569" lon="49.1220761"><time>2022-10-29T11:45:42.927</time></trkpt><trkpt lat="55.7711957" lon="49.1220293"><time>2022-10-29T11:45:45.877</time></trkpt><trkpt lat="55.7712349" lon="49.1219873"><time>2022-10-29T11:45:48.863</time></trkpt><trkpt lat="55.7712795" lon="49.1219418"><time>2022-10-29T11:45:51.870</time></trkpt><trkpt lat="55.7713242" lon="49.1219019"><time>2022-10-29T11:45:54.907</time></trkpt><trkpt lat="55.7713648" lon="49.1218578"><time>2022-10-29T11:45:57.867</time></trkpt><trkpt lat="55.7714163" lon="49.1218115"><time>2022-10-29T11:46:01.873</time></trkpt><trkpt lat="55.7714641" lon="49.1217595"><time>2022-10-29T11:46:05.883</time></trkpt><trkpt lat="55.7715153" lon="49.1217002"><time>2022-10-29T11:46:09.890</time></trkpt><trkpt lat="55.7715561" lon="49.1216600"><time>2022-10-29T11:46:12.887</time></trkpt><trkpt lat="55.7716005" lon="49.1215972"><time>2022-10-29T11:46:16.867</time></trkpt><trkpt lat="55.7716387" lon="49.1215545"><time>2022-10-29T11:46:19.870</time></trkpt><trkpt lat="55.7716806" lon="49.1215156"><time>2022-10-29T11:46:22.883</time></trkpt><trkpt lat="55.7717211" lon="49.1214723"><time>2022-10-29T11:46:25.910</time></trkpt><trkpt lat="55.7717706" lon="49.1214398"><time>2022-10-29T11:46:29.887</time></trkpt><trkpt lat="55.7718186" lon="49.1214074"><time>2022-10-29T11:46:33.877</time></trkpt><trkpt lat="55.7718689" lon="49.1213546"><time>2022-10-29T11:46:37.877</time></trkpt><trkpt lat="55.7719204" lon="49.1213208"><time>2022-10-29T11:46:41.907</time></trkpt><trkpt lat="55.7719597" lon="49.1212612"><time>2022-10-29T11:46:44.920</time></trkpt><trkpt lat="55.7720040" lon="49.1212091"><time>2022-10-29T11:46:47.920</time></trkpt><trkpt lat="55.7720500" lon="49.1211632"><time>2022-10-29T11:46:50.943</time></trkpt><trkpt lat="55.7720941" lon="49.1211160"><time>2022-10-29T11:46:53.887</time></trkpt><trkpt lat="55.7721341" lon="49.1210722"><time>2022-10-29T11:46:56.887</time></trkpt><trkpt lat="55.7721735" lon="49.1210289"><time>2022-10-29T11:46:59.887</time></trkpt><trkpt lat="55.7722132" lon="49.1209877"><time>2022-10-29T11:47:02.883</time></trkpt><trkpt lat="55.7722629" lon="49.1209281"><time>2022-10-29T11:47:06.870</time></trkpt><trkpt lat="55.7722993" lon="49.1208739"><time>2022-10-29T11:47:09.897</time></trkpt><trkpt lat="55.7723332" lon="49.1208153"><time>2022-10-29T11:47:12.877</time></trkpt><trkpt lat="55.7723707" lon="49.1207401"><time>2022-10-29T11:47:16.890</time></trkpt><trkpt lat="55.7723984" lon="49.1206743"><time>2022-10-29T11:48:30.883</time></trkpt><trkpt lat="55.7724522" lon="49.1206189"><time>2022-10-29T11:48:35.917</time></trkpt><trkpt lat="55.7725080" lon="49.1205723"><time>2022-10-29T11:48:37.920</time></trkpt><trkpt lat="55.7725639" lon="49.1205346"><time>2022-10-29T11:48:39.917</time></trkpt><trkpt lat="55.7726177" lon="49.1204922"><time>2022-10-29T11:48:41.977</time></trkpt><trkpt lat="55.7726351" lon="49.1204835"><time>2022-10-29T11:48:43.163</time></trkpt><trkpt lat="55.7726923" lon="49.1204118"><time>2022-10-29T11:48:45.880</time></trkpt><trkpt lat="55.7727470" lon="49.1203559"><time>2022-10-29T11:48:47.877</time></trkpt><trkpt lat="55.7727979" lon="49.1203207"><time>2022-10-29T11:48:49.880</time></trkpt><trkpt lat="55.7728431" lon="49.1203036"><time>2022-10-29T11:48:51.880</time></trkpt><trkpt lat="55.7729023" lon="49.1202918"><time>2022-10-29T11:48:54.880</time></trkpt><trkpt lat="55.7729567" lon="49.1202748"><time>2022-10-29T11:48:56.880</time></trkpt><trkpt lat="55.7730026" lon="49.1202517"><time>2022-10-29T11:48:58.877</time></trkpt><trkpt lat="55.7730479" lon="49.1202211"><time>2022-10-29T11:49:01.877</time></trkpt><trkpt lat="55.7730889" lon="49.1201843"><time>2022-10-29T11:49:04.880</time></trkpt><trkpt lat="55.7731359" lon="49.1201510"><time>2022-10-29T11:49:06.880</time></trkpt><trkpt lat="55.7732061" lon="49.1200949"><time>2022-10-29T11:49:08.880</time></trkpt><trkpt lat="55.7732765" lon="49.1200362"><time>2022-10-29T11:49:10.870</time></trkpt><trkpt lat="55.7733459" lon="49.1199782"><time>2022-10-29T11:49:12.883</time></trkpt><trkpt lat="55.7734143" lon="49.1199224"><time>2022-10-29T11:49:14.880</time></trkpt><trkpt lat="55.7734706" lon="49.1198682"><time>2022-10-29T11:49:16.913</time></trkpt><trkpt lat="55.7734910" lon="49.1198438"><time>2022-10-29T11:49:18.077</time></trkpt><trkpt lat="55.7735547" lon="49.1197874"><time>2022-10-29T11:49:19.877</time></trkpt><trkpt lat="55.7736132" lon="49.1197181"><time>2022-10-29T11:49:21.877</time></trkpt><trkpt lat="55.7736645" lon="49.1196703"><time>2022-10-29T11:49:23.867</time></trkpt><trkpt lat="55.7737256" lon="49.1196075"><time>2022-10-29T11:49:25.877</time></trkpt><trkpt lat="55.7737854" lon="49.1195409"><time>2022-10-29T11:49:27.883</time></trkpt><trkpt lat="55.7738455" lon="49.1194694"><time>2022-10-29T11:49:30.017</time></trkpt><trkpt lat="55.7738913" lon="49.1194596"><time>2022-10-29T11:49:31.140</time></trkpt><trkpt lat="55.7739526" lon="49.1194054"><time>2022-10-29T11:49:32.887</time></trkpt><trkpt lat="55.7740061" lon="49.1193612"><time>2022-10-29T11:49:34.880</time></trkpt><trkpt lat="55.7740577" lon="49.1193230"><time>2022-10-29T11:49:36.917</time></trkpt><trkpt lat="55.7741003" lon="49.1192923"><time>2022-10-29T11:49:38.957</time></trkpt><trkpt lat="55.7741003" lon="49.1192923"><time>2022-10-29T11:49:39.097</time></trkpt><trkpt lat="55.7741454" lon="49.1192776"><time>2022-10-29T11:49:42.930</time></trkpt><trkpt lat="55.7741602" lon="49.1192936"><time>2022-10-29T11:49:44.060</time></trkpt><trkpt lat="55.7741651" lon="49.1192133"><time>2022-10-29T11:50:08.883</time></trkpt><trkpt lat="55.7742017" lon="49.1191594"><time>2022-10-29T11:50:10.877</time></trkpt><trkpt lat="55.7742698" lon="49.1190993"><time>2022-10-29T11:50:12.890</time></trkpt><trkpt lat="55.7743457" lon="49.1190279"><time>2022-10-29T11:50:14.880</time></trkpt><trkpt lat="55.7744364" lon="49.1189526"><time>2022-10-29T11:50:16.883</time></trkpt><trkpt lat="55.7745087" lon="49.1188745"><time>2022-10-29T11:50:18.880</time></trkpt><trkpt lat="55.7745497" lon="49.1188413"><time>2022-10-29T11:50:19.907</time></trkpt><trkpt lat="55.7746169" lon="49.1187763"><time>2022-10-29T11:50:21.880</time></trkpt><trkpt lat="55.7746766" lon="49.1187008"><time>2022-10-29T11:50:23.883</time></trkpt><trkpt lat="55.7747279" lon="49.1186590"><time>2022-10-29T11:50:25.883</time></trkpt><trkpt lat="55.7747696" lon="49.1186114"><time>2022-10-29T11:50:27.890</time></trkpt><trkpt lat="55.7748161" lon="49.1185678"><time>2022-10-29T11:50:29.880</time></trkpt><trkpt lat="55.7748674" lon="49.1185265"><time>2022-10-29T11:50:31.883</time></trkpt><trkpt lat="55.7749116" lon="49.1184941"><time>2022-10-29T11:50:33.883</time></trkpt><trkpt lat="55.7749614" lon="49.1184619"><time>2022-10-29T11:50:35.873</time></trkpt><trkpt lat="55.7750234" lon="49.1184163"><time>2022-10-29T11:50:38.887</time></trkpt><trkpt lat="55.7750906" lon="49.1183362"><time>2022-10-29T11:50:40.910</time></trkpt><trkpt lat="55.7751484" lon="49.1182687"><time>2022-10-29T11:50:42.917</time></trkpt><trkpt lat="55.7751928" lon="49.1182217"><time>2022-10-29T11:50:44.917</time></trkpt><trkpt lat="55.7752361" lon="49.1181696"><time>2022-10-29T11:50:46.907</time></trkpt><trkpt lat="55.7752856" lon="49.1181155"><time>2022-10-29T11:50:48.933</time></trkpt><trkpt lat="55.7753363" lon="49.1180684"><time>2022-10-29T11:50:50.930</time></trkpt><trkpt lat="55.7753883" lon="49.1180316"><time>2022-10-29T11:50:52.910</time></trkpt><trkpt lat="55.7754401" lon="49.1179864"><time>2022-10-29T11:50:54.917</time></trkpt><trkpt lat="55.7755001" lon="49.1179287"><time>2022-10-29T11:50:56.927</time></trkpt><trkpt lat="55.7755609" lon="49.1178678"><time>2022-10-29T11:50:58.883</time></trkpt><trkpt lat="55.7756262" lon="49.1178008"><time>2022-10-29T11:51:00.880</time></trkpt><trkpt lat="55.7756951" lon="49.1177327"><time>2022-10-29T11:51:02.883</time></trkpt><trkpt lat="55.7757636" lon="49.1176676"><time>2022-10-29T11:51:04.880</time></trkpt><trkpt lat="55.7758331" lon="49.1175947"><time>2022-10-29T11:51:06.887</time></trkpt><trkpt lat="55.7758950" lon="49.1175289"><time>2022-10-29T11:51:08.887</time></trkpt><trkpt lat="55.7759571" lon="49.1174693"><time>2022-10-29T11:51:10.880</time></trkpt><trkpt lat="55.7760060" lon="49.1174180"><time>2022-10-29T11:51:12.883</time></trkpt><trkpt lat="55.7760504" lon="49.1173633"><time>2022-10-29T11:51:14.883</time></trkpt><trkpt lat="55.7760984" lon="49.1172970"><time>2022-10-29T11:51:16.880</time></trkpt><trkpt lat="55.7761633" lon="49.1172367"><time>2022-10-29T11:51:18.887</time></trkpt><trkpt lat="55.7762230" lon="49.1171956"><time>2022-10-29T11:51:20.917</time></trkpt><trkpt lat="55.7762691" lon="49.1171571"><time>2022-10-29T11:51:22.877</time></trkpt><trkpt lat="55.7763276" lon="49.1171186"><time>2022-10-29T11:51:25.880</time></trkpt><trkpt lat="55.7763999" lon="49.1171235"><time>2022-10-29T11:51:28.883</time></trkpt><trkpt lat="55.7764279" lon="49.1172289"><time>2022-10-29T11:51:30.880</time></trkpt><trkpt lat="55.7764195" lon="49.1173458"><time>2022-10-29T11:51:31.883</time></trkpt><trkpt lat="55.7764322" lon="49.1174934"><time>2022-10-29T11:51:33.930</time></trkpt><trkpt lat="55.7764484" lon="49.1176368"><time>2022-10-29T11:51:35.880</time></trkpt><trkpt lat="55.7764547" lon="49.1177716"><time>2022-10-29T11:51:37.883</time></trkpt><trkpt lat="55.7764754" lon="49.1179110"><time>2022-10-29T11:51:39.887</time></trkpt><trkpt lat="55.7764888" lon="49.1180592"><time>2022-10-29T11:51:41.883</time></trkpt><trkpt lat="55.7765046" lon="49.1182036"><time>2022-10-29T11:51:43.873</time></trkpt><trkpt lat="55.7765138" lon="49.1183226"><time>2022-10-29T11:51:45.883</time></trkpt><trkpt lat="55.7765216" lon="49.1184405"><time>2022-10-29T11:51:47.923</time></trkpt><trkpt lat="55.7765333" lon="49.1185591"><time>2022-10-29T11:51:49.910</time></trkpt><trkpt lat="55.7765445" lon="49.1186910"><time>2022-10-29T11:51:51.870</time></trkpt><trkpt lat="55.7765531" lon="49.1188142"><time>2022-10-29T11:51:53.923</time></trkpt><trkpt lat="55.7765644" lon="49.1189314"><time>2022-10-29T11:51:55.910</time></trkpt><trkpt lat="55.7765780" lon="49.1190607"><time>2022-10-29T11:51:57.943</time></trkpt><trkpt lat="55.7765872" lon="49.1191982"><time>2022-10-29T11:51:59.877</time></trkpt><trkpt lat="55.7766002" lon="49.1193338"><time>2022-10-29T11:52:01.877</time></trkpt><trkpt lat="55.7766237" lon="49.1194555"><time>2022-10-29T11:52:03.930</time></trkpt><trkpt lat="55.7766452" lon="49.1195629"><time>2022-10-29T11:52:05.920</time></trkpt><trkpt lat="55.7766709" lon="49.1196447"><time>2022-10-29T11:52:08.903</time></trkpt><trkpt lat="55.7767164" lon="49.1195662"><time>2022-10-29T11:52:11.907</time></trkpt><trkpt lat="55.7767488" lon="49.1194926"><time>2022-10-29T11:52:13.880</time></trkpt><trkpt lat="55.7768087" lon="49.1194537"><time>2022-10-29T11:52:15.883</time></trkpt><trkpt lat="55.7768676" lon="49.1194285"><time>2022-10-29T11:52:17.883</time></trkpt><trkpt lat="55.7769374" lon="49.1194029"><time>2022-10-29T11:52:19.903</time></trkpt><trkpt lat="55.7770149" lon="49.1193799"><time>2022-10-29T11:52:21.913</time></trkpt><trkpt lat="55.7770801" lon="49.1193501"><time>2022-10-29T11:52:23.923</time></trkpt><trkpt lat="55.7771446" lon="49.1193128"><time>2022-10-29T11:52:25.880</time></trkpt><trkpt lat="55.7772201" lon="49.1192744"><time>2022-10-29T11:52:27.883</time></trkpt><trkpt lat="55.7772964" lon="49.1192316"><time>2022-10-29T11:52:29.927</time></trkpt><trkpt lat="55.7773168" lon="49.1191874"><time>2022-10-29T11:52:31.077</time></trkpt><trkpt lat="55.7773644" lon="49.1191664"><time>2022-10-29T11:52:31.940</time></trkpt><trkpt lat="55.7774298" lon="49.1191339"><time>2022-10-29T11:52:33.920</time></trkpt><trkpt lat="55.7774969" lon="49.1190966"><time>2022-10-29T11:52:36.917</time></trkpt><trkpt lat="55.7775699" lon="49.1190544"><time>2022-10-29T11:52:37.910</time></trkpt><trkpt lat="55.7776404" lon="49.1190146"><time>2022-10-29T11:52:39.930</time></trkpt><trkpt lat="55.7777068" lon="49.1189817"><time>2022-10-29T11:52:41.867</time></trkpt><trkpt lat="55.7777725" lon="49.1189604"><time>2022-10-29T11:52:43.930</time></trkpt><trkpt lat="55.7778401" lon="49.1189274"><time>2022-10-29T11:52:45.867</time></trkpt><trkpt lat="55.7779136" lon="49.1188893"><time>2022-10-29T11:52:47.877</time></trkpt><trkpt lat="55.7779852" lon="49.1188544"><time>2022-10-29T11:52:49.930</time></trkpt><trkpt lat="55.7780517" lon="49.1188232"><time>2022-10-29T11:52:51.917</time></trkpt><trkpt lat="55.7781268" lon="49.1187802"><time>2022-10-29T11:52:53.950</time></trkpt><trkpt lat="55.7781427" lon="49.1187547"><time>2022-10-29T11:52:55.117</time></trkpt><trkpt lat="55.7781848" lon="49.1187261"><time>2022-10-29T11:52:55.907</time></trkpt><trkpt lat="55.7782570" lon="49.1186800"><time>2022-10-29T11:52:57.907</time></trkpt><trkpt lat="55.7783323" lon="49.1186431"><time>2022-10-29T11:52:59.907</time></trkpt><trkpt lat="55.7784100" lon="49.1186039"><time>2022-10-29T11:53:01.897</time></trkpt><trkpt lat="55.7784873" lon="49.1185523"><time>2022-10-29T11:53:03.907</time></trkpt><trkpt lat="55.7785550" lon="49.1185026"><time>2022-10-29T11:53:05.940</time></trkpt><trkpt lat="55.7785694" lon="49.1184892"><time>2022-10-29T11:53:07.083</time></trkpt><trkpt lat="55.7786232" lon="49.1184940"><time>2022-10-29T11:53:08.910</time></trkpt><trkpt lat="55.7786887" lon="49.1184633"><time>2022-10-29T11:53:10.903</time></trkpt><trkpt lat="55.7787500" lon="49.1184083"><time>2022-10-29T11:53:12.880</time></trkpt><trkpt lat="55.7788104" lon="49.1183613"><time>2022-10-29T11:53:14.923</time></trkpt><trkpt lat="55.7788104" lon="49.1183613"><time>2022-10-29T11:53:14.987</time></trkpt><trkpt lat="55.7788623" lon="49.1183391"><time>2022-10-29T11:53:16.910</time></trkpt><trkpt lat="55.7788824" lon="49.1183723"><time>2022-10-29T11:53:18.033</time></trkpt><trkpt lat="55.7788439" lon="49.1184374"><time>2022-10-29T11:53:20.923</time></trkpt><trkpt lat="55.7787997" lon="49.1184208"><time>2022-10-29T11:53:24.910</time></trkpt><trkpt lat="55.7788312" lon="49.1183581"><time>2022-10-29T11:53:34.880</time></trkpt><trkpt lat="55.7788982" lon="49.1183656"><time>2022-10-29T11:53:38.883</time></trkpt><trkpt lat="55.7789763" lon="49.1183359"><time>2022-10-29T11:53:40.880</time></trkpt><trkpt lat="55.7790496" lon="49.1182959"><time>2022-10-29T11:53:42.910</time></trkpt><trkpt lat="55.7791111" lon="49.1182363"><time>2022-10-29T11:53:44.890</time></trkpt><trkpt lat="55.7791803" lon="49.1181508"><time>2022-10-29T11:53:46.877</time></trkpt><trkpt lat="55.7792433" lon="49.1180643"><time>2022-10-29T11:53:48.880</time></trkpt><trkpt lat="55.7792972" lon="49.1179753"><time>2022-10-29T11:53:50.910</time></trkpt><trkpt lat="55.7793215" lon="49.1179368"><time>2022-10-29T11:53:52.070</time></trkpt><trkpt lat="55.7793583" lon="49.1178764"><time>2022-10-29T11:53:52.913</time></trkpt><trkpt lat="55.7794141" lon="49.1177859"><time>2022-10-29T11:53:54.907</time></trkpt><trkpt lat="55.7794691" lon="49.1176933"><time>2022-10-29T11:53:56.903</time></trkpt><trkpt lat="55.7795323" lon="49.1175897"><time>2022-10-29T11:53:58.910</time></trkpt><trkpt lat="55.7796014" lon="49.1174737"><time>2022-10-29T11:54:00.903</time></trkpt><trkpt lat="55.7796331" lon="49.1174153"><time>2022-10-29T11:54:01.903</time></trkpt><trkpt lat="55.7796899" lon="49.1173023"><time>2022-10-29T11:54:03.897</time></trkpt><trkpt lat="55.7797261" lon="49.1172535"><time>2022-10-29T11:54:04.903</time></trkpt><trkpt lat="55.7797871" lon="49.1171420"><time>2022-10-29T11:54:06.907</time></trkpt><trkpt lat="55.7798440" lon="49.1170225"><time>2022-10-29T11:54:08.907</time></trkpt><trkpt lat="55.7798738" lon="49.1169624"><time>2022-10-29T11:54:09.910</time></trkpt><trkpt lat="55.7799085" lon="49.1169084"><time>2022-10-29T11:54:10.900</time></trkpt><trkpt lat="55.7799696" lon="49.1168016"><time>2022-10-29T11:54:12.933</time></trkpt><trkpt lat="55.7799780" lon="49.1167707"><time>2022-10-29T11:54:14.897</time></trkpt><trkpt lat="55.7800167" lon="49.1167108"><time>2022-10-29T11:54:14.917</time></trkpt><trkpt lat="55.7800580" lon="49.1166647"><time>2022-10-29T11:54:15.900</time></trkpt><trkpt lat="55.7801301" lon="49.1165637"><time>2022-10-29T11:54:17.897</time></trkpt><trkpt lat="55.7802020" lon="49.1164754"><time>2022-10-29T11:54:19.900</time></trkpt><trkpt lat="55.7802492" lon="49.1164416"><time>2022-10-29T11:54:22.907</time></trkpt><trkpt lat="55.7802994" lon="49.1164340"><time>2022-10-29T11:54:25.900</time></trkpt><trkpt lat="55.7803320" lon="49.1165294"><time>2022-10-29T11:54:28.900</time></trkpt><trkpt lat="55.7803599" lon="49.1166129"><time>2022-10-29T11:54:30.917</time></trkpt><trkpt lat="55.7803701" lon="49.1166993"><time>2022-10-29T11:54:34.907</time></trkpt><trkpt lat="55.7803936" lon="49.1167719"><time>2022-10-29T11:54:40.897</time></trkpt><trkpt lat="55.7804451" lon="49.1167890"><time>2022-10-29T11:54:49.940</time></trkpt><trkpt lat="55.7804601" lon="49.1167718"><time>2022-10-29T11:54:51.077</time></trkpt><trkpt lat="55.7804811" lon="49.1166967"><time>2022-10-29T11:54:53.920</time></trkpt><trkpt lat="55.7805015" lon="49.1166226"><time>2022-10-29T11:54:57.917</time></trkpt><trkpt lat="55.7805366" lon="49.1165649"><time>2022-10-29T11:55:03.907</time></trkpt><trkpt lat="55.7805838" lon="49.1165266"><time>2022-10-29T11:55:08.907</time></trkpt><trkpt lat="55.7806351" lon="49.1164964"><time>2022-10-29T11:55:13.923</time></trkpt><trkpt lat="55.7806810" lon="49.1164634"><time>2022-10-29T11:55:17.940</time></trkpt><trkpt lat="55.7806810" lon="49.1164634"><time>2022-10-29T11:55:17.990</time></trkpt><trkpt lat="55.7807187" lon="49.1164108"><time>2022-10-29T11:55:21.917</time></trkpt><trkpt lat="55.7807385" lon="49.1163845"><time>2022-10-29T11:55:23.063</time></trkpt><trkpt lat="55.7807721" lon="49.1163174"><time>2022-10-29T11:55:27.887</time></trkpt><trkpt lat="55.7807749" lon="49.1162283"><time>2022-10-29T11:55:31.880</time></trkpt><trkpt lat="55.7807380" lon="49.1161805"><time>2022-10-29T11:55:38.880</time></trkpt><trkpt lat="55.7807163" lon="49.1161056"><time>2022-10-29T11:55:41.877</time></trkpt><trkpt lat="55.7806913" lon="49.1160329"><time>2022-10-29T11:55:43.887</time></trkpt><trkpt lat="55.7806586" lon="49.1159760"><time>2022-10-29T11:55:45.880</time></trkpt><trkpt lat="55.7806190" lon="49.1159161"><time>2022-10-29T11:55:47.887</time></trkpt><trkpt lat="55.7805741" lon="49.1158932"><time>2022-10-29T11:55:49.880</time></trkpt><trkpt lat="55.7805337" lon="49.1159293"><time>2022-10-29T11:55:51.880</time></trkpt><trkpt lat="55.7804901" lon="49.1159943"><time>2022-10-29T11:57:05.910</time></trkpt><trkpt lat="55.7804463" lon="49.1160401"><time>2022-10-29T11:57:07.910</time></trkpt><trkpt lat="55.7803904" lon="49.1161180"><time>2022-10-29T11:57:09.907</time></trkpt><trkpt lat="55.7803321" lon="49.1162038"><time>2022-10-29T11:57:11.907</time></trkpt><trkpt lat="55.7802810" lon="49.1162824"><time>2022-10-29T11:57:13.907</time></trkpt><trkpt lat="55.7802297" lon="49.1163604"><time>2022-10-29T11:57:15.900</time></trkpt><trkpt lat="55.7801827" lon="49.1164213"><time>2022-10-29T11:57:17.903</time></trkpt><trkpt lat="55.7801329" lon="49.1164403"><time>2022-10-29T11:57:19.910</time></trkpt><trkpt lat="55.7800849" lon="49.1163805"><time>2022-10-29T11:57:22.900</time></trkpt><trkpt lat="55.7800642" lon="49.1162643"><time>2022-10-29T11:57:24.883</time></trkpt><trkpt lat="55.7800486" lon="49.1161444"><time>2022-10-29T11:57:26.880</time></trkpt><trkpt lat="55.7800313" lon="49.1160315"><time>2022-10-29T11:57:28.880</time></trkpt><trkpt lat="55.7800074" lon="49.1159394"><time>2022-10-29T11:57:30.907</time></trkpt><trkpt lat="55.7799578" lon="49.1158671"><time>2022-10-29T11:57:32.883</time></trkpt><trkpt lat="55.7799199" lon="49.1157697"><time>2022-10-29T11:57:34.910</time></trkpt><trkpt lat="55.7799066" lon="49.1156495"><time>2022-10-29T11:57:36.907</time></trkpt><trkpt lat="55.7798893" lon="49.1155024"><time>2022-10-29T11:57:38.913</time></trkpt><trkpt lat="55.7798765" lon="49.1153524"><time>2022-10-29T11:57:40.907</time></trkpt><trkpt lat="55.7798678" lon="49.1152718"><time>2022-10-29T11:57:41.903</time></trkpt><trkpt lat="55.7798631" lon="49.1151723"><time>2022-10-29T11:57:42.903</time></trkpt><trkpt lat="55.7798485" lon="49.1150952"><time>2022-10-29T11:57:43.900</time></trkpt><trkpt lat="55.7798379" lon="49.1149680"><time>2022-10-29T11:57:45.907</time></trkpt><trkpt lat="55.7798202" lon="49.1148416"><time>2022-10-29T11:57:47.913</time></trkpt><trkpt lat="55.7797967" lon="49.1147184"><time>2022-10-29T11:57:49.913</time></trkpt><trkpt lat="55.7797767" lon="49.1146018"><time>2022-10-29T11:57:51.913</time></trkpt><trkpt lat="55.7797557" lon="49.1144794"><time>2022-10-29T11:57:53.917</time></trkpt><trkpt lat="55.7797452" lon="49.1143584"><time>2022-10-29T11:57:55.900</time></trkpt><trkpt lat="55.7797298" lon="49.1142458"><time>2022-10-29T11:57:57.907</time></trkpt><trkpt lat="55.7797178" lon="49.1141590"><time>2022-10-29T11:57:59.910</time></trkpt><trkpt lat="55.7797054" lon="49.1140779"><time>2022-10-29T11:58:01.910</time></trkpt><trkpt lat="55.7796992" lon="49.1139690"><time>2022-10-29T11:58:05.910</time></trkpt><trkpt lat="55.7797596" lon="49.1138905"><time>2022-10-29T11:58:08.897</time></trkpt><trkpt lat="55.7798203" lon="49.1138480"><time>2022-10-29T11:58:10.910</time></trkpt><trkpt lat="55.7798693" lon="49.1138054"><time>2022-10-29T11:58:12.910</time></trkpt><trkpt lat="55.7799142" lon="49.1137871"><time>2022-10-29T11:58:14.907</time></trkpt><trkpt lat="55.7799628" lon="49.1137571"><time>2022-10-29T11:58:16.883</time></trkpt><trkpt lat="55.7800101" lon="49.1137264"><time>2022-10-29T11:58:19.900</time></trkpt><trkpt lat="55.7800582" lon="49.1136941"><time>2022-10-29T11:58:23.877</time></trkpt><trkpt lat="55.7801041" lon="49.1136374"><time>2022-10-29T11:58:28.920</time></trkpt><trkpt lat="55.7801440" lon="49.1135774"><time>2022-10-29T11:58:30.877</time></trkpt><trkpt lat="55.7801953" lon="49.1135458"><time>2022-10-29T11:58:32.880</time></trkpt><trkpt lat="55.7802439" lon="49.1135177"><time>2022-10-29T11:58:34.913</time></trkpt><trkpt lat="55.7802348" lon="49.1134358"><time>2022-10-29T11:58:40.903</time></trkpt><trkpt lat="55.7802023" lon="49.1133278"><time>2022-10-29T11:59:06.900</time></trkpt><trkpt lat="55.7801815" lon="49.1132492"><time>2022-10-29T11:59:08.933</time></trkpt><trkpt lat="55.7801516" lon="49.1131426"><time>2022-10-29T11:59:12.907</time></trkpt><trkpt lat="55.7801145" lon="49.1130371"><time>2022-10-29T11:59:14.913</time></trkpt><trkpt lat="55.7800836" lon="49.1129132"><time>2022-10-29T11:59:16.907</time></trkpt><trkpt lat="55.7800445" lon="49.1127514"><time>2022-10-29T11:59:18.907</time></trkpt><trkpt lat="55.7800074" lon="49.1127036"><time>2022-10-29T11:59:19.903</time></trkpt><trkpt lat="55.7799717" lon="49.1126527"><time>2022-10-29T11:59:20.910</time></trkpt><trkpt lat="55.7799332" lon="49.1126028"><time>2022-10-29T11:59:21.907</time></trkpt><trkpt lat="55.7798762" lon="49.1125191"><time>2022-10-29T11:59:23.890</time></trkpt><trkpt lat="55.7798167" lon="49.1124332"><time>2022-10-29T11:59:25.903</time></trkpt><trkpt lat="55.7797502" lon="49.1123402"><time>2022-10-29T11:59:27.917</time></trkpt><trkpt lat="55.7796847" lon="49.1122510"><time>2022-10-29T11:59:29.917</time></trkpt><trkpt lat="55.7796140" lon="49.1122025"><time>2022-10-29T11:59:31.907</time></trkpt><trkpt lat="55.7795469" lon="49.1121592"><time>2022-10-29T11:59:33.877</time></trkpt><trkpt lat="55.7795091" lon="49.1121158"><time>2022-10-29T11:59:34.880</time></trkpt><trkpt lat="55.7794715" lon="49.1120714"><time>2022-10-29T11:59:35.913</time></trkpt><trkpt lat="55.7793863" lon="49.1119749"><time>2022-10-29T11:59:37.920</time></trkpt><trkpt lat="55.7793177" lon="49.1118969"><time>2022-10-29T11:59:39.903</time></trkpt><trkpt lat="55.7792560" lon="49.1118445"><time>2022-10-29T11:59:41.897</time></trkpt><trkpt lat="55.7791897" lon="49.1117756"><time>2022-10-29T11:59:43.910</time></trkpt><trkpt lat="55.7791257" lon="49.1116890"><time>2022-10-29T11:59:45.910</time></trkpt><trkpt lat="55.7790664" lon="49.1116112"><time>2022-10-29T11:59:47.910</time></trkpt><trkpt lat="55.7790095" lon="49.1115422"><time>2022-10-29T11:59:49.907</time></trkpt><trkpt lat="55.7789577" lon="49.1114642"><time>2022-10-29T11:59:52.913</time></trkpt><trkpt lat="55.7789383" lon="49.1113889"><time>2022-10-29T11:59:57.903</time></trkpt><trkpt lat="55.7789139" lon="49.1113170"><time>2022-10-29T12:00:28.883</time></trkpt><trkpt lat="55.7788864" lon="49.1112385"><time>2022-10-29T12:00:30.887</time></trkpt><trkpt lat="55.7788521" lon="49.1111533"><time>2022-10-29T12:00:32.917</time></trkpt><trkpt lat="55.7787939" lon="49.1110464"><time>2022-10-29T12:00:34.883</time></trkpt><trkpt lat="55.7787438" lon="49.1109786"><time>2022-10-29T12:00:35.877</time></trkpt><trkpt lat="55.7786849" lon="49.1108690"><time>2022-10-29T12:00:37.910</time></trkpt><trkpt lat="55.7786446" lon="49.1108204"><time>2022-10-29T12:00:38.903</time></trkpt><trkpt lat="55.7786085" lon="49.1107645"><time>2022-10-29T12:00:39.903</time></trkpt><trkpt lat="55.7785473" lon="49.1106779"><time>2022-10-29T12:00:41.903</time></trkpt><trkpt lat="55.7785032" lon="49.1106442"><time>2022-10-29T12:00:42.907</time></trkpt><trkpt lat="55.7784535" lon="49.1106184"><time>2022-10-29T12:00:43.893</time></trkpt><trkpt lat="55.7784030" lon="49.1105638"><time>2022-10-29T12:00:44.903</time></trkpt><trkpt lat="55.7783152" lon="49.1104692"><time>2022-10-29T12:00:46.900</time></trkpt><trkpt lat="55.7782813" lon="49.1104069"><time>2022-10-29T12:00:47.910</time></trkpt><trkpt lat="55.7782250" lon="49.1103739"><time>2022-10-29T12:00:48.917</time></trkpt><trkpt lat="55.7781600" lon="49.1102896"><time>2022-10-29T12:00:50.917</time></trkpt><trkpt lat="55.7780979" lon="49.1102015"><time>2022-10-29T12:00:52.907</time></trkpt><trkpt lat="55.7780487" lon="49.1101313"><time>2022-10-29T12:00:54.907</time></trkpt><trkpt lat="55.7779800" lon="49.1100541"><time>2022-10-29T12:00:56.903</time></trkpt><trkpt lat="55.7779323" lon="49.1100084"><time>2022-10-29T12:00:57.907</time></trkpt><trkpt lat="55.7778639" lon="49.1098988"><time>2022-10-29T12:00:59.910</time></trkpt><trkpt lat="55.7778219" lon="49.1098560"><time>2022-10-29T12:01:00.920</time></trkpt><trkpt lat="55.7777836" lon="49.1098008"><time>2022-10-29T12:01:01.910</time></trkpt><trkpt lat="55.7777263" lon="49.1097266"><time>2022-10-29T12:01:03.903</time></trkpt><trkpt lat="55.7776736" lon="49.1096540"><time>2022-10-29T12:01:05.900</time></trkpt><trkpt lat="55.7776496" lon="49.1095572"><time>2022-10-29T12:01:07.903</time></trkpt><trkpt lat="55.7776758" lon="49.1094803"><time>2022-10-29T12:01:10.903</time></trkpt><trkpt lat="55.7776669" lon="49.1093849"><time>2022-10-29T12:01:14.907</time></trkpt><trkpt lat="55.7776152" lon="49.1093254"><time>2022-10-29T12:01:19.903</time></trkpt><trkpt lat="55.7775586" lon="49.1092745"><time>2022-10-29T12:01:21.910</time></trkpt><trkpt lat="55.7774851" lon="49.1091951"><time>2022-10-29T12:01:23.907</time></trkpt><trkpt lat="55.7774155" lon="49.1091214"><time>2022-10-29T12:01:25.903</time></trkpt><trkpt lat="55.7773514" lon="49.1090728"><time>2022-10-29T12:01:27.903</time></trkpt><trkpt lat="55.7772873" lon="49.1089911"><time>2022-10-29T12:01:29.900</time></trkpt><trkpt lat="55.7772318" lon="49.1088755"><time>2022-10-29T12:01:31.933</time></trkpt><trkpt lat="55.7772001" lon="49.1088139"><time>2022-10-29T12:01:32.910</time></trkpt><trkpt lat="55.7771610" lon="49.1087620"><time>2022-10-29T12:01:33.897</time></trkpt><trkpt lat="55.7771226" lon="49.1087081"><time>2022-10-29T12:01:34.917</time></trkpt><trkpt lat="55.7770454" lon="49.1086064"><time>2022-10-29T12:01:36.907</time></trkpt><trkpt lat="55.7770052" lon="49.1085558"><time>2022-10-29T12:01:37.907</time></trkpt><trkpt lat="55.7769655" lon="49.1084962"><time>2022-10-29T12:01:38.910</time></trkpt><trkpt lat="55.7769253" lon="49.1084395"><time>2022-10-29T12:01:39.910</time></trkpt><trkpt lat="55.7768884" lon="49.1083788"><time>2022-10-29T12:01:40.927</time></trkpt><trkpt lat="55.7768495" lon="49.1083269"><time>2022-10-29T12:01:41.903</time></trkpt><trkpt lat="55.7768105" lon="49.1082831"><time>2022-10-29T12:01:42.903</time></trkpt><trkpt lat="55.7767748" lon="49.1082349"><time>2022-10-29T12:01:43.903</time></trkpt><trkpt lat="55.7767331" lon="49.1081823"><time>2022-10-29T12:01:44.913</time></trkpt><trkpt lat="55.7766949" lon="49.1081363"><time>2022-10-29T12:01:45.910</time></trkpt><trkpt lat="55.7766486" lon="49.1080942"><time>2022-10-29T12:01:46.933</time></trkpt><trkpt lat="55.7766354" lon="49.1080820"><time>2022-10-29T12:01:48.120</time></trkpt><trkpt lat="55.7765982" lon="49.1080366"><time>2022-10-29T12:01:48.903</time></trkpt><trkpt lat="55.7765549" lon="49.1079818"><time>2022-10-29T12:01:49.893</time></trkpt><trkpt lat="55.7765085" lon="49.1079280"><time>2022-10-29T12:01:50.897</time></trkpt><trkpt lat="55.7764701" lon="49.1078789"><time>2022-10-29T12:01:51.880</time></trkpt><trkpt lat="55.7764299" lon="49.1078202"><time>2022-10-29T12:01:52.900</time></trkpt><trkpt lat="55.7763912" lon="49.1077551"><time>2022-10-29T12:01:53.897</time></trkpt><trkpt lat="55.7763430" lon="49.1076990"><time>2022-10-29T12:01:54.903</time></trkpt><trkpt lat="55.7763001" lon="49.1076398"><time>2022-10-29T12:01:55.907</time></trkpt><trkpt lat="55.7762569" lon="49.1075918"><time>2022-10-29T12:01:56.907</time></trkpt><trkpt lat="55.7762190" lon="49.1075306"><time>2022-10-29T12:01:57.900</time></trkpt><trkpt lat="55.7761762" lon="49.1074787"><time>2022-10-29T12:01:58.903</time></trkpt><trkpt lat="55.7761388" lon="49.1074121"><time>2022-10-29T12:01:59.900</time></trkpt><trkpt lat="55.7761019" lon="49.1073497"><time>2022-10-29T12:02:00.900</time></trkpt><trkpt lat="55.7760391" lon="49.1072219"><time>2022-10-29T12:02:02.910</time></trkpt><trkpt lat="55.7760055" lon="49.1071595"><time>2022-10-29T12:02:03.877</time></trkpt><trkpt lat="55.7759520" lon="49.1070643"><time>2022-10-29T12:02:05.880</time></trkpt><trkpt lat="55.7759127" lon="49.1070215"><time>2022-10-29T12:02:06.880</time></trkpt><trkpt lat="55.7758425" lon="49.1069810"><time>2022-10-29T12:02:08.900</time></trkpt><trkpt lat="55.7757594" lon="49.1069872"><time>2022-10-29T12:02:10.893</time></trkpt><trkpt lat="55.7756853" lon="49.1070374"><time>2022-10-29T12:02:12.927</time></trkpt><trkpt lat="55.7756794" lon="49.1070673"><time>2022-10-29T12:02:14.043</time></trkpt><trkpt lat="55.7756353" lon="49.1071056"><time>2022-10-29T12:02:14.920</time></trkpt><trkpt lat="55.7755683" lon="49.1071752"><time>2022-10-29T12:02:16.873</time></trkpt><trkpt lat="55.7754895" lon="49.1072356"><time>2022-10-29T12:02:18.917</time></trkpt><trkpt lat="55.7754099" lon="49.1072962"><time>2022-10-29T12:02:20.917</time></trkpt><trkpt lat="55.7753340" lon="49.1073468"><time>2022-10-29T12:02:22.947</time></trkpt><trkpt lat="55.7753150" lon="49.1073353"><time>2022-10-29T12:02:24.880</time></trkpt><trkpt lat="55.7752427" lon="49.1072948"><time>2022-10-29T12:02:25.870</time></trkpt><trkpt lat="55.7751778" lon="49.1072861"><time>2022-10-29T12:02:27.897</time></trkpt><trkpt lat="55.7751187" lon="49.1073044"><time>2022-10-29T12:02:29.900</time></trkpt><trkpt lat="55.7750612" lon="49.1073088"><time>2022-10-29T12:02:31.900</time></trkpt><trkpt lat="55.7750045" lon="49.1072661"><time>2022-10-29T12:02:33.927</time></trkpt><trkpt lat="55.7750045" lon="49.1072661"><time>2022-10-29T12:02:33.983</time></trkpt><trkpt lat="55.7749510" lon="49.1073000"><time>2022-10-29T12:02:35.917</time></trkpt><trkpt lat="55.7749613" lon="49.1073678"><time>2022-10-29T12:02:37.060</time></trkpt><trkpt lat="55.7749350" lon="49.1074412"><time>2022-10-29T12:02:39.907</time></trkpt><trkpt lat="55.7749208" lon="49.1075203"><time>2022-10-29T12:02:43.913</time></trkpt><trkpt lat="55.7749416" lon="49.1075980"><time>2022-10-29T12:03:32.923</time></trkpt><trkpt lat="55.7749906" lon="49.1075940"><time>2022-10-29T12:03:34.940</time></trkpt><trkpt lat="55.7750199" lon="49.1074701"><time>2022-10-29T12:03:36.923</time></trkpt><trkpt lat="55.7750169" lon="49.1073188"><time>2022-10-29T12:03:38.927</time></trkpt><trkpt lat="55.7750433" lon="49.1071817"><time>2022-10-29T12:03:40.913</time></trkpt><trkpt lat="55.7750902" lon="49.1070765"><time>2022-10-29T12:03:42.920</time></trkpt><trkpt lat="55.7751237" lon="49.1069602"><time>2022-10-29T12:03:44.917</time></trkpt><trkpt lat="55.7751368" lon="49.1068268"><time>2022-10-29T12:03:46.937</time></trkpt><trkpt lat="55.7751438" lon="49.1066796"><time>2022-10-29T12:03:48.937</time></trkpt><trkpt lat="55.7751690" lon="49.1065364"><time>2022-10-29T12:03:50.927</time></trkpt><trkpt lat="55.7752133" lon="49.1064092"><time>2022-10-29T12:03:52.920</time></trkpt><trkpt lat="55.7752298" lon="49.1062925"><time>2022-10-29T12:03:54.917</time></trkpt><trkpt lat="55.7752210" lon="49.1061664"><time>2022-10-29T12:03:56.927</time></trkpt><trkpt lat="55.7752099" lon="49.1060445"><time>2022-10-29T12:03:58.930</time></trkpt><trkpt lat="55.7751940" lon="49.1059326"><time>2022-10-29T12:04:00.923</time></trkpt><trkpt lat="55.7751416" lon="49.1058293"><time>2022-10-29T12:04:02.923</time></trkpt><trkpt lat="55.7750791" lon="49.1057649"><time>2022-10-29T12:04:04.927</time></trkpt><trkpt lat="55.7750064" lon="49.1056890"><time>2022-10-29T12:04:06.927</time></trkpt><trkpt lat="55.7749391" lon="49.1056121"><time>2022-10-29T12:04:08.920</time></trkpt><trkpt lat="55.7748767" lon="49.1055409"><time>2022-10-29T12:04:10.947</time></trkpt><trkpt lat="55.7748236" lon="49.1054852"><time>2022-10-29T12:04:12.927</time></trkpt><trkpt lat="55.7747792" lon="49.1054485"><time>2022-10-29T12:04:15.927</time></trkpt><trkpt lat="55.7747392" lon="49.1053921"><time>2022-10-29T12:05:07.933</time></trkpt><trkpt lat="55.7746912" lon="49.1053172"><time>2022-10-29T12:05:09.933</time></trkpt><trkpt lat="55.7746306" lon="49.1052340"><time>2022-10-29T12:05:11.917</time></trkpt><trkpt lat="55.7745788" lon="49.1051716"><time>2022-10-29T12:05:13.917</time></trkpt><trkpt lat="55.7745361" lon="49.1051124"><time>2022-10-29T12:05:15.927</time></trkpt><trkpt lat="55.7744859" lon="49.1050407"><time>2022-10-29T12:05:17.927</time></trkpt><trkpt lat="55.7744270" lon="49.1049550"><time>2022-10-29T12:05:19.927</time></trkpt><trkpt lat="55.7743707" lon="49.1048523"><time>2022-10-29T12:05:21.920</time></trkpt><trkpt lat="55.7743209" lon="49.1047705"><time>2022-10-29T12:05:23.920</time></trkpt><trkpt lat="55.7742492" lon="49.1047019"><time>2022-10-29T12:05:25.913</time></trkpt><trkpt lat="55.7741832" lon="49.1046233"><time>2022-10-29T12:05:27.883</time></trkpt><trkpt lat="55.7741208" lon="49.1045320"><time>2022-10-29T12:05:29.887</time></trkpt><trkpt lat="55.7740559" lon="49.1044409"><time>2022-10-29T12:05:31.917</time></trkpt><trkpt lat="55.7739890" lon="49.1043504"><time>2022-10-29T12:05:33.927</time></trkpt><trkpt lat="55.7739230" lon="49.1042576"><time>2022-10-29T12:05:35.920</time></trkpt><trkpt lat="55.7738879" lon="49.1042050"><time>2022-10-29T12:05:36.940</time></trkpt><trkpt lat="55.7738255" lon="49.1041193"><time>2022-10-29T12:05:38.917</time></trkpt><trkpt lat="55.7737665" lon="49.1040542"><time>2022-10-29T12:05:40.920</time></trkpt><trkpt lat="55.7736991" lon="49.1039500"><time>2022-10-29T12:05:42.923</time></trkpt><trkpt lat="55.7736372" lon="49.1038667"><time>2022-10-29T12:05:44.920</time></trkpt><trkpt lat="55.7735662" lon="49.1037939"><time>2022-10-29T12:05:46.923</time></trkpt><trkpt lat="55.7735019" lon="49.1037172"><time>2022-10-29T12:05:48.930</time></trkpt><trkpt lat="55.7734385" lon="49.1036470"><time>2022-10-29T12:05:50.927</time></trkpt><trkpt lat="55.7733821" lon="49.1035872"><time>2022-10-29T12:05:52.927</time></trkpt><trkpt lat="55.7733447" lon="49.1035088"><time>2022-10-29T12:05:54.923</time></trkpt><trkpt lat="55.7732986" lon="49.1034356"><time>2022-10-29T12:05:56.927</time></trkpt><trkpt lat="55.7732491" lon="49.1033721"><time>2022-10-29T12:05:58.927</time></trkpt><trkpt lat="55.7731996" lon="49.1033106"><time>2022-10-29T12:06:00.927</time></trkpt><trkpt lat="55.7731381" lon="49.1032342"><time>2022-10-29T12:06:02.923</time></trkpt><trkpt lat="55.7730908" lon="49.1031782"><time>2022-10-29T12:06:04.917</time></trkpt><trkpt lat="55.7730408" lon="49.1031169"><time>2022-10-29T12:06:06.930</time></trkpt><trkpt lat="55.7729971" lon="49.1030442"><time>2022-10-29T12:06:08.913</time></trkpt><trkpt lat="55.7729595" lon="49.1029780"><time>2022-10-29T12:06:10.937</time></trkpt><trkpt lat="55.7729117" lon="49.1029371"><time>2022-10-29T12:06:13.930</time></trkpt><trkpt lat="55.7728745" lon="49.1028885"><time>2022-10-29T12:06:23.883</time></trkpt><trkpt lat="55.7728586" lon="49.1028125"><time>2022-10-29T12:07:09.873</time></trkpt><trkpt lat="55.7728012" lon="49.1027932"><time>2022-10-29T12:07:12.887</time></trkpt><trkpt lat="55.7727486" lon="49.1027886"><time>2022-10-29T12:07:14.913</time></trkpt><trkpt lat="55.7726873" lon="49.1028036"><time>2022-10-29T12:07:16.930</time></trkpt><trkpt lat="55.7726137" lon="49.1028236"><time>2022-10-29T12:07:18.923</time></trkpt><trkpt lat="55.7725445" lon="49.1028373"><time>2022-10-29T12:07:20.927</time></trkpt><trkpt lat="55.7724788" lon="49.1028565"><time>2022-10-29T12:07:22.877</time></trkpt><trkpt lat="55.7724201" lon="49.1028758"><time>2022-10-29T12:07:24.880</time></trkpt><trkpt lat="55.7723753" lon="49.1028868"><time>2022-10-29T12:07:26.883</time></trkpt><trkpt lat="55.7723222" lon="49.1029008"><time>2022-10-29T12:07:28.887</time></trkpt><trkpt lat="55.7722694" lon="49.1029298"><time>2022-10-29T12:07:30.937</time></trkpt><trkpt lat="55.7722126" lon="49.1029291"><time>2022-10-29T12:07:31.873</time></trkpt><trkpt lat="55.7721654" lon="49.1029742"><time>2022-10-29T12:07:33.883</time></trkpt><trkpt lat="55.7720877" lon="49.1029923"><time>2022-10-29T12:07:35.890</time></trkpt><trkpt lat="55.7720306" lon="49.1029674"><time>2022-10-29T12:07:36.883</time></trkpt><trkpt lat="55.7719752" lon="49.1029874"><time>2022-10-29T12:07:38.893</time></trkpt><trkpt lat="55.7719031" lon="49.1030060"><time>2022-10-29T12:07:40.887</time></trkpt><trkpt lat="55.7718353" lon="49.1030340"><time>2022-10-29T12:07:42.873</time></trkpt><trkpt lat="55.7717795" lon="49.1030373"><time>2022-10-29T12:07:44.883</time></trkpt><trkpt lat="55.7717253" lon="49.1030339"><time>2022-10-29T12:07:46.917</time></trkpt><trkpt lat="55.7716684" lon="49.1030542"><time>2022-10-29T12:07:48.923</time></trkpt><trkpt lat="55.7716270" lon="49.1030948"><time>2022-10-29T12:07:51.873</time></trkpt><trkpt lat="55.7715615" lon="49.1031405"><time>2022-10-29T12:07:53.887</time></trkpt><trkpt lat="55.7715207" lon="49.1031987"><time>2022-10-29T12:07:55.883</time></trkpt><trkpt lat="55.7715006" lon="49.1032846"><time>2022-10-29T12:07:58.883</time></trkpt><trkpt lat="55.7714254" lon="49.1033338"><time>2022-10-29T12:08:00.873</time></trkpt><trkpt lat="55.7713507" lon="49.1033633"><time>2022-10-29T12:08:02.920</time></trkpt><trkpt lat="55.7712916" lon="49.1033843"><time>2022-10-29T12:08:04.940</time></trkpt><trkpt lat="55.7712254" lon="49.1034214"><time>2022-10-29T12:08:07.910</time></trkpt><trkpt lat="55.7711536" lon="49.1034468"><time>2022-10-29T12:08:09.933</time></trkpt><trkpt lat="55.7710965" lon="49.1034786"><time>2022-10-29T12:08:11.930</time></trkpt><trkpt lat="55.7710481" lon="49.1035258"><time>2022-10-29T12:08:14.937</time></trkpt><trkpt lat="55.7710037" lon="49.1035509"><time>2022-10-29T12:08:16.973</time></trkpt><trkpt lat="55.7709888" lon="49.1035645"><time>2022-10-29T12:08:18.117</time></trkpt><trkpt lat="55.7709544" lon="49.1036200"><time>2022-10-29T12:08:19.873</time></trkpt><trkpt lat="55.7709279" lon="49.1037034"><time>2022-10-29T12:08:22.883</time></trkpt><trkpt lat="55.7708561" lon="49.1037340"><time>2022-10-29T12:08:25.887</time></trkpt><trkpt lat="55.7707732" lon="49.1037116"><time>2022-10-29T12:08:27.923</time></trkpt><trkpt lat="55.7707260" lon="49.1037012"><time>2022-10-29T12:08:28.883</time></trkpt><trkpt lat="55.7706418" lon="49.1036997"><time>2022-10-29T12:08:30.880</time></trkpt><trkpt lat="55.7705650" lon="49.1037172"><time>2022-10-29T12:08:32.867</time></trkpt><trkpt lat="55.7705134" lon="49.1037782"><time>2022-10-29T12:08:34.877</time></trkpt><trkpt lat="55.7704400" lon="49.1038395"><time>2022-10-29T12:08:36.873</time></trkpt><trkpt lat="55.7703526" lon="49.1038463"><time>2022-10-29T12:08:38.877</time></trkpt><trkpt lat="55.7702706" lon="49.1038364"><time>2022-10-29T12:08:40.913</time></trkpt><trkpt lat="55.7701956" lon="49.1038066"><time>2022-10-29T12:08:42.920</time></trkpt><trkpt lat="55.7701275" lon="49.1037343"><time>2022-10-29T12:08:44.883</time></trkpt><trkpt lat="55.7700652" lon="49.1036977"><time>2022-10-29T12:08:46.913</time></trkpt><trkpt lat="55.7700033" lon="49.1037196"><time>2022-10-29T12:08:48.960</time></trkpt><trkpt lat="55.7699719" lon="49.1037281"><time>2022-10-29T12:08:50.110</time></trkpt><trkpt lat="55.7699281" lon="49.1037785"><time>2022-10-29T12:08:52.917</time></trkpt><trkpt lat="55.7699078" lon="49.1039099"><time>2022-10-29T12:08:55.877</time></trkpt><trkpt lat="55.7699093" lon="49.1040623"><time>2022-10-29T12:08:57.877</time></trkpt><trkpt lat="55.7699219" lon="49.1041425"><time>2022-10-29T12:08:58.877</time></trkpt><trkpt lat="55.7699367" lon="49.1042242"><time>2022-10-29T12:08:59.947</time></trkpt><trkpt lat="55.7699515" lon="49.1043024"><time>2022-10-29T12:09:00.913</time></trkpt><trkpt lat="55.7699581" lon="49.1044462"><time>2022-10-29T12:09:02.920</time></trkpt><trkpt lat="55.7699223" lon="49.1045495"><time>2022-10-29T12:09:04.913</time></trkpt><trkpt lat="55.7698556" lon="49.1045914"><time>2022-10-29T12:09:06.910</time></trkpt><trkpt lat="55.7697695" lon="49.1045966"><time>2022-10-29T12:09:08.967</time></trkpt><trkpt lat="55.7697199" lon="49.1045372"><time>2022-10-29T12:09:10.083</time></trkpt><trkpt lat="55.7696574" lon="49.1045345"><time>2022-10-29T12:09:11.900</time></trkpt><trkpt lat="55.7695999" lon="49.1045991"><time>2022-10-29T12:09:12.907</time></trkpt><trkpt lat="55.7695154" lon="49.1046361"><time>2022-10-29T12:09:14.950</time></trkpt><trkpt lat="55.7695154" lon="49.1046361"><time>2022-10-29T12:09:15.110</time></trkpt><trkpt lat="55.7694423" lon="49.1046250"><time>2022-10-29T12:09:16.913</time></trkpt><trkpt lat="55.7694396" lon="49.1046230"><time>2022-10-29T12:09:18.037</time></trkpt><trkpt lat="55.7693852" lon="49.1046211"><time>2022-10-29T12:09:19.930</time></trkpt><trkpt lat="55.7693272" lon="49.1046235"><time>2022-10-29T12:09:22.903</time></trkpt><trkpt lat="55.7692630" lon="49.1046110"><time>2022-10-29T12:09:48.927</time></trkpt><trkpt lat="55.7691996" lon="49.1046207"><time>2022-10-29T12:09:50.933</time></trkpt><trkpt lat="55.7691345" lon="49.1046409"><time>2022-10-29T12:09:52.927</time></trkpt><trkpt lat="55.7690812" lon="49.1045828"><time>2022-10-29T12:09:54.930</time></trkpt><trkpt lat="55.7690590" lon="49.1044923"><time>2022-10-29T12:09:56.890</time></trkpt><trkpt lat="55.7690459" lon="49.1044026"><time>2022-10-29T12:09:58.907</time></trkpt><trkpt lat="55.7690399" lon="49.1042946"><time>2022-10-29T12:10:00.883</time></trkpt><trkpt lat="55.7690299" lon="49.1041986"><time>2022-10-29T12:10:02.907</time></trkpt><trkpt lat="55.7689982" lon="49.1041158"><time>2022-10-29T12:10:04.877</time></trkpt><trkpt lat="55.7689296" lon="49.1040852"><time>2022-10-29T12:10:06.883</time></trkpt><trkpt lat="55.7688613" lon="49.1041107"><time>2022-10-29T12:10:08.920</time></trkpt><trkpt lat="55.7687981" lon="49.1041502"><time>2022-10-29T12:10:10.917</time></trkpt><trkpt lat="55.7687280" lon="49.1041844"><time>2022-10-29T12:10:12.937</time></trkpt><trkpt lat="55.7686535" lon="49.1042059"><time>2022-10-29T12:10:14.930</time></trkpt><trkpt lat="55.7685772" lon="49.1042287"><time>2022-10-29T12:10:16.933</time></trkpt><trkpt lat="55.7685006" lon="49.1042583"><time>2022-10-29T12:10:18.913</time></trkpt><trkpt lat="55.7684207" lon="49.1042879"><time>2022-10-29T12:10:20.920</time></trkpt><trkpt lat="55.7683481" lon="49.1043089"><time>2022-10-29T12:10:22.873</time></trkpt><trkpt lat="55.7682733" lon="49.1043377"><time>2022-10-29T12:10:24.917</time></trkpt><trkpt lat="55.7682075" lon="49.1043704"><time>2022-10-29T12:10:26.880</time></trkpt><trkpt lat="55.7681503" lon="49.1044017"><time>2022-10-29T12:10:28.920</time></trkpt><trkpt lat="55.7680842" lon="49.1044382"><time>2022-10-29T12:10:30.923</time></trkpt><trkpt lat="55.7680248" lon="49.1044649"><time>2022-10-29T12:10:32.880</time></trkpt><trkpt lat="55.7679582" lon="49.1044996"><time>2022-10-29T12:10:34.887</time></trkpt><trkpt lat="55.7678886" lon="49.1045338"><time>2022-10-29T12:10:36.930</time></trkpt><trkpt lat="55.7678233" lon="49.1045688"><time>2022-10-29T12:10:38.880</time></trkpt><trkpt lat="55.7677644" lon="49.1046095"><time>2022-10-29T12:10:40.927</time></trkpt><trkpt lat="55.7677095" lon="49.1046675"><time>2022-10-29T12:10:42.923</time></trkpt><trkpt lat="55.7676452" lon="49.1047242"><time>2022-10-29T12:10:44.927</time></trkpt><trkpt lat="55.7675745" lon="49.1047694"><time>2022-10-29T12:10:46.877</time></trkpt><trkpt lat="55.7674911" lon="49.1048102"><time>2022-10-29T12:10:48.883</time></trkpt><trkpt lat="55.7674165" lon="49.1048505"><time>2022-10-29T12:10:50.950</time></trkpt><trkpt lat="55.7673421" lon="49.1048861"><time>2022-10-29T12:10:52.907</time></trkpt><trkpt lat="55.7672625" lon="49.1049230"><time>2022-10-29T12:10:54.893</time></trkpt><trkpt lat="55.7671811" lon="49.1049539"><time>2022-10-29T12:10:56.887</time></trkpt><trkpt lat="55.7671078" lon="49.1049935"><time>2022-10-29T12:10:58.887</time></trkpt><trkpt lat="55.7670370" lon="49.1050375"><time>2022-10-29T12:11:00.883</time></trkpt><trkpt lat="55.7669619" lon="49.1050697"><time>2022-10-29T12:11:02.887</time></trkpt><trkpt lat="55.7668947" lon="49.1050980"><time>2022-10-29T12:11:04.880</time></trkpt><trkpt lat="55.7668271" lon="49.1051347"><time>2022-10-29T12:11:06.887</time></trkpt><trkpt lat="55.7667557" lon="49.1051785"><time>2022-10-29T12:11:08.917</time></trkpt><trkpt lat="55.7666828" lon="49.1052151"><time>2022-10-29T12:11:10.887</time></trkpt><trkpt lat="55.7666095" lon="49.1052442"><time>2022-10-29T12:11:12.887</time></trkpt><trkpt lat="55.7665359" lon="49.1052808"><time>2022-10-29T12:11:14.910</time></trkpt><trkpt lat="55.7664676" lon="49.1053144"><time>2022-10-29T12:11:16.883</time></trkpt><trkpt lat="55.7664118" lon="49.1053366"><time>2022-10-29T12:11:18.883</time></trkpt><trkpt lat="55.7663591" lon="49.1053646"><time>2022-10-29T12:11:20.930</time></trkpt><trkpt lat="55.7663132" lon="49.1053932"><time>2022-10-29T12:11:24.887</time></trkpt><trkpt lat="55.7662887" lon="49.1054837"><time>2022-10-29T12:11:42.923</time></trkpt><trkpt lat="55.7662993" lon="49.1055935"><time>2022-10-29T12:11:44.920</time></trkpt><trkpt lat="55.7663195" lon="49.1057773"><time>2022-10-29T12:11:46.883</time></trkpt><trkpt lat="55.7663432" lon="49.1059341"><time>2022-10-29T12:11:48.883</time></trkpt><trkpt lat="55.7663612" lon="49.1060949"><time>2022-10-29T12:11:50.920</time></trkpt><trkpt lat="55.7663788" lon="49.1062516"><time>2022-10-29T12:11:52.913</time></trkpt><trkpt lat="55.7663868" lon="49.1063430"><time>2022-10-29T12:11:53.933</time></trkpt><trkpt lat="55.7664005" lon="49.1064397"><time>2022-10-29T12:11:54.917</time></trkpt><trkpt lat="55.7664129" lon="49.1065297"><time>2022-10-29T12:11:55.927</time></trkpt><trkpt lat="55.7664234" lon="49.1066179"><time>2022-10-29T12:11:56.920</time></trkpt><trkpt lat="55.7664362" lon="49.1067119"><time>2022-10-29T12:11:57.930</time></trkpt><trkpt lat="55.7664475" lon="49.1068029"><time>2022-10-29T12:11:58.923</time></trkpt><trkpt lat="55.7664527" lon="49.1068886"><time>2022-10-29T12:11:59.923</time></trkpt><trkpt lat="55.7664754" lon="49.1070527"><time>2022-10-29T12:12:01.873</time></trkpt><trkpt lat="55.7664850" lon="49.1071358"><time>2022-10-29T12:12:02.940</time></trkpt><trkpt lat="55.7664923" lon="49.1072243"><time>2022-10-29T12:12:03.877</time></trkpt><trkpt lat="55.7665054" lon="49.1073602"><time>2022-10-29T12:12:05.887</time></trkpt><trkpt lat="55.7665342" lon="49.1074487"><time>2022-10-29T12:12:07.913</time></trkpt><trkpt lat="55.7665903" lon="49.1074022"><time>2022-10-29T12:12:09.917</time></trkpt><trkpt lat="55.7666626" lon="49.1073844"><time>2022-10-29T12:12:11.877</time></trkpt><trkpt lat="55.7667184" lon="49.1073841"><time>2022-10-29T12:12:14.917</time></trkpt><trkpt lat="55.7667811" lon="49.1073610"><time>2022-10-29T12:12:18.927</time></trkpt><trkpt lat="55.7667623" lon="49.1074431"><time>2022-10-29T12:12:25.880</time></trkpt><trkpt lat="55.7667671" lon="49.1075463"><time>2022-10-29T12:12:28.923</time></trkpt><trkpt lat="55.7667795" lon="49.1076649"><time>2022-10-29T12:12:31.883</time></trkpt><trkpt lat="55.7667877" lon="49.1077464"><time>2022-10-29T12:12:33.887</time></trkpt><trkpt lat="55.7667703" lon="49.1078402"><time>2022-10-29T12:12:36.917</time></trkpt><trkpt lat="55.7667110" lon="49.1078764"><time>2022-10-29T12:12:39.913</time></trkpt><trkpt lat="55.7667470" lon="49.1079256"><time>2022-10-29T12:12:43.927</time></trkpt><trkpt lat="55.7667968" lon="49.1078947"><time>2022-10-29T12:12:45.907</time></trkpt><trkpt lat="55.7668396" lon="49.1079708"><time>2022-10-29T12:12:48.940</time></trkpt><trkpt lat="55.7668313" lon="49.1080737"><time>2022-10-29T12:12:51.943</time></trkpt><trkpt lat="55.7668117" lon="49.1081650"><time>2022-10-29T12:13:40.887</time></trkpt><trkpt lat="55.7668077" lon="49.1082524"><time>2022-10-29T12:13:42.880</time></trkpt><trkpt lat="55.7668008" lon="49.1083537"><time>2022-10-29T12:13:44.873</time></trkpt><trkpt lat="55.7668009" lon="49.1084618"><time>2022-10-29T12:13:46.880</time></trkpt><trkpt lat="55.7668022" lon="49.1085580"><time>2022-10-29T12:13:49.887</time></trkpt><trkpt lat="55.7667746" lon="49.1086412"><time>2022-10-29T12:13:56.920</time></trkpt><trkpt lat="55.7667476" lon="49.1087147"><time>2022-10-29T12:13:58.877</time></trkpt><trkpt lat="55.7667218" lon="49.1087942"><time>2022-10-29T12:14:01.883</time></trkpt><trkpt lat="55.7667035" lon="49.1088739"><time>2022-10-29T12:14:04.913</time></trkpt><trkpt lat="55.7666818" lon="49.1089572"><time>2022-10-29T12:14:07.923</time></trkpt><trkpt lat="55.7666598" lon="49.1090686"><time>2022-10-29T12:14:10.910</time></trkpt><trkpt lat="55.7666418" lon="49.1091582"><time>2022-10-29T12:14:12.923</time></trkpt><trkpt lat="55.7666218" lon="49.1092420"><time>2022-10-29T12:14:14.927</time></trkpt><trkpt lat="55.7666026" lon="49.1093262"><time>2022-10-29T12:14:16.920</time></trkpt><trkpt lat="55.7665885" lon="49.1094114"><time>2022-10-29T12:14:18.923</time></trkpt><trkpt lat="55.7665785" lon="49.1095023"><time>2022-10-29T12:14:20.917</time></trkpt><trkpt lat="55.7665730" lon="49.1096219"><time>2022-10-29T12:14:23.920</time></trkpt><trkpt lat="55.7665678" lon="49.1097194"><time>2022-10-29T12:14:25.917</time></trkpt><trkpt lat="55.7665707" lon="49.1098371"><time>2022-10-29T12:14:27.933</time></trkpt><trkpt lat="55.7665759" lon="49.1099543"><time>2022-10-29T12:14:29.920</time></trkpt><trkpt lat="55.7665801" lon="49.1100717"><time>2022-10-29T12:14:31.880</time></trkpt><trkpt lat="55.7665875" lon="49.1101967"><time>2022-10-29T12:14:33.887</time></trkpt><trkpt lat="55.7665975" lon="49.1103122"><time>2022-10-29T12:14:35.887</time></trkpt><trkpt lat="55.7666030" lon="49.1104211"><time>2022-10-29T12:14:37.887</time></trkpt><trkpt lat="55.7665851" lon="49.1104996"><time>2022-10-29T12:14:39.923</time></trkpt><trkpt lat="55.7665149" lon="49.1105187"><time>2022-10-29T12:14:42.883</time></trkpt><trkpt lat="55.7664545" lon="49.1105230"><time>2022-10-29T12:14:44.923</time></trkpt><trkpt lat="55.7663902" lon="49.1105375"><time>2022-10-29T12:14:46.917</time></trkpt><trkpt lat="55.7663309" lon="49.1105501"><time>2022-10-29T12:14:48.887</time></trkpt><trkpt lat="55.7662784" lon="49.1105610"><time>2022-10-29T12:14:50.913</time></trkpt><trkpt lat="55.7662183" lon="49.1105711"><time>2022-10-29T12:14:52.883</time></trkpt><trkpt lat="55.7661549" lon="49.1105777"><time>2022-10-29T12:14:54.883</time></trkpt><trkpt lat="55.7660799" lon="49.1105733"><time>2022-10-29T12:14:56.887</time></trkpt><trkpt lat="55.7660048" lon="49.1105686"><time>2022-10-29T12:14:58.893</time></trkpt><trkpt lat="55.7659282" lon="49.1105811"><time>2022-10-29T12:15:00.907</time></trkpt><trkpt lat="55.7658532" lon="49.1105944"><time>2022-10-29T12:15:02.907</time></trkpt><trkpt lat="55.7657760" lon="49.1106091"><time>2022-10-29T12:15:04.893</time></trkpt><trkpt lat="55.7656945" lon="49.1106250"><time>2022-10-29T12:15:06.927</time></trkpt><trkpt lat="55.7656110" lon="49.1106390"><time>2022-10-29T12:15:08.910</time></trkpt><trkpt lat="55.7655261" lon="49.1106556"><time>2022-10-29T12:15:10.910</time></trkpt><trkpt lat="55.7654419" lon="49.1106688"><time>2022-10-29T12:15:12.910</time></trkpt><trkpt lat="55.7654200" lon="49.1106735"><time>2022-10-29T12:15:14.043</time></trkpt><trkpt lat="55.7653721" lon="49.1106789"><time>2022-10-29T12:15:14.903</time></trkpt><trkpt lat="55.7653070" lon="49.1106912"><time>2022-10-29T12:15:16.897</time></trkpt><trkpt lat="55.7652331" lon="49.1107041"><time>2022-10-29T12:15:18.887</time></trkpt><trkpt lat="55.7651707" lon="49.1107250"><time>2022-10-29T12:15:20.900</time></trkpt><trkpt lat="55.7651175" lon="49.1107301"><time>2022-10-29T12:15:22.903</time></trkpt><trkpt lat="55.7650582" lon="49.1107439"><time>2022-10-29T12:15:24.900</time></trkpt><trkpt lat="55.7649901" lon="49.1107652"><time>2022-10-29T12:15:26.893</time></trkpt><trkpt lat="55.7649347" lon="49.1107835"><time>2022-10-29T12:15:28.903</time></trkpt><trkpt lat="55.7648778" lon="49.1108022"><time>2022-10-29T12:15:30.903</time></trkpt><trkpt lat="55.7648197" lon="49.1108105"><time>2022-10-29T12:15:32.907</time></trkpt><trkpt lat="55.7647742" lon="49.1108137"><time>2022-10-29T12:15:34.910</time></trkpt><trkpt lat="55.7647239" lon="49.1108588"><time>2022-10-29T12:15:37.917</time></trkpt><trkpt lat="55.7647281" lon="49.1109387"><time>2022-10-29T12:15:39.900</time></trkpt><trkpt lat="55.7647460" lon="49.1110311"><time>2022-10-29T12:15:41.897</time></trkpt><trkpt lat="55.7647495" lon="49.1111182"><time>2022-10-29T12:15:43.927</time></trkpt><trkpt lat="55.7647539" lon="49.1112007"><time>2022-10-29T12:15:45.923</time></trkpt><trkpt lat="55.7647694" lon="49.1113072"><time>2022-10-29T12:15:48.917</time></trkpt><trkpt lat="55.7647868" lon="49.1113956"><time>2022-10-29T12:15:50.920</time></trkpt><trkpt lat="55.7647971" lon="49.1114983"><time>2022-10-29T12:15:52.913</time></trkpt><trkpt lat="55.7648052" lon="49.1116161"><time>2022-10-29T12:15:54.917</time></trkpt><trkpt lat="55.7648151" lon="49.1117577"><time>2022-10-29T12:15:56.950</time></trkpt><trkpt lat="55.7648164" lon="49.1118179"><time>2022-10-29T12:15:58.073</time></trkpt><trkpt lat="55.7648281" lon="49.1119607"><time>2022-10-29T12:15:59.913</time></trkpt><trkpt lat="55.7648381" lon="49.1121012"><time>2022-10-29T12:16:01.870</time></trkpt><trkpt lat="55.7648407" lon="49.1122491"><time>2022-10-29T12:16:03.880</time></trkpt><trkpt lat="55.7648358" lon="49.1123943"><time>2022-10-29T12:16:05.883</time></trkpt><trkpt lat="55.7648223" lon="49.1125359"><time>2022-10-29T12:16:07.917</time></trkpt><trkpt lat="55.7647724" lon="49.1126536"><time>2022-10-29T12:16:09.877</time></trkpt><trkpt lat="55.7646966" lon="49.1127327"><time>2022-10-29T12:16:11.880</time></trkpt><trkpt lat="55.7646198" lon="49.1127808"><time>2022-10-29T12:16:13.947</time></trkpt><trkpt lat="55.7645940" lon="49.1128020"><time>2022-10-29T12:16:15.047</time></trkpt><trkpt lat="55.7645127" lon="49.1128139"><time>2022-10-29T12:16:16.917</time></trkpt><trkpt lat="55.7644432" lon="49.1128324"><time>2022-10-29T12:16:18.910</time></trkpt><trkpt lat="55.7643752" lon="49.1128361"><time>2022-10-29T12:16:20.920</time></trkpt><trkpt lat="55.7643752" lon="49.1128361"><time>2022-10-29T12:16:20.987</time></trkpt><trkpt lat="55.7643108" lon="49.1128344"><time>2022-10-29T12:16:22.913</time></trkpt><trkpt lat="55.7642875" lon="49.1128650"><time>2022-10-29T12:16:24.033</time></trkpt><trkpt lat="55.7642331" lon="49.1128899"><time>2022-10-29T12:16:25.873</time></trkpt><trkpt lat="55.7642351" lon="49.1129724"><time>2022-10-29T12:16:27.887</time></trkpt><trkpt lat="55.7642805" lon="49.1129691"><time>2022-10-29T12:16:29.907</time></trkpt><trkpt lat="55.7642606" lon="49.1128950"><time>2022-10-29T12:16:34.907</time></trkpt><trkpt lat="55.7642278" lon="49.1129593"><time>2022-10-29T12:19:07.917</time></trkpt><trkpt lat="55.7642513" lon="49.1130556"><time>2022-10-29T12:19:09.917</time></trkpt><trkpt lat="55.7642967" lon="49.1131150"><time>2022-10-29T12:19:11.920</time></trkpt><trkpt lat="55.7643388" lon="49.1132014"><time>2022-10-29T12:19:13.920</time></trkpt><trkpt lat="55.7643686" lon="49.1133463"><time>2022-10-29T12:19:15.910</time></trkpt><trkpt lat="55.7643846" lon="49.1134375"><time>2022-10-29T12:19:16.920</time></trkpt><trkpt lat="55.7644009" lon="49.1135155"><time>2022-10-29T12:19:17.920</time></trkpt><trkpt lat="55.7644360" lon="49.1136574"><time>2022-10-29T12:19:19.913</time></trkpt><trkpt lat="55.7644659" lon="49.1137973"><time>2022-10-29T12:19:21.917</time></trkpt><trkpt lat="55.7644873" lon="49.1139252"><time>2022-10-29T12:19:23.913</time></trkpt><trkpt lat="55.7645147" lon="49.1140733"><time>2022-10-29T12:19:25.920</time></trkpt><trkpt lat="55.7645408" lon="49.1142039"><time>2022-10-29T12:19:27.920</time></trkpt><trkpt lat="55.7645675" lon="49.1143163"><time>2022-10-29T12:19:29.897</time></trkpt><trkpt lat="55.7645951" lon="49.1144484"><time>2022-10-29T12:19:31.917</time></trkpt><trkpt lat="55.7646365" lon="49.1145835"><time>2022-10-29T12:19:33.883</time></trkpt><trkpt lat="55.7646807" lon="49.1147081"><time>2022-10-29T12:19:35.917</time></trkpt><trkpt lat="55.7647188" lon="49.1148280"><time>2022-10-29T12:19:37.927</time></trkpt><trkpt lat="55.7647625" lon="49.1149591"><time>2022-10-29T12:19:39.920</time></trkpt><trkpt lat="55.7648092" lon="49.1150808"><time>2022-10-29T12:19:41.923</time></trkpt><trkpt lat="55.7648590" lon="49.1151847"><time>2022-10-29T12:19:43.927</time></trkpt><trkpt lat="55.7649045" lon="49.1152942"><time>2022-10-29T12:19:45.930</time></trkpt><trkpt lat="55.7649377" lon="49.1154070"><time>2022-10-29T12:19:47.910</time></trkpt><trkpt lat="55.7649697" lon="49.1155131"><time>2022-10-29T12:19:49.927</time></trkpt><trkpt lat="55.7650014" lon="49.1156053"><time>2022-10-29T12:19:51.923</time></trkpt><trkpt lat="55.7650284" lon="49.1156764"><time>2022-10-29T12:19:53.930</time></trkpt><trkpt lat="55.7650521" lon="49.1157528"><time>2022-10-29T12:19:55.923</time></trkpt><trkpt lat="55.7650784" lon="49.1158373"><time>2022-10-29T12:19:57.920</time></trkpt><trkpt lat="55.7651086" lon="49.1159211"><time>2022-10-29T12:19:59.923</time></trkpt><trkpt lat="55.7651430" lon="49.1160139"><time>2022-10-29T12:20:01.913</time></trkpt><trkpt lat="55.7651758" lon="49.1161118"><time>2022-10-29T12:20:03.917</time></trkpt><trkpt lat="55.7652081" lon="49.1161968"><time>2022-10-29T12:20:05.930</time></trkpt><trkpt lat="55.7652401" lon="49.1162851"><time>2022-10-29T12:20:07.913</time></trkpt><trkpt lat="55.7652741" lon="49.1164010"><time>2022-10-29T12:20:09.917</time></trkpt><trkpt lat="55.7653063" lon="49.1165077"><time>2022-10-29T12:20:11.917</time></trkpt><trkpt lat="55.7653375" lon="49.1166156"><time>2022-10-29T12:20:13.927</time></trkpt><trkpt lat="55.7653698" lon="49.1167279"><time>2022-10-29T12:20:15.923</time></trkpt><trkpt lat="55.7654014" lon="49.1168493"><time>2022-10-29T12:20:17.923</time></trkpt><trkpt lat="55.7654330" lon="49.1169720"><time>2022-10-29T12:20:19.923</time></trkpt><trkpt lat="55.7654655" lon="49.1170884"><time>2022-10-29T12:20:21.920</time></trkpt><trkpt lat="55.7654934" lon="49.1171895"><time>2022-10-29T12:20:23.913</time></trkpt><trkpt lat="55.7655207" lon="49.1172949"><time>2022-10-29T12:20:25.880</time></trkpt><trkpt lat="55.7655560" lon="49.1174103"><time>2022-10-29T12:20:27.877</time></trkpt><trkpt lat="55.7655867" lon="49.1175114"><time>2022-10-29T12:20:29.883</time></trkpt><trkpt lat="55.7656166" lon="49.1176101"><time>2022-10-29T12:20:31.887</time></trkpt><trkpt lat="55.7656457" lon="49.1177137"><time>2022-10-29T12:20:33.887</time></trkpt><trkpt lat="55.7656699" lon="49.1178141"><time>2022-10-29T12:20:35.917</time></trkpt><trkpt lat="55.7656852" lon="49.1178928"><time>2022-10-29T12:20:37.897</time></trkpt><trkpt lat="55.7657124" lon="49.1179980"><time>2022-10-29T12:20:40.910</time></trkpt><trkpt lat="55.7657061" lon="49.1181059"><time>2022-10-29T12:20:43.940</time></trkpt><trkpt lat="55.7656960" lon="49.1181909"><time>2022-10-29T12:20:45.920</time></trkpt><trkpt lat="55.7656781" lon="49.1182768"><time>2022-10-29T12:20:47.917</time></trkpt><trkpt lat="55.7656545" lon="49.1183501"><time>2022-10-29T12:20:49.913</time></trkpt><trkpt lat="55.7656281" lon="49.1184149"><time>2022-10-29T12:20:51.917</time></trkpt><trkpt lat="55.7655815" lon="49.1184607"><time>2022-10-29T12:20:53.920</time></trkpt><trkpt lat="55.7655374" lon="49.1185124"><time>2022-10-29T12:20:55.917</time></trkpt><trkpt lat="55.7654930" lon="49.1185882"><time>2022-10-29T12:20:57.927</time></trkpt><trkpt lat="55.7654381" lon="49.1186477"><time>2022-10-29T12:20:59.923</time></trkpt><trkpt lat="55.7653877" lon="49.1186862"><time>2022-10-29T12:21:01.927</time></trkpt><trkpt lat="55.7653283" lon="49.1187396"><time>2022-10-29T12:21:03.933</time></trkpt><trkpt lat="55.7652720" lon="49.1187729"><time>2022-10-29T12:21:05.910</time></trkpt><trkpt lat="55.7652094" lon="49.1188052"><time>2022-10-29T12:21:07.920</time></trkpt><trkpt lat="55.7651491" lon="49.1188531"><time>2022-10-29T12:21:09.913</time></trkpt><trkpt lat="55.7650902" lon="49.1188967"><time>2022-10-29T12:21:11.913</time></trkpt><trkpt lat="55.7650377" lon="49.1189466"><time>2022-10-29T12:21:13.913</time></trkpt><trkpt lat="55.7649864" lon="49.1190083"><time>2022-10-29T12:21:15.917</time></trkpt><trkpt lat="55.7649287" lon="49.1190799"><time>2022-10-29T12:21:17.920</time></trkpt><trkpt lat="55.7648662" lon="49.1191406"><time>2022-10-29T12:21:19.923</time></trkpt><trkpt lat="55.7648020" lon="49.1191950"><time>2022-10-29T12:21:21.927</time></trkpt><trkpt lat="55.7647324" lon="49.1192568"><time>2022-10-29T12:21:23.923</time></trkpt><trkpt lat="55.7646877" lon="49.1193087"><time>2022-10-29T12:21:24.920</time></trkpt><trkpt lat="55.7646188" lon="49.1193704"><time>2022-10-29T12:21:26.940</time></trkpt><trkpt lat="55.7645621" lon="49.1194329"><time>2022-10-29T12:21:28.910</time></trkpt><trkpt lat="55.7645067" lon="49.1194826"><time>2022-10-29T12:21:30.917</time></trkpt><trkpt lat="55.7644568" lon="49.1195223"><time>2022-10-29T12:21:32.920</time></trkpt><trkpt lat="55.7644028" lon="49.1195555"><time>2022-10-29T12:21:34.923</time></trkpt><trkpt lat="55.7643590" lon="49.1195914"><time>2022-10-29T12:21:36.930</time></trkpt><trkpt lat="55.7643257" lon="49.1196461"><time>2022-10-29T12:21:38.923</time></trkpt><trkpt lat="55.7642965" lon="49.1197131"><time>2022-10-29T12:21:41.917</time></trkpt><trkpt lat="55.7643144" lon="49.1197879"><time>2022-10-29T12:21:53.923</time></trkpt><trkpt lat="55.7643316" lon="49.1198628"><time>2022-10-29T12:22:03.920</time></trkpt><trkpt lat="55.7643609" lon="49.1199285"><time>2022-10-29T12:22:12.917</time></trkpt><trkpt lat="55.7643621" lon="49.1200226"><time>2022-10-29T12:22:34.923</time></trkpt><trkpt lat="55.7643764" lon="49.1201129"><time>2022-10-29T12:22:39.927</time></trkpt><trkpt lat="55.7643988" lon="49.1201919"><time>2022-10-29T12:22:43.923</time></trkpt><trkpt lat="55.7644267" lon="49.1202619"><time>2022-10-29T12:22:47.887</time></trkpt><trkpt lat="55.7644341" lon="49.1203422"><time>2022-10-29T12:23:18.920</time></trkpt><trkpt lat="55.7644677" lon="49.1204394"><time>2022-10-29T12:23:26.923</time></trkpt><trkpt lat="55.7644886" lon="49.1205280"><time>2022-10-29T12:23:28.913</time></trkpt><trkpt lat="55.7645230" lon="49.1206392"><time>2022-10-29T12:23:30.920</time></trkpt><trkpt lat="55.7645654" lon="49.1207536"><time>2022-10-29T12:23:32.903</time></trkpt><trkpt lat="55.7646024" lon="49.1208583"><time>2022-10-29T12:23:34.920</time></trkpt><trkpt lat="55.7646274" lon="49.1209391"><time>2022-10-29T12:23:36.917</time></trkpt><trkpt lat="55.7646511" lon="49.1210131"><time>2022-10-29T12:23:38.913</time></trkpt><trkpt lat="55.7646786" lon="49.1211003"><time>2022-10-29T12:23:40.910</time></trkpt><trkpt lat="55.7647040" lon="49.1211765"><time>2022-10-29T12:23:42.920</time></trkpt><trkpt lat="55.7647455" lon="49.1212655"><time>2022-10-29T12:23:45.920</time></trkpt><trkpt lat="55.7647719" lon="49.1213374"><time>2022-10-29T12:23:47.917</time></trkpt><trkpt lat="55.7648093" lon="49.1214541"><time>2022-10-29T12:23:49.920</time></trkpt><trkpt lat="55.7648468" lon="49.1215750"><time>2022-10-29T12:23:51.920</time></trkpt><trkpt lat="55.7648831" lon="49.1216868"><time>2022-10-29T12:23:53.890</time></trkpt><trkpt lat="55.7649161" lon="49.1218049"><time>2022-10-29T12:23:55.890</time></trkpt><trkpt lat="55.7649483" lon="49.1219138"><time>2022-10-29T12:23:57.913</time></trkpt><trkpt lat="55.7649742" lon="49.1220171"><time>2022-10-29T12:23:59.923</time></trkpt><trkpt lat="55.7649940" lon="49.1221172"><time>2022-10-29T12:24:01.913</time></trkpt><trkpt lat="55.7649711" lon="49.1222152"><time>2022-10-29T12:24:03.920</time></trkpt><trkpt lat="55.7649044" lon="49.1222785"><time>2022-10-29T12:24:05.913</time></trkpt><trkpt lat="55.7648436" lon="49.1223317"><time>2022-10-29T12:24:07.917</time></trkpt><trkpt lat="55.7647826" lon="49.1223708"><time>2022-10-29T12:24:09.913</time></trkpt><trkpt lat="55.7647074" lon="49.1224232"><time>2022-10-29T12:24:11.917</time></trkpt><trkpt lat="55.7646321" lon="49.1224849"><time>2022-10-29T12:24:13.923</time></trkpt><trkpt lat="55.7645633" lon="49.1225440"><time>2022-10-29T12:24:15.917</time></trkpt><trkpt lat="55.7644949" lon="49.1226033"><time>2022-10-29T12:24:17.923</time></trkpt><trkpt lat="55.7644277" lon="49.1226638"><time>2022-10-29T12:24:19.927</time></trkpt><trkpt lat="55.7643636" lon="49.1227309"><time>2022-10-29T12:24:21.917</time></trkpt><trkpt lat="55.7642985" lon="49.1227868"><time>2022-10-29T12:24:23.920</time></trkpt><trkpt lat="55.7642324" lon="49.1228428"><time>2022-10-29T12:24:25.923</time></trkpt><trkpt lat="55.7641787" lon="49.1229127"><time>2022-10-29T12:24:27.913</time></trkpt><trkpt lat="55.7641285" lon="49.1229562"><time>2022-10-29T12:24:30.917</time></trkpt><trkpt lat="55.7640673" lon="49.1230046"><time>2022-10-29T12:24:33.917</time></trkpt><trkpt lat="55.7640182" lon="49.1230612"><time>2022-10-29T12:24:35.917</time></trkpt><trkpt lat="55.7639631" lon="49.1231089"><time>2022-10-29T12:24:37.917</time></trkpt><trkpt lat="55.7639188" lon="49.1231517"><time>2022-10-29T12:24:39.920</time></trkpt><trkpt lat="55.7638720" lon="49.1231927"><time>2022-10-29T12:24:41.913</time></trkpt><trkpt lat="55.7638279" lon="49.1232282"><time>2022-10-29T12:24:43.920</time></trkpt><trkpt lat="55.7637753" lon="49.1232769"><time>2022-10-29T12:24:45.920</time></trkpt><trkpt lat="55.7637302" lon="49.1233254"><time>2022-10-29T12:24:47.927</time></trkpt><trkpt lat="55.7636861" lon="49.1233691"><time>2022-10-29T12:24:49.890</time></trkpt><trkpt lat="55.7636305" lon="49.1234194"><time>2022-10-29T12:24:52.887</time></trkpt><trkpt lat="55.7635818" lon="49.1234611"><time>2022-10-29T12:24:56.917</time></trkpt><trkpt lat="55.7635303" lon="49.1234897"><time>2022-10-29T12:24:59.917</time></trkpt><trkpt lat="55.7635042" lon="49.1235581"><time>2022-10-29T12:25:01.920</time></trkpt><trkpt lat="55.7635347" lon="49.1237257"><time>2022-10-29T12:25:03.917</time></trkpt><trkpt lat="55.7635556" lon="49.1238666"><time>2022-10-29T12:25:05.940</time></trkpt><trkpt lat="55.7635861" lon="49.1239707"><time>2022-10-29T12:25:07.927</time></trkpt><trkpt lat="55.7636258" lon="49.1240718"><time>2022-10-29T12:25:09.920</time></trkpt><trkpt lat="55.7636611" lon="49.1241742"><time>2022-10-29T12:25:11.917</time></trkpt><trkpt lat="55.7637149" lon="49.1242847"><time>2022-10-29T12:25:13.917</time></trkpt><trkpt lat="55.7637597" lon="49.1243926"><time>2022-10-29T12:25:15.913</time></trkpt><trkpt lat="55.7637973" lon="49.1244977"><time>2022-10-29T12:25:17.920</time></trkpt><trkpt lat="55.7638341" lon="49.1245929"><time>2022-10-29T12:25:19.920</time></trkpt><trkpt lat="55.7638728" lon="49.1246990"><time>2022-10-29T12:25:21.930</time></trkpt><trkpt lat="55.7639120" lon="49.1248140"><time>2022-10-29T12:25:23.917</time></trkpt><trkpt lat="55.7639480" lon="49.1249382"><time>2022-10-29T12:25:25.920</time></trkpt><trkpt lat="55.7639653" lon="49.1250493"><time>2022-10-29T12:25:27.920</time></trkpt><trkpt lat="55.7639527" lon="49.1251597"><time>2022-10-29T12:25:29.920</time></trkpt><trkpt lat="55.7639105" lon="49.1252577"><time>2022-10-29T12:25:31.917</time></trkpt><trkpt lat="55.7638456" lon="49.1253228"><time>2022-10-29T12:25:33.913</time></trkpt><trkpt lat="55.7637769" lon="49.1253613"><time>2022-10-29T12:25:35.910</time></trkpt><trkpt lat="55.7637231" lon="49.1253897"><time>2022-10-29T12:25:37.883</time></trkpt><trkpt lat="55.7636420" lon="49.1254210"><time>2022-10-29T12:25:39.887</time></trkpt><trkpt lat="55.7635706" lon="49.1254415"><time>2022-10-29T12:25:41.917</time></trkpt><trkpt lat="55.7634990" lon="49.1254567"><time>2022-10-29T12:25:43.917</time></trkpt><trkpt lat="55.7634283" lon="49.1254589"><time>2022-10-29T12:25:45.917</time></trkpt><trkpt lat="55.7633615" lon="49.1254310"><time>2022-10-29T12:25:47.927</time></trkpt><trkpt lat="55.7633005" lon="49.1253618"><time>2022-10-29T12:25:49.923</time></trkpt><trkpt lat="55.7632597" lon="49.1252547"><time>2022-10-29T12:25:51.883</time></trkpt><trkpt lat="55.7632379" lon="49.1251291"><time>2022-10-29T12:25:53.877</time></trkpt><trkpt lat="55.7632247" lon="49.1250096"><time>2022-10-29T12:25:55.920</time></trkpt><trkpt lat="55.7632110" lon="49.1248958"><time>2022-10-29T12:25:57.917</time></trkpt><trkpt lat="55.7631947" lon="49.1247708"><time>2022-10-29T12:25:59.920</time></trkpt><trkpt lat="55.7631768" lon="49.1246441"><time>2022-10-29T12:26:01.877</time></trkpt><trkpt lat="55.7631595" lon="49.1245126"><time>2022-10-29T12:26:03.917</time></trkpt><trkpt lat="55.7631421" lon="49.1243920"><time>2022-10-29T12:26:05.920</time></trkpt><trkpt lat="55.7631335" lon="49.1242420"><time>2022-10-29T12:26:07.930</time></trkpt><trkpt lat="55.7631175" lon="49.1241218"><time>2022-10-29T12:26:09.923</time></trkpt><trkpt lat="55.7631018" lon="49.1239883"><time>2022-10-29T12:26:11.933</time></trkpt><trkpt lat="55.7630825" lon="49.1238641"><time>2022-10-29T12:26:13.930</time></trkpt><trkpt lat="55.7630635" lon="49.1237305"><time>2022-10-29T12:26:15.917</time></trkpt><trkpt lat="55.7630476" lon="49.1236048"><time>2022-10-29T12:26:17.923</time></trkpt><trkpt lat="55.7630315" lon="49.1234949"><time>2022-10-29T12:26:19.923</time></trkpt><trkpt lat="55.7630139" lon="49.1233812"><time>2022-10-29T12:26:21.923</time></trkpt><trkpt lat="55.7629897" lon="49.1232525"><time>2022-10-29T12:26:23.927</time></trkpt><trkpt lat="55.7629586" lon="49.1231346"><time>2022-10-29T12:26:25.933</time></trkpt><trkpt lat="55.7629237" lon="49.1230158"><time>2022-10-29T12:26:27.927</time></trkpt><trkpt lat="55.7628847" lon="49.1228984"><time>2022-10-29T12:26:29.943</time></trkpt><trkpt lat="55.7628391" lon="49.1227989"><time>2022-10-29T12:26:31.920</time></trkpt><trkpt lat="55.7627732" lon="49.1227238"><time>2022-10-29T12:26:33.923</time></trkpt><trkpt lat="55.7626986" lon="49.1226850"><time>2022-10-29T12:26:35.913</time></trkpt><trkpt lat="55.7626268" lon="49.1226679"><time>2022-10-29T12:26:37.913</time></trkpt><trkpt lat="55.7625540" lon="49.1226758"><time>2022-10-29T12:26:39.967</time></trkpt><trkpt lat="55.7624812" lon="49.1226899"><time>2022-10-29T12:26:41.940</time></trkpt><trkpt lat="55.7624106" lon="49.1226999"><time>2022-10-29T12:26:43.887</time></trkpt><trkpt lat="55.7623412" lon="49.1227047"><time>2022-10-29T12:26:45.887</time></trkpt><trkpt lat="55.7622737" lon="49.1227158"><time>2022-10-29T12:26:47.913</time></trkpt><trkpt lat="55.7622060" lon="49.1227406"><time>2022-10-29T12:26:49.877</time></trkpt><trkpt lat="55.7621383" lon="49.1227634"><time>2022-10-29T12:26:51.877</time></trkpt><trkpt lat="55.7620667" lon="49.1227807"><time>2022-10-29T12:26:53.887</time></trkpt><trkpt lat="55.7619967" lon="49.1227985"><time>2022-10-29T12:26:55.920</time></trkpt><trkpt lat="55.7619266" lon="49.1228144"><time>2022-10-29T12:26:57.913</time></trkpt><trkpt lat="55.7618551" lon="49.1228342"><time>2022-10-29T12:26:59.907</time></trkpt><trkpt lat="55.7617812" lon="49.1228531"><time>2022-10-29T12:27:01.920</time></trkpt><trkpt lat="55.7617067" lon="49.1228644"><time>2022-10-29T12:27:03.917</time></trkpt><trkpt lat="55.7616294" lon="49.1228800"><time>2022-10-29T12:27:05.920</time></trkpt><trkpt lat="55.7615513" lon="49.1229033"><time>2022-10-29T12:27:07.913</time></trkpt><trkpt lat="55.7614724" lon="49.1229207"><time>2022-10-29T12:27:09.917</time></trkpt><trkpt lat="55.7613896" lon="49.1229315"><time>2022-10-29T12:27:11.920</time></trkpt><trkpt lat="55.7613155" lon="49.1229448"><time>2022-10-29T12:27:13.917</time></trkpt><trkpt lat="55.7612369" lon="49.1229627"><time>2022-10-29T12:27:15.917</time></trkpt><trkpt lat="55.7611562" lon="49.1229761"><time>2022-10-29T12:27:17.917</time></trkpt><trkpt lat="55.7610833" lon="49.1229832"><time>2022-10-29T12:27:19.913</time></trkpt><trkpt lat="55.7609924" lon="49.1230052"><time>2022-10-29T12:27:21.920</time></trkpt><trkpt lat="55.7609291" lon="49.1229611"><time>2022-10-29T12:27:23.900</time></trkpt><trkpt lat="55.7608946" lon="49.1229041"><time>2022-10-29T12:27:24.943</time></trkpt><trkpt lat="55.7608594" lon="49.1227678"><time>2022-10-29T12:27:26.927</time></trkpt><trkpt lat="55.7608481" lon="49.1226860"><time>2022-10-29T12:27:27.923</time></trkpt><trkpt lat="55.7608271" lon="49.1226143"><time>2022-10-29T12:27:28.893</time></trkpt><trkpt lat="55.7607810" lon="49.1224695"><time>2022-10-29T12:27:30.927</time></trkpt><trkpt lat="55.7607638" lon="49.1223895"><time>2022-10-29T12:27:31.917</time></trkpt><trkpt lat="55.7607415" lon="49.1223049"><time>2022-10-29T12:27:32.923</time></trkpt><trkpt lat="55.7607146" lon="49.1222322"><time>2022-10-29T12:27:33.917</time></trkpt><trkpt lat="55.7606879" lon="49.1221568"><time>2022-10-29T12:27:34.917</time></trkpt><trkpt lat="55.7606629" lon="49.1220777"><time>2022-10-29T12:27:35.917</time></trkpt><trkpt lat="55.7606381" lon="49.1219985"><time>2022-10-29T12:27:36.920</time></trkpt><trkpt lat="55.7606137" lon="49.1219234"><time>2022-10-29T12:27:37.917</time></trkpt><trkpt lat="55.7605921" lon="49.1218464"><time>2022-10-29T12:27:38.920</time></trkpt><trkpt lat="55.7605717" lon="49.1217749"><time>2022-10-29T12:27:39.930</time></trkpt><trkpt lat="55.7605471" lon="49.1217036"><time>2022-10-29T12:27:40.923</time></trkpt><trkpt lat="55.7605250" lon="49.1216330"><time>2022-10-29T12:27:41.917</time></trkpt><trkpt lat="55.7605019" lon="49.1215607"><time>2022-10-29T12:27:42.927</time></trkpt><trkpt lat="55.7604598" lon="49.1214257"><time>2022-10-29T12:27:44.893</time></trkpt><trkpt lat="55.7604397" lon="49.1213504"><time>2022-10-29T12:27:45.923</time></trkpt><trkpt lat="55.7604147" lon="49.1212757"><time>2022-10-29T12:27:46.920</time></trkpt><trkpt lat="55.7603943" lon="49.1211932"><time>2022-10-29T12:27:47.920</time></trkpt><trkpt lat="55.7603715" lon="49.1211123"><time>2022-10-29T12:27:48.927</time></trkpt><trkpt lat="55.7603472" lon="49.1210246"><time>2022-10-29T12:27:49.920</time></trkpt><trkpt lat="55.7603186" lon="49.1209475"><time>2022-10-29T12:27:50.927</time></trkpt><trkpt lat="55.7602891" lon="49.1208816"><time>2022-10-29T12:27:51.923</time></trkpt><trkpt lat="55.7602598" lon="49.1208110"><time>2022-10-29T12:27:52.923</time></trkpt><trkpt lat="55.7602280" lon="49.1207395"><time>2022-10-29T12:27:53.923</time></trkpt><trkpt lat="55.7601986" lon="49.1206607"><time>2022-10-29T12:27:54.927</time></trkpt><trkpt lat="55.7601706" lon="49.1205806"><time>2022-10-29T12:27:55.933</time></trkpt><trkpt lat="55.7601432" lon="49.1204968"><time>2022-10-29T12:27:56.923</time></trkpt><trkpt lat="55.7601186" lon="49.1204219"><time>2022-10-29T12:27:57.913</time></trkpt><trkpt lat="55.7600876" lon="49.1203438"><time>2022-10-29T12:27:58.927</time></trkpt><trkpt lat="55.7600603" lon="49.1202694"><time>2022-10-29T12:27:59.917</time></trkpt><trkpt lat="55.7600257" lon="49.1201984"><time>2022-10-29T12:28:00.920</time></trkpt><trkpt lat="55.7599929" lon="49.1201255"><time>2022-10-29T12:28:01.910</time></trkpt><trkpt lat="55.7599720" lon="49.1200460"><time>2022-10-29T12:28:02.920</time></trkpt><trkpt lat="55.7599446" lon="49.1199674"><time>2022-10-29T12:28:03.920</time></trkpt><trkpt lat="55.7599195" lon="49.1198913"><time>2022-10-29T12:28:04.920</time></trkpt><trkpt lat="55.7598788" lon="49.1197354"><time>2022-10-29T12:28:06.920</time></trkpt><trkpt lat="55.7598385" lon="49.1195864"><time>2022-10-29T12:28:08.923</time></trkpt><trkpt lat="55.7597998" lon="49.1194360"><time>2022-10-29T12:28:10.923</time></trkpt><trkpt lat="55.7597745" lon="49.1193591"><time>2022-10-29T12:28:11.923</time></trkpt><trkpt lat="55.7597557" lon="49.1192775"><time>2022-10-29T12:28:12.920</time></trkpt><trkpt lat="55.7597416" lon="49.1191881"><time>2022-10-29T12:28:13.923</time></trkpt><trkpt lat="55.7597221" lon="49.1191116"><time>2022-10-29T12:28:14.920</time></trkpt><trkpt lat="55.7596794" lon="49.1189783"><time>2022-10-29T12:28:16.927</time></trkpt><trkpt lat="55.7596417" lon="49.1188442"><time>2022-10-29T12:28:18.923</time></trkpt><trkpt lat="55.7596154" lon="49.1187310"><time>2022-10-29T12:28:20.917</time></trkpt><trkpt lat="55.7595783" lon="49.1186054"><time>2022-10-29T12:28:22.917</time></trkpt><trkpt lat="55.7595479" lon="49.1185003"><time>2022-10-29T12:28:24.880</time></trkpt><trkpt lat="55.7595195" lon="49.1183928"><time>2022-10-29T12:28:26.887</time></trkpt><trkpt lat="55.7595000" lon="49.1182715"><time>2022-10-29T12:28:28.900</time></trkpt><trkpt lat="55.7594914" lon="49.1181453"><time>2022-10-29T12:28:30.960</time></trkpt><trkpt lat="55.7594834" lon="49.1180533"><time>2022-10-29T12:28:32.903</time></trkpt><trkpt lat="55.7594727" lon="49.1179334"><time>2022-10-29T12:28:35.890</time></trkpt><trkpt lat="55.7594593" lon="49.1178124"><time>2022-10-29T12:28:37.920</time></trkpt><trkpt lat="55.7594401" lon="49.1176807"><time>2022-10-29T12:28:39.913</time></trkpt><trkpt lat="55.7594232" lon="49.1175562"><time>2022-10-29T12:28:41.907</time></trkpt><trkpt lat="55.7594101" lon="49.1174238"><time>2022-10-29T12:28:43.890</time></trkpt><trkpt lat="55.7593914" lon="49.1172765"><time>2022-10-29T12:28:45.903</time></trkpt><trkpt lat="55.7593756" lon="49.1171991"><time>2022-10-29T12:28:46.897</time></trkpt><trkpt lat="55.7593677" lon="49.1171181"><time>2022-10-29T12:28:47.917</time></trkpt><trkpt lat="55.7593530" lon="49.1170390"><time>2022-10-29T12:28:48.923</time></trkpt><trkpt lat="55.7593416" lon="49.1169590"><time>2022-10-29T12:28:49.913</time></trkpt><trkpt lat="55.7593301" lon="49.1168771"><time>2022-10-29T12:28:50.923</time></trkpt><trkpt lat="55.7593196" lon="49.1167981"><time>2022-10-29T12:28:51.923</time></trkpt><trkpt lat="55.7593097" lon="49.1167189"><time>2022-10-29T12:28:52.927</time></trkpt><trkpt lat="55.7592999" lon="49.1166316"><time>2022-10-29T12:28:53.927</time></trkpt><trkpt lat="55.7592883" lon="49.1165475"><time>2022-10-29T12:28:54.930</time></trkpt><trkpt lat="55.7592775" lon="49.1164678"><time>2022-10-29T12:28:55.927</time></trkpt><trkpt lat="55.7592684" lon="49.1163828"><time>2022-10-29T12:28:56.927</time></trkpt><trkpt lat="55.7592584" lon="49.1162959"><time>2022-10-29T12:28:57.923</time></trkpt><trkpt lat="55.7592462" lon="49.1162075"><time>2022-10-29T12:28:58.920</time></trkpt><trkpt lat="55.7592355" lon="49.1161270"><time>2022-10-29T12:28:59.920</time></trkpt><trkpt lat="55.7592262" lon="49.1160486"><time>2022-10-29T12:29:00.917</time></trkpt><trkpt lat="55.7592134" lon="49.1159665"><time>2022-10-29T12:29:01.927</time></trkpt><trkpt lat="55.7592015" lon="49.1158883"><time>2022-10-29T12:29:02.923</time></trkpt><trkpt lat="55.7591830" lon="49.1157399"><time>2022-10-29T12:29:04.920</time></trkpt><trkpt lat="55.7591589" lon="49.1155883"><time>2022-10-29T12:29:06.920</time></trkpt><trkpt lat="55.7591376" lon="49.1154470"><time>2022-10-29T12:29:08.920</time></trkpt><trkpt lat="55.7591198" lon="49.1153093"><time>2022-10-29T12:29:10.937</time></trkpt><trkpt lat="55.7591057" lon="49.1151890"><time>2022-10-29T12:29:12.923</time></trkpt><trkpt lat="55.7591169" lon="49.1150965"><time>2022-10-29T12:29:14.910</time></trkpt><trkpt lat="55.7591342" lon="49.1150228"><time>2022-10-29T12:29:16.913</time></trkpt><trkpt lat="55.7591333" lon="49.1149187"><time>2022-10-29T12:29:19.887</time></trkpt><trkpt lat="55.7591164" lon="49.1148355"><time>2022-10-29T12:29:22.893</time></trkpt><trkpt lat="55.7591015" lon="49.1147420"><time>2022-10-29T12:29:52.910</time></trkpt><trkpt lat="55.7590927" lon="49.1146544"><time>2022-10-29T12:29:54.907</time></trkpt><trkpt lat="55.7590822" lon="49.1145692"><time>2022-10-29T12:29:56.907</time></trkpt><trkpt lat="55.7590688" lon="49.1144832"><time>2022-10-29T12:29:58.923</time></trkpt><trkpt lat="55.7590506" lon="49.1143965"><time>2022-10-29T12:30:00.917</time></trkpt><trkpt lat="55.7590227" lon="49.1143077"><time>2022-10-29T12:30:02.923</time></trkpt><trkpt lat="55.7589933" lon="49.1142113"><time>2022-10-29T12:30:04.917</time></trkpt><trkpt lat="55.7589776" lon="49.1141023"><time>2022-10-29T12:30:06.923</time></trkpt><trkpt lat="55.7589588" lon="49.1139888"><time>2022-10-29T12:30:08.920</time></trkpt><trkpt lat="55.7589453" lon="49.1138784"><time>2022-10-29T12:30:10.920</time></trkpt><trkpt lat="55.7589360" lon="49.1137888"><time>2022-10-29T12:30:12.923</time></trkpt><trkpt lat="55.7589195" lon="49.1136626"><time>2022-10-29T12:30:14.923</time></trkpt><trkpt lat="55.7589059" lon="49.1135135"><time>2022-10-29T12:30:16.943</time></trkpt><trkpt lat="55.7588954" lon="49.1133604"><time>2022-10-29T12:30:18.927</time></trkpt><trkpt lat="55.7588857" lon="49.1132058"><time>2022-10-29T12:30:20.920</time></trkpt><trkpt lat="55.7588746" lon="49.1130631"><time>2022-10-29T12:30:22.917</time></trkpt><trkpt lat="55.7588628" lon="49.1129271"><time>2022-10-29T12:30:24.930</time></trkpt><trkpt lat="55.7588529" lon="49.1127849"><time>2022-10-29T12:30:26.963</time></trkpt><trkpt lat="55.7588514" lon="49.1127370"><time>2022-10-29T12:30:28.097</time></trkpt><trkpt lat="55.7588442" lon="49.1126562"><time>2022-10-29T12:30:28.897</time></trkpt><trkpt lat="55.7588376" lon="49.1125697"><time>2022-10-29T12:30:29.897</time></trkpt><trkpt lat="55.7588141" lon="49.1124190"><time>2022-10-29T12:30:31.900</time></trkpt><trkpt lat="55.7588020" lon="49.1122585"><time>2022-10-29T12:30:33.910</time></trkpt><trkpt lat="55.7587954" lon="49.1121754"><time>2022-10-29T12:30:34.903</time></trkpt><trkpt lat="55.7587905" lon="49.1120902"><time>2022-10-29T12:30:35.913</time></trkpt><trkpt lat="55.7587857" lon="49.1120026"><time>2022-10-29T12:30:36.907</time></trkpt><trkpt lat="55.7587764" lon="49.1119179"><time>2022-10-29T12:30:37.877</time></trkpt><trkpt lat="55.7587720" lon="49.1118335"><time>2022-10-29T12:30:38.887</time></trkpt><trkpt lat="55.7587655" lon="49.1117461"><time>2022-10-29T12:30:39.883</time></trkpt><trkpt lat="55.7587520" lon="49.1115899"><time>2022-10-29T12:30:41.883</time></trkpt><trkpt lat="55.7587418" lon="49.1115114"><time>2022-10-29T12:30:42.887</time></trkpt><trkpt lat="55.7587368" lon="49.1114260"><time>2022-10-29T12:30:43.887</time></trkpt><trkpt lat="55.7587277" lon="49.1112657"><time>2022-10-29T12:30:45.953</time></trkpt><trkpt lat="55.7587230" lon="49.1112204"><time>2022-10-29T12:30:47.100</time></trkpt><trkpt lat="55.7587128" lon="49.1111370"><time>2022-10-29T12:30:48.910</time></trkpt><trkpt lat="55.7587038" lon="49.1110215"><time>2022-10-29T12:30:51.907</time></trkpt><trkpt lat="55.7586955" lon="49.1109161"><time>2022-10-29T12:30:53.910</time></trkpt><trkpt lat="55.7586844" lon="49.1107966"><time>2022-10-29T12:30:55.917</time></trkpt><trkpt lat="55.7586729" lon="49.1106819"><time>2022-10-29T12:30:57.917</time></trkpt><trkpt lat="55.7586624" lon="49.1105728"><time>2022-10-29T12:30:59.883</time></trkpt><trkpt lat="55.7586551" lon="49.1104710"><time>2022-10-29T12:31:01.913</time></trkpt><trkpt lat="55.7586563" lon="49.1104446"><time>2022-10-29T12:31:03.047</time></trkpt><trkpt lat="55.7586500" lon="49.1103241"><time>2022-10-29T12:31:04.917</time></trkpt><trkpt lat="55.7586408" lon="49.1102008"><time>2022-10-29T12:31:06.917</time></trkpt><trkpt lat="55.7586336" lon="49.1100956"><time>2022-10-29T12:31:08.917</time></trkpt><trkpt lat="55.7586262" lon="49.1099958"><time>2022-10-29T12:31:10.933</time></trkpt><trkpt lat="55.7586262" lon="49.1099958"><time>2022-10-29T12:31:10.983</time></trkpt><trkpt lat="55.7586145" lon="49.1098959"><time>2022-10-29T12:31:13.920</time></trkpt><trkpt lat="55.7586119" lon="49.1098831"><time>2022-10-29T12:31:15.060</time></trkpt><trkpt lat="55.7586035" lon="49.1097761"><time>2022-10-29T12:31:17.910</time></trkpt><trkpt lat="55.7585935" lon="49.1096981"><time>2022-10-29T12:35:08.917</time></trkpt><trkpt lat="55.7585834" lon="49.1097887"><time>2022-10-29T12:35:31.933</time></trkpt><trkpt lat="55.7586028" lon="49.1098937"><time>2022-10-29T12:35:33.930</time></trkpt><trkpt lat="55.7586128" lon="49.1099968"><time>2022-10-29T12:35:35.923</time></trkpt><trkpt lat="55.7586202" lon="49.1101186"><time>2022-10-29T12:35:37.927</time></trkpt><trkpt lat="55.7586288" lon="49.1102495"><time>2022-10-29T12:35:39.930</time></trkpt><trkpt lat="55.7586354" lon="49.1103594"><time>2022-10-29T12:35:41.927</time></trkpt><trkpt lat="55.7586439" lon="49.1104830"><time>2022-10-29T12:35:43.923</time></trkpt><trkpt lat="55.7586556" lon="49.1106155"><time>2022-10-29T12:35:45.927</time></trkpt><trkpt lat="55.7586708" lon="49.1107476"><time>2022-10-29T12:35:47.910</time></trkpt><trkpt lat="55.7586870" lon="49.1108738"><time>2022-10-29T12:35:49.927</time></trkpt><trkpt lat="55.7586989" lon="49.1110019"><time>2022-10-29T12:35:51.927</time></trkpt><trkpt lat="55.7587090" lon="49.1111392"><time>2022-10-29T12:35:53.927</time></trkpt><trkpt lat="55.7587221" lon="49.1112716"><time>2022-10-29T12:35:55.930</time></trkpt><trkpt lat="55.7587341" lon="49.1114222"><time>2022-10-29T12:35:57.927</time></trkpt><trkpt lat="55.7587417" lon="49.1115732"><time>2022-10-29T12:35:59.917</time></trkpt><trkpt lat="55.7587483" lon="49.1117269"><time>2022-10-29T12:36:01.887</time></trkpt><trkpt lat="55.7587605" lon="49.1118676"><time>2022-10-29T12:36:03.893</time></trkpt><trkpt lat="55.7587796" lon="49.1120304"><time>2022-10-29T12:36:05.920</time></trkpt><trkpt lat="55.7587860" lon="49.1121680"><time>2022-10-29T12:36:07.917</time></trkpt><trkpt lat="55.7587951" lon="49.1123118"><time>2022-10-29T12:36:09.913</time></trkpt><trkpt lat="55.7588115" lon="49.1124599"><time>2022-10-29T12:36:11.933</time></trkpt><trkpt lat="55.7588281" lon="49.1126051"><time>2022-10-29T12:36:13.927</time></trkpt><trkpt lat="55.7588330" lon="49.1126850"><time>2022-10-29T12:36:14.933</time></trkpt><trkpt lat="55.7588495" lon="49.1128358"><time>2022-10-29T12:36:16.923</time></trkpt><trkpt lat="55.7588689" lon="49.1129803"><time>2022-10-29T12:36:18.937</time></trkpt><trkpt lat="55.7588770" lon="49.1131418"><time>2022-10-29T12:36:20.930</time></trkpt><trkpt lat="55.7588881" lon="49.1132924"><time>2022-10-29T12:36:22.930</time></trkpt><trkpt lat="55.7588949" lon="49.1133751"><time>2022-10-29T12:36:23.933</time></trkpt><trkpt lat="55.7589081" lon="49.1135202"><time>2022-10-29T12:36:25.883</time></trkpt><trkpt lat="55.7589237" lon="49.1136699"><time>2022-10-29T12:36:27.877</time></trkpt><trkpt lat="55.7589414" lon="49.1138203"><time>2022-10-29T12:36:29.927</time></trkpt><trkpt lat="55.7589499" lon="49.1139103"><time>2022-10-29T12:36:30.887</time></trkpt><trkpt lat="55.7589593" lon="49.1139939"><time>2022-10-29T12:36:31.887</time></trkpt><trkpt lat="55.7589621" lon="49.1140813"><time>2022-10-29T12:36:32.887</time></trkpt><trkpt lat="55.7589686" lon="49.1141773"><time>2022-10-29T12:36:33.890</time></trkpt><trkpt lat="55.7589743" lon="49.1142700"><time>2022-10-29T12:36:34.923</time></trkpt><trkpt lat="55.7589798" lon="49.1143726"><time>2022-10-29T12:36:35.913</time></trkpt><trkpt lat="55.7589840" lon="49.1144613"><time>2022-10-29T12:36:36.913</time></trkpt><trkpt lat="55.7589905" lon="49.1145532"><time>2022-10-29T12:36:37.920</time></trkpt><trkpt lat="55.7589955" lon="49.1146416"><time>2022-10-29T12:36:38.880</time></trkpt><trkpt lat="55.7589980" lon="49.1147321"><time>2022-10-29T12:36:39.917</time></trkpt><trkpt lat="55.7590099" lon="49.1148108"><time>2022-10-29T12:36:40.943</time></trkpt><trkpt lat="55.7590191" lon="49.1149075"><time>2022-10-29T12:36:41.917</time></trkpt><trkpt lat="55.7590289" lon="49.1150042"><time>2022-10-29T12:36:42.927</time></trkpt><trkpt lat="55.7590443" lon="49.1150996"><time>2022-10-29T12:36:43.927</time></trkpt><trkpt lat="55.7590541" lon="49.1151954"><time>2022-10-29T12:36:44.920</time></trkpt><trkpt lat="55.7590732" lon="49.1152891"><time>2022-10-29T12:36:45.917</time></trkpt><trkpt lat="55.7590883" lon="49.1153886"><time>2022-10-29T12:36:46.917</time></trkpt><trkpt lat="55.7591051" lon="49.1154836"><time>2022-10-29T12:36:47.920</time></trkpt><trkpt lat="55.7591214" lon="49.1155825"><time>2022-10-29T12:36:48.927</time></trkpt><trkpt lat="55.7591327" lon="49.1156826"><time>2022-10-29T12:36:49.917</time></trkpt><trkpt lat="55.7591450" lon="49.1157782"><time>2022-10-29T12:36:50.927</time></trkpt><trkpt lat="55.7591577" lon="49.1158750"><time>2022-10-29T12:36:51.927</time></trkpt><trkpt lat="55.7591684" lon="49.1159747"><time>2022-10-29T12:36:52.927</time></trkpt><trkpt lat="55.7591834" lon="49.1160747"><time>2022-10-29T12:36:53.920</time></trkpt><trkpt lat="55.7592012" lon="49.1161818"><time>2022-10-29T12:36:54.917</time></trkpt><trkpt lat="55.7592147" lon="49.1162869"><time>2022-10-29T12:36:55.920</time></trkpt><trkpt lat="55.7592318" lon="49.1163922"><time>2022-10-29T12:36:56.927</time></trkpt><trkpt lat="55.7592407" lon="49.1164980"><time>2022-10-29T12:36:57.933</time></trkpt><trkpt lat="55.7592564" lon="49.1165999"><time>2022-10-29T12:36:58.917</time></trkpt><trkpt lat="55.7592627" lon="49.1166982"><time>2022-10-29T12:36:59.927</time></trkpt><trkpt lat="55.7592716" lon="49.1167923"><time>2022-10-29T12:37:00.883</time></trkpt><trkpt lat="55.7592850" lon="49.1168935"><time>2022-10-29T12:37:01.880</time></trkpt><trkpt lat="55.7592994" lon="49.1169892"><time>2022-10-29T12:37:02.887</time></trkpt><trkpt lat="55.7593092" lon="49.1170870"><time>2022-10-29T12:37:03.893</time></trkpt><trkpt lat="55.7593221" lon="49.1171731"><time>2022-10-29T12:37:04.887</time></trkpt><trkpt lat="55.7593383" lon="49.1172614"><time>2022-10-29T12:37:05.890</time></trkpt><trkpt lat="55.7593534" lon="49.1173571"><time>2022-10-29T12:37:06.923</time></trkpt><trkpt lat="55.7593640" lon="49.1174492"><time>2022-10-29T12:37:07.927</time></trkpt><trkpt lat="55.7593773" lon="49.1175266"><time>2022-10-29T12:37:08.927</time></trkpt><trkpt lat="55.7593902" lon="49.1176101"><time>2022-10-29T12:37:09.927</time></trkpt><trkpt lat="55.7594046" lon="49.1176968"><time>2022-10-29T12:37:10.943</time></trkpt><trkpt lat="55.7594149" lon="49.1177792"><time>2022-10-29T12:37:11.920</time></trkpt><trkpt lat="55.7594294" lon="49.1178579"><time>2022-10-29T12:37:12.927</time></trkpt><trkpt lat="55.7594507" lon="49.1180063"><time>2022-10-29T12:37:14.927</time></trkpt><trkpt lat="55.7594388" lon="49.1181270"><time>2022-10-29T12:37:16.927</time></trkpt><trkpt lat="55.7593760" lon="49.1181850"><time>2022-10-29T12:37:18.927</time></trkpt><trkpt lat="55.7593022" lon="49.1181902"><time>2022-10-29T12:37:20.927</time></trkpt><trkpt lat="55.7592241" lon="49.1181884"><time>2022-10-29T12:37:22.923</time></trkpt><trkpt lat="55.7591494" lon="49.1181807"><time>2022-10-29T12:37:24.923</time></trkpt><trkpt lat="55.7590751" lon="49.1181801"><time>2022-10-29T12:37:26.917</time></trkpt><trkpt lat="55.7590017" lon="49.1181775"><time>2022-10-29T12:37:28.927</time></trkpt><trkpt lat="55.7589243" lon="49.1181708"><time>2022-10-29T12:37:30.923</time></trkpt><trkpt lat="55.7588429" lon="49.1181650"><time>2022-10-29T12:37:32.910</time></trkpt><trkpt lat="55.7587578" lon="49.1181640"><time>2022-10-29T12:37:34.907</time></trkpt><trkpt lat="55.7586748" lon="49.1181634"><time>2022-10-29T12:37:36.907</time></trkpt><trkpt lat="55.7585937" lon="49.1181656"><time>2022-10-29T12:37:38.917</time></trkpt><trkpt lat="55.7585181" lon="49.1181660"><time>2022-10-29T12:37:40.937</time></trkpt><trkpt lat="55.7584396" lon="49.1181582"><time>2022-10-29T12:37:42.933</time></trkpt><trkpt lat="55.7583651" lon="49.1181534"><time>2022-10-29T12:37:44.930</time></trkpt><trkpt lat="55.7582909" lon="49.1181538"><time>2022-10-29T12:37:46.927</time></trkpt><trkpt lat="55.7582173" lon="49.1181555"><time>2022-10-29T12:37:48.920</time></trkpt><trkpt lat="55.7581440" lon="49.1181569"><time>2022-10-29T12:37:50.930</time></trkpt><trkpt lat="55.7580735" lon="49.1181588"><time>2022-10-29T12:37:52.927</time></trkpt><trkpt lat="55.7580014" lon="49.1181560"><time>2022-10-29T12:37:54.927</time></trkpt><trkpt lat="55.7579311" lon="49.1181572"><time>2022-10-29T12:37:56.930</time></trkpt><trkpt lat="55.7578596" lon="49.1181681"><time>2022-10-29T12:37:58.933</time></trkpt><trkpt lat="55.7577868" lon="49.1181786"><time>2022-10-29T12:38:00.927</time></trkpt><trkpt lat="55.7577159" lon="49.1181840"><time>2022-10-29T12:38:02.927</time></trkpt><trkpt lat="55.7576406" lon="49.1181856"><time>2022-10-29T12:38:04.923</time></trkpt><trkpt lat="55.7575685" lon="49.1181963"><time>2022-10-29T12:38:06.920</time></trkpt><trkpt lat="55.7575032" lon="49.1182234"><time>2022-10-29T12:38:08.917</time></trkpt><trkpt lat="55.7574756" lon="49.1183058"><time>2022-10-29T12:38:10.917</time></trkpt><trkpt lat="55.7574701" lon="49.1184113"><time>2022-10-29T12:38:12.927</time></trkpt><trkpt lat="55.7574610" lon="49.1185338"><time>2022-10-29T12:38:14.927</time></trkpt><trkpt lat="55.7574529" lon="49.1186514"><time>2022-10-29T12:38:16.923</time></trkpt><trkpt lat="55.7574433" lon="49.1187559"><time>2022-10-29T12:38:18.917</time></trkpt><trkpt lat="55.7574176" lon="49.1188617"><time>2022-10-29T12:38:20.923</time></trkpt><trkpt lat="55.7573681" lon="49.1189465"><time>2022-10-29T12:38:22.920</time></trkpt><trkpt lat="55.7572983" lon="49.1189925"><time>2022-10-29T12:38:24.920</time></trkpt><trkpt lat="55.7572316" lon="49.1189958"><time>2022-10-29T12:38:26.927</time></trkpt><trkpt lat="55.7571636" lon="49.1189831"><time>2022-10-29T12:38:28.920</time></trkpt><trkpt lat="55.7570945" lon="49.1189745"><time>2022-10-29T12:38:30.927</time></trkpt><trkpt lat="55.7570222" lon="49.1189598"><time>2022-10-29T12:38:32.930</time></trkpt><trkpt lat="55.7569503" lon="49.1189604"><time>2022-10-29T12:38:34.927</time></trkpt><trkpt lat="55.7568881" lon="49.1190009"><time>2022-10-29T12:38:36.923</time></trkpt><trkpt lat="55.7568336" lon="49.1190890"><time>2022-10-29T12:38:38.920</time></trkpt><trkpt lat="55.7567889" lon="49.1191972"><time>2022-10-29T12:38:40.927</time></trkpt><trkpt lat="55.7567564" lon="49.1193088"><time>2022-10-29T12:38:42.917</time></trkpt><trkpt lat="55.7567377" lon="49.1194213"><time>2022-10-29T12:38:44.920</time></trkpt><trkpt lat="55.7567305" lon="49.1195288"><time>2022-10-29T12:38:46.923</time></trkpt><trkpt lat="55.7567273" lon="49.1196350"><time>2022-10-29T12:38:48.927</time></trkpt><trkpt lat="55.7567255" lon="49.1197271"><time>2022-10-29T12:38:50.930</time></trkpt><trkpt lat="55.7567300" lon="49.1197725"><time>2022-10-29T12:38:52.037</time></trkpt><trkpt lat="55.7567329" lon="49.1198759"><time>2022-10-29T12:38:53.937</time></trkpt><trkpt lat="55.7567331" lon="49.1199759"><time>2022-10-29T12:38:55.920</time></trkpt><trkpt lat="55.7567305" lon="49.1200749"><time>2022-10-29T12:38:57.923</time></trkpt><trkpt lat="55.7567263" lon="49.1201572"><time>2022-10-29T12:38:59.920</time></trkpt><trkpt lat="55.7567233" lon="49.1202657"><time>2022-10-29T12:39:01.923</time></trkpt><trkpt lat="55.7567211" lon="49.1203794"><time>2022-10-29T12:39:03.887</time></trkpt><trkpt lat="55.7567172" lon="49.1204996"><time>2022-10-29T12:39:05.887</time></trkpt><trkpt lat="55.7567104" lon="49.1206160"><time>2022-10-29T12:39:07.927</time></trkpt><trkpt lat="55.7567018" lon="49.1207101"><time>2022-10-29T12:39:09.917</time></trkpt><trkpt lat="55.7566909" lon="49.1208114"><time>2022-10-29T12:39:11.920</time></trkpt><trkpt lat="55.7566848" lon="49.1209279"><time>2022-10-29T12:39:13.920</time></trkpt><trkpt lat="55.7566815" lon="49.1210679"><time>2022-10-29T12:39:15.910</time></trkpt><trkpt lat="55.7566762" lon="49.1211978"><time>2022-10-29T12:39:17.920</time></trkpt><trkpt lat="55.7566716" lon="49.1213218"><time>2022-10-29T12:39:19.913</time></trkpt><trkpt lat="55.7566678" lon="49.1214396"><time>2022-10-29T12:39:21.930</time></trkpt><trkpt lat="55.7566662" lon="49.1215630"><time>2022-10-29T12:39:23.933</time></trkpt><trkpt lat="55.7566661" lon="49.1216830"><time>2022-10-29T12:39:25.923</time></trkpt><trkpt lat="55.7566647" lon="49.1218103"><time>2022-10-29T12:39:27.937</time></trkpt><trkpt lat="55.7566606" lon="49.1219388"><time>2022-10-29T12:39:29.877</time></trkpt><trkpt lat="55.7566579" lon="49.1220676"><time>2022-10-29T12:39:31.923</time></trkpt><trkpt lat="55.7566570" lon="49.1221841"><time>2022-10-29T12:39:33.923</time></trkpt><trkpt lat="55.7566678" lon="49.1221982"><time>2022-10-29T12:39:35.047</time></trkpt><trkpt lat="55.7566667" lon="49.1223024"><time>2022-10-29T12:39:36.910</time></trkpt><trkpt lat="55.7566636" lon="49.1224358"><time>2022-10-29T12:39:38.907</time></trkpt><trkpt lat="55.7566597" lon="49.1225585"><time>2022-10-29T12:39:40.910</time></trkpt><trkpt lat="55.7566581" lon="49.1226820"><time>2022-10-29T12:39:42.903</time></trkpt><trkpt lat="55.7566581" lon="49.1227929"><time>2022-10-29T12:39:44.927</time></trkpt><trkpt lat="55.7566572" lon="49.1228334"><time>2022-10-29T12:39:46.033</time></trkpt><trkpt lat="55.7566626" lon="49.1229577"><time>2022-10-29T12:39:47.907</time></trkpt><trkpt lat="55.7566654" lon="49.1230466"><time>2022-10-29T12:39:49.890</time></trkpt><trkpt lat="55.7566347" lon="49.1231245"><time>2022-10-29T12:39:53.887</time></trkpt><trkpt lat="55.7565885" lon="49.1230856"><time>2022-10-29T12:39:57.890</time></trkpt><trkpt lat="55.7565379" lon="49.1230571"><time>2022-10-29T12:40:00.930</time></trkpt><trkpt lat="55.7565240" lon="49.1230170"><time>2022-10-29T12:40:02.050</time></trkpt><trkpt lat="55.7564823" lon="49.1229839"><time>2022-10-29T12:40:07.903</time></trkpt><trkpt lat="55.7564338" lon="49.1229275"><time>2022-10-29T12:40:10.917</time></trkpt><trkpt lat="55.7563955" lon="49.1228615"><time>2022-10-29T12:40:13.913</time></trkpt><trkpt lat="55.7563554" lon="49.1227925"><time>2022-10-29T12:40:16.907</time></trkpt><trkpt lat="55.7563192" lon="49.1227426"><time>2022-10-29T12:40:18.907</time></trkpt><trkpt lat="55.7562813" lon="49.1226736"><time>2022-10-29T12:40:20.913</time></trkpt><trkpt lat="55.7562308" lon="49.1226214"><time>2022-10-29T12:40:22.903</time></trkpt><trkpt lat="55.7561688" lon="49.1226216"><time>2022-10-29T12:40:24.903</time></trkpt><trkpt lat="55.7561479" lon="49.1226196"><time>2022-10-29T12:40:26.020</time></trkpt><trkpt lat="55.7560959" lon="49.1226231"><time>2022-10-29T12:40:27.890</time></trkpt><trkpt lat="55.7560397" lon="49.1226217"><time>2022-10-29T12:40:29.880</time></trkpt><trkpt lat="55.7559856" lon="49.1226158"><time>2022-10-29T12:40:32.887</time></trkpt><trkpt lat="55.7559461" lon="49.1225679"><time>2022-10-29T12:40:36.887</time></trkpt><trkpt lat="55.7558916" lon="49.1225218"><time>2022-10-29T12:40:39.917</time></trkpt><trkpt lat="55.7558916" lon="49.1225218"><time>2022-10-29T12:40:39.987</time></trkpt><trkpt lat="55.7558424" lon="49.1225594"><time>2022-10-29T12:40:42.943</time></trkpt><trkpt lat="55.7558383" lon="49.1225638"><time>2022-10-29T12:40:43.857</time></trkpt><trkpt lat="55.7557920" lon="49.1226059"><time>2022-10-29T12:41:23.920</time></trkpt><trkpt lat="55.7557219" lon="49.1226075"><time>2022-10-29T12:41:26.923</time></trkpt><trkpt lat="55.7556479" lon="49.1226139"><time>2022-10-29T12:41:29.923</time></trkpt><trkpt lat="55.7555999" lon="49.1226092"><time>2022-10-29T12:41:31.917</time></trkpt><trkpt lat="55.7555422" lon="49.1225983"><time>2022-10-29T12:41:33.913</time></trkpt><trkpt lat="55.7554960" lon="49.1225909"><time>2022-10-29T12:41:35.923</time></trkpt><trkpt lat="55.7554444" lon="49.1225775"><time>2022-10-29T12:41:37.923</time></trkpt><trkpt lat="55.7553886" lon="49.1225731"><time>2022-10-29T12:41:39.920</time></trkpt><trkpt lat="55.7553331" lon="49.1225702"><time>2022-10-29T12:41:41.923</time></trkpt><trkpt lat="55.7552801" lon="49.1225673"><time>2022-10-29T12:41:43.913</time></trkpt><trkpt lat="55.7552373" lon="49.1224984"><time>2022-10-29T12:41:46.927</time></trkpt><trkpt lat="55.7552311" lon="49.1224082"><time>2022-10-29T12:41:50.917</time></trkpt><trkpt lat="55.7552280" lon="49.1223068"><time>2022-10-29T12:41:54.917</time></trkpt><trkpt lat="55.7552028" lon="49.1222303"><time>2022-10-29T12:41:56.920</time></trkpt><trkpt lat="55.7551650" lon="49.1221620"><time>2022-10-29T12:41:58.913</time></trkpt><trkpt lat="55.7551224" lon="49.1220903"><time>2022-10-29T12:42:01.933</time></trkpt><trkpt lat="55.7551023" lon="49.1219931"><time>2022-10-29T12:42:05.893</time></trkpt><trkpt lat="55.7551157" lon="49.1219170"><time>2022-10-29T12:42:11.917</time></trkpt><trkpt lat="55.7551320" lon="49.1218403"><time>2022-10-29T12:42:37.923</time></trkpt><trkpt lat="55.7551441" lon="49.1217615"><time>2022-10-29T12:42:39.917</time></trkpt><trkpt lat="55.7551545" lon="49.1216592"><time>2022-10-29T12:42:41.920</time></trkpt><trkpt lat="55.7551573" lon="49.1215606"><time>2022-10-29T12:42:43.930</time></trkpt><trkpt lat="55.7551571" lon="49.1214709"><time>2022-10-29T12:42:45.920</time></trkpt><trkpt lat="55.7551535" lon="49.1213765"><time>2022-10-29T12:42:48.920</time></trkpt><trkpt lat="55.7551532" lon="49.1212710"><time>2022-10-29T12:42:51.923</time></trkpt><trkpt lat="55.7551623" lon="49.1211653"><time>2022-10-29T12:42:54.930</time></trkpt><trkpt lat="55.7551603" lon="49.1210573"><time>2022-10-29T12:42:57.927</time></trkpt><trkpt lat="55.7551617" lon="49.1209777"><time>2022-10-29T12:42:59.920</time></trkpt><trkpt lat="55.7551633" lon="49.1208651"><time>2022-10-29T12:43:02.920</time></trkpt><trkpt lat="55.7551848" lon="49.1207925"><time>2022-10-29T12:43:09.920</time></trkpt><trkpt lat="55.7552047" lon="49.1207149"><time>2022-10-29T12:43:14.923</time></trkpt><trkpt lat="55.7552089" lon="49.1206117"><time>2022-10-29T12:43:18.923</time></trkpt><trkpt lat="55.7552136" lon="49.1205131"><time>2022-10-29T12:43:22.947</time></trkpt><trkpt lat="55.7552215" lon="49.1204108"><time>2022-10-29T12:43:26.937</time></trkpt><trkpt lat="55.7552228" lon="49.1203173"><time>2022-10-29T12:43:30.917</time></trkpt><trkpt lat="55.7552314" lon="49.1202251"><time>2022-10-29T12:43:34.950</time></trkpt><trkpt lat="55.7552202" lon="49.1201260"><time>2022-10-29T12:43:39.923</time></trkpt><trkpt lat="55.7552255" lon="49.1200466"><time>2022-10-29T12:43:43.927</time></trkpt><trkpt lat="55.7552292" lon="49.1199659"><time>2022-10-29T12:43:47.930</time></trkpt><trkpt lat="55.7552252" lon="49.1198746"><time>2022-10-29T12:43:52.927</time></trkpt><trkpt lat="55.7552107" lon="49.1197971"><time>2022-10-29T12:43:56.923</time></trkpt><trkpt lat="55.7551949" lon="49.1197198"><time>2022-10-29T12:44:00.937</time></trkpt><trkpt lat="55.7551952" lon="49.1196239"><time>2022-10-29T12:44:05.887</time></trkpt><trkpt lat="55.7551825" lon="49.1195287"><time>2022-10-29T12:44:10.917</time></trkpt><trkpt lat="55.7551750" lon="49.1194437"><time>2022-10-29T12:44:14.920</time></trkpt><trkpt lat="55.7551688" lon="49.1193565"><time>2022-10-29T12:44:19.927</time></trkpt><trkpt lat="55.7551259" lon="49.1193844"><time>2022-10-29T12:44:33.900</time></trkpt><trkpt lat="55.7551219" lon="49.1193009"><time>2022-10-29T12:44:41.873</time></trkpt><trkpt lat="55.7551220" lon="49.1192044"><time>2022-10-29T12:44:46.873</time></trkpt><trkpt lat="55.7551233" lon="49.1191160"><time>2022-10-29T12:44:50.920</time></trkpt><trkpt lat="55.7551305" lon="49.1190282"><time>2022-10-29T12:44:55.927</time></trkpt><trkpt lat="55.7551465" lon="49.1189484"><time>2022-10-29T12:45:02.893</time></trkpt><trkpt lat="55.7551506" lon="49.1188690"><time>2022-10-29T12:45:06.887</time></trkpt><trkpt lat="55.7551324" lon="49.1187788"><time>2022-10-29T12:45:10.923</time></trkpt><trkpt lat="55.7551083" lon="49.1186942"><time>2022-10-29T12:45:15.927</time></trkpt><trkpt lat="55.7551026" lon="49.1186059"><time>2022-10-29T12:45:19.887</time></trkpt><trkpt lat="55.7551002" lon="49.1185179"><time>2022-10-29T12:45:23.887</time></trkpt><trkpt lat="55.7551107" lon="49.1184196"><time>2022-10-29T12:45:28.890</time></trkpt><trkpt lat="55.7551169" lon="49.1183256"><time>2022-10-29T12:45:33.887</time></trkpt><trkpt lat="55.7551276" lon="49.1182333"><time>2022-10-29T12:45:38.920</time></trkpt><trkpt lat="55.7551397" lon="49.1181515"><time>2022-10-29T12:45:42.937</time></trkpt><trkpt lat="55.7551499" lon="49.1180738"><time>2022-10-29T12:45:46.920</time></trkpt><trkpt lat="55.7551695" lon="49.1179954"><time>2022-10-29T12:45:51.927</time></trkpt><trkpt lat="55.7552110" lon="49.1179450"><time>2022-10-29T12:46:16.920</time></trkpt><trkpt lat="55.7552538" lon="49.1178964"><time>2022-10-29T12:46:19.913</time></trkpt><trkpt lat="55.7553113" lon="49.1178443"><time>2022-10-29T12:46:22.913</time></trkpt><trkpt lat="55.7553505" lon="49.1177778"><time>2022-10-29T12:46:24.887</time></trkpt><trkpt lat="55.7553798" lon="49.1176873"><time>2022-10-29T12:46:26.887</time></trkpt><trkpt lat="55.7553946" lon="49.1175760"><time>2022-10-29T12:46:28.920</time></trkpt><trkpt lat="55.7553839" lon="49.1174030"><time>2022-10-29T12:46:30.927</time></trkpt><trkpt lat="55.7553763" lon="49.1173107"><time>2022-10-29T12:46:31.920</time></trkpt><trkpt lat="55.7553713" lon="49.1172136"><time>2022-10-29T12:46:32.920</time></trkpt><trkpt lat="55.7553652" lon="49.1171196"><time>2022-10-29T12:46:33.923</time></trkpt><trkpt lat="55.7553494" lon="49.1170296"><time>2022-10-29T12:46:34.923</time></trkpt><trkpt lat="55.7553355" lon="49.1169400"><time>2022-10-29T12:46:35.920</time></trkpt><trkpt lat="55.7553231" lon="49.1168104"><time>2022-10-29T12:46:36.907</time></trkpt><trkpt lat="55.7553134" lon="49.1167260"><time>2022-10-29T12:46:37.917</time></trkpt><trkpt lat="55.7552933" lon="49.1166218"><time>2022-10-29T12:46:38.930</time></trkpt><trkpt lat="55.7552790" lon="49.1165320"><time>2022-10-29T12:46:39.900</time></trkpt><trkpt lat="55.7552627" lon="49.1164245"><time>2022-10-29T12:46:40.917</time></trkpt><trkpt lat="55.7552485" lon="49.1163278"><time>2022-10-29T12:46:41.917</time></trkpt><trkpt lat="55.7552372" lon="49.1162400"><time>2022-10-29T12:46:42.913</time></trkpt><trkpt lat="55.7552272" lon="49.1161601"><time>2022-10-29T12:46:43.923</time></trkpt><trkpt lat="55.7552089" lon="49.1160052"><time>2022-10-29T12:46:45.913</time></trkpt><trkpt lat="55.7552004" lon="49.1159215"><time>2022-10-29T12:46:46.923</time></trkpt><trkpt lat="55.7551837" lon="49.1158073"><time>2022-10-29T12:46:48.910</time></trkpt><trkpt lat="55.7551653" lon="49.1157214"><time>2022-10-29T12:46:50.920</time></trkpt><trkpt lat="55.7551448" lon="49.1156426"><time>2022-10-29T12:46:53.887</time></trkpt><trkpt lat="55.7551272" lon="49.1155597"><time>2022-10-29T12:46:56.887</time></trkpt><trkpt lat="55.7551096" lon="49.1154834"><time>2022-10-29T12:46:59.907</time></trkpt><trkpt lat="55.7550965" lon="49.1153882"><time>2022-10-29T12:47:02.920</time></trkpt><trkpt lat="55.7550825" lon="49.1152974"><time>2022-10-29T12:47:05.920</time></trkpt><trkpt lat="55.7550803" lon="49.1151996"><time>2022-10-29T12:47:09.893</time></trkpt><trkpt lat="55.7550836" lon="49.1151196"><time>2022-10-29T12:47:14.917</time></trkpt><trkpt lat="55.7550854" lon="49.1150387"><time>2022-10-29T12:47:19.917</time></trkpt><trkpt lat="55.7551088" lon="49.1149676"><time>2022-10-29T12:47:23.920</time></trkpt><trkpt lat="55.7551374" lon="49.1149007"><time>2022-10-29T12:47:26.917</time></trkpt><trkpt lat="55.7551733" lon="49.1148515"><time>2022-10-29T12:47:28.927</time></trkpt><trkpt lat="55.7552144" lon="49.1148005"><time>2022-10-29T12:47:30.893</time></trkpt><trkpt lat="55.7552547" lon="49.1147332"><time>2022-10-29T12:47:32.923</time></trkpt><trkpt lat="55.7552884" lon="49.1146481"><time>2022-10-29T12:47:34.887</time></trkpt><trkpt lat="55.7553094" lon="49.1145341"><time>2022-10-29T12:47:36.917</time></trkpt><trkpt lat="55.7553203" lon="49.1144227"><time>2022-10-29T12:47:38.897</time></trkpt><trkpt lat="55.7553287" lon="49.1143049"><time>2022-10-29T12:47:40.917</time></trkpt><trkpt lat="55.7553378" lon="49.1141813"><time>2022-10-29T12:47:42.930</time></trkpt><trkpt lat="55.7553493" lon="49.1140518"><time>2022-10-29T12:47:44.917</time></trkpt><trkpt lat="55.7553589" lon="49.1139117"><time>2022-10-29T12:47:46.937</time></trkpt><trkpt lat="55.7553661" lon="49.1137700"><time>2022-10-29T12:47:48.880</time></trkpt><trkpt lat="55.7553773" lon="49.1136265"><time>2022-10-29T12:47:50.883</time></trkpt><trkpt lat="55.7553904" lon="49.1134947"><time>2022-10-29T12:47:52.887</time></trkpt><trkpt lat="55.7554050" lon="49.1133613"><time>2022-10-29T12:47:54.897</time></trkpt><trkpt lat="55.7554155" lon="49.1132680"><time>2022-10-29T12:47:56.917</time></trkpt><trkpt lat="55.7554599" lon="49.1132483"><time>2022-10-29T12:48:02.923</time></trkpt><trkpt lat="55.7554786" lon="49.1131710"><time>2022-10-29T12:48:08.917</time></trkpt><trkpt lat="55.7554555" lon="49.1130464"><time>2022-10-29T12:48:11.947</time></trkpt><trkpt lat="55.7554388" lon="49.1129974"><time>2022-10-29T12:48:13.057</time></trkpt><trkpt lat="55.7554494" lon="49.1128936"><time>2022-10-29T12:48:14.913</time></trkpt><trkpt lat="55.7554602" lon="49.1127808"><time>2022-10-29T12:48:16.917</time></trkpt><trkpt lat="55.7554724" lon="49.1126582"><time>2022-10-29T12:48:18.913</time></trkpt><trkpt lat="55.7554858" lon="49.1125151"><time>2022-10-29T12:48:20.917</time></trkpt><trkpt lat="55.7554941" lon="49.1123718"><time>2022-10-29T12:48:22.910</time></trkpt><trkpt lat="55.7555021" lon="49.1122383"><time>2022-10-29T12:48:24.910</time></trkpt><trkpt lat="55.7555084" lon="49.1121024"><time>2022-10-29T12:48:26.907</time></trkpt><trkpt lat="55.7555169" lon="49.1119688"><time>2022-10-29T12:48:28.883</time></trkpt><trkpt lat="55.7555252" lon="49.1118504"><time>2022-10-29T12:48:30.953</time></trkpt><trkpt lat="55.7555296" lon="49.1117493"><time>2022-10-29T12:48:32.883</time></trkpt><trkpt lat="55.7555292" lon="49.1116545"><time>2022-10-29T12:48:34.890</time></trkpt><trkpt lat="55.7555291" lon="49.1115588"><time>2022-10-29T12:48:36.923</time></trkpt><trkpt lat="55.7555338" lon="49.1115162"><time>2022-10-29T12:48:38.047</time></trkpt><trkpt lat="55.7555364" lon="49.1114219"><time>2022-10-29T12:48:39.887</time></trkpt><trkpt lat="55.7555356" lon="49.1113383"><time>2022-10-29T12:48:41.910</time></trkpt><trkpt lat="55.7555345" lon="49.1112536"><time>2022-10-29T12:48:43.900</time></trkpt><trkpt lat="55.7555361" lon="49.1111687"><time>2022-10-29T12:48:45.903</time></trkpt><trkpt lat="55.7555439" lon="49.1110584"><time>2022-10-29T12:48:48.903</time></trkpt><trkpt lat="55.7555388" lon="49.1109606"><time>2022-10-29T12:48:51.897</time></trkpt><trkpt lat="55.7555054" lon="49.1108543"><time>2022-10-29T12:50:20.923</time></trkpt><trkpt lat="55.7554566" lon="49.1107622"><time>2022-10-29T12:50:23.897</time></trkpt><trkpt lat="55.7554033" lon="49.1106886"><time>2022-10-29T12:50:25.957</time></trkpt><trkpt lat="55.7553628" lon="49.1106653"><time>2022-10-29T12:50:27.147</time></trkpt><trkpt lat="55.7553147" lon="49.1105866"><time>2022-10-29T12:50:28.923</time></trkpt><trkpt lat="55.7552517" lon="49.1104896"><time>2022-10-29T12:50:30.960</time></trkpt><trkpt lat="55.7551978" lon="49.1103684"><time>2022-10-29T12:50:32.910</time></trkpt><trkpt lat="55.7551753" lon="49.1102266"><time>2022-10-29T12:50:34.907</time></trkpt><trkpt lat="55.7551842" lon="49.1100952"><time>2022-10-29T12:50:36.907</time></trkpt><trkpt lat="55.7552126" lon="49.1099814"><time>2022-10-29T12:50:38.913</time></trkpt><trkpt lat="55.7552701" lon="49.1099285"><time>2022-10-29T12:50:40.920</time></trkpt><trkpt lat="55.7553441" lon="49.1099382"><time>2022-10-29T12:50:42.937</time></trkpt><trkpt lat="55.7554155" lon="49.1099642"><time>2022-10-29T12:50:44.947</time></trkpt><trkpt lat="55.7554155" lon="49.1099642"><time>2022-10-29T12:50:45.323</time></trkpt><trkpt lat="55.7554791" lon="49.1099788"><time>2022-10-29T12:50:46.923</time></trkpt><trkpt lat="55.7554921" lon="49.1099764"><time>2022-10-29T12:50:47.843</time></trkpt><trkpt lat="55.7555555" lon="49.1099607"><time>2022-10-29T12:50:49.887</time></trkpt><trkpt lat="55.7555183" lon="49.1100056"><time>2022-10-29T12:50:56.930</time></trkpt><trkpt lat="55.7554870" lon="49.1099434"><time>2022-10-29T12:51:20.917</time></trkpt><trkpt lat="55.7554326" lon="49.1099821"><time>2022-10-29T12:53:49.920</time></trkpt><trkpt lat="55.7553809" lon="49.1099737"><time>2022-10-29T12:53:51.920</time></trkpt><trkpt lat="55.7553218" lon="49.1099647"><time>2022-10-29T12:53:53.913</time></trkpt><trkpt lat="55.7552728" lon="49.1099623"><time>2022-10-29T12:53:55.917</time></trkpt><trkpt lat="55.7552212" lon="49.1099441"><time>2022-10-29T12:53:57.920</time></trkpt><trkpt lat="55.7551739" lon="49.1098405"><time>2022-10-29T12:54:00.940</time></trkpt><trkpt lat="55.7551676" lon="49.1096992"><time>2022-10-29T12:54:02.917</time></trkpt><trkpt lat="55.7551674" lon="49.1095548"><time>2022-10-29T12:54:04.917</time></trkpt><trkpt lat="55.7551645" lon="49.1094740"><time>2022-10-29T12:54:05.937</time></trkpt><trkpt lat="55.7551576" lon="49.1093253"><time>2022-10-29T12:54:07.913</time></trkpt><trkpt lat="55.7551543" lon="49.1091974"><time>2022-10-29T12:54:09.920</time></trkpt><trkpt lat="55.7551453" lon="49.1090794"><time>2022-10-29T12:54:11.917</time></trkpt><trkpt lat="55.7551394" lon="49.1089565"><time>2022-10-29T12:54:13.907</time></trkpt><trkpt lat="55.7551394" lon="49.1088477"><time>2022-10-29T12:54:15.923</time></trkpt><trkpt lat="55.7551398" lon="49.1087383"><time>2022-10-29T12:54:17.927</time></trkpt><trkpt lat="55.7551371" lon="49.1086226"><time>2022-10-29T12:54:19.923</time></trkpt><trkpt lat="55.7551305" lon="49.1084900"><time>2022-10-29T12:54:21.920</time></trkpt><trkpt lat="55.7551333" lon="49.1083528"><time>2022-10-29T12:54:23.957</time></trkpt><trkpt lat="55.7551434" lon="49.1082120"><time>2022-10-29T12:54:25.920</time></trkpt><trkpt lat="55.7551452" lon="49.1080829"><time>2022-10-29T12:54:27.920</time></trkpt><trkpt lat="55.7551416" lon="49.1079563"><time>2022-10-29T12:54:29.913</time></trkpt><trkpt lat="55.7551369" lon="49.1078173"><time>2022-10-29T12:54:31.943</time></trkpt><trkpt lat="55.7551304" lon="49.1076827"><time>2022-10-29T12:54:33.917</time></trkpt><trkpt lat="55.7551266" lon="49.1075497"><time>2022-10-29T12:54:35.920</time></trkpt><trkpt lat="55.7551242" lon="49.1074185"><time>2022-10-29T12:54:37.927</time></trkpt><trkpt lat="55.7551214" lon="49.1072926"><time>2022-10-29T12:54:39.943</time></trkpt><trkpt lat="55.7551244" lon="49.1071616"><time>2022-10-29T12:54:41.923</time></trkpt><trkpt lat="55.7551265" lon="49.1070263"><time>2022-10-29T12:54:43.910</time></trkpt><trkpt lat="55.7551308" lon="49.1068877"><time>2022-10-29T12:54:45.917</time></trkpt><trkpt lat="55.7551410" lon="49.1067523"><time>2022-10-29T12:54:47.917</time></trkpt><trkpt lat="55.7551605" lon="49.1066364"><time>2022-10-29T12:54:49.910</time></trkpt><trkpt lat="55.7551772" lon="49.1065066"><time>2022-10-29T12:54:51.923</time></trkpt><trkpt lat="55.7551884" lon="49.1063727"><time>2022-10-29T12:54:53.920</time></trkpt><trkpt lat="55.7552052" lon="49.1062626"><time>2022-10-29T12:54:55.920</time></trkpt><trkpt lat="55.7552143" lon="49.1061281"><time>2022-10-29T12:54:57.880</time></trkpt><trkpt lat="55.7552150" lon="49.1060046"><time>2022-10-29T12:54:59.913</time></trkpt><trkpt lat="55.7552238" lon="49.1058602"><time>2022-10-29T12:55:01.917</time></trkpt><trkpt lat="55.7552392" lon="49.1057388"><time>2022-10-29T12:55:03.917</time></trkpt><trkpt lat="55.7552524" lon="49.1056549"><time>2022-10-29T12:55:05.917</time></trkpt><trkpt lat="55.7552974" lon="49.1056060"><time>2022-10-29T12:55:08.913</time></trkpt><trkpt lat="55.7553482" lon="49.1055976"><time>2022-10-29T12:55:11.927</time></trkpt><trkpt lat="55.7553009" lon="49.1055925"><time>2022-10-29T12:55:41.917</time></trkpt><trkpt lat="55.7552337" lon="49.1055730"><time>2022-10-29T12:55:45.890</time></trkpt><trkpt lat="55.7551714" lon="49.1055604"><time>2022-10-29T12:55:47.890</time></trkpt><trkpt lat="55.7551204" lon="49.1055722"><time>2022-10-29T12:55:49.910</time></trkpt><trkpt lat="55.7550557" lon="49.1055721"><time>2022-10-29T12:55:52.907</time></trkpt><trkpt lat="55.7549889" lon="49.1055689"><time>2022-10-29T12:55:55.920</time></trkpt><trkpt lat="55.7549305" lon="49.1055539"><time>2022-10-29T12:55:57.937</time></trkpt><trkpt lat="55.7548631" lon="49.1055300"><time>2022-10-29T12:55:59.913</time></trkpt><trkpt lat="55.7548070" lon="49.1055161"><time>2022-10-29T12:56:01.923</time></trkpt><trkpt lat="55.7547458" lon="49.1054993"><time>2022-10-29T12:56:03.913</time></trkpt><trkpt lat="55.7546924" lon="49.1054744"><time>2022-10-29T12:56:05.937</time></trkpt><trkpt lat="55.7546254" lon="49.1054486"><time>2022-10-29T12:56:07.923</time></trkpt><trkpt lat="55.7545387" lon="49.1054404"><time>2022-10-29T12:56:09.933</time></trkpt><trkpt lat="55.7544573" lon="49.1054350"><time>2022-10-29T12:56:11.930</time></trkpt><trkpt lat="55.7543748" lon="49.1054199"><time>2022-10-29T12:56:13.910</time></trkpt><trkpt lat="55.7542961" lon="49.1054013"><time>2022-10-29T12:56:15.923</time></trkpt><trkpt lat="55.7542218" lon="49.1053858"><time>2022-10-29T12:56:17.920</time></trkpt><trkpt lat="55.7541426" lon="49.1053858"><time>2022-10-29T12:56:19.950</time></trkpt><trkpt lat="55.7540643" lon="49.1053904"><time>2022-10-29T12:56:21.917</time></trkpt><trkpt lat="55.7539991" lon="49.1053847"><time>2022-10-29T12:56:23.917</time></trkpt><trkpt lat="55.7539242" lon="49.1053638"><time>2022-10-29T12:56:25.887</time></trkpt><trkpt lat="55.7538458" lon="49.1053444"><time>2022-10-29T12:56:27.893</time></trkpt><trkpt lat="55.7537700" lon="49.1053292"><time>2022-10-29T12:56:29.887</time></trkpt><trkpt lat="55.7536952" lon="49.1053196"><time>2022-10-29T12:56:31.917</time></trkpt><trkpt lat="55.7536131" lon="49.1053067"><time>2022-10-29T12:56:33.910</time></trkpt><trkpt lat="55.7535371" lon="49.1052899"><time>2022-10-29T12:56:35.887</time></trkpt><trkpt lat="55.7534710" lon="49.1052654"><time>2022-10-29T12:56:37.933</time></trkpt><trkpt lat="55.7534176" lon="49.1052547"><time>2022-10-29T12:56:39.933</time></trkpt><trkpt lat="55.7533604" lon="49.1052530"><time>2022-10-29T12:56:41.927</time></trkpt><trkpt lat="55.7532929" lon="49.1052536"><time>2022-10-29T12:56:43.923</time></trkpt><trkpt lat="55.7532196" lon="49.1052421"><time>2022-10-29T12:56:45.923</time></trkpt><trkpt lat="55.7531434" lon="49.1052317"><time>2022-10-29T12:56:47.933</time></trkpt><trkpt lat="55.7530643" lon="49.1052176"><time>2022-10-29T12:56:49.927</time></trkpt><trkpt lat="55.7529695" lon="49.1052022"><time>2022-10-29T12:56:51.930</time></trkpt><trkpt lat="55.7528917" lon="49.1052034"><time>2022-10-29T12:56:53.933</time></trkpt><trkpt lat="55.7528066" lon="49.1052001"><time>2022-10-29T12:56:55.917</time></trkpt><trkpt lat="55.7527216" lon="49.1051776"><time>2022-10-29T12:56:57.920</time></trkpt><trkpt lat="55.7526735" lon="49.1051674"><time>2022-10-29T12:56:58.913</time></trkpt><trkpt lat="55.7525950" lon="49.1051554"><time>2022-10-29T12:57:00.880</time></trkpt><trkpt lat="55.7525122" lon="49.1051482"><time>2022-10-29T12:57:02.913</time></trkpt><trkpt lat="55.7524321" lon="49.1051398"><time>2022-10-29T12:57:04.917</time></trkpt><trkpt lat="55.7523585" lon="49.1051331"><time>2022-10-29T12:57:06.917</time></trkpt><trkpt lat="55.7522920" lon="49.1051300"><time>2022-10-29T12:57:08.913</time></trkpt><trkpt lat="55.7522404" lon="49.1051149"><time>2022-10-29T12:57:11.920</time></trkpt><trkpt lat="55.7521858" lon="49.1051232"><time>2022-10-29T12:57:13.943</time></trkpt><trkpt lat="55.7521187" lon="49.1051295"><time>2022-10-29T12:57:15.917</time></trkpt><trkpt lat="55.7520560" lon="49.1051258"><time>2022-10-29T12:57:17.937</time></trkpt><trkpt lat="55.7519995" lon="49.1051258"><time>2022-10-29T12:57:19.947</time></trkpt><trkpt lat="55.7519441" lon="49.1051312"><time>2022-10-29T12:57:21.897</time></trkpt><trkpt lat="55.7518926" lon="49.1051423"><time>2022-10-29T12:57:23.940</time></trkpt><trkpt lat="55.7518219" lon="49.1051594"><time>2022-10-29T12:57:25.887</time></trkpt><trkpt lat="55.7517484" lon="49.1051525"><time>2022-10-29T12:57:27.897</time></trkpt><trkpt lat="55.7516711" lon="49.1051317"><time>2022-10-29T12:57:29.920</time></trkpt><trkpt lat="55.7516032" lon="49.1051173"><time>2022-10-29T12:57:31.880</time></trkpt><trkpt lat="55.7515307" lon="49.1051119"><time>2022-10-29T12:57:33.890</time></trkpt><trkpt lat="55.7514599" lon="49.1051160"><time>2022-10-29T12:57:35.890</time></trkpt><trkpt lat="55.7513867" lon="49.1051080"><time>2022-10-29T12:57:37.880</time></trkpt><trkpt lat="55.7513156" lon="49.1050952"><time>2022-10-29T12:57:39.917</time></trkpt><trkpt lat="55.7512421" lon="49.1050842"><time>2022-10-29T12:57:41.923</time></trkpt><trkpt lat="55.7511715" lon="49.1050757"><time>2022-10-29T12:57:43.880</time></trkpt><trkpt lat="55.7511057" lon="49.1050715"><time>2022-10-29T12:57:45.923</time></trkpt><trkpt lat="55.7510356" lon="49.1050661"><time>2022-10-29T12:57:47.897</time></trkpt><trkpt lat="55.7509638" lon="49.1050619"><time>2022-10-29T12:57:49.887</time></trkpt><trkpt lat="55.7508936" lon="49.1050567"><time>2022-10-29T12:57:51.877</time></trkpt><trkpt lat="55.7508272" lon="49.1050523"><time>2022-10-29T12:57:53.913</time></trkpt><trkpt lat="55.7507665" lon="49.1050539"><time>2022-10-29T12:57:55.887</time></trkpt><trkpt lat="55.7507080" lon="49.1050553"><time>2022-10-29T12:57:57.890</time></trkpt><trkpt lat="55.7506361" lon="49.1050540"><time>2022-10-29T12:57:59.910</time></trkpt><trkpt lat="55.7505551" lon="49.1050524"><time>2022-10-29T12:58:01.917</time></trkpt><trkpt lat="55.7504769" lon="49.1050472"><time>2022-10-29T12:58:03.923</time></trkpt><trkpt lat="55.7503971" lon="49.1050419"><time>2022-10-29T12:58:05.920</time></trkpt><trkpt lat="55.7503154" lon="49.1050414"><time>2022-10-29T12:58:07.920</time></trkpt><trkpt lat="55.7502415" lon="49.1050438"><time>2022-10-29T12:58:09.920</time></trkpt><trkpt lat="55.7501691" lon="49.1050462"><time>2022-10-29T12:58:11.913</time></trkpt><trkpt lat="55.7501033" lon="49.1050490"><time>2022-10-29T12:58:13.910</time></trkpt><trkpt lat="55.7500458" lon="49.1050501"><time>2022-10-29T12:58:15.923</time></trkpt><trkpt lat="55.7499831" lon="49.1050501"><time>2022-10-29T12:58:17.923</time></trkpt><trkpt lat="55.7499082" lon="49.1050494"><time>2022-10-29T12:58:19.933</time></trkpt><trkpt lat="55.7498362" lon="49.1050451"><time>2022-10-29T12:58:21.907</time></trkpt><trkpt lat="55.7497752" lon="49.1050483"><time>2022-10-29T12:58:23.920</time></trkpt><trkpt lat="55.7497092" lon="49.1050489"><time>2022-10-29T12:58:25.913</time></trkpt><trkpt lat="55.7496380" lon="49.1050516"><time>2022-10-29T12:58:27.920</time></trkpt><trkpt lat="55.7495565" lon="49.1050583"><time>2022-10-29T12:58:29.920</time></trkpt><trkpt lat="55.7494828" lon="49.1050637"><time>2022-10-29T12:58:31.920</time></trkpt><trkpt lat="55.7494170" lon="49.1050790"><time>2022-10-29T12:58:33.917</time></trkpt><trkpt lat="55.7493672" lon="49.1050877"><time>2022-10-29T12:58:35.887</time></trkpt><trkpt lat="55.7492833" lon="49.1050844"><time>2022-10-29T12:58:37.923</time></trkpt><trkpt lat="55.7492031" lon="49.1050786"><time>2022-10-29T12:58:39.917</time></trkpt><trkpt lat="55.7491312" lon="49.1050756"><time>2022-10-29T12:58:41.920</time></trkpt><trkpt lat="55.7490593" lon="49.1050659"><time>2022-10-29T12:58:43.933</time></trkpt><trkpt lat="55.7489883" lon="49.1050511"><time>2022-10-29T12:58:45.917</time></trkpt><trkpt lat="55.7489225" lon="49.1050417"><time>2022-10-29T12:58:47.927</time></trkpt><trkpt lat="55.7488693" lon="49.1050362"><time>2022-10-29T12:58:49.917</time></trkpt><trkpt lat="55.7488117" lon="49.1050369"><time>2022-10-29T12:58:52.920</time></trkpt><trkpt lat="55.7487472" lon="49.1050250"><time>2022-10-29T12:59:03.920</time></trkpt><trkpt lat="55.7486721" lon="49.1050303"><time>2022-10-29T12:59:05.917</time></trkpt><trkpt lat="55.7486034" lon="49.1050272"><time>2022-10-29T12:59:07.923</time></trkpt><trkpt lat="55.7485375" lon="49.1050237"><time>2022-10-29T12:59:09.917</time></trkpt><trkpt lat="55.7484700" lon="49.1050441"><time>2022-10-29T12:59:11.917</time></trkpt><trkpt lat="55.7484010" lon="49.1050554"><time>2022-10-29T12:59:13.937</time></trkpt><trkpt lat="55.7483441" lon="49.1050546"><time>2022-10-29T12:59:15.923</time></trkpt><trkpt lat="55.7482904" lon="49.1050598"><time>2022-10-29T12:59:17.917</time></trkpt><trkpt lat="55.7482373" lon="49.1050599"><time>2022-10-29T12:59:19.927</time></trkpt><trkpt lat="55.7481826" lon="49.1050571"><time>2022-10-29T12:59:21.910</time></trkpt><trkpt lat="55.7481280" lon="49.1050539"><time>2022-10-29T12:59:23.913</time></trkpt><trkpt lat="55.7480717" lon="49.1050487"><time>2022-10-29T12:59:25.907</time></trkpt><trkpt lat="55.7480087" lon="49.1050449"><time>2022-10-29T12:59:27.897</time></trkpt><trkpt lat="55.7479448" lon="49.1050476"><time>2022-10-29T12:59:29.913</time></trkpt><trkpt lat="55.7478809" lon="49.1050536"><time>2022-10-29T12:59:31.907</time></trkpt><trkpt lat="55.7478177" lon="49.1050524"><time>2022-10-29T12:59:33.887</time></trkpt><trkpt lat="55.7477548" lon="49.1050527"><time>2022-10-29T12:59:35.913</time></trkpt><trkpt lat="55.7476850" lon="49.1050510"><time>2022-10-29T12:59:37.917</time></trkpt><trkpt lat="55.7476220" lon="49.1050526"><time>2022-10-29T12:59:39.917</time></trkpt><trkpt lat="55.7475490" lon="49.1050524"><time>2022-10-29T12:59:41.910</time></trkpt><trkpt lat="55.7474791" lon="49.1050485"><time>2022-10-29T12:59:43.920</time></trkpt><trkpt lat="55.7474136" lon="49.1050459"><time>2022-10-29T12:59:45.927</time></trkpt><trkpt lat="55.7473417" lon="49.1050484"><time>2022-10-29T12:59:47.913</time></trkpt><trkpt lat="55.7472752" lon="49.1050501"><time>2022-10-29T12:59:49.937</time></trkpt><trkpt lat="55.7472109" lon="49.1050500"><time>2022-10-29T12:59:51.913</time></trkpt><trkpt lat="55.7471505" lon="49.1050475"><time>2022-10-29T12:59:53.913</time></trkpt><trkpt lat="55.7470924" lon="49.1050414"><time>2022-10-29T12:59:55.920</time></trkpt><trkpt lat="55.7470278" lon="49.1050454"><time>2022-10-29T12:59:57.920</time></trkpt><trkpt lat="55.7469651" lon="49.1050521"><time>2022-10-29T12:59:59.910</time></trkpt><trkpt lat="55.7469028" lon="49.1050536"><time>2022-10-29T13:00:01.913</time></trkpt><trkpt lat="55.7468388" lon="49.1050521"><time>2022-10-29T13:00:03.937</time></trkpt><trkpt lat="55.7467937" lon="49.1050415"><time>2022-10-29T13:00:05.087</time></trkpt><trkpt lat="55.7467290" lon="49.1050442"><time>2022-10-29T13:00:06.887</time></trkpt><trkpt lat="55.7466788" lon="49.1050433"><time>2022-10-29T13:00:08.887</time></trkpt><trkpt lat="55.7466198" lon="49.1050354"><time>2022-10-29T13:00:10.887</time></trkpt><trkpt lat="55.7465599" lon="49.1050385"><time>2022-10-29T13:00:12.887</time></trkpt><trkpt lat="55.7465038" lon="49.1050391"><time>2022-10-29T13:00:14.890</time></trkpt><trkpt lat="55.7464465" lon="49.1050297"><time>2022-10-29T13:00:16.887</time></trkpt><trkpt lat="55.7463871" lon="49.1050291"><time>2022-10-29T13:00:18.887</time></trkpt><trkpt lat="55.7463251" lon="49.1050337"><time>2022-10-29T13:00:20.893</time></trkpt><trkpt lat="55.7462656" lon="49.1050342"><time>2022-10-29T13:00:22.890</time></trkpt><trkpt lat="55.7462129" lon="49.1050384"><time>2022-10-29T13:00:24.890</time></trkpt><trkpt lat="55.7461542" lon="49.1050343"><time>2022-10-29T13:00:26.880</time></trkpt><trkpt lat="55.7460930" lon="49.1050327"><time>2022-10-29T13:00:28.887</time></trkpt><trkpt lat="55.7460452" lon="49.1050311"><time>2022-10-29T13:00:30.890</time></trkpt><trkpt lat="55.7459901" lon="49.1050111"><time>2022-10-29T13:00:32.893</time></trkpt><trkpt lat="55.7459319" lon="49.1050055"><time>2022-10-29T13:00:34.940</time></trkpt><trkpt lat="55.7459174" lon="49.1050057"><time>2022-10-29T13:00:35.840</time></trkpt><trkpt lat="55.7458495" lon="49.1050188"><time>2022-10-29T13:00:37.887</time></trkpt><trkpt lat="55.7458015" lon="49.1050209"><time>2022-10-29T13:00:39.887</time></trkpt><trkpt lat="55.7457526" lon="49.1050240"><time>2022-10-29T13:00:42.887</time></trkpt><trkpt lat="55.7457002" lon="49.1050551"><time>2022-10-29T13:00:45.893</time></trkpt><trkpt lat="55.7456475" lon="49.1050703"><time>2022-10-29T13:00:48.887</time></trkpt><trkpt lat="55.7456029" lon="49.1050902"><time>2022-10-29T13:00:51.893</time></trkpt><trkpt lat="55.7455501" lon="49.1051041"><time>2022-10-29T13:00:53.883</time></trkpt><trkpt lat="55.7455007" lon="49.1051188"><time>2022-10-29T13:00:56.890</time></trkpt><trkpt lat="55.7454544" lon="49.1051449"><time>2022-10-29T13:00:58.933</time></trkpt><trkpt lat="55.7454364" lon="49.1051430"><time>2022-10-29T13:00:59.860</time></trkpt><trkpt lat="55.7453901" lon="49.1051397"><time>2022-10-29T13:01:00.890</time></trkpt><trkpt lat="55.7453405" lon="49.1051476"><time>2022-10-29T13:01:02.890</time></trkpt><trkpt lat="55.7452791" lon="49.1051376"><time>2022-10-29T13:01:04.890</time></trkpt><trkpt lat="55.7452324" lon="49.1051278"><time>2022-10-29T13:01:06.910</time></trkpt><trkpt lat="55.7451591" lon="49.1051170"><time>2022-10-29T13:01:08.930</time></trkpt><trkpt lat="55.7451591" lon="49.1051170"><time>2022-10-29T13:01:08.987</time></trkpt><trkpt lat="55.7451106" lon="49.1051103"><time>2022-10-29T13:01:10.937</time></trkpt><trkpt lat="55.7450751" lon="49.1051438"><time>2022-10-29T13:01:12.047</time></trkpt><trkpt lat="55.7450344" lon="49.1052076"><time>2022-10-29T13:01:16.907</time></trkpt><trkpt lat="55.7449901" lon="49.1051824"><time>2022-10-29T13:01:21.903</time></trkpt><trkpt lat="55.7449322" lon="49.1051527"><time>2022-10-29T13:01:52.910</time></trkpt><trkpt lat="55.7448790" lon="49.1050818"><time>2022-10-29T13:01:55.893</time></trkpt><trkpt lat="55.7448155" lon="49.1050391"><time>2022-10-29T13:01:58.910</time></trkpt><trkpt lat="55.7447608" lon="49.1050417"><time>2022-10-29T13:02:00.917</time></trkpt><trkpt lat="55.7447072" lon="49.1050440"><time>2022-10-29T13:02:02.903</time></trkpt><trkpt lat="55.7446466" lon="49.1050501"><time>2022-10-29T13:02:04.907</time></trkpt><trkpt lat="55.7445831" lon="49.1050602"><time>2022-10-29T13:02:06.920</time></trkpt><trkpt lat="55.7445284" lon="49.1050681"><time>2022-10-29T13:02:09.917</time></trkpt><trkpt lat="55.7444684" lon="49.1050330"><time>2022-10-29T13:02:12.907</time></trkpt><trkpt lat="55.7444116" lon="49.1050210"><time>2022-10-29T13:02:14.910</time></trkpt><trkpt lat="55.7443345" lon="49.1050225"><time>2022-10-29T13:02:16.917</time></trkpt><trkpt lat="55.7442593" lon="49.1050285"><time>2022-10-29T13:02:18.890</time></trkpt><trkpt lat="55.7441887" lon="49.1050328"><time>2022-10-29T13:02:20.923</time></trkpt><trkpt lat="55.7441249" lon="49.1050310"><time>2022-10-29T13:02:22.920</time></trkpt><trkpt lat="55.7440511" lon="49.1050196"><time>2022-10-29T13:02:24.920</time></trkpt><trkpt lat="55.7439905" lon="49.1050135"><time>2022-10-29T13:02:26.920</time></trkpt><trkpt lat="55.7439361" lon="49.1050050"><time>2022-10-29T13:02:28.917</time></trkpt><trkpt lat="55.7438708" lon="49.1050121"><time>2022-10-29T13:02:30.877</time></trkpt><trkpt lat="55.7438078" lon="49.1050026"><time>2022-10-29T13:02:32.877</time></trkpt><trkpt lat="55.7437453" lon="49.1049976"><time>2022-10-29T13:02:35.880</time></trkpt><trkpt lat="55.7436696" lon="49.1049951"><time>2022-10-29T13:02:37.887</time></trkpt><trkpt lat="55.7436037" lon="49.1049946"><time>2022-10-29T13:02:39.877</time></trkpt><trkpt lat="55.7435307" lon="49.1050037"><time>2022-10-29T13:02:41.883</time></trkpt><trkpt lat="55.7434640" lon="49.1050104"><time>2022-10-29T13:02:43.890</time></trkpt><trkpt lat="55.7433945" lon="49.1050185"><time>2022-10-29T13:02:45.883</time></trkpt><trkpt lat="55.7433202" lon="49.1050335"><time>2022-10-29T13:02:47.887</time></trkpt><trkpt lat="55.7432476" lon="49.1050440"><time>2022-10-29T13:02:49.890</time></trkpt><trkpt lat="55.7431801" lon="49.1050503"><time>2022-10-29T13:02:51.890</time></trkpt><trkpt lat="55.7431032" lon="49.1050528"><time>2022-10-29T13:02:53.893</time></trkpt><trkpt lat="55.7430354" lon="49.1050594"><time>2022-10-29T13:02:55.917</time></trkpt><trkpt lat="55.7429642" lon="49.1050510"><time>2022-10-29T13:02:57.917</time></trkpt><trkpt lat="55.7428981" lon="49.1050387"><time>2022-10-29T13:02:59.927</time></trkpt><trkpt lat="55.7428265" lon="49.1050263"><time>2022-10-29T13:03:01.910</time></trkpt><trkpt lat="55.7427486" lon="49.1050214"><time>2022-10-29T13:03:03.937</time></trkpt><trkpt lat="55.7426751" lon="49.1050202"><time>2022-10-29T13:03:05.917</time></trkpt><trkpt lat="55.7426121" lon="49.1050290"><time>2022-10-29T13:03:07.913</time></trkpt><trkpt lat="55.7425407" lon="49.1050461"><time>2022-10-29T13:03:10.893</time></trkpt><trkpt lat="55.7424813" lon="49.1050544"><time>2022-10-29T13:03:12.910</time></trkpt><trkpt lat="55.7424199" lon="49.1050398"><time>2022-10-29T13:03:14.923</time></trkpt><trkpt lat="55.7423700" lon="49.1050297"><time>2022-10-29T13:03:16.907</time></trkpt><trkpt lat="55.7423286" lon="49.1051104"><time>2022-10-29T13:03:19.907</time></trkpt><trkpt lat="55.7423273" lon="49.1051988"><time>2022-10-29T13:03:21.913</time></trkpt><trkpt lat="55.7423571" lon="49.1052650"><time>2022-10-29T13:03:36.887</time></trkpt><trkpt lat="55.7423610" lon="49.1053541"><time>2022-10-29T13:03:39.890</time></trkpt><trkpt lat="55.7423684" lon="49.1054426"><time>2022-10-29T13:03:41.910</time></trkpt><trkpt lat="55.7423684" lon="49.1055328"><time>2022-10-29T13:03:43.907</time></trkpt><trkpt lat="55.7423699" lon="49.1056182"><time>2022-10-29T13:03:45.917</time></trkpt><trkpt lat="55.7423487" lon="49.1057005"><time>2022-10-29T13:03:47.907</time></trkpt><trkpt lat="55.7423062" lon="49.1057927"><time>2022-10-29T13:03:49.920</time></trkpt><trkpt lat="55.7422774" lon="49.1058712"><time>2022-10-29T13:03:51.913</time></trkpt><trkpt lat="55.7422554" lon="49.1059599"><time>2022-10-29T13:03:55.907</time></trkpt><trkpt lat="55.7422065" lon="49.1060454"><time>2022-10-29T13:04:01.920</time></trkpt><trkpt lat="55.7421619" lon="49.1061396"><time>2022-10-29T13:04:03.910</time></trkpt><trkpt lat="55.7421492" lon="49.1062673"><time>2022-10-29T13:04:05.923</time></trkpt><trkpt lat="55.7421514" lon="49.1064064"><time>2022-10-29T13:04:07.923</time></trkpt><trkpt lat="55.7421580" lon="49.1065483"><time>2022-10-29T13:04:09.920</time></trkpt><trkpt lat="55.7421638" lon="49.1066867"><time>2022-10-29T13:04:11.923</time></trkpt><trkpt lat="55.7421674" lon="49.1068323"><time>2022-10-29T13:04:13.923</time></trkpt><trkpt lat="55.7421688" lon="49.1069846"><time>2022-10-29T13:04:15.910</time></trkpt><trkpt lat="55.7421713" lon="49.1071352"><time>2022-10-29T13:04:17.927</time></trkpt><trkpt lat="55.7421736" lon="49.1072976"><time>2022-10-29T13:04:19.913</time></trkpt><trkpt lat="55.7421717" lon="49.1073798"><time>2022-10-29T13:04:20.910</time></trkpt><trkpt lat="55.7421722" lon="49.1074619"><time>2022-10-29T13:04:21.890</time></trkpt><trkpt lat="55.7421694" lon="49.1075417"><time>2022-10-29T13:04:22.910</time></trkpt><trkpt lat="55.7421669" lon="49.1076949"><time>2022-10-29T13:04:24.883</time></trkpt><trkpt lat="55.7421670" lon="49.1077832"><time>2022-10-29T13:04:25.893</time></trkpt><trkpt lat="55.7421658" lon="49.1079413"><time>2022-10-29T13:04:27.880</time></trkpt><trkpt lat="55.7421604" lon="49.1080209"><time>2022-10-29T13:04:28.890</time></trkpt><trkpt lat="55.7421607" lon="49.1081046"><time>2022-10-29T13:04:29.897</time></trkpt><trkpt lat="55.7421570" lon="49.1081942"><time>2022-10-29T13:04:30.890</time></trkpt><trkpt lat="55.7421541" lon="49.1082787"><time>2022-10-29T13:04:31.903</time></trkpt><trkpt lat="55.7421542" lon="49.1083610"><time>2022-10-29T13:04:32.913</time></trkpt><trkpt lat="55.7421502" lon="49.1084582"><time>2022-10-29T13:04:33.893</time></trkpt><trkpt lat="55.7421459" lon="49.1085435"><time>2022-10-29T13:04:34.910</time></trkpt><trkpt lat="55.7421480" lon="49.1086327"><time>2022-10-29T13:04:35.913</time></trkpt><trkpt lat="55.7421567" lon="49.1087842"><time>2022-10-29T13:04:37.920</time></trkpt><trkpt lat="55.7421539" lon="49.1088687"><time>2022-10-29T13:04:38.907</time></trkpt><trkpt lat="55.7421488" lon="49.1090236"><time>2022-10-29T13:04:40.917</time></trkpt><trkpt lat="55.7421497" lon="49.1091107"><time>2022-10-29T13:04:41.913</time></trkpt><trkpt lat="55.7421490" lon="49.1091905"><time>2022-10-29T13:04:42.917</time></trkpt><trkpt lat="55.7421488" lon="49.1092884"><time>2022-10-29T13:04:43.917</time></trkpt><trkpt lat="55.7421490" lon="49.1094575"><time>2022-10-29T13:04:45.910</time></trkpt><trkpt lat="55.7421468" lon="49.1095413"><time>2022-10-29T13:04:46.917</time></trkpt><trkpt lat="55.7421547" lon="49.1096936"><time>2022-10-29T13:04:48.920</time></trkpt><trkpt lat="55.7421548" lon="49.1098504"><time>2022-10-29T13:04:50.927</time></trkpt><trkpt lat="55.7421624" lon="49.1099870"><time>2022-10-29T13:04:52.907</time></trkpt><trkpt lat="55.7421654" lon="49.1101242"><time>2022-10-29T13:04:54.917</time></trkpt><trkpt lat="55.7421600" lon="49.1102424"><time>2022-10-29T13:04:56.917</time></trkpt><trkpt lat="55.7421512" lon="49.1103392"><time>2022-10-29T13:04:58.910</time></trkpt><trkpt lat="55.7421491" lon="49.1104288"><time>2022-10-29T13:05:00.917</time></trkpt><trkpt lat="55.7421547" lon="49.1105149"><time>2022-10-29T13:05:02.937</time></trkpt><trkpt lat="55.7421512" lon="49.1105981"><time>2022-10-29T13:05:05.933</time></trkpt><trkpt lat="55.7421605" lon="49.1106851"><time>2022-10-29T13:05:41.927</time></trkpt><trkpt lat="55.7421794" lon="49.1108006"><time>2022-10-29T13:05:43.910</time></trkpt><trkpt lat="55.7421942" lon="49.1109381"><time>2022-10-29T13:05:45.880</time></trkpt><trkpt lat="55.7421950" lon="49.1110648"><time>2022-10-29T13:05:47.887</time></trkpt><trkpt lat="55.7421962" lon="49.1112093"><time>2022-10-29T13:05:49.893</time></trkpt><trkpt lat="55.7421997" lon="49.1113639"><time>2022-10-29T13:05:51.917</time></trkpt><trkpt lat="55.7422015" lon="49.1115130"><time>2022-10-29T13:05:53.887</time></trkpt><trkpt lat="55.7422025" lon="49.1116079"><time>2022-10-29T13:05:54.887</time></trkpt><trkpt lat="55.7422037" lon="49.1116943"><time>2022-10-29T13:05:55.897</time></trkpt><trkpt lat="55.7422084" lon="49.1117824"><time>2022-10-29T13:05:56.893</time></trkpt><trkpt lat="55.7422074" lon="49.1118711"><time>2022-10-29T13:05:57.883</time></trkpt><trkpt lat="55.7422107" lon="49.1119571"><time>2022-10-29T13:05:58.917</time></trkpt><trkpt lat="55.7422137" lon="49.1120387"><time>2022-10-29T13:05:59.910</time></trkpt><trkpt lat="55.7422167" lon="49.1121198"><time>2022-10-29T13:06:00.913</time></trkpt><trkpt lat="55.7422194" lon="49.1122041"><time>2022-10-29T13:06:01.913</time></trkpt><trkpt lat="55.7422203" lon="49.1122838"><time>2022-10-29T13:06:02.880</time></trkpt><trkpt lat="55.7422228" lon="49.1123708"><time>2022-10-29T13:06:03.930</time></trkpt><trkpt lat="55.7422235" lon="49.1124629"><time>2022-10-29T13:06:04.933</time></trkpt><trkpt lat="55.7422240" lon="49.1125491"><time>2022-10-29T13:06:05.917</time></trkpt><trkpt lat="55.7422278" lon="49.1126444"><time>2022-10-29T13:06:06.917</time></trkpt><trkpt lat="55.7422274" lon="49.1127319"><time>2022-10-29T13:06:07.910</time></trkpt><trkpt lat="55.7422334" lon="49.1128221"><time>2022-10-29T13:06:08.913</time></trkpt><trkpt lat="55.7422342" lon="49.1129140"><time>2022-10-29T13:06:09.923</time></trkpt><trkpt lat="55.7422327" lon="49.1130136"><time>2022-10-29T13:06:10.923</time></trkpt><trkpt lat="55.7422370" lon="49.1131081"><time>2022-10-29T13:06:11.903</time></trkpt><trkpt lat="55.7422362" lon="49.1132000"><time>2022-10-29T13:06:12.913</time></trkpt><trkpt lat="55.7422389" lon="49.1132967"><time>2022-10-29T13:06:13.923</time></trkpt><trkpt lat="55.7422419" lon="49.1133874"><time>2022-10-29T13:06:14.920</time></trkpt><trkpt lat="55.7422458" lon="49.1134824"><time>2022-10-29T13:06:15.923</time></trkpt><trkpt lat="55.7422454" lon="49.1135813"><time>2022-10-29T13:06:16.920</time></trkpt><trkpt lat="55.7422480" lon="49.1136786"><time>2022-10-29T13:06:17.913</time></trkpt><trkpt lat="55.7422457" lon="49.1137716"><time>2022-10-29T13:06:18.920</time></trkpt><trkpt lat="55.7422496" lon="49.1138649"><time>2022-10-29T13:06:19.907</time></trkpt><trkpt lat="55.7422547" lon="49.1139552"><time>2022-10-29T13:06:20.917</time></trkpt><trkpt lat="55.7422569" lon="49.1140513"><time>2022-10-29T13:06:21.920</time></trkpt><trkpt lat="55.7422592" lon="49.1141486"><time>2022-10-29T13:06:22.917</time></trkpt><trkpt lat="55.7422576" lon="49.1142439"><time>2022-10-29T13:06:23.913</time></trkpt><trkpt lat="55.7422621" lon="49.1143351"><time>2022-10-29T13:06:24.920</time></trkpt><trkpt lat="55.7422633" lon="49.1144295"><time>2022-10-29T13:06:25.917</time></trkpt><trkpt lat="55.7422673" lon="49.1145135"><time>2022-10-29T13:06:26.923</time></trkpt><trkpt lat="55.7422693" lon="49.1146034"><time>2022-10-29T13:06:27.883</time></trkpt><trkpt lat="55.7422714" lon="49.1146961"><time>2022-10-29T13:06:28.927</time></trkpt><trkpt lat="55.7422706" lon="49.1147844"><time>2022-10-29T13:06:29.887</time></trkpt><trkpt lat="55.7422750" lon="49.1148763"><time>2022-10-29T13:06:30.890</time></trkpt><trkpt lat="55.7422735" lon="49.1149683"><time>2022-10-29T13:06:31.880</time></trkpt><trkpt lat="55.7422723" lon="49.1150594"><time>2022-10-29T13:06:32.877</time></trkpt><trkpt lat="55.7422733" lon="49.1151521"><time>2022-10-29T13:06:34.910</time></trkpt><trkpt lat="55.7422686" lon="49.1152413"><time>2022-10-29T13:06:34.927</time></trkpt><trkpt lat="55.7422519" lon="49.1153157"><time>2022-10-29T13:06:35.883</time></trkpt><trkpt lat="55.7422259" lon="49.1153821"><time>2022-10-29T13:06:36.893</time></trkpt><trkpt lat="55.7421541" lon="49.1154575"><time>2022-10-29T13:06:38.897</time></trkpt><trkpt lat="55.7421035" lon="49.1154516"><time>2022-10-29T13:06:39.920</time></trkpt><trkpt lat="55.7420137" lon="49.1154426"><time>2022-10-29T13:06:41.913</time></trkpt><trkpt lat="55.7419682" lon="49.1154427"><time>2022-10-29T13:06:42.923</time></trkpt><trkpt lat="55.7418927" lon="49.1154406"><time>2022-10-29T13:06:44.923</time></trkpt><trkpt lat="55.7418151" lon="49.1154336"><time>2022-10-29T13:06:46.913</time></trkpt><trkpt lat="55.7417695" lon="49.1154272"><time>2022-10-29T13:06:47.913</time></trkpt><trkpt lat="55.7416895" lon="49.1154297"><time>2022-10-29T13:06:49.883</time></trkpt><trkpt lat="55.7416431" lon="49.1154203"><time>2022-10-29T13:06:50.877</time></trkpt><trkpt lat="55.7415627" lon="49.1154115"><time>2022-10-29T13:06:52.887</time></trkpt><trkpt lat="55.7414660" lon="49.1153900"><time>2022-10-29T13:06:54.893</time></trkpt><trkpt lat="55.7414194" lon="49.1154000"><time>2022-10-29T13:06:55.923</time></trkpt><trkpt lat="55.7413403" lon="49.1154042"><time>2022-10-29T13:06:57.890</time></trkpt><trkpt lat="55.7412946" lon="49.1154071"><time>2022-10-29T13:06:58.887</time></trkpt><trkpt lat="55.7412494" lon="49.1154121"><time>2022-10-29T13:06:59.920</time></trkpt><trkpt lat="55.7411560" lon="49.1154253"><time>2022-10-29T13:07:01.897</time></trkpt><trkpt lat="55.7410688" lon="49.1154073"><time>2022-10-29T13:07:03.897</time></trkpt><trkpt lat="55.7410232" lon="49.1154008"><time>2022-10-29T13:07:04.923</time></trkpt><trkpt lat="55.7409720" lon="49.1154024"><time>2022-10-29T13:07:05.913</time></trkpt><trkpt lat="55.7409220" lon="49.1154009"><time>2022-10-29T13:07:06.903</time></trkpt><trkpt lat="55.7408751" lon="49.1153934"><time>2022-10-29T13:07:07.913</time></trkpt><trkpt lat="55.7408243" lon="49.1153950"><time>2022-10-29T13:07:08.910</time></trkpt><trkpt lat="55.7407779" lon="49.1154027"><time>2022-10-29T13:07:09.920</time></trkpt><trkpt lat="55.7407318" lon="49.1154000"><time>2022-10-29T13:07:10.920</time></trkpt><trkpt lat="55.7406839" lon="49.1154025"><time>2022-10-29T13:07:11.927</time></trkpt><trkpt lat="55.7406350" lon="49.1153901"><time>2022-10-29T13:07:12.917</time></trkpt><trkpt lat="55.7405865" lon="49.1153949"><time>2022-10-29T13:07:13.933</time></trkpt><trkpt lat="55.7405375" lon="49.1153977"><time>2022-10-29T13:07:14.930</time></trkpt><trkpt lat="55.7404836" lon="49.1153909"><time>2022-10-29T13:07:15.910</time></trkpt><trkpt lat="55.7403876" lon="49.1153920"><time>2022-10-29T13:07:17.907</time></trkpt><trkpt lat="55.7403387" lon="49.1153931"><time>2022-10-29T13:07:18.883</time></trkpt><trkpt lat="55.7402829" lon="49.1153896"><time>2022-10-29T13:07:19.890</time></trkpt><trkpt lat="55.7401897" lon="49.1153961"><time>2022-10-29T13:07:21.893</time></trkpt><trkpt lat="55.7401442" lon="49.1153957"><time>2022-10-29T13:07:22.917</time></trkpt><trkpt lat="55.7400560" lon="49.1153934"><time>2022-10-29T13:07:24.923</time></trkpt><trkpt lat="55.7399770" lon="49.1153988"><time>2022-10-29T13:07:26.917</time></trkpt><trkpt lat="55.7399511" lon="49.1153914"><time>2022-10-29T13:07:28.100</time></trkpt><trkpt lat="55.7399055" lon="49.1153896"><time>2022-10-29T13:07:28.887</time></trkpt><trkpt lat="55.7398278" lon="49.1153969"><time>2022-10-29T13:07:30.893</time></trkpt><trkpt lat="55.7397432" lon="49.1153992"><time>2022-10-29T13:07:32.890</time></trkpt><trkpt lat="55.7396662" lon="49.1154015"><time>2022-10-29T13:07:34.893</time></trkpt><trkpt lat="55.7395895" lon="49.1153988"><time>2022-10-29T13:07:36.883</time></trkpt><trkpt lat="55.7394991" lon="49.1154031"><time>2022-10-29T13:07:38.883</time></trkpt><trkpt lat="55.7394530" lon="49.1154009"><time>2022-10-29T13:07:39.893</time></trkpt><trkpt lat="55.7394058" lon="49.1153931"><time>2022-10-29T13:07:40.910</time></trkpt><trkpt lat="55.7393584" lon="49.1153928"><time>2022-10-29T13:07:41.890</time></trkpt><trkpt lat="55.7393113" lon="49.1153953"><time>2022-10-29T13:07:42.890</time></trkpt><trkpt lat="55.7392651" lon="49.1153938"><time>2022-10-29T13:07:43.893</time></trkpt><trkpt lat="55.7391745" lon="49.1153971"><time>2022-10-29T13:07:45.890</time></trkpt><trkpt lat="55.7391293" lon="49.1153850"><time>2022-10-29T13:07:46.920</time></trkpt><trkpt lat="55.7390960" lon="49.1153794"><time>2022-10-29T13:07:48.047</time></trkpt><trkpt lat="55.7390353" lon="49.1153859"><time>2022-10-29T13:07:48.880</time></trkpt><trkpt lat="55.7389466" lon="49.1153790"><time>2022-10-29T13:07:50.893</time></trkpt><trkpt lat="55.7388546" lon="49.1153852"><time>2022-10-29T13:07:52.890</time></trkpt><trkpt lat="55.7387672" lon="49.1153691"><time>2022-10-29T13:07:54.890</time></trkpt><trkpt lat="55.7386807" lon="49.1153613"><time>2022-10-29T13:07:56.890</time></trkpt><trkpt lat="55.7386290" lon="49.1153639"><time>2022-10-29T13:07:57.923</time></trkpt><trkpt lat="55.7386004" lon="49.1153651"><time>2022-10-29T13:07:59.077</time></trkpt><trkpt lat="55.7385112" lon="49.1153570"><time>2022-10-29T13:08:00.887</time></trkpt><trkpt lat="55.7384610" lon="49.1153585"><time>2022-10-29T13:08:01.890</time></trkpt><trkpt lat="55.7383763" lon="49.1153855"><time>2022-10-29T13:08:03.943</time></trkpt><trkpt lat="55.7383763" lon="49.1153855"><time>2022-10-29T13:08:04.293</time></trkpt><trkpt lat="55.7383077" lon="49.1154439"><time>2022-10-29T13:08:05.940</time></trkpt><trkpt lat="55.7382979" lon="49.1154405"><time>2022-10-29T13:08:06.860</time></trkpt><trkpt lat="55.7382281" lon="49.1154588"><time>2022-10-29T13:08:08.890</time></trkpt><trkpt lat="55.7381808" lon="49.1154279"><time>2022-10-29T13:09:43.923</time></trkpt><trkpt lat="55.7381240" lon="49.1154259"><time>2022-10-29T13:09:47.920</time></trkpt><trkpt lat="55.7380629" lon="49.1153948"><time>2022-10-29T13:10:04.877</time></trkpt><trkpt lat="55.7380152" lon="49.1153275"><time>2022-10-29T13:10:06.880</time></trkpt><trkpt lat="55.7379483" lon="49.1152911"><time>2022-10-29T13:10:08.893</time></trkpt><trkpt lat="55.7378665" lon="49.1152903"><time>2022-10-29T13:10:10.893</time></trkpt><trkpt lat="55.7377760" lon="49.1153098"><time>2022-10-29T13:10:12.937</time></trkpt><trkpt lat="55.7377306" lon="49.1153110"><time>2022-10-29T13:10:13.927</time></trkpt><trkpt lat="55.7376839" lon="49.1153128"><time>2022-10-29T13:10:14.927</time></trkpt><trkpt lat="55.7375951" lon="49.1153169"><time>2022-10-29T13:10:16.920</time></trkpt><trkpt lat="55.7375403" lon="49.1153223"><time>2022-10-29T13:10:17.930</time></trkpt><trkpt lat="55.7374872" lon="49.1153204"><time>2022-10-29T13:10:18.923</time></trkpt><trkpt lat="55.7374347" lon="49.1153239"><time>2022-10-29T13:10:19.930</time></trkpt><trkpt lat="55.7373838" lon="49.1153208"><time>2022-10-29T13:10:20.930</time></trkpt><trkpt lat="55.7373323" lon="49.1153142"><time>2022-10-29T13:10:21.933</time></trkpt><trkpt lat="55.7372790" lon="49.1153101"><time>2022-10-29T13:10:22.943</time></trkpt><trkpt lat="55.7372265" lon="49.1152977"><time>2022-10-29T13:10:23.917</time></trkpt><trkpt lat="55.7371714" lon="49.1153008"><time>2022-10-29T13:10:24.930</time></trkpt><trkpt lat="55.7371238" lon="49.1152928"><time>2022-10-29T13:10:25.930</time></trkpt><trkpt lat="55.7370730" lon="49.1152840"><time>2022-10-29T13:10:26.937</time></trkpt><trkpt lat="55.7370233" lon="49.1152877"><time>2022-10-29T13:10:27.940</time></trkpt><trkpt lat="55.7369629" lon="49.1152833"><time>2022-10-29T13:10:28.930</time></trkpt><trkpt lat="55.7369076" lon="49.1152840"><time>2022-10-29T13:10:29.930</time></trkpt><trkpt lat="55.7368549" lon="49.1152804"><time>2022-10-29T13:10:30.927</time></trkpt><trkpt lat="55.7367949" lon="49.1152808"><time>2022-10-29T13:10:31.923</time></trkpt><trkpt lat="55.7367406" lon="49.1152751"><time>2022-10-29T13:10:32.933</time></trkpt><trkpt lat="55.7366853" lon="49.1152691"><time>2022-10-29T13:10:33.930</time></trkpt><trkpt lat="55.7366220" lon="49.1152694"><time>2022-10-29T13:10:34.897</time></trkpt><trkpt lat="55.7365662" lon="49.1152647"><time>2022-10-29T13:10:35.893</time></trkpt><trkpt lat="55.7365104" lon="49.1152581"><time>2022-10-29T13:10:36.887</time></trkpt><trkpt lat="55.7364515" lon="49.1152593"><time>2022-10-29T13:10:37.890</time></trkpt><trkpt lat="55.7363977" lon="49.1152587"><time>2022-10-29T13:10:38.897</time></trkpt><trkpt lat="55.7363501" lon="49.1152714"><time>2022-10-29T13:10:39.923</time></trkpt><trkpt lat="55.7362948" lon="49.1152766"><time>2022-10-29T13:10:40.920</time></trkpt><trkpt lat="55.7362445" lon="49.1152818"><time>2022-10-29T13:10:41.917</time></trkpt><trkpt lat="55.7361914" lon="49.1152770"><time>2022-10-29T13:10:42.923</time></trkpt><trkpt lat="55.7361398" lon="49.1152770"><time>2022-10-29T13:10:43.913</time></trkpt><trkpt lat="55.7360854" lon="49.1152735"><time>2022-10-29T13:10:44.883</time></trkpt><trkpt lat="55.7360289" lon="49.1152722"><time>2022-10-29T13:10:45.927</time></trkpt><trkpt lat="55.7359758" lon="49.1152691"><time>2022-10-29T13:10:46.930</time></trkpt><trkpt lat="55.7359202" lon="49.1152685"><time>2022-10-29T13:10:47.930</time></trkpt><trkpt lat="55.7358675" lon="49.1152676"><time>2022-10-29T13:10:48.943</time></trkpt><trkpt lat="55.7358189" lon="49.1152613"><time>2022-10-29T13:10:49.937</time></trkpt><trkpt lat="55.7357687" lon="49.1152632"><time>2022-10-29T13:10:50.973</time></trkpt><trkpt lat="55.7357174" lon="49.1152638"><time>2022-10-29T13:10:51.940</time></trkpt><trkpt lat="55.7356658" lon="49.1152675"><time>2022-10-29T13:10:52.917</time></trkpt><trkpt lat="55.7356142" lon="49.1152773"><time>2022-10-29T13:10:53.877</time></trkpt><trkpt lat="55.7355622" lon="49.1152959"><time>2022-10-29T13:10:54.890</time></trkpt><trkpt lat="55.7355075" lon="49.1153076"><time>2022-10-29T13:10:55.927</time></trkpt><trkpt lat="55.7354578" lon="49.1153258"><time>2022-10-29T13:10:56.933</time></trkpt><trkpt lat="55.7354059" lon="49.1153387"><time>2022-10-29T13:10:57.887</time></trkpt><trkpt lat="55.7353566" lon="49.1153350"><time>2022-10-29T13:10:58.893</time></trkpt><trkpt lat="55.7353070" lon="49.1153342"><time>2022-10-29T13:10:59.937</time></trkpt><trkpt lat="55.7352563" lon="49.1153259"><time>2022-10-29T13:11:00.880</time></trkpt><trkpt lat="55.7352033" lon="49.1153151"><time>2022-10-29T13:11:01.887</time></trkpt><trkpt lat="55.7351571" lon="49.1153112"><time>2022-10-29T13:11:02.910</time></trkpt><trkpt lat="55.7351052" lon="49.1152928"><time>2022-10-29T13:11:03.880</time></trkpt><trkpt lat="55.7350564" lon="49.1152880"><time>2022-10-29T13:11:04.897</time></trkpt><trkpt lat="55.7350042" lon="49.1152865"><time>2022-10-29T13:11:05.893</time></trkpt><trkpt lat="55.7349559" lon="49.1152832"><time>2022-10-29T13:11:06.893</time></trkpt><trkpt lat="55.7349078" lon="49.1152846"><time>2022-10-29T13:11:07.890</time></trkpt><trkpt lat="55.7348598" lon="49.1152873"><time>2022-10-29T13:11:08.893</time></trkpt><trkpt lat="55.7348134" lon="49.1152757"><time>2022-10-29T13:11:09.890</time></trkpt><trkpt lat="55.7347668" lon="49.1152722"><time>2022-10-29T13:11:10.893</time></trkpt><trkpt lat="55.7346770" lon="49.1152700"><time>2022-10-29T13:11:12.897</time></trkpt><trkpt lat="55.7346315" lon="49.1152671"><time>2022-10-29T13:11:13.897</time></trkpt><trkpt lat="55.7345520" lon="49.1152614"><time>2022-10-29T13:11:15.893</time></trkpt><trkpt lat="55.7344796" lon="49.1152629"><time>2022-10-29T13:11:17.897</time></trkpt><trkpt lat="55.7344110" lon="49.1152574"><time>2022-10-29T13:11:19.890</time></trkpt><trkpt lat="55.7343398" lon="49.1152550"><time>2022-10-29T13:11:21.930</time></trkpt><trkpt lat="55.7342688" lon="49.1152518"><time>2022-10-29T13:11:23.930</time></trkpt><trkpt lat="55.7341969" lon="49.1152513"><time>2022-10-29T13:11:25.927</time></trkpt><trkpt lat="55.7341249" lon="49.1152513"><time>2022-10-29T13:11:27.937</time></trkpt><trkpt lat="55.7340528" lon="49.1152477"><time>2022-10-29T13:11:29.940</time></trkpt><trkpt lat="55.7339804" lon="49.1152458"><time>2022-10-29T13:11:31.927</time></trkpt><trkpt lat="55.7339099" lon="49.1152479"><time>2022-10-29T13:11:33.890</time></trkpt><trkpt lat="55.7338381" lon="49.1152446"><time>2022-10-29T13:11:35.893</time></trkpt><trkpt lat="55.7337649" lon="49.1152408"><time>2022-10-29T13:11:37.940</time></trkpt><trkpt lat="55.7336914" lon="49.1152381"><time>2022-10-29T13:11:39.937</time></trkpt><trkpt lat="55.7336178" lon="49.1152363"><time>2022-10-29T13:11:41.937</time></trkpt><trkpt lat="55.7335420" lon="49.1152353"><time>2022-10-29T13:11:43.940</time></trkpt><trkpt lat="55.7334662" lon="49.1152294"><time>2022-10-29T13:11:45.933</time></trkpt><trkpt lat="55.7333851" lon="49.1152237"><time>2022-10-29T13:11:47.937</time></trkpt><trkpt lat="55.7333023" lon="49.1152145"><time>2022-10-29T13:11:49.940</time></trkpt><trkpt lat="55.7332171" lon="49.1152110"><time>2022-10-29T13:11:51.930</time></trkpt><trkpt lat="55.7331305" lon="49.1152098"><time>2022-10-29T13:11:53.930</time></trkpt><trkpt lat="55.7330445" lon="49.1152115"><time>2022-10-29T13:11:55.937</time></trkpt><trkpt lat="55.7329579" lon="49.1152119"><time>2022-10-29T13:11:57.940</time></trkpt><trkpt lat="55.7328774" lon="49.1152109"><time>2022-10-29T13:11:59.923</time></trkpt><trkpt lat="55.7327971" lon="49.1152119"><time>2022-10-29T13:12:01.937</time></trkpt><trkpt lat="55.7327153" lon="49.1152128"><time>2022-10-29T13:12:03.940</time></trkpt><trkpt lat="55.7326314" lon="49.1152124"><time>2022-10-29T13:12:05.910</time></trkpt><trkpt lat="55.7325437" lon="49.1152107"><time>2022-10-29T13:12:07.893</time></trkpt><trkpt lat="55.7324608" lon="49.1152119"><time>2022-10-29T13:12:09.893</time></trkpt><trkpt lat="55.7323744" lon="49.1152109"><time>2022-10-29T13:12:11.890</time></trkpt><trkpt lat="55.7322902" lon="49.1152046"><time>2022-10-29T13:12:13.953</time></trkpt><trkpt lat="55.7322069" lon="49.1152044"><time>2022-10-29T13:12:15.937</time></trkpt><trkpt lat="55.7321213" lon="49.1152083"><time>2022-10-29T13:12:17.937</time></trkpt><trkpt lat="55.7320336" lon="49.1152104"><time>2022-10-29T13:12:19.897</time></trkpt><trkpt lat="55.7319451" lon="49.1152099"><time>2022-10-29T13:12:21.897</time></trkpt><trkpt lat="55.7318552" lon="49.1152019"><time>2022-10-29T13:12:23.897</time></trkpt><trkpt lat="55.7318103" lon="49.1151971"><time>2022-10-29T13:12:24.897</time></trkpt><trkpt lat="55.7317232" lon="49.1151876"><time>2022-10-29T13:12:26.893</time></trkpt><trkpt lat="55.7316367" lon="49.1151809"><time>2022-10-29T13:12:28.883</time></trkpt><trkpt lat="55.7315612" lon="49.1151709"><time>2022-10-29T13:12:30.887</time></trkpt><trkpt lat="55.7314902" lon="49.1151651"><time>2022-10-29T13:12:32.887</time></trkpt><trkpt lat="55.7314155" lon="49.1151606"><time>2022-10-29T13:12:34.883</time></trkpt><trkpt lat="55.7313362" lon="49.1151603"><time>2022-10-29T13:12:36.897</time></trkpt><trkpt lat="55.7312620" lon="49.1151574"><time>2022-10-29T13:12:38.927</time></trkpt><trkpt lat="55.7311955" lon="49.1151518"><time>2022-10-29T13:12:40.883</time></trkpt><trkpt lat="55.7311375" lon="49.1151480"><time>2022-10-29T13:12:42.880</time></trkpt><trkpt lat="55.7310852" lon="49.1151421"><time>2022-10-29T13:12:44.893</time></trkpt><trkpt lat="55.7310407" lon="49.1151295"><time>2022-10-29T13:12:46.893</time></trkpt><trkpt lat="55.7309802" lon="49.1151238"><time>2022-10-29T13:12:49.890</time></trkpt><trkpt lat="55.7309548" lon="49.1152202"><time>2022-10-29T13:12:51.887</time></trkpt><trkpt lat="55.7309649" lon="49.1153485"><time>2022-10-29T13:12:53.923</time></trkpt><trkpt lat="55.7309704" lon="49.1154613"><time>2022-10-29T13:12:55.937</time></trkpt><trkpt lat="55.7309713" lon="49.1155415"><time>2022-10-29T13:13:05.893</time></trkpt><trkpt lat="55.7309751" lon="49.1156237"><time>2022-10-29T13:13:10.930</time></trkpt><trkpt lat="55.7309807" lon="49.1157129"><time>2022-10-29T13:13:12.927</time></trkpt><trkpt lat="55.7309816" lon="49.1158128"><time>2022-10-29T13:13:14.927</time></trkpt><trkpt lat="55.7309812" lon="49.1159196"><time>2022-10-29T13:13:16.923</time></trkpt><trkpt lat="55.7309813" lon="49.1160345"><time>2022-10-29T13:13:18.927</time></trkpt><trkpt lat="55.7309827" lon="49.1161471"><time>2022-10-29T13:13:20.947</time></trkpt><trkpt lat="55.7309821" lon="49.1162678"><time>2022-10-29T13:13:22.960</time></trkpt><trkpt lat="55.7309824" lon="49.1163866"><time>2022-10-29T13:13:24.957</time></trkpt><trkpt lat="55.7309817" lon="49.1165077"><time>2022-10-29T13:13:26.957</time></trkpt><trkpt lat="55.7309825" lon="49.1166360"><time>2022-10-29T13:13:28.940</time></trkpt><trkpt lat="55.7309829" lon="49.1167606"><time>2022-10-29T13:13:30.923</time></trkpt><trkpt lat="55.7309816" lon="49.1168844"><time>2022-10-29T13:13:32.960</time></trkpt><trkpt lat="55.7309804" lon="49.1170013"><time>2022-10-29T13:13:34.937</time></trkpt><trkpt lat="55.7309784" lon="49.1171133"><time>2022-10-29T13:13:36.930</time></trkpt><trkpt lat="55.7309767" lon="49.1172142"><time>2022-10-29T13:13:38.933</time></trkpt><trkpt lat="55.7309743" lon="49.1173234"><time>2022-10-29T13:13:40.927</time></trkpt><trkpt lat="55.7309683" lon="49.1174451"><time>2022-10-29T13:13:42.927</time></trkpt><trkpt lat="55.7309646" lon="49.1175651"><time>2022-10-29T13:13:44.913</time></trkpt><trkpt lat="55.7309657" lon="49.1176850"><time>2022-10-29T13:13:46.927</time></trkpt><trkpt lat="55.7309685" lon="49.1178014"><time>2022-10-29T13:13:48.930</time></trkpt><trkpt lat="55.7309678" lon="49.1179164"><time>2022-10-29T13:13:50.927</time></trkpt><trkpt lat="55.7309628" lon="49.1180530"><time>2022-10-29T13:13:52.927</time></trkpt><trkpt lat="55.7309581" lon="49.1181744"><time>2022-10-29T13:13:54.930</time></trkpt><trkpt lat="55.7309510" lon="49.1182945"><time>2022-10-29T13:13:56.933</time></trkpt><trkpt lat="55.7309444" lon="49.1184032"><time>2022-10-29T13:13:58.927</time></trkpt><trkpt lat="55.7309370" lon="49.1184880"><time>2022-10-29T13:14:00.927</time></trkpt><trkpt lat="55.7309255" lon="49.1185780"><time>2022-10-29T13:14:02.913</time></trkpt><trkpt lat="55.7309247" lon="49.1186783"><time>2022-10-29T13:14:04.923</time></trkpt><trkpt lat="55.7309394" lon="49.1187855"><time>2022-10-29T13:14:07.937</time></trkpt><trkpt lat="55.7309338" lon="49.1188919"><time>2022-10-29T13:14:09.927</time></trkpt><trkpt lat="55.7309232" lon="49.1190155"><time>2022-10-29T13:14:11.937</time></trkpt><trkpt lat="55.7309197" lon="49.1191459"><time>2022-10-29T13:14:13.883</time></trkpt><trkpt lat="55.7309190" lon="49.1192639"><time>2022-10-29T13:14:15.927</time></trkpt><trkpt lat="55.7309189" lon="49.1193727"><time>2022-10-29T13:14:17.933</time></trkpt><trkpt lat="55.7309172" lon="49.1194804"><time>2022-10-29T13:14:19.923</time></trkpt><trkpt lat="55.7309157" lon="49.1195940"><time>2022-10-29T13:14:21.930</time></trkpt><trkpt lat="55.7309149" lon="49.1197152"><time>2022-10-29T13:14:23.927</time></trkpt><trkpt lat="55.7309118" lon="49.1198353"><time>2022-10-29T13:14:25.933</time></trkpt><trkpt lat="55.7309113" lon="49.1199506"><time>2022-10-29T13:14:27.930</time></trkpt><trkpt lat="55.7309135" lon="49.1200641"><time>2022-10-29T13:14:29.937</time></trkpt><trkpt lat="55.7309123" lon="49.1201746"><time>2022-10-29T13:14:31.917</time></trkpt><trkpt lat="55.7309089" lon="49.1202738"><time>2022-10-29T13:14:33.893</time></trkpt><trkpt lat="55.7309062" lon="49.1203887"><time>2022-10-29T13:14:35.897</time></trkpt><trkpt lat="55.7309056" lon="49.1205156"><time>2022-10-29T13:14:37.913</time></trkpt><trkpt lat="55.7309135" lon="49.1206294"><time>2022-10-29T13:14:39.923</time></trkpt><trkpt lat="55.7309135" lon="49.1207558"><time>2022-10-29T13:14:41.933</time></trkpt><trkpt lat="55.7309106" lon="49.1208820"><time>2022-10-29T13:14:43.923</time></trkpt><trkpt lat="55.7309117" lon="49.1210139"><time>2022-10-29T13:14:45.943</time></trkpt><trkpt lat="55.7309110" lon="49.1211451"><time>2022-10-29T13:14:47.890</time></trkpt><trkpt lat="55.7309048" lon="49.1212608"><time>2022-10-29T13:14:49.937</time></trkpt><trkpt lat="55.7309003" lon="49.1213846"><time>2022-10-29T13:14:51.927</time></trkpt><trkpt lat="55.7309011" lon="49.1215168"><time>2022-10-29T13:14:53.930</time></trkpt><trkpt lat="55.7308995" lon="49.1216299"><time>2022-10-29T13:14:55.923</time></trkpt><trkpt lat="55.7308992" lon="49.1217454"><time>2022-10-29T13:14:57.927</time></trkpt><trkpt lat="55.7308963" lon="49.1218762"><time>2022-10-29T13:14:59.927</time></trkpt><trkpt lat="55.7308934" lon="49.1219670"><time>2022-10-29T13:15:01.923</time></trkpt><trkpt lat="55.7308945" lon="49.1220808"><time>2022-10-29T13:15:03.920</time></trkpt><trkpt lat="55.7308923" lon="49.1222054"><time>2022-10-29T13:15:05.890</time></trkpt><trkpt lat="55.7308914" lon="49.1223144"><time>2022-10-29T13:15:07.890</time></trkpt><trkpt lat="55.7308971" lon="49.1224311"><time>2022-10-29T13:15:09.927</time></trkpt><trkpt lat="55.7309133" lon="49.1225580"><time>2022-10-29T13:15:11.933</time></trkpt><trkpt lat="55.7309245" lon="49.1227018"><time>2022-10-29T13:15:13.937</time></trkpt><trkpt lat="55.7309274" lon="49.1228282"><time>2022-10-29T13:15:15.920</time></trkpt><trkpt lat="55.7309251" lon="49.1229576"><time>2022-10-29T13:15:17.927</time></trkpt><trkpt lat="55.7309250" lon="49.1230713"><time>2022-10-29T13:15:19.920</time></trkpt><trkpt lat="55.7309265" lon="49.1231825"><time>2022-10-29T13:15:21.927</time></trkpt><trkpt lat="55.7309278" lon="49.1233059"><time>2022-10-29T13:15:23.927</time></trkpt><trkpt lat="55.7309237" lon="49.1234345"><time>2022-10-29T13:15:25.930</time></trkpt><trkpt lat="55.7309211" lon="49.1235594"><time>2022-10-29T13:15:27.927</time></trkpt><trkpt lat="55.7309231" lon="49.1236890"><time>2022-10-29T13:15:29.923</time></trkpt><trkpt lat="55.7309257" lon="49.1238302"><time>2022-10-29T13:15:31.927</time></trkpt><trkpt lat="55.7309328" lon="49.1239650"><time>2022-10-29T13:15:33.927</time></trkpt><trkpt lat="55.7309366" lon="49.1240930"><time>2022-10-29T13:15:35.903</time></trkpt><trkpt lat="55.7309389" lon="49.1242202"><time>2022-10-29T13:15:37.930</time></trkpt><trkpt lat="55.7309398" lon="49.1243392"><time>2022-10-29T13:15:39.930</time></trkpt><trkpt lat="55.7309411" lon="49.1244420"><time>2022-10-29T13:15:41.920</time></trkpt><trkpt lat="55.7309268" lon="49.1245500"><time>2022-10-29T13:15:43.927</time></trkpt><trkpt lat="55.7309105" lon="49.1246816"><time>2022-10-29T13:15:45.923</time></trkpt><trkpt lat="55.7309035" lon="49.1248094"><time>2022-10-29T13:15:47.927</time></trkpt><trkpt lat="55.7309033" lon="49.1249254"><time>2022-10-29T13:15:49.923</time></trkpt><trkpt lat="55.7308973" lon="49.1250439"><time>2022-10-29T13:15:51.930</time></trkpt><trkpt lat="55.7308909" lon="49.1251521"><time>2022-10-29T13:15:53.923</time></trkpt><trkpt lat="55.7308871" lon="49.1252664"><time>2022-10-29T13:15:55.927</time></trkpt><trkpt lat="55.7308838" lon="49.1253797"><time>2022-10-29T13:15:57.923</time></trkpt><trkpt lat="55.7308778" lon="49.1254894"><time>2022-10-29T13:15:59.927</time></trkpt><trkpt lat="55.7308750" lon="49.1255697"><time>2022-10-29T13:16:02.927</time></trkpt><trkpt lat="55.7308782" lon="49.1256547"><time>2022-10-29T13:16:08.927</time></trkpt><trkpt lat="55.7308764" lon="49.1257433"><time>2022-10-29T13:16:13.937</time></trkpt><trkpt lat="55.7308814" lon="49.1258399"><time>2022-10-29T13:16:17.937</time></trkpt><trkpt lat="55.7308781" lon="49.1259320"><time>2022-10-29T13:16:31.943</time></trkpt><trkpt lat="55.7308850" lon="49.1260263"><time>2022-10-29T13:16:36.940</time></trkpt><trkpt lat="55.7308765" lon="49.1261174"><time>2022-10-29T13:16:41.937</time></trkpt><trkpt lat="55.7308666" lon="49.1262094"><time>2022-10-29T13:16:47.943</time></trkpt><trkpt lat="55.7308587" lon="49.1262932"><time>2022-10-29T13:16:57.933</time></trkpt><trkpt lat="55.7308570" lon="49.1263743"><time>2022-10-29T13:17:01.923</time></trkpt><trkpt lat="55.7308575" lon="49.1264600"><time>2022-10-29T13:17:05.893</time></trkpt><trkpt lat="55.7308612" lon="49.1265584"><time>2022-10-29T13:17:09.920</time></trkpt><trkpt lat="55.7308564" lon="49.1266551"><time>2022-10-29T13:17:13.927</time></trkpt><trkpt lat="55.7308518" lon="49.1267359"><time>2022-10-29T13:17:16.923</time></trkpt><trkpt lat="55.7308791" lon="49.1268056"><time>2022-10-29T13:17:21.930</time></trkpt><trkpt lat="55.7308962" lon="49.1268818"><time>2022-10-29T13:17:24.930</time></trkpt><trkpt lat="55.7308942" lon="49.1269783"><time>2022-10-29T13:17:28.937</time></trkpt><trkpt lat="55.7308953" lon="49.1270738"><time>2022-10-29T13:17:32.940</time></trkpt><trkpt lat="55.7308904" lon="49.1271626"><time>2022-10-29T13:17:56.933</time></trkpt><trkpt lat="55.7308928" lon="49.1272675"><time>2022-10-29T13:17:58.930</time></trkpt><trkpt lat="55.7308927" lon="49.1273793"><time>2022-10-29T13:18:00.937</time></trkpt><trkpt lat="55.7308978" lon="49.1274800"><time>2022-10-29T13:18:02.927</time></trkpt><trkpt lat="55.7308970" lon="49.1275913"><time>2022-10-29T13:18:04.933</time></trkpt><trkpt lat="55.7308890" lon="49.1277258"><time>2022-10-29T13:18:06.937</time></trkpt><trkpt lat="55.7308866" lon="49.1278492"><time>2022-10-29T13:18:08.937</time></trkpt><trkpt lat="55.7308840" lon="49.1279747"><time>2022-10-29T13:18:10.937</time></trkpt><trkpt lat="55.7308845" lon="49.1280920"><time>2022-10-29T13:18:12.930</time></trkpt><trkpt lat="55.7308887" lon="49.1282089"><time>2022-10-29T13:18:14.930</time></trkpt><trkpt lat="55.7308893" lon="49.1283175"><time>2022-10-29T13:18:16.930</time></trkpt><trkpt lat="55.7308847" lon="49.1284322"><time>2022-10-29T13:18:18.927</time></trkpt><trkpt lat="55.7308836" lon="49.1285477"><time>2022-10-29T13:18:20.930</time></trkpt><trkpt lat="55.7308819" lon="49.1286526"><time>2022-10-29T13:18:22.930</time></trkpt><trkpt lat="55.7308754" lon="49.1287527"><time>2022-10-29T13:18:24.930</time></trkpt><trkpt lat="55.7308668" lon="49.1288555"><time>2022-10-29T13:18:27.930</time></trkpt><trkpt lat="55.7308611" lon="49.1289375"><time>2022-10-29T13:18:29.930</time></trkpt><trkpt lat="55.7308658" lon="49.1290230"><time>2022-10-29T13:18:33.927</time></trkpt><trkpt lat="55.7308506" lon="49.1291054"><time>2022-10-29T13:18:37.933</time></trkpt><trkpt lat="55.7308288" lon="49.1292024"><time>2022-10-29T13:18:41.927</time></trkpt><trkpt lat="55.7308353" lon="49.1291223"><time>2022-10-29T13:19:30.933</time></trkpt><trkpt lat="55.7308357" lon="49.1290238"><time>2022-10-29T13:19:34.890</time></trkpt><trkpt lat="55.7308370" lon="49.1289372"><time>2022-10-29T13:19:38.940</time></trkpt><trkpt lat="55.7308613" lon="49.1288497"><time>2022-10-29T13:19:42.930</time></trkpt><trkpt lat="55.7308758" lon="49.1289282"><time>2022-10-29T13:19:57.923</time></trkpt><trkpt lat="55.7308660" lon="49.1290122"><time>2022-10-29T13:20:08.927</time></trkpt><trkpt lat="55.7308625" lon="49.1290977"><time>2022-10-29T13:20:16.927</time></trkpt><trkpt lat="55.7308473" lon="49.1291802"><time>2022-10-29T13:20:26.877</time></trkpt><trkpt lat="55.7308482" lon="49.1292707"><time>2022-10-29T13:20:33.927</time></trkpt><trkpt lat="55.7308585" lon="49.1293491"><time>2022-10-29T13:20:54.927</time></trkpt><trkpt lat="55.7308628" lon="49.1294349"><time>2022-10-29T13:22:01.910</time></trkpt><trkpt lat="55.7308550" lon="49.1295229"><time>2022-10-29T13:22:07.943</time></trkpt><trkpt lat="55.7308542" lon="49.1296038"><time>2022-10-29T13:22:14.890</time></trkpt><trkpt lat="55.7308534" lon="49.1296889"><time>2022-10-29T13:22:22.937</time></trkpt><trkpt lat="55.7308579" lon="49.1297705"><time>2022-10-29T13:22:29.927</time></trkpt><trkpt lat="55.7308661" lon="49.1298615"><time>2022-10-29T13:22:35.937</time></trkpt><trkpt lat="55.7308624" lon="49.1299428"><time>2022-10-29T13:22:39.947</time></trkpt><trkpt lat="55.7308630" lon="49.1300236"><time>2022-10-29T13:22:44.893</time></trkpt><trkpt lat="55.7308774" lon="49.1301155"><time>2022-10-29T13:23:06.907</time></trkpt><trkpt lat="55.7308637" lon="49.1302399"><time>2022-10-29T13:23:09.930</time></trkpt><trkpt lat="55.7308584" lon="49.1303647"><time>2022-10-29T13:23:11.933</time></trkpt><trkpt lat="55.7308521" lon="49.1304945"><time>2022-10-29T13:23:13.930</time></trkpt><trkpt lat="55.7308484" lon="49.1306191"><time>2022-10-29T13:23:15.927</time></trkpt><trkpt lat="55.7308509" lon="49.1307426"><time>2022-10-29T13:23:17.920</time></trkpt><trkpt lat="55.7308563" lon="49.1308404"><time>2022-10-29T13:23:19.890</time></trkpt><trkpt lat="55.7308565" lon="49.1309691"><time>2022-10-29T13:23:21.893</time></trkpt><trkpt lat="55.7308554" lon="49.1310962"><time>2022-10-29T13:23:23.927</time></trkpt><trkpt lat="55.7308549" lon="49.1312261"><time>2022-10-29T13:23:25.937</time></trkpt><trkpt lat="55.7308525" lon="49.1313547"><time>2022-10-29T13:23:27.967</time></trkpt><trkpt lat="55.7308482" lon="49.1314812"><time>2022-10-29T13:23:29.940</time></trkpt><trkpt lat="55.7308427" lon="49.1316064"><time>2022-10-29T13:23:31.953</time></trkpt><trkpt lat="55.7308374" lon="49.1316261"><time>2022-10-29T13:23:32.893</time></trkpt><trkpt lat="55.7308387" lon="49.1317455"><time>2022-10-29T13:23:34.893</time></trkpt><trkpt lat="55.7308442" lon="49.1318445"><time>2022-10-29T13:23:37.897</time></trkpt><trkpt lat="55.7308782" lon="49.1319357"><time>2022-10-29T13:23:54.887</time></trkpt><trkpt lat="55.7309336" lon="49.1319884"><time>2022-10-29T13:23:56.890</time></trkpt><trkpt lat="55.7310152" lon="49.1320067"><time>2022-10-29T13:23:58.890</time></trkpt><trkpt lat="55.7310898" lon="49.1320181"><time>2022-10-29T13:24:00.893</time></trkpt><trkpt lat="55.7311740" lon="49.1320277"><time>2022-10-29T13:24:02.933</time></trkpt><trkpt lat="55.7312563" lon="49.1320485"><time>2022-10-29T13:24:04.930</time></trkpt><trkpt lat="55.7313390" lon="49.1320810"><time>2022-10-29T13:24:06.923</time></trkpt><trkpt lat="55.7314240" lon="49.1321086"><time>2022-10-29T13:24:08.930</time></trkpt><trkpt lat="55.7315093" lon="49.1321264"><time>2022-10-29T13:24:10.933</time></trkpt><trkpt lat="55.7315957" lon="49.1321376"><time>2022-10-29T13:24:12.903</time></trkpt><trkpt lat="55.7316777" lon="49.1321378"><time>2022-10-29T13:24:14.923</time></trkpt><trkpt lat="55.7317467" lon="49.1320928"><time>2022-10-29T13:24:16.930</time></trkpt><trkpt lat="55.7317847" lon="49.1319955"><time>2022-10-29T13:24:18.927</time></trkpt><trkpt lat="55.7317892" lon="49.1318889"><time>2022-10-29T13:24:21.887</time></trkpt><trkpt lat="55.7318048" lon="49.1318050"><time>2022-10-29T13:24:25.923</time></trkpt><trkpt lat="55.7320137" lon="49.1315337"><time>2022-10-29T13:26:19.927</time></trkpt><trkpt lat="55.7318084" lon="49.1317410"><time>2022-10-29T13:26:23.967</time></trkpt><trkpt lat="55.7324567" lon="49.1312793"><time>2022-10-29T13:26:31.920</time></trkpt><trkpt lat="55.7319016" lon="49.1312771"><time>2022-10-29T13:28:15.920</time></trkpt><trkpt lat="55.7319377" lon="49.1313437"><time>2022-10-29T13:28:18.923</time></trkpt><trkpt lat="55.7318537" lon="49.1313794"><time>2022-10-29T13:28:20.917</time></trkpt><trkpt lat="55.7318139" lon="49.1314260"><time>2022-10-29T13:28:22.917</time></trkpt><trkpt lat="55.7317679" lon="49.1314597"><time>2022-10-29T13:28:24.890</time></trkpt><trkpt lat="55.7317743" lon="49.1315647"><time>2022-10-29T13:28:29.927</time></trkpt><trkpt lat="55.7317470" lon="49.1316364"><time>2022-10-29T13:29:58.930</time></trkpt><trkpt lat="55.7317096" lon="49.1316815"><time>2022-10-29T13:32:22.883</time></trkpt><trkpt lat="55.7317502" lon="49.1317629"><time>2022-10-29T13:56:03.927</time></trkpt><trkpt lat="55.7317828" lon="49.1318181"><time>2022-10-29T13:56:56.937</time></trkpt><trkpt lat="55.7317185" lon="49.1318081"><time>2022-10-29T13:57:21.927</time></trkpt><trkpt lat="55.7316534" lon="49.1317978"><time>2022-10-29T13:57:24.923</time></trkpt><trkpt lat="55.7316038" lon="49.1318010"><time>2022-10-29T13:57:26.917</time></trkpt><trkpt lat="55.7315399" lon="49.1318037"><time>2022-10-29T13:57:28.937</time></trkpt><trkpt lat="55.7314782" lon="49.1318101"><time>2022-10-29T13:57:30.910</time></trkpt><trkpt lat="55.7314211" lon="49.1318129"><time>2022-10-29T13:57:32.927</time></trkpt><trkpt lat="55.7313602" lon="49.1318281"><time>2022-10-29T13:57:34.890</time></trkpt><trkpt lat="55.7312971" lon="49.1318590"><time>2022-10-29T13:57:36.900</time></trkpt><trkpt lat="55.7312379" lon="49.1318938"><time>2022-10-29T13:57:38.897</time></trkpt><trkpt lat="55.7311771" lon="49.1319193"><time>2022-10-29T13:57:40.923</time></trkpt><trkpt lat="55.7311055" lon="49.1319294"><time>2022-10-29T13:57:42.920</time></trkpt><trkpt lat="55.7310340" lon="49.1319457"><time>2022-10-29T13:57:44.917</time></trkpt><trkpt lat="55.7309771" lon="49.1319596"><time>2022-10-29T13:57:46.917</time></trkpt><trkpt lat="55.7309294" lon="49.1319690"><time>2022-10-29T13:57:49.917</time></trkpt><trkpt lat="55.7308746" lon="49.1320012"><time>2022-10-29T13:57:53.917</time></trkpt><trkpt lat="55.7308398" lon="49.1320944"><time>2022-10-29T13:57:56.930</time></trkpt><trkpt lat="55.7308320" lon="49.1321974"><time>2022-10-29T13:57:58.927</time></trkpt><trkpt lat="55.7308231" lon="49.1323199"><time>2022-10-29T13:58:00.927</time></trkpt><trkpt lat="55.7308229" lon="49.1324390"><time>2022-10-29T13:58:02.937</time></trkpt><trkpt lat="55.7308243" lon="49.1325540"><time>2022-10-29T13:58:04.933</time></trkpt><trkpt lat="55.7308195" lon="49.1326718"><time>2022-10-29T13:58:06.927</time></trkpt><trkpt lat="55.7308187" lon="49.1327918"><time>2022-10-29T13:58:08.923</time></trkpt><trkpt lat="55.7308140" lon="49.1329083"><time>2022-10-29T13:58:10.923</time></trkpt><trkpt lat="55.7308063" lon="49.1330405"><time>2022-10-29T13:58:12.927</time></trkpt><trkpt lat="55.7308070" lon="49.1331686"><time>2022-10-29T13:58:14.917</time></trkpt><trkpt lat="55.7308110" lon="49.1332925"><time>2022-10-29T13:58:16.890</time></trkpt><trkpt lat="55.7308115" lon="49.1334167"><time>2022-10-29T13:58:18.897</time></trkpt><trkpt lat="55.7308096" lon="49.1335397"><time>2022-10-29T13:58:20.907</time></trkpt><trkpt lat="55.7308049" lon="49.1336528"><time>2022-10-29T13:58:22.920</time></trkpt><trkpt lat="55.7308051" lon="49.1337359"><time>2022-10-29T13:58:24.920</time></trkpt><trkpt lat="55.7308086" lon="49.1338243"><time>2022-10-29T13:58:26.923</time></trkpt><trkpt lat="55.7308079" lon="49.1339175"><time>2022-10-29T13:58:28.930</time></trkpt><trkpt lat="55.7308064" lon="49.1340116"><time>2022-10-29T13:58:31.917</time></trkpt><trkpt lat="55.7308182" lon="49.1340954"><time>2022-10-29T13:58:35.917</time></trkpt><trkpt lat="55.7308536" lon="49.1341584"><time>2022-10-29T13:58:39.920</time></trkpt><trkpt lat="55.7309028" lon="49.1341816"><time>2022-10-29T13:58:45.927</time></trkpt><trkpt lat="55.7309311" lon="49.1342653"><time>2022-10-29T13:58:48.933</time></trkpt><trkpt lat="55.7309322" lon="49.1343567"><time>2022-10-29T13:58:50.927</time></trkpt><trkpt lat="55.7309722" lon="49.1344059"><time>2022-10-29T13:58:55.963</time></trkpt><trkpt lat="55.7310238" lon="49.1343995"><time>2022-10-29T13:58:57.890</time></trkpt><trkpt lat="55.7310780" lon="49.1343928"><time>2022-10-29T13:58:59.897</time></trkpt><trkpt lat="55.7311293" lon="49.1343924"><time>2022-10-29T13:59:01.923</time></trkpt><trkpt lat="55.7311872" lon="49.1344306"><time>2022-10-29T13:59:04.920</time></trkpt><trkpt lat="55.7312133" lon="49.1344958"><time>2022-10-29T13:59:14.933</time></trkpt><trkpt lat="55.7311785" lon="49.1344437"><time>2022-10-29T13:59:51.920</time></trkpt><trkpt lat="55.7311169" lon="49.1344031"><time>2022-10-29T13:59:54.930</time></trkpt><trkpt lat="55.7310610" lon="49.1343867"><time>2022-10-29T13:59:56.927</time></trkpt><trkpt lat="55.7309984" lon="49.1343863"><time>2022-10-29T13:59:58.927</time></trkpt><trkpt lat="55.7309406" lon="49.1343842"><time>2022-10-29T14:00:01.920</time></trkpt><trkpt lat="55.7309087" lon="49.1343007"><time>2022-10-29T14:00:03.927</time></trkpt><trkpt lat="55.7309142" lon="49.1342009"><time>2022-10-29T14:00:06.933</time></trkpt><trkpt lat="55.7309439" lon="49.1341274"><time>2022-10-29T14:00:09.917</time></trkpt><trkpt lat="55.7309613" lon="49.1340257"><time>2022-10-29T14:00:12.917</time></trkpt><trkpt lat="55.7309890" lon="49.1339514"><time>2022-10-29T14:00:14.887</time></trkpt><trkpt lat="55.7310337" lon="49.1339053"><time>2022-10-29T14:00:16.897</time></trkpt><trkpt lat="55.7310818" lon="49.1338848"><time>2022-10-29T14:00:18.920</time></trkpt><trkpt lat="55.7311348" lon="49.1338848"><time>2022-10-29T14:00:20.917</time></trkpt><trkpt lat="55.7311835" lon="49.1338910"><time>2022-10-29T14:00:22.920</time></trkpt><trkpt lat="55.7312403" lon="49.1338988"><time>2022-10-29T14:00:24.970</time></trkpt><trkpt lat="55.7312569" lon="49.1339104"><time>2022-10-29T14:00:25.937</time></trkpt><trkpt lat="55.7313265" lon="49.1339146"><time>2022-10-29T14:00:27.933</time></trkpt><trkpt lat="55.7313794" lon="49.1339144"><time>2022-10-29T14:00:29.893</time></trkpt><trkpt lat="55.7314310" lon="49.1339124"><time>2022-10-29T14:00:31.890</time></trkpt><trkpt lat="55.7314796" lon="49.1339118"><time>2022-10-29T14:00:33.930</time></trkpt><trkpt lat="55.7315360" lon="49.1339122"><time>2022-10-29T14:00:35.927</time></trkpt><trkpt lat="55.7315878" lon="49.1339165"><time>2022-10-29T14:00:37.927</time></trkpt><trkpt lat="55.7316434" lon="49.1339180"><time>2022-10-29T14:00:39.927</time></trkpt><trkpt lat="55.7316979" lon="49.1339204"><time>2022-10-29T14:00:41.943</time></trkpt><trkpt lat="55.7317317" lon="49.1339299"><time>2022-10-29T14:00:43.087</time></trkpt><trkpt lat="55.7317817" lon="49.1339284"><time>2022-10-29T14:00:44.890</time></trkpt><trkpt lat="55.7318395" lon="49.1339257"><time>2022-10-29T14:00:47.890</time></trkpt><trkpt lat="55.7318978" lon="49.1339534"><time>2022-10-29T14:00:51.890</time></trkpt><trkpt lat="55.7319495" lon="49.1339802"><time>2022-10-29T14:00:54.937</time></trkpt><trkpt lat="55.7319495" lon="49.1339802"><time>2022-10-29T14:00:55.067</time></trkpt><trkpt lat="55.7320133" lon="49.1339866"><time>2022-10-29T14:00:58.937</time></trkpt><trkpt lat="55.7320351" lon="49.1339820"><time>2022-10-29T14:01:00.083</time></trkpt><trkpt lat="55.7320935" lon="49.1339659"><time>2022-10-29T14:01:34.917</time></trkpt><trkpt lat="55.7321470" lon="49.1339514"><time>2022-10-29T14:01:37.920</time></trkpt><trkpt lat="55.7321980" lon="49.1339188"><time>2022-10-29T14:01:40.917</time></trkpt><trkpt lat="55.7322449" lon="49.1339044"><time>2022-10-29T14:01:42.917</time></trkpt><trkpt lat="55.7323105" lon="49.1339022"><time>2022-10-29T14:01:45.923</time></trkpt><trkpt lat="55.7323730" lon="49.1339306"><time>2022-10-29T14:01:48.927</time></trkpt><trkpt lat="55.7324346" lon="49.1339483"><time>2022-10-29T14:01:51.920</time></trkpt><trkpt lat="55.7325090" lon="49.1339637"><time>2022-10-29T14:01:54.913</time></trkpt><trkpt lat="55.7325710" lon="49.1339701"><time>2022-10-29T14:01:56.920</time></trkpt><trkpt lat="55.7326290" lon="49.1339693"><time>2022-10-29T14:01:58.940</time></trkpt><trkpt lat="55.7326851" lon="49.1339651"><time>2022-10-29T14:02:00.910</time></trkpt><trkpt lat="55.7327388" lon="49.1339625"><time>2022-10-29T14:02:02.923</time></trkpt><trkpt lat="55.7327957" lon="49.1339599"><time>2022-10-29T14:02:04.940</time></trkpt><trkpt lat="55.7328530" lon="49.1339617"><time>2022-10-29T14:02:06.927</time></trkpt><trkpt lat="55.7329168" lon="49.1339620"><time>2022-10-29T14:02:08.887</time></trkpt><trkpt lat="55.7329818" lon="49.1339612"><time>2022-10-29T14:02:10.930</time></trkpt><trkpt lat="55.7330400" lon="49.1339586"><time>2022-10-29T14:02:12.883</time></trkpt><trkpt lat="55.7330940" lon="49.1339587"><time>2022-10-29T14:02:14.923</time></trkpt><trkpt lat="55.7331509" lon="49.1339596"><time>2022-10-29T14:02:16.897</time></trkpt><trkpt lat="55.7332085" lon="49.1339559"><time>2022-10-29T14:02:18.890</time></trkpt><trkpt lat="55.7332601" lon="49.1339452"><time>2022-10-29T14:02:20.913</time></trkpt><trkpt lat="55.7333097" lon="49.1339315"><time>2022-10-29T14:02:22.913</time></trkpt><trkpt lat="55.7333648" lon="49.1339154"><time>2022-10-29T14:02:25.913</time></trkpt><trkpt lat="55.7334199" lon="49.1339109"><time>2022-10-29T14:02:29.910</time></trkpt><trkpt lat="55.7334836" lon="49.1339031"><time>2022-10-29T14:02:31.923</time></trkpt><trkpt lat="55.7335442" lon="49.1338967"><time>2022-10-29T14:02:33.927</time></trkpt><trkpt lat="55.7335925" lon="49.1338892"><time>2022-10-29T14:02:35.883</time></trkpt><trkpt lat="55.7336504" lon="49.1338823"><time>2022-10-29T14:02:37.883</time></trkpt><trkpt lat="55.7337082" lon="49.1338812"><time>2022-10-29T14:02:39.893</time></trkpt><trkpt lat="55.7337687" lon="49.1338810"><time>2022-10-29T14:02:41.897</time></trkpt><trkpt lat="55.7338328" lon="49.1338895"><time>2022-10-29T14:02:43.897</time></trkpt><trkpt lat="55.7338992" lon="49.1338978"><time>2022-10-29T14:02:45.893</time></trkpt><trkpt lat="55.7339638" lon="49.1339015"><time>2022-10-29T14:02:47.900</time></trkpt><trkpt lat="55.7340274" lon="49.1339059"><time>2022-10-29T14:02:49.900</time></trkpt><trkpt lat="55.7340922" lon="49.1339136"><time>2022-10-29T14:02:51.897</time></trkpt><trkpt lat="55.7341545" lon="49.1339172"><time>2022-10-29T14:02:53.893</time></trkpt><trkpt lat="55.7342250" lon="49.1339209"><time>2022-10-29T14:02:55.893</time></trkpt><trkpt lat="55.7342891" lon="49.1339284"><time>2022-10-29T14:02:57.897</time></trkpt><trkpt lat="55.7343543" lon="49.1339272"><time>2022-10-29T14:02:59.890</time></trkpt><trkpt lat="55.7344160" lon="49.1339252"><time>2022-10-29T14:03:01.893</time></trkpt><trkpt lat="55.7344755" lon="49.1339249"><time>2022-10-29T14:03:03.893</time></trkpt><trkpt lat="55.7345371" lon="49.1339273"><time>2022-10-29T14:03:05.887</time></trkpt><trkpt lat="55.7345999" lon="49.1339306"><time>2022-10-29T14:03:07.893</time></trkpt><trkpt lat="55.7346593" lon="49.1339243"><time>2022-10-29T14:03:09.890</time></trkpt><trkpt lat="55.7347228" lon="49.1339270"><time>2022-10-29T14:03:11.890</time></trkpt><trkpt lat="55.7347814" lon="49.1339299"><time>2022-10-29T14:03:13.890</time></trkpt><trkpt lat="55.7348525" lon="49.1339329"><time>2022-10-29T14:03:16.890</time></trkpt><trkpt lat="55.7349123" lon="49.1339362"><time>2022-10-29T14:03:18.890</time></trkpt><trkpt lat="55.7349784" lon="49.1339328"><time>2022-10-29T14:03:20.890</time></trkpt><trkpt lat="55.7350317" lon="49.1339364"><time>2022-10-29T14:03:22.890</time></trkpt><trkpt lat="55.7350893" lon="49.1339368"><time>2022-10-29T14:03:24.890</time></trkpt><trkpt lat="55.7351557" lon="49.1339317"><time>2022-10-29T14:03:26.890</time></trkpt><trkpt lat="55.7352225" lon="49.1339398"><time>2022-10-29T14:03:28.893</time></trkpt><trkpt lat="55.7352910" lon="49.1339379"><time>2022-10-29T14:03:30.893</time></trkpt><trkpt lat="55.7353592" lon="49.1339295"><time>2022-10-29T14:03:32.897</time></trkpt><trkpt lat="55.7354282" lon="49.1339183"><time>2022-10-29T14:03:34.893</time></trkpt><trkpt lat="55.7354897" lon="49.1339092"><time>2022-10-29T14:03:36.897</time></trkpt><trkpt lat="55.7355569" lon="49.1339162"><time>2022-10-29T14:03:38.930</time></trkpt><trkpt lat="55.7356250" lon="49.1339148"><time>2022-10-29T14:03:40.923</time></trkpt><trkpt lat="55.7356846" lon="49.1338918"><time>2022-10-29T14:03:42.920</time></trkpt><trkpt lat="55.7357393" lon="49.1338724"><time>2022-10-29T14:03:44.920</time></trkpt><trkpt lat="55.7357918" lon="49.1338705"><time>2022-10-29T14:03:46.923</time></trkpt><trkpt lat="55.7358493" lon="49.1338620"><time>2022-10-29T14:03:48.917</time></trkpt><trkpt lat="55.7359106" lon="49.1338582"><time>2022-10-29T14:03:50.917</time></trkpt><trkpt lat="55.7359792" lon="49.1338538"><time>2022-10-29T14:03:52.917</time></trkpt><trkpt lat="55.7360465" lon="49.1338446"><time>2022-10-29T14:03:54.920</time></trkpt><trkpt lat="55.7361103" lon="49.1338336"><time>2022-10-29T14:03:56.917</time></trkpt><trkpt lat="55.7361817" lon="49.1338193"><time>2022-10-29T14:03:58.967</time></trkpt><trkpt lat="55.7362527" lon="49.1338108"><time>2022-10-29T14:04:00.897</time></trkpt><trkpt lat="55.7363203" lon="49.1338038"><time>2022-10-29T14:04:02.897</time></trkpt><trkpt lat="55.7363843" lon="49.1337950"><time>2022-10-29T14:04:04.920</time></trkpt><trkpt lat="55.7364396" lon="49.1337702"><time>2022-10-29T14:04:06.917</time></trkpt><trkpt lat="55.7364918" lon="49.1337395"><time>2022-10-29T14:04:08.917</time></trkpt><trkpt lat="55.7365418" lon="49.1337147"><time>2022-10-29T14:04:10.917</time></trkpt><trkpt lat="55.7365940" lon="49.1337026"><time>2022-10-29T14:04:12.913</time></trkpt><trkpt lat="55.7366389" lon="49.1337191"><time>2022-10-29T14:04:14.910</time></trkpt><trkpt lat="55.7366897" lon="49.1337321"><time>2022-10-29T14:04:16.917</time></trkpt><trkpt lat="55.7367433" lon="49.1337307"><time>2022-10-29T14:04:18.900</time></trkpt><trkpt lat="55.7368065" lon="49.1337188"><time>2022-10-29T14:04:20.920</time></trkpt><trkpt lat="55.7368672" lon="49.1337100"><time>2022-10-29T14:04:22.917</time></trkpt><trkpt lat="55.7369372" lon="49.1337009"><time>2022-10-29T14:04:24.893</time></trkpt><trkpt lat="55.7370037" lon="49.1336946"><time>2022-10-29T14:04:26.917</time></trkpt><trkpt lat="55.7370774" lon="49.1336857"><time>2022-10-29T14:04:28.877</time></trkpt><trkpt lat="55.7371378" lon="49.1336819"><time>2022-10-29T14:04:30.917</time></trkpt><trkpt lat="55.7372054" lon="49.1336696"><time>2022-10-29T14:04:32.910</time></trkpt><trkpt lat="55.7372625" lon="49.1336656"><time>2022-10-29T14:04:34.927</time></trkpt><trkpt lat="55.7373121" lon="49.1336585"><time>2022-10-29T14:04:36.920</time></trkpt><trkpt lat="55.7373719" lon="49.1336451"><time>2022-10-29T14:04:38.913</time></trkpt><trkpt lat="55.7374278" lon="49.1336413"><time>2022-10-29T14:04:40.893</time></trkpt><trkpt lat="55.7374834" lon="49.1336403"><time>2022-10-29T14:04:42.897</time></trkpt><trkpt lat="55.7375290" lon="49.1336294"><time>2022-10-29T14:04:44.917</time></trkpt><trkpt lat="55.7375886" lon="49.1336116"><time>2022-10-29T14:04:46.907</time></trkpt><trkpt lat="55.7376530" lon="49.1335956"><time>2022-10-29T14:04:48.913</time></trkpt><trkpt lat="55.7377195" lon="49.1335865"><time>2022-10-29T14:04:50.910</time></trkpt><trkpt lat="55.7377788" lon="49.1335778"><time>2022-10-29T14:04:52.920</time></trkpt><trkpt lat="55.7378334" lon="49.1335799"><time>2022-10-29T14:04:56.893</time></trkpt><trkpt lat="55.7378953" lon="49.1335775"><time>2022-10-29T14:04:59.927</time></trkpt><trkpt lat="55.7379486" lon="49.1335687"><time>2022-10-29T14:05:03.923</time></trkpt><trkpt lat="55.7380086" lon="49.1335563"><time>2022-10-29T14:05:06.917</time></trkpt><trkpt lat="55.7380795" lon="49.1335240"><time>2022-10-29T14:05:09.890</time></trkpt><trkpt lat="55.7381440" lon="49.1335045"><time>2022-10-29T14:05:11.893</time></trkpt><trkpt lat="55.7382019" lon="49.1334900"><time>2022-10-29T14:05:13.920</time></trkpt><trkpt lat="55.7382598" lon="49.1334810"><time>2022-10-29T14:05:15.907</time></trkpt><trkpt lat="55.7383195" lon="49.1334769"><time>2022-10-29T14:05:17.880</time></trkpt><trkpt lat="55.7383760" lon="49.1334621"><time>2022-10-29T14:05:19.880</time></trkpt><trkpt lat="55.7384353" lon="49.1334452"><time>2022-10-29T14:05:22.887</time></trkpt><trkpt lat="55.7384874" lon="49.1334319"><time>2022-10-29T14:05:24.887</time></trkpt><trkpt lat="55.7385556" lon="49.1334080"><time>2022-10-29T14:05:26.927</time></trkpt><trkpt lat="55.7386175" lon="49.1333871"><time>2022-10-29T14:05:28.883</time></trkpt><trkpt lat="55.7386871" lon="49.1333792"><time>2022-10-29T14:05:30.883</time></trkpt><trkpt lat="55.7387509" lon="49.1333794"><time>2022-10-29T14:05:32.883</time></trkpt><trkpt lat="55.7388122" lon="49.1333710"><time>2022-10-29T14:05:34.883</time></trkpt><trkpt lat="55.7388732" lon="49.1333649"><time>2022-10-29T14:05:36.977</time></trkpt><trkpt lat="55.7389316" lon="49.1333467"><time>2022-10-29T14:05:38.897</time></trkpt><trkpt lat="55.7389887" lon="49.1333309"><time>2022-10-29T14:05:40.887</time></trkpt><trkpt lat="55.7390380" lon="49.1333237"><time>2022-10-29T14:05:42.897</time></trkpt><trkpt lat="55.7390823" lon="49.1333106"><time>2022-10-29T14:05:44.910</time></trkpt><trkpt lat="55.7391308" lon="49.1333019"><time>2022-10-29T14:05:46.977</time></trkpt><trkpt lat="55.7391770" lon="49.1332878"><time>2022-10-29T14:05:49.900</time></trkpt><trkpt lat="55.7392201" lon="49.1332610"><time>2022-10-29T14:05:56.907</time></trkpt><trkpt lat="55.7392675" lon="49.1332819"><time>2022-10-29T14:06:16.900</time></trkpt><trkpt lat="55.7393181" lon="49.1332847"><time>2022-10-29T14:06:20.927</time></trkpt><trkpt lat="55.7393635" lon="49.1332836"><time>2022-10-29T14:06:59.893</time></trkpt><trkpt lat="55.7394129" lon="49.1332781"><time>2022-10-29T14:07:01.897</time></trkpt><trkpt lat="55.7394649" lon="49.1332438"><time>2022-10-29T14:07:05.920</time></trkpt><trkpt lat="55.7395053" lon="49.1332037"><time>2022-10-29T14:07:08.927</time></trkpt><trkpt lat="55.7395457" lon="49.1331644"><time>2022-10-29T14:07:11.927</time></trkpt><trkpt lat="55.7395636" lon="49.1330865"><time>2022-10-29T14:07:14.947</time></trkpt><trkpt lat="55.7395702" lon="49.1330035"><time>2022-10-29T14:07:22.920</time></trkpt><trkpt lat="55.7395543" lon="49.1329116"><time>2022-10-29T14:07:33.920</time></trkpt><trkpt lat="55.7395535" lon="49.1327825"><time>2022-10-29T14:07:35.887</time></trkpt><trkpt lat="55.7395496" lon="49.1326501"><time>2022-10-29T14:07:37.897</time></trkpt><trkpt lat="55.7395383" lon="49.1325042"><time>2022-10-29T14:07:39.890</time></trkpt><trkpt lat="55.7395303" lon="49.1323867"><time>2022-10-29T14:07:41.880</time></trkpt><trkpt lat="55.7395231" lon="49.1322763"><time>2022-10-29T14:07:43.887</time></trkpt><trkpt lat="55.7395100" lon="49.1321197"><time>2022-10-29T14:07:45.877</time></trkpt><trkpt lat="55.7395058" lon="49.1320396"><time>2022-10-29T14:07:46.883</time></trkpt><trkpt lat="55.7394993" lon="49.1318852"><time>2022-10-29T14:07:48.887</time></trkpt><trkpt lat="55.7394838" lon="49.1317541"><time>2022-10-29T14:07:50.883</time></trkpt><trkpt lat="55.7394690" lon="49.1316604"><time>2022-10-29T14:07:57.893</time></trkpt><trkpt lat="55.7394699" lon="49.1315711"><time>2022-10-29T14:08:02.893</time></trkpt><trkpt lat="55.7394645" lon="49.1314919"><time>2022-10-29T14:08:05.900</time></trkpt><trkpt lat="55.7394610" lon="49.1313970"><time>2022-10-29T14:08:09.960</time></trkpt><trkpt lat="55.7394530" lon="49.1313564"><time>2022-10-29T14:08:12.067</time></trkpt><trkpt lat="55.7394510" lon="49.1312479"><time>2022-10-29T14:08:15.893</time></trkpt><trkpt lat="55.7394396" lon="49.1311506"><time>2022-10-29T14:08:19.907</time></trkpt><trkpt lat="55.7394227" lon="49.1310576"><time>2022-10-29T14:08:22.900</time></trkpt><trkpt lat="55.7394111" lon="49.1309737"><time>2022-10-29T14:08:25.910</time></trkpt><trkpt lat="55.7394032" lon="49.1308761"><time>2022-10-29T14:08:28.917</time></trkpt><trkpt lat="55.7393920" lon="49.1307712"><time>2022-10-29T14:08:32.910</time></trkpt><trkpt lat="55.7393842" lon="49.1306612"><time>2022-10-29T14:08:36.907</time></trkpt><trkpt lat="55.7393824" lon="49.1305627"><time>2022-10-29T14:08:40.900</time></trkpt><trkpt lat="55.7393806" lon="49.1304603"><time>2022-10-29T14:08:44.893</time></trkpt><trkpt lat="55.7393927" lon="49.1303829"><time>2022-10-29T14:08:48.893</time></trkpt><trkpt lat="55.7393859" lon="49.1302942"><time>2022-10-29T14:08:51.913</time></trkpt><trkpt lat="55.7393877" lon="49.1302011"><time>2022-10-29T14:08:54.883</time></trkpt><trkpt lat="55.7393892" lon="49.1300937"><time>2022-10-29T14:08:58.893</time></trkpt><trkpt lat="55.7394005" lon="49.1300066"><time>2022-10-29T14:09:01.917</time></trkpt><trkpt lat="55.7394132" lon="49.1299179"><time>2022-10-29T14:09:04.917</time></trkpt><trkpt lat="55.7394307" lon="49.1298234"><time>2022-10-29T14:09:07.903</time></trkpt><trkpt lat="55.7394572" lon="49.1297339"><time>2022-10-29T14:09:10.923</time></trkpt><trkpt lat="55.7394866" lon="49.1296400"><time>2022-10-29T14:09:13.953</time></trkpt><trkpt lat="55.7394950" lon="49.1296122"><time>2022-10-29T14:09:15.080</time></trkpt><trkpt lat="55.7395327" lon="49.1295147"><time>2022-10-29T14:09:17.893</time></trkpt><trkpt lat="55.7395540" lon="49.1294423"><time>2022-10-29T14:09:19.917</time></trkpt><trkpt lat="55.7395808" lon="49.1293563"><time>2022-10-29T14:09:22.897</time></trkpt><trkpt lat="55.7396078" lon="49.1292803"><time>2022-10-29T14:09:25.897</time></trkpt><trkpt lat="55.7396326" lon="49.1291979"><time>2022-10-29T14:09:28.900</time></trkpt><trkpt lat="55.7396532" lon="49.1291160"><time>2022-10-29T14:09:31.893</time></trkpt><trkpt lat="55.7396745" lon="49.1290336"><time>2022-10-29T14:09:34.890</time></trkpt><trkpt lat="55.7396963" lon="49.1289462"><time>2022-10-29T14:09:37.927</time></trkpt><trkpt lat="55.7397172" lon="49.1288597"><time>2022-10-29T14:09:40.927</time></trkpt><trkpt lat="55.7397197" lon="49.1288261"><time>2022-10-29T14:09:42.070</time></trkpt><trkpt lat="55.7397503" lon="49.1287355"><time>2022-10-29T14:09:44.893</time></trkpt><trkpt lat="55.7397883" lon="49.1286495"><time>2022-10-29T14:09:47.893</time></trkpt><trkpt lat="55.7398305" lon="49.1285662"><time>2022-10-29T14:09:50.897</time></trkpt><trkpt lat="55.7398693" lon="49.1284845"><time>2022-10-29T14:09:53.893</time></trkpt><trkpt lat="55.7399123" lon="49.1284192"><time>2022-10-29T14:09:56.943</time></trkpt><trkpt lat="55.7399123" lon="49.1284192"><time>2022-10-29T14:09:57.210</time></trkpt><trkpt lat="55.7399539" lon="49.1283744"><time>2022-10-29T14:09:59.937</time></trkpt><trkpt lat="55.7399625" lon="49.1283798"><time>2022-10-29T14:10:01.057</time></trkpt><trkpt lat="55.7399386" lon="49.1284568"><time>2022-10-29T14:10:56.903</time></trkpt><trkpt lat="55.7398963" lon="49.1285043"><time>2022-10-29T14:10:59.917</time></trkpt><trkpt lat="55.7398457" lon="49.1285875"><time>2022-10-29T14:11:02.963</time></trkpt><trkpt lat="55.7398166" lon="49.1286534"><time>2022-10-29T14:11:04.930</time></trkpt><trkpt lat="55.7397766" lon="49.1287398"><time>2022-10-29T14:11:07.920</time></trkpt><trkpt lat="55.7397401" lon="49.1288259"><time>2022-10-29T14:11:10.927</time></trkpt><trkpt lat="55.7397040" lon="49.1289242"><time>2022-10-29T14:11:13.923</time></trkpt><trkpt lat="55.7396723" lon="49.1290308"><time>2022-10-29T14:11:16.920</time></trkpt><trkpt lat="55.7396529" lon="49.1291076"><time>2022-10-29T14:11:18.897</time></trkpt><trkpt lat="55.7396328" lon="49.1291913"><time>2022-10-29T14:11:20.900</time></trkpt><trkpt lat="55.7396032" lon="49.1292911"><time>2022-10-29T14:11:23.897</time></trkpt><trkpt lat="55.7395759" lon="49.1293786"><time>2022-10-29T14:11:25.897</time></trkpt><trkpt lat="55.7395506" lon="49.1294555"><time>2022-10-29T14:11:27.900</time></trkpt><trkpt lat="55.7395275" lon="49.1295366"><time>2022-10-29T14:11:29.897</time></trkpt><trkpt lat="55.7395095" lon="49.1296114"><time>2022-10-29T14:11:31.890</time></trkpt><trkpt lat="55.7394807" lon="49.1297097"><time>2022-10-29T14:11:34.890</time></trkpt><trkpt lat="55.7394635" lon="49.1298027"><time>2022-10-29T14:11:37.897</time></trkpt><trkpt lat="55.7394436" lon="49.1298989"><time>2022-10-29T14:11:40.927</time></trkpt><trkpt lat="55.7394191" lon="49.1299795"><time>2022-10-29T14:11:43.893</time></trkpt><trkpt lat="55.7394040" lon="49.1300657"><time>2022-10-29T14:11:46.893</time></trkpt><trkpt lat="55.7393873" lon="49.1301512"><time>2022-10-29T14:11:49.920</time></trkpt><trkpt lat="55.7393910" lon="49.1302551"><time>2022-10-29T14:11:52.930</time></trkpt><trkpt lat="55.7393922" lon="49.1303708"><time>2022-10-29T14:11:55.890</time></trkpt><trkpt lat="55.7393871" lon="49.1304515"><time>2022-10-29T14:11:57.893</time></trkpt><trkpt lat="55.7393771" lon="49.1305513"><time>2022-10-29T14:12:00.893</time></trkpt><trkpt lat="55.7393763" lon="49.1306520"><time>2022-10-29T14:12:02.893</time></trkpt><trkpt lat="55.7393823" lon="49.1307514"><time>2022-10-29T14:12:04.893</time></trkpt><trkpt lat="55.7393937" lon="49.1308325"><time>2022-10-29T14:12:06.927</time></trkpt><trkpt lat="55.7394062" lon="49.1309181"><time>2022-10-29T14:12:08.923</time></trkpt><trkpt lat="55.7394186" lon="49.1310318"><time>2022-10-29T14:12:11.923</time></trkpt><trkpt lat="55.7394292" lon="49.1311444"><time>2022-10-29T14:12:14.943</time></trkpt><trkpt lat="55.7394340" lon="49.1312556"><time>2022-10-29T14:12:17.897</time></trkpt><trkpt lat="55.7394336" lon="49.1313663"><time>2022-10-29T14:12:20.933</time></trkpt><trkpt lat="55.7394407" lon="49.1314702"><time>2022-10-29T14:12:24.893</time></trkpt><trkpt lat="55.7394367" lon="49.1315759"><time>2022-10-29T14:12:28.923</time></trkpt><trkpt lat="55.7394316" lon="49.1316701"><time>2022-10-29T14:12:31.903</time></trkpt><trkpt lat="55.7394331" lon="49.1317591"><time>2022-10-29T14:12:34.927</time></trkpt><trkpt lat="55.7394338" lon="49.1318745"><time>2022-10-29T14:12:37.917</time></trkpt><trkpt lat="55.7394406" lon="49.1319967"><time>2022-10-29T14:12:40.927</time></trkpt><trkpt lat="55.7394488" lon="49.1320801"><time>2022-10-29T14:12:42.927</time></trkpt><trkpt lat="55.7394529" lon="49.1321710"><time>2022-10-29T14:12:44.900</time></trkpt><trkpt lat="55.7394552" lon="49.1322537"><time>2022-10-29T14:12:46.933</time></trkpt><trkpt lat="55.7394613" lon="49.1323471"><time>2022-10-29T14:12:48.967</time></trkpt><trkpt lat="55.7394686" lon="49.1324608"><time>2022-10-29T14:12:50.887</time></trkpt><trkpt lat="55.7394741" lon="49.1325854"><time>2022-10-29T14:12:52.897</time></trkpt><trkpt lat="55.7394792" lon="49.1327094"><time>2022-10-29T14:12:54.897</time></trkpt><trkpt lat="55.7394933" lon="49.1328292"><time>2022-10-29T14:12:56.923</time></trkpt><trkpt lat="55.7395114" lon="49.1329435"><time>2022-10-29T14:12:58.897</time></trkpt><trkpt lat="55.7395290" lon="49.1330208"><time>2022-10-29T14:13:00.943</time></trkpt><trkpt lat="55.7395704" lon="49.1330720"><time>2022-10-29T14:13:03.913</time></trkpt><trkpt lat="55.7396202" lon="49.1330865"><time>2022-10-29T14:13:05.927</time></trkpt><trkpt lat="55.7396727" lon="49.1330860"><time>2022-10-29T14:13:07.897</time></trkpt><trkpt lat="55.7397335" lon="49.1330714"><time>2022-10-29T14:13:10.923</time></trkpt><trkpt lat="55.7397801" lon="49.1330216"><time>2022-10-29T14:13:15.923</time></trkpt><trkpt lat="55.7398113" lon="49.1329532"><time>2022-10-29T14:13:21.923</time></trkpt><trkpt lat="55.7398578" lon="49.1329556"><time>2022-10-29T14:13:27.923</time></trkpt><trkpt lat="55.7398951" lon="49.1330080"><time>2022-10-29T14:13:33.923</time></trkpt><trkpt lat="55.7399327" lon="49.1330602"><time>2022-10-29T14:13:46.900</time></trkpt><trkpt lat="55.7399984" lon="49.1330613"><time>2022-10-29T14:13:49.897</time></trkpt><trkpt lat="55.7400496" lon="49.1330521"><time>2022-10-29T14:13:51.897</time></trkpt><trkpt lat="55.7401070" lon="49.1330431"><time>2022-10-29T14:13:53.927</time></trkpt><trkpt lat="55.7401578" lon="49.1330296"><time>2022-10-29T14:13:55.920</time></trkpt><trkpt lat="55.7402065" lon="49.1330172"><time>2022-10-29T14:13:57.930</time></trkpt><trkpt lat="55.7402557" lon="49.1330054"><time>2022-10-29T14:13:59.923</time></trkpt><trkpt lat="55.7403025" lon="49.1330003"><time>2022-10-29T14:14:01.923</time></trkpt><trkpt lat="55.7403519" lon="49.1329962"><time>2022-10-29T14:14:03.900</time></trkpt><trkpt lat="55.7403978" lon="49.1329747"><time>2022-10-29T14:14:05.900</time></trkpt><trkpt lat="55.7404589" lon="49.1329322"><time>2022-10-29T14:14:08.923</time></trkpt><trkpt lat="55.7405103" lon="49.1329311"><time>2022-10-29T14:14:11.927</time></trkpt><trkpt lat="55.7405562" lon="49.1329428"><time>2022-10-29T14:14:14.927</time></trkpt><trkpt lat="55.7406213" lon="49.1329286"><time>2022-10-29T14:14:17.930</time></trkpt><trkpt lat="55.7406607" lon="49.1328900"><time>2022-10-29T14:14:25.927</time></trkpt><trkpt lat="55.7407119" lon="49.1328660"><time>2022-10-29T14:14:52.897</time></trkpt><trkpt lat="55.7407639" lon="49.1328623"><time>2022-10-29T14:14:54.897</time></trkpt><trkpt lat="55.7408249" lon="49.1328574"><time>2022-10-29T14:14:56.897</time></trkpt><trkpt lat="55.7408827" lon="49.1328512"><time>2022-10-29T14:14:58.920</time></trkpt><trkpt lat="55.7409465" lon="49.1328457"><time>2022-10-29T14:15:01.930</time></trkpt><trkpt lat="55.7410106" lon="49.1328408"><time>2022-10-29T14:15:04.923</time></trkpt><trkpt lat="55.7410627" lon="49.1328381"><time>2022-10-29T14:15:06.920</time></trkpt><trkpt lat="55.7411077" lon="49.1328347"><time>2022-10-29T14:15:08.930</time></trkpt><trkpt lat="55.7411648" lon="49.1328135"><time>2022-10-29T14:15:11.923</time></trkpt><trkpt lat="55.7412148" lon="49.1327950"><time>2022-10-29T14:15:13.957</time></trkpt><trkpt lat="55.7412799" lon="49.1327705"><time>2022-10-29T14:15:15.897</time></trkpt><trkpt lat="55.7413388" lon="49.1327512"><time>2022-10-29T14:15:17.897</time></trkpt><trkpt lat="55.7413988" lon="49.1327400"><time>2022-10-29T14:15:19.917</time></trkpt><trkpt lat="55.7414577" lon="49.1327292"><time>2022-10-29T14:15:21.920</time></trkpt><trkpt lat="55.7415162" lon="49.1327105"><time>2022-10-29T14:15:23.890</time></trkpt><trkpt lat="55.7415867" lon="49.1326886"><time>2022-10-29T14:15:25.930</time></trkpt><trkpt lat="55.7416529" lon="49.1326676"><time>2022-10-29T14:15:27.917</time></trkpt><trkpt lat="55.7417165" lon="49.1326451"><time>2022-10-29T14:15:29.920</time></trkpt><trkpt lat="55.7417854" lon="49.1326258"><time>2022-10-29T14:15:31.933</time></trkpt><trkpt lat="55.7418477" lon="49.1326069"><time>2022-10-29T14:15:33.933</time></trkpt><trkpt lat="55.7419095" lon="49.1325899"><time>2022-10-29T14:15:35.923</time></trkpt><trkpt lat="55.7419717" lon="49.1325754"><time>2022-10-29T14:15:37.923</time></trkpt><trkpt lat="55.7420322" lon="49.1325627"><time>2022-10-29T14:15:39.920</time></trkpt><trkpt lat="55.7420804" lon="49.1325485"><time>2022-10-29T14:15:41.930</time></trkpt><trkpt lat="55.7421454" lon="49.1325368"><time>2022-10-29T14:15:43.917</time></trkpt><trkpt lat="55.7422084" lon="49.1325299"><time>2022-10-29T14:15:45.927</time></trkpt><trkpt lat="55.7422708" lon="49.1325164"><time>2022-10-29T14:15:47.923</time></trkpt><trkpt lat="55.7423266" lon="49.1325016"><time>2022-10-29T14:15:49.927</time></trkpt><trkpt lat="55.7423814" lon="49.1324895"><time>2022-10-29T14:15:51.900</time></trkpt><trkpt lat="55.7424430" lon="49.1324840"><time>2022-10-29T14:15:53.920</time></trkpt><trkpt lat="55.7424901" lon="49.1324847"><time>2022-10-29T14:15:55.927</time></trkpt><trkpt lat="55.7425527" lon="49.1324841"><time>2022-10-29T14:15:58.917</time></trkpt><trkpt lat="55.7426045" lon="49.1324978"><time>2022-10-29T14:16:01.913</time></trkpt><trkpt lat="55.7426381" lon="49.1325557"><time>2022-10-29T14:16:03.920</time></trkpt><trkpt lat="55.7426742" lon="49.1326058"><time>2022-10-29T14:16:10.923</time></trkpt><trkpt lat="55.7427336" lon="49.1326514"><time>2022-10-29T14:16:24.893</time></trkpt><trkpt lat="55.7427832" lon="49.1326476"><time>2022-10-29T14:16:26.910</time></trkpt><trkpt lat="55.7428269" lon="49.1326113"><time>2022-10-29T14:16:28.900</time></trkpt><trkpt lat="55.7428835" lon="49.1326062"><time>2022-10-29T14:16:30.917</time></trkpt><trkpt lat="55.7429508" lon="49.1325963"><time>2022-10-29T14:16:32.897</time></trkpt><trkpt lat="55.7430259" lon="49.1325670"><time>2022-10-29T14:16:34.893</time></trkpt><trkpt lat="55.7430946" lon="49.1325540"><time>2022-10-29T14:16:36.920</time></trkpt><trkpt lat="55.7431615" lon="49.1325389"><time>2022-10-29T14:16:38.927</time></trkpt><trkpt lat="55.7432241" lon="49.1325258"><time>2022-10-29T14:16:40.917</time></trkpt><trkpt lat="55.7432835" lon="49.1325088"><time>2022-10-29T14:16:42.920</time></trkpt><trkpt lat="55.7433351" lon="49.1324768"><time>2022-10-29T14:16:44.933</time></trkpt><trkpt lat="55.7433815" lon="49.1324419"><time>2022-10-29T14:16:46.927</time></trkpt><trkpt lat="55.7434229" lon="49.1324017"><time>2022-10-29T14:16:48.923</time></trkpt><trkpt lat="55.7434639" lon="49.1323467"><time>2022-10-29T14:16:51.927</time></trkpt><trkpt lat="55.7435218" lon="49.1323263"><time>2022-10-29T14:16:53.927</time></trkpt><trkpt lat="55.7435887" lon="49.1323101"><time>2022-10-29T14:16:55.930</time></trkpt><trkpt lat="55.7436566" lon="49.1322969"><time>2022-10-29T14:16:57.917</time></trkpt><trkpt lat="55.7437140" lon="49.1322775"><time>2022-10-29T14:16:59.923</time></trkpt><trkpt lat="55.7437688" lon="49.1322569"><time>2022-10-29T14:17:01.927</time></trkpt><trkpt lat="55.7438337" lon="49.1322371"><time>2022-10-29T14:17:03.917</time></trkpt><trkpt lat="55.7438986" lon="49.1322237"><time>2022-10-29T14:17:05.920</time></trkpt><trkpt lat="55.7439580" lon="49.1322169"><time>2022-10-29T14:17:07.920</time></trkpt><trkpt lat="55.7440123" lon="49.1322080"><time>2022-10-29T14:17:09.920</time></trkpt><trkpt lat="55.7440602" lon="49.1322017"><time>2022-10-29T14:17:11.923</time></trkpt><trkpt lat="55.7441116" lon="49.1321860"><time>2022-10-29T14:17:13.927</time></trkpt><trkpt lat="55.7441638" lon="49.1321680"><time>2022-10-29T14:17:15.923</time></trkpt><trkpt lat="55.7442226" lon="49.1321439"><time>2022-10-29T14:17:17.927</time></trkpt><trkpt lat="55.7442942" lon="49.1321233"><time>2022-10-29T14:17:19.927</time></trkpt><trkpt lat="55.7443693" lon="49.1321136"><time>2022-10-29T14:17:21.937</time></trkpt><trkpt lat="55.7444195" lon="49.1321116"><time>2022-10-29T14:17:23.930</time></trkpt><trkpt lat="55.7444709" lon="49.1321102"><time>2022-10-29T14:17:25.927</time></trkpt><trkpt lat="55.7445269" lon="49.1321086"><time>2022-10-29T14:17:27.923</time></trkpt><trkpt lat="55.7445750" lon="49.1321090"><time>2022-10-29T14:17:29.917</time></trkpt><trkpt lat="55.7446374" lon="49.1321459"><time>2022-10-29T14:17:32.933</time></trkpt><trkpt lat="55.7447027" lon="49.1321465"><time>2022-10-29T14:17:34.927</time></trkpt><trkpt lat="55.7447608" lon="49.1321096"><time>2022-10-29T14:17:36.927</time></trkpt><trkpt lat="55.7448103" lon="49.1320843"><time>2022-10-29T14:17:38.930</time></trkpt><trkpt lat="55.7448837" lon="49.1320686"><time>2022-10-29T14:17:41.930</time></trkpt><trkpt lat="55.7449421" lon="49.1320543"><time>2022-10-29T14:17:43.920</time></trkpt><trkpt lat="55.7449952" lon="49.1320561"><time>2022-10-29T14:17:45.917</time></trkpt><trkpt lat="55.7450557" lon="49.1320644"><time>2022-10-29T14:17:47.927</time></trkpt><trkpt lat="55.7451108" lon="49.1320629"><time>2022-10-29T14:17:49.927</time></trkpt><trkpt lat="55.7451681" lon="49.1320587"><time>2022-10-29T14:17:51.927</time></trkpt><trkpt lat="55.7452259" lon="49.1320557"><time>2022-10-29T14:17:53.920</time></trkpt><trkpt lat="55.7452845" lon="49.1320475"><time>2022-10-29T14:17:55.927</time></trkpt><trkpt lat="55.7453548" lon="49.1320418"><time>2022-10-29T14:17:57.920</time></trkpt><trkpt lat="55.7454275" lon="49.1320355"><time>2022-10-29T14:17:59.923</time></trkpt><trkpt lat="55.7455026" lon="49.1320262"><time>2022-10-29T14:18:01.923</time></trkpt><trkpt lat="55.7455722" lon="49.1320165"><time>2022-10-29T14:18:03.923</time></trkpt><trkpt lat="55.7456309" lon="49.1320137"><time>2022-10-29T14:18:06.940</time></trkpt><trkpt lat="55.7456901" lon="49.1319960"><time>2022-10-29T14:18:10.897</time></trkpt><trkpt lat="55.7457475" lon="49.1319842"><time>2022-10-29T14:18:12.897</time></trkpt><trkpt lat="55.7457929" lon="49.1319825"><time>2022-10-29T14:18:14.923</time></trkpt><trkpt lat="55.7458496" lon="49.1319787"><time>2022-10-29T14:18:18.923</time></trkpt><trkpt lat="55.7459056" lon="49.1319681"><time>2022-10-29T14:18:21.910</time></trkpt><trkpt lat="55.7459622" lon="49.1319615"><time>2022-10-29T14:18:24.927</time></trkpt><trkpt lat="55.7460095" lon="49.1319558"><time>2022-10-29T14:18:26.927</time></trkpt><trkpt lat="55.7460758" lon="49.1319405"><time>2022-10-29T14:18:28.927</time></trkpt><trkpt lat="55.7461477" lon="49.1319296"><time>2022-10-29T14:18:30.887</time></trkpt><trkpt lat="55.7461958" lon="49.1319229"><time>2022-10-29T14:18:32.897</time></trkpt><trkpt lat="55.7462443" lon="49.1319217"><time>2022-10-29T14:18:34.900</time></trkpt><trkpt lat="55.7462950" lon="49.1319312"><time>2022-10-29T14:18:36.900</time></trkpt><trkpt lat="55.7463439" lon="49.1319414"><time>2022-10-29T14:18:38.900</time></trkpt><trkpt lat="55.7463994" lon="49.1319448"><time>2022-10-29T14:18:41.917</time></trkpt><trkpt lat="55.7464533" lon="49.1319358"><time>2022-10-29T14:18:45.917</time></trkpt><trkpt lat="55.7465169" lon="49.1319254"><time>2022-10-29T14:18:48.930</time></trkpt><trkpt lat="55.7465618" lon="49.1319142"><time>2022-10-29T14:18:52.933</time></trkpt><trkpt lat="55.7466072" lon="49.1319050"><time>2022-10-29T14:18:57.920</time></trkpt><trkpt lat="55.7466733" lon="49.1318947"><time>2022-10-29T14:19:00.920</time></trkpt><trkpt lat="55.7467393" lon="49.1318835"><time>2022-10-29T14:19:02.930</time></trkpt><trkpt lat="55.7468007" lon="49.1318792"><time>2022-10-29T14:19:04.933</time></trkpt><trkpt lat="55.7468513" lon="49.1318727"><time>2022-10-29T14:19:07.923</time></trkpt><trkpt lat="55.7469043" lon="49.1318607"><time>2022-10-29T14:19:10.923</time></trkpt><trkpt lat="55.7469505" lon="49.1318497"><time>2022-10-29T14:19:13.927</time></trkpt><trkpt lat="55.7470196" lon="49.1318328"><time>2022-10-29T14:19:17.927</time></trkpt><trkpt lat="55.7470676" lon="49.1318249"><time>2022-10-29T14:19:19.927</time></trkpt><trkpt lat="55.7471239" lon="49.1318171"><time>2022-10-29T14:19:21.920</time></trkpt><trkpt lat="55.7471818" lon="49.1318010"><time>2022-10-29T14:19:23.930</time></trkpt><trkpt lat="55.7472431" lon="49.1317810"><time>2022-10-29T14:19:25.963</time></trkpt><trkpt lat="55.7472575" lon="49.1317768"><time>2022-10-29T14:19:26.920</time></trkpt><trkpt lat="55.7473298" lon="49.1317675"><time>2022-10-29T14:19:28.927</time></trkpt><trkpt lat="55.7473763" lon="49.1317564"><time>2022-10-29T14:19:30.937</time></trkpt><trkpt lat="55.7474304" lon="49.1317544"><time>2022-10-29T14:19:33.887</time></trkpt><trkpt lat="55.7474885" lon="49.1317458"><time>2022-10-29T14:19:36.930</time></trkpt><trkpt lat="55.7475600" lon="49.1317230"><time>2022-10-29T14:19:39.927</time></trkpt><trkpt lat="55.7476183" lon="49.1317154"><time>2022-10-29T14:19:41.923</time></trkpt><trkpt lat="55.7476668" lon="49.1317148"><time>2022-10-29T14:19:43.887</time></trkpt><trkpt lat="55.7477244" lon="49.1317076"><time>2022-10-29T14:19:46.893</time></trkpt><trkpt lat="55.7477816" lon="49.1317119"><time>2022-10-29T14:19:49.927</time></trkpt><trkpt lat="55.7478351" lon="49.1317380"><time>2022-10-29T14:19:52.920</time></trkpt><trkpt lat="55.7478907" lon="49.1317667"><time>2022-10-29T14:19:57.930</time></trkpt><trkpt lat="55.7479397" lon="49.1317801"><time>2022-10-29T14:20:01.937</time></trkpt><trkpt lat="55.7479850" lon="49.1318215"><time>2022-10-29T14:20:07.927</time></trkpt><trkpt lat="55.7480302" lon="49.1318478"><time>2022-10-29T14:20:12.947</time></trkpt><trkpt lat="55.7480373" lon="49.1319501"><time>2022-10-29T14:20:40.947</time></trkpt><trkpt lat="55.7480356" lon="49.1320532"><time>2022-10-29T14:20:44.897</time></trkpt><trkpt lat="55.7480367" lon="49.1321337"><time>2022-10-29T14:20:47.967</time></trkpt><trkpt lat="55.7480426" lon="49.1322191"><time>2022-10-29T14:20:50.937</time></trkpt><trkpt lat="55.7480547" lon="49.1323072"><time>2022-10-29T14:20:53.920</time></trkpt><trkpt lat="55.7480882" lon="49.1323707"><time>2022-10-29T14:20:58.920</time></trkpt><trkpt lat="55.7481350" lon="49.1323542"><time>2022-10-29T14:21:06.973</time></trkpt><trkpt lat="55.7481505" lon="49.1323302"><time>2022-10-29T14:21:08.137</time></trkpt><trkpt lat="55.7482175" lon="49.1323354"><time>2022-10-29T14:21:10.917</time></trkpt><trkpt lat="55.7482776" lon="49.1323332"><time>2022-10-29T14:21:13.907</time></trkpt><trkpt lat="55.7483340" lon="49.1323285"><time>2022-10-29T14:21:16.917</time></trkpt><trkpt lat="55.7484030" lon="49.1323320"><time>2022-10-29T14:21:19.910</time></trkpt><trkpt lat="55.7484545" lon="49.1323102"><time>2022-10-29T14:21:21.917</time></trkpt><trkpt lat="55.7485065" lon="49.1322790"><time>2022-10-29T14:21:23.913</time></trkpt><trkpt lat="55.7485519" lon="49.1322496"><time>2022-10-29T14:21:25.907</time></trkpt><trkpt lat="55.7486026" lon="49.1322318"><time>2022-10-29T14:21:27.937</time></trkpt><trkpt lat="55.7486255" lon="49.1322249"><time>2022-10-29T14:21:29.037</time></trkpt><trkpt lat="55.7486935" lon="49.1322172"><time>2022-10-29T14:21:30.917</time></trkpt><trkpt lat="55.7487426" lon="49.1322179"><time>2022-10-29T14:21:32.910</time></trkpt><trkpt lat="55.7487938" lon="49.1322240"><time>2022-10-29T14:21:34.917</time></trkpt><trkpt lat="55.7488379" lon="49.1322420"><time>2022-10-29T14:21:36.920</time></trkpt><trkpt lat="55.7488958" lon="49.1322575"><time>2022-10-29T14:21:39.933</time></trkpt><trkpt lat="55.7488958" lon="49.1322575"><time>2022-10-29T14:21:39.990</time></trkpt><trkpt lat="55.7489461" lon="49.1322622"><time>2022-10-29T14:21:43.923</time></trkpt><trkpt lat="55.7489544" lon="49.1322730"><time>2022-10-29T14:21:45.047</time></trkpt><trkpt lat="55.7490103" lon="49.1322380"><time>2022-10-29T14:22:38.947</time></trkpt><trkpt lat="55.7490621" lon="49.1322371"><time>2022-10-29T14:22:40.940</time></trkpt><trkpt lat="55.7491112" lon="49.1322373"><time>2022-10-29T14:22:42.937</time></trkpt><trkpt lat="55.7491713" lon="49.1322329"><time>2022-10-29T14:22:44.937</time></trkpt><trkpt lat="55.7492283" lon="49.1322230"><time>2022-10-29T14:22:46.930</time></trkpt><trkpt lat="55.7492868" lon="49.1322140"><time>2022-10-29T14:22:48.937</time></trkpt><trkpt lat="55.7493400" lon="49.1322081"><time>2022-10-29T14:22:50.933</time></trkpt><trkpt lat="55.7493910" lon="49.1321979"><time>2022-10-29T14:22:52.887</time></trkpt><trkpt lat="55.7494454" lon="49.1321701"><time>2022-10-29T14:22:54.937</time></trkpt><trkpt lat="55.7495075" lon="49.1321412"><time>2022-10-29T14:22:56.883</time></trkpt><trkpt lat="55.7495684" lon="49.1321231"><time>2022-10-29T14:22:58.930</time></trkpt><trkpt lat="55.7496202" lon="49.1321146"><time>2022-10-29T14:23:00.883</time></trkpt><trkpt lat="55.7496761" lon="49.1321125"><time>2022-10-29T14:23:02.937</time></trkpt><trkpt lat="55.7497398" lon="49.1321043"><time>2022-10-29T14:23:04.930</time></trkpt><trkpt lat="55.7498061" lon="49.1320985"><time>2022-10-29T14:23:06.927</time></trkpt><trkpt lat="55.7498682" lon="49.1320875"><time>2022-10-29T14:23:08.937</time></trkpt><trkpt lat="55.7499295" lon="49.1320629"><time>2022-10-29T14:23:10.940</time></trkpt><trkpt lat="55.7499997" lon="49.1320393"><time>2022-10-29T14:23:12.937</time></trkpt><trkpt lat="55.7500711" lon="49.1320252"><time>2022-10-29T14:23:14.930</time></trkpt><trkpt lat="55.7501421" lon="49.1320142"><time>2022-10-29T14:23:16.933</time></trkpt><trkpt lat="55.7502121" lon="49.1320044"><time>2022-10-29T14:23:18.933</time></trkpt><trkpt lat="55.7502797" lon="49.1319929"><time>2022-10-29T14:23:20.930</time></trkpt><trkpt lat="55.7503453" lon="49.1319853"><time>2022-10-29T14:23:22.940</time></trkpt><trkpt lat="55.7504199" lon="49.1319751"><time>2022-10-29T14:23:24.933</time></trkpt><trkpt lat="55.7504904" lon="49.1319652"><time>2022-10-29T14:23:26.930</time></trkpt><trkpt lat="55.7505588" lon="49.1319551"><time>2022-10-29T14:23:28.933</time></trkpt><trkpt lat="55.7506281" lon="49.1319440"><time>2022-10-29T14:23:30.933</time></trkpt><trkpt lat="55.7506974" lon="49.1319323"><time>2022-10-29T14:23:32.933</time></trkpt><trkpt lat="55.7507637" lon="49.1319211"><time>2022-10-29T14:23:34.933</time></trkpt><trkpt lat="55.7508279" lon="49.1319069"><time>2022-10-29T14:23:36.933</time></trkpt><trkpt lat="55.7508944" lon="49.1318970"><time>2022-10-29T14:23:38.927</time></trkpt><trkpt lat="55.7509601" lon="49.1318923"><time>2022-10-29T14:23:40.937</time></trkpt><trkpt lat="55.7510264" lon="49.1318855"><time>2022-10-29T14:23:42.917</time></trkpt><trkpt lat="55.7511006" lon="49.1318820"><time>2022-10-29T14:23:44.927</time></trkpt><trkpt lat="55.7511692" lon="49.1318746"><time>2022-10-29T14:23:46.930</time></trkpt><trkpt lat="55.7512295" lon="49.1318648"><time>2022-10-29T14:23:48.937</time></trkpt><trkpt lat="55.7512884" lon="49.1318520"><time>2022-10-29T14:23:50.930</time></trkpt><trkpt lat="55.7513535" lon="49.1318374"><time>2022-10-29T14:23:52.940</time></trkpt><trkpt lat="55.7514178" lon="49.1318287"><time>2022-10-29T14:23:54.937</time></trkpt><trkpt lat="55.7514815" lon="49.1318214"><time>2022-10-29T14:23:56.940</time></trkpt><trkpt lat="55.7515395" lon="49.1318134"><time>2022-10-29T14:23:58.897</time></trkpt><trkpt lat="55.7515943" lon="49.1318084"><time>2022-10-29T14:24:00.897</time></trkpt><trkpt lat="55.7516436" lon="49.1318139"><time>2022-10-29T14:24:02.933</time></trkpt><trkpt lat="55.7517085" lon="49.1318290"><time>2022-10-29T14:24:05.930</time></trkpt><trkpt lat="55.7517707" lon="49.1318190"><time>2022-10-29T14:24:08.910</time></trkpt><trkpt lat="55.7518156" lon="49.1318027"><time>2022-10-29T14:24:10.933</time></trkpt><trkpt lat="55.7518717" lon="49.1317893"><time>2022-10-29T14:24:13.927</time></trkpt><trkpt lat="55.7519188" lon="49.1317768"><time>2022-10-29T14:24:16.943</time></trkpt><trkpt lat="55.7519703" lon="49.1317736"><time>2022-10-29T14:24:19.943</time></trkpt><trkpt lat="55.7520181" lon="49.1317831"><time>2022-10-29T14:24:22.933</time></trkpt><trkpt lat="55.7520635" lon="49.1317949"><time>2022-10-29T14:24:28.940</time></trkpt><trkpt lat="55.7521098" lon="49.1317625"><time>2022-10-29T14:24:32.893</time></trkpt><trkpt lat="55.7521643" lon="49.1317453"><time>2022-10-29T14:24:34.933</time></trkpt><trkpt lat="55.7522287" lon="49.1317172"><time>2022-10-29T14:24:36.920</time></trkpt><trkpt lat="55.7523034" lon="49.1317010"><time>2022-10-29T14:24:38.927</time></trkpt><trkpt lat="55.7523749" lon="49.1316949"><time>2022-10-29T14:24:40.930</time></trkpt><trkpt lat="55.7524499" lon="49.1316880"><time>2022-10-29T14:24:42.897</time></trkpt><trkpt lat="55.7525250" lon="49.1316835"><time>2022-10-29T14:24:44.927</time></trkpt><trkpt lat="55.7525932" lon="49.1316775"><time>2022-10-29T14:24:46.890</time></trkpt><trkpt lat="55.7526532" lon="49.1316733"><time>2022-10-29T14:24:48.897</time></trkpt><trkpt lat="55.7527148" lon="49.1316664"><time>2022-10-29T14:24:50.923</time></trkpt><trkpt lat="55.7527843" lon="49.1316500"><time>2022-10-29T14:24:52.927</time></trkpt><trkpt lat="55.7528474" lon="49.1316272"><time>2022-10-29T14:24:54.943</time></trkpt><trkpt lat="55.7529039" lon="49.1315907"><time>2022-10-29T14:24:56.933</time></trkpt><trkpt lat="55.7529660" lon="49.1315588"><time>2022-10-29T14:24:58.910</time></trkpt><trkpt lat="55.7530317" lon="49.1315509"><time>2022-10-29T14:25:00.937</time></trkpt><trkpt lat="55.7530956" lon="49.1315468"><time>2022-10-29T14:25:02.930</time></trkpt><trkpt lat="55.7531616" lon="49.1315431"><time>2022-10-29T14:25:04.933</time></trkpt><trkpt lat="55.7532265" lon="49.1315719"><time>2022-10-29T14:25:06.927</time></trkpt><trkpt lat="55.7532852" lon="49.1316323"><time>2022-10-29T14:25:08.927</time></trkpt><trkpt lat="55.7533353" lon="49.1316624"><time>2022-10-29T14:25:10.933</time></trkpt><trkpt lat="55.7533914" lon="49.1315962"><time>2022-10-29T14:25:12.930</time></trkpt><trkpt lat="55.7534405" lon="49.1315167"><time>2022-10-29T14:25:14.943</time></trkpt><trkpt lat="55.7535128" lon="49.1314859"><time>2022-10-29T14:25:16.933</time></trkpt><trkpt lat="55.7535891" lon="49.1314667"><time>2022-10-29T14:25:18.930</time></trkpt><trkpt lat="55.7536632" lon="49.1314392"><time>2022-10-29T14:25:20.930</time></trkpt><trkpt lat="55.7537360" lon="49.1314109"><time>2022-10-29T14:25:22.937</time></trkpt><trkpt lat="55.7538073" lon="49.1313819"><time>2022-10-29T14:25:24.940</time></trkpt><trkpt lat="55.7538765" lon="49.1313563"><time>2022-10-29T14:25:26.943</time></trkpt><trkpt lat="55.7539499" lon="49.1313289"><time>2022-10-29T14:25:28.933</time></trkpt><trkpt lat="55.7540198" lon="49.1313039"><time>2022-10-29T14:25:30.933</time></trkpt><trkpt lat="55.7540938" lon="49.1312765"><time>2022-10-29T14:25:32.937</time></trkpt><trkpt lat="55.7541655" lon="49.1312578"><time>2022-10-29T14:25:34.937</time></trkpt><trkpt lat="55.7542331" lon="49.1312581"><time>2022-10-29T14:25:36.933</time></trkpt><trkpt lat="55.7543027" lon="49.1312543"><time>2022-10-29T14:25:38.937</time></trkpt><trkpt lat="55.7543707" lon="49.1312366"><time>2022-10-29T14:25:40.927</time></trkpt><trkpt lat="55.7544344" lon="49.1312195"><time>2022-10-29T14:25:42.927</time></trkpt><trkpt lat="55.7544991" lon="49.1311968"><time>2022-10-29T14:25:44.937</time></trkpt><trkpt lat="55.7545657" lon="49.1311677"><time>2022-10-29T14:25:46.927</time></trkpt><trkpt lat="55.7546234" lon="49.1311363"><time>2022-10-29T14:25:48.933</time></trkpt><trkpt lat="55.7546781" lon="49.1311095"><time>2022-10-29T14:25:50.947</time></trkpt><trkpt lat="55.7547352" lon="49.1310878"><time>2022-10-29T14:25:52.937</time></trkpt><trkpt lat="55.7547976" lon="49.1310590"><time>2022-10-29T14:25:54.943</time></trkpt><trkpt lat="55.7548602" lon="49.1310257"><time>2022-10-29T14:25:56.930</time></trkpt><trkpt lat="55.7549244" lon="49.1310008"><time>2022-10-29T14:25:58.897</time></trkpt><trkpt lat="55.7549896" lon="49.1309773"><time>2022-10-29T14:26:00.937</time></trkpt><trkpt lat="55.7550515" lon="49.1309506"><time>2022-10-29T14:26:02.933</time></trkpt><trkpt lat="55.7551170" lon="49.1309377"><time>2022-10-29T14:26:04.937</time></trkpt><trkpt lat="55.7551845" lon="49.1309277"><time>2022-10-29T14:26:06.937</time></trkpt><trkpt lat="55.7552485" lon="49.1309172"><time>2022-10-29T14:26:08.927</time></trkpt><trkpt lat="55.7553099" lon="49.1309089"><time>2022-10-29T14:26:10.933</time></trkpt><trkpt lat="55.7553664" lon="49.1309010"><time>2022-10-29T14:26:12.933</time></trkpt><trkpt lat="55.7554206" lon="49.1308912"><time>2022-10-29T14:26:14.933</time></trkpt><trkpt lat="55.7554792" lon="49.1308640"><time>2022-10-29T14:26:16.937</time></trkpt><trkpt lat="55.7555331" lon="49.1308321"><time>2022-10-29T14:26:18.930</time></trkpt><trkpt lat="55.7555903" lon="49.1307963"><time>2022-10-29T14:26:20.933</time></trkpt><trkpt lat="55.7556453" lon="49.1307586"><time>2022-10-29T14:26:22.933</time></trkpt><trkpt lat="55.7556930" lon="49.1307174"><time>2022-10-29T14:26:24.933</time></trkpt><trkpt lat="55.7557398" lon="49.1306838"><time>2022-10-29T14:26:27.947</time></trkpt><trkpt lat="55.7557896" lon="49.1306848"><time>2022-10-29T14:26:30.933</time></trkpt><trkpt lat="55.7558373" lon="49.1306970"><time>2022-10-29T14:26:32.927</time></trkpt><trkpt lat="55.7558840" lon="49.1307252"><time>2022-10-29T14:26:34.933</time></trkpt><trkpt lat="55.7559331" lon="49.1307722"><time>2022-10-29T14:26:36.930</time></trkpt><trkpt lat="55.7559796" lon="49.1308455"><time>2022-10-29T14:26:38.930</time></trkpt><trkpt lat="55.7560129" lon="49.1309440"><time>2022-10-29T14:26:40.940</time></trkpt><trkpt lat="55.7560375" lon="49.1310537"><time>2022-10-29T14:26:42.940</time></trkpt><trkpt lat="55.7560591" lon="49.1311687"><time>2022-10-29T14:26:44.937</time></trkpt><trkpt lat="55.7560786" lon="49.1312820"><time>2022-10-29T14:26:46.900</time></trkpt><trkpt lat="55.7561053" lon="49.1313877"><time>2022-10-29T14:26:48.937</time></trkpt><trkpt lat="55.7561307" lon="49.1314746"><time>2022-10-29T14:26:50.937</time></trkpt><trkpt lat="55.7561445" lon="49.1315737"><time>2022-10-29T14:26:52.930</time></trkpt><trkpt lat="55.7561419" lon="49.1316703"><time>2022-10-29T14:26:54.930</time></trkpt><trkpt lat="55.7561315" lon="49.1317704"><time>2022-10-29T14:26:56.927</time></trkpt><trkpt lat="55.7561174" lon="49.1318869"><time>2022-10-29T14:26:58.887</time></trkpt><trkpt lat="55.7560964" lon="49.1319931"><time>2022-10-29T14:27:00.893</time></trkpt><trkpt lat="55.7560716" lon="49.1320879"><time>2022-10-29T14:27:02.937</time></trkpt><trkpt lat="55.7560487" lon="49.1321614"><time>2022-10-29T14:27:04.910</time></trkpt><trkpt lat="55.7560250" lon="49.1322318"><time>2022-10-29T14:27:06.927</time></trkpt><trkpt lat="55.7560028" lon="49.1323119"><time>2022-10-29T14:27:08.933</time></trkpt><trkpt lat="55.7559822" lon="49.1323833"><time>2022-10-29T14:27:10.883</time></trkpt><trkpt lat="55.7559536" lon="49.1324567"><time>2022-10-29T14:27:12.933</time></trkpt><trkpt lat="55.7559151" lon="49.1325236"><time>2022-10-29T14:27:14.937</time></trkpt><trkpt lat="55.7558744" lon="49.1325763"><time>2022-10-29T14:27:16.940</time></trkpt><trkpt lat="55.7558307" lon="49.1326231"><time>2022-10-29T14:27:18.937</time></trkpt><trkpt lat="55.7557859" lon="49.1326730"><time>2022-10-29T14:27:20.937</time></trkpt><trkpt lat="55.7557479" lon="49.1327353"><time>2022-10-29T14:27:22.933</time></trkpt><trkpt lat="55.7556996" lon="49.1328283"><time>2022-10-29T14:27:25.937</time></trkpt><trkpt lat="55.7556673" lon="49.1329005"><time>2022-10-29T14:27:27.930</time></trkpt><trkpt lat="55.7556355" lon="49.1329736"><time>2022-10-29T14:27:29.963</time></trkpt><trkpt lat="55.7556191" lon="49.1330018"><time>2022-10-29T14:27:31.073</time></trkpt><trkpt lat="55.7555795" lon="49.1330841"><time>2022-10-29T14:27:32.903</time></trkpt><trkpt lat="55.7555528" lon="49.1331640"><time>2022-10-29T14:27:34.910</time></trkpt><trkpt lat="55.7555277" lon="49.1332342"><time>2022-10-29T14:27:36.910</time></trkpt><trkpt lat="55.7555009" lon="49.1333058"><time>2022-10-29T14:27:38.907</time></trkpt><trkpt lat="55.7554772" lon="49.1333757"><time>2022-10-29T14:27:40.903</time></trkpt><trkpt lat="55.7554535" lon="49.1334711"><time>2022-10-29T14:27:43.917</time></trkpt><trkpt lat="55.7554276" lon="49.1335593"><time>2022-10-29T14:27:46.903</time></trkpt><trkpt lat="55.7553997" lon="49.1336389"><time>2022-10-29T14:27:49.900</time></trkpt><trkpt lat="55.7553695" lon="49.1337194"><time>2022-10-29T14:27:53.907</time></trkpt><trkpt lat="55.7553560" lon="49.1338055"><time>2022-10-29T14:28:44.920</time></trkpt><trkpt lat="55.7553507" lon="49.1338942"><time>2022-10-29T14:28:47.927</time></trkpt><trkpt lat="55.7553303" lon="49.1339827"><time>2022-10-29T14:28:49.920</time></trkpt><trkpt lat="55.7553081" lon="49.1340682"><time>2022-10-29T14:28:51.920</time></trkpt><trkpt lat="55.7552923" lon="49.1341671"><time>2022-10-29T14:28:53.917</time></trkpt><trkpt lat="55.7552744" lon="49.1342623"><time>2022-10-29T14:28:55.927</time></trkpt><trkpt lat="55.7552607" lon="49.1343587"><time>2022-10-29T14:28:57.923</time></trkpt><trkpt lat="55.7552492" lon="49.1344644"><time>2022-10-29T14:28:59.943</time></trkpt><trkpt lat="55.7552457" lon="49.1344890"><time>2022-10-29T14:29:00.850</time></trkpt><trkpt lat="55.7552296" lon="49.1346042"><time>2022-10-29T14:29:02.893</time></trkpt><trkpt lat="55.7552198" lon="49.1346989"><time>2022-10-29T14:29:04.893</time></trkpt><trkpt lat="55.7552158" lon="49.1347894"><time>2022-10-29T14:29:06.893</time></trkpt><trkpt lat="55.7552127" lon="49.1348842"><time>2022-10-29T14:29:08.893</time></trkpt><trkpt lat="55.7552077" lon="49.1349742"><time>2022-10-29T14:29:10.893</time></trkpt><trkpt lat="55.7551956" lon="49.1350830"><time>2022-10-29T14:29:13.893</time></trkpt><trkpt lat="55.7551819" lon="49.1351826"><time>2022-10-29T14:29:16.893</time></trkpt><trkpt lat="55.7551770" lon="49.1352716"><time>2022-10-29T14:29:18.923</time></trkpt><trkpt lat="55.7551768" lon="49.1352909"><time>2022-10-29T14:29:19.843</time></trkpt><trkpt lat="55.7551687" lon="49.1353877"><time>2022-10-29T14:29:21.893</time></trkpt><trkpt lat="55.7551604" lon="49.1354690"><time>2022-10-29T14:29:23.893</time></trkpt><trkpt lat="55.7551485" lon="49.1355737"><time>2022-10-29T14:29:26.893</time></trkpt><trkpt lat="55.7551311" lon="49.1356578"><time>2022-10-29T14:29:30.927</time></trkpt><trkpt lat="55.7551042" lon="49.1357359"><time>2022-10-29T14:29:33.897</time></trkpt><trkpt lat="55.7550771" lon="49.1358016"><time>2022-10-29T14:29:35.947</time></trkpt><trkpt lat="55.7550771" lon="49.1358016"><time>2022-10-29T14:29:36.007</time></trkpt><trkpt lat="55.7550376" lon="49.1358798"><time>2022-10-29T14:29:38.933</time></trkpt><trkpt lat="55.7550311" lon="49.1358863"><time>2022-10-29T14:29:39.843</time></trkpt><trkpt lat="55.7549970" lon="49.1359419"><time>2022-10-29T14:29:43.880</time></trkpt><trkpt lat="55.7550250" lon="49.1358675"><time>2022-10-29T14:30:07.940</time></trkpt><trkpt lat="55.7550555" lon="49.1358089"><time>2022-10-29T14:30:09.920</time></trkpt><trkpt lat="55.7550874" lon="49.1357307"><time>2022-10-29T14:30:11.920</time></trkpt><trkpt lat="55.7551113" lon="49.1356540"><time>2022-10-29T14:30:13.913</time></trkpt><trkpt lat="55.7551291" lon="49.1355574"><time>2022-10-29T14:30:20.927</time></trkpt><trkpt lat="55.7551532" lon="49.1354737"><time>2022-10-29T14:30:23.923</time></trkpt><trkpt lat="55.7551667" lon="49.1353700"><time>2022-10-29T14:30:26.927</time></trkpt><trkpt lat="55.7551779" lon="49.1352888"><time>2022-10-29T14:32:00.927</time></trkpt><trkpt lat="55.7551767" lon="49.1351969"><time>2022-10-29T14:32:03.900</time></trkpt><trkpt lat="55.7551838" lon="49.1350839"><time>2022-10-29T14:32:06.890</time></trkpt><trkpt lat="55.7551896" lon="49.1349979"><time>2022-10-29T14:32:08.897</time></trkpt><trkpt lat="55.7551925" lon="49.1349137"><time>2022-10-29T14:32:10.920</time></trkpt><trkpt lat="55.7551954" lon="49.1347937"><time>2022-10-29T14:32:13.900</time></trkpt><trkpt lat="55.7551899" lon="49.1346749"><time>2022-10-29T14:32:16.923</time></trkpt><trkpt lat="55.7551793" lon="49.1345877"><time>2022-10-29T14:32:18.917</time></trkpt><trkpt lat="55.7551817" lon="49.1344943"><time>2022-10-29T14:32:20.890</time></trkpt><trkpt lat="55.7551915" lon="49.1344085"><time>2022-10-29T14:32:22.887</time></trkpt><trkpt lat="55.7552047" lon="49.1343184"><time>2022-10-29T14:32:24.883</time></trkpt><trkpt lat="55.7552229" lon="49.1342249"><time>2022-10-29T14:32:26.887</time></trkpt><trkpt lat="55.7552379" lon="49.1341454"><time>2022-10-29T14:32:28.887</time></trkpt><trkpt lat="55.7552554" lon="49.1340618"><time>2022-10-29T14:32:30.893</time></trkpt><trkpt lat="55.7552747" lon="49.1339746"><time>2022-10-29T14:32:32.897</time></trkpt><trkpt lat="55.7552896" lon="49.1338894"><time>2022-10-29T14:32:34.927</time></trkpt><trkpt lat="55.7553066" lon="49.1338001"><time>2022-10-29T14:32:36.927</time></trkpt><trkpt lat="55.7553303" lon="49.1337121"><time>2022-10-29T14:32:38.897</time></trkpt><trkpt lat="55.7553555" lon="49.1336260"><time>2022-10-29T14:32:40.890</time></trkpt><trkpt lat="55.7553866" lon="49.1335476"><time>2022-10-29T14:32:42.900</time></trkpt><trkpt lat="55.7554148" lon="49.1334647"><time>2022-10-29T14:32:44.903</time></trkpt><trkpt lat="55.7554436" lon="49.1333820"><time>2022-10-29T14:32:46.923</time></trkpt><trkpt lat="55.7554766" lon="49.1332961"><time>2022-10-29T14:32:48.897</time></trkpt><trkpt lat="55.7555043" lon="49.1332112"><time>2022-10-29T14:32:50.900</time></trkpt><trkpt lat="55.7555379" lon="49.1331205"><time>2022-10-29T14:32:52.917</time></trkpt><trkpt lat="55.7555713" lon="49.1330372"><time>2022-10-29T14:32:54.890</time></trkpt><trkpt lat="55.7556065" lon="49.1329560"><time>2022-10-29T14:32:56.923</time></trkpt><trkpt lat="55.7556481" lon="49.1328705"><time>2022-10-29T14:32:58.897</time></trkpt><trkpt lat="55.7556851" lon="49.1327937"><time>2022-10-29T14:33:00.903</time></trkpt><trkpt lat="55.7557277" lon="49.1327163"><time>2022-10-29T14:33:02.897</time></trkpt><trkpt lat="55.7557666" lon="49.1326475"><time>2022-10-29T14:33:04.917</time></trkpt><trkpt lat="55.7558066" lon="49.1325914"><time>2022-10-29T14:33:06.917</time></trkpt><trkpt lat="55.7558587" lon="49.1325235"><time>2022-10-29T14:33:08.917</time></trkpt><trkpt lat="55.7559109" lon="49.1324595"><time>2022-10-29T14:33:10.913</time></trkpt><trkpt lat="55.7559590" lon="49.1323871"><time>2022-10-29T14:33:12.920</time></trkpt><trkpt lat="55.7559894" lon="49.1322941"><time>2022-10-29T14:33:14.933</time></trkpt><trkpt lat="55.7560124" lon="49.1321949"><time>2022-10-29T14:33:16.897</time></trkpt><trkpt lat="55.7560379" lon="49.1320931"><time>2022-10-29T14:33:18.897</time></trkpt><trkpt lat="55.7560717" lon="49.1319924"><time>2022-10-29T14:33:20.917</time></trkpt><trkpt lat="55.7560924" lon="49.1318971"><time>2022-10-29T14:33:22.923</time></trkpt><trkpt lat="55.7561062" lon="49.1318059"><time>2022-10-29T14:33:24.923</time></trkpt><trkpt lat="55.7561139" lon="49.1317127"><time>2022-10-29T14:33:26.917</time></trkpt><trkpt lat="55.7561147" lon="49.1316194"><time>2022-10-29T14:33:28.920</time></trkpt><trkpt lat="55.7561043" lon="49.1315072"><time>2022-10-29T14:33:31.930</time></trkpt><trkpt lat="55.7560919" lon="49.1314254"><time>2022-10-29T14:33:33.933</time></trkpt><trkpt lat="55.7560648" lon="49.1313485"><time>2022-10-29T14:33:35.927</time></trkpt><trkpt lat="55.7560347" lon="49.1312639"><time>2022-10-29T14:33:37.930</time></trkpt><trkpt lat="55.7560091" lon="49.1311721"><time>2022-10-29T14:33:39.927</time></trkpt><trkpt lat="55.7559849" lon="49.1310682"><time>2022-10-29T14:33:42.927</time></trkpt><trkpt lat="55.7559690" lon="49.1309656"><time>2022-10-29T14:33:45.923</time></trkpt><trkpt lat="55.7559473" lon="49.1308665"><time>2022-10-29T14:33:48.897</time></trkpt><trkpt lat="55.7559127" lon="49.1307953"><time>2022-10-29T14:33:51.920</time></trkpt><trkpt lat="55.7558749" lon="49.1307515"><time>2022-10-29T14:33:54.923</time></trkpt><trkpt lat="55.7558326" lon="49.1307042"><time>2022-10-29T14:33:58.890</time></trkpt><trkpt lat="55.7557986" lon="49.1306174"><time>2022-10-29T14:34:02.900</time></trkpt><trkpt lat="55.7558295" lon="49.1305419"><time>2022-10-29T14:34:05.900</time></trkpt><trkpt lat="55.7558895" lon="49.1305190"><time>2022-10-29T14:34:08.933</time></trkpt><trkpt lat="55.7559463" lon="49.1305158"><time>2022-10-29T14:34:11.923</time></trkpt><trkpt lat="55.7559915" lon="49.1305256"><time>2022-10-29T14:34:18.887</time></trkpt><trkpt lat="55.7559645" lon="49.1305927"><time>2022-10-29T14:39:36.920</time></trkpt><trkpt lat="55.7559925" lon="49.1305300"><time>2022-10-29T14:56:06.917</time></trkpt><trkpt lat="55.7560388" lon="49.1305042"><time>2022-10-29T14:56:10.927</time></trkpt><trkpt lat="55.7560394" lon="49.1304105"><time>2022-10-29T14:56:16.920</time></trkpt><trkpt lat="55.7560193" lon="49.1303379"><time>2022-10-29T14:56:20.937</time></trkpt><trkpt lat="55.7560044" lon="49.1302572"><time>2022-10-29T14:56:24.910</time></trkpt><trkpt lat="55.7559974" lon="49.1301560"><time>2022-10-29T14:56:28.930</time></trkpt><trkpt lat="55.7559881" lon="49.1300694"><time>2022-10-29T14:56:32.907</time></trkpt><trkpt lat="55.7559430" lon="49.1300379"><time>2022-10-29T14:56:36.927</time></trkpt><trkpt lat="55.7558892" lon="49.1300218"><time>2022-10-29T14:56:40.923</time></trkpt><trkpt lat="55.7558338" lon="49.1300261"><time>2022-10-29T14:56:44.930</time></trkpt><trkpt lat="55.7557795" lon="49.1300490"><time>2022-10-29T14:56:48.933</time></trkpt><trkpt lat="55.7557274" lon="49.1300865"><time>2022-10-29T14:56:52.923</time></trkpt><trkpt lat="55.7556810" lon="49.1301185"><time>2022-10-29T14:56:56.937</time></trkpt><trkpt lat="55.7556273" lon="49.1301468"><time>2022-10-29T14:57:00.930</time></trkpt><trkpt lat="55.7555713" lon="49.1301566"><time>2022-10-29T14:57:04.937</time></trkpt><trkpt lat="55.7555193" lon="49.1301455"><time>2022-10-29T14:57:08.940</time></trkpt><trkpt lat="55.7554712" lon="49.1300976"><time>2022-10-29T14:57:12.933</time></trkpt><trkpt lat="55.7554286" lon="49.1300602"><time>2022-10-29T14:57:15.933</time></trkpt><trkpt lat="55.7553880" lon="49.1300241"><time>2022-10-29T14:57:18.930</time></trkpt><trkpt lat="55.7553466" lon="49.1299899"><time>2022-10-29T14:57:21.937</time></trkpt><trkpt lat="55.7553020" lon="49.1299669"><time>2022-10-29T14:57:25.923</time></trkpt><trkpt lat="55.7552576" lon="49.1299468"><time>2022-10-29T14:57:28.933</time></trkpt><trkpt lat="55.7552046" lon="49.1299667"><time>2022-10-29T14:57:32.937</time></trkpt><trkpt lat="55.7551623" lon="49.1300031"><time>2022-10-29T14:57:36.923</time></trkpt><trkpt lat="55.7551148" lon="49.1300251"><time>2022-10-29T14:57:40.920</time></trkpt><trkpt lat="55.7550676" lon="49.1300084"><time>2022-10-29T14:57:44.930</time></trkpt><trkpt lat="55.7550162" lon="49.1299877"><time>2022-10-29T14:57:48.937</time></trkpt><trkpt lat="55.7549806" lon="49.1299268"><time>2022-10-29T14:57:54.933</time></trkpt><trkpt lat="55.7549541" lon="49.1298616"><time>2022-10-29T14:57:59.923</time></trkpt><trkpt lat="55.7549933" lon="49.1299086"><time>2022-10-29T14:58:36.907</time></trkpt><trkpt lat="55.7549607" lon="49.1298444"><time>2022-10-29T14:58:56.930</time></trkpt><trkpt lat="55.7549518" lon="49.1299266"><time>2022-10-29T14:59:21.933</time></trkpt><trkpt lat="55.7549584" lon="49.1300221"><time>2022-10-29T14:59:27.920</time></trkpt><trkpt lat="55.7549491" lon="49.1301024"><time>2022-10-29T14:59:32.930</time></trkpt><trkpt lat="55.7549345" lon="49.1300247"><time>2022-10-29T14:59:41.933</time></trkpt><trkpt lat="55.7549331" lon="49.1299189"><time>2022-10-29T14:59:46.927</time></trkpt><trkpt lat="55.7549620" lon="49.1298577"><time>2022-10-29T15:00:16.930</time></trkpt><trkpt lat="55.7550085" lon="49.1298335"><time>2022-10-29T15:01:18.907</time></trkpt><trkpt lat="55.7550671" lon="49.1298559"><time>2022-10-29T15:02:59.903</time></trkpt><trkpt lat="55.7549013" lon="49.1296938"><time>2022-10-29T15:06:45.903</time></trkpt><trkpt lat="55.7549312" lon="49.1298099"><time>2022-10-29T15:06:46.903</time></trkpt><trkpt lat="55.7549953" lon="49.1297474"><time>2022-10-29T15:06:48.900</time></trkpt><trkpt lat="55.7550489" lon="49.1297523"><time>2022-10-29T15:06:52.897</time></trkpt><trkpt lat="55.7550013" lon="49.1297494"><time>2022-10-29T15:07:10.927</time></trkpt><trkpt lat="55.7548737" lon="49.1300487"><time>2022-10-29T15:07:32.900</time></trkpt><trkpt lat="55.7549993" lon="49.1297508"><time>2022-10-29T15:07:34.900</time></trkpt><trkpt lat="55.7550113" lon="49.1299271"><time>2022-10-29T15:55:06.923</time></trkpt><trkpt lat="55.7548668" lon="49.1299576"><time>2022-10-29T15:55:07.920</time></trkpt><trkpt lat="55.7548184" lon="49.1299719"><time>2022-10-29T15:55:08.887</time></trkpt><trkpt lat="55.7548744" lon="49.1299387"><time>2022-10-29T15:55:12.940</time></trkpt><trkpt lat="55.7549202" lon="49.1299113"><time>2022-10-29T15:55:18.930</time></trkpt><trkpt lat="55.7548139" lon="49.1300494"><time>2022-10-29T15:57:02.907</time></trkpt><trkpt lat="55.7547064" lon="49.1299878"><time>2022-10-29T15:57:03.917</time></trkpt><trkpt lat="55.7549256" lon="49.1299614"><time>2022-10-29T15:57:04.907</time></trkpt><trkpt lat="55.7549844" lon="49.1298083"><time>2022-10-29T15:57:05.900</time></trkpt><trkpt lat="55.7551759" lon="49.1296576"><time>2022-10-29T15:57:06.903</time></trkpt><trkpt lat="55.7551715" lon="49.1295612"><time>2022-10-29T15:57:07.910</time></trkpt><trkpt lat="55.7552398" lon="49.1295802"><time>2022-10-29T15:57:08.910</time></trkpt><trkpt lat="55.7551581" lon="49.1299121"><time>2022-10-29T15:57:12.907</time></trkpt><trkpt lat="55.7550792" lon="49.1299440"><time>2022-10-29T15:57:13.917</time></trkpt><trkpt lat="55.7550292" lon="49.1299418"><time>2022-10-29T15:57:15.920</time></trkpt><trkpt lat="55.7549952" lon="49.1298769"><time>2022-10-29T15:57:40.897</time></trkpt><trkpt lat="55.7551640" lon="49.1301053"><time>2022-10-29T16:02:06.950</time></trkpt><trkpt lat="55.7550531" lon="49.1295528"><time>2022-10-29T16:02:07.897</time></trkpt><trkpt lat="55.7551059" lon="49.1295960"><time>2022-10-29T16:02:08.893</time></trkpt><trkpt lat="55.7551564" lon="49.1296989"><time>2022-10-29T16:02:10.893</time></trkpt><trkpt lat="55.7552265" lon="49.1297991"><time>2022-10-29T16:02:11.930</time></trkpt><trkpt lat="55.7551769" lon="49.1298861"><time>2022-10-29T16:02:13.903</time></trkpt><trkpt lat="55.7551332" lon="49.1299075"><time>2022-10-29T16:02:25.897</time></trkpt><trkpt lat="55.7550875" lon="49.1299176"><time>2022-10-29T16:02:53.920</time></trkpt><trkpt lat="55.7550427" lon="49.1299252"><time>2022-10-29T16:03:26.900</time></trkpt><trkpt lat="55.7550465" lon="49.1300104"><time>2022-10-29T16:03:30.937</time></trkpt><trkpt lat="55.7549992" lon="49.1300465"><time>2022-10-29T16:03:36.887</time></trkpt><trkpt lat="55.7549743" lon="49.1301148"><time>2022-10-29T16:04:23.933</time></trkpt><trkpt lat="55.7549631" lon="49.1302104"><time>2022-10-29T16:04:43.927</time></trkpt><trkpt lat="55.7549273" lon="49.1303092"><time>2022-10-29T16:04:46.920</time></trkpt><trkpt lat="55.7548872" lon="49.1303633"><time>2022-10-29T16:04:48.927</time></trkpt><trkpt lat="55.7548376" lon="49.1303983"><time>2022-10-29T16:04:50.923</time></trkpt><trkpt lat="55.7547859" lon="49.1304308"><time>2022-10-29T16:04:52.930</time></trkpt><trkpt lat="55.7547420" lon="49.1304674"><time>2022-10-29T16:04:54.937</time></trkpt><trkpt lat="55.7546993" lon="49.1304998"><time>2022-10-29T16:04:56.943</time></trkpt><trkpt lat="55.7546464" lon="49.1305254"><time>2022-10-29T16:04:58.937</time></trkpt><trkpt lat="55.7545892" lon="49.1305523"><time>2022-10-29T16:05:00.933</time></trkpt><trkpt lat="55.7545409" lon="49.1305725"><time>2022-10-29T16:05:02.937</time></trkpt><trkpt lat="55.7544737" lon="49.1305971"><time>2022-10-29T16:05:05.940</time></trkpt><trkpt lat="55.7544178" lon="49.1306281"><time>2022-10-29T16:05:07.937</time></trkpt><trkpt lat="55.7543625" lon="49.1306782"><time>2022-10-29T16:05:09.900</time></trkpt><trkpt lat="55.7543091" lon="49.1307083"><time>2022-10-29T16:05:11.900</time></trkpt><trkpt lat="55.7542500" lon="49.1307180"><time>2022-10-29T16:05:13.900</time></trkpt><trkpt lat="55.7541828" lon="49.1307376"><time>2022-10-29T16:05:15.897</time></trkpt><trkpt lat="55.7541131" lon="49.1307727"><time>2022-10-29T16:05:17.897</time></trkpt><trkpt lat="55.7540493" lon="49.1307914"><time>2022-10-29T16:05:19.930</time></trkpt><trkpt lat="55.7539976" lon="49.1307973"><time>2022-10-29T16:05:21.893</time></trkpt><trkpt lat="55.7539468" lon="49.1307908"><time>2022-10-29T16:05:23.890</time></trkpt><trkpt lat="55.7538944" lon="49.1307809"><time>2022-10-29T16:05:25.937</time></trkpt><trkpt lat="55.7538417" lon="49.1308003"><time>2022-10-29T16:05:27.937</time></trkpt><trkpt lat="55.7537857" lon="49.1308479"><time>2022-10-29T16:05:29.933</time></trkpt><trkpt lat="55.7537283" lon="49.1308905"><time>2022-10-29T16:05:31.933</time></trkpt><trkpt lat="55.7536648" lon="49.1309187"><time>2022-10-29T16:05:33.887</time></trkpt><trkpt lat="55.7536145" lon="49.1309379"><time>2022-10-29T16:05:35.893</time></trkpt><trkpt lat="55.7535637" lon="49.1309703"><time>2022-10-29T16:05:37.930</time></trkpt><trkpt lat="55.7534998" lon="49.1310018"><time>2022-10-29T16:05:39.933</time></trkpt><trkpt lat="55.7534438" lon="49.1310154"><time>2022-10-29T16:05:41.937</time></trkpt><trkpt lat="55.7533819" lon="49.1310322"><time>2022-10-29T16:05:43.930</time></trkpt><trkpt lat="55.7533160" lon="49.1310547"><time>2022-10-29T16:05:45.927</time></trkpt><trkpt lat="55.7532614" lon="49.1310575"><time>2022-10-29T16:05:47.943</time></trkpt><trkpt lat="55.7531971" lon="49.1310380"><time>2022-10-29T16:05:49.927</time></trkpt><trkpt lat="55.7531417" lon="49.1310099"><time>2022-10-29T16:05:51.933</time></trkpt><trkpt lat="55.7530936" lon="49.1309892"><time>2022-10-29T16:05:53.887</time></trkpt><trkpt lat="55.7530440" lon="49.1309720"><time>2022-10-29T16:05:55.943</time></trkpt><trkpt lat="55.7529954" lon="49.1309667"><time>2022-10-29T16:05:57.897</time></trkpt><trkpt lat="55.7529309" lon="49.1309810"><time>2022-10-29T16:05:59.930</time></trkpt><trkpt lat="55.7528754" lon="49.1309797"><time>2022-10-29T16:06:01.890</time></trkpt><trkpt lat="55.7528074" lon="49.1309821"><time>2022-10-29T16:06:03.893</time></trkpt><trkpt lat="55.7527464" lon="49.1309901"><time>2022-10-29T16:06:05.903</time></trkpt><trkpt lat="55.7526833" lon="49.1309969"><time>2022-10-29T16:06:07.893</time></trkpt><trkpt lat="55.7526236" lon="49.1309975"><time>2022-10-29T16:06:09.897</time></trkpt><trkpt lat="55.7525693" lon="49.1310005"><time>2022-10-29T16:06:11.933</time></trkpt><trkpt lat="55.7525221" lon="49.1310008"><time>2022-10-29T16:06:13.937</time></trkpt><trkpt lat="55.7524710" lon="49.1309979"><time>2022-10-29T16:06:16.927</time></trkpt><trkpt lat="55.7524056" lon="49.1310024"><time>2022-10-29T16:06:18.937</time></trkpt><trkpt lat="55.7523596" lon="49.1310163"><time>2022-10-29T16:06:22.940</time></trkpt><trkpt lat="55.7523029" lon="49.1310376"><time>2022-10-29T16:06:48.900</time></trkpt><trkpt lat="55.7522569" lon="49.1310506"><time>2022-10-29T16:06:50.923</time></trkpt><trkpt lat="55.7522098" lon="49.1310602"><time>2022-10-29T16:06:52.923</time></trkpt><trkpt lat="55.7521650" lon="49.1310791"><time>2022-10-29T16:06:54.933</time></trkpt><trkpt lat="55.7521160" lon="49.1310897"><time>2022-10-29T16:06:56.937</time></trkpt><trkpt lat="55.7520622" lon="49.1311056"><time>2022-10-29T16:06:58.927</time></trkpt><trkpt lat="55.7519965" lon="49.1311225"><time>2022-10-29T16:07:00.940</time></trkpt><trkpt lat="55.7519333" lon="49.1311255"><time>2022-10-29T16:07:02.937</time></trkpt><trkpt lat="55.7518605" lon="49.1311340"><time>2022-10-29T16:07:04.927</time></trkpt><trkpt lat="55.7517871" lon="49.1311394"><time>2022-10-29T16:07:06.933</time></trkpt><trkpt lat="55.7517286" lon="49.1311455"><time>2022-10-29T16:07:08.943</time></trkpt><trkpt lat="55.7516804" lon="49.1311570"><time>2022-10-29T16:07:16.897</time></trkpt><trkpt lat="55.7516327" lon="49.1311603"><time>2022-10-29T16:07:23.923</time></trkpt><trkpt lat="55.7515867" lon="49.1311603"><time>2022-10-29T16:07:25.927</time></trkpt><trkpt lat="55.7515335" lon="49.1311725"><time>2022-10-29T16:07:27.930</time></trkpt><trkpt lat="55.7514724" lon="49.1311825"><time>2022-10-29T16:07:29.930</time></trkpt><trkpt lat="55.7514086" lon="49.1311912"><time>2022-10-29T16:07:31.937</time></trkpt><trkpt lat="55.7513491" lon="49.1311996"><time>2022-10-29T16:07:33.937</time></trkpt><trkpt lat="55.7512885" lon="49.1312044"><time>2022-10-29T16:07:35.923</time></trkpt><trkpt lat="55.7512246" lon="49.1312170"><time>2022-10-29T16:07:37.930</time></trkpt><trkpt lat="55.7511612" lon="49.1312224"><time>2022-10-29T16:07:39.937</time></trkpt><trkpt lat="55.7511058" lon="49.1312168"><time>2022-10-29T16:07:41.927</time></trkpt><trkpt lat="55.7510461" lon="49.1312302"><time>2022-10-29T16:07:45.933</time></trkpt><trkpt lat="55.7509714" lon="49.1312395"><time>2022-10-29T16:07:48.933</time></trkpt><trkpt lat="55.7509058" lon="49.1312540"><time>2022-10-29T16:07:50.950</time></trkpt><trkpt lat="55.7508404" lon="49.1312710"><time>2022-10-29T16:07:52.887</time></trkpt><trkpt lat="55.7507701" lon="49.1312851"><time>2022-10-29T16:07:54.900</time></trkpt><trkpt lat="55.7506951" lon="49.1313010"><time>2022-10-29T16:07:56.897</time></trkpt><trkpt lat="55.7506190" lon="49.1313148"><time>2022-10-29T16:07:58.937</time></trkpt><trkpt lat="55.7505445" lon="49.1313293"><time>2022-10-29T16:08:00.923</time></trkpt><trkpt lat="55.7504805" lon="49.1313447"><time>2022-10-29T16:08:02.933</time></trkpt><trkpt lat="55.7504204" lon="49.1313531"><time>2022-10-29T16:08:04.943</time></trkpt><trkpt lat="55.7503549" lon="49.1313612"><time>2022-10-29T16:08:06.933</time></trkpt><trkpt lat="55.7502895" lon="49.1313627"><time>2022-10-29T16:08:08.937</time></trkpt><trkpt lat="55.7502212" lon="49.1313628"><time>2022-10-29T16:08:10.933</time></trkpt><trkpt lat="55.7501565" lon="49.1313716"><time>2022-10-29T16:08:12.940</time></trkpt><trkpt lat="55.7500955" lon="49.1313813"><time>2022-10-29T16:08:14.937</time></trkpt><trkpt lat="55.7500268" lon="49.1313889"><time>2022-10-29T16:08:16.930</time></trkpt><trkpt lat="55.7499627" lon="49.1313939"><time>2022-10-29T16:08:18.933</time></trkpt><trkpt lat="55.7498961" lon="49.1314078"><time>2022-10-29T16:08:20.933</time></trkpt><trkpt lat="55.7498346" lon="49.1314207"><time>2022-10-29T16:08:22.940</time></trkpt><trkpt lat="55.7497689" lon="49.1314372"><time>2022-10-29T16:08:24.887</time></trkpt><trkpt lat="55.7496988" lon="49.1314552"><time>2022-10-29T16:08:26.940</time></trkpt><trkpt lat="55.7496373" lon="49.1314670"><time>2022-10-29T16:08:28.933</time></trkpt><trkpt lat="55.7495717" lon="49.1314716"><time>2022-10-29T16:08:30.930</time></trkpt><trkpt lat="55.7494994" lon="49.1314814"><time>2022-10-29T16:08:32.930</time></trkpt><trkpt lat="55.7494278" lon="49.1315004"><time>2022-10-29T16:08:34.937</time></trkpt><trkpt lat="55.7493608" lon="49.1315100"><time>2022-10-29T16:08:36.930</time></trkpt><trkpt lat="55.7493053" lon="49.1315155"><time>2022-10-29T16:08:38.897</time></trkpt><trkpt lat="55.7492719" lon="49.1315713"><time>2022-10-29T16:08:41.933</time></trkpt><trkpt lat="55.7492729" lon="49.1316569"><time>2022-10-29T16:08:43.923</time></trkpt><trkpt lat="55.7492307" lon="49.1317009"><time>2022-10-29T16:08:45.937</time></trkpt><trkpt lat="55.7491709" lon="49.1316919"><time>2022-10-29T16:08:47.893</time></trkpt><trkpt lat="55.7491232" lon="49.1316905"><time>2022-10-29T16:08:49.917</time></trkpt><trkpt lat="55.7490597" lon="49.1316950"><time>2022-10-29T16:08:52.927</time></trkpt><trkpt lat="55.7490117" lon="49.1317013"><time>2022-10-29T16:08:54.937</time></trkpt><trkpt lat="55.7489537" lon="49.1317078"><time>2022-10-29T16:08:56.937</time></trkpt><trkpt lat="55.7488968" lon="49.1317139"><time>2022-10-29T16:08:58.927</time></trkpt><trkpt lat="55.7488384" lon="49.1317153"><time>2022-10-29T16:09:00.890</time></trkpt><trkpt lat="55.7487871" lon="49.1317102"><time>2022-10-29T16:09:03.943</time></trkpt><trkpt lat="55.7487419" lon="49.1317232"><time>2022-10-29T16:09:10.893</time></trkpt><trkpt lat="55.7486892" lon="49.1317122"><time>2022-10-29T16:09:13.897</time></trkpt><trkpt lat="55.7486636" lon="49.1316439"><time>2022-10-29T16:09:22.927</time></trkpt><trkpt lat="55.7486210" lon="49.1315766"><time>2022-10-29T16:09:26.920</time></trkpt><trkpt lat="55.7485630" lon="49.1315701"><time>2022-10-29T16:09:28.927</time></trkpt><trkpt lat="55.7485119" lon="49.1315734"><time>2022-10-29T16:09:30.930</time></trkpt><trkpt lat="55.7484661" lon="49.1315747"><time>2022-10-29T16:09:32.890</time></trkpt><trkpt lat="55.7484063" lon="49.1315876"><time>2022-10-29T16:09:35.927</time></trkpt><trkpt lat="55.7483654" lon="49.1316249"><time>2022-10-29T16:09:37.927</time></trkpt><trkpt lat="55.7483133" lon="49.1316584"><time>2022-10-29T16:09:39.923</time></trkpt><trkpt lat="55.7482572" lon="49.1316777"><time>2022-10-29T16:09:41.937</time></trkpt><trkpt lat="55.7482094" lon="49.1316926"><time>2022-10-29T16:09:43.933</time></trkpt><trkpt lat="55.7481651" lon="49.1317058"><time>2022-10-29T16:09:45.940</time></trkpt><trkpt lat="55.7481177" lon="49.1317137"><time>2022-10-29T16:09:47.933</time></trkpt><trkpt lat="55.7480532" lon="49.1317167"><time>2022-10-29T16:09:50.937</time></trkpt><trkpt lat="55.7480103" lon="49.1317640"><time>2022-10-29T16:09:54.930</time></trkpt><trkpt lat="55.7480158" lon="49.1318494"><time>2022-10-29T16:10:39.933</time></trkpt><trkpt lat="55.7480078" lon="49.1319578"><time>2022-10-29T16:10:42.933</time></trkpt><trkpt lat="55.7480174" lon="49.1320414"><time>2022-10-29T16:10:44.930</time></trkpt><trkpt lat="55.7480326" lon="49.1321516"><time>2022-10-29T16:10:47.933</time></trkpt><trkpt lat="55.7480468" lon="49.1322543"><time>2022-10-29T16:10:49.933</time></trkpt><trkpt lat="55.7480594" lon="49.1323438"><time>2022-10-29T16:10:51.930</time></trkpt><trkpt lat="55.7480426" lon="49.1324300"><time>2022-10-29T16:10:54.943</time></trkpt><trkpt lat="55.7479959" lon="49.1324904"><time>2022-10-29T16:11:07.883</time></trkpt><trkpt lat="55.7479938" lon="49.1326048"><time>2022-10-29T16:11:10.900</time></trkpt><trkpt lat="55.7479999" lon="49.1327140"><time>2022-10-29T16:11:13.913</time></trkpt><trkpt lat="55.7480069" lon="49.1328080"><time>2022-10-29T16:11:15.923</time></trkpt><trkpt lat="55.7480147" lon="49.1329276"><time>2022-10-29T16:11:17.933</time></trkpt><trkpt lat="55.7480201" lon="49.1330454"><time>2022-10-29T16:11:19.923</time></trkpt><trkpt lat="55.7480264" lon="49.1331625"><time>2022-10-29T16:11:21.927</time></trkpt><trkpt lat="55.7480322" lon="49.1332697"><time>2022-10-29T16:11:23.940</time></trkpt><trkpt lat="55.7480374" lon="49.1333654"><time>2022-10-29T16:11:25.930</time></trkpt><trkpt lat="55.7480515" lon="49.1334524"><time>2022-10-29T16:11:27.930</time></trkpt><trkpt lat="55.7480833" lon="49.1335463"><time>2022-10-29T16:11:31.937</time></trkpt><trkpt lat="55.7481000" lon="49.1336268"><time>2022-10-29T16:11:33.897</time></trkpt><trkpt lat="55.7481146" lon="49.1337213"><time>2022-10-29T16:11:35.940</time></trkpt><trkpt lat="55.7481230" lon="49.1338384"><time>2022-10-29T16:11:37.920</time></trkpt><trkpt lat="55.7481360" lon="49.1339398"><time>2022-10-29T16:11:40.897</time></trkpt><trkpt lat="55.7481404" lon="49.1340558"><time>2022-10-29T16:11:43.890</time></trkpt><trkpt lat="55.7481335" lon="49.1341506"><time>2022-10-29T16:11:45.897</time></trkpt><trkpt lat="55.7481277" lon="49.1342459"><time>2022-10-29T16:11:47.937</time></trkpt><trkpt lat="55.7481230" lon="49.1343559"><time>2022-10-29T16:11:49.897</time></trkpt><trkpt lat="55.7481210" lon="49.1344406"><time>2022-10-29T16:11:51.897</time></trkpt><trkpt lat="55.7481134" lon="49.1345605"><time>2022-10-29T16:11:53.933</time></trkpt><trkpt lat="55.7481129" lon="49.1346732"><time>2022-10-29T16:11:55.907</time></trkpt><trkpt lat="55.7481194" lon="49.1347880"><time>2022-10-29T16:11:57.930</time></trkpt><trkpt lat="55.7481255" lon="49.1348950"><time>2022-10-29T16:11:59.933</time></trkpt><trkpt lat="55.7481348" lon="49.1349942"><time>2022-10-29T16:12:01.933</time></trkpt><trkpt lat="55.7481405" lon="49.1351008"><time>2022-10-29T16:12:03.933</time></trkpt><trkpt lat="55.7481476" lon="49.1352052"><time>2022-10-29T16:12:06.933</time></trkpt><trkpt lat="55.7481312" lon="49.1352815"><time>2022-10-29T16:12:08.937</time></trkpt><trkpt lat="55.7481293" lon="49.1353779"><time>2022-10-29T16:12:10.943</time></trkpt><trkpt lat="55.7481368" lon="49.1354842"><time>2022-10-29T16:12:12.930</time></trkpt><trkpt lat="55.7481413" lon="49.1355908"><time>2022-10-29T16:12:14.937</time></trkpt><trkpt lat="55.7481450" lon="49.1357096"><time>2022-10-29T16:12:16.930</time></trkpt><trkpt lat="55.7481477" lon="49.1358206"><time>2022-10-29T16:12:18.930</time></trkpt><trkpt lat="55.7481481" lon="49.1359136"><time>2022-10-29T16:12:20.930</time></trkpt><trkpt lat="55.7481513" lon="49.1360019"><time>2022-10-29T16:12:22.930</time></trkpt><trkpt lat="55.7481535" lon="49.1360852"><time>2022-10-29T16:12:24.897</time></trkpt><trkpt lat="55.7481570" lon="49.1361826"><time>2022-10-29T16:12:26.880</time></trkpt><trkpt lat="55.7481652" lon="49.1362761"><time>2022-10-29T16:12:28.930</time></trkpt><trkpt lat="55.7481722" lon="49.1363702"><time>2022-10-29T16:12:30.897</time></trkpt><trkpt lat="55.7481773" lon="49.1364693"><time>2022-10-29T16:12:32.927</time></trkpt><trkpt lat="55.7481801" lon="49.1365634"><time>2022-10-29T16:12:34.923</time></trkpt><trkpt lat="55.7481836" lon="49.1366471"><time>2022-10-29T16:12:36.930</time></trkpt><trkpt lat="55.7481871" lon="49.1367620"><time>2022-10-29T16:12:38.933</time></trkpt><trkpt lat="55.7481914" lon="49.1368799"><time>2022-10-29T16:12:40.943</time></trkpt><trkpt lat="55.7481991" lon="49.1369987"><time>2022-10-29T16:12:42.937</time></trkpt><trkpt lat="55.7482101" lon="49.1371142"><time>2022-10-29T16:12:44.937</time></trkpt><trkpt lat="55.7482179" lon="49.1372303"><time>2022-10-29T16:12:46.933</time></trkpt><trkpt lat="55.7482227" lon="49.1373387"><time>2022-10-29T16:12:48.930</time></trkpt><trkpt lat="55.7482315" lon="49.1374430"><time>2022-10-29T16:12:50.940</time></trkpt><trkpt lat="55.7482623" lon="49.1375462"><time>2022-10-29T16:12:52.937</time></trkpt><trkpt lat="55.7482867" lon="49.1376381"><time>2022-10-29T16:12:54.937</time></trkpt><trkpt lat="55.7482989" lon="49.1377380"><time>2022-10-29T16:12:56.910</time></trkpt><trkpt lat="55.7483072" lon="49.1378373"><time>2022-10-29T16:12:58.933</time></trkpt><trkpt lat="55.7483148" lon="49.1379522"><time>2022-10-29T16:13:00.933</time></trkpt><trkpt lat="55.7483216" lon="49.1380611"><time>2022-10-29T16:13:02.890</time></trkpt><trkpt lat="55.7483261" lon="49.1381654"><time>2022-10-29T16:13:05.930</time></trkpt><trkpt lat="55.7483376" lon="49.1382472"><time>2022-10-29T16:13:08.933</time></trkpt><trkpt lat="55.7483083" lon="49.1383647"><time>2022-10-29T16:13:11.930</time></trkpt><trkpt lat="55.7482994" lon="49.1384669"><time>2022-10-29T16:13:13.933</time></trkpt><trkpt lat="55.7483038" lon="49.1385736"><time>2022-10-29T16:13:15.890</time></trkpt><trkpt lat="55.7483065" lon="49.1386799"><time>2022-10-29T16:13:17.927</time></trkpt><trkpt lat="55.7483068" lon="49.1387889"><time>2022-10-29T16:13:19.883</time></trkpt><trkpt lat="55.7483042" lon="49.1389012"><time>2022-10-29T16:13:21.933</time></trkpt><trkpt lat="55.7483044" lon="49.1390188"><time>2022-10-29T16:13:23.883</time></trkpt><trkpt lat="55.7483056" lon="49.1391236"><time>2022-10-29T16:13:25.890</time></trkpt><trkpt lat="55.7483050" lon="49.1392225"><time>2022-10-29T16:13:27.883</time></trkpt><trkpt lat="55.7483131" lon="49.1393045"><time>2022-10-29T16:13:29.893</time></trkpt><trkpt lat="55.7483222" lon="49.1394017"><time>2022-10-29T16:13:32.897</time></trkpt><trkpt lat="55.7483683" lon="49.1394577"><time>2022-10-29T16:13:36.930</time></trkpt><trkpt lat="55.7484147" lon="49.1394817"><time>2022-10-29T16:13:40.927</time></trkpt><trkpt lat="55.7484621" lon="49.1394887"><time>2022-10-29T16:13:43.893</time></trkpt><trkpt lat="55.7485028" lon="49.1395248"><time>2022-10-29T16:13:50.910</time></trkpt><trkpt lat="55.7484632" lon="49.1395887"><time>2022-10-29T16:13:56.943</time></trkpt><trkpt lat="55.7484343" lon="49.1396663"><time>2022-10-29T16:13:59.893</time></trkpt><trkpt lat="55.7484248" lon="49.1397477"><time>2022-10-29T16:14:01.930</time></trkpt><trkpt lat="55.7484192" lon="49.1398543"><time>2022-10-29T16:14:04.923</time></trkpt><trkpt lat="55.7483841" lon="49.1399489"><time>2022-10-29T16:14:07.900</time></trkpt><trkpt lat="55.7483584" lon="49.1400332"><time>2022-10-29T16:14:09.903</time></trkpt><trkpt lat="55.7483638" lon="49.1401254"><time>2022-10-29T16:14:12.930</time></trkpt><trkpt lat="55.7483655" lon="49.1402106"><time>2022-10-29T16:14:14.940</time></trkpt><trkpt lat="55.7483701" lon="49.1402962"><time>2022-10-29T16:14:16.920</time></trkpt><trkpt lat="55.7483849" lon="49.1404007"><time>2022-10-29T16:14:19.937</time></trkpt><trkpt lat="55.7483955" lon="49.1404898"><time>2022-10-29T16:14:21.893</time></trkpt><trkpt lat="55.7483952" lon="49.1405837"><time>2022-10-29T16:14:23.933</time></trkpt><trkpt lat="55.7483948" lon="49.1406650"><time>2022-10-29T16:14:25.903</time></trkpt><trkpt lat="55.7483972" lon="49.1407669"><time>2022-10-29T16:14:27.893</time></trkpt><trkpt lat="55.7483937" lon="49.1408611"><time>2022-10-29T16:14:29.927</time></trkpt><trkpt lat="55.7483922" lon="49.1409601"><time>2022-10-29T16:14:31.933</time></trkpt><trkpt lat="55.7483920" lon="49.1410706"><time>2022-10-29T16:14:33.897</time></trkpt><trkpt lat="55.7483900" lon="49.1411785"><time>2022-10-29T16:14:35.897</time></trkpt><trkpt lat="55.7483889" lon="49.1412690"><time>2022-10-29T16:14:37.923</time></trkpt><trkpt lat="55.7483889" lon="49.1413650"><time>2022-10-29T16:14:39.923</time></trkpt><trkpt lat="55.7483918" lon="49.1414535"><time>2022-10-29T16:14:41.937</time></trkpt><trkpt lat="55.7484060" lon="49.1415373"><time>2022-10-29T16:14:44.927</time></trkpt><trkpt lat="55.7484124" lon="49.1416221"><time>2022-10-29T16:14:46.937</time></trkpt><trkpt lat="55.7484219" lon="49.1417320"><time>2022-10-29T16:14:48.933</time></trkpt><trkpt lat="55.7484316" lon="49.1418353"><time>2022-10-29T16:14:50.937</time></trkpt><trkpt lat="55.7484385" lon="49.1419353"><time>2022-10-29T16:14:52.927</time></trkpt><trkpt lat="55.7484454" lon="49.1420311"><time>2022-10-29T16:14:54.927</time></trkpt><trkpt lat="55.7484540" lon="49.1421331"><time>2022-10-29T16:14:56.933</time></trkpt><trkpt lat="55.7484581" lon="49.1422433"><time>2022-10-29T16:14:58.933</time></trkpt><trkpt lat="55.7484631" lon="49.1423607"><time>2022-10-29T16:15:00.937</time></trkpt><trkpt lat="55.7484625" lon="49.1423933"><time>2022-10-29T16:15:01.987</time></trkpt><trkpt lat="55.7484574" lon="49.1425003"><time>2022-10-29T16:15:03.893</time></trkpt><trkpt lat="55.7484304" lon="49.1426010"><time>2022-10-29T16:15:06.897</time></trkpt><trkpt lat="55.7484175" lon="49.1426779"><time>2022-10-29T16:15:08.897</time></trkpt><trkpt lat="55.7484019" lon="49.1427744"><time>2022-10-29T16:15:10.893</time></trkpt><trkpt lat="55.7483998" lon="49.1428765"><time>2022-10-29T16:15:12.930</time></trkpt><trkpt lat="55.7484179" lon="49.1429794"><time>2022-10-29T16:15:14.930</time></trkpt><trkpt lat="55.7484360" lon="49.1430969"><time>2022-10-29T16:15:16.927</time></trkpt><trkpt lat="55.7484483" lon="49.1432149"><time>2022-10-29T16:15:18.937</time></trkpt><trkpt lat="55.7484606" lon="49.1433220"><time>2022-10-29T16:15:20.930</time></trkpt><trkpt lat="55.7484748" lon="49.1434399"><time>2022-10-29T16:15:22.937</time></trkpt><trkpt lat="55.7484907" lon="49.1435483"><time>2022-10-29T16:15:24.920</time></trkpt><trkpt lat="55.7485094" lon="49.1436387"><time>2022-10-29T16:15:26.917</time></trkpt><trkpt lat="55.7485293" lon="49.1437489"><time>2022-10-29T16:15:28.923</time></trkpt><trkpt lat="55.7485403" lon="49.1438365"><time>2022-10-29T16:15:30.933</time></trkpt><trkpt lat="55.7485490" lon="49.1439303"><time>2022-10-29T16:15:32.933</time></trkpt><trkpt lat="55.7485087" lon="49.1440086"><time>2022-10-29T16:15:34.907</time></trkpt><trkpt lat="55.7484448" lon="49.1440224"><time>2022-10-29T16:15:36.930</time></trkpt><trkpt lat="55.7483897" lon="49.1440317"><time>2022-10-29T16:15:38.940</time></trkpt><trkpt lat="55.7483444" lon="49.1440325"><time>2022-10-29T16:15:40.930</time></trkpt><trkpt lat="55.7482925" lon="49.1440385"><time>2022-10-29T16:15:42.930</time></trkpt><trkpt lat="55.7482472" lon="49.1440555"><time>2022-10-29T16:15:44.930</time></trkpt><trkpt lat="55.7481945" lon="49.1440747"><time>2022-10-29T16:15:46.897</time></trkpt><trkpt lat="55.7481388" lon="49.1440903"><time>2022-10-29T16:15:48.900</time></trkpt><trkpt lat="55.7480705" lon="49.1441139"><time>2022-10-29T16:15:50.897</time></trkpt><trkpt lat="55.7480028" lon="49.1441364"><time>2022-10-29T16:15:52.900</time></trkpt><trkpt lat="55.7479409" lon="49.1441541"><time>2022-10-29T16:15:54.893</time></trkpt><trkpt lat="55.7478759" lon="49.1441731"><time>2022-10-29T16:15:56.897</time></trkpt><trkpt lat="55.7478122" lon="49.1442032"><time>2022-10-29T16:15:58.943</time></trkpt><trkpt lat="55.7477897" lon="49.1441900"><time>2022-10-29T16:16:00.047</time></trkpt><trkpt lat="55.7477210" lon="49.1442135"><time>2022-10-29T16:16:01.887</time></trkpt><trkpt lat="55.7476684" lon="49.1442103"><time>2022-10-29T16:16:03.893</time></trkpt><trkpt lat="55.7476213" lon="49.1441485"><time>2022-10-29T16:16:06.917</time></trkpt><trkpt lat="55.7475236" lon="49.1441121"><time>2022-10-29T16:16:09.910</time></trkpt><trkpt lat="55.7474503" lon="49.1441300"><time>2022-10-29T16:16:11.920</time></trkpt><trkpt lat="55.7474092" lon="49.1440912"><time>2022-10-29T16:16:14.947</time></trkpt><trkpt lat="55.7474102" lon="49.1440842"><time>2022-10-29T16:16:16.050</time></trkpt><trkpt lat="55.7473956" lon="49.1439715"><time>2022-10-29T16:16:19.910</time></trkpt><trkpt lat="55.7473376" lon="49.1439766"><time>2022-10-29T16:16:22.917</time></trkpt><trkpt lat="55.7472848" lon="49.1439912"><time>2022-10-29T16:16:24.920</time></trkpt><trkpt lat="55.7472412" lon="49.1440203"><time>2022-10-29T16:16:26.907</time></trkpt><trkpt lat="55.7472309" lon="49.1441007"><time>2022-10-29T16:16:28.883</time></trkpt><trkpt lat="55.7471678" lon="49.1441501"><time>2022-10-29T16:16:31.893</time></trkpt><trkpt lat="55.7471056" lon="49.1441452"><time>2022-10-29T16:16:34.963</time></trkpt><trkpt lat="55.7471056" lon="49.1441452"><time>2022-10-29T16:16:35.180</time></trkpt><trkpt lat="55.7470514" lon="49.1441476"><time>2022-10-29T16:16:37.937</time></trkpt><trkpt lat="55.7470300" lon="49.1441532"><time>2022-10-29T16:16:39.050</time></trkpt><trkpt lat="55.7469876" lon="49.1441807"><time>2022-10-29T16:16:41.890</time></trkpt><trkpt lat="55.7469400" lon="49.1441993"><time>2022-10-29T16:16:43.890</time></trkpt><trkpt lat="55.7468865" lon="49.1442130"><time>2022-10-29T16:16:45.890</time></trkpt><trkpt lat="55.7468283" lon="49.1442278"><time>2022-10-29T16:16:47.897</time></trkpt><trkpt lat="55.7467769" lon="49.1442396"><time>2022-10-29T16:16:49.893</time></trkpt><trkpt lat="55.7467165" lon="49.1442224"><time>2022-10-29T16:16:52.893</time></trkpt><trkpt lat="55.7466735" lon="49.1441861"><time>2022-10-29T16:16:54.893</time></trkpt><trkpt lat="55.7466420" lon="49.1441255"><time>2022-10-29T16:16:57.897</time></trkpt><trkpt lat="55.7466514" lon="49.1440419"><time>2022-10-29T16:17:00.893</time></trkpt><trkpt lat="55.7466396" lon="49.1439521"><time>2022-10-29T16:17:02.897</time></trkpt><trkpt lat="55.7466312" lon="49.1438699"><time>2022-10-29T16:17:04.897</time></trkpt><trkpt lat="55.7466062" lon="49.1437672"><time>2022-10-29T16:17:06.897</time></trkpt><trkpt lat="55.7465809" lon="49.1436670"><time>2022-10-29T16:17:09.927</time></trkpt><trkpt lat="55.7465342" lon="49.1436089"><time>2022-10-29T16:17:11.923</time></trkpt><trkpt lat="55.7464714" lon="49.1436165"><time>2022-10-29T16:17:13.937</time></trkpt><trkpt lat="55.7464134" lon="49.1436422"><time>2022-10-29T16:17:15.930</time></trkpt><trkpt lat="55.7463488" lon="49.1436626"><time>2022-10-29T16:17:17.923</time></trkpt><trkpt lat="55.7462831" lon="49.1436868"><time>2022-10-29T16:17:19.933</time></trkpt><trkpt lat="55.7462192" lon="49.1436981"><time>2022-10-29T16:17:21.927</time></trkpt><trkpt lat="55.7461548" lon="49.1437210"><time>2022-10-29T16:17:23.933</time></trkpt><trkpt lat="55.7460989" lon="49.1437464"><time>2022-10-29T16:17:25.930</time></trkpt><trkpt lat="55.7460382" lon="49.1437733"><time>2022-10-29T16:17:27.923</time></trkpt><trkpt lat="55.7459896" lon="49.1437996"><time>2022-10-29T16:17:29.933</time></trkpt><trkpt lat="55.7459327" lon="49.1438298"><time>2022-10-29T16:17:31.940</time></trkpt><trkpt lat="55.7458800" lon="49.1438579"><time>2022-10-29T16:17:33.930</time></trkpt><trkpt lat="55.7458330" lon="49.1438707"><time>2022-10-29T16:17:35.937</time></trkpt><trkpt lat="55.7457875" lon="49.1438350"><time>2022-10-29T16:17:37.933</time></trkpt><trkpt lat="55.7457744" lon="49.1437453"><time>2022-10-29T16:17:42.937</time></trkpt><trkpt lat="55.7457486" lon="49.1436590"><time>2022-10-29T16:17:45.930</time></trkpt><trkpt lat="55.7456650" lon="49.1436353"><time>2022-10-29T16:17:47.933</time></trkpt><trkpt lat="55.7455859" lon="49.1436325"><time>2022-10-29T16:17:49.927</time></trkpt><trkpt lat="55.7455092" lon="49.1436428"><time>2022-10-29T16:17:51.930</time></trkpt><trkpt lat="55.7454308" lon="49.1436677"><time>2022-10-29T16:17:53.933</time></trkpt><trkpt lat="55.7453601" lon="49.1436919"><time>2022-10-29T16:17:55.937</time></trkpt><trkpt lat="55.7452994" lon="49.1437154"><time>2022-10-29T16:17:57.930</time></trkpt><trkpt lat="55.7452338" lon="49.1437348"><time>2022-10-29T16:17:59.943</time></trkpt><trkpt lat="55.7451620" lon="49.1437527"><time>2022-10-29T16:18:01.930</time></trkpt><trkpt lat="55.7450827" lon="49.1437784"><time>2022-10-29T16:18:03.943</time></trkpt><trkpt lat="55.7450114" lon="49.1437939"><time>2022-10-29T16:18:05.940</time></trkpt><trkpt lat="55.7449401" lon="49.1438244"><time>2022-10-29T16:18:07.937</time></trkpt><trkpt lat="55.7448624" lon="49.1438685"><time>2022-10-29T16:18:09.930</time></trkpt><trkpt lat="55.7447775" lon="49.1438974"><time>2022-10-29T16:18:11.933</time></trkpt><trkpt lat="55.7446956" lon="49.1439245"><time>2022-10-29T16:18:13.933</time></trkpt><trkpt lat="55.7446130" lon="49.1439515"><time>2022-10-29T16:18:15.927</time></trkpt><trkpt lat="55.7445226" lon="49.1439740"><time>2022-10-29T16:18:17.937</time></trkpt><trkpt lat="55.7444340" lon="49.1440083"><time>2022-10-29T16:18:19.933</time></trkpt><trkpt lat="55.7443868" lon="49.1440232"><time>2022-10-29T16:18:20.940</time></trkpt><trkpt lat="55.7443416" lon="49.1440394"><time>2022-10-29T16:18:21.940</time></trkpt><trkpt lat="55.7442490" lon="49.1440875"><time>2022-10-29T16:18:23.967</time></trkpt><trkpt lat="55.7442336" lon="49.1440944"><time>2022-10-29T16:18:24.950</time></trkpt><trkpt lat="55.7441660" lon="49.1441192"><time>2022-10-29T16:18:25.930</time></trkpt><trkpt lat="55.7441214" lon="49.1441376"><time>2022-10-29T16:18:26.920</time></trkpt><trkpt lat="55.7440367" lon="49.1441661"><time>2022-10-29T16:18:28.920</time></trkpt><trkpt lat="55.7439924" lon="49.1441824"><time>2022-10-29T16:18:29.923</time></trkpt><trkpt lat="55.7439104" lon="49.1441990"><time>2022-10-29T16:18:31.917</time></trkpt><trkpt lat="55.7438316" lon="49.1442161"><time>2022-10-29T16:18:33.897</time></trkpt><trkpt lat="55.7437858" lon="49.1442306"><time>2022-10-29T16:18:34.893</time></trkpt><trkpt lat="55.7437040" lon="49.1442700"><time>2022-10-29T16:18:36.903</time></trkpt><trkpt lat="55.7436587" lon="49.1442856"><time>2022-10-29T16:18:37.897</time></trkpt><trkpt lat="55.7436138" lon="49.1443002"><time>2022-10-29T16:18:38.897</time></trkpt><trkpt lat="55.7435341" lon="49.1443269"><time>2022-10-29T16:18:40.890</time></trkpt><trkpt lat="55.7434498" lon="49.1443617"><time>2022-10-29T16:18:42.897</time></trkpt><trkpt lat="55.7433744" lon="49.1444008"><time>2022-10-29T16:18:44.903</time></trkpt><trkpt lat="55.7432976" lon="49.1444262"><time>2022-10-29T16:18:46.920</time></trkpt><trkpt lat="55.7432175" lon="49.1444409"><time>2022-10-29T16:18:48.897</time></trkpt><trkpt lat="55.7431444" lon="49.1444635"><time>2022-10-29T16:18:50.970</time></trkpt><trkpt lat="55.7431218" lon="49.1444708"><time>2022-10-29T16:18:52.093</time></trkpt><trkpt lat="55.7430503" lon="49.1444938"><time>2022-10-29T16:18:53.927</time></trkpt><trkpt lat="55.7430066" lon="49.1445149"><time>2022-10-29T16:18:55.917</time></trkpt><trkpt lat="55.7429583" lon="49.1445066"><time>2022-10-29T16:18:59.927</time></trkpt><trkpt lat="55.7429894" lon="49.1443989"><time>2022-10-29T16:19:03.927</time></trkpt><trkpt lat="55.7430045" lon="49.1442893"><time>2022-10-29T16:19:06.913</time></trkpt><trkpt lat="55.7430129" lon="49.1441924"><time>2022-10-29T16:19:09.913</time></trkpt><trkpt lat="55.7430204" lon="49.1440914"><time>2022-10-29T16:19:12.920</time></trkpt><trkpt lat="55.7430187" lon="49.1440058"><time>2022-10-29T16:19:14.917</time></trkpt><trkpt lat="55.7430151" lon="49.1439263"><time>2022-10-29T16:19:16.923</time></trkpt><trkpt lat="55.7429848" lon="49.1438544"><time>2022-10-29T16:19:19.917</time></trkpt><trkpt lat="55.7429348" lon="49.1438465"><time>2022-10-29T16:19:22.917</time></trkpt><trkpt lat="55.7428899" lon="49.1438344"><time>2022-10-29T16:19:25.953</time></trkpt><trkpt lat="55.7428728" lon="49.1438206"><time>2022-10-29T16:19:27.060</time></trkpt><trkpt lat="55.7428274" lon="49.1438102"><time>2022-10-29T16:19:29.890</time></trkpt><trkpt lat="55.7427764" lon="49.1438016"><time>2022-10-29T16:19:32.897</time></trkpt><trkpt lat="55.7427235" lon="49.1437966"><time>2022-10-29T16:19:35.893</time></trkpt><trkpt lat="55.7426627" lon="49.1437945"><time>2022-10-29T16:19:38.893</time></trkpt><trkpt lat="55.7426143" lon="49.1437911"><time>2022-10-29T16:19:41.893</time></trkpt><trkpt lat="55.7425876" lon="49.1437267"><time>2022-10-29T16:19:47.893</time></trkpt><trkpt lat="55.7425878" lon="49.1436405"><time>2022-10-29T16:19:50.913</time></trkpt><trkpt lat="55.7425878" lon="49.1436405"><time>2022-10-29T16:19:50.960</time></trkpt><trkpt lat="55.7425838" lon="49.1435361"><time>2022-10-29T16:19:53.937</time></trkpt><trkpt lat="55.7426089" lon="49.1435009"><time>2022-10-29T16:19:55.050</time></trkpt><trkpt lat="55.7426145" lon="49.1435901"><time>2022-10-29T16:19:57.930</time></trkpt><trkpt lat="55.7426090" lon="49.1436948"><time>2022-10-29T16:20:00.930</time></trkpt><trkpt lat="55.7426022" lon="49.1437788"><time>2022-10-29T16:20:03.923</time></trkpt><trkpt lat="55.7426575" lon="49.1437913"><time>2022-10-29T16:21:18.943</time></trkpt><trkpt lat="55.7427098" lon="49.1437933"><time>2022-10-29T16:21:21.937</time></trkpt><trkpt lat="55.7427643" lon="49.1438001"><time>2022-10-29T16:21:24.930</time></trkpt><trkpt lat="55.7428087" lon="49.1438140"><time>2022-10-29T16:21:27.940</time></trkpt><trkpt lat="55.7428689" lon="49.1438293"><time>2022-10-29T16:21:30.953</time></trkpt><trkpt lat="55.7429210" lon="49.1438481"><time>2022-10-29T16:21:34.940</time></trkpt><trkpt lat="55.7429787" lon="49.1438454"><time>2022-10-29T16:21:39.937</time></trkpt><trkpt lat="55.7430166" lon="49.1439080"><time>2022-10-29T16:21:41.937</time></trkpt><trkpt lat="55.7430307" lon="49.1440039"><time>2022-10-29T16:21:43.937</time></trkpt><trkpt lat="55.7430274" lon="49.1441174"><time>2022-10-29T16:21:45.933</time></trkpt><trkpt lat="55.7430203" lon="49.1442203"><time>2022-10-29T16:21:47.943</time></trkpt><trkpt lat="55.7430113" lon="49.1443082"><time>2022-10-29T16:21:49.940</time></trkpt><trkpt lat="55.7430012" lon="49.1443955"><time>2022-10-29T16:21:51.937</time></trkpt><trkpt lat="55.7429852" lon="49.1444826"><time>2022-10-29T16:21:54.943</time></trkpt><trkpt lat="55.7429629" lon="49.1445551"><time>2022-10-29T16:21:58.933</time></trkpt><trkpt lat="55.7430228" lon="49.1445985"><time>2022-10-29T16:22:00.930</time></trkpt><trkpt lat="55.7430973" lon="49.1445711"><time>2022-10-29T16:22:02.947</time></trkpt><trkpt lat="55.7431505" lon="49.1445746"><time>2022-10-29T16:22:04.940</time></trkpt><trkpt lat="55.7431970" lon="49.1446205"><time>2022-10-29T16:22:06.937</time></trkpt><trkpt lat="55.7432245" lon="49.1446978"><time>2022-10-29T16:22:08.933</time></trkpt><trkpt lat="55.7432449" lon="49.1447770"><time>2022-10-29T16:22:10.940</time></trkpt><trkpt lat="55.7432706" lon="49.1448727"><time>2022-10-29T16:22:12.937</time></trkpt><trkpt lat="55.7432859" lon="49.1449612"><time>2022-10-29T16:22:14.943</time></trkpt><trkpt lat="55.7432990" lon="49.1450402"><time>2022-10-29T16:22:16.937</time></trkpt><trkpt lat="55.7433127" lon="49.1451162"><time>2022-10-29T16:22:18.937</time></trkpt><trkpt lat="55.7433203" lon="49.1452116"><time>2022-10-29T16:22:20.937</time></trkpt><trkpt lat="55.7433261" lon="49.1453029"><time>2022-10-29T16:22:22.933</time></trkpt><trkpt lat="55.7433342" lon="49.1453820"><time>2022-10-29T16:22:24.930</time></trkpt><trkpt lat="55.7433425" lon="49.1454703"><time>2022-10-29T16:22:26.947</time></trkpt><trkpt lat="55.7433520" lon="49.1455574"><time>2022-10-29T16:22:28.947</time></trkpt><trkpt lat="55.7433619" lon="49.1456545"><time>2022-10-29T16:22:30.937</time></trkpt><trkpt lat="55.7433739" lon="49.1457423"><time>2022-10-29T16:22:32.933</time></trkpt><trkpt lat="55.7433806" lon="49.1458401"><time>2022-10-29T16:22:34.947</time></trkpt><trkpt lat="55.7433845" lon="49.1459256"><time>2022-10-29T16:22:36.937</time></trkpt><trkpt lat="55.7433972" lon="49.1460133"><time>2022-10-29T16:22:38.927</time></trkpt><trkpt lat="55.7434116" lon="49.1461084"><time>2022-10-29T16:22:40.937</time></trkpt><trkpt lat="55.7434204" lon="49.1462075"><time>2022-10-29T16:22:42.937</time></trkpt><trkpt lat="55.7434290" lon="49.1462910"><time>2022-10-29T16:22:44.930</time></trkpt><trkpt lat="55.7434376" lon="49.1463967"><time>2022-10-29T16:22:46.937</time></trkpt><trkpt lat="55.7434479" lon="49.1464936"><time>2022-10-29T16:22:48.947</time></trkpt><trkpt lat="55.7434551" lon="49.1465879"><time>2022-10-29T16:22:50.940</time></trkpt><trkpt lat="55.7434596" lon="49.1466860"><time>2022-10-29T16:22:52.937</time></trkpt><trkpt lat="55.7434632" lon="49.1467767"><time>2022-10-29T16:22:54.933</time></trkpt><trkpt lat="55.7434713" lon="49.1468828"><time>2022-10-29T16:22:57.933</time></trkpt><trkpt lat="55.7434869" lon="49.1469607"><time>2022-10-29T16:23:00.940</time></trkpt><trkpt lat="55.7435024" lon="49.1470515"><time>2022-10-29T16:23:03.933</time></trkpt><trkpt lat="55.7435292" lon="49.1471173"><time>2022-10-29T16:23:05.943</time></trkpt><trkpt lat="55.7435719" lon="49.1471514"><time>2022-10-29T16:23:07.940</time></trkpt><trkpt lat="55.7436247" lon="49.1471938"><time>2022-10-29T16:23:10.940</time></trkpt><trkpt lat="55.7436392" lon="49.1472806"><time>2022-10-29T16:23:12.927</time></trkpt><trkpt lat="55.7436391" lon="49.1474049"><time>2022-10-29T16:23:14.933</time></trkpt><trkpt lat="55.7436311" lon="49.1475100"><time>2022-10-29T16:23:16.933</time></trkpt><trkpt lat="55.7436186" lon="49.1476151"><time>2022-10-29T16:23:18.937</time></trkpt><trkpt lat="55.7436067" lon="49.1477139"><time>2022-10-29T16:23:20.940</time></trkpt><trkpt lat="55.7435955" lon="49.1478181"><time>2022-10-29T16:23:22.933</time></trkpt><trkpt lat="55.7435863" lon="49.1479196"><time>2022-10-29T16:23:24.930</time></trkpt><trkpt lat="55.7435764" lon="49.1480072"><time>2022-10-29T16:23:26.933</time></trkpt><trkpt lat="55.7435626" lon="49.1480884"><time>2022-10-29T16:23:28.933</time></trkpt><trkpt lat="55.7435490" lon="49.1481728"><time>2022-10-29T16:23:30.933</time></trkpt><trkpt lat="55.7435358" lon="49.1482597"><time>2022-10-29T16:23:32.947</time></trkpt><trkpt lat="55.7435188" lon="49.1483428"><time>2022-10-29T16:23:34.937</time></trkpt><trkpt lat="55.7435007" lon="49.1484562"><time>2022-10-29T16:23:37.953</time></trkpt><trkpt lat="55.7434883" lon="49.1485437"><time>2022-10-29T16:23:39.930</time></trkpt><trkpt lat="55.7434738" lon="49.1486214"><time>2022-10-29T16:23:41.897</time></trkpt><trkpt lat="55.7434518" lon="49.1487249"><time>2022-10-29T16:23:44.933</time></trkpt><trkpt lat="55.7434325" lon="49.1488007"><time>2022-10-29T16:23:46.933</time></trkpt><trkpt lat="55.7434122" lon="49.1488849"><time>2022-10-29T16:23:48.927</time></trkpt><trkpt lat="55.7433883" lon="49.1489656"><time>2022-10-29T16:23:50.890</time></trkpt><trkpt lat="55.7433652" lon="49.1490367"><time>2022-10-29T16:23:52.937</time></trkpt><trkpt lat="55.7433345" lon="49.1491207"><time>2022-10-29T16:23:54.937</time></trkpt><trkpt lat="55.7432992" lon="49.1492093"><time>2022-10-29T16:23:56.937</time></trkpt><trkpt lat="55.7432598" lon="49.1493010"><time>2022-10-29T16:23:58.937</time></trkpt><trkpt lat="55.7432248" lon="49.1493909"><time>2022-10-29T16:24:00.943</time></trkpt><trkpt lat="55.7431971" lon="49.1494723"><time>2022-10-29T16:24:02.940</time></trkpt><trkpt lat="55.7431809" lon="49.1495517"><time>2022-10-29T16:24:04.940</time></trkpt><trkpt lat="55.7431674" lon="49.1496335"><time>2022-10-29T16:24:06.960</time></trkpt><trkpt lat="55.7431621" lon="49.1496551"><time>2022-10-29T16:24:07.947</time></trkpt><trkpt lat="55.7431420" lon="49.1497351"><time>2022-10-29T16:24:09.930</time></trkpt><trkpt lat="55.7431378" lon="49.1498256"><time>2022-10-29T16:24:11.923</time></trkpt><trkpt lat="55.7431544" lon="49.1499325"><time>2022-10-29T16:24:14.923</time></trkpt><trkpt lat="55.7431581" lon="49.1500381"><time>2022-10-29T16:24:16.927</time></trkpt><trkpt lat="55.7431579" lon="49.1501363"><time>2022-10-29T16:24:18.917</time></trkpt><trkpt lat="55.7431691" lon="49.1502245"><time>2022-10-29T16:24:20.920</time></trkpt><trkpt lat="55.7431794" lon="49.1503255"><time>2022-10-29T16:24:22.917</time></trkpt><trkpt lat="55.7431858" lon="49.1504386"><time>2022-10-29T16:24:25.887</time></trkpt><trkpt lat="55.7431926" lon="49.1505552"><time>2022-10-29T16:24:27.897</time></trkpt><trkpt lat="55.7432017" lon="49.1506442"><time>2022-10-29T16:24:29.900</time></trkpt><trkpt lat="55.7432152" lon="49.1507388"><time>2022-10-29T16:24:31.927</time></trkpt><trkpt lat="55.7432332" lon="49.1508268"><time>2022-10-29T16:24:33.893</time></trkpt><trkpt lat="55.7432583" lon="49.1509199"><time>2022-10-29T16:24:35.897</time></trkpt><trkpt lat="55.7432800" lon="49.1509956"><time>2022-10-29T16:24:37.917</time></trkpt><trkpt lat="55.7433028" lon="49.1510761"><time>2022-10-29T16:24:39.897</time></trkpt><trkpt lat="55.7433220" lon="49.1511646"><time>2022-10-29T16:24:41.927</time></trkpt><trkpt lat="55.7433317" lon="49.1512458"><time>2022-10-29T16:24:43.970</time></trkpt><trkpt lat="55.7433310" lon="49.1512690"><time>2022-10-29T16:24:44.977</time></trkpt><trkpt lat="55.7433230" lon="49.1513852"><time>2022-10-29T16:24:46.930</time></trkpt><trkpt lat="55.7433120" lon="49.1514680"><time>2022-10-29T16:24:48.927</time></trkpt><trkpt lat="55.7432910" lon="49.1515602"><time>2022-10-29T16:24:51.923</time></trkpt><trkpt lat="55.7432814" lon="49.1516713"><time>2022-10-29T16:24:54.917</time></trkpt><trkpt lat="55.7432969" lon="49.1517771"><time>2022-10-29T16:24:57.887</time></trkpt><trkpt lat="55.7433056" lon="49.1518850"><time>2022-10-29T16:25:00.927</time></trkpt><trkpt lat="55.7433155" lon="49.1520059"><time>2022-10-29T16:25:03.947</time></trkpt><trkpt lat="55.7433232" lon="49.1520200"><time>2022-10-29T16:25:05.070</time></trkpt><trkpt lat="55.7433312" lon="49.1521354"><time>2022-10-29T16:25:07.933</time></trkpt><trkpt lat="55.7433297" lon="49.1522187"><time>2022-10-29T16:25:09.923</time></trkpt><trkpt lat="55.7433183" lon="49.1523065"><time>2022-10-29T16:25:12.920</time></trkpt><trkpt lat="55.7433014" lon="49.1524032"><time>2022-10-29T16:25:15.923</time></trkpt><trkpt lat="55.7432818" lon="49.1524948"><time>2022-10-29T16:25:18.937</time></trkpt><trkpt lat="55.7432818" lon="49.1524948"><time>2022-10-29T16:25:18.990</time></trkpt><trkpt lat="55.7432625" lon="49.1525812"><time>2022-10-29T16:25:21.923</time></trkpt><trkpt lat="55.7432582" lon="49.1525929"><time>2022-10-29T16:25:22.857</time></trkpt><trkpt lat="55.7432370" lon="49.1526659"><time>2022-10-29T16:25:26.910</time></trkpt><trkpt lat="55.7432562" lon="49.1525877"><time>2022-10-29T16:25:45.930</time></trkpt><trkpt lat="55.7432696" lon="49.1524975"><time>2022-10-29T16:25:48.907</time></trkpt><trkpt lat="55.7432907" lon="49.1523997"><time>2022-10-29T16:25:50.907</time></trkpt><trkpt lat="55.7433201" lon="49.1523073"><time>2022-10-29T16:25:52.927</time></trkpt><trkpt lat="55.7433391" lon="49.1522263"><time>2022-10-29T16:25:54.927</time></trkpt><trkpt lat="55.7433427" lon="49.1521461"><time>2022-10-29T16:25:56.917</time></trkpt><trkpt lat="55.7433314" lon="49.1520345"><time>2022-10-29T16:25:59.917</time></trkpt><trkpt lat="55.7433210" lon="49.1519485"><time>2022-10-29T16:26:01.897</time></trkpt><trkpt lat="55.7433100" lon="49.1518644"><time>2022-10-29T16:26:03.923</time></trkpt><trkpt lat="55.7433013" lon="49.1517857"><time>2022-10-29T16:26:05.920</time></trkpt><trkpt lat="55.7432905" lon="49.1516885"><time>2022-10-29T16:26:07.930</time></trkpt><trkpt lat="55.7432812" lon="49.1516106"><time>2022-10-29T16:26:09.927</time></trkpt><trkpt lat="55.7432224" lon="49.1515564"><time>2022-10-29T16:26:12.920</time></trkpt><trkpt lat="55.7431654" lon="49.1515554"><time>2022-10-29T16:26:14.920</time></trkpt><trkpt lat="55.7431145" lon="49.1515465"><time>2022-10-29T16:26:16.927</time></trkpt><trkpt lat="55.7430686" lon="49.1515384"><time>2022-10-29T16:26:18.923</time></trkpt><trkpt lat="55.7430190" lon="49.1515365"><time>2022-10-29T16:26:20.913</time></trkpt><trkpt lat="55.7429650" lon="49.1515218"><time>2022-10-29T16:26:22.933</time></trkpt><trkpt lat="55.7429144" lon="49.1515068"><time>2022-10-29T16:26:24.910</time></trkpt><trkpt lat="55.7428685" lon="49.1514909"><time>2022-10-29T16:26:26.920</time></trkpt><trkpt lat="55.7428071" lon="49.1514695"><time>2022-10-29T16:26:29.930</time></trkpt><trkpt lat="55.7427628" lon="49.1514415"><time>2022-10-29T16:26:31.920</time></trkpt><trkpt lat="55.7426965" lon="49.1514251"><time>2022-10-29T16:26:34.900</time></trkpt><trkpt lat="55.7426478" lon="49.1513983"><time>2022-10-29T16:26:36.917</time></trkpt><trkpt lat="55.7426042" lon="49.1513750"><time>2022-10-29T16:26:38.927</time></trkpt><trkpt lat="55.7425369" lon="49.1513306"><time>2022-10-29T16:26:41.893</time></trkpt><trkpt lat="55.7424775" lon="49.1513039"><time>2022-10-29T16:26:43.907</time></trkpt><trkpt lat="55.7424239" lon="49.1512805"><time>2022-10-29T16:26:45.937</time></trkpt><trkpt lat="55.7423695" lon="49.1512596"><time>2022-10-29T16:26:47.927</time></trkpt><trkpt lat="55.7423204" lon="49.1512350"><time>2022-10-29T16:26:49.893</time></trkpt><trkpt lat="55.7422738" lon="49.1512060"><time>2022-10-29T16:26:51.917</time></trkpt><trkpt lat="55.7422198" lon="49.1511793"><time>2022-10-29T16:26:53.947</time></trkpt><trkpt lat="55.7421654" lon="49.1511611"><time>2022-10-29T16:26:55.930</time></trkpt><trkpt lat="55.7421075" lon="49.1511282"><time>2022-10-29T16:26:57.893</time></trkpt><trkpt lat="55.7420527" lon="49.1510956"><time>2022-10-29T16:26:59.893</time></trkpt><trkpt lat="55.7419993" lon="49.1510695"><time>2022-10-29T16:27:01.897</time></trkpt><trkpt lat="55.7419476" lon="49.1510505"><time>2022-10-29T16:27:03.913</time></trkpt><trkpt lat="55.7418959" lon="49.1510196"><time>2022-10-29T16:27:06.920</time></trkpt><trkpt lat="55.7418291" lon="49.1510204"><time>2022-10-29T16:27:10.923</time></trkpt><trkpt lat="55.7417760" lon="49.1510171"><time>2022-10-29T16:27:13.917</time></trkpt><trkpt lat="55.7417106" lon="49.1509902"><time>2022-10-29T16:27:16.930</time></trkpt><trkpt lat="55.7416638" lon="49.1509826"><time>2022-10-29T16:27:18.910</time></trkpt><trkpt lat="55.7416002" lon="49.1509856"><time>2022-10-29T16:27:21.923</time></trkpt><trkpt lat="55.7415370" lon="49.1509911"><time>2022-10-29T16:27:24.923</time></trkpt><trkpt lat="55.7414653" lon="49.1509806"><time>2022-10-29T16:27:27.933</time></trkpt><trkpt lat="55.7414067" lon="49.1509689"><time>2022-10-29T16:27:29.927</time></trkpt><trkpt lat="55.7413490" lon="49.1509678"><time>2022-10-29T16:27:31.920</time></trkpt><trkpt lat="55.7412902" lon="49.1509665"><time>2022-10-29T16:27:33.927</time></trkpt><trkpt lat="55.7412395" lon="49.1509746"><time>2022-10-29T16:27:35.927</time></trkpt><trkpt lat="55.7411917" lon="49.1509738"><time>2022-10-29T16:27:37.923</time></trkpt><trkpt lat="55.7411304" lon="49.1509694"><time>2022-10-29T16:27:39.933</time></trkpt><trkpt lat="55.7410796" lon="49.1509638"><time>2022-10-29T16:27:41.920</time></trkpt><trkpt lat="55.7410232" lon="49.1509517"><time>2022-10-29T16:27:43.927</time></trkpt><trkpt lat="55.7409717" lon="49.1509398"><time>2022-10-29T16:27:45.920</time></trkpt><trkpt lat="55.7409173" lon="49.1509312"><time>2022-10-29T16:27:47.927</time></trkpt><trkpt lat="55.7408668" lon="49.1509250"><time>2022-10-29T16:27:49.917</time></trkpt><trkpt lat="55.7408216" lon="49.1509214"><time>2022-10-29T16:27:51.897</time></trkpt><trkpt lat="55.7407668" lon="49.1509141"><time>2022-10-29T16:27:53.917</time></trkpt><trkpt lat="55.7407166" lon="49.1509123"><time>2022-10-29T16:27:55.907</time></trkpt><trkpt lat="55.7406464" lon="49.1509121"><time>2022-10-29T16:27:58.917</time></trkpt><trkpt lat="55.7405951" lon="49.1509149"><time>2022-10-29T16:28:00.920</time></trkpt><trkpt lat="55.7405460" lon="49.1509123"><time>2022-10-29T16:28:02.920</time></trkpt><trkpt lat="55.7404850" lon="49.1509174"><time>2022-10-29T16:28:05.927</time></trkpt><trkpt lat="55.7404256" lon="49.1509582"><time>2022-10-29T16:28:08.923</time></trkpt><trkpt lat="55.7403844" lon="49.1509919"><time>2022-10-29T16:28:10.923</time></trkpt><trkpt lat="55.7403237" lon="49.1510120"><time>2022-10-29T16:28:12.923</time></trkpt><trkpt lat="55.7402675" lon="49.1510194"><time>2022-10-29T16:28:14.917</time></trkpt><trkpt lat="55.7402145" lon="49.1510104"><time>2022-10-29T16:28:16.920</time></trkpt><trkpt lat="55.7401520" lon="49.1509944"><time>2022-10-29T16:28:18.920</time></trkpt><trkpt lat="55.7400840" lon="49.1509697"><time>2022-10-29T16:28:20.917</time></trkpt><trkpt lat="55.7400272" lon="49.1509361"><time>2022-10-29T16:28:22.923</time></trkpt><trkpt lat="55.7399719" lon="49.1509043"><time>2022-10-29T16:28:24.890</time></trkpt><trkpt lat="55.7399202" lon="49.1508753"><time>2022-10-29T16:28:26.887</time></trkpt><trkpt lat="55.7398792" lon="49.1508374"><time>2022-10-29T16:28:28.893</time></trkpt><trkpt lat="55.7398338" lon="49.1507868"><time>2022-10-29T16:28:30.897</time></trkpt><trkpt lat="55.7397838" lon="49.1507178"><time>2022-10-29T16:28:32.923</time></trkpt><trkpt lat="55.7397370" lon="49.1506485"><time>2022-10-29T16:28:34.917</time></trkpt><trkpt lat="55.7396958" lon="49.1505928"><time>2022-10-29T16:28:36.927</time></trkpt><trkpt lat="55.7396536" lon="49.1505377"><time>2022-10-29T16:28:38.927</time></trkpt><trkpt lat="55.7396120" lon="49.1505069"><time>2022-10-29T16:28:40.923</time></trkpt><trkpt lat="55.7395585" lon="49.1504815"><time>2022-10-29T16:28:44.927</time></trkpt><trkpt lat="55.7395081" lon="49.1504682"><time>2022-10-29T16:28:51.920</time></trkpt><trkpt lat="55.7394568" lon="49.1504687"><time>2022-10-29T16:28:55.917</time></trkpt><trkpt lat="55.7394110" lon="49.1504396"><time>2022-10-29T16:28:58.893</time></trkpt><trkpt lat="55.7393711" lon="49.1504028"><time>2022-10-29T16:29:00.893</time></trkpt><trkpt lat="55.7393260" lon="49.1503464"><time>2022-10-29T16:29:02.897</time></trkpt><trkpt lat="55.7392713" lon="49.1502883"><time>2022-10-29T16:29:04.897</time></trkpt><trkpt lat="55.7392139" lon="49.1502390"><time>2022-10-29T16:29:06.897</time></trkpt><trkpt lat="55.7391589" lon="49.1501914"><time>2022-10-29T16:29:08.910</time></trkpt><trkpt lat="55.7391088" lon="49.1501422"><time>2022-10-29T16:29:10.910</time></trkpt><trkpt lat="55.7390537" lon="49.1501048"><time>2022-10-29T16:29:12.897</time></trkpt><trkpt lat="55.7390002" lon="49.1500740"><time>2022-10-29T16:29:14.927</time></trkpt><trkpt lat="55.7389411" lon="49.1500360"><time>2022-10-29T16:29:16.917</time></trkpt><trkpt lat="55.7388914" lon="49.1500127"><time>2022-10-29T16:29:18.920</time></trkpt><trkpt lat="55.7388250" lon="49.1499671"><time>2022-10-29T16:29:20.917</time></trkpt><trkpt lat="55.7387729" lon="49.1499366"><time>2022-10-29T16:29:22.927</time></trkpt><trkpt lat="55.7387247" lon="49.1499234"><time>2022-10-29T16:29:24.930</time></trkpt><trkpt lat="55.7386724" lon="49.1499007"><time>2022-10-29T16:29:26.927</time></trkpt><trkpt lat="55.7386267" lon="49.1498680"><time>2022-10-29T16:29:28.930</time></trkpt><trkpt lat="55.7385771" lon="49.1498262"><time>2022-10-29T16:29:30.920</time></trkpt><trkpt lat="55.7385345" lon="49.1497815"><time>2022-10-29T16:29:32.943</time></trkpt><trkpt lat="55.7384800" lon="49.1497260"><time>2022-10-29T16:29:34.903</time></trkpt><trkpt lat="55.7384323" lon="49.1496807"><time>2022-10-29T16:29:36.937</time></trkpt><trkpt lat="55.7383818" lon="49.1496350"><time>2022-10-29T16:29:39.927</time></trkpt><trkpt lat="55.7383400" lon="49.1496019"><time>2022-10-29T16:29:42.930</time></trkpt><trkpt lat="55.7382943" lon="49.1495640"><time>2022-10-29T16:29:44.930</time></trkpt><trkpt lat="55.7382451" lon="49.1495188"><time>2022-10-29T16:29:46.927</time></trkpt><trkpt lat="55.7381965" lon="49.1494754"><time>2022-10-29T16:29:48.917</time></trkpt><trkpt lat="55.7381470" lon="49.1494334"><time>2022-10-29T16:29:50.913</time></trkpt><trkpt lat="55.7380913" lon="49.1493932"><time>2022-10-29T16:29:52.927</time></trkpt><trkpt lat="55.7380353" lon="49.1493561"><time>2022-10-29T16:29:54.920</time></trkpt><trkpt lat="55.7379766" lon="49.1493188"><time>2022-10-29T16:29:56.920</time></trkpt><trkpt lat="55.7379168" lon="49.1492820"><time>2022-10-29T16:29:58.927</time></trkpt><trkpt lat="55.7378604" lon="49.1492454"><time>2022-10-29T16:30:00.913</time></trkpt><trkpt lat="55.7378033" lon="49.1492127"><time>2022-10-29T16:30:02.923</time></trkpt><trkpt lat="55.7377458" lon="49.1491783"><time>2022-10-29T16:30:04.927</time></trkpt><trkpt lat="55.7376864" lon="49.1491428"><time>2022-10-29T16:30:06.903</time></trkpt><trkpt lat="55.7376282" lon="49.1491100"><time>2022-10-29T16:30:08.930</time></trkpt><trkpt lat="55.7375669" lon="49.1490775"><time>2022-10-29T16:30:10.910</time></trkpt><trkpt lat="55.7375006" lon="49.1490432"><time>2022-10-29T16:30:12.927</time></trkpt><trkpt lat="55.7374355" lon="49.1490105"><time>2022-10-29T16:30:14.927</time></trkpt><trkpt lat="55.7373738" lon="49.1489754"><time>2022-10-29T16:30:16.920</time></trkpt><trkpt lat="55.7373112" lon="49.1489387"><time>2022-10-29T16:30:18.927</time></trkpt><trkpt lat="55.7372509" lon="49.1489071"><time>2022-10-29T16:30:20.923</time></trkpt><trkpt lat="55.7371889" lon="49.1488766"><time>2022-10-29T16:30:22.923</time></trkpt><trkpt lat="55.7371266" lon="49.1488457"><time>2022-10-29T16:30:24.920</time></trkpt><trkpt lat="55.7370636" lon="49.1488162"><time>2022-10-29T16:30:26.927</time></trkpt><trkpt lat="55.7370000" lon="49.1487892"><time>2022-10-29T16:30:28.927</time></trkpt><trkpt lat="55.7369339" lon="49.1487676"><time>2022-10-29T16:30:30.937</time></trkpt><trkpt lat="55.7368719" lon="49.1487508"><time>2022-10-29T16:30:32.923</time></trkpt><trkpt lat="55.7368164" lon="49.1487376"><time>2022-10-29T16:30:34.953</time></trkpt><trkpt lat="55.7368050" lon="49.1487365"><time>2022-10-29T16:30:35.943</time></trkpt><trkpt lat="55.7367336" lon="49.1487308"><time>2022-10-29T16:30:37.923</time></trkpt><trkpt lat="55.7366769" lon="49.1487262"><time>2022-10-29T16:30:39.913</time></trkpt><trkpt lat="55.7366294" lon="49.1487227"><time>2022-10-29T16:30:41.913</time></trkpt><trkpt lat="55.7365669" lon="49.1487678"><time>2022-10-29T16:30:44.910</time></trkpt><trkpt lat="55.7365339" lon="49.1488557"><time>2022-10-29T16:30:46.917</time></trkpt><trkpt lat="55.7365120" lon="49.1489606"><time>2022-10-29T16:30:48.913</time></trkpt><trkpt lat="55.7365015" lon="49.1490610"><time>2022-10-29T16:30:50.920</time></trkpt><trkpt lat="55.7364904" lon="49.1491637"><time>2022-10-29T16:30:52.910</time></trkpt><trkpt lat="55.7364745" lon="49.1492669"><time>2022-10-29T16:30:54.913</time></trkpt><trkpt lat="55.7364509" lon="49.1493854"><time>2022-10-29T16:30:56.927</time></trkpt><trkpt lat="55.7364233" lon="49.1494963"><time>2022-10-29T16:30:58.923</time></trkpt><trkpt lat="55.7363988" lon="49.1495946"><time>2022-10-29T16:31:00.927</time></trkpt><trkpt lat="55.7363821" lon="49.1496805"><time>2022-10-29T16:31:02.943</time></trkpt><trkpt lat="55.7363704" lon="49.1497762"><time>2022-10-29T16:31:05.897</time></trkpt><trkpt lat="55.7363604" lon="49.1498981"><time>2022-10-29T16:31:08.920</time></trkpt><trkpt lat="55.7363340" lon="49.1500028"><time>2022-10-29T16:31:11.923</time></trkpt><trkpt lat="55.7363073" lon="49.1500694"><time>2022-10-29T16:31:13.937</time></trkpt><trkpt lat="55.7363024" lon="49.1500825"><time>2022-10-29T16:31:14.947</time></trkpt><trkpt lat="55.7362739" lon="49.1501697"><time>2022-10-29T16:31:16.930</time></trkpt><trkpt lat="55.7362425" lon="49.1502694"><time>2022-10-29T16:31:19.927</time></trkpt><trkpt lat="55.7362078" lon="49.1503757"><time>2022-10-29T16:31:22.923</time></trkpt><trkpt lat="55.7361816" lon="49.1504458"><time>2022-10-29T16:31:24.937</time></trkpt><trkpt lat="55.7361561" lon="49.1505191"><time>2022-10-29T16:31:26.927</time></trkpt><trkpt lat="55.7361321" lon="49.1506008"><time>2022-10-29T16:31:28.923</time></trkpt><trkpt lat="55.7360978" lon="49.1507000"><time>2022-10-29T16:31:31.923</time></trkpt><trkpt lat="55.7360694" lon="49.1507981"><time>2022-10-29T16:31:34.953</time></trkpt><trkpt lat="55.7360623" lon="49.1508229"><time>2022-10-29T16:31:36.913</time></trkpt><trkpt lat="55.7360350" lon="49.1509144"><time>2022-10-29T16:31:38.920</time></trkpt><trkpt lat="55.7360121" lon="49.1509994"><time>2022-10-29T16:31:41.923</time></trkpt><trkpt lat="55.7359901" lon="49.1510914"><time>2022-10-29T16:31:44.927</time></trkpt><trkpt lat="55.7359659" lon="49.1511789"><time>2022-10-29T16:31:47.940</time></trkpt><trkpt lat="55.7359659" lon="49.1511789"><time>2022-10-29T16:31:47.990</time></trkpt><trkpt lat="55.7359366" lon="49.1512409"><time>2022-10-29T16:31:54.957</time></trkpt><trkpt lat="55.7359373" lon="49.1512539"><time>2022-10-29T16:31:56.067</time></trkpt><trkpt lat="55.7359037" lon="49.1513121"><time>2022-10-29T16:32:45.937</time></trkpt><trkpt lat="55.7358649" lon="49.1513618"><time>2022-10-29T16:32:52.933</time></trkpt><trkpt lat="55.7358439" lon="49.1514332"><time>2022-10-29T16:33:02.940</time></trkpt><trkpt lat="55.7358176" lon="49.1515087"><time>2022-10-29T16:33:09.933</time></trkpt><trkpt lat="55.7357921" lon="49.1515821"><time>2022-10-29T16:33:21.917</time></trkpt><trkpt lat="55.7357629" lon="49.1516461"><time>2022-10-29T16:33:28.937</time></trkpt><trkpt lat="55.7357941" lon="49.1517098"><time>2022-10-29T16:33:52.930</time></trkpt><trkpt lat="55.7357851" lon="49.1517997"><time>2022-10-29T16:34:09.943</time></trkpt><trkpt lat="55.7357525" lon="49.1518752"><time>2022-10-29T16:34:14.933</time></trkpt><trkpt lat="55.7357061" lon="49.1518973"><time>2022-10-29T16:35:02.927</time></trkpt><trkpt lat="55.7356912" lon="49.1519727"><time>2022-10-29T16:35:04.927</time></trkpt><trkpt lat="55.7356780" lon="49.1520668"><time>2022-10-29T16:35:06.930</time></trkpt><trkpt lat="55.7356446" lon="49.1521391"><time>2022-10-29T16:35:08.937</time></trkpt><trkpt lat="55.7356171" lon="49.1522111"><time>2022-10-29T16:35:10.927</time></trkpt><trkpt lat="55.7355920" lon="49.1522923"><time>2022-10-29T16:35:12.917</time></trkpt><trkpt lat="55.7355629" lon="49.1523730"><time>2022-10-29T16:35:14.933</time></trkpt><trkpt lat="55.7355342" lon="49.1524500"><time>2022-10-29T16:35:16.930</time></trkpt><trkpt lat="55.7355048" lon="49.1525260"><time>2022-10-29T16:35:18.933</time></trkpt><trkpt lat="55.7354768" lon="49.1526144"><time>2022-10-29T16:35:20.930</time></trkpt><trkpt lat="55.7354481" lon="49.1527008"><time>2022-10-29T16:35:22.930</time></trkpt><trkpt lat="55.7354203" lon="49.1527893"><time>2022-10-29T16:35:24.933</time></trkpt><trkpt lat="55.7353951" lon="49.1528759"><time>2022-10-29T16:35:26.927</time></trkpt><trkpt lat="55.7353736" lon="49.1529636"><time>2022-10-29T16:35:28.907</time></trkpt><trkpt lat="55.7353553" lon="49.1530566"><time>2022-10-29T16:35:30.897</time></trkpt><trkpt lat="55.7353395" lon="49.1531556"><time>2022-10-29T16:35:32.897</time></trkpt><trkpt lat="55.7353240" lon="49.1532458"><time>2022-10-29T16:35:34.897</time></trkpt><trkpt lat="55.7353047" lon="49.1533391"><time>2022-10-29T16:35:36.933</time></trkpt><trkpt lat="55.7352827" lon="49.1534334"><time>2022-10-29T16:35:38.933</time></trkpt><trkpt lat="55.7352591" lon="49.1535326"><time>2022-10-29T16:35:40.907</time></trkpt><trkpt lat="55.7352345" lon="49.1536277"><time>2022-10-29T16:35:42.927</time></trkpt><trkpt lat="55.7352124" lon="49.1537124"><time>2022-10-29T16:35:44.930</time></trkpt><trkpt lat="55.7351842" lon="49.1538198"><time>2022-10-29T16:35:47.930</time></trkpt><trkpt lat="55.7351623" lon="49.1538933"><time>2022-10-29T16:35:49.923</time></trkpt><trkpt lat="55.7351347" lon="49.1539946"><time>2022-10-29T16:35:52.940</time></trkpt><trkpt lat="55.7351092" lon="49.1540871"><time>2022-10-29T16:35:55.943</time></trkpt><trkpt lat="55.7350872" lon="49.1541569"><time>2022-10-29T16:35:57.937</time></trkpt><trkpt lat="55.7350628" lon="49.1542297"><time>2022-10-29T16:35:59.937</time></trkpt><trkpt lat="55.7350369" lon="49.1543092"><time>2022-10-29T16:36:01.933</time></trkpt><trkpt lat="55.7350136" lon="49.1543810"><time>2022-10-29T16:36:03.933</time></trkpt><trkpt lat="55.7349908" lon="49.1544706"><time>2022-10-29T16:36:06.930</time></trkpt><trkpt lat="55.7349718" lon="49.1545469"><time>2022-10-29T16:36:09.927</time></trkpt><trkpt lat="55.7349520" lon="49.1546312"><time>2022-10-29T16:36:14.933</time></trkpt><trkpt lat="55.7349267" lon="49.1547136"><time>2022-10-29T16:36:18.933</time></trkpt><trkpt lat="55.7348961" lon="49.1548093"><time>2022-10-29T16:36:22.937</time></trkpt><trkpt lat="55.7348671" lon="49.1549064"><time>2022-10-29T16:36:25.887</time></trkpt><trkpt lat="55.7348460" lon="49.1549780"><time>2022-10-29T16:36:27.977</time></trkpt><trkpt lat="55.7348256" lon="49.1550511"><time>2022-10-29T16:36:29.900</time></trkpt><trkpt lat="55.7348073" lon="49.1551258"><time>2022-10-29T16:36:31.927</time></trkpt><trkpt lat="55.7347747" lon="49.1552249"><time>2022-10-29T16:36:34.927</time></trkpt><trkpt lat="55.7347487" lon="49.1552901"><time>2022-10-29T16:36:36.940</time></trkpt><trkpt lat="55.7347193" lon="49.1553656"><time>2022-10-29T16:36:40.937</time></trkpt><trkpt lat="55.7346876" lon="49.1552996"><time>2022-10-29T16:36:50.933</time></trkpt><trkpt lat="55.7346567" lon="49.1552271"><time>2022-10-29T16:37:11.927</time></trkpt><trkpt lat="55.7346096" lon="49.1551999"><time>2022-10-29T16:37:15.933</time></trkpt><trkpt lat="55.7345628" lon="49.1551909"><time>2022-10-29T16:37:18.937</time></trkpt><trkpt lat="55.7345111" lon="49.1551773"><time>2022-10-29T16:37:21.933</time></trkpt><trkpt lat="55.7344652" lon="49.1551629"><time>2022-10-29T16:37:23.940</time></trkpt><trkpt lat="55.7344114" lon="49.1551454"><time>2022-10-29T16:37:26.933</time></trkpt><trkpt lat="55.7343389" lon="49.1551183"><time>2022-10-29T16:37:29.933</time></trkpt><trkpt lat="55.7342777" lon="49.1550909"><time>2022-10-29T16:37:31.937</time></trkpt><trkpt lat="55.7342234" lon="49.1550719"><time>2022-10-29T16:37:33.930</time></trkpt><trkpt lat="55.7341658" lon="49.1550531"><time>2022-10-29T16:37:35.937</time></trkpt><trkpt lat="55.7341123" lon="49.1550340"><time>2022-10-29T16:37:37.933</time></trkpt><trkpt lat="55.7340587" lon="49.1550116"><time>2022-10-29T16:37:39.930</time></trkpt><trkpt lat="55.7340078" lon="49.1549911"><time>2022-10-29T16:37:41.937</time></trkpt><trkpt lat="55.7339450" lon="49.1549639"><time>2022-10-29T16:37:43.930</time></trkpt><trkpt lat="55.7338855" lon="49.1549424"><time>2022-10-29T16:37:45.930</time></trkpt><trkpt lat="55.7338306" lon="49.1549198"><time>2022-10-29T16:37:47.933</time></trkpt><trkpt lat="55.7337795" lon="49.1548959"><time>2022-10-29T16:37:49.937</time></trkpt><trkpt lat="55.7337272" lon="49.1548735"><time>2022-10-29T16:37:51.927</time></trkpt><trkpt lat="55.7336761" lon="49.1548577"><time>2022-10-29T16:37:53.927</time></trkpt><trkpt lat="55.7336271" lon="49.1548446"><time>2022-10-29T16:37:55.937</time></trkpt><trkpt lat="55.7335626" lon="49.1548257"><time>2022-10-29T16:37:58.930</time></trkpt><trkpt lat="55.7335131" lon="49.1548109"><time>2022-10-29T16:38:00.887</time></trkpt><trkpt lat="55.7334600" lon="49.1547994"><time>2022-10-29T16:38:02.903</time></trkpt><trkpt lat="55.7334134" lon="49.1547805"><time>2022-10-29T16:38:04.933</time></trkpt><trkpt lat="55.7333639" lon="49.1547560"><time>2022-10-29T16:38:06.937</time></trkpt><trkpt lat="55.7333066" lon="49.1547174"><time>2022-10-29T16:38:08.917</time></trkpt><trkpt lat="55.7332515" lon="49.1546853"><time>2022-10-29T16:38:10.933</time></trkpt><trkpt lat="55.7332025" lon="49.1546745"><time>2022-10-29T16:38:12.930</time></trkpt><trkpt lat="55.7331476" lon="49.1546514"><time>2022-10-29T16:38:14.933</time></trkpt><trkpt lat="55.7330937" lon="49.1546211"><time>2022-10-29T16:38:16.933</time></trkpt><trkpt lat="55.7330381" lon="49.1545916"><time>2022-10-29T16:38:18.933</time></trkpt><trkpt lat="55.7329819" lon="49.1545579"><time>2022-10-29T16:38:20.943</time></trkpt><trkpt lat="55.7329259" lon="49.1545268"><time>2022-10-29T16:38:22.927</time></trkpt><trkpt lat="55.7328727" lon="49.1545116"><time>2022-10-29T16:38:24.920</time></trkpt><trkpt lat="55.7328152" lon="49.1544994"><time>2022-10-29T16:38:26.937</time></trkpt><trkpt lat="55.7327673" lon="49.1544729"><time>2022-10-29T16:38:28.937</time></trkpt><trkpt lat="55.7327202" lon="49.1544532"><time>2022-10-29T16:38:30.930</time></trkpt><trkpt lat="55.7326692" lon="49.1544391"><time>2022-10-29T16:38:32.937</time></trkpt><trkpt lat="55.7326202" lon="49.1544335"><time>2022-10-29T16:38:34.937</time></trkpt><trkpt lat="55.7325695" lon="49.1544213"><time>2022-10-29T16:38:36.933</time></trkpt><trkpt lat="55.7325126" lon="49.1543933"><time>2022-10-29T16:38:38.927</time></trkpt><trkpt lat="55.7324641" lon="49.1543720"><time>2022-10-29T16:38:40.897</time></trkpt><trkpt lat="55.7324171" lon="49.1543562"><time>2022-10-29T16:38:42.897</time></trkpt><trkpt lat="55.7323688" lon="49.1543457"><time>2022-10-29T16:38:44.933</time></trkpt><trkpt lat="55.7323153" lon="49.1543304"><time>2022-10-29T16:38:46.940</time></trkpt><trkpt lat="55.7322599" lon="49.1543101"><time>2022-10-29T16:38:48.943</time></trkpt><trkpt lat="55.7322080" lon="49.1543002"><time>2022-10-29T16:38:50.933</time></trkpt><trkpt lat="55.7321534" lon="49.1542848"><time>2022-10-29T16:38:52.933</time></trkpt><trkpt lat="55.7320991" lon="49.1542575"><time>2022-10-29T16:38:54.930</time></trkpt><trkpt lat="55.7320449" lon="49.1542344"><time>2022-10-29T16:38:57.937</time></trkpt><trkpt lat="55.7319891" lon="49.1542162"><time>2022-10-29T16:38:58.887</time></trkpt><trkpt lat="55.7319372" lon="49.1541999"><time>2022-10-29T16:39:00.897</time></trkpt><trkpt lat="55.7318839" lon="49.1541846"><time>2022-10-29T16:39:02.933</time></trkpt><trkpt lat="55.7318387" lon="49.1541734"><time>2022-10-29T16:39:04.927</time></trkpt><trkpt lat="55.7317726" lon="49.1541682"><time>2022-10-29T16:39:07.940</time></trkpt><trkpt lat="55.7317191" lon="49.1541603"><time>2022-10-29T16:39:09.940</time></trkpt><trkpt lat="55.7316666" lon="49.1541540"><time>2022-10-29T16:39:11.940</time></trkpt><trkpt lat="55.7316184" lon="49.1541458"><time>2022-10-29T16:39:13.937</time></trkpt><trkpt lat="55.7315625" lon="49.1541375"><time>2022-10-29T16:39:15.930</time></trkpt><trkpt lat="55.7315115" lon="49.1541260"><time>2022-10-29T16:39:17.937</time></trkpt><trkpt lat="55.7314536" lon="49.1541065"><time>2022-10-29T16:39:19.930</time></trkpt><trkpt lat="55.7314013" lon="49.1540850"><time>2022-10-29T16:39:21.933</time></trkpt><trkpt lat="55.7313513" lon="49.1540501"><time>2022-10-29T16:39:23.930</time></trkpt><trkpt lat="55.7313016" lon="49.1540105"><time>2022-10-29T16:39:25.933</time></trkpt><trkpt lat="55.7312510" lon="49.1539842"><time>2022-10-29T16:39:27.930</time></trkpt><trkpt lat="55.7311927" lon="49.1539650"><time>2022-10-29T16:39:29.900</time></trkpt><trkpt lat="55.7311405" lon="49.1539409"><time>2022-10-29T16:39:31.947</time></trkpt><trkpt lat="55.7310835" lon="49.1539080"><time>2022-10-29T16:39:33.887</time></trkpt><trkpt lat="55.7310331" lon="49.1538774"><time>2022-10-29T16:39:35.937</time></trkpt><trkpt lat="55.7309821" lon="49.1538542"><time>2022-10-29T16:39:37.930</time></trkpt><trkpt lat="55.7309365" lon="49.1538284"><time>2022-10-29T16:39:39.933</time></trkpt><trkpt lat="55.7308941" lon="49.1537970"><time>2022-10-29T16:39:41.930</time></trkpt><trkpt lat="55.7308502" lon="49.1537664"><time>2022-10-29T16:39:43.927</time></trkpt><trkpt lat="55.7308000" lon="49.1537253"><time>2022-10-29T16:39:45.930</time></trkpt><trkpt lat="55.7307431" lon="49.1536791"><time>2022-10-29T16:39:47.933</time></trkpt><trkpt lat="55.7306927" lon="49.1536404"><time>2022-10-29T16:39:49.930</time></trkpt><trkpt lat="55.7306476" lon="49.1536040"><time>2022-10-29T16:39:51.937</time></trkpt><trkpt lat="55.7306039" lon="49.1535848"><time>2022-10-29T16:39:55.933</time></trkpt><trkpt lat="55.7305680" lon="49.1536580"><time>2022-10-29T16:39:58.933</time></trkpt><trkpt lat="55.7305793" lon="49.1537364"><time>2022-10-29T16:40:00.927</time></trkpt><trkpt lat="55.7305956" lon="49.1538327"><time>2022-10-29T16:40:02.940</time></trkpt><trkpt lat="55.7305988" lon="49.1539393"><time>2022-10-29T16:40:04.943</time></trkpt><trkpt lat="55.7305991" lon="49.1540566"><time>2022-10-29T16:40:06.937</time></trkpt><trkpt lat="55.7305949" lon="49.1541665"><time>2022-10-29T16:40:08.930</time></trkpt><trkpt lat="55.7305768" lon="49.1542911"><time>2022-10-29T16:40:10.940</time></trkpt><trkpt lat="55.7305523" lon="49.1544145"><time>2022-10-29T16:40:12.933</time></trkpt><trkpt lat="55.7305404" lon="49.1545353"><time>2022-10-29T16:40:14.933</time></trkpt><trkpt lat="55.7305378" lon="49.1546509"><time>2022-10-29T16:40:16.907</time></trkpt><trkpt lat="55.7305355" lon="49.1547602"><time>2022-10-29T16:40:18.900</time></trkpt><trkpt lat="55.7305370" lon="49.1548728"><time>2022-10-29T16:40:20.933</time></trkpt><trkpt lat="55.7305403" lon="49.1549945"><time>2022-10-29T16:40:22.893</time></trkpt><trkpt lat="55.7305445" lon="49.1551213"><time>2022-10-29T16:40:24.893</time></trkpt><trkpt lat="55.7305497" lon="49.1552506"><time>2022-10-29T16:40:26.887</time></trkpt><trkpt lat="55.7305575" lon="49.1553896"><time>2022-10-29T16:40:28.893</time></trkpt><trkpt lat="55.7305615" lon="49.1555368"><time>2022-10-29T16:40:30.883</time></trkpt><trkpt lat="55.7305641" lon="49.1556876"><time>2022-10-29T16:40:32.887</time></trkpt><trkpt lat="55.7305669" lon="49.1558321"><time>2022-10-29T16:40:34.887</time></trkpt><trkpt lat="55.7305678" lon="49.1559829"><time>2022-10-29T16:40:36.903</time></trkpt><trkpt lat="55.7305740" lon="49.1561339"><time>2022-10-29T16:40:38.887</time></trkpt><trkpt lat="55.7305832" lon="49.1562752"><time>2022-10-29T16:40:40.887</time></trkpt><trkpt lat="55.7305867" lon="49.1564028"><time>2022-10-29T16:40:42.890</time></trkpt><trkpt lat="55.7305855" lon="49.1565242"><time>2022-10-29T16:40:44.887</time></trkpt><trkpt lat="55.7305849" lon="49.1566549"><time>2022-10-29T16:40:46.897</time></trkpt><trkpt lat="55.7305830" lon="49.1567873"><time>2022-10-29T16:40:48.940</time></trkpt><trkpt lat="55.7305817" lon="49.1568229"><time>2022-10-29T16:40:50.097</time></trkpt><trkpt lat="55.7305820" lon="49.1569571"><time>2022-10-29T16:40:51.913</time></trkpt><trkpt lat="55.7305813" lon="49.1570747"><time>2022-10-29T16:40:53.903</time></trkpt><trkpt lat="55.7305813" lon="49.1571839"><time>2022-10-29T16:40:55.897</time></trkpt><trkpt lat="55.7305858" lon="49.1572785"><time>2022-10-29T16:40:57.937</time></trkpt><trkpt lat="55.7305947" lon="49.1573598"><time>2022-10-29T16:40:59.900</time></trkpt><trkpt lat="55.7306053" lon="49.1574441"><time>2022-10-29T16:41:01.903</time></trkpt><trkpt lat="55.7306365" lon="49.1575389"><time>2022-10-29T16:41:04.930</time></trkpt><trkpt lat="55.7306756" lon="49.1576053"><time>2022-10-29T16:41:08.930</time></trkpt><trkpt lat="55.7306480" lon="49.1576775"><time>2022-10-29T16:42:17.943</time></trkpt><trkpt lat="55.7306052" lon="49.1577480"><time>2022-10-29T16:42:20.947</time></trkpt><trkpt lat="55.7305589" lon="49.1578308"><time>2022-10-29T16:42:23.943</time></trkpt><trkpt lat="55.7305398" lon="49.1579193"><time>2022-10-29T16:42:25.937</time></trkpt><trkpt lat="55.7305282" lon="49.1580116"><time>2022-10-29T16:42:27.933</time></trkpt><trkpt lat="55.7305120" lon="49.1580999"><time>2022-10-29T16:42:30.897</time></trkpt><trkpt lat="55.7305054" lon="49.1582086"><time>2022-10-29T16:42:33.903</time></trkpt><trkpt lat="55.7305393" lon="49.1582934"><time>2022-10-29T16:42:35.940</time></trkpt><trkpt lat="55.7305863" lon="49.1583151"><time>2022-10-29T16:42:39.900</time></trkpt><trkpt lat="55.7305732" lon="49.1584010"><time>2022-10-29T16:42:55.977</time></trkpt><trkpt lat="55.7305617" lon="49.1584295"><time>2022-10-29T16:42:57.920</time></trkpt><trkpt lat="55.7305586" lon="49.1585137"><time>2022-10-29T16:42:59.937</time></trkpt><trkpt lat="55.7305580" lon="49.1586138"><time>2022-10-29T16:43:03.927</time></trkpt><trkpt lat="55.7305558" lon="49.1587044"><time>2022-10-29T16:43:07.937</time></trkpt><trkpt lat="55.7305685" lon="49.1587831"><time>2022-10-29T16:43:11.933</time></trkpt><trkpt lat="55.7305725" lon="49.1588668"><time>2022-10-29T16:43:15.937</time></trkpt><trkpt lat="55.7305700" lon="49.1589533"><time>2022-10-29T16:43:19.923</time></trkpt><trkpt lat="55.7305574" lon="49.1590411"><time>2022-10-29T16:43:24.927</time></trkpt><trkpt lat="55.7305572" lon="49.1591215"><time>2022-10-29T16:43:28.930</time></trkpt><trkpt lat="55.7305589" lon="49.1592063"><time>2022-10-29T16:43:32.963</time></trkpt><trkpt lat="55.7305611" lon="49.1592315"><time>2022-10-29T16:43:34.073</time></trkpt><trkpt lat="55.7305604" lon="49.1593238"><time>2022-10-29T16:43:37.937</time></trkpt><trkpt lat="55.7305645" lon="49.1594084"><time>2022-10-29T16:43:41.943</time></trkpt><trkpt lat="55.7305587" lon="49.1594957"><time>2022-10-29T16:43:45.937</time></trkpt><trkpt lat="55.7305506" lon="49.1595829"><time>2022-10-29T16:43:49.923</time></trkpt><trkpt lat="55.7305430" lon="49.1596628"><time>2022-10-29T16:43:53.927</time></trkpt><trkpt lat="55.7305359" lon="49.1597449"><time>2022-10-29T16:43:57.950</time></trkpt><trkpt lat="55.7305359" lon="49.1597449"><time>2022-10-29T16:43:58.077</time></trkpt><trkpt lat="55.7305368" lon="49.1598323"><time>2022-10-29T16:44:33.943</time></trkpt><trkpt lat="55.7305365" lon="49.1598605"><time>2022-10-29T16:44:35.093</time></trkpt><trkpt lat="55.7305277" lon="49.1599677"><time>2022-10-29T16:44:37.927</time></trkpt><trkpt lat="55.7305268" lon="49.1600476"><time>2022-10-29T16:44:40.927</time></trkpt><trkpt lat="55.7305259" lon="49.1601301"><time>2022-10-29T16:44:43.923</time></trkpt><trkpt lat="55.7305245" lon="49.1602174"><time>2022-10-29T16:44:46.927</time></trkpt><trkpt lat="55.7305287" lon="49.1603216"><time>2022-10-29T16:44:50.927</time></trkpt><trkpt lat="55.7305263" lon="49.1604244"><time>2022-10-29T16:44:54.927</time></trkpt><trkpt lat="55.7305250" lon="49.1605232"><time>2022-10-29T16:44:58.930</time></trkpt><trkpt lat="55.7305222" lon="49.1606279"><time>2022-10-29T16:45:02.927</time></trkpt><trkpt lat="55.7305203" lon="49.1607085"><time>2022-10-29T16:45:05.953</time></trkpt><trkpt lat="55.7305111" lon="49.1608114"><time>2022-10-29T16:45:09.940</time></trkpt><trkpt lat="55.7305051" lon="49.1609040"><time>2022-10-29T16:45:13.940</time></trkpt><trkpt lat="55.7305047" lon="49.1610036"><time>2022-10-29T16:45:17.887</time></trkpt><trkpt lat="55.7305051" lon="49.1611022"><time>2022-10-29T16:45:21.933</time></trkpt><trkpt lat="55.7305029" lon="49.1612009"><time>2022-10-29T16:45:25.937</time></trkpt><trkpt lat="55.7305035" lon="49.1613011"><time>2022-10-29T16:45:29.937</time></trkpt><trkpt lat="55.7305100" lon="49.1614020"><time>2022-10-29T16:45:33.950</time></trkpt><trkpt lat="55.7305113" lon="49.1614827"><time>2022-10-29T16:45:36.927</time></trkpt><trkpt lat="55.7305127" lon="49.1615847"><time>2022-10-29T16:45:40.937</time></trkpt><trkpt lat="55.7305083" lon="49.1616737"><time>2022-10-29T16:45:43.940</time></trkpt><trkpt lat="55.7305024" lon="49.1617626"><time>2022-10-29T16:45:46.937</time></trkpt><trkpt lat="55.7304995" lon="49.1618494"><time>2022-10-29T16:45:49.933</time></trkpt><trkpt lat="55.7304957" lon="49.1619375"><time>2022-10-29T16:45:52.933</time></trkpt><trkpt lat="55.7304935" lon="49.1620224"><time>2022-10-29T16:45:55.947</time></trkpt><trkpt lat="55.7304867" lon="49.1621087"><time>2022-10-29T16:45:58.947</time></trkpt><trkpt lat="55.7304829" lon="49.1621916"><time>2022-10-29T16:46:01.917</time></trkpt><trkpt lat="55.7304798" lon="49.1622762"><time>2022-10-29T16:46:04.933</time></trkpt><trkpt lat="55.7304739" lon="49.1623630"><time>2022-10-29T16:46:07.947</time></trkpt><trkpt lat="55.7304730" lon="49.1624464"><time>2022-10-29T16:46:10.937</time></trkpt><trkpt lat="55.7304747" lon="49.1625319"><time>2022-10-29T16:46:13.927</time></trkpt><trkpt lat="55.7304727" lon="49.1626165"><time>2022-10-29T16:46:16.940</time></trkpt><trkpt lat="55.7304685" lon="49.1626968"><time>2022-10-29T16:46:19.940</time></trkpt><trkpt lat="55.7304675" lon="49.1628039"><time>2022-10-29T16:46:23.907</time></trkpt><trkpt lat="55.7304642" lon="49.1628907"><time>2022-10-29T16:46:26.900</time></trkpt><trkpt lat="55.7304642" lon="49.1629793"><time>2022-10-29T16:46:29.927</time></trkpt><trkpt lat="55.7304625" lon="49.1630672"><time>2022-10-29T16:46:32.950</time></trkpt><trkpt lat="55.7304638" lon="49.1631532"><time>2022-10-29T16:46:35.947</time></trkpt><trkpt lat="55.7304633" lon="49.1632396"><time>2022-10-29T16:46:38.940</time></trkpt><trkpt lat="55.7304621" lon="49.1633230"><time>2022-10-29T16:46:41.940</time></trkpt><trkpt lat="55.7304616" lon="49.1634057"><time>2022-10-29T16:46:44.930</time></trkpt><trkpt lat="55.7304589" lon="49.1634892"><time>2022-10-29T16:46:47.940</time></trkpt><trkpt lat="55.7304563" lon="49.1635759"><time>2022-10-29T16:46:50.940</time></trkpt><trkpt lat="55.7304519" lon="49.1636586"><time>2022-10-29T16:46:53.937</time></trkpt><trkpt lat="55.7304464" lon="49.1637380"><time>2022-10-29T16:46:56.933</time></trkpt><trkpt lat="55.7304409" lon="49.1638174"><time>2022-10-29T16:46:59.940</time></trkpt><trkpt lat="55.7304338" lon="49.1638977"><time>2022-10-29T16:47:02.940</time></trkpt><trkpt lat="55.7304309" lon="49.1639813"><time>2022-10-29T16:47:05.937</time></trkpt><trkpt lat="55.7304233" lon="49.1640737"><time>2022-10-29T16:47:08.950</time></trkpt><trkpt lat="55.7304158" lon="49.1641636"><time>2022-10-29T16:47:11.937</time></trkpt><trkpt lat="55.7304060" lon="49.1642532"><time>2022-10-29T16:47:14.933</time></trkpt><trkpt lat="55.7303951" lon="49.1643372"><time>2022-10-29T16:47:17.933</time></trkpt><trkpt lat="55.7303835" lon="49.1644217"><time>2022-10-29T16:47:20.947</time></trkpt><trkpt lat="55.7303732" lon="49.1645040"><time>2022-10-29T16:47:23.943</time></trkpt><trkpt lat="55.7303650" lon="49.1645889"><time>2022-10-29T16:47:26.937</time></trkpt><trkpt lat="55.7303536" lon="49.1646753"><time>2022-10-29T16:47:29.953</time></trkpt><trkpt lat="55.7303440" lon="49.1647602"><time>2022-10-29T16:47:32.953</time></trkpt><trkpt lat="55.7303356" lon="49.1648469"><time>2022-10-29T16:47:35.940</time></trkpt><trkpt lat="55.7303241" lon="49.1649293"><time>2022-10-29T16:47:38.920</time></trkpt><trkpt lat="55.7303139" lon="49.1650168"><time>2022-10-29T16:47:41.943</time></trkpt><trkpt lat="55.7303075" lon="49.1651051"><time>2022-10-29T16:47:44.930</time></trkpt><trkpt lat="55.7303015" lon="49.1651924"><time>2022-10-29T16:47:47.937</time></trkpt><trkpt lat="55.7302993" lon="49.1652807"><time>2022-10-29T16:47:50.953</time></trkpt><trkpt lat="55.7302973" lon="49.1653698"><time>2022-10-29T16:47:53.933</time></trkpt><trkpt lat="55.7302953" lon="49.1654619"><time>2022-10-29T16:47:56.930</time></trkpt><trkpt lat="55.7302938" lon="49.1655492"><time>2022-10-29T16:47:59.943</time></trkpt><trkpt lat="55.7302920" lon="49.1656404"><time>2022-10-29T16:48:02.927</time></trkpt><trkpt lat="55.7302882" lon="49.1657241"><time>2022-10-29T16:48:05.930</time></trkpt><trkpt lat="55.7302868" lon="49.1658149"><time>2022-10-29T16:48:08.933</time></trkpt><trkpt lat="55.7302848" lon="49.1658991"><time>2022-10-29T16:48:11.940</time></trkpt><trkpt lat="55.7302816" lon="49.1659870"><time>2022-10-29T16:48:14.937</time></trkpt><trkpt lat="55.7302792" lon="49.1660698"><time>2022-10-29T16:48:17.940</time></trkpt><trkpt lat="55.7302726" lon="49.1661769"><time>2022-10-29T16:48:21.933</time></trkpt><trkpt lat="55.7302690" lon="49.1662862"><time>2022-10-29T16:48:24.890</time></trkpt><trkpt lat="55.7303091" lon="49.1663529"><time>2022-10-29T16:48:27.890</time></trkpt><trkpt lat="55.7303681" lon="49.1664243"><time>2022-10-29T16:48:30.897</time></trkpt><trkpt lat="55.7304098" lon="49.1664731"><time>2022-10-29T16:48:32.937</time></trkpt><trkpt lat="55.7304562" lon="49.1665270"><time>2022-10-29T16:48:34.930</time></trkpt><trkpt lat="55.7304990" lon="49.1665786"><time>2022-10-29T16:48:36.933</time></trkpt><trkpt lat="55.7305423" lon="49.1666322"><time>2022-10-29T16:48:38.937</time></trkpt><trkpt lat="55.7305811" lon="49.1666824"><time>2022-10-29T16:48:40.940</time></trkpt><trkpt lat="55.7306347" lon="49.1667535"><time>2022-10-29T16:48:43.937</time></trkpt><trkpt lat="55.7306814" lon="49.1668205"><time>2022-10-29T16:48:45.927</time></trkpt><trkpt lat="55.7307217" lon="49.1668777"><time>2022-10-29T16:48:47.933</time></trkpt><trkpt lat="55.7307654" lon="49.1669361"><time>2022-10-29T16:48:49.937</time></trkpt><trkpt lat="55.7308131" lon="49.1669893"><time>2022-10-29T16:48:51.940</time></trkpt><trkpt lat="55.7308618" lon="49.1670448"><time>2022-10-29T16:48:53.943</time></trkpt><trkpt lat="55.7309103" lon="49.1671114"><time>2022-10-29T16:48:56.930</time></trkpt><trkpt lat="55.7309610" lon="49.1671678"><time>2022-10-29T16:48:59.937</time></trkpt><trkpt lat="55.7310003" lon="49.1672321"><time>2022-10-29T16:49:04.930</time></trkpt><trkpt lat="55.7310175" lon="49.1673191"><time>2022-10-29T16:49:10.937</time></trkpt><trkpt lat="55.7310592" lon="49.1673591"><time>2022-10-29T16:49:13.933</time></trkpt><trkpt lat="55.7310921" lon="49.1674381"><time>2022-10-29T16:49:17.930</time></trkpt><trkpt lat="55.7311294" lon="49.1675221"><time>2022-10-29T16:49:24.937</time></trkpt><trkpt lat="55.7311620" lon="49.1675835"><time>2022-10-29T16:49:26.933</time></trkpt><trkpt lat="55.7312040" lon="49.1676407"><time>2022-10-29T16:49:29.890</time></trkpt><trkpt lat="55.7312425" lon="49.1677049"><time>2022-10-29T16:49:31.890</time></trkpt><trkpt lat="55.7312802" lon="49.1678045"><time>2022-10-29T16:49:34.903</time></trkpt><trkpt lat="55.7313269" lon="49.1678728"><time>2022-10-29T16:49:36.933</time></trkpt><trkpt lat="55.7313776" lon="49.1679378"><time>2022-10-29T16:49:38.920</time></trkpt><trkpt lat="55.7314252" lon="49.1679838"><time>2022-10-29T16:49:40.937</time></trkpt><trkpt lat="55.7314807" lon="49.1680179"><time>2022-10-29T16:49:42.887</time></trkpt><trkpt lat="55.7315236" lon="49.1680582"><time>2022-10-29T16:49:44.890</time></trkpt><trkpt lat="55.7315779" lon="49.1681236"><time>2022-10-29T16:49:46.900</time></trkpt><trkpt lat="55.7316230" lon="49.1681779"><time>2022-10-29T16:49:48.883</time></trkpt><trkpt lat="55.7316679" lon="49.1682219"><time>2022-10-29T16:49:50.930</time></trkpt><trkpt lat="55.7317114" lon="49.1682719"><time>2022-10-29T16:49:52.937</time></trkpt><trkpt lat="55.7317528" lon="49.1683242"><time>2022-10-29T16:49:54.933</time></trkpt><trkpt lat="55.7317877" lon="49.1683855"><time>2022-10-29T16:49:56.930</time></trkpt><trkpt lat="55.7318278" lon="49.1684913"><time>2022-10-29T16:49:59.937</time></trkpt><trkpt lat="55.7318687" lon="49.1685514"><time>2022-10-29T16:50:01.940</time></trkpt><trkpt lat="55.7319133" lon="49.1685988"><time>2022-10-29T16:50:03.940</time></trkpt><trkpt lat="55.7319689" lon="49.1686551"><time>2022-10-29T16:50:05.933</time></trkpt><trkpt lat="55.7320199" lon="49.1687102"><time>2022-10-29T16:50:07.933</time></trkpt><trkpt lat="55.7320711" lon="49.1687934"><time>2022-10-29T16:50:10.943</time></trkpt><trkpt lat="55.7321212" lon="49.1688658"><time>2022-10-29T16:50:12.937</time></trkpt><trkpt lat="55.7321642" lon="49.1689240"><time>2022-10-29T16:50:14.940</time></trkpt><trkpt lat="55.7322174" lon="49.1690103"><time>2022-10-29T16:50:17.947</time></trkpt><trkpt lat="55.7322725" lon="49.1690750"><time>2022-10-29T16:50:19.937</time></trkpt><trkpt lat="55.7323383" lon="49.1691269"><time>2022-10-29T16:50:21.890</time></trkpt><trkpt lat="55.7324027" lon="49.1691735"><time>2022-10-29T16:50:23.890</time></trkpt><trkpt lat="55.7324597" lon="49.1692208"><time>2022-10-29T16:50:25.897</time></trkpt><trkpt lat="55.7325109" lon="49.1692595"><time>2022-10-29T16:50:27.937</time></trkpt><trkpt lat="55.7325627" lon="49.1692989"><time>2022-10-29T16:50:29.930</time></trkpt><trkpt lat="55.7326125" lon="49.1693476"><time>2022-10-29T16:50:31.947</time></trkpt><trkpt lat="55.7326590" lon="49.1693961"><time>2022-10-29T16:50:33.940</time></trkpt><trkpt lat="55.7327090" lon="49.1694433"><time>2022-10-29T16:50:35.933</time></trkpt><trkpt lat="55.7327716" lon="49.1695159"><time>2022-10-29T16:50:38.967</time></trkpt><trkpt lat="55.7328250" lon="49.1695839"><time>2022-10-29T16:50:40.903</time></trkpt><trkpt lat="55.7328763" lon="49.1696393"><time>2022-10-29T16:50:42.903</time></trkpt><trkpt lat="55.7329241" lon="49.1696816"><time>2022-10-29T16:50:45.937</time></trkpt><trkpt lat="55.7329656" lon="49.1697270"><time>2022-10-29T16:50:47.933</time></trkpt><trkpt lat="55.7330207" lon="49.1698026"><time>2022-10-29T16:50:50.887</time></trkpt><trkpt lat="55.7330665" lon="49.1698610"><time>2022-10-29T16:50:52.887</time></trkpt><trkpt lat="55.7331002" lon="49.1699229"><time>2022-10-29T16:50:54.897</time></trkpt><trkpt lat="55.7331466" lon="49.1699804"><time>2022-10-29T16:50:56.897</time></trkpt><trkpt lat="55.7331944" lon="49.1700358"><time>2022-10-29T16:50:58.903</time></trkpt><trkpt lat="55.7332401" lon="49.1700924"><time>2022-10-29T16:51:00.903</time></trkpt><trkpt lat="55.7332967" lon="49.1701644"><time>2022-10-29T16:51:03.930</time></trkpt><trkpt lat="55.7333362" lon="49.1702084"><time>2022-10-29T16:51:05.930</time></trkpt><trkpt lat="55.7333795" lon="49.1702557"><time>2022-10-29T16:51:07.950</time></trkpt><trkpt lat="55.7334161" lon="49.1703026"><time>2022-10-29T16:51:09.953</time></trkpt><trkpt lat="55.7334525" lon="49.1703509"><time>2022-10-29T16:51:11.943</time></trkpt><trkpt lat="55.7334877" lon="49.1704069"><time>2022-10-29T16:51:13.930</time></trkpt><trkpt lat="55.7335319" lon="49.1704702"><time>2022-10-29T16:51:16.937</time></trkpt><trkpt lat="55.7335789" lon="49.1705321"><time>2022-10-29T16:51:19.933</time></trkpt><trkpt lat="55.7336208" lon="49.1705811"><time>2022-10-29T16:51:21.940</time></trkpt><trkpt lat="55.7336711" lon="49.1706187"><time>2022-10-29T16:51:23.930</time></trkpt><trkpt lat="55.7337168" lon="49.1706456"><time>2022-10-29T16:51:25.937</time></trkpt><trkpt lat="55.7337592" lon="49.1706857"><time>2022-10-29T16:51:27.930</time></trkpt><trkpt lat="55.7338005" lon="49.1707390"><time>2022-10-29T16:51:30.933</time></trkpt><trkpt lat="55.7338397" lon="49.1708001"><time>2022-10-29T16:51:32.910</time></trkpt><trkpt lat="55.7338909" lon="49.1708620"><time>2022-10-29T16:51:34.930</time></trkpt><trkpt lat="55.7339310" lon="49.1709053"><time>2022-10-29T16:51:36.897</time></trkpt><trkpt lat="55.7339710" lon="49.1709578"><time>2022-10-29T16:51:38.900</time></trkpt><trkpt lat="55.7340197" lon="49.1710135"><time>2022-10-29T16:51:40.940</time></trkpt><trkpt lat="55.7340656" lon="49.1710683"><time>2022-10-29T16:51:42.930</time></trkpt><trkpt lat="55.7341054" lon="49.1711173"><time>2022-10-29T16:51:44.943</time></trkpt><trkpt lat="55.7341461" lon="49.1711686"><time>2022-10-29T16:51:46.937</time></trkpt><trkpt lat="55.7341829" lon="49.1712248"><time>2022-10-29T16:51:48.933</time></trkpt><trkpt lat="55.7342305" lon="49.1712911"><time>2022-10-29T16:51:50.923</time></trkpt><trkpt lat="55.7342879" lon="49.1713531"><time>2022-10-29T16:51:52.933</time></trkpt><trkpt lat="55.7343454" lon="49.1714151"><time>2022-10-29T16:51:54.933</time></trkpt><trkpt lat="55.7343993" lon="49.1714815"><time>2022-10-29T16:51:56.937</time></trkpt><trkpt lat="55.7344472" lon="49.1715389"><time>2022-10-29T16:51:58.930</time></trkpt><trkpt lat="55.7344944" lon="49.1715810"><time>2022-10-29T16:52:00.960</time></trkpt><trkpt lat="55.7345128" lon="49.1715774"><time>2022-10-29T16:52:02.097</time></trkpt><trkpt lat="55.7345610" lon="49.1716257"><time>2022-10-29T16:52:03.917</time></trkpt><trkpt lat="55.7346130" lon="49.1716650"><time>2022-10-29T16:52:06.913</time></trkpt><trkpt lat="55.7346557" lon="49.1717038"><time>2022-10-29T16:52:10.897</time></trkpt><trkpt lat="55.7346792" lon="49.1717765"><time>2022-10-29T16:52:12.900</time></trkpt><trkpt lat="55.7347126" lon="49.1718535"><time>2022-10-29T16:52:14.917</time></trkpt><trkpt lat="55.7347564" lon="49.1719286"><time>2022-10-29T16:52:16.923</time></trkpt><trkpt lat="55.7347997" lon="49.1720023"><time>2022-10-29T16:52:18.913</time></trkpt><trkpt lat="55.7348488" lon="49.1720574"><time>2022-10-29T16:52:20.917</time></trkpt><trkpt lat="55.7348891" lon="49.1721153"><time>2022-10-29T16:52:22.910</time></trkpt><trkpt lat="55.7349263" lon="49.1721659"><time>2022-10-29T16:52:24.897</time></trkpt><trkpt lat="55.7349740" lon="49.1722052"><time>2022-10-29T16:52:27.913</time></trkpt><trkpt lat="55.7350129" lon="49.1722553"><time>2022-10-29T16:52:29.917</time></trkpt><trkpt lat="55.7350514" lon="49.1723112"><time>2022-10-29T16:52:31.913</time></trkpt><trkpt lat="55.7350987" lon="49.1723779"><time>2022-10-29T16:52:33.930</time></trkpt><trkpt lat="55.7351404" lon="49.1724406"><time>2022-10-29T16:52:35.927</time></trkpt><trkpt lat="55.7351837" lon="49.1725056"><time>2022-10-29T16:52:37.917</time></trkpt><trkpt lat="55.7352282" lon="49.1725645"><time>2022-10-29T16:52:39.930</time></trkpt><trkpt lat="55.7352737" lon="49.1726197"><time>2022-10-29T16:52:41.933</time></trkpt><trkpt lat="55.7353186" lon="49.1726839"><time>2022-10-29T16:52:43.940</time></trkpt><trkpt lat="55.7353638" lon="49.1727492"><time>2022-10-29T16:52:45.920</time></trkpt><trkpt lat="55.7354048" lon="49.1728098"><time>2022-10-29T16:52:47.927</time></trkpt><trkpt lat="55.7354351" lon="49.1728694"><time>2022-10-29T16:52:49.923</time></trkpt><trkpt lat="55.7354722" lon="49.1729225"><time>2022-10-29T16:52:52.913</time></trkpt><trkpt lat="55.7355057" lon="49.1729836"><time>2022-10-29T16:52:56.923</time></trkpt><trkpt lat="55.7355606" lon="49.1729305"><time>2022-10-29T16:53:27.920</time></trkpt><trkpt lat="55.7356043" lon="49.1728903"><time>2022-10-29T16:53:29.967</time></trkpt><trkpt lat="55.7356134" lon="49.1728689"><time>2022-10-29T16:53:31.100</time></trkpt><trkpt lat="55.7356447" lon="49.1728024"><time>2022-10-29T16:53:32.933</time></trkpt><trkpt lat="55.7356827" lon="49.1727266"><time>2022-10-29T16:53:34.933</time></trkpt><trkpt lat="55.7357219" lon="49.1726535"><time>2022-10-29T16:53:36.907</time></trkpt><trkpt lat="55.7357652" lon="49.1725751"><time>2022-10-29T16:53:38.930</time></trkpt><trkpt lat="55.7358078" lon="49.1724983"><time>2022-10-29T16:53:40.930</time></trkpt><trkpt lat="55.7358511" lon="49.1724178"><time>2022-10-29T16:53:42.920</time></trkpt><trkpt lat="55.7358941" lon="49.1723440"><time>2022-10-29T16:53:44.923</time></trkpt><trkpt lat="55.7359416" lon="49.1722598"><time>2022-10-29T16:53:46.950</time></trkpt><trkpt lat="55.7359542" lon="49.1722371"><time>2022-10-29T16:53:47.963</time></trkpt><trkpt lat="55.7359931" lon="49.1721710"><time>2022-10-29T16:53:48.923</time></trkpt><trkpt lat="55.7360375" lon="49.1720900"><time>2022-10-29T16:53:50.913</time></trkpt><trkpt lat="55.7360754" lon="49.1720176"><time>2022-10-29T16:53:52.913</time></trkpt><trkpt lat="55.7361158" lon="49.1719401"><time>2022-10-29T16:53:54.937</time></trkpt><trkpt lat="55.7361158" lon="49.1719401"><time>2022-10-29T16:53:55.010</time></trkpt><trkpt lat="55.7361566" lon="49.1718677"><time>2022-10-29T16:53:56.933</time></trkpt><trkpt lat="55.7361716" lon="49.1718456"><time>2022-10-29T16:53:58.060</time></trkpt><trkpt lat="55.7362069" lon="49.1717628"><time>2022-10-29T16:53:59.900</time></trkpt><trkpt lat="55.7362388" lon="49.1716775"><time>2022-10-29T16:54:02.907</time></trkpt><trkpt lat="55.7362787" lon="49.1716342"><time>2022-10-29T16:54:21.920</time></trkpt><trkpt lat="55.7363010" lon="49.1715632"><time>2022-10-29T16:54:40.933</time></trkpt><trkpt lat="55.7363297" lon="49.1714968"><time>2022-10-29T16:54:42.893</time></trkpt><trkpt lat="55.7363518" lon="49.1714083"><time>2022-10-29T16:54:44.920</time></trkpt><trkpt lat="55.7363894" lon="49.1713220"><time>2022-10-29T16:54:46.897</time></trkpt><trkpt lat="55.7364396" lon="49.1712446"><time>2022-10-29T16:54:48.900</time></trkpt><trkpt lat="55.7364835" lon="49.1711741"><time>2022-10-29T16:54:50.927</time></trkpt><trkpt lat="55.7365281" lon="49.1710931"><time>2022-10-29T16:54:52.913</time></trkpt><trkpt lat="55.7365700" lon="49.1710228"><time>2022-10-29T16:54:54.940</time></trkpt><trkpt lat="55.7366127" lon="49.1709578"><time>2022-10-29T16:54:56.927</time></trkpt><trkpt lat="55.7366610" lon="49.1708696"><time>2022-10-29T16:54:58.913</time></trkpt><trkpt lat="55.7367104" lon="49.1707757"><time>2022-10-29T16:55:00.923</time></trkpt><trkpt lat="55.7367580" lon="49.1706816"><time>2022-10-29T16:55:03.927</time></trkpt><trkpt lat="55.7367950" lon="49.1706064"><time>2022-10-29T16:55:05.933</time></trkpt><trkpt lat="55.7368315" lon="49.1705371"><time>2022-10-29T16:55:07.930</time></trkpt><trkpt lat="55.7368819" lon="49.1704633"><time>2022-10-29T16:55:10.930</time></trkpt><trkpt lat="55.7369189" lon="49.1704062"><time>2022-10-29T16:55:12.890</time></trkpt><trkpt lat="55.7369583" lon="49.1703444"><time>2022-10-29T16:55:14.907</time></trkpt><trkpt lat="55.7370003" lon="49.1702756"><time>2022-10-29T16:55:16.903</time></trkpt><trkpt lat="55.7370364" lon="49.1702082"><time>2022-10-29T16:55:18.907</time></trkpt><trkpt lat="55.7370783" lon="49.1701310"><time>2022-10-29T16:55:20.927</time></trkpt><trkpt lat="55.7371231" lon="49.1700545"><time>2022-10-29T16:55:22.917</time></trkpt><trkpt lat="55.7371633" lon="49.1699836"><time>2022-10-29T16:55:24.923</time></trkpt><trkpt lat="55.7372031" lon="49.1699033"><time>2022-10-29T16:55:26.923</time></trkpt><trkpt lat="55.7372396" lon="49.1698236"><time>2022-10-29T16:55:28.917</time></trkpt><trkpt lat="55.7372687" lon="49.1697492"><time>2022-10-29T16:55:30.923</time></trkpt><trkpt lat="55.7372990" lon="49.1696670"><time>2022-10-29T16:55:32.930</time></trkpt><trkpt lat="55.7373287" lon="49.1695779"><time>2022-10-29T16:55:34.920</time></trkpt><trkpt lat="55.7373606" lon="49.1694802"><time>2022-10-29T16:55:36.887</time></trkpt><trkpt lat="55.7374045" lon="49.1693922"><time>2022-10-29T16:55:38.910</time></trkpt><trkpt lat="55.7374552" lon="49.1693101"><time>2022-10-29T16:55:40.900</time></trkpt><trkpt lat="55.7374980" lon="49.1692447"><time>2022-10-29T16:55:42.903</time></trkpt><trkpt lat="55.7375455" lon="49.1691719"><time>2022-10-29T16:55:44.923</time></trkpt><trkpt lat="55.7376014" lon="49.1690808"><time>2022-10-29T16:55:46.927</time></trkpt><trkpt lat="55.7376604" lon="49.1689899"><time>2022-10-29T16:55:48.930</time></trkpt><trkpt lat="55.7377094" lon="49.1689121"><time>2022-10-29T16:55:50.927</time></trkpt><trkpt lat="55.7377521" lon="49.1688509"><time>2022-10-29T16:55:52.903</time></trkpt><trkpt lat="55.7378010" lon="49.1687839"><time>2022-10-29T16:55:54.923</time></trkpt><trkpt lat="55.7378411" lon="49.1687160"><time>2022-10-29T16:55:56.923</time></trkpt><trkpt lat="55.7378793" lon="49.1686479"><time>2022-10-29T16:55:58.903</time></trkpt><trkpt lat="55.7379214" lon="49.1685723"><time>2022-10-29T16:56:00.897</time></trkpt><trkpt lat="55.7379632" lon="49.1684939"><time>2022-10-29T16:56:02.927</time></trkpt><trkpt lat="55.7380075" lon="49.1684226"><time>2022-10-29T16:56:04.900</time></trkpt><trkpt lat="55.7380446" lon="49.1683632"><time>2022-10-29T16:56:06.897</time></trkpt><trkpt lat="55.7380813" lon="49.1682869"><time>2022-10-29T16:56:08.887</time></trkpt><trkpt lat="55.7381174" lon="49.1682037"><time>2022-10-29T16:56:10.937</time></trkpt><trkpt lat="55.7381581" lon="49.1681083"><time>2022-10-29T16:56:12.897</time></trkpt><trkpt lat="55.7381967" lon="49.1680180"><time>2022-10-29T16:56:14.897</time></trkpt><trkpt lat="55.7382324" lon="49.1679429"><time>2022-10-29T16:56:16.900</time></trkpt><trkpt lat="55.7382775" lon="49.1678527"><time>2022-10-29T16:56:18.923</time></trkpt><trkpt lat="55.7383163" lon="49.1677685"><time>2022-10-29T16:56:20.897</time></trkpt><trkpt lat="55.7383499" lon="49.1676946"><time>2022-10-29T16:56:22.927</time></trkpt><trkpt lat="55.7383842" lon="49.1676145"><time>2022-10-29T16:56:24.897</time></trkpt><trkpt lat="55.7384114" lon="49.1675340"><time>2022-10-29T16:56:26.900</time></trkpt><trkpt lat="55.7384322" lon="49.1674463"><time>2022-10-29T16:56:28.903</time></trkpt><trkpt lat="55.7384363" lon="49.1673513"><time>2022-10-29T16:56:30.903</time></trkpt><trkpt lat="55.7384296" lon="49.1672698"><time>2022-10-29T16:56:32.907</time></trkpt><trkpt lat="55.7384112" lon="49.1671757"><time>2022-10-29T16:56:35.923</time></trkpt><trkpt lat="55.7383937" lon="49.1671007"><time>2022-10-29T16:56:37.920</time></trkpt><trkpt lat="55.7383751" lon="49.1670276"><time>2022-10-29T16:56:39.927</time></trkpt><trkpt lat="55.7383477" lon="49.1669393"><time>2022-10-29T16:56:41.927</time></trkpt><trkpt lat="55.7383133" lon="49.1668426"><time>2022-10-29T16:56:43.923</time></trkpt><trkpt lat="55.7382822" lon="49.1667630"><time>2022-10-29T16:56:45.933</time></trkpt><trkpt lat="55.7382456" lon="49.1666680"><time>2022-10-29T16:56:47.927</time></trkpt><trkpt lat="55.7382151" lon="49.1665997"><time>2022-10-29T16:56:49.923</time></trkpt><trkpt lat="55.7381926" lon="49.1665292"><time>2022-10-29T16:56:51.920</time></trkpt><trkpt lat="55.7382170" lon="49.1664287"><time>2022-10-29T16:56:53.923</time></trkpt><trkpt lat="55.7382827" lon="49.1663541"><time>2022-10-29T16:56:55.927</time></trkpt><trkpt lat="55.7383525" lon="49.1662937"><time>2022-10-29T16:56:57.937</time></trkpt><trkpt lat="55.7384223" lon="49.1662362"><time>2022-10-29T16:56:59.927</time></trkpt><trkpt lat="55.7384847" lon="49.1661619"><time>2022-10-29T16:57:01.947</time></trkpt><trkpt lat="55.7385357" lon="49.1660938"><time>2022-10-29T16:57:03.920</time></trkpt><trkpt lat="55.7385882" lon="49.1660250"><time>2022-10-29T16:57:05.927</time></trkpt><trkpt lat="55.7386459" lon="49.1659468"><time>2022-10-29T16:57:07.927</time></trkpt><trkpt lat="55.7386986" lon="49.1658576"><time>2022-10-29T16:57:09.927</time></trkpt><trkpt lat="55.7387442" lon="49.1657587"><time>2022-10-29T16:57:11.927</time></trkpt><trkpt lat="55.7387879" lon="49.1656528"><time>2022-10-29T16:57:13.923</time></trkpt><trkpt lat="55.7388323" lon="49.1655410"><time>2022-10-29T16:57:15.923</time></trkpt><trkpt lat="55.7388684" lon="49.1654244"><time>2022-10-29T16:57:17.927</time></trkpt><trkpt lat="55.7388971" lon="49.1652958"><time>2022-10-29T16:57:19.923</time></trkpt><trkpt lat="55.7389252" lon="49.1651813"><time>2022-10-29T16:57:21.923</time></trkpt><trkpt lat="55.7389514" lon="49.1650747"><time>2022-10-29T16:57:23.930</time></trkpt><trkpt lat="55.7389820" lon="49.1649715"><time>2022-10-29T16:57:25.923</time></trkpt><trkpt lat="55.7390083" lon="49.1648824"><time>2022-10-29T16:57:27.923</time></trkpt><trkpt lat="55.7390392" lon="49.1648062"><time>2022-10-29T16:57:29.933</time></trkpt><trkpt lat="55.7390770" lon="49.1647149"><time>2022-10-29T16:57:31.927</time></trkpt><trkpt lat="55.7391042" lon="49.1646280"><time>2022-10-29T16:57:33.920</time></trkpt><trkpt lat="55.7391323" lon="49.1645571"><time>2022-10-29T16:57:35.927</time></trkpt><trkpt lat="55.7391718" lon="49.1644977"><time>2022-10-29T16:57:37.930</time></trkpt><trkpt lat="55.7392185" lon="49.1644571"><time>2022-10-29T16:57:39.923</time></trkpt><trkpt lat="55.7392655" lon="49.1644238"><time>2022-10-29T16:57:42.930</time></trkpt><trkpt lat="55.7393319" lon="49.1643921"><time>2022-10-29T16:57:46.930</time></trkpt><trkpt lat="55.7393965" lon="49.1643959"><time>2022-10-29T16:57:48.930</time></trkpt><trkpt lat="55.7394557" lon="49.1644116"><time>2022-10-29T16:57:50.957</time></trkpt><trkpt lat="55.7395111" lon="49.1644314"><time>2022-10-29T16:57:52.937</time></trkpt><trkpt lat="55.7395561" lon="49.1644476"><time>2022-10-29T16:57:54.937</time></trkpt><trkpt lat="55.7396037" lon="49.1644586"><time>2022-10-29T16:57:56.923</time></trkpt><trkpt lat="55.7396666" lon="49.1644704"><time>2022-10-29T16:57:58.927</time></trkpt><trkpt lat="55.7397223" lon="49.1644886"><time>2022-10-29T16:58:00.920</time></trkpt><trkpt lat="55.7397748" lon="49.1645150"><time>2022-10-29T16:58:02.923</time></trkpt><trkpt lat="55.7398259" lon="49.1645480"><time>2022-10-29T16:58:04.933</time></trkpt><trkpt lat="55.7398800" lon="49.1646091"><time>2022-10-29T16:58:07.927</time></trkpt><trkpt lat="55.7399156" lon="49.1646606"><time>2022-10-29T16:58:09.927</time></trkpt><trkpt lat="55.7399299" lon="49.1647371"><time>2022-10-29T16:58:24.927</time></trkpt><trkpt lat="55.7399715" lon="49.1647754"><time>2022-10-29T16:59:27.927</time></trkpt><trkpt lat="55.7400171" lon="49.1648232"><time>2022-10-29T16:59:29.890</time></trkpt><trkpt lat="55.7400680" lon="49.1648703"><time>2022-10-29T16:59:31.927</time></trkpt><trkpt lat="55.7401189" lon="49.1649102"><time>2022-10-29T16:59:33.900</time></trkpt><trkpt lat="55.7401607" lon="49.1649419"><time>2022-10-29T16:59:35.907</time></trkpt><trkpt lat="55.7402254" lon="49.1649955"><time>2022-10-29T16:59:38.907</time></trkpt><trkpt lat="55.7402792" lon="49.1650482"><time>2022-10-29T16:59:40.903</time></trkpt><trkpt lat="55.7403352" lon="49.1650993"><time>2022-10-29T16:59:42.907</time></trkpt><trkpt lat="55.7403919" lon="49.1651457"><time>2022-10-29T16:59:44.930</time></trkpt><trkpt lat="55.7404469" lon="49.1651847"><time>2022-10-29T16:59:46.907</time></trkpt><trkpt lat="55.7404996" lon="49.1652252"><time>2022-10-29T16:59:48.907</time></trkpt><trkpt lat="55.7405491" lon="49.1652688"><time>2022-10-29T16:59:50.903</time></trkpt><trkpt lat="55.7406018" lon="49.1653131"><time>2022-10-29T16:59:52.920</time></trkpt><trkpt lat="55.7406534" lon="49.1653553"><time>2022-10-29T16:59:54.907</time></trkpt><trkpt lat="55.7407006" lon="49.1653984"><time>2022-10-29T16:59:56.890</time></trkpt><trkpt lat="55.7407501" lon="49.1654493"><time>2022-10-29T16:59:58.900</time></trkpt><trkpt lat="55.7407957" lon="49.1654942"><time>2022-10-29T17:00:00.937</time></trkpt><trkpt lat="55.7408441" lon="49.1655377"><time>2022-10-29T17:00:02.910</time></trkpt><trkpt lat="55.7408928" lon="49.1655786"><time>2022-10-29T17:00:04.923</time></trkpt><trkpt lat="55.7409384" lon="49.1656161"><time>2022-10-29T17:00:06.897</time></trkpt><trkpt lat="55.7409870" lon="49.1656567"><time>2022-10-29T17:00:08.897</time></trkpt><trkpt lat="55.7410338" lon="49.1657037"><time>2022-10-29T17:00:10.930</time></trkpt><trkpt lat="55.7410796" lon="49.1657462"><time>2022-10-29T17:00:12.893</time></trkpt><trkpt lat="55.7411253" lon="49.1657907"><time>2022-10-29T17:00:14.903</time></trkpt><trkpt lat="55.7411740" lon="49.1658346"><time>2022-10-29T17:00:16.903</time></trkpt><trkpt lat="55.7412251" lon="49.1658717"><time>2022-10-29T17:00:18.947</time></trkpt><trkpt lat="55.7412744" lon="49.1659081"><time>2022-10-29T17:00:20.927</time></trkpt><trkpt lat="55.7413271" lon="49.1659449"><time>2022-10-29T17:00:22.927</time></trkpt><trkpt lat="55.7413823" lon="49.1659805"><time>2022-10-29T17:00:24.903</time></trkpt><trkpt lat="55.7414336" lon="49.1660150"><time>2022-10-29T17:00:26.937</time></trkpt><trkpt lat="55.7414884" lon="49.1660519"><time>2022-10-29T17:00:28.923</time></trkpt><trkpt lat="55.7415448" lon="49.1660907"><time>2022-10-29T17:00:30.937</time></trkpt><trkpt lat="55.7416005" lon="49.1661301"><time>2022-10-29T17:00:32.933</time></trkpt><trkpt lat="55.7416508" lon="49.1661699"><time>2022-10-29T17:00:34.933</time></trkpt><trkpt lat="55.7416993" lon="49.1662088"><time>2022-10-29T17:00:36.933</time></trkpt><trkpt lat="55.7417574" lon="49.1662418"><time>2022-10-29T17:00:38.940</time></trkpt><trkpt lat="55.7418132" lon="49.1662709"><time>2022-10-29T17:00:40.933</time></trkpt><trkpt lat="55.7418664" lon="49.1663021"><time>2022-10-29T17:00:42.943</time></trkpt><trkpt lat="55.7419112" lon="49.1663279"><time>2022-10-29T17:00:44.927</time></trkpt><trkpt lat="55.7419675" lon="49.1663624"><time>2022-10-29T17:00:46.930</time></trkpt><trkpt lat="55.7420183" lon="49.1663988"><time>2022-10-29T17:00:48.927</time></trkpt><trkpt lat="55.7420661" lon="49.1664406"><time>2022-10-29T17:00:50.923</time></trkpt><trkpt lat="55.7421142" lon="49.1664790"><time>2022-10-29T17:00:52.893</time></trkpt><trkpt lat="55.7421590" lon="49.1665138"><time>2022-10-29T17:00:54.897</time></trkpt><trkpt lat="55.7422033" lon="49.1665520"><time>2022-10-29T17:00:56.927</time></trkpt><trkpt lat="55.7422516" lon="49.1665931"><time>2022-10-29T17:00:58.920</time></trkpt><trkpt lat="55.7423132" lon="49.1666363"><time>2022-10-29T17:01:01.920</time></trkpt><trkpt lat="55.7423625" lon="49.1666272"><time>2022-10-29T17:01:03.923</time></trkpt><trkpt lat="55.7424003" lon="49.1665461"><time>2022-10-29T17:01:05.917</time></trkpt><trkpt lat="55.7424202" lon="49.1664291"><time>2022-10-29T17:01:07.933</time></trkpt><trkpt lat="55.7424364" lon="49.1663052"><time>2022-10-29T17:01:09.927</time></trkpt><trkpt lat="55.7424521" lon="49.1661841"><time>2022-10-29T17:01:11.920</time></trkpt><trkpt lat="55.7424643" lon="49.1660591"><time>2022-10-29T17:01:13.917</time></trkpt><trkpt lat="55.7424766" lon="49.1659349"><time>2022-10-29T17:01:15.920</time></trkpt><trkpt lat="55.7424895" lon="49.1658111"><time>2022-10-29T17:01:17.923</time></trkpt><trkpt lat="55.7424995" lon="49.1656845"><time>2022-10-29T17:01:19.920</time></trkpt><trkpt lat="55.7425121" lon="49.1655607"><time>2022-10-29T17:01:21.927</time></trkpt><trkpt lat="55.7425296" lon="49.1654332"><time>2022-10-29T17:01:23.930</time></trkpt><trkpt lat="55.7425466" lon="49.1653076"><time>2022-10-29T17:01:25.927</time></trkpt><trkpt lat="55.7425657" lon="49.1651800"><time>2022-10-29T17:01:27.937</time></trkpt><trkpt lat="55.7425801" lon="49.1650532"><time>2022-10-29T17:01:29.917</time></trkpt><trkpt lat="55.7425978" lon="49.1649357"><time>2022-10-29T17:01:31.920</time></trkpt><trkpt lat="55.7426247" lon="49.1648167"><time>2022-10-29T17:01:33.930</time></trkpt><trkpt lat="55.7426659" lon="49.1647022"><time>2022-10-29T17:01:35.927</time></trkpt><trkpt lat="55.7427242" lon="49.1645970"><time>2022-10-29T17:01:37.933</time></trkpt><trkpt lat="55.7427935" lon="49.1645231"><time>2022-10-29T17:01:39.927</time></trkpt><trkpt lat="55.7428699" lon="49.1644708"><time>2022-10-29T17:01:41.927</time></trkpt><trkpt lat="55.7429459" lon="49.1644301"><time>2022-10-29T17:01:43.920</time></trkpt><trkpt lat="55.7430102" lon="49.1643971"><time>2022-10-29T17:01:45.927</time></trkpt><trkpt lat="55.7430710" lon="49.1643616"><time>2022-10-29T17:01:47.923</time></trkpt><trkpt lat="55.7431294" lon="49.1643285"><time>2022-10-29T17:01:49.930</time></trkpt><trkpt lat="55.7431754" lon="49.1642999"><time>2022-10-29T17:01:51.927</time></trkpt><trkpt lat="55.7432298" lon="49.1642521"><time>2022-10-29T17:01:54.927</time></trkpt><trkpt lat="55.7432675" lon="49.1641834"><time>2022-10-29T17:01:56.937</time></trkpt><trkpt lat="55.7432944" lon="49.1640700"><time>2022-10-29T17:01:58.917</time></trkpt><trkpt lat="55.7433147" lon="49.1639410"><time>2022-10-29T17:02:00.933</time></trkpt><trkpt lat="55.7433354" lon="49.1637814"><time>2022-10-29T17:02:02.917</time></trkpt><trkpt lat="55.7433469" lon="49.1637032"><time>2022-10-29T17:02:03.923</time></trkpt><trkpt lat="55.7433704" lon="49.1635499"><time>2022-10-29T17:02:05.933</time></trkpt><trkpt lat="55.7434010" lon="49.1634031"><time>2022-10-29T17:02:07.940</time></trkpt><trkpt lat="55.7434191" lon="49.1633250"><time>2022-10-29T17:02:08.923</time></trkpt><trkpt lat="55.7434520" lon="49.1631913"><time>2022-10-29T17:02:10.943</time></trkpt><trkpt lat="55.7435067" lon="49.1630757"><time>2022-10-29T17:02:12.923</time></trkpt><trkpt lat="55.7435764" lon="49.1630059"><time>2022-10-29T17:02:14.927</time></trkpt><trkpt lat="55.7436599" lon="49.1629715"><time>2022-10-29T17:02:16.923</time></trkpt><trkpt lat="55.7437044" lon="49.1629548"><time>2022-10-29T17:02:17.960</time></trkpt><trkpt lat="55.7437194" lon="49.1629335"><time>2022-10-29T17:02:19.097</time></trkpt><trkpt lat="55.7437746" lon="49.1629426"><time>2022-10-29T17:02:19.937</time></trkpt><trkpt lat="55.7438678" lon="49.1629292"><time>2022-10-29T17:02:21.933</time></trkpt><trkpt lat="55.7439497" lon="49.1629648"><time>2022-10-29T17:02:23.943</time></trkpt><trkpt lat="55.7439932" lon="49.1629863"><time>2022-10-29T17:02:24.923</time></trkpt><trkpt lat="55.7440655" lon="49.1630665"><time>2022-10-29T17:02:26.933</time></trkpt><trkpt lat="55.7441046" lon="49.1631096"><time>2022-10-29T17:02:27.937</time></trkpt><trkpt lat="55.7441450" lon="49.1631610"><time>2022-10-29T17:02:28.933</time></trkpt><trkpt lat="55.7441827" lon="49.1632155"><time>2022-10-29T17:02:29.930</time></trkpt><trkpt lat="55.7442269" lon="49.1633450"><time>2022-10-29T17:02:31.927</time></trkpt><trkpt lat="55.7442261" lon="49.1634749"><time>2022-10-29T17:02:33.933</time></trkpt><trkpt lat="55.7442295" lon="49.1635700"><time>2022-10-29T17:02:35.927</time></trkpt><trkpt lat="55.7442554" lon="49.1636671"><time>2022-10-29T17:02:37.930</time></trkpt><trkpt lat="55.7442858" lon="49.1637419"><time>2022-10-29T17:02:39.930</time></trkpt><trkpt lat="55.7443082" lon="49.1638280"><time>2022-10-29T17:02:41.937</time></trkpt><trkpt lat="55.7443318" lon="49.1639171"><time>2022-10-29T17:02:43.957</time></trkpt><trkpt lat="55.7443569" lon="49.1639999"><time>2022-10-29T17:02:45.947</time></trkpt><trkpt lat="55.7443822" lon="49.1640703"><time>2022-10-29T17:02:47.960</time></trkpt><trkpt lat="55.7443874" lon="49.1640844"><time>2022-10-29T17:02:49.077</time></trkpt><trkpt lat="55.7444238" lon="49.1641479"><time>2022-10-29T17:02:53.930</time></trkpt><trkpt lat="55.7444696" lon="49.1641510"><time>2022-10-29T17:03:01.933</time></trkpt><trkpt lat="55.7445165" lon="49.1641824"><time>2022-10-29T17:03:05.940</time></trkpt><trkpt lat="55.7445642" lon="49.1642045"><time>2022-10-29T17:03:40.930</time></trkpt><trkpt lat="55.7446109" lon="49.1642411"><time>2022-10-29T17:03:49.947</time></trkpt><trkpt lat="55.7446517" lon="49.1642788"><time>2022-10-29T17:03:55.940</time></trkpt><trkpt lat="55.7446980" lon="49.1642892"><time>2022-10-29T17:04:00.947</time></trkpt><trkpt lat="55.7447486" lon="49.1643070"><time>2022-10-29T17:04:04.900</time></trkpt><trkpt lat="55.7447926" lon="49.1643296"><time>2022-10-29T17:04:08.930</time></trkpt><trkpt lat="55.7448015" lon="49.1643255"><time>2022-10-29T17:04:10.073</time></trkpt><trkpt lat="55.7448509" lon="49.1643613"><time>2022-10-29T17:04:15.930</time></trkpt><trkpt lat="55.7449006" lon="49.1643930"><time>2022-10-29T17:04:20.933</time></trkpt><trkpt lat="55.7449463" lon="49.1644210"><time>2022-10-29T17:04:25.890</time></trkpt><trkpt lat="55.7449922" lon="49.1644561"><time>2022-10-29T17:04:31.903</time></trkpt><trkpt lat="55.7450333" lon="49.1645071"><time>2022-10-29T17:04:36.903</time></trkpt><trkpt lat="55.7450810" lon="49.1645538"><time>2022-10-29T17:04:41.933</time></trkpt><trkpt lat="55.7450810" lon="49.1645538"><time>2022-10-29T17:04:42.003</time></trkpt><trkpt lat="55.7450392" lon="49.1645075"><time>2022-10-29T17:04:59.940</time></trkpt><trkpt lat="55.7450438" lon="49.1644976"><time>2022-10-29T17:05:01.093</time></trkpt><trkpt lat="55.7449932" lon="49.1644599"><time>2022-10-29T17:05:05.900</time></trkpt><trkpt lat="55.7449491" lon="49.1644374"><time>2022-10-29T17:05:09.897</time></trkpt><trkpt lat="55.7449068" lon="49.1644039"><time>2022-10-29T17:05:50.943</time></trkpt><trkpt lat="55.7448614" lon="49.1643946"><time>2022-10-29T17:06:01.947</time></trkpt><trkpt lat="55.7448159" lon="49.1643689"><time>2022-10-29T17:06:07.937</time></trkpt><trkpt lat="55.7447660" lon="49.1643470"><time>2022-10-29T17:06:12.940</time></trkpt><trkpt lat="55.7447233" lon="49.1643120"><time>2022-10-29T17:06:17.937</time></trkpt><trkpt lat="55.7446796" lon="49.1642905"><time>2022-10-29T17:06:22.900</time></trkpt><trkpt lat="55.7446326" lon="49.1642471"><time>2022-10-29T17:06:27.890</time></trkpt><trkpt lat="55.7445878" lon="49.1642200"><time>2022-10-29T17:06:31.893</time></trkpt><trkpt lat="55.7445401" lon="49.1641888"><time>2022-10-29T17:06:35.943</time></trkpt><trkpt lat="55.7444970" lon="49.1641594"><time>2022-10-29T17:06:39.903</time></trkpt><trkpt lat="55.7444562" lon="49.1641181"><time>2022-10-29T17:06:43.937</time></trkpt><trkpt lat="55.7444125" lon="49.1640864"><time>2022-10-29T17:07:22.943</time></trkpt><trkpt lat="55.7443780" lon="49.1640299"><time>2022-10-29T17:07:25.907</time></trkpt><trkpt lat="55.7443410" lon="49.1639089"><time>2022-10-29T17:07:27.943</time></trkpt><trkpt lat="55.7443138" lon="49.1637697"><time>2022-10-29T17:07:29.900</time></trkpt><trkpt lat="55.7443001" lon="49.1636206"><time>2022-10-29T17:07:31.893</time></trkpt><trkpt lat="55.7443022" lon="49.1634751"><time>2022-10-29T17:07:33.900</time></trkpt><trkpt lat="55.7443188" lon="49.1633615"><time>2022-10-29T17:07:35.907</time></trkpt><trkpt lat="55.7443541" lon="49.1632465"><time>2022-10-29T17:07:37.907</time></trkpt><trkpt lat="55.7443886" lon="49.1631780"><time>2022-10-29T17:07:38.910</time></trkpt><trkpt lat="55.7444620" lon="49.1631080"><time>2022-10-29T17:07:40.940</time></trkpt><trkpt lat="55.7445402" lon="49.1630540"><time>2022-10-29T17:07:42.940</time></trkpt><trkpt lat="55.7446287" lon="49.1630218"><time>2022-10-29T17:07:44.937</time></trkpt><trkpt lat="55.7446754" lon="49.1630104"><time>2022-10-29T17:07:45.947</time></trkpt><trkpt lat="55.7447299" lon="49.1629946"><time>2022-10-29T17:07:46.903</time></trkpt><trkpt lat="55.7447803" lon="49.1629915"><time>2022-10-29T17:07:47.903</time></trkpt><trkpt lat="55.7448268" lon="49.1630008"><time>2022-10-29T17:07:48.940</time></trkpt><trkpt lat="55.7448812" lon="49.1629977"><time>2022-10-29T17:07:49.937</time></trkpt><trkpt lat="55.7449301" lon="49.1630063"><time>2022-10-29T17:07:50.943</time></trkpt><trkpt lat="55.7450138" lon="49.1630169"><time>2022-10-29T17:07:52.937</time></trkpt><trkpt lat="55.7450594" lon="49.1630049"><time>2022-10-29T17:07:53.943</time></trkpt><trkpt lat="55.7451239" lon="49.1629644"><time>2022-10-29T17:07:55.940</time></trkpt><trkpt lat="55.7451413" lon="49.1628817"><time>2022-10-29T17:07:58.947</time></trkpt><trkpt lat="55.7451410" lon="49.1627811"><time>2022-10-29T17:08:18.940</time></trkpt><trkpt lat="55.7451480" lon="49.1626897"><time>2022-10-29T17:08:22.950</time></trkpt><trkpt lat="55.7451453" lon="49.1625987"><time>2022-10-29T17:08:27.907</time></trkpt><trkpt lat="55.7450945" lon="49.1625665"><time>2022-10-29T17:08:32.907</time></trkpt><trkpt lat="55.7450428" lon="49.1625501"><time>2022-10-29T17:08:34.903</time></trkpt><trkpt lat="55.7449841" lon="49.1625287"><time>2022-10-29T17:08:37.940</time></trkpt><trkpt lat="55.7449345" lon="49.1625409"><time>2022-10-29T17:09:14.947</time></trkpt><trkpt lat="55.7448819" lon="49.1625238"><time>2022-10-29T17:09:16.937</time></trkpt><trkpt lat="55.7448234" lon="49.1625043"><time>2022-10-29T17:09:18.943</time></trkpt><trkpt lat="55.7447620" lon="49.1624930"><time>2022-10-29T17:09:20.943</time></trkpt><trkpt lat="55.7447013" lon="49.1624834"><time>2022-10-29T17:09:22.940</time></trkpt><trkpt lat="55.7446390" lon="49.1624658"><time>2022-10-29T17:09:24.947</time></trkpt><trkpt lat="55.7445795" lon="49.1624492"><time>2022-10-29T17:09:26.947</time></trkpt><trkpt lat="55.7445224" lon="49.1624345"><time>2022-10-29T17:09:28.937</time></trkpt><trkpt lat="55.7444547" lon="49.1624174"><time>2022-10-29T17:09:30.940</time></trkpt><trkpt lat="55.7443845" lon="49.1623966"><time>2022-10-29T17:09:32.937</time></trkpt><trkpt lat="55.7443159" lon="49.1623806"><time>2022-10-29T17:09:34.903</time></trkpt><trkpt lat="55.7442477" lon="49.1623656"><time>2022-10-29T17:09:36.947</time></trkpt><trkpt lat="55.7441791" lon="49.1623427"><time>2022-10-29T17:09:38.947</time></trkpt><trkpt lat="55.7441053" lon="49.1623199"><time>2022-10-29T17:09:40.943</time></trkpt><trkpt lat="55.7440314" lon="49.1622956"><time>2022-10-29T17:09:42.943</time></trkpt><trkpt lat="55.7439562" lon="49.1622711"><time>2022-10-29T17:09:44.943</time></trkpt><trkpt lat="55.7438817" lon="49.1622459"><time>2022-10-29T17:09:46.943</time></trkpt><trkpt lat="55.7438073" lon="49.1622253"><time>2022-10-29T17:09:48.940</time></trkpt><trkpt lat="55.7437372" lon="49.1622071"><time>2022-10-29T17:09:50.937</time></trkpt><trkpt lat="55.7436591" lon="49.1621854"><time>2022-10-29T17:09:52.937</time></trkpt><trkpt lat="55.7435840" lon="49.1621619"><time>2022-10-29T17:09:54.940</time></trkpt><trkpt lat="55.7435068" lon="49.1621385"><time>2022-10-29T17:09:56.940</time></trkpt><trkpt lat="55.7434354" lon="49.1621230"><time>2022-10-29T17:09:58.960</time></trkpt><trkpt lat="55.7433630" lon="49.1621031"><time>2022-10-29T17:10:00.927</time></trkpt><trkpt lat="55.7432925" lon="49.1620746"><time>2022-10-29T17:10:02.937</time></trkpt><trkpt lat="55.7432246" lon="49.1620464"><time>2022-10-29T17:10:04.937</time></trkpt><trkpt lat="55.7431524" lon="49.1620176"><time>2022-10-29T17:10:06.943</time></trkpt><trkpt lat="55.7430859" lon="49.1619854"><time>2022-10-29T17:10:08.943</time></trkpt><trkpt lat="55.7430167" lon="49.1619512"><time>2022-10-29T17:10:10.947</time></trkpt><trkpt lat="55.7429447" lon="49.1619173"><time>2022-10-29T17:10:12.937</time></trkpt><trkpt lat="55.7428734" lon="49.1618795"><time>2022-10-29T17:10:14.940</time></trkpt><trkpt lat="55.7428022" lon="49.1618432"><time>2022-10-29T17:10:16.937</time></trkpt><trkpt lat="55.7427215" lon="49.1618054"><time>2022-10-29T17:10:18.943</time></trkpt><trkpt lat="55.7426441" lon="49.1617699"><time>2022-10-29T17:10:20.937</time></trkpt><trkpt lat="55.7425757" lon="49.1617387"><time>2022-10-29T17:10:22.937</time></trkpt><trkpt lat="55.7425139" lon="49.1617129"><time>2022-10-29T17:10:24.937</time></trkpt><trkpt lat="55.7424568" lon="49.1616852"><time>2022-10-29T17:10:26.933</time></trkpt><trkpt lat="55.7423895" lon="49.1616521"><time>2022-10-29T17:10:28.940</time></trkpt><trkpt lat="55.7423310" lon="49.1616196"><time>2022-10-29T17:10:30.937</time></trkpt><trkpt lat="55.7422618" lon="49.1615840"><time>2022-10-29T17:10:32.937</time></trkpt><trkpt lat="55.7422041" lon="49.1615541"><time>2022-10-29T17:10:34.940</time></trkpt><trkpt lat="55.7421459" lon="49.1615187"><time>2022-10-29T17:10:36.937</time></trkpt><trkpt lat="55.7420801" lon="49.1614731"><time>2022-10-29T17:10:38.937</time></trkpt><trkpt lat="55.7420126" lon="49.1614305"><time>2022-10-29T17:10:40.940</time></trkpt><trkpt lat="55.7419422" lon="49.1613841"><time>2022-10-29T17:10:42.960</time></trkpt><trkpt lat="55.7419302" lon="49.1613737"><time>2022-10-29T17:10:43.990</time></trkpt><trkpt lat="55.7418594" lon="49.1613151"><time>2022-10-29T17:10:45.923</time></trkpt><trkpt lat="55.7417942" lon="49.1612793"><time>2022-10-29T17:10:47.913</time></trkpt><trkpt lat="55.7417271" lon="49.1612420"><time>2022-10-29T17:10:49.933</time></trkpt><trkpt lat="55.7416586" lon="49.1611970"><time>2022-10-29T17:10:51.930</time></trkpt><trkpt lat="55.7415941" lon="49.1611534"><time>2022-10-29T17:10:53.927</time></trkpt><trkpt lat="55.7415230" lon="49.1611109"><time>2022-10-29T17:10:55.903</time></trkpt><trkpt lat="55.7414547" lon="49.1610712"><time>2022-10-29T17:10:57.903</time></trkpt><trkpt lat="55.7413908" lon="49.1610358"><time>2022-10-29T17:10:59.927</time></trkpt><trkpt lat="55.7413284" lon="49.1609962"><time>2022-10-29T17:11:01.930</time></trkpt><trkpt lat="55.7412676" lon="49.1609600"><time>2022-10-29T17:11:03.913</time></trkpt><trkpt lat="55.7412075" lon="49.1609317"><time>2022-10-29T17:11:05.923</time></trkpt><trkpt lat="55.7411508" lon="49.1608977"><time>2022-10-29T17:11:07.923</time></trkpt><trkpt lat="55.7411009" lon="49.1608655"><time>2022-10-29T17:11:09.927</time></trkpt><trkpt lat="55.7410532" lon="49.1608360"><time>2022-10-29T17:11:11.953</time></trkpt><trkpt lat="55.7410354" lon="49.1608417"><time>2022-10-29T17:11:13.063</time></trkpt><trkpt lat="55.7409728" lon="49.1608009"><time>2022-10-29T17:11:15.907</time></trkpt><trkpt lat="55.7409132" lon="49.1607628"><time>2022-10-29T17:11:17.910</time></trkpt><trkpt lat="55.7408601" lon="49.1607283"><time>2022-10-29T17:11:19.920</time></trkpt><trkpt lat="55.7408077" lon="49.1606977"><time>2022-10-29T17:11:21.923</time></trkpt><trkpt lat="55.7407435" lon="49.1606678"><time>2022-10-29T17:11:23.913</time></trkpt><trkpt lat="55.7406897" lon="49.1606364"><time>2022-10-29T17:11:25.913</time></trkpt><trkpt lat="55.7406410" lon="49.1606049"><time>2022-10-29T17:11:27.923</time></trkpt><trkpt lat="55.7405926" lon="49.1605325"><time>2022-10-29T17:11:30.920</time></trkpt><trkpt lat="55.7405637" lon="49.1604488"><time>2022-10-29T17:11:33.930</time></trkpt><trkpt lat="55.7405608" lon="49.1604211"><time>2022-10-29T17:11:35.050</time></trkpt><trkpt lat="55.7405230" lon="49.1603344"><time>2022-10-29T17:11:37.897</time></trkpt><trkpt lat="55.7404882" lon="49.1602745"><time>2022-10-29T17:11:39.903</time></trkpt><trkpt lat="55.7404448" lon="49.1602121"><time>2022-10-29T17:11:41.907</time></trkpt><trkpt lat="55.7404081" lon="49.1601621"><time>2022-10-29T17:11:43.907</time></trkpt><trkpt lat="55.7403863" lon="49.1600875"><time>2022-10-29T17:11:46.907</time></trkpt><trkpt lat="55.7404242" lon="49.1600424"><time>2022-10-29T17:12:01.927</time></trkpt><trkpt lat="55.7404242" lon="49.1600424"><time>2022-10-29T17:12:02.003</time></trkpt><trkpt lat="55.7404591" lon="49.1601105"><time>2022-10-29T17:12:39.967</time></trkpt><trkpt lat="55.7404689" lon="49.1601273"><time>2022-10-29T17:12:40.963</time></trkpt><trkpt lat="55.7405137" lon="49.1601880"><time>2022-10-29T17:12:42.930</time></trkpt><trkpt lat="55.7405587" lon="49.1602272"><time>2022-10-29T17:12:44.927</time></trkpt><trkpt lat="55.7406105" lon="49.1602465"><time>2022-10-29T17:12:46.913</time></trkpt><trkpt lat="55.7406664" lon="49.1602654"><time>2022-10-29T17:12:48.917</time></trkpt><trkpt lat="55.7407316" lon="49.1602896"><time>2022-10-29T17:12:50.913</time></trkpt><trkpt lat="55.7407987" lon="49.1603201"><time>2022-10-29T17:12:52.920</time></trkpt><trkpt lat="55.7408549" lon="49.1603575"><time>2022-10-29T17:12:54.920</time></trkpt><trkpt lat="55.7409119" lon="49.1604110"><time>2022-10-29T17:12:56.923</time></trkpt><trkpt lat="55.7409646" lon="49.1604674"><time>2022-10-29T17:12:58.920</time></trkpt><trkpt lat="55.7410137" lon="49.1605228"><time>2022-10-29T17:13:00.903</time></trkpt><trkpt lat="55.7410649" lon="49.1605861"><time>2022-10-29T17:13:02.900</time></trkpt><trkpt lat="55.7411097" lon="49.1606453"><time>2022-10-29T17:13:04.907</time></trkpt><trkpt lat="55.7411582" lon="49.1607019"><time>2022-10-29T17:13:06.927</time></trkpt><trkpt lat="55.7412146" lon="49.1607503"><time>2022-10-29T17:13:08.933</time></trkpt><trkpt lat="55.7412687" lon="49.1607811"><time>2022-10-29T17:13:10.920</time></trkpt><trkpt lat="55.7413191" lon="49.1608103"><time>2022-10-29T17:13:12.917</time></trkpt><trkpt lat="55.7413735" lon="49.1608483"><time>2022-10-29T17:13:14.927</time></trkpt><trkpt lat="55.7414407" lon="49.1608908"><time>2022-10-29T17:13:16.927</time></trkpt><trkpt lat="55.7415061" lon="49.1609281"><time>2022-10-29T17:13:18.910</time></trkpt><trkpt lat="55.7415748" lon="49.1609723"><time>2022-10-29T17:13:20.920</time></trkpt><trkpt lat="55.7416330" lon="49.1610113"><time>2022-10-29T17:13:22.917</time></trkpt><trkpt lat="55.7416959" lon="49.1610549"><time>2022-10-29T17:13:24.923</time></trkpt><trkpt lat="55.7417556" lon="49.1610937"><time>2022-10-29T17:13:26.923</time></trkpt><trkpt lat="55.7418115" lon="49.1611250"><time>2022-10-29T17:13:28.923</time></trkpt><trkpt lat="55.7418725" lon="49.1611500"><time>2022-10-29T17:13:30.910</time></trkpt><trkpt lat="55.7419287" lon="49.1611831"><time>2022-10-29T17:13:32.910</time></trkpt><trkpt lat="55.7419830" lon="49.1612128"><time>2022-10-29T17:13:34.937</time></trkpt><trkpt lat="55.7420278" lon="49.1612371"><time>2022-10-29T17:13:36.937</time></trkpt><trkpt lat="55.7420775" lon="49.1612489"><time>2022-10-29T17:13:38.930</time></trkpt><trkpt lat="55.7421359" lon="49.1612405"><time>2022-10-29T17:13:40.927</time></trkpt><trkpt lat="55.7421850" lon="49.1612330"><time>2022-10-29T17:13:42.930</time></trkpt><trkpt lat="55.7422424" lon="49.1612482"><time>2022-10-29T17:13:44.927</time></trkpt><trkpt lat="55.7423001" lon="49.1612688"><time>2022-10-29T17:13:47.930</time></trkpt><trkpt lat="55.7423518" lon="49.1612936"><time>2022-10-29T17:13:50.933</time></trkpt><trkpt lat="55.7424030" lon="49.1613273"><time>2022-10-29T17:13:53.933</time></trkpt><trkpt lat="55.7424508" lon="49.1613511"><time>2022-10-29T17:13:55.930</time></trkpt><trkpt lat="55.7425035" lon="49.1613730"><time>2022-10-29T17:13:57.937</time></trkpt><trkpt lat="55.7425712" lon="49.1614128"><time>2022-10-29T17:14:00.933</time></trkpt><trkpt lat="55.7426180" lon="49.1614352"><time>2022-10-29T17:14:02.933</time></trkpt><trkpt lat="55.7426692" lon="49.1614671"><time>2022-10-29T17:14:04.927</time></trkpt><trkpt lat="55.7427169" lon="49.1614951"><time>2022-10-29T17:14:06.933</time></trkpt><trkpt lat="55.7427625" lon="49.1615340"><time>2022-10-29T17:14:08.930</time></trkpt><trkpt lat="55.7428284" lon="49.1615671"><time>2022-10-29T17:14:10.933</time></trkpt><trkpt lat="55.7428969" lon="49.1615889"><time>2022-10-29T17:14:12.927</time></trkpt><trkpt lat="55.7429700" lon="49.1616078"><time>2022-10-29T17:14:14.927</time></trkpt><trkpt lat="55.7430382" lon="49.1616260"><time>2022-10-29T17:14:16.927</time></trkpt><trkpt lat="55.7431090" lon="49.1616508"><time>2022-10-29T17:14:18.927</time></trkpt><trkpt lat="55.7431623" lon="49.1616761"><time>2022-10-29T17:14:20.927</time></trkpt><trkpt lat="55.7432183" lon="49.1617043"><time>2022-10-29T17:14:22.937</time></trkpt><trkpt lat="55.7432862" lon="49.1617306"><time>2022-10-29T17:14:24.930</time></trkpt><trkpt lat="55.7433421" lon="49.1617536"><time>2022-10-29T17:14:26.930</time></trkpt><trkpt lat="55.7434031" lon="49.1617679"><time>2022-10-29T17:14:28.933</time></trkpt><trkpt lat="55.7434743" lon="49.1617933"><time>2022-10-29T17:14:30.927</time></trkpt><trkpt lat="55.7435408" lon="49.1618293"><time>2022-10-29T17:14:32.907</time></trkpt><trkpt lat="55.7436018" lon="49.1618471"><time>2022-10-29T17:14:34.933</time></trkpt><trkpt lat="55.7436742" lon="49.1618720"><time>2022-10-29T17:14:36.930</time></trkpt><trkpt lat="55.7437239" lon="49.1619083"><time>2022-10-29T17:14:38.927</time></trkpt><trkpt lat="55.7437822" lon="49.1619593"><time>2022-10-29T17:14:40.927</time></trkpt><trkpt lat="55.7438255" lon="49.1619946"><time>2022-10-29T17:14:42.930</time></trkpt><trkpt lat="55.7438732" lon="49.1620221"><time>2022-10-29T17:14:44.937</time></trkpt><trkpt lat="55.7439307" lon="49.1620431"><time>2022-10-29T17:14:46.930</time></trkpt><trkpt lat="55.7439864" lon="49.1620530"><time>2022-10-29T17:14:48.933</time></trkpt><trkpt lat="55.7440405" lon="49.1620694"><time>2022-10-29T17:14:50.903</time></trkpt><trkpt lat="55.7440925" lon="49.1620882"><time>2022-10-29T17:14:52.933</time></trkpt><trkpt lat="55.7441478" lon="49.1621047"><time>2022-10-29T17:14:54.930</time></trkpt><trkpt lat="55.7441959" lon="49.1621247"><time>2022-10-29T17:14:56.923</time></trkpt><trkpt lat="55.7442540" lon="49.1621441"><time>2022-10-29T17:14:58.927</time></trkpt><trkpt lat="55.7443107" lon="49.1621733"><time>2022-10-29T17:15:00.923</time></trkpt><trkpt lat="55.7443709" lon="49.1622227"><time>2022-10-29T17:15:02.930</time></trkpt><trkpt lat="55.7444259" lon="49.1622815"><time>2022-10-29T17:15:04.920</time></trkpt><trkpt lat="55.7444830" lon="49.1623294"><time>2022-10-29T17:15:06.923</time></trkpt><trkpt lat="55.7445350" lon="49.1623512"><time>2022-10-29T17:15:08.927</time></trkpt><trkpt lat="55.7445844" lon="49.1623651"><time>2022-10-29T17:15:11.923</time></trkpt><trkpt lat="55.7446363" lon="49.1623805"><time>2022-10-29T17:17:12.920</time></trkpt><trkpt lat="55.7446911" lon="49.1623740"><time>2022-10-29T17:17:14.937</time></trkpt><trkpt lat="55.7447595" lon="49.1623877"><time>2022-10-29T17:17:16.937</time></trkpt><trkpt lat="55.7448232" lon="49.1624070"><time>2022-10-29T17:17:18.927</time></trkpt><trkpt lat="55.7448877" lon="49.1624176"><time>2022-10-29T17:17:20.930</time></trkpt><trkpt lat="55.7449481" lon="49.1624037"><time>2022-10-29T17:17:22.927</time></trkpt><trkpt lat="55.7450017" lon="49.1623745"><time>2022-10-29T17:17:24.907</time></trkpt><trkpt lat="55.7450551" lon="49.1623627"><time>2022-10-29T17:17:26.917</time></trkpt><trkpt lat="55.7451132" lon="49.1623636"><time>2022-10-29T17:17:28.907</time></trkpt><trkpt lat="55.7451822" lon="49.1623753"><time>2022-10-29T17:17:30.947</time></trkpt><trkpt lat="55.7452518" lon="49.1623960"><time>2022-10-29T17:17:32.953</time></trkpt><trkpt lat="55.7453201" lon="49.1624212"><time>2022-10-29T17:17:34.937</time></trkpt><trkpt lat="55.7453883" lon="49.1624368"><time>2022-10-29T17:17:36.937</time></trkpt><trkpt lat="55.7454499" lon="49.1624549"><time>2022-10-29T17:17:38.937</time></trkpt><trkpt lat="55.7455151" lon="49.1624852"><time>2022-10-29T17:17:40.940</time></trkpt><trkpt lat="55.7455854" lon="49.1625095"><time>2022-10-29T17:17:42.927</time></trkpt><trkpt lat="55.7456588" lon="49.1625335"><time>2022-10-29T17:17:44.903</time></trkpt><trkpt lat="55.7457335" lon="49.1625558"><time>2022-10-29T17:17:46.907</time></trkpt><trkpt lat="55.7458149" lon="49.1625676"><time>2022-10-29T17:17:48.937</time></trkpt><trkpt lat="55.7459012" lon="49.1625779"><time>2022-10-29T17:17:50.927</time></trkpt><trkpt lat="55.7459824" lon="49.1625940"><time>2022-10-29T17:17:52.937</time></trkpt><trkpt lat="55.7460319" lon="49.1626112"><time>2022-10-29T17:17:53.937</time></trkpt><trkpt lat="55.7461217" lon="49.1626326"><time>2022-10-29T17:17:55.930</time></trkpt><trkpt lat="55.7462074" lon="49.1626539"><time>2022-10-29T17:17:57.933</time></trkpt><trkpt lat="55.7462865" lon="49.1626618"><time>2022-10-29T17:17:59.967</time></trkpt><trkpt lat="55.7463662" lon="49.1626796"><time>2022-10-29T17:18:01.927</time></trkpt><trkpt lat="55.7464407" lon="49.1626845"><time>2022-10-29T17:18:03.940</time></trkpt><trkpt lat="55.7465270" lon="49.1626941"><time>2022-10-29T17:18:05.937</time></trkpt><trkpt lat="55.7466013" lon="49.1627045"><time>2022-10-29T17:18:07.930</time></trkpt><trkpt lat="55.7466832" lon="49.1627133"><time>2022-10-29T17:18:09.937</time></trkpt><trkpt lat="55.7467600" lon="49.1627260"><time>2022-10-29T17:18:11.930</time></trkpt><trkpt lat="55.7468451" lon="49.1627395"><time>2022-10-29T17:18:13.937</time></trkpt><trkpt lat="55.7469291" lon="49.1627435"><time>2022-10-29T17:18:15.943</time></trkpt><trkpt lat="55.7470072" lon="49.1627421"><time>2022-10-29T17:18:17.933</time></trkpt><trkpt lat="55.7470895" lon="49.1627453"><time>2022-10-29T17:18:19.900</time></trkpt><trkpt lat="55.7471347" lon="49.1627461"><time>2022-10-29T17:18:20.897</time></trkpt><trkpt lat="55.7471804" lon="49.1627451"><time>2022-10-29T17:18:21.923</time></trkpt><trkpt lat="55.7472624" lon="49.1627543"><time>2022-10-29T17:18:23.903</time></trkpt><trkpt lat="55.7473483" lon="49.1627789"><time>2022-10-29T17:18:25.907</time></trkpt><trkpt lat="55.7473994" lon="49.1628060"><time>2022-10-29T17:18:26.937</time></trkpt><trkpt lat="55.7474544" lon="49.1628155"><time>2022-10-29T17:18:27.937</time></trkpt><trkpt lat="55.7475071" lon="49.1628222"><time>2022-10-29T17:18:28.933</time></trkpt><trkpt lat="55.7475566" lon="49.1628242"><time>2022-10-29T17:18:29.937</time></trkpt><trkpt lat="55.7476032" lon="49.1628315"><time>2022-10-29T17:18:30.937</time></trkpt><trkpt lat="55.7476515" lon="49.1628306"><time>2022-10-29T17:18:31.930</time></trkpt><trkpt lat="55.7476994" lon="49.1628363"><time>2022-10-29T17:18:32.933</time></trkpt><trkpt lat="55.7477534" lon="49.1628360"><time>2022-10-29T17:18:33.937</time></trkpt><trkpt lat="55.7478048" lon="49.1628430"><time>2022-10-29T17:18:34.940</time></trkpt><trkpt lat="55.7478508" lon="49.1628366"><time>2022-10-29T17:18:35.910</time></trkpt><trkpt lat="55.7478973" lon="49.1628444"><time>2022-10-29T17:18:36.933</time></trkpt><trkpt lat="55.7479427" lon="49.1628502"><time>2022-10-29T17:18:37.933</time></trkpt><trkpt lat="55.7480374" lon="49.1628509"><time>2022-10-29T17:18:39.927</time></trkpt><trkpt lat="55.7480857" lon="49.1628573"><time>2022-10-29T17:18:40.937</time></trkpt><trkpt lat="55.7481367" lon="49.1628515"><time>2022-10-29T17:18:41.937</time></trkpt><trkpt lat="55.7481847" lon="49.1628544"><time>2022-10-29T17:18:42.937</time></trkpt><trkpt lat="55.7482352" lon="49.1628583"><time>2022-10-29T17:18:43.930</time></trkpt><trkpt lat="55.7482897" lon="49.1628600"><time>2022-10-29T17:18:44.930</time></trkpt><trkpt lat="55.7483390" lon="49.1628683"><time>2022-10-29T17:18:45.933</time></trkpt><trkpt lat="55.7483889" lon="49.1628737"><time>2022-10-29T17:18:46.933</time></trkpt><trkpt lat="55.7484377" lon="49.1628786"><time>2022-10-29T17:18:47.927</time></trkpt><trkpt lat="55.7484848" lon="49.1628931"><time>2022-10-29T17:18:48.937</time></trkpt><trkpt lat="55.7485304" lon="49.1629044"><time>2022-10-29T17:18:49.933</time></trkpt><trkpt lat="55.7485796" lon="49.1629067"><time>2022-10-29T17:18:50.940</time></trkpt><trkpt lat="55.7486270" lon="49.1629077"><time>2022-10-29T17:18:51.930</time></trkpt><trkpt lat="55.7487195" lon="49.1629373"><time>2022-10-29T17:18:53.937</time></trkpt><trkpt lat="55.7487653" lon="49.1629618"><time>2022-10-29T17:18:54.950</time></trkpt><trkpt lat="55.7488138" lon="49.1629859"><time>2022-10-29T17:18:55.933</time></trkpt><trkpt lat="55.7489076" lon="49.1630048"><time>2022-10-29T17:18:57.933</time></trkpt><trkpt lat="55.7489935" lon="49.1630168"><time>2022-10-29T17:18:59.937</time></trkpt><trkpt lat="55.7490757" lon="49.1630040"><time>2022-10-29T17:19:01.933</time></trkpt><trkpt lat="55.7491206" lon="49.1629929"><time>2022-10-29T17:19:02.930</time></trkpt><trkpt lat="55.7492047" lon="49.1629704"><time>2022-10-29T17:19:04.933</time></trkpt><trkpt lat="55.7492844" lon="49.1629491"><time>2022-10-29T17:19:06.933</time></trkpt><trkpt lat="55.7493683" lon="49.1629374"><time>2022-10-29T17:19:08.933</time></trkpt><trkpt lat="55.7494499" lon="49.1629337"><time>2022-10-29T17:19:10.937</time></trkpt><trkpt lat="55.7495283" lon="49.1629326"><time>2022-10-29T17:19:12.933</time></trkpt><trkpt lat="55.7496124" lon="49.1629328"><time>2022-10-29T17:19:14.933</time></trkpt><trkpt lat="55.7496921" lon="49.1629437"><time>2022-10-29T17:19:16.933</time></trkpt><trkpt lat="55.7497844" lon="49.1629436"><time>2022-10-29T17:19:18.933</time></trkpt><trkpt lat="55.7498698" lon="49.1629420"><time>2022-10-29T17:19:20.927</time></trkpt><trkpt lat="55.7499161" lon="49.1629480"><time>2022-10-29T17:19:21.933</time></trkpt><trkpt lat="55.7500038" lon="49.1629595"><time>2022-10-29T17:19:23.933</time></trkpt><trkpt lat="55.7500511" lon="49.1629620"><time>2022-10-29T17:19:24.937</time></trkpt><trkpt lat="55.7500984" lon="49.1629632"><time>2022-10-29T17:19:25.930</time></trkpt><trkpt lat="55.7501477" lon="49.1629638"><time>2022-10-29T17:19:26.937</time></trkpt><trkpt lat="55.7501966" lon="49.1629731"><time>2022-10-29T17:19:27.943</time></trkpt><trkpt lat="55.7502511" lon="49.1629739"><time>2022-10-29T17:19:28.930</time></trkpt><trkpt lat="55.7503013" lon="49.1629788"><time>2022-10-29T17:19:29.960</time></trkpt><trkpt lat="55.7503541" lon="49.1629822"><time>2022-10-29T17:19:30.940</time></trkpt><trkpt lat="55.7504039" lon="49.1629898"><time>2022-10-29T17:19:31.927</time></trkpt><trkpt lat="55.7504577" lon="49.1629941"><time>2022-10-29T17:19:32.930</time></trkpt><trkpt lat="55.7505047" lon="49.1630015"><time>2022-10-29T17:19:33.897</time></trkpt><trkpt lat="55.7505523" lon="49.1630054"><time>2022-10-29T17:19:34.900</time></trkpt><trkpt lat="55.7506014" lon="49.1630097"><time>2022-10-29T17:19:35.933</time></trkpt><trkpt lat="55.7506533" lon="49.1630116"><time>2022-10-29T17:19:36.947</time></trkpt><trkpt lat="55.7507091" lon="49.1630064"><time>2022-10-29T17:19:37.953</time></trkpt><trkpt lat="55.7507601" lon="49.1629972"><time>2022-10-29T17:19:38.897</time></trkpt><trkpt lat="55.7508083" lon="49.1629912"><time>2022-10-29T17:19:39.937</time></trkpt><trkpt lat="55.7508542" lon="49.1629735"><time>2022-10-29T17:19:40.897</time></trkpt><trkpt lat="55.7509045" lon="49.1629777"><time>2022-10-29T17:19:41.903</time></trkpt><trkpt lat="55.7509502" lon="49.1629841"><time>2022-10-29T17:19:42.903</time></trkpt><trkpt lat="55.7509975" lon="49.1629928"><time>2022-10-29T17:19:43.910</time></trkpt><trkpt lat="55.7510464" lon="49.1630097"><time>2022-10-29T17:19:44.933</time></trkpt><trkpt lat="55.7511345" lon="49.1630342"><time>2022-10-29T17:19:46.937</time></trkpt><trkpt lat="55.7511832" lon="49.1630441"><time>2022-10-29T17:19:47.940</time></trkpt><trkpt lat="55.7512302" lon="49.1630505"><time>2022-10-29T17:19:48.910</time></trkpt><trkpt lat="55.7512819" lon="49.1630558"><time>2022-10-29T17:19:49.927</time></trkpt><trkpt lat="55.7513634" lon="49.1630539"><time>2022-10-29T17:19:51.947</time></trkpt><trkpt lat="55.7514127" lon="49.1630454"><time>2022-10-29T17:19:52.937</time></trkpt><trkpt lat="55.7514565" lon="49.1630239"><time>2022-10-29T17:19:53.947</time></trkpt><trkpt lat="55.7515029" lon="49.1629983"><time>2022-10-29T17:19:54.937</time></trkpt><trkpt lat="55.7515480" lon="49.1629725"><time>2022-10-29T17:19:55.940</time></trkpt><trkpt lat="55.7516347" lon="49.1629116"><time>2022-10-29T17:19:57.943</time></trkpt><trkpt lat="55.7517153" lon="49.1628461"><time>2022-10-29T17:19:59.937</time></trkpt><trkpt lat="55.7517884" lon="49.1627763"><time>2022-10-29T17:20:01.937</time></trkpt><trkpt lat="55.7518627" lon="49.1627054"><time>2022-10-29T17:20:03.907</time></trkpt><trkpt lat="55.7519273" lon="49.1626611"><time>2022-10-29T17:20:05.907</time></trkpt><trkpt lat="55.7519787" lon="49.1626442"><time>2022-10-29T17:20:07.927</time></trkpt><trkpt lat="55.7520271" lon="49.1626624"><time>2022-10-29T17:20:09.937</time></trkpt><trkpt lat="55.7520818" lon="49.1626471"><time>2022-10-29T17:20:11.933</time></trkpt><trkpt lat="55.7521361" lon="49.1626181"><time>2022-10-29T17:20:13.927</time></trkpt><trkpt lat="55.7521898" lon="49.1625747"><time>2022-10-29T17:20:15.927</time></trkpt><trkpt lat="55.7522560" lon="49.1625066"><time>2022-10-29T17:20:17.930</time></trkpt><trkpt lat="55.7523250" lon="49.1624423"><time>2022-10-29T17:20:19.937</time></trkpt><trkpt lat="55.7523984" lon="49.1623850"><time>2022-10-29T17:20:21.933</time></trkpt><trkpt lat="55.7524682" lon="49.1623224"><time>2022-10-29T17:20:23.927</time></trkpt><trkpt lat="55.7525243" lon="49.1622656"><time>2022-10-29T17:20:25.910</time></trkpt><trkpt lat="55.7525951" lon="49.1622080"><time>2022-10-29T17:20:27.933</time></trkpt><trkpt lat="55.7526589" lon="49.1621533"><time>2022-10-29T17:20:29.933</time></trkpt><trkpt lat="55.7527208" lon="49.1620956"><time>2022-10-29T17:20:31.943</time></trkpt><trkpt lat="55.7527908" lon="49.1620308"><time>2022-10-29T17:20:33.933</time></trkpt><trkpt lat="55.7528550" lon="49.1619765"><time>2022-10-29T17:20:35.930</time></trkpt><trkpt lat="55.7529094" lon="49.1619264"><time>2022-10-29T17:20:37.940</time></trkpt><trkpt lat="55.7529676" lon="49.1618707"><time>2022-10-29T17:20:39.933</time></trkpt><trkpt lat="55.7530186" lon="49.1618239"><time>2022-10-29T17:20:41.933</time></trkpt><trkpt lat="55.7530715" lon="49.1617614"><time>2022-10-29T17:20:43.933</time></trkpt><trkpt lat="55.7531294" lon="49.1616828"><time>2022-10-29T17:20:45.933</time></trkpt><trkpt lat="55.7531906" lon="49.1615910"><time>2022-10-29T17:20:47.930</time></trkpt><trkpt lat="55.7532361" lon="49.1615072"><time>2022-10-29T17:20:49.923</time></trkpt><trkpt lat="55.7532784" lon="49.1614065"><time>2022-10-29T17:20:51.927</time></trkpt><trkpt lat="55.7533157" lon="49.1613022"><time>2022-10-29T17:20:53.933</time></trkpt><trkpt lat="55.7533568" lon="49.1611983"><time>2022-10-29T17:20:55.930</time></trkpt><trkpt lat="55.7533988" lon="49.1611008"><time>2022-10-29T17:20:57.933</time></trkpt><trkpt lat="55.7534555" lon="49.1609870"><time>2022-10-29T17:20:59.933</time></trkpt><trkpt lat="55.7535155" lon="49.1608880"><time>2022-10-29T17:21:01.937</time></trkpt><trkpt lat="55.7535698" lon="49.1607959"><time>2022-10-29T17:21:03.940</time></trkpt><trkpt lat="55.7536190" lon="49.1607070"><time>2022-10-29T17:21:05.927</time></trkpt><trkpt lat="55.7536589" lon="49.1606226"><time>2022-10-29T17:21:07.933</time></trkpt><trkpt lat="55.7536955" lon="49.1605382"><time>2022-10-29T17:21:09.927</time></trkpt><trkpt lat="55.7537371" lon="49.1604592"><time>2022-10-29T17:21:11.940</time></trkpt><trkpt lat="55.7537733" lon="49.1603879"><time>2022-10-29T17:21:13.923</time></trkpt><trkpt lat="55.7538034" lon="49.1603283"><time>2022-10-29T17:21:15.930</time></trkpt><trkpt lat="55.7538468" lon="49.1602580"><time>2022-10-29T17:21:18.937</time></trkpt><trkpt lat="55.7539079" lon="49.1602095"><time>2022-10-29T17:21:21.933</time></trkpt><trkpt lat="55.7539645" lon="49.1601710"><time>2022-10-29T17:21:23.940</time></trkpt><trkpt lat="55.7540210" lon="49.1601398"><time>2022-10-29T17:21:25.937</time></trkpt><trkpt lat="55.7540906" lon="49.1601274"><time>2022-10-29T17:21:27.937</time></trkpt><trkpt lat="55.7541552" lon="49.1601093"><time>2022-10-29T17:21:29.943</time></trkpt><trkpt lat="55.7542077" lon="49.1600690"><time>2022-10-29T17:21:31.930</time></trkpt><trkpt lat="55.7542685" lon="49.1599972"><time>2022-10-29T17:21:33.933</time></trkpt><trkpt lat="55.7543292" lon="49.1599239"><time>2022-10-29T17:21:35.937</time></trkpt><trkpt lat="55.7543942" lon="49.1598495"><time>2022-10-29T17:21:37.937</time></trkpt><trkpt lat="55.7544549" lon="49.1597789"><time>2022-10-29T17:21:39.940</time></trkpt><trkpt lat="55.7545144" lon="49.1597098"><time>2022-10-29T17:21:41.933</time></trkpt><trkpt lat="55.7545685" lon="49.1596476"><time>2022-10-29T17:21:43.937</time></trkpt><trkpt lat="55.7546141" lon="49.1595946"><time>2022-10-29T17:21:46.937</time></trkpt><trkpt lat="55.7546539" lon="49.1595175"><time>2022-10-29T17:21:49.933</time></trkpt><trkpt lat="55.7546887" lon="49.1594437"><time>2022-10-29T17:21:51.930</time></trkpt><trkpt lat="55.7547299" lon="49.1593842"><time>2022-10-29T17:21:53.953</time></trkpt><trkpt lat="55.7547804" lon="49.1593581"><time>2022-10-29T17:21:55.943</time></trkpt><trkpt lat="55.7548286" lon="49.1593407"><time>2022-10-29T17:21:57.933</time></trkpt><trkpt lat="55.7548774" lon="49.1592869"><time>2022-10-29T17:21:59.930</time></trkpt><trkpt lat="55.7549318" lon="49.1592032"><time>2022-10-29T17:22:01.930</time></trkpt><trkpt lat="55.7549875" lon="49.1591220"><time>2022-10-29T17:22:03.940</time></trkpt><trkpt lat="55.7550419" lon="49.1590515"><time>2022-10-29T17:22:05.933</time></trkpt><trkpt lat="55.7550937" lon="49.1589866"><time>2022-10-29T17:22:07.907</time></trkpt><trkpt lat="55.7551526" lon="49.1589200"><time>2022-10-29T17:22:09.907</time></trkpt><trkpt lat="55.7552141" lon="49.1588515"><time>2022-10-29T17:22:11.907</time></trkpt><trkpt lat="55.7552777" lon="49.1587805"><time>2022-10-29T17:22:13.910</time></trkpt><trkpt lat="55.7553396" lon="49.1587076"><time>2022-10-29T17:22:15.930</time></trkpt><trkpt lat="55.7553985" lon="49.1586369"><time>2022-10-29T17:22:17.907</time></trkpt><trkpt lat="55.7554546" lon="49.1585725"><time>2022-10-29T17:22:19.940</time></trkpt><trkpt lat="55.7555169" lon="49.1585059"><time>2022-10-29T17:22:21.903</time></trkpt><trkpt lat="55.7555826" lon="49.1584335"><time>2022-10-29T17:22:23.927</time></trkpt><trkpt lat="55.7556499" lon="49.1583492"><time>2022-10-29T17:22:25.933</time></trkpt><trkpt lat="55.7557102" lon="49.1582658"><time>2022-10-29T17:22:27.937</time></trkpt><trkpt lat="55.7557683" lon="49.1581971"><time>2022-10-29T17:22:29.933</time></trkpt><trkpt lat="55.7558298" lon="49.1581276"><time>2022-10-29T17:22:31.937</time></trkpt><trkpt lat="55.7558940" lon="49.1580477"><time>2022-10-29T17:22:33.940</time></trkpt><trkpt lat="55.7559600" lon="49.1579789"><time>2022-10-29T17:22:35.940</time></trkpt><trkpt lat="55.7560298" lon="49.1579051"><time>2022-10-29T17:22:37.940</time></trkpt><trkpt lat="55.7560991" lon="49.1578123"><time>2022-10-29T17:22:39.937</time></trkpt><trkpt lat="55.7561707" lon="49.1577165"><time>2022-10-29T17:22:41.940</time></trkpt><trkpt lat="55.7562435" lon="49.1576337"><time>2022-10-29T17:22:43.970</time></trkpt><trkpt lat="55.7562631" lon="49.1576066"><time>2022-10-29T17:22:45.933</time></trkpt><trkpt lat="55.7563053" lon="49.1575578"><time>2022-10-29T17:22:45.947</time></trkpt><trkpt lat="55.7563691" lon="49.1574672"><time>2022-10-29T17:22:47.933</time></trkpt><trkpt lat="55.7564338" lon="49.1573866"><time>2022-10-29T17:22:49.940</time></trkpt><trkpt lat="55.7564940" lon="49.1573167"><time>2022-10-29T17:22:51.930</time></trkpt><trkpt lat="55.7565581" lon="49.1572448"><time>2022-10-29T17:22:53.940</time></trkpt><trkpt lat="55.7566172" lon="49.1571711"><time>2022-10-29T17:22:55.927</time></trkpt><trkpt lat="55.7566731" lon="49.1571048"><time>2022-10-29T17:22:57.937</time></trkpt><trkpt lat="55.7567265" lon="49.1570445"><time>2022-10-29T17:22:59.940</time></trkpt><trkpt lat="55.7567753" lon="49.1569805"><time>2022-10-29T17:23:01.940</time></trkpt><trkpt lat="55.7568262" lon="49.1569117"><time>2022-10-29T17:23:03.937</time></trkpt><trkpt lat="55.7568787" lon="49.1568479"><time>2022-10-29T17:23:05.937</time></trkpt><trkpt lat="55.7569269" lon="49.1567920"><time>2022-10-29T17:23:07.933</time></trkpt><trkpt lat="55.7569825" lon="49.1567362"><time>2022-10-29T17:23:09.933</time></trkpt><trkpt lat="55.7570390" lon="49.1566738"><time>2022-10-29T17:23:11.973</time></trkpt><trkpt lat="55.7570516" lon="49.1566586"><time>2022-10-29T17:23:12.883</time></trkpt><trkpt lat="55.7571163" lon="49.1565873"><time>2022-10-29T17:23:14.917</time></trkpt><trkpt lat="55.7571773" lon="49.1565198"><time>2022-10-29T17:23:16.927</time></trkpt><trkpt lat="55.7572332" lon="49.1564577"><time>2022-10-29T17:23:18.913</time></trkpt><trkpt lat="55.7572798" lon="49.1564057"><time>2022-10-29T17:23:20.900</time></trkpt><trkpt lat="55.7573293" lon="49.1563544"><time>2022-10-29T17:23:23.897</time></trkpt><trkpt lat="55.7573813" lon="49.1563039"><time>2022-10-29T17:23:26.907</time></trkpt><trkpt lat="55.7574420" lon="49.1562420"><time>2022-10-29T17:23:29.950</time></trkpt><trkpt lat="55.7574494" lon="49.1562072"><time>2022-10-29T17:23:31.090</time></trkpt><trkpt lat="55.7575025" lon="49.1561343"><time>2022-10-29T17:23:32.923</time></trkpt><trkpt lat="55.7575513" lon="49.1560697"><time>2022-10-29T17:23:34.927</time></trkpt><trkpt lat="55.7576001" lon="49.1560145"><time>2022-10-29T17:23:36.937</time></trkpt><trkpt lat="55.7576483" lon="49.1559639"><time>2022-10-29T17:23:38.930</time></trkpt><trkpt lat="55.7576935" lon="49.1559077"><time>2022-10-29T17:23:40.963</time></trkpt><trkpt lat="55.7576935" lon="49.1559077"><time>2022-10-29T17:23:41.057</time></trkpt><trkpt lat="55.7577219" lon="49.1558432"><time>2022-10-29T17:23:42.980</time></trkpt><trkpt lat="55.7577246" lon="49.1558247"><time>2022-10-29T17:23:43.890</time></trkpt><trkpt lat="55.7577543" lon="49.1557375"><time>2022-10-29T17:23:46.927</time></trkpt><trkpt lat="55.7578016" lon="49.1557281"><time>2022-10-29T17:23:48.930</time></trkpt><trkpt lat="55.7578470" lon="49.1557000"><time>2022-10-29T17:23:50.933</time></trkpt><trkpt lat="55.7578975" lon="49.1556146"><time>2022-10-29T17:23:53.897</time></trkpt><trkpt lat="55.7579420" lon="49.1555361"><time>2022-10-29T17:23:55.900</time></trkpt><trkpt lat="55.7579880" lon="49.1554628"><time>2022-10-29T17:23:57.907</time></trkpt><trkpt lat="55.7580300" lon="49.1553987"><time>2022-10-29T17:23:59.907</time></trkpt><trkpt lat="55.7580698" lon="49.1553433"><time>2022-10-29T17:24:01.897</time></trkpt><trkpt lat="55.7581134" lon="49.1552952"><time>2022-10-29T17:24:03.897</time></trkpt><trkpt lat="55.7581542" lon="49.1552579"><time>2022-10-29T17:24:05.907</time></trkpt><trkpt lat="55.7581971" lon="49.1552162"><time>2022-10-29T17:24:07.910</time></trkpt><trkpt lat="55.7582423" lon="49.1551658"><time>2022-10-29T17:24:09.910</time></trkpt><trkpt lat="55.7582877" lon="49.1551096"><time>2022-10-29T17:24:11.907</time></trkpt><trkpt lat="55.7583258" lon="49.1550534"><time>2022-10-29T17:24:13.947</time></trkpt><trkpt lat="55.7583710" lon="49.1549975"><time>2022-10-29T17:24:15.943</time></trkpt><trkpt lat="55.7584170" lon="49.1549329"><time>2022-10-29T17:24:17.940</time></trkpt><trkpt lat="55.7584669" lon="49.1548577"><time>2022-10-29T17:24:19.943</time></trkpt><trkpt lat="55.7585134" lon="49.1547865"><time>2022-10-29T17:24:21.943</time></trkpt><trkpt lat="55.7585514" lon="49.1546998"><time>2022-10-29T17:24:23.940</time></trkpt><trkpt lat="55.7585715" lon="49.1546028"><time>2022-10-29T17:24:25.910</time></trkpt><trkpt lat="55.7585734" lon="49.1545036"><time>2022-10-29T17:24:27.940</time></trkpt><trkpt lat="55.7585614" lon="49.1544026"><time>2022-10-29T17:24:29.950</time></trkpt><trkpt lat="55.7585430" lon="49.1543095"><time>2022-10-29T17:24:31.947</time></trkpt><trkpt lat="55.7585272" lon="49.1542237"><time>2022-10-29T17:24:33.937</time></trkpt><trkpt lat="55.7585384" lon="49.1541395"><time>2022-10-29T17:24:38.940</time></trkpt><trkpt lat="55.7585810" lon="49.1541029"><time>2022-10-29T17:24:41.953</time></trkpt><trkpt lat="55.7586300" lon="49.1540682"><time>2022-10-29T17:24:44.947</time></trkpt><trkpt lat="55.7586741" lon="49.1540428"><time>2022-10-29T17:24:47.943</time></trkpt><trkpt lat="55.7587174" lon="49.1540660"><time>2022-10-29T17:24:51.937</time></trkpt><trkpt lat="55.7587636" lon="49.1541531"><time>2022-10-29T17:24:54.943</time></trkpt><trkpt lat="55.7588040" lon="49.1542312"><time>2022-10-29T17:24:56.940</time></trkpt><trkpt lat="55.7588479" lon="49.1542780"><time>2022-10-29T17:24:58.933</time></trkpt><trkpt lat="55.7589124" lon="49.1542872"><time>2022-10-29T17:25:01.937</time></trkpt><trkpt lat="55.7589656" lon="49.1542950"><time>2022-10-29T17:25:03.910</time></trkpt><trkpt lat="55.7590212" lon="49.1542804"><time>2022-10-29T17:25:05.943</time></trkpt><trkpt lat="55.7590589" lon="49.1542198"><time>2022-10-29T17:25:07.937</time></trkpt><trkpt lat="55.7591010" lon="49.1541632"><time>2022-10-29T17:25:09.937</time></trkpt><trkpt lat="55.7591589" lon="49.1541225"><time>2022-10-29T17:25:11.947</time></trkpt><trkpt lat="55.7592129" lon="49.1540660"><time>2022-10-29T17:25:13.943</time></trkpt><trkpt lat="55.7592615" lon="49.1539950"><time>2022-10-29T17:25:15.947</time></trkpt><trkpt lat="55.7593112" lon="49.1539149"><time>2022-10-29T17:25:17.943</time></trkpt><trkpt lat="55.7593721" lon="49.1538334"><time>2022-10-29T17:25:19.943</time></trkpt><trkpt lat="55.7594270" lon="49.1537679"><time>2022-10-29T17:25:21.950</time></trkpt><trkpt lat="55.7594850" lon="49.1537027"><time>2022-10-29T17:25:23.940</time></trkpt><trkpt lat="55.7595393" lon="49.1536408"><time>2022-10-29T17:25:25.937</time></trkpt><trkpt lat="55.7595853" lon="49.1535919"><time>2022-10-29T17:25:27.943</time></trkpt><trkpt lat="55.7596313" lon="49.1535494"><time>2022-10-29T17:25:29.943</time></trkpt><trkpt lat="55.7596914" lon="49.1535022"><time>2022-10-29T17:25:31.967</time></trkpt><trkpt lat="55.7597504" lon="49.1534484"><time>2022-10-29T17:25:33.953</time></trkpt><trkpt lat="55.7598060" lon="49.1533878"><time>2022-10-29T17:25:35.947</time></trkpt><trkpt lat="55.7598663" lon="49.1533240"><time>2022-10-29T17:25:37.947</time></trkpt><trkpt lat="55.7599309" lon="49.1532494"><time>2022-10-29T17:25:39.953</time></trkpt><trkpt lat="55.7599969" lon="49.1531758"><time>2022-10-29T17:25:41.947</time></trkpt><trkpt lat="55.7600627" lon="49.1531106"><time>2022-10-29T17:25:43.963</time></trkpt><trkpt lat="55.7601284" lon="49.1530416"><time>2022-10-29T17:25:45.947</time></trkpt><trkpt lat="55.7601922" lon="49.1529714"><time>2022-10-29T17:25:47.950</time></trkpt><trkpt lat="55.7602540" lon="49.1529099"><time>2022-10-29T17:25:49.947</time></trkpt><trkpt lat="55.7603166" lon="49.1528474"><time>2022-10-29T17:25:51.943</time></trkpt><trkpt lat="55.7603792" lon="49.1527787"><time>2022-10-29T17:25:53.937</time></trkpt><trkpt lat="55.7604393" lon="49.1527135"><time>2022-10-29T17:25:55.940</time></trkpt><trkpt lat="55.7604931" lon="49.1526560"><time>2022-10-29T17:25:57.947</time></trkpt><trkpt lat="55.7605605" lon="49.1525893"><time>2022-10-29T17:25:59.920</time></trkpt><trkpt lat="55.7606152" lon="49.1525244"><time>2022-10-29T17:26:01.907</time></trkpt><trkpt lat="55.7606656" lon="49.1524736"><time>2022-10-29T17:26:03.910</time></trkpt><trkpt lat="55.7607329" lon="49.1524093"><time>2022-10-29T17:26:05.940</time></trkpt><trkpt lat="55.7607965" lon="49.1523403"><time>2022-10-29T17:26:07.933</time></trkpt><trkpt lat="55.7608568" lon="49.1522794"><time>2022-10-29T17:26:09.937</time></trkpt><trkpt lat="55.7609246" lon="49.1522350"><time>2022-10-29T17:26:11.937</time></trkpt><trkpt lat="55.7609988" lon="49.1521897"><time>2022-10-29T17:26:13.943</time></trkpt><trkpt lat="55.7610685" lon="49.1521438"><time>2022-10-29T17:26:15.923</time></trkpt><trkpt lat="55.7611459" lon="49.1520915"><time>2022-10-29T17:26:17.947</time></trkpt><trkpt lat="55.7612142" lon="49.1520294"><time>2022-10-29T17:26:19.937</time></trkpt><trkpt lat="55.7612841" lon="49.1519529"><time>2022-10-29T17:26:21.947</time></trkpt><trkpt lat="55.7613548" lon="49.1518862"><time>2022-10-29T17:26:23.947</time></trkpt><trkpt lat="55.7614182" lon="49.1518176"><time>2022-10-29T17:26:25.940</time></trkpt><trkpt lat="55.7614783" lon="49.1517436"><time>2022-10-29T17:26:27.943</time></trkpt><trkpt lat="55.7615309" lon="49.1516933"><time>2022-10-29T17:26:29.937</time></trkpt><trkpt lat="55.7615824" lon="49.1516642"><time>2022-10-29T17:26:31.940</time></trkpt><trkpt lat="55.7616403" lon="49.1516141"><time>2022-10-29T17:26:33.947</time></trkpt><trkpt lat="55.7617004" lon="49.1515498"><time>2022-10-29T17:26:35.940</time></trkpt><trkpt lat="55.7617767" lon="49.1514738"><time>2022-10-29T17:26:37.943</time></trkpt><trkpt lat="55.7618499" lon="49.1513970"><time>2022-10-29T17:26:39.953</time></trkpt><trkpt lat="55.7619229" lon="49.1513396"><time>2022-10-29T17:26:41.970</time></trkpt><trkpt lat="55.7619322" lon="49.1513199"><time>2022-10-29T17:26:43.120</time></trkpt><trkpt lat="55.7619864" lon="49.1512791"><time>2022-10-29T17:26:44.900</time></trkpt><trkpt lat="55.7620286" lon="49.1512475"><time>2022-10-29T17:26:46.900</time></trkpt><trkpt lat="55.7620883" lon="49.1511856"><time>2022-10-29T17:26:49.903</time></trkpt><trkpt lat="55.7621271" lon="49.1511201"><time>2022-10-29T17:26:51.903</time></trkpt><trkpt lat="55.7621653" lon="49.1510348"><time>2022-10-29T17:26:53.913</time></trkpt><trkpt lat="55.7622015" lon="49.1509506"><time>2022-10-29T17:26:55.907</time></trkpt><trkpt lat="55.7622467" lon="49.1508650"><time>2022-10-29T17:26:57.907</time></trkpt><trkpt lat="55.7623015" lon="49.1507963"><time>2022-10-29T17:26:59.903</time></trkpt><trkpt lat="55.7623579" lon="49.1507419"><time>2022-10-29T17:27:01.900</time></trkpt><trkpt lat="55.7624317" lon="49.1506803"><time>2022-10-29T17:27:03.903</time></trkpt><trkpt lat="55.7625026" lon="49.1506162"><time>2022-10-29T17:27:05.907</time></trkpt><trkpt lat="55.7625689" lon="49.1505515"><time>2022-10-29T17:27:07.900</time></trkpt><trkpt lat="55.7626348" lon="49.1504877"><time>2022-10-29T17:27:09.903</time></trkpt><trkpt lat="55.7626941" lon="49.1504336"><time>2022-10-29T17:27:11.943</time></trkpt><trkpt lat="55.7627129" lon="49.1504080"><time>2022-10-29T17:27:13.077</time></trkpt><trkpt lat="55.7627724" lon="49.1503595"><time>2022-10-29T17:27:14.910</time></trkpt><trkpt lat="55.7628183" lon="49.1503136"><time>2022-10-29T17:27:16.907</time></trkpt><trkpt lat="55.7628619" lon="49.1502754"><time>2022-10-29T17:27:18.903</time></trkpt><trkpt lat="55.7629214" lon="49.1502252"><time>2022-10-29T17:27:21.907</time></trkpt><trkpt lat="55.7629697" lon="49.1501815"><time>2022-10-29T17:27:23.907</time></trkpt><trkpt lat="55.7630141" lon="49.1501452"><time>2022-10-29T17:27:25.910</time></trkpt><trkpt lat="55.7630478" lon="49.1500917"><time>2022-10-29T17:27:27.933</time></trkpt><trkpt lat="55.7630554" lon="49.1500584"><time>2022-10-29T17:27:29.063</time></trkpt><trkpt lat="55.7630743" lon="49.1499583"><time>2022-10-29T17:27:30.907</time></trkpt><trkpt lat="55.7630930" lon="49.1498661"><time>2022-10-29T17:27:32.913</time></trkpt><trkpt lat="55.7631084" lon="49.1497576"><time>2022-10-29T17:27:34.907</time></trkpt><trkpt lat="55.7631254" lon="49.1496634"><time>2022-10-29T17:27:36.903</time></trkpt><trkpt lat="55.7631575" lon="49.1495885"><time>2022-10-29T17:27:38.903</time></trkpt><trkpt lat="55.7631942" lon="49.1495332"><time>2022-10-29T17:27:40.903</time></trkpt><trkpt lat="55.7632572" lon="49.1495171"><time>2022-10-29T17:27:43.960</time></trkpt><trkpt lat="55.7632572" lon="49.1495171"><time>2022-10-29T17:27:44.013</time></trkpt><trkpt lat="55.7633118" lon="49.1495497"><time>2022-10-29T17:27:45.957</time></trkpt><trkpt lat="55.7633175" lon="49.1495857"><time>2022-10-29T17:27:47.083</time></trkpt><trkpt lat="55.7633629" lon="49.1495960"><time>2022-10-29T17:27:48.893</time></trkpt><trkpt lat="55.7634115" lon="49.1495905"><time>2022-10-29T17:27:50.917</time></trkpt><trkpt lat="55.7634581" lon="49.1495941"><time>2022-10-29T17:27:54.907</time></trkpt><trkpt lat="55.7634949" lon="49.1496403"><time>2022-10-29T17:28:08.913</time></trkpt><trkpt lat="55.7635466" lon="49.1495852"><time>2022-10-29T17:30:31.907</time></trkpt><trkpt lat="55.7635467" lon="49.1494628"><time>2022-10-29T17:30:33.953</time></trkpt><trkpt lat="55.7635560" lon="49.1493341"><time>2022-10-29T17:30:35.930</time></trkpt><trkpt lat="55.7635690" lon="49.1492044"><time>2022-10-29T17:30:37.907</time></trkpt><trkpt lat="55.7635839" lon="49.1490795"><time>2022-10-29T17:30:39.907</time></trkpt><trkpt lat="55.7636010" lon="49.1489473"><time>2022-10-29T17:30:41.897</time></trkpt><trkpt lat="55.7636174" lon="49.1488108"><time>2022-10-29T17:30:43.927</time></trkpt><trkpt lat="55.7636364" lon="49.1486687"><time>2022-10-29T17:30:45.927</time></trkpt><trkpt lat="55.7636556" lon="49.1485275"><time>2022-10-29T17:30:47.927</time></trkpt><trkpt lat="55.7636724" lon="49.1483845"><time>2022-10-29T17:30:49.927</time></trkpt><trkpt lat="55.7636879" lon="49.1482674"><time>2022-10-29T17:30:51.907</time></trkpt><trkpt lat="55.7637058" lon="49.1481588"><time>2022-10-29T17:30:53.907</time></trkpt><trkpt lat="55.7637190" lon="49.1480629"><time>2022-10-29T17:30:56.927</time></trkpt><trkpt lat="55.7637284" lon="49.1479679"><time>2022-10-29T17:30:59.927</time></trkpt><trkpt lat="55.7637405" lon="49.1478632"><time>2022-10-29T17:31:01.937</time></trkpt><trkpt lat="55.7637457" lon="49.1477410"><time>2022-10-29T17:31:03.927</time></trkpt><trkpt lat="55.7637456" lon="49.1476133"><time>2022-10-29T17:31:05.927</time></trkpt><trkpt lat="55.7637500" lon="49.1474878"><time>2022-10-29T17:31:07.930</time></trkpt><trkpt lat="55.7637567" lon="49.1473568"><time>2022-10-29T17:31:09.937</time></trkpt><trkpt lat="55.7637654" lon="49.1472154"><time>2022-10-29T17:31:11.940</time></trkpt><trkpt lat="55.7637750" lon="49.1470772"><time>2022-10-29T17:31:13.923</time></trkpt><trkpt lat="55.7637815" lon="49.1469375"><time>2022-10-29T17:31:15.930</time></trkpt><trkpt lat="55.7637847" lon="49.1468000"><time>2022-10-29T17:31:17.930</time></trkpt><trkpt lat="55.7637916" lon="49.1466698"><time>2022-10-29T17:31:19.937</time></trkpt><trkpt lat="55.7637975" lon="49.1465474"><time>2022-10-29T17:31:21.937</time></trkpt><trkpt lat="55.7637993" lon="49.1464668"><time>2022-10-29T17:31:23.937</time></trkpt><trkpt lat="55.7638049" lon="49.1463792"><time>2022-10-29T17:31:25.930</time></trkpt><trkpt lat="55.7638151" lon="49.1462730"><time>2022-10-29T17:31:27.933</time></trkpt><trkpt lat="55.7638229" lon="49.1461656"><time>2022-10-29T17:31:29.930</time></trkpt><trkpt lat="55.7638286" lon="49.1460530"><time>2022-10-29T17:31:31.907</time></trkpt><trkpt lat="55.7638339" lon="49.1459318"><time>2022-10-29T17:31:33.910</time></trkpt><trkpt lat="55.7638426" lon="49.1458058"><time>2022-10-29T17:31:35.900</time></trkpt><trkpt lat="55.7638423" lon="49.1456811"><time>2022-10-29T17:31:37.930</time></trkpt><trkpt lat="55.7638470" lon="49.1455745"><time>2022-10-29T17:31:39.937</time></trkpt><trkpt lat="55.7638619" lon="49.1454771"><time>2022-10-29T17:31:41.927</time></trkpt><trkpt lat="55.7638702" lon="49.1453708"><time>2022-10-29T17:31:43.937</time></trkpt><trkpt lat="55.7638788" lon="49.1452661"><time>2022-10-29T17:31:45.930</time></trkpt><trkpt lat="55.7638851" lon="49.1451423"><time>2022-10-29T17:31:47.923</time></trkpt><trkpt lat="55.7638917" lon="49.1450170"><time>2022-10-29T17:31:49.930</time></trkpt><trkpt lat="55.7639009" lon="49.1448914"><time>2022-10-29T17:31:51.933</time></trkpt><trkpt lat="55.7639104" lon="49.1447539"><time>2022-10-29T17:31:53.937</time></trkpt><trkpt lat="55.7639212" lon="49.1446308"><time>2022-10-29T17:31:55.933</time></trkpt><trkpt lat="55.7639339" lon="49.1445014"><time>2022-10-29T17:31:57.937</time></trkpt><trkpt lat="55.7639456" lon="49.1443706"><time>2022-10-29T17:31:59.933</time></trkpt><trkpt lat="55.7639545" lon="49.1442419"><time>2022-10-29T17:32:01.933</time></trkpt><trkpt lat="55.7639550" lon="49.1441230"><time>2022-10-29T17:32:03.933</time></trkpt><trkpt lat="55.7639596" lon="49.1439910"><time>2022-10-29T17:32:05.930</time></trkpt><trkpt lat="55.7639667" lon="49.1438672"><time>2022-10-29T17:32:07.933</time></trkpt><trkpt lat="55.7639720" lon="49.1437435"><time>2022-10-29T17:32:09.933</time></trkpt><trkpt lat="55.7639776" lon="49.1436119"><time>2022-10-29T17:32:11.930</time></trkpt><trkpt lat="55.7639877" lon="49.1434922"><time>2022-10-29T17:32:13.933</time></trkpt><trkpt lat="55.7639935" lon="49.1433672"><time>2022-10-29T17:32:15.930</time></trkpt><trkpt lat="55.7639960" lon="49.1432437"><time>2022-10-29T17:32:17.927</time></trkpt><trkpt lat="55.7640007" lon="49.1431206"><time>2022-10-29T17:32:19.937</time></trkpt><trkpt lat="55.7639938" lon="49.1430038"><time>2022-10-29T17:32:21.933</time></trkpt><trkpt lat="55.7639845" lon="49.1428867"><time>2022-10-29T17:32:23.940</time></trkpt><trkpt lat="55.7639746" lon="49.1427662"><time>2022-10-29T17:32:25.913</time></trkpt><trkpt lat="55.7639687" lon="49.1426285"><time>2022-10-29T17:32:27.907</time></trkpt><trkpt lat="55.7639622" lon="49.1424941"><time>2022-10-29T17:32:29.930</time></trkpt><trkpt lat="55.7639569" lon="49.1423720"><time>2022-10-29T17:32:31.933</time></trkpt><trkpt lat="55.7639500" lon="49.1422432"><time>2022-10-29T17:32:33.940</time></trkpt><trkpt lat="55.7639484" lon="49.1420891"><time>2022-10-29T17:32:35.933</time></trkpt><trkpt lat="55.7639426" lon="49.1419560"><time>2022-10-29T17:32:37.937</time></trkpt><trkpt lat="55.7639377" lon="49.1418597"><time>2022-10-29T17:32:39.933</time></trkpt><trkpt lat="55.7639304" lon="49.1417469"><time>2022-10-29T17:32:42.937</time></trkpt><trkpt lat="55.7639236" lon="49.1416524"><time>2022-10-29T17:32:44.927</time></trkpt><trkpt lat="55.7639192" lon="49.1415516"><time>2022-10-29T17:32:46.943</time></trkpt><trkpt lat="55.7639130" lon="49.1414414"><time>2022-10-29T17:32:48.927</time></trkpt><trkpt lat="55.7639027" lon="49.1413348"><time>2022-10-29T17:32:50.933</time></trkpt><trkpt lat="55.7638907" lon="49.1412392"><time>2022-10-29T17:32:52.930</time></trkpt><trkpt lat="55.7638818" lon="49.1411414"><time>2022-10-29T17:32:54.930</time></trkpt><trkpt lat="55.7638750" lon="49.1410603"><time>2022-10-29T17:32:56.930</time></trkpt><trkpt lat="55.7638663" lon="49.1409737"><time>2022-10-29T17:32:58.897</time></trkpt><trkpt lat="55.7638557" lon="49.1408763"><time>2022-10-29T17:33:00.907</time></trkpt><trkpt lat="55.7638454" lon="49.1407828"><time>2022-10-29T17:33:02.913</time></trkpt><trkpt lat="55.7638334" lon="49.1406674"><time>2022-10-29T17:33:05.933</time></trkpt><trkpt lat="55.7638254" lon="49.1405797"><time>2022-10-29T17:33:07.910</time></trkpt><trkpt lat="55.7638157" lon="49.1404780"><time>2022-10-29T17:33:09.897</time></trkpt><trkpt lat="55.7638048" lon="49.1403768"><time>2022-10-29T17:33:11.910</time></trkpt><trkpt lat="55.7637970" lon="49.1402726"><time>2022-10-29T17:33:13.937</time></trkpt><trkpt lat="55.7637916" lon="49.1401655"><time>2022-10-29T17:33:15.930</time></trkpt><trkpt lat="55.7637861" lon="49.1400543"><time>2022-10-29T17:33:17.930</time></trkpt><trkpt lat="55.7637787" lon="49.1399442"><time>2022-10-29T17:33:19.910</time></trkpt><trkpt lat="55.7637687" lon="49.1398289"><time>2022-10-29T17:33:21.907</time></trkpt><trkpt lat="55.7637603" lon="49.1397241"><time>2022-10-29T17:33:23.940</time></trkpt><trkpt lat="55.7637494" lon="49.1396357"><time>2022-10-29T17:33:25.927</time></trkpt><trkpt lat="55.7637370" lon="49.1395510"><time>2022-10-29T17:33:27.930</time></trkpt><trkpt lat="55.7637204" lon="49.1394597"><time>2022-10-29T17:33:30.943</time></trkpt><trkpt lat="55.7637101" lon="49.1393782"><time>2022-10-29T17:33:35.923</time></trkpt><trkpt lat="55.7636953" lon="49.1392902"><time>2022-10-29T17:33:40.927</time></trkpt><trkpt lat="55.7636737" lon="49.1392119"><time>2022-10-29T17:33:44.940</time></trkpt><trkpt lat="55.7636540" lon="49.1391259"><time>2022-10-29T17:33:48.933</time></trkpt><trkpt lat="55.7636450" lon="49.1390403"><time>2022-10-29T17:33:51.933</time></trkpt><trkpt lat="55.7636278" lon="49.1389611"><time>2022-10-29T17:33:55.937</time></trkpt><trkpt lat="55.7636353" lon="49.1388799"><time>2022-10-29T17:34:07.930</time></trkpt><trkpt lat="55.7636180" lon="49.1388060"><time>2022-10-29T17:34:10.927</time></trkpt><trkpt lat="55.7636004" lon="49.1387101"><time>2022-10-29T17:34:14.930</time></trkpt><trkpt lat="55.7635810" lon="49.1386299"><time>2022-10-29T17:34:17.937</time></trkpt><trkpt lat="55.7635616" lon="49.1385553"><time>2022-10-29T17:34:19.933</time></trkpt><trkpt lat="55.7635410" lon="49.1384670"><time>2022-10-29T17:34:22.927</time></trkpt><trkpt lat="55.7635203" lon="49.1383794"><time>2022-10-29T17:34:25.943</time></trkpt><trkpt lat="55.7634952" lon="49.1382840"><time>2022-10-29T17:34:28.937</time></trkpt><trkpt lat="55.7634868" lon="49.1381831"><time>2022-10-29T17:34:31.930</time></trkpt><trkpt lat="55.7634746" lon="49.1380780"><time>2022-10-29T17:34:34.930</time></trkpt><trkpt lat="55.7634478" lon="49.1379580"><time>2022-10-29T17:34:37.930</time></trkpt><trkpt lat="55.7634183" lon="49.1378612"><time>2022-10-29T17:34:40.940</time></trkpt><trkpt lat="55.7634012" lon="49.1377749"><time>2022-10-29T17:34:42.940</time></trkpt><trkpt lat="55.7633865" lon="49.1376920"><time>2022-10-29T17:34:44.937</time></trkpt><trkpt lat="55.7633682" lon="49.1376110"><time>2022-10-29T17:34:46.933</time></trkpt><trkpt lat="55.7633514" lon="49.1375370"><time>2022-10-29T17:34:48.923</time></trkpt><trkpt lat="55.7633171" lon="49.1374512"><time>2022-10-29T17:34:51.937</time></trkpt><trkpt lat="55.7632841" lon="49.1373887"><time>2022-10-29T17:34:53.933</time></trkpt><trkpt lat="55.7632610" lon="49.1373129"><time>2022-10-29T17:34:56.927</time></trkpt><trkpt lat="55.7632348" lon="49.1372172"><time>2022-10-29T17:34:58.937</time></trkpt><trkpt lat="55.7632095" lon="49.1371232"><time>2022-10-29T17:35:00.933</time></trkpt><trkpt lat="55.7631831" lon="49.1370224"><time>2022-10-29T17:35:02.937</time></trkpt><trkpt lat="55.7631503" lon="49.1369167"><time>2022-10-29T17:35:04.927</time></trkpt><trkpt lat="55.7631143" lon="49.1368281"><time>2022-10-29T17:35:06.933</time></trkpt><trkpt lat="55.7630690" lon="49.1367815"><time>2022-10-29T17:35:08.937</time></trkpt><trkpt lat="55.7630234" lon="49.1367312"><time>2022-10-29T17:35:10.930</time></trkpt><trkpt lat="55.7629751" lon="49.1366696"><time>2022-10-29T17:35:12.930</time></trkpt><trkpt lat="55.7629277" lon="49.1366176"><time>2022-10-29T17:35:14.907</time></trkpt><trkpt lat="55.7628892" lon="49.1365589"><time>2022-10-29T17:35:16.947</time></trkpt><trkpt lat="55.7628893" lon="49.1365300"><time>2022-10-29T17:35:18.090</time></trkpt><trkpt lat="55.7628243" lon="49.1365408"><time>2022-10-29T17:35:20.947</time></trkpt><trkpt lat="55.7627744" lon="49.1365794"><time>2022-10-29T17:35:22.933</time></trkpt><trkpt lat="55.7627189" lon="49.1366251"><time>2022-10-29T17:35:24.937</time></trkpt><trkpt lat="55.7626640" lon="49.1366732"><time>2022-10-29T17:35:26.940</time></trkpt><trkpt lat="55.7626053" lon="49.1367211"><time>2022-10-29T17:35:28.943</time></trkpt><trkpt lat="55.7625471" lon="49.1367682"><time>2022-10-29T17:35:30.943</time></trkpt><trkpt lat="55.7624870" lon="49.1368165"><time>2022-10-29T17:35:32.907</time></trkpt><trkpt lat="55.7624283" lon="49.1368594"><time>2022-10-29T17:35:34.907</time></trkpt><trkpt lat="55.7623713" lon="49.1369021"><time>2022-10-29T17:35:36.943</time></trkpt><trkpt lat="55.7623110" lon="49.1369562"><time>2022-10-29T17:35:38.953</time></trkpt><trkpt lat="55.7622500" lon="49.1370112"><time>2022-10-29T17:35:40.943</time></trkpt><trkpt lat="55.7621872" lon="49.1370659"><time>2022-10-29T17:35:42.923</time></trkpt><trkpt lat="55.7621190" lon="49.1371108"><time>2022-10-29T17:35:44.930</time></trkpt><trkpt lat="55.7620447" lon="49.1371389"><time>2022-10-29T17:35:46.950</time></trkpt><trkpt lat="55.7620302" lon="49.1371462"><time>2022-10-29T17:35:47.947</time></trkpt><trkpt lat="55.7619821" lon="49.1371825"><time>2022-10-29T17:35:48.927</time></trkpt><trkpt lat="55.7619166" lon="49.1372359"><time>2022-10-29T17:35:50.927</time></trkpt><trkpt lat="55.7618531" lon="49.1372771"><time>2022-10-29T17:35:52.927</time></trkpt><trkpt lat="55.7617898" lon="49.1372951"><time>2022-10-29T17:35:54.933</time></trkpt><trkpt lat="55.7617301" lon="49.1372882"><time>2022-10-29T17:35:56.937</time></trkpt><trkpt lat="55.7616684" lon="49.1372670"><time>2022-10-29T17:35:58.927</time></trkpt><trkpt lat="55.7616059" lon="49.1372240"><time>2022-10-29T17:36:00.907</time></trkpt><trkpt lat="55.7615510" lon="49.1371647"><time>2022-10-29T17:36:02.940</time></trkpt><trkpt lat="55.7615418" lon="49.1371349"><time>2022-10-29T17:36:04.060</time></trkpt><trkpt lat="55.7615055" lon="49.1370470"><time>2022-10-29T17:36:05.960</time></trkpt><trkpt lat="55.7614961" lon="49.1370153"><time>2022-10-29T17:36:07.107</time></trkpt><trkpt lat="55.7614660" lon="49.1369258"><time>2022-10-29T17:36:08.907</time></trkpt><trkpt lat="55.7614359" lon="49.1368646"><time>2022-10-29T17:36:10.910</time></trkpt><trkpt lat="55.7613852" lon="49.1368618"><time>2022-10-29T17:36:12.907</time></trkpt><trkpt lat="55.7613415" lon="49.1369386"><time>2022-10-29T17:36:14.907</time></trkpt><trkpt lat="55.7613199" lon="49.1370292"><time>2022-10-29T17:36:16.937</time></trkpt><trkpt lat="55.7613302" lon="49.1370779"><time>2022-10-29T17:36:18.087</time></trkpt><trkpt lat="55.7613212" lon="49.1371951"><time>2022-10-29T17:36:19.907</time></trkpt><trkpt lat="55.7613020" lon="49.1373066"><time>2022-10-29T17:36:21.910</time></trkpt><trkpt lat="55.7612764" lon="49.1374019"><time>2022-10-29T17:36:23.947</time></trkpt><trkpt lat="55.7612552" lon="49.1374859"><time>2022-10-29T17:36:25.893</time></trkpt><trkpt lat="55.7612337" lon="49.1375618"><time>2022-10-29T17:36:27.993</time></trkpt><trkpt lat="55.7612166" lon="49.1376539"><time>2022-10-29T17:36:30.927</time></trkpt></trkseg></trk></gpx>